<?xml version='1.0' encoding='UTF-8'?><gpx version="1.1" creator="JPX - https://github.com/jenetics/jpx" xmlns="http://www.topografix.com/GPX/1/1"><trk><trkseg><trkpt lat="41.06160703658507" lon="14.572366511453161"><ele>255.99999999999997</ele><time>2026-04-25T11:05:46.999Z</time></trkpt><trkpt lat="41.061557146923704" lon="14.57242114841337"><ele>256.0</ele><time>2026-04-25T11:05:47.999Z</time></trkpt><trkpt lat="41.06149034402489" lon="14.572390449206592"><ele>256.0</ele><time>2026-04-25T11:05:49.999Z</time></trkpt><trkpt lat="41.061413322182446" lon="14.5723529091769"><ele>256.0</ele><time>2026-04-25T11:06:13.999Z</time></trkpt><trkpt lat="41.06133193599075" lon="14.572432150812112"><ele>255.99999999999997</ele><time>2026-04-25T11:06:15.999Z</time></trkpt><trkpt lat="41.06127265665557" lon="14.572555246297961"><ele>256.0</ele><time>2026-04-25T11:06:16.999Z</time></trkpt><trkpt lat="41.06122246465916" lon="14.57267620035049"><ele>256.0</ele><time>2026-04-25T11:06:17.999Z</time></trkpt><trkpt lat="41.06116712904149" lon="14.57280135350352"><ele>256.0</ele><time>2026-04-25T11:06:18.999Z</time></trkpt><trkpt lat="41.06109911230901" lon="14.572932869544431"><ele>256.0</ele><time>2026-04-25T11:06:19.999Z</time></trkpt><trkpt lat="41.061022373575895" lon="14.573081510601819"><ele>256.0</ele><time>2026-04-25T11:06:20.998Z</time></trkpt><trkpt lat="41.06094416225394" lon="14.573229475703855"><ele>256.3333333333333</ele><time>2026-04-25T11:06:21.998Z</time></trkpt><trkpt lat="41.06086373146227" lon="14.573384759418412"><ele>256.6666666666667</ele><time>2026-04-25T11:06:22.998Z</time></trkpt><trkpt lat="41.06077727232856" lon="14.573544053495715"><ele>257.0</ele><time>2026-04-25T11:06:23.998Z</time></trkpt><trkpt lat="41.06068547846311" lon="14.57372012441101"><ele>258.0</ele><time>2026-04-25T11:06:24.998Z</time></trkpt><trkpt lat="41.06059301926155" lon="14.573902280795645"><ele>259.0</ele><time>2026-04-25T11:06:25.998Z</time></trkpt><trkpt lat="41.06049564478314" lon="14.57408346373606"><ele>260.0</ele><time>2026-04-25T11:06:26.998Z</time></trkpt><trkpt lat="41.06039700406393" lon="14.574266814683737"><ele>260.0</ele><time>2026-04-25T11:06:27.998Z</time></trkpt><trkpt lat="41.06028931981284" lon="14.574434166768604"><ele>260.0</ele><time>2026-04-25T11:06:28.998Z</time></trkpt><trkpt lat="41.06016578584881" lon="14.574592872079768"><ele>260.0</ele><time>2026-04-25T11:06:29.998Z</time></trkpt><trkpt lat="41.06001630358645" lon="14.574735786644311"><ele>260.5</ele><time>2026-04-25T11:06:30.998Z</time></trkpt><trkpt lat="41.05982330640908" lon="14.574888717068813"><ele>261.0</ele><time>2026-04-25T11:06:31.998Z</time></trkpt><trkpt lat="41.059593566884374" lon="14.575051310273006"><ele>261.0</ele><time>2026-04-25T11:06:32.998Z</time></trkpt><trkpt lat="41.0593697056665" lon="14.575230404331544"><ele>261.0</ele><time>2026-04-25T11:06:33.998Z</time></trkpt><trkpt lat="41.05914606673414" lon="14.575418847213458"><ele>260.6666666666667</ele><time>2026-04-25T11:06:34.998Z</time></trkpt><trkpt lat="41.058953713589716" lon="14.57558968249248"><ele>260.33333333333337</ele><time>2026-04-25T11:06:35.998Z</time></trkpt><trkpt lat="41.058783235703636" lon="14.575751247278605"><ele>260.0</ele><time>2026-04-25T11:06:36.998Z</time></trkpt><trkpt lat="41.05862605290659" lon="14.575918091568472"><ele>260.0</ele><time>2026-04-25T11:06:37.998Z</time></trkpt><trkpt lat="41.05847771212407" lon="14.576089024840538"><ele>260.0</ele><time>2026-04-25T11:06:38.998Z</time></trkpt><trkpt lat="41.058331451923166" lon="14.576265214012228"><ele>260.0</ele><time>2026-04-25T11:06:39.998Z</time></trkpt><trkpt lat="41.0581854511349" lon="14.576432500436212"><ele>259.6666666666667</ele><time>2026-04-25T11:06:40.998Z</time></trkpt><trkpt lat="41.05804904389755" lon="14.576589999149821"><ele>259.3333333333333</ele><time>2026-04-25T11:06:41.998Z</time></trkpt><trkpt lat="41.05791797296916" lon="14.576726946243072"><ele>259.0</ele><time>2026-04-25T11:06:42.998Z</time></trkpt><trkpt lat="41.05777865514836" lon="14.576839432670363"><ele>259.0</ele><time>2026-04-25T11:06:43.998Z</time></trkpt><trkpt lat="41.0576261211447" lon="14.576920841707713"><ele>259.0</ele><time>2026-04-25T11:06:44.998Z</time></trkpt><trkpt lat="41.057467648293915" lon="14.57698993402723"><ele>259.0</ele><time>2026-04-25T11:06:45.998Z</time></trkpt><trkpt lat="41.05729987488972" lon="14.577051913447747"><ele>258.3333333333333</ele><time>2026-04-25T11:06:46.998Z</time></trkpt><trkpt lat="41.05713271588024" lon="14.577101404824337"><ele>257.6666666666667</ele><time>2026-04-25T11:06:47.998Z</time></trkpt><trkpt lat="41.05696666558105" lon="14.577152096996826"><ele>257.0</ele><time>2026-04-25T11:06:48.998Z</time></trkpt><trkpt lat="41.05681028202449" lon="14.577207602630416"><ele>257.0</ele><time>2026-04-25T11:06:49.998Z</time></trkpt><trkpt lat="41.05666031988222" lon="14.577264021320916"><ele>257.0</ele><time>2026-04-25T11:06:50.998Z</time></trkpt><trkpt lat="41.05650480718313" lon="14.577324146156744"><ele>257.0</ele><time>2026-04-25T11:06:51.998Z</time></trkpt><trkpt lat="41.05636269486752" lon="14.577382509098468"><ele>257.0</ele><time>2026-04-25T11:06:52.998Z</time></trkpt><trkpt lat="41.05623666178673" lon="14.577459423458157"><ele>257.0</ele><time>2026-04-25T11:06:53.998Z</time></trkpt><trkpt lat="41.05611238580625" lon="14.577566233550385"><ele>257.0</ele><time>2026-04-25T11:06:54.998Z</time></trkpt><trkpt lat="41.055986551177355" lon="14.577689763251682"><ele>257.0</ele><time>2026-04-25T11:06:55.998Z</time></trkpt><trkpt lat="41.05586169095523" lon="14.57782430021581"><ele>257.6666666666667</ele><time>2026-04-25T11:06:56.998Z</time></trkpt><trkpt lat="41.055736323653555" lon="14.577980450629752"><ele>258.3333333333333</ele><time>2026-04-25T11:06:57.998Z</time></trkpt><trkpt lat="41.05560339656529" lon="14.578163933070574"><ele>259.0</ele><time>2026-04-25T11:06:58.998Z</time></trkpt><trkpt lat="41.05546270716586" lon="14.578349545238511"><ele>259.0</ele><time>2026-04-25T11:06:59.998Z</time></trkpt><trkpt lat="41.05532834870696" lon="14.578516361635243"><ele>259.0</ele><time>2026-04-25T11:07:00.998Z</time></trkpt><trkpt lat="41.05519026734108" lon="14.578681276914587"><ele>259.0</ele><time>2026-04-25T11:07:01.998Z</time></trkpt><trkpt lat="41.055057136694565" lon="14.578833859755246"><ele>259.3333333333333</ele><time>2026-04-25T11:07:02.999Z</time></trkpt><trkpt lat="41.05493078596919" lon="14.578967040201272"><ele>259.6666666666667</ele><time>2026-04-25T11:07:03.999Z</time></trkpt><trkpt lat="41.054795614806444" lon="14.579111129879097"><ele>260.0</ele><time>2026-04-25T11:07:04.999Z</time></trkpt><trkpt lat="41.054661544253975" lon="14.579255934244602"><ele>260.0</ele><time>2026-04-25T11:07:05.999Z</time></trkpt><trkpt lat="41.054529625067026" lon="14.579404442122557"><ele>260.0</ele><time>2026-04-25T11:07:06.999Z</time></trkpt><trkpt lat="41.05435835736464" lon="14.579569113040817"><ele>260.0</ele><time>2026-04-25T11:07:07.999Z</time></trkpt><trkpt lat="41.05419947058521" lon="14.5797406239846"><ele>259.6666666666667</ele><time>2026-04-25T11:07:08.999Z</time></trkpt><trkpt lat="41.05405801637155" lon="14.579893355970329"><ele>259.3333333333333</ele><time>2026-04-25T11:07:09.999Z</time></trkpt><trkpt lat="41.05394058308768" lon="14.580048569768934"><ele>259.0</ele><time>2026-04-25T11:07:10.999Z</time></trkpt><trkpt lat="41.05382082308552" lon="14.580178541376764"><ele>259.0</ele><time>2026-04-25T11:07:11.999Z</time></trkpt><trkpt lat="41.05371318990947" lon="14.580314999527427"><ele>259.0</ele><time>2026-04-25T11:07:12.999Z</time></trkpt><trkpt lat="41.05361950768679" lon="14.580455032872507"><ele>259.0</ele><time>2026-04-25T11:07:13.999Z</time></trkpt><trkpt lat="41.053537426205914" lon="14.580605269347116"><ele>259.0</ele><time>2026-04-25T11:07:14.999Z</time></trkpt><trkpt lat="41.05346024141916" lon="14.580763159820178"><ele>258.75</ele><time>2026-04-25T11:07:15.999Z</time></trkpt><trkpt lat="41.053379787459214" lon="14.580924741228865"><ele>258.5</ele><time>2026-04-25T11:07:16.999Z</time></trkpt><trkpt lat="41.053296949728804" lon="14.581084455168355"><ele>258.25</ele><time>2026-04-25T11:07:17.999Z</time></trkpt><trkpt lat="41.053224039391374" lon="14.581240135124553"><ele>258.0</ele><time>2026-04-25T11:07:18.999Z</time></trkpt><trkpt lat="41.0531570584537" lon="14.581390869548631"><ele>257.25</ele><time>2026-04-25T11:07:19.999Z</time></trkpt><trkpt lat="41.05309908345531" lon="14.581540621492294"><ele>256.5</ele><time>2026-04-25T11:07:20.999Z</time></trkpt><trkpt lat="41.05306836963232" lon="14.581696450264394"><ele>255.75</ele><time>2026-04-25T11:07:21.999Z</time></trkpt><trkpt lat="41.05305993087185" lon="14.581836780675445"><ele>255.0</ele><time>2026-04-25T11:07:22.999Z</time></trkpt><trkpt lat="41.053050414419886" lon="14.581972495756144"><ele>255.75</ele><time>2026-04-25T11:07:23.999Z</time></trkpt><trkpt lat="41.053042689620106" lon="14.58209093278695"><ele>256.5</ele><time>2026-04-25T11:07:24.999Z</time></trkpt><trkpt lat="41.05303629759615" lon="14.582221025215539"><ele>257.25</ele><time>2026-04-25T11:07:25.999Z</time></trkpt><trkpt lat="41.05302581459548" lon="14.582378601318382"><ele>258.0</ele><time>2026-04-25T11:07:26.999Z</time></trkpt><trkpt lat="41.05301823746234" lon="14.582579954780257"><ele>258.0</ele><time>2026-04-25T11:07:27.999Z</time></trkpt><trkpt lat="41.0530075662039" lon="14.582828623000198"><ele>258.0</ele><time>2026-04-25T11:07:28.999Z</time></trkpt><trkpt lat="41.0529778798572" lon="14.583119706567704"><ele>258.0</ele><time>2026-04-25T11:07:29.999Z</time></trkpt><trkpt lat="41.05294448211894" lon="14.583407797768121"><ele>259.0</ele><time>2026-04-25T11:07:30.999Z</time></trkpt><trkpt lat="41.05291518015365" lon="14.583708804494286"><ele>260.0</ele><time>2026-04-25T11:07:31.999Z</time></trkpt><trkpt lat="41.052887329659896" lon="14.584047591286758"><ele>260.0</ele><time>2026-04-25T11:07:32.999Z</time></trkpt><trkpt lat="41.052859974593474" lon="14.584389215345514"><ele>260.0</ele><time>2026-04-25T11:07:33.999Z</time></trkpt><trkpt lat="41.05282848420742" lon="14.584733561826425"><ele>259.5</ele><time>2026-04-25T11:07:34.999Z</time></trkpt><trkpt lat="41.05279290330301" lon="14.585092371954795"><ele>259.0</ele><time>2026-04-25T11:07:35.999Z</time></trkpt><trkpt lat="41.05276291339077" lon="14.585459683699622"><ele>259.0</ele><time>2026-04-25T11:07:36.999Z</time></trkpt><trkpt lat="41.05272746233817" lon="14.585818651809877"><ele>259.0</ele><time>2026-04-25T11:07:37.999Z</time></trkpt><trkpt lat="41.052661008249224" lon="14.586177351958709"><ele>259.5</ele><time>2026-04-25T11:07:38.999Z</time></trkpt><trkpt lat="41.052526685187416" lon="14.586509299204552"><ele>260.0</ele><time>2026-04-25T11:07:39.999Z</time></trkpt><trkpt lat="41.05238423885025" lon="14.586848414372245"><ele>260.0</ele><time>2026-04-25T11:07:40.999Z</time></trkpt><trkpt lat="41.05220966141751" lon="14.587177807799472"><ele>260.0</ele><time>2026-04-25T11:07:41.999Z</time></trkpt><trkpt lat="41.052042664777304" lon="14.587502317811571"><ele>260.0</ele><time>2026-04-25T11:07:42.999Z</time></trkpt><trkpt lat="41.051894110261436" lon="14.587799791684809"><ele>260.0</ele><time>2026-04-25T11:07:43.999Z</time></trkpt><trkpt lat="41.05175122616702" lon="14.58808704717291"><ele>260.5</ele><time>2026-04-25T11:07:44.999Z</time></trkpt><trkpt lat="41.051616162791085" lon="14.588375711084518"><ele>261.0</ele><time>2026-04-25T11:07:45.999Z</time></trkpt><trkpt lat="41.05149325123114" lon="14.588682435845502"><ele>261.5</ele><time>2026-04-25T11:07:46.999Z</time></trkpt><trkpt lat="41.051387922794135" lon="14.589013576725113"><ele>262.0</ele><time>2026-04-25T11:07:47.999Z</time></trkpt><trkpt lat="41.05129159871926" lon="14.589361342569827"><ele>261.5</ele><time>2026-04-25T11:07:48.999Z</time></trkpt><trkpt lat="41.05119497768777" lon="14.589704405363086"><ele>261.0</ele><time>2026-04-25T11:07:49.999Z</time></trkpt><trkpt lat="41.05110073727844" lon="14.590039210186578"><ele>261.5</ele><time>2026-04-25T11:07:50.999Z</time></trkpt><trkpt lat="41.05100856899123" lon="14.590367980201925"><ele>262.0</ele><time>2026-04-25T11:07:51.999Z</time></trkpt><trkpt lat="41.050916471306046" lon="14.590691610163795"><ele>262.0</ele><time>2026-04-25T11:07:52.999Z</time></trkpt><trkpt lat="41.050826479140845" lon="14.591011691121494"><ele>262.0</ele><time>2026-04-25T11:07:53.999Z</time></trkpt><trkpt lat="41.050737449901305" lon="14.59132479062724"><ele>262.5</ele><time>2026-04-25T11:07:54.999Z</time></trkpt><trkpt lat="41.050650956034275" lon="14.591635376991764"><ele>263.0</ele><time>2026-04-25T11:07:55.999Z</time></trkpt><trkpt lat="41.05056418824241" lon="14.591947144758253"><ele>263.5</ele><time>2026-04-25T11:07:56.999Z</time></trkpt><trkpt lat="41.05047688467299" lon="14.592254524309315"><ele>264.0</ele><time>2026-04-25T11:07:57.999Z</time></trkpt><trkpt lat="41.050392356508766" lon="14.592545498208242"><ele>264.0</ele><time>2026-04-25T11:07:58.999Z</time></trkpt><trkpt lat="41.05031747408978" lon="14.592809071817602"><ele>264.0</ele><time>2026-04-25T11:07:59.999Z</time></trkpt><trkpt lat="41.05024469905213" lon="14.593072656516588"><ele>264.0</ele><time>2026-04-25T11:08:00.999Z</time></trkpt><trkpt lat="41.050171227250445" lon="14.59333055844996"><ele>264.0</ele><time>2026-04-25T11:08:01.999Z</time></trkpt><trkpt lat="41.05008822070638" lon="14.59358286383844"><ele>264.0</ele><time>2026-04-25T11:08:02.999Z</time></trkpt><trkpt lat="41.05001543432376" lon="14.593836609395257"><ele>264.0</ele><time>2026-04-25T11:08:03.999Z</time></trkpt><trkpt lat="41.0499503959524" lon="14.594070459948894"><ele>263.6666666666667</ele><time>2026-04-25T11:08:04.999Z</time></trkpt><trkpt lat="41.04991091567329" lon="14.59432270097815"><ele>263.33333333333337</ele><time>2026-04-25T11:08:05.999Z</time></trkpt><trkpt lat="41.04987848964608" lon="14.59458933194849"><ele>263.0</ele><time>2026-04-25T11:08:06.999Z</time></trkpt><trkpt lat="41.049849444447545" lon="14.594833947349073"><ele>263.5</ele><time>2026-04-25T11:08:07.999Z</time></trkpt><trkpt lat="41.04981029935416" lon="14.595039392334927"><ele>264.0</ele><time>2026-04-25T11:08:08.999Z</time></trkpt><trkpt lat="41.04979453595255" lon="14.595216017590014"><ele>264.5</ele><time>2026-04-25T11:08:09.999Z</time></trkpt><trkpt lat="41.04977401410438" lon="14.595379933677677"><ele>265.0</ele><time>2026-04-25T11:08:10.999Z</time></trkpt><trkpt lat="41.04975717016486" lon="14.595524476459095"><ele>265.0</ele><time>2026-04-25T11:08:11.999Z</time></trkpt><trkpt lat="41.04972907167227" lon="14.595672507576259"><ele>265.0</ele><time>2026-04-25T11:08:12.999Z</time></trkpt><trkpt lat="41.04969728051339" lon="14.59582517522866"><ele>265.0</ele><time>2026-04-25T11:08:13.999Z</time></trkpt><trkpt lat="41.04966032628575" lon="14.595959088359342"><ele>265.0</ele><time>2026-04-25T11:08:14.999Z</time></trkpt><trkpt lat="41.04961660900414" lon="14.596076660186247"><ele>265.0</ele><time>2026-04-25T11:08:15.999Z</time></trkpt><trkpt lat="41.04955307775116" lon="14.596184547695605"><ele>265.0</ele><time>2026-04-25T11:08:16.999Z</time></trkpt><trkpt lat="41.049489284785906" lon="14.596280606067703"><ele>265.0</ele><time>2026-04-25T11:08:17.999Z</time></trkpt><trkpt lat="41.049428425193184" lon="14.596348273324018"><ele>265.0</ele><time>2026-04-25T11:08:18.999Z</time></trkpt><trkpt lat="41.049366478060726" lon="14.59640753266391"><ele>265.0</ele><time>2026-04-25T11:08:19.999Z</time></trkpt><trkpt lat="41.04930819946391" lon="14.596452185699095"><ele>265.0</ele><time>2026-04-25T11:08:20.999Z</time></trkpt><trkpt lat="41.04924761597283" lon="14.596497626191418"><ele>265.0</ele><time>2026-04-25T11:08:21.999Z</time></trkpt><trkpt lat="41.04917090320185" lon="14.596553818776753"><ele>265.0</ele><time>2026-04-25T11:08:23.999Z</time></trkpt><trkpt lat="41.04910799546468" lon="14.596608286276624"><ele>265.0</ele><time>2026-04-25T11:08:32.999Z</time></trkpt><trkpt lat="41.04905718366613" lon="14.59670532322567"><ele>265.0</ele><time>2026-04-25T11:08:35.999Z</time></trkpt><trkpt lat="41.049059244343134" lon="14.59680558489507"><ele>265.0</ele><time>2026-04-25T11:08:36.999Z</time></trkpt><trkpt lat="41.04910358429801" lon="14.596953586202037"><ele>265.0</ele><time>2026-04-25T11:08:37.998Z</time></trkpt><trkpt lat="41.049155272483546" lon="14.597128198502565"><ele>265.0</ele><time>2026-04-25T11:08:38.998Z</time></trkpt><trkpt lat="41.04920754291558" lon="14.597334609214169"><ele>265.0</ele><time>2026-04-25T11:08:39.998Z</time></trkpt><trkpt lat="41.049248735849176" lon="14.597528171566928"><ele>265.0</ele><time>2026-04-25T11:08:40.998Z</time></trkpt><trkpt lat="41.049301134897206" lon="14.59775126129809"><ele>264.66666666666663</ele><time>2026-04-25T11:08:41.998Z</time></trkpt><trkpt lat="41.049357093480864" lon="14.5979852329638"><ele>264.3333333333333</ele><time>2026-04-25T11:08:42.998Z</time></trkpt><trkpt lat="41.04940680588713" lon="14.598215835710892"><ele>264.0</ele><time>2026-04-25T11:08:43.998Z</time></trkpt><trkpt lat="41.04944773013387" lon="14.598402659180918"><ele>264.0</ele><time>2026-04-25T11:08:44.998Z</time></trkpt><trkpt lat="41.04948648375141" lon="14.598558669700205"><ele>264.0</ele><time>2026-04-25T11:08:45.998Z</time></trkpt><trkpt lat="41.04961127843084" lon="14.599015802000908"><ele>264.0</ele><time>2026-04-25T11:08:46.998Z</time></trkpt><trkpt lat="41.04968337128761" lon="14.599284907968629"><ele>264.0</ele><time>2026-04-25T11:08:47.998Z</time></trkpt><trkpt lat="41.04975634894547" lon="14.599556096809204"><ele>264.0</ele><time>2026-04-25T11:08:48.998Z</time></trkpt><trkpt lat="41.04982479059847" lon="14.599831900942593"><ele>264.0</ele><time>2026-04-25T11:08:49.998Z</time></trkpt><trkpt lat="41.04989697019954" lon="14.600105200902252"><ele>264.0</ele><time>2026-04-25T11:08:50.998Z</time></trkpt><trkpt lat="41.04997255914584" lon="14.600377550400017"><ele>264.0</ele><time>2026-04-25T11:08:51.998Z</time></trkpt><trkpt lat="41.05004005716305" lon="14.600647897679377"><ele>264.3333333333333</ele><time>2026-04-25T11:08:52.998Z</time></trkpt><trkpt lat="41.050102354818534" lon="14.6009070773773"><ele>264.66666666666663</ele><time>2026-04-25T11:08:53.998Z</time></trkpt><trkpt lat="41.05015909080566" lon="14.601161345539406"><ele>265.0</ele><time>2026-04-25T11:08:54.998Z</time></trkpt><trkpt lat="41.05022063612303" lon="14.601409542695313"><ele>265.3333333333333</ele><time>2026-04-25T11:08:55.998Z</time></trkpt><trkpt lat="41.05027686997606" lon="14.601635877522636"><ele>265.6666666666667</ele><time>2026-04-25T11:08:56.998Z</time></trkpt><trkpt lat="41.05033305839139" lon="14.60185777308231"><ele>266.0</ele><time>2026-04-25T11:08:57.998Z</time></trkpt><trkpt lat="41.05040017246075" lon="14.602090321620278"><ele>266.0</ele><time>2026-04-25T11:08:58.998Z</time></trkpt><trkpt lat="41.0504718383653" lon="14.6023474756097"><ele>266.0</ele><time>2026-04-25T11:08:59.998Z</time></trkpt><trkpt lat="41.05054312243942" lon="14.602633551997712"><ele>266.0</ele><time>2026-04-25T11:09:00.998Z</time></trkpt><trkpt lat="41.050609485806795" lon="14.60293091938511"><ele>265.0</ele><time>2026-04-25T11:09:01.998Z</time></trkpt><trkpt lat="41.050678112320306" lon="14.603219832167792"><ele>264.0</ele><time>2026-04-25T11:09:02.998Z</time></trkpt><trkpt lat="41.05074961142054" lon="14.603506931686155"><ele>265.0</ele><time>2026-04-25T11:09:03.998Z</time></trkpt><trkpt lat="41.050822417957505" lon="14.603787203943833"><ele>266.0</ele><time>2026-04-25T11:09:04.998Z</time></trkpt><trkpt lat="41.05089064143262" lon="14.60406368004237"><ele>267.0</ele><time>2026-04-25T11:09:05.998Z</time></trkpt><trkpt lat="41.05095384640043" lon="14.604335800428396"><ele>267.0</ele><time>2026-04-25T11:09:06.998Z</time></trkpt><trkpt lat="41.051020066203215" lon="14.604602325188427"><ele>267.0</ele><time>2026-04-25T11:09:07.998Z</time></trkpt><trkpt lat="41.05108944383175" lon="14.60487438501926"><ele>267.0</ele><time>2026-04-25T11:09:08.999Z</time></trkpt><trkpt lat="41.05115663042508" lon="14.605151931391779"><ele>266.6666666666667</ele><time>2026-04-25T11:09:09.999Z</time></trkpt><trkpt lat="41.05122176047817" lon="14.605421641164856"><ele>266.33333333333337</ele><time>2026-04-25T11:09:10.999Z</time></trkpt><trkpt lat="41.0512917061878" lon="14.605697059667412"><ele>266.0</ele><time>2026-04-25T11:09:11.999Z</time></trkpt><trkpt lat="41.051375218917094" lon="14.606013541640621"><ele>265.5</ele><time>2026-04-25T11:09:12.999Z</time></trkpt><trkpt lat="41.05146191349966" lon="14.606347544416273"><ele>265.0</ele><time>2026-04-25T11:09:13.999Z</time></trkpt><trkpt lat="41.051544614859644" lon="14.60667528872054"><ele>265.0</ele><time>2026-04-25T11:09:14.999Z</time></trkpt><trkpt lat="41.05162055123755" lon="14.606995913194227"><ele>265.0</ele><time>2026-04-25T11:09:15.999Z</time></trkpt><trkpt lat="41.051691628883226" lon="14.607286793051035"><ele>265.66666666666663</ele><time>2026-04-25T11:09:16.999Z</time></trkpt><trkpt lat="41.05176084789567" lon="14.6075523502528"><ele>266.3333333333333</ele><time>2026-04-25T11:09:17.999Z</time></trkpt><trkpt lat="41.051828174849476" lon="14.607804439852742"><ele>267.0</ele><time>2026-04-25T11:09:18.999Z</time></trkpt><trkpt lat="41.05189025760473" lon="14.608038622267763"><ele>267.0</ele><time>2026-04-25T11:09:19.999Z</time></trkpt><trkpt lat="41.051950407234514" lon="14.608273772074574"><ele>267.0</ele><time>2026-04-25T11:09:20.999Z</time></trkpt><trkpt lat="41.052020926925856" lon="14.60853510832189"><ele>267.0</ele><time>2026-04-25T11:09:21.999Z</time></trkpt><trkpt lat="41.05209219941172" lon="14.608835782271651"><ele>267.5</ele><time>2026-04-25T11:09:22.999Z</time></trkpt><trkpt lat="41.052166954969366" lon="14.609158774508856"><ele>268.0</ele><time>2026-04-25T11:09:23.999Z</time></trkpt><trkpt lat="41.05224072706765" lon="14.609478502179961"><ele>268.5</ele><time>2026-04-25T11:09:24.999Z</time></trkpt><trkpt lat="41.05232328397047" lon="14.609797471007592"><ele>269.0</ele><time>2026-04-25T11:09:25.999Z</time></trkpt><trkpt lat="41.052407135296185" lon="14.610115492021292"><ele>269.0</ele><time>2026-04-25T11:09:26.999Z</time></trkpt><trkpt lat="41.0524898560659" lon="14.610435211818679"><ele>269.0</ele><time>2026-04-25T11:09:27.999Z</time></trkpt><trkpt lat="41.05256900831571" lon="14.610747735472094"><ele>269.0</ele><time>2026-04-25T11:09:28.999Z</time></trkpt><trkpt lat="41.05264623091045" lon="14.611052314381514"><ele>269.0</ele><time>2026-04-25T11:09:29.999Z</time></trkpt><trkpt lat="41.052723951477496" lon="14.611360706628728"><ele>270.0</ele><time>2026-04-25T11:09:30.999Z</time></trkpt><trkpt lat="41.05280269941635" lon="14.611666659569103"><ele>271.0</ele><time>2026-04-25T11:09:31.999Z</time></trkpt><trkpt lat="41.05288203151646" lon="14.61197567604757"><ele>271.0</ele><time>2026-04-25T11:09:32.999Z</time></trkpt><trkpt lat="41.05295838990231" lon="14.612282906517148"><ele>271.0</ele><time>2026-04-25T11:09:33.999Z</time></trkpt><trkpt lat="41.05303002292971" lon="14.612589419646026"><ele>271.66666666666663</ele><time>2026-04-25T11:09:34.999Z</time></trkpt><trkpt lat="41.05309877184268" lon="14.612881550306371"><ele>272.3333333333333</ele><time>2026-04-25T11:09:35.999Z</time></trkpt><trkpt lat="41.05317746278264" lon="14.613151444686888"><ele>273.0</ele><time>2026-04-25T11:09:36.999Z</time></trkpt><trkpt lat="41.05325478951171" lon="14.613424294340136"><ele>272.3333333333333</ele><time>2026-04-25T11:09:37.999Z</time></trkpt><trkpt lat="41.05332472146635" lon="14.61370702072115"><ele>271.66666666666663</ele><time>2026-04-25T11:09:38.999Z</time></trkpt><trkpt lat="41.05339599984859" lon="14.613982050636418"><ele>271.0</ele><time>2026-04-25T11:09:39.999Z</time></trkpt><trkpt lat="41.05346167325031" lon="14.614235086581228"><ele>271.0</ele><time>2026-04-25T11:09:40.999Z</time></trkpt><trkpt lat="41.053519716395854" lon="14.614467331478652"><ele>271.0</ele><time>2026-04-25T11:09:41.999Z</time></trkpt><trkpt lat="41.05357480402137" lon="14.614686709300619"><ele>271.0</ele><time>2026-04-25T11:09:42.999Z</time></trkpt><trkpt lat="41.05362941658" lon="14.6148879822196"><ele>271.0</ele><time>2026-04-25T11:09:43.999Z</time></trkpt><trkpt lat="41.05368159007243" lon="14.615079722190796"><ele>271.0</ele><time>2026-04-25T11:09:44.999Z</time></trkpt><trkpt lat="41.0537295829614" lon="14.615267323684819"><ele>271.0</ele><time>2026-04-25T11:09:45.999Z</time></trkpt><trkpt lat="41.0537870200887" lon="14.615479394972335"><ele>271.0</ele><time>2026-04-25T11:09:46.999Z</time></trkpt><trkpt lat="41.053853326421994" lon="14.615723021062069"><ele>271.0</ele><time>2026-04-25T11:09:47.999Z</time></trkpt><trkpt lat="41.05390924955438" lon="14.616004475193812"><ele>271.0</ele><time>2026-04-25T11:09:48.999Z</time></trkpt><trkpt lat="41.05397153570356" lon="14.616244221969552"><ele>271.0</ele><time>2026-04-25T11:09:49.999Z</time></trkpt><trkpt lat="41.05402642670171" lon="14.616455600468782"><ele>271.0</ele><time>2026-04-25T11:09:50.999Z</time></trkpt><trkpt lat="41.05408316283925" lon="14.616673582975183"><ele>271.0</ele><time>2026-04-25T11:09:51.999Z</time></trkpt><trkpt lat="41.054146430879605" lon="14.616914488206465"><ele>271.5</ele><time>2026-04-25T11:09:52.999Z</time></trkpt><trkpt lat="41.054223976873" lon="14.617209759471073"><ele>272.0</ele><time>2026-04-25T11:09:53.999Z</time></trkpt><trkpt lat="41.054336183721524" lon="14.617544325013668"><ele>272.5</ele><time>2026-04-25T11:09:54.999Z</time></trkpt><trkpt lat="41.05441246879432" lon="14.61789229188282"><ele>273.0</ele><time>2026-04-25T11:09:55.999Z</time></trkpt><trkpt lat="41.054494295430054" lon="14.618222284929567"><ele>273.0</ele><time>2026-04-25T11:09:56.999Z</time></trkpt><trkpt lat="41.05457179986013" lon="14.61851925911789"><ele>273.0</ele><time>2026-04-25T11:09:57.999Z</time></trkpt><trkpt lat="41.05464017598633" lon="14.618782000245561"><ele>273.0</ele><time>2026-04-25T11:09:58.999Z</time></trkpt><trkpt lat="41.0547075874075" lon="14.619039427915721"><ele>273.0</ele><time>2026-04-25T11:09:59.999Z</time></trkpt><trkpt lat="41.054769807615564" lon="14.619273505396196"><ele>273.0</ele><time>2026-04-25T11:10:00.999Z</time></trkpt><trkpt lat="41.05482674456107" lon="14.619488869990285"><ele>273.0</ele><time>2026-04-25T11:10:01.999Z</time></trkpt><trkpt lat="41.05487227133877" lon="14.619677709228341"><ele>273.4</ele><time>2026-04-25T11:10:02.999Z</time></trkpt><trkpt lat="41.05491480391886" lon="14.619845347391287"><ele>273.8</ele><time>2026-04-25T11:10:03.999Z</time></trkpt><trkpt lat="41.05494975532352" lon="14.619989456662747"><ele>274.2</ele><time>2026-04-25T11:10:04.999Z</time></trkpt><trkpt lat="41.054978623166974" lon="14.620109275207616"><ele>274.6</ele><time>2026-04-25T11:10:05.999Z</time></trkpt><trkpt lat="41.055003734604796" lon="14.62020828758677"><ele>275.0</ele><time>2026-04-25T11:10:06.999Z</time></trkpt><trkpt lat="41.05502448417107" lon="14.620297038904294"><ele>275.0</ele><time>2026-04-25T11:10:07.999Z</time></trkpt><trkpt lat="41.05504722811372" lon="14.620390204896692"><ele>275.0</ele><time>2026-04-25T11:10:08.999Z</time></trkpt><trkpt lat="41.05506226891139" lon="14.62049164564481"><ele>275.0</ele><time>2026-04-25T11:10:09.999Z</time></trkpt><trkpt lat="41.05506504418918" lon="14.620608429274007"><ele>275.0</ele><time>2026-04-25T11:10:10.999Z</time></trkpt><trkpt lat="41.05505571673214" lon="14.62072862508943"><ele>275.0</ele><time>2026-04-25T11:10:11.999Z</time></trkpt><trkpt lat="41.055036233853485" lon="14.620850158552157"><ele>275.0</ele><time>2026-04-25T11:10:12.999Z</time></trkpt><trkpt lat="41.055004767464" lon="14.620968706023302"><ele>275.0</ele><time>2026-04-25T11:10:13.999Z</time></trkpt><trkpt lat="41.05495632244153" lon="14.621077599253953"><ele>275.0</ele><time>2026-04-25T11:10:14.999Z</time></trkpt><trkpt lat="41.054887363200535" lon="14.621195085944489"><ele>275.0</ele><time>2026-04-25T11:10:15.999Z</time></trkpt><trkpt lat="41.054799151678694" lon="14.621332652704067"><ele>275.0</ele><time>2026-04-25T11:10:16.999Z</time></trkpt><trkpt lat="41.054692283130024" lon="14.6214477121557"><ele>274.33333333333337</ele><time>2026-04-25T11:10:17.999Z</time></trkpt><trkpt lat="41.054583042013824" lon="14.621556306248166"><ele>273.6666666666667</ele><time>2026-04-25T11:10:18.999Z</time></trkpt><trkpt lat="41.054468351867484" lon="14.621698545606634"><ele>273.0</ele><time>2026-04-25T11:10:19.999Z</time></trkpt><trkpt lat="41.054336181526786" lon="14.621865350377863"><ele>273.3333333333333</ele><time>2026-04-25T11:10:20.999Z</time></trkpt><trkpt lat="41.05419192605796" lon="14.622054946514634"><ele>273.66666666666663</ele><time>2026-04-25T11:10:21.999Z</time></trkpt><trkpt lat="41.05404785854464" lon="14.622249097097509"><ele>274.0</ele><time>2026-04-25T11:10:22.999Z</time></trkpt><trkpt lat="41.053896444672645" lon="14.622455736578615"><ele>274.0</ele><time>2026-04-25T11:10:23.999Z</time></trkpt><trkpt lat="41.053734271353406" lon="14.622673525826361"><ele>274.0</ele><time>2026-04-25T11:10:24.999Z</time></trkpt><trkpt lat="41.05357159803123" lon="14.622903442582626"><ele>275.0</ele><time>2026-04-25T11:10:25.999Z</time></trkpt><trkpt lat="41.05342244948564" lon="14.623153415989966"><ele>276.0</ele><time>2026-04-25T11:10:26.999Z</time></trkpt><trkpt lat="41.05329579671933" lon="14.623430317556334"><ele>274.5</ele><time>2026-04-25T11:10:27.999Z</time></trkpt><trkpt lat="41.0531875834138" lon="14.623733422452949"><ele>273.0</ele><time>2026-04-25T11:10:28.999Z</time></trkpt><trkpt lat="41.053097429333725" lon="14.62405809370724"><ele>273.0</ele><time>2026-04-25T11:10:29.999Z</time></trkpt><trkpt lat="41.05301448217519" lon="14.62439682576156"><ele>273.0</ele><time>2026-04-25T11:10:30.999Z</time></trkpt><trkpt lat="41.05293629680645" lon="14.624737876760097"><ele>272.5</ele><time>2026-04-25T11:10:31.999Z</time></trkpt><trkpt lat="41.05286894626675" lon="14.625081339256166"><ele>272.0</ele><time>2026-04-25T11:10:32.999Z</time></trkpt><trkpt lat="41.05281588604232" lon="14.625439914390867"><ele>273.0</ele><time>2026-04-25T11:10:33.999Z</time></trkpt><trkpt lat="41.052768534044" lon="14.62580490171017"><ele>274.0</ele><time>2026-04-25T11:10:34.999Z</time></trkpt><trkpt lat="41.052734907477124" lon="14.626168580088576"><ele>274.0</ele><time>2026-04-25T11:10:35.999Z</time></trkpt><trkpt lat="41.05273468933529" lon="14.626539711438078"><ele>274.0</ele><time>2026-04-25T11:10:36.999Z</time></trkpt><trkpt lat="41.05276632916375" lon="14.626913288166056"><ele>274.5</ele><time>2026-04-25T11:10:37.999Z</time></trkpt><trkpt lat="41.052821588455515" lon="14.627287410744005"><ele>275.0</ele><time>2026-04-25T11:10:38.999Z</time></trkpt><trkpt lat="41.05288668338591" lon="14.62765109794235"><ele>275.5</ele><time>2026-04-25T11:10:39.999Z</time></trkpt><trkpt lat="41.052960408591666" lon="14.628011076215035"><ele>276.0</ele><time>2026-04-25T11:10:40.999Z</time></trkpt><trkpt lat="41.05304895624491" lon="14.628366236574662"><ele>276.0</ele><time>2026-04-25T11:10:41.999Z</time></trkpt><trkpt lat="41.05314652664807" lon="14.628717163597834"><ele>276.0</ele><time>2026-04-25T11:10:42.999Z</time></trkpt><trkpt lat="41.05325106794194" lon="14.629062183240507"><ele>276.0</ele><time>2026-04-25T11:10:43.999Z</time></trkpt><trkpt lat="41.05335814080124" lon="14.629401883811859"><ele>276.0</ele><time>2026-04-25T11:10:44.999Z</time></trkpt><trkpt lat="41.05346069103683" lon="14.629738193029471"><ele>276.0</ele><time>2026-04-25T11:10:45.999Z</time></trkpt><trkpt lat="41.053556025832" lon="14.630067972214482"><ele>276.0</ele><time>2026-04-25T11:10:46.999Z</time></trkpt><trkpt lat="41.05364772010007" lon="14.630389798299154"><ele>276.0</ele><time>2026-04-25T11:10:47.999Z</time></trkpt><trkpt lat="41.05373824407452" lon="14.630706483744113"><ele>276.0</ele><time>2026-04-25T11:10:48.999Z</time></trkpt><trkpt lat="41.05382886223256" lon="14.631017664552022"><ele>276.0</ele><time>2026-04-25T11:10:49.999Z</time></trkpt><trkpt lat="41.05391820983026" lon="14.631324406195167"><ele>276.0</ele><time>2026-04-25T11:10:50.999Z</time></trkpt><trkpt lat="41.05400204430399" lon="14.631628149481365"><ele>276.0</ele><time>2026-04-25T11:10:51.999Z</time></trkpt><trkpt lat="41.054076128004894" lon="14.631935745877156"><ele>276.0</ele><time>2026-04-25T11:10:52.999Z</time></trkpt><trkpt lat="41.05413781399495" lon="14.632244772751598"><ele>277.0</ele><time>2026-04-25T11:10:53.999Z</time></trkpt><trkpt lat="41.05418567614935" lon="14.632551420358052"><ele>278.0</ele><time>2026-04-25T11:10:54.999Z</time></trkpt><trkpt lat="41.05422634471628" lon="14.632838780963333"><ele>278.0</ele><time>2026-04-25T11:10:55.999Z</time></trkpt><trkpt lat="41.05427894196257" lon="14.633099161552835"><ele>278.0</ele><time>2026-04-25T11:10:56.999Z</time></trkpt><trkpt lat="41.054155291117056" lon="14.633396492495867"><ele>277.33333333333337</ele><time>2026-04-25T11:10:57.999Z</time></trkpt><trkpt lat="41.054103904207466" lon="14.633645613541832"><ele>276.6666666666667</ele><time>2026-04-25T11:10:58.999Z</time></trkpt><trkpt lat="41.05404901442348" lon="14.633887148779616"><ele>276.0</ele><time>2026-04-25T11:10:59.999Z</time></trkpt><trkpt lat="41.053987095093966" lon="14.63411846503991"><ele>276.0</ele><time>2026-04-25T11:11:00.999Z</time></trkpt><trkpt lat="41.05393172348834" lon="14.634336898845829"><ele>276.0</ele><time>2026-04-25T11:11:01.999Z</time></trkpt><trkpt lat="41.05388080400042" lon="14.63453400488131"><ele>276.0</ele><time>2026-04-25T11:11:02.999Z</time></trkpt><trkpt lat="41.05383322710004" lon="14.63471245320949"><ele>276.0</ele><time>2026-04-25T11:11:03.999Z</time></trkpt><trkpt lat="41.05379356885972" lon="14.634868459043942"><ele>276.0</ele><time>2026-04-25T11:11:04.999Z</time></trkpt><trkpt lat="41.05375883447708" lon="14.634990299505851"><ele>276.0</ele><time>2026-04-25T11:11:05.999Z</time></trkpt><trkpt lat="41.05372063746802" lon="14.635074576301092"><ele>276.0</ele><time>2026-04-25T11:11:06.999Z</time></trkpt><trkpt lat="41.05363690972371" lon="14.635188911506415"><ele>276.0</ele><time>2026-04-25T11:11:08.999Z</time></trkpt><trkpt lat="41.05356812047348" lon="14.635322966117316"><ele>276.25</ele><time>2026-04-25T11:11:10.999Z</time></trkpt><trkpt lat="41.053557123288044" lon="14.635437477491614"><ele>276.5</ele><time>2026-04-25T11:11:12.999Z</time></trkpt><trkpt lat="41.05357475403275" lon="14.63559430090635"><ele>276.75</ele><time>2026-04-25T11:11:14.999Z</time></trkpt><trkpt lat="41.05357193068121" lon="14.635738697564149"><ele>277.0</ele><time>2026-04-25T11:11:15.999Z</time></trkpt><trkpt lat="41.05355203397964" lon="14.6359209090524"><ele>277.0</ele><time>2026-04-25T11:11:16.999Z</time></trkpt><trkpt lat="41.05349929479644" lon="14.636129620803088"><ele>277.0</ele><time>2026-04-25T11:11:17.999Z</time></trkpt><trkpt lat="41.05344293224946" lon="14.636336408104826"><ele>277.0</ele><time>2026-04-25T11:11:18.999Z</time></trkpt><trkpt lat="41.053349769006275" lon="14.636573973675924"><ele>277.0</ele><time>2026-04-25T11:11:19.999Z</time></trkpt><trkpt lat="41.05327223365903" lon="14.636844741751537"><ele>277.0</ele><time>2026-04-25T11:11:20.999Z</time></trkpt><trkpt lat="41.053223927175914" lon="14.637061249327092"><ele>277.0</ele><time>2026-04-25T11:11:21.999Z</time></trkpt><trkpt lat="41.053154247185645" lon="14.63733511122175"><ele>278.0</ele><time>2026-04-25T11:11:22.999Z</time></trkpt><trkpt lat="41.053085827885674" lon="14.637622314934118"><ele>279.0</ele><time>2026-04-25T11:11:23.999Z</time></trkpt><trkpt lat="41.053005820644714" lon="14.637940608596956"><ele>279.5</ele><time>2026-04-25T11:11:24.999Z</time></trkpt><trkpt lat="41.05292055256164" lon="14.638303532021776"><ele>280.0</ele><time>2026-04-25T11:11:25.999Z</time></trkpt><trkpt lat="41.05283769738134" lon="14.638662527115097"><ele>280.5</ele><time>2026-04-25T11:11:26.999Z</time></trkpt><trkpt lat="41.05274505981899" lon="14.639054618670453"><ele>281.0</ele><time>2026-04-25T11:11:27.999Z</time></trkpt><trkpt lat="41.052651223504306" lon="14.639469752431122"><ele>281.5</ele><time>2026-04-25T11:11:28.999Z</time></trkpt><trkpt lat="41.05255940269255" lon="14.639861258525467"><ele>282.0</ele><time>2026-04-25T11:11:29.999Z</time></trkpt><trkpt lat="41.052481149240215" lon="14.640216146919032"><ele>280.5</ele><time>2026-04-25T11:11:30.999Z</time></trkpt><trkpt lat="41.0523994133142" lon="14.640559861356294"><ele>279.0</ele><time>2026-04-25T11:11:31.999Z</time></trkpt><trkpt lat="41.052315940076326" lon="14.640899570635577"><ele>280.0</ele><time>2026-04-25T11:11:32.999Z</time></trkpt><trkpt lat="41.05223375051834" lon="14.641234171888408"><ele>281.0</ele><time>2026-04-25T11:11:33.999Z</time></trkpt><trkpt lat="41.05215545685782" lon="14.641563770624678"><ele>281.0</ele><time>2026-04-25T11:11:34.999Z</time></trkpt><trkpt lat="41.05208166689153" lon="14.641897985086135"><ele>281.0</ele><time>2026-04-25T11:11:35.999Z</time></trkpt><trkpt lat="41.05201442783575" lon="14.642230160700553"><ele>280.0</ele><time>2026-04-25T11:11:36.999Z</time></trkpt><trkpt lat="41.05194057084473" lon="14.642571937711795"><ele>279.0</ele><time>2026-04-25T11:11:37.999Z</time></trkpt><trkpt lat="41.051857575063465" lon="14.642904480561384"><ele>279.0</ele><time>2026-04-25T11:11:38.999Z</time></trkpt><trkpt lat="41.051769005232366" lon="14.643236246833482"><ele>279.0</ele><time>2026-04-25T11:11:39.999Z</time></trkpt><trkpt lat="41.05167471739178" lon="14.643568763573594"><ele>279.5</ele><time>2026-04-25T11:11:40.999Z</time></trkpt><trkpt lat="41.05157730181809" lon="14.643896305297462"><ele>280.0</ele><time>2026-04-25T11:11:41.999Z</time></trkpt><trkpt lat="41.05147529139579" lon="14.644221366038519"><ele>280.0</ele><time>2026-04-25T11:11:42.999Z</time></trkpt><trkpt lat="41.05137586119346" lon="14.64454559086201"><ele>280.0</ele><time>2026-04-25T11:11:43.999Z</time></trkpt><trkpt lat="41.051277399793776" lon="14.644864377867346"><ele>280.0</ele><time>2026-04-25T11:11:44.999Z</time></trkpt><trkpt lat="41.05118781931056" lon="14.645174522555541"><ele>280.0</ele><time>2026-04-25T11:11:45.999Z</time></trkpt><trkpt lat="41.051102417679616" lon="14.645461491485202"><ele>279.66666666666663</ele><time>2026-04-25T11:11:46.999Z</time></trkpt><trkpt lat="41.0510208636354" lon="14.645728429865112"><ele>279.3333333333333</ele><time>2026-04-25T11:11:47.999Z</time></trkpt><trkpt lat="41.05094517777574" lon="14.645976242546192"><ele>279.0</ele><time>2026-04-25T11:11:48.999Z</time></trkpt><trkpt lat="41.050872474663144" lon="14.646210262734607"><ele>278.6666666666667</ele><time>2026-04-25T11:11:49.999Z</time></trkpt><trkpt lat="41.05080542665206" lon="14.646431723082577"><ele>278.33333333333337</ele><time>2026-04-25T11:11:50.999Z</time></trkpt><trkpt lat="41.0507439221125" lon="14.646627541326108"><ele>278.0</ele><time>2026-04-25T11:11:51.999Z</time></trkpt><trkpt lat="41.05067221516402" lon="14.646806004187148"><ele>278.0</ele><time>2026-04-25T11:11:52.999Z</time></trkpt><trkpt lat="41.05059705367743" lon="14.64695891883617"><ele>278.0</ele><time>2026-04-25T11:11:53.999Z</time></trkpt><trkpt lat="41.05051594953109" lon="14.647083236960048"><ele>278.0</ele><time>2026-04-25T11:11:54.999Z</time></trkpt><trkpt lat="41.05044185314709" lon="14.647194869638012"><ele>278.0</ele><time>2026-04-25T11:11:55.999Z</time></trkpt><trkpt lat="41.05038688134158" lon="14.647324422746468"><ele>278.0</ele><time>2026-04-25T11:11:56.999Z</time></trkpt><trkpt lat="41.05036554837677" lon="14.647495158506525"><ele>278.0</ele><time>2026-04-25T11:11:57.999Z</time></trkpt><trkpt lat="41.05037038684857" lon="14.647704254837947"><ele>278.0</ele><time>2026-04-25T11:11:58.999Z</time></trkpt><trkpt lat="41.050386925729335" lon="14.647951732691215"><ele>278.0</ele><time>2026-04-25T11:11:59.999Z</time></trkpt><trkpt lat="41.050374469520555" lon="14.648220231923114"><ele>278.0</ele><time>2026-04-25T11:12:00.999Z</time></trkpt><trkpt lat="41.050332494876955" lon="14.648494591311415"><ele>278.0</ele><time>2026-04-25T11:12:01.999Z</time></trkpt><trkpt lat="41.05028249289009" lon="14.648768377882268"><ele>278.5</ele><time>2026-04-25T11:12:02.999Z</time></trkpt><trkpt lat="41.05024126607578" lon="14.649062347975523"><ele>279.0</ele><time>2026-04-25T11:12:03.999Z</time></trkpt><trkpt lat="41.05021544481508" lon="14.64937348413029"><ele>279.5</ele><time>2026-04-25T11:12:04.999Z</time></trkpt><trkpt lat="41.050206515789256" lon="14.649709317856813"><ele>280.0</ele><time>2026-04-25T11:12:05.999Z</time></trkpt><trkpt lat="41.05022543279026" lon="14.650023686608298"><ele>281.0</ele><time>2026-04-25T11:12:06.999Z</time></trkpt><trkpt lat="41.05028095225153" lon="14.650352102645927"><ele>282.0</ele><time>2026-04-25T11:12:07.999Z</time></trkpt><trkpt lat="41.05036909588225" lon="14.650691566960345"><ele>282.0</ele><time>2026-04-25T11:12:08.999Z</time></trkpt><trkpt lat="41.05047023067811" lon="14.651030926662306"><ele>282.0</ele><time>2026-04-25T11:12:09.999Z</time></trkpt><trkpt lat="41.050590908229026" lon="14.65136613178757"><ele>282.0</ele><time>2026-04-25T11:12:10.999Z</time></trkpt><trkpt lat="41.05076056330887" lon="14.651666545819603"><ele>282.0</ele><time>2026-04-25T11:12:11.999Z</time></trkpt><trkpt lat="41.050961609302824" lon="14.651947570867849"><ele>282.5</ele><time>2026-04-25T11:12:12.999Z</time></trkpt><trkpt lat="41.051164517391435" lon="14.652243564799488"><ele>283.0</ele><time>2026-04-25T11:12:13.999Z</time></trkpt><trkpt lat="41.0513542868434" lon="14.65253717050349"><ele>283.5</ele><time>2026-04-25T11:12:14.999Z</time></trkpt><trkpt lat="41.051523645880415" lon="14.652818634187653"><ele>284.0</ele><time>2026-04-25T11:12:15.999Z</time></trkpt><trkpt lat="41.05168742434446" lon="14.65308744151725"><ele>284.5</ele><time>2026-04-25T11:12:16.999Z</time></trkpt><trkpt lat="41.05184501137489" lon="14.653337112665335"><ele>285.0</ele><time>2026-04-25T11:12:17.999Z</time></trkpt><trkpt lat="41.05198739633372" lon="14.653570396482554"><ele>285.6666666666667</ele><time>2026-04-25T11:12:18.999Z</time></trkpt><trkpt lat="41.05211515811092" lon="14.653796720085701"><ele>286.33333333333337</ele><time>2026-04-25T11:12:19.999Z</time></trkpt><trkpt lat="41.05222659046201" lon="14.65400870239619"><ele>287.0</ele><time>2026-04-25T11:12:20.999Z</time></trkpt><trkpt lat="41.05231491036897" lon="14.654210474877084"><ele>287.0</ele><time>2026-04-25T11:12:21.999Z</time></trkpt><trkpt lat="41.052396630532066" lon="14.654406660604172"><ele>287.0</ele><time>2026-04-25T11:12:22.999Z</time></trkpt><trkpt lat="41.05249644713398" lon="14.65459296446347"><ele>287.0</ele><time>2026-04-25T11:12:23.999Z</time></trkpt><trkpt lat="41.052627621347995" lon="14.654765481108821"><ele>287.33333333333337</ele><time>2026-04-25T11:12:24.999Z</time></trkpt><trkpt lat="41.05278299544242" lon="14.654954561553637"><ele>287.6666666666667</ele><time>2026-04-25T11:12:25.999Z</time></trkpt><trkpt lat="41.052929122810006" lon="14.655155697753127"><ele>288.0</ele><time>2026-04-25T11:12:26.999Z</time></trkpt><trkpt lat="41.05310309794664" lon="14.655384277418698"><ele>289.0</ele><time>2026-04-25T11:12:27.999Z</time></trkpt><trkpt lat="41.05350940876315" lon="14.655780024279363"><ele>289.0</ele><time>2026-04-25T11:12:29.999Z</time></trkpt><trkpt lat="41.05371625925556" lon="14.65594791158049"><ele>289.0</ele><time>2026-04-25T11:12:30.999Z</time></trkpt><trkpt lat="41.05389843979567" lon="14.656103247612297"><ele>289.3333333333333</ele><time>2026-04-25T11:12:31.999Z</time></trkpt><trkpt lat="41.0540564350822" lon="14.656271345721766"><ele>289.6666666666667</ele><time>2026-04-25T11:12:32.999Z</time></trkpt><trkpt lat="41.05418194169116" lon="14.656452934363179"><ele>290.0</ele><time>2026-04-25T11:12:33.999Z</time></trkpt><trkpt lat="41.05429505490684" lon="14.65663723786902"><ele>290.0</ele><time>2026-04-25T11:12:34.999Z</time></trkpt><trkpt lat="41.05439960231039" lon="14.656806311601828"><ele>290.0</ele><time>2026-04-25T11:12:35.999Z</time></trkpt><trkpt lat="41.054498398069704" lon="14.65695633848511"><ele>290.0</ele><time>2026-04-25T11:12:36.999Z</time></trkpt><trkpt lat="41.05459262898849" lon="14.657090083695959"><ele>290.5</ele><time>2026-04-25T11:12:37.999Z</time></trkpt><trkpt lat="41.05466875167678" lon="14.65722095916797"><ele>291.0</ele><time>2026-04-25T11:12:38.999Z</time></trkpt><trkpt lat="41.054717351813025" lon="14.657361046811603"><ele>291.5</ele><time>2026-04-25T11:12:39.999Z</time></trkpt><trkpt lat="41.05473931883807" lon="14.657527071669836"><ele>292.0</ele><time>2026-04-25T11:12:40.999Z</time></trkpt><trkpt lat="41.05473214243271" lon="14.657714965752556"><ele>292.3333333333333</ele><time>2026-04-25T11:12:41.999Z</time></trkpt><trkpt lat="41.05469519223582" lon="14.657912774674353"><ele>292.6666666666667</ele><time>2026-04-25T11:12:42.999Z</time></trkpt><trkpt lat="41.05462394006041" lon="14.658110179034557"><ele>293.0</ele><time>2026-04-25T11:12:43.999Z</time></trkpt><trkpt lat="41.05453156276053" lon="14.658316272906776"><ele>293.0</ele><time>2026-04-25T11:12:44.999Z</time></trkpt><trkpt lat="41.05442363349833" lon="14.65851997145088"><ele>293.0</ele><time>2026-04-25T11:12:45.999Z</time></trkpt><trkpt lat="41.05432501121716" lon="14.658740493907983"><ele>293.0</ele><time>2026-04-25T11:12:46.999Z</time></trkpt><trkpt lat="41.054228704357435" lon="14.658965665508504"><ele>293.33333333333337</ele><time>2026-04-25T11:12:47.999Z</time></trkpt><trkpt lat="41.054126843885754" lon="14.659199588788558"><ele>293.6666666666667</ele><time>2026-04-25T11:12:48.999Z</time></trkpt><trkpt lat="41.05402356029673" lon="14.65943529975418"><ele>294.0</ele><time>2026-04-25T11:12:49.999Z</time></trkpt><trkpt lat="41.05391306388256" lon="14.659672276154085"><ele>293.6666666666667</ele><time>2026-04-25T11:12:50.999Z</time></trkpt><trkpt lat="41.05380822612806" lon="14.65991041694259"><ele>293.33333333333337</ele><time>2026-04-25T11:12:51.999Z</time></trkpt><trkpt lat="41.05371378732434" lon="14.660125410542111"><ele>293.0</ele><time>2026-04-25T11:12:52.999Z</time></trkpt><trkpt lat="41.05362222392846" lon="14.660323162543035"><ele>293.0</ele><time>2026-04-25T11:12:53.999Z</time></trkpt><trkpt lat="41.05353662040928" lon="14.660511778111621"><ele>293.0</ele><time>2026-04-25T11:12:54.999Z</time></trkpt><trkpt lat="41.053449426124025" lon="14.66070570333067"><ele>293.0</ele><time>2026-04-25T11:12:55.999Z</time></trkpt><trkpt lat="41.05336128994813" lon="14.660908769665411"><ele>292.6666666666667</ele><time>2026-04-25T11:12:56.999Z</time></trkpt><trkpt lat="41.05327911353291" lon="14.661100286749528"><ele>292.3333333333333</ele><time>2026-04-25T11:12:57.999Z</time></trkpt><trkpt lat="41.0531980026443" lon="14.661293253561585"><ele>292.0</ele><time>2026-04-25T11:12:58.999Z</time></trkpt><trkpt lat="41.053110317357365" lon="14.661488158549059"><ele>292.0</ele><time>2026-04-25T11:12:59.999Z</time></trkpt><trkpt lat="41.0530221602707" lon="14.661685760233619"><ele>292.0</ele><time>2026-04-25T11:13:00.999Z</time></trkpt><trkpt lat="41.052933662200445" lon="14.661883972889596"><ele>292.0</ele><time>2026-04-25T11:13:01.999Z</time></trkpt><trkpt lat="41.052840114342445" lon="14.662095692896253"><ele>293.0</ele><time>2026-04-25T11:13:02.999Z</time></trkpt><trkpt lat="41.052741956721235" lon="14.662329158641661"><ele>294.0</ele><time>2026-04-25T11:13:03.999Z</time></trkpt><trkpt lat="41.05263317848816" lon="14.662583479707632"><ele>295.0</ele><time>2026-04-25T11:13:04.999Z</time></trkpt><trkpt lat="41.05251534602149" lon="14.662809256588657"><ele>294.66666666666663</ele><time>2026-04-25T11:13:05.999Z</time></trkpt><trkpt lat="41.05242496659751" lon="14.663023324580514"><ele>294.3333333333333</ele><time>2026-04-25T11:13:06.999Z</time></trkpt><trkpt lat="41.05233365360187" lon="14.663222317883744"><ele>294.0</ele><time>2026-04-25T11:13:07.999Z</time></trkpt><trkpt lat="41.05224893931635" lon="14.663413575446853"><ele>294.0</ele><time>2026-04-25T11:13:08.999Z</time></trkpt><trkpt lat="41.05217032552172" lon="14.66358814872519"><ele>294.0</ele><time>2026-04-25T11:13:09.999Z</time></trkpt><trkpt lat="41.05209555262766" lon="14.663752159557871"><ele>294.0</ele><time>2026-04-25T11:13:10.999Z</time></trkpt><trkpt lat="41.05202217680366" lon="14.663912231143808"><ele>294.0</ele><time>2026-04-25T11:13:11.999Z</time></trkpt><trkpt lat="41.05194479454091" lon="14.664071316577045"><ele>295.0</ele><time>2026-04-25T11:13:12.999Z</time></trkpt><trkpt lat="41.05185274713716" lon="14.664235662831263"><ele>296.0</ele><time>2026-04-25T11:13:13.999Z</time></trkpt><trkpt lat="41.05175833453998" lon="14.664393776642267"><ele>297.0</ele><time>2026-04-25T11:13:14.999Z</time></trkpt><trkpt lat="41.051648654400815" lon="14.664545311754095"><ele>296.6666666666667</ele><time>2026-04-25T11:13:15.999Z</time></trkpt><trkpt lat="41.05152008490294" lon="14.664702843447428"><ele>296.33333333333337</ele><time>2026-04-25T11:13:16.999Z</time></trkpt><trkpt lat="41.051341930601076" lon="14.664864348583716"><ele>296.0</ele><time>2026-04-25T11:13:17.999Z</time></trkpt><trkpt lat="41.05113787895491" lon="14.665024786692385"><ele>296.0</ele><time>2026-04-25T11:13:18.999Z</time></trkpt><trkpt lat="41.050941905584054" lon="14.665154847223405"><ele>296.0</ele><time>2026-04-25T11:13:19.999Z</time></trkpt><trkpt lat="41.05076533600401" lon="14.665272603066974"><ele>296.0</ele><time>2026-04-25T11:13:20.999Z</time></trkpt><trkpt lat="41.05057980585337" lon="14.665394024678594"><ele>295.0</ele><time>2026-04-25T11:13:21.999Z</time></trkpt><trkpt lat="41.05036835954305" lon="14.665535374192784"><ele>294.0</ele><time>2026-04-25T11:13:22.999Z</time></trkpt><trkpt lat="41.050122606531026" lon="14.66566140633833"><ele>291.5</ele><time>2026-04-25T11:13:23.999Z</time></trkpt><trkpt lat="41.04986474273853" lon="14.6658060289516"><ele>289.0</ele><time>2026-04-25T11:13:24.999Z</time></trkpt><trkpt lat="41.04962552634613" lon="14.665968480525509"><ele>290.5</ele><time>2026-04-25T11:13:25.999Z</time></trkpt><trkpt lat="41.04942050915727" lon="14.666150036959737"><ele>292.0</ele><time>2026-04-25T11:13:26.999Z</time></trkpt><trkpt lat="41.04923139785304" lon="14.666359187125847"><ele>290.5</ele><time>2026-04-25T11:13:27.999Z</time></trkpt><trkpt lat="41.049060617738476" lon="14.666575074518292"><ele>289.0</ele><time>2026-04-25T11:13:28.999Z</time></trkpt><trkpt lat="41.04890312491721" lon="14.66683736687358"><ele>290.0</ele><time>2026-04-25T11:13:29.999Z</time></trkpt><trkpt lat="41.048772130745135" lon="14.667096169692055"><ele>291.0</ele><time>2026-04-25T11:13:30.999Z</time></trkpt><trkpt lat="41.04865839753965" lon="14.667361730557547"><ele>291.0</ele><time>2026-04-25T11:13:31.999Z</time></trkpt><trkpt lat="41.04855853418143" lon="14.667649650212086"><ele>291.0</ele><time>2026-04-25T11:13:32.999Z</time></trkpt><trkpt lat="41.04847756663394" lon="14.667957364071967"><ele>290.0</ele><time>2026-04-25T11:13:33.999Z</time></trkpt><trkpt lat="41.04841817108058" lon="14.668287305608596"><ele>289.0</ele><time>2026-04-25T11:13:34.999Z</time></trkpt><trkpt lat="41.0483911712831" lon="14.668630363265338"><ele>286.5</ele><time>2026-04-25T11:13:35.999Z</time></trkpt><trkpt lat="41.04838910366903" lon="14.668995543783513"><ele>284.0</ele><time>2026-04-25T11:13:37Z</time></trkpt><trkpt lat="41.04840875980217" lon="14.669349376160984"><ele>282.0</ele><time>2026-04-25T11:13:38Z</time></trkpt><trkpt lat="41.04842281983293" lon="14.66969999417556"><ele>280.0</ele><time>2026-04-25T11:13:39Z</time></trkpt><trkpt lat="41.04843035572915" lon="14.670035562811897"><ele>279.0</ele><time>2026-04-25T11:13:40Z</time></trkpt><trkpt lat="41.04843799175877" lon="14.670356955542893"><ele>278.0</ele><time>2026-04-25T11:13:41Z</time></trkpt><trkpt lat="41.04844459139265" lon="14.67068302547939"><ele>278.0</ele><time>2026-04-25T11:13:42Z</time></trkpt><trkpt lat="41.04845925931343" lon="14.671013520495384"><ele>278.0</ele><time>2026-04-25T11:13:43Z</time></trkpt><trkpt lat="41.048480630788085" lon="14.671337613437304"><ele>277.5</ele><time>2026-04-25T11:13:44Z</time></trkpt><trkpt lat="41.04852216977532" lon="14.671650397547479"><ele>277.0</ele><time>2026-04-25T11:13:45Z</time></trkpt><trkpt lat="41.0485915433096" lon="14.671939808221477"><ele>276.3333333333333</ele><time>2026-04-25T11:13:46Z</time></trkpt><trkpt lat="41.04867405286287" lon="14.672214454307625"><ele>275.6666666666667</ele><time>2026-04-25T11:13:47Z</time></trkpt><trkpt lat="41.048770593963624" lon="14.672469431682229"><ele>275.0</ele><time>2026-04-25T11:13:48Z</time></trkpt><trkpt lat="41.04888032610367" lon="14.672715707620663"><ele>274.6666666666667</ele><time>2026-04-25T11:13:49Z</time></trkpt><trkpt lat="41.048997387307935" lon="14.672933696956974"><ele>274.3333333333333</ele><time>2026-04-25T11:13:50Z</time></trkpt><trkpt lat="41.04912192088986" lon="14.673137052340723"><ele>274.0</ele><time>2026-04-25T11:13:51Z</time></trkpt><trkpt lat="41.04925097187434" lon="14.67333241232589"><ele>272.66666666666663</ele><time>2026-04-25T11:13:52Z</time></trkpt><trkpt lat="41.04938730330644" lon="14.673504741481509"><ele>271.3333333333333</ele><time>2026-04-25T11:13:53Z</time></trkpt><trkpt lat="41.04953737626104" lon="14.673656927504826"><ele>270.0</ele><time>2026-04-25T11:13:54Z</time></trkpt><trkpt lat="41.04968444296767" lon="14.673797405309955"><ele>270.0</ele><time>2026-04-25T11:13:55Z</time></trkpt><trkpt lat="41.04983298635855" lon="14.673923942951594"><ele>270.0</ele><time>2026-04-25T11:13:56Z</time></trkpt><trkpt lat="41.04996936227625" lon="14.67405326665841"><ele>270.0</ele><time>2026-04-25T11:13:57Z</time></trkpt><trkpt lat="41.050110190175545" lon="14.674184922552822"><ele>268.6666666666667</ele><time>2026-04-25T11:13:58Z</time></trkpt><trkpt lat="41.05025237432598" lon="14.674315855785908"><ele>267.33333333333337</ele><time>2026-04-25T11:13:59Z</time></trkpt><trkpt lat="41.050395559866445" lon="14.674459863081609"><ele>266.0</ele><time>2026-04-25T11:14:00Z</time></trkpt><trkpt lat="41.05053245877534" lon="14.674608278381111"><ele>266.0</ele><time>2026-04-25T11:14:01Z</time></trkpt><trkpt lat="41.05067301633524" lon="14.674768107578785"><ele>266.0</ele><time>2026-04-25T11:14:02Z</time></trkpt><trkpt lat="41.05080747801641" lon="14.674944598685023"><ele>266.0</ele><time>2026-04-25T11:14:03Z</time></trkpt><trkpt lat="41.05093786544252" lon="14.675131630525975"><ele>261.33333333333337</ele><time>2026-04-25T11:14:04Z</time></trkpt><trkpt lat="41.05106002214199" lon="14.675325752802761"><ele>256.6666666666667</ele><time>2026-04-25T11:14:05Z</time></trkpt><trkpt lat="41.05117303073081" lon="14.675523757244441"><ele>252.0</ele><time>2026-04-25T11:14:06Z</time></trkpt><trkpt lat="41.05127710813794" lon="14.675723832980953"><ele>252.0</ele><time>2026-04-25T11:14:07Z</time></trkpt><trkpt lat="41.051386108698445" lon="14.675942112673109"><ele>252.0</ele><time>2026-04-25T11:14:08Z</time></trkpt><trkpt lat="41.051500237899056" lon="14.676173670759162"><ele>252.0</ele><time>2026-04-25T11:14:09Z</time></trkpt><trkpt lat="41.051615644556335" lon="14.676406811916094"><ele>249.66666666666669</ele><time>2026-04-25T11:14:10Z</time></trkpt><trkpt lat="41.051721031648626" lon="14.67661486679162"><ele>247.33333333333334</ele><time>2026-04-25T11:14:11Z</time></trkpt><trkpt lat="41.051832539370025" lon="14.676825480970422"><ele>245.0</ele><time>2026-04-25T11:14:12Z</time></trkpt><trkpt lat="41.051948835992896" lon="14.677026233070384"><ele>245.0</ele><time>2026-04-25T11:14:13Z</time></trkpt><trkpt lat="41.05207461675106" lon="14.677216626734358"><ele>245.0</ele><time>2026-04-25T11:14:14Z</time></trkpt><trkpt lat="41.05220332353215" lon="14.677384630508566"><ele>245.0</ele><time>2026-04-25T11:14:15Z</time></trkpt><trkpt lat="41.052339036523314" lon="14.67753642179582"><ele>241.0</ele><time>2026-04-25T11:14:16Z</time></trkpt><trkpt lat="41.05247936574257" lon="14.677690809425576"><ele>237.0</ele><time>2026-04-25T11:14:17Z</time></trkpt><trkpt lat="41.05264521981749" lon="14.677845142930966"><ele>233.0</ele><time>2026-04-25T11:14:18Z</time></trkpt><trkpt lat="41.052771521861835" lon="14.67803608035417"><ele>233.0</ele><time>2026-04-25T11:14:19Z</time></trkpt><trkpt lat="41.05290011113192" lon="14.678172442511118"><ele>233.0</ele><time>2026-04-25T11:14:20Z</time></trkpt><trkpt lat="41.05302477325303" lon="14.678317623084455"><ele>233.0</ele><time>2026-04-25T11:14:21Z</time></trkpt><trkpt lat="41.05313089376743" lon="14.678478016873106"><ele>234.33333333333334</ele><time>2026-04-25T11:14:22Z</time></trkpt><trkpt lat="41.053227107057644" lon="14.678668010328785"><ele>235.66666666666669</ele><time>2026-04-25T11:14:23Z</time></trkpt><trkpt lat="41.053316905711725" lon="14.678869345918828"><ele>237.0</ele><time>2026-04-25T11:14:24Z</time></trkpt><trkpt lat="41.05339569222255" lon="14.679063595882132"><ele>233.33333333333331</ele><time>2026-04-25T11:14:25Z</time></trkpt><trkpt lat="41.05346292368084" lon="14.67927525411478"><ele>229.66666666666666</ele><time>2026-04-25T11:14:26Z</time></trkpt><trkpt lat="41.053516571022975" lon="14.679484932443554"><ele>226.0</ele><time>2026-04-25T11:14:27Z</time></trkpt><trkpt lat="41.05355306197741" lon="14.679704771404895"><ele>225.0</ele><time>2026-04-25T11:14:28Z</time></trkpt><trkpt lat="41.05356571249795" lon="14.679939207503157"><ele>224.0</ele><time>2026-04-25T11:14:29Z</time></trkpt><trkpt lat="41.05356458611625" lon="14.680162574260198"><ele>223.0</ele><time>2026-04-25T11:14:30Z</time></trkpt><trkpt lat="41.05353927200109" lon="14.680384816802405"><ele>222.33333333333331</ele><time>2026-04-25T11:14:31Z</time></trkpt><trkpt lat="41.05351588419058" lon="14.680609350458777"><ele>221.66666666666669</ele><time>2026-04-25T11:14:31.999Z</time></trkpt><trkpt lat="41.05348615471604" lon="14.680825037990124"><ele>221.0</ele><time>2026-04-25T11:14:32.999Z</time></trkpt><trkpt lat="41.053454983178774" lon="14.68105342232026"><ele>220.33333333333334</ele><time>2026-04-25T11:14:33.999Z</time></trkpt><trkpt lat="41.053427263402426" lon="14.681276370122513"><ele>219.66666666666669</ele><time>2026-04-25T11:14:34.999Z</time></trkpt><trkpt lat="41.05341305025541" lon="14.681504282832124"><ele>219.0</ele><time>2026-04-25T11:14:35.999Z</time></trkpt><trkpt lat="41.053408022836024" lon="14.681726784858544"><ele>218.66666666666669</ele><time>2026-04-25T11:14:36.999Z</time></trkpt><trkpt lat="41.053419762477226" lon="14.681950353637237"><ele>218.33333333333334</ele><time>2026-04-25T11:14:37.999Z</time></trkpt><trkpt lat="41.05343621245257" lon="14.68217393790075"><ele>218.0</ele><time>2026-04-25T11:14:38.999Z</time></trkpt><trkpt lat="41.053464241216076" lon="14.682399166330642"><ele>218.0</ele><time>2026-04-25T11:14:39.999Z</time></trkpt><trkpt lat="41.05350355049157" lon="14.68261280687437"><ele>218.0</ele><time>2026-04-25T11:14:40.999Z</time></trkpt><trkpt lat="41.05353460514432" lon="14.682832034691918"><ele>218.0</ele><time>2026-04-25T11:14:41.999Z</time></trkpt><trkpt lat="41.05356769980309" lon="14.683050758678485"><ele>218.0</ele><time>2026-04-25T11:14:42.999Z</time></trkpt><trkpt lat="41.05359836328139" lon="14.683269423996071"><ele>218.0</ele><time>2026-04-25T11:14:43.999Z</time></trkpt><trkpt lat="41.05362789838485" lon="14.683474574490766"><ele>218.0</ele><time>2026-04-25T11:14:44.999Z</time></trkpt><trkpt lat="41.05366459426327" lon="14.683683482019864"><ele>218.0</ele><time>2026-04-25T11:14:45.999Z</time></trkpt><trkpt lat="41.05371942587736" lon="14.683934037541905"><ele>218.0</ele><time>2026-04-25T11:14:46.999Z</time></trkpt><trkpt lat="41.053784871924954" lon="14.684211466969145"><ele>218.0</ele><time>2026-04-25T11:14:47.999Z</time></trkpt><trkpt lat="41.05385425182162" lon="14.684535977477891"><ele>218.0</ele><time>2026-04-25T11:14:48.999Z</time></trkpt><trkpt lat="41.05392287843729" lon="14.684872949256194"><ele>218.0</ele><time>2026-04-25T11:14:49.999Z</time></trkpt><trkpt lat="41.0540174796377" lon="14.685234683621157"><ele>216.0</ele><time>2026-04-25T11:14:50.999Z</time></trkpt><trkpt lat="41.054129947614115" lon="14.685603967758857"><ele>214.0</ele><time>2026-04-25T11:14:51.999Z</time></trkpt><trkpt lat="41.054258131291505" lon="14.685981238241203"><ele>214.5</ele><time>2026-04-25T11:14:52.999Z</time></trkpt><trkpt lat="41.05438017283822" lon="14.686354093036243"><ele>215.0</ele><time>2026-04-25T11:14:53.999Z</time></trkpt><trkpt lat="41.054463958084106" lon="14.68673110972321"><ele>214.0</ele><time>2026-04-25T11:14:54.999Z</time></trkpt><trkpt lat="41.05452057358732" lon="14.687123353799203"><ele>213.0</ele><time>2026-04-25T11:14:55.999Z</time></trkpt><trkpt lat="41.05456127876753" lon="14.687486448007554"><ele>212.0</ele><time>2026-04-25T11:14:56.999Z</time></trkpt><trkpt lat="41.05458844386225" lon="14.687817003855143"><ele>211.0</ele><time>2026-04-25T11:14:57.999Z</time></trkpt><trkpt lat="41.054621535109774" lon="14.688111826638425"><ele>211.0</ele><time>2026-04-25T11:14:58.999Z</time></trkpt><trkpt lat="41.05465381395367" lon="14.688384322209144"><ele>211.0</ele><time>2026-04-25T11:14:59.999Z</time></trkpt><trkpt lat="41.0546858361658" lon="14.688633373169653"><ele>211.0</ele><time>2026-04-25T11:15:00.999Z</time></trkpt><trkpt lat="41.054713220959734" lon="14.688859423790316"><ele>210.25</ele><time>2026-04-25T11:15:01.999Z</time></trkpt><trkpt lat="41.054739829646095" lon="14.689069252286089"><ele>209.5</ele><time>2026-04-25T11:15:02.999Z</time></trkpt><trkpt lat="41.054767003266704" lon="14.689261477807866"><ele>208.75</ele><time>2026-04-25T11:15:03.999Z</time></trkpt><trkpt lat="41.05478485369114" lon="14.689443540944865"><ele>208.0</ele><time>2026-04-25T11:15:04.999Z</time></trkpt><trkpt lat="41.054805377352146" lon="14.68961604197499"><ele>207.8</ele><time>2026-04-25T11:15:05.999Z</time></trkpt><trkpt lat="41.05482245353161" lon="14.68977244587571"><ele>207.60000000000002</ele><time>2026-04-25T11:15:06.999Z</time></trkpt><trkpt lat="41.054839047269624" lon="14.689916749760698"><ele>207.39999999999998</ele><time>2026-04-25T11:15:07.999Z</time></trkpt><trkpt lat="41.05485346963187" lon="14.690049993249803"><ele>207.2</ele><time>2026-04-25T11:15:08.999Z</time></trkpt><trkpt lat="41.054865719552204" lon="14.69017660720752"><ele>207.0</ele><time>2026-04-25T11:15:09.999Z</time></trkpt><trkpt lat="41.0548895204223" lon="14.690298372995098"><ele>207.5</ele><time>2026-04-25T11:15:10.999Z</time></trkpt><trkpt lat="41.054895061991616" lon="14.69045244847886"><ele>208.0</ele><time>2026-04-25T11:15:11.999Z</time></trkpt><trkpt lat="41.054905260294326" lon="14.69060114870033"><ele>208.5</ele><time>2026-04-25T11:15:12.999Z</time></trkpt><trkpt lat="41.05491529363573" lon="14.690747873866313"><ele>209.0</ele><time>2026-04-25T11:15:13.999Z</time></trkpt><trkpt lat="41.05493201055811" lon="14.690895730357513"><ele>209.0</ele><time>2026-04-25T11:15:14.999Z</time></trkpt><trkpt lat="41.0549427622079" lon="14.691045212593925"><ele>209.0</ele><time>2026-04-25T11:15:15.999Z</time></trkpt><trkpt lat="41.054956700554754" lon="14.691197896494058"><ele>209.0</ele><time>2026-04-25T11:15:16.999Z</time></trkpt><trkpt lat="41.05497267502768" lon="14.69135425121372"><ele>209.0</ele><time>2026-04-25T11:15:17.999Z</time></trkpt><trkpt lat="41.05499015703899" lon="14.691516384392353"><ele>209.0</ele><time>2026-04-25T11:15:18.999Z</time></trkpt><trkpt lat="41.0550049258263" lon="14.691677920995959"><ele>209.0</ele><time>2026-04-25T11:15:19.999Z</time></trkpt><trkpt lat="41.05501772051575" lon="14.691840339594735"><ele>209.0</ele><time>2026-04-25T11:15:20.999Z</time></trkpt><trkpt lat="41.05503042736252" lon="14.692012078028107"><ele>209.0</ele><time>2026-04-25T11:15:21.999Z</time></trkpt><trkpt lat="41.05504290686385" lon="14.692198325835456"><ele>208.33333333333334</ele><time>2026-04-25T11:15:22.999Z</time></trkpt><trkpt lat="41.05506992163204" lon="14.692395751813542"><ele>207.66666666666669</ele><time>2026-04-25T11:15:23.999Z</time></trkpt><trkpt lat="41.05509370319952" lon="14.69261071463758"><ele>207.0</ele><time>2026-04-25T11:15:24.999Z</time></trkpt><trkpt lat="41.05511121310595" lon="14.692815519115957"><ele>206.75</ele><time>2026-04-25T11:15:25.999Z</time></trkpt><trkpt lat="41.055130673529334" lon="14.692999533381526"><ele>206.5</ele><time>2026-04-25T11:15:27Z</time></trkpt><trkpt lat="41.055153104925864" lon="14.693190352425985"><ele>206.25</ele><time>2026-04-25T11:15:28Z</time></trkpt><trkpt lat="41.05517404883858" lon="14.693378899667069"><ele>206.0</ele><time>2026-04-25T11:15:29Z</time></trkpt><trkpt lat="41.05519795405939" lon="14.693567471571257"><ele>205.25</ele><time>2026-04-25T11:15:30Z</time></trkpt><trkpt lat="41.05521774735475" lon="14.693749113685156"><ele>204.5</ele><time>2026-04-25T11:15:31Z</time></trkpt><trkpt lat="41.05524695567672" lon="14.693924433023493"><ele>203.75</ele><time>2026-04-25T11:15:32Z</time></trkpt><trkpt lat="41.05527542242564" lon="14.694091537728239"><ele>203.0</ele><time>2026-04-25T11:15:33Z</time></trkpt><trkpt lat="41.05530562559297" lon="14.694252193663226"><ele>203.0</ele><time>2026-04-25T11:15:34Z</time></trkpt><trkpt lat="41.05533567818554" lon="14.694420942342875"><ele>203.0</ele><time>2026-04-25T11:15:35Z</time></trkpt><trkpt lat="41.05536806024378" lon="14.694577382077709"><ele>203.0</ele><time>2026-04-25T11:15:36Z</time></trkpt><trkpt lat="41.055393887653366" lon="14.694722884312295"><ele>203.0</ele><time>2026-04-25T11:15:37Z</time></trkpt><trkpt lat="41.0554160086596" lon="14.694859085082165"><ele>203.0</ele><time>2026-04-25T11:15:38Z</time></trkpt><trkpt lat="41.05544305936716" lon="14.694987462200224"><ele>203.0</ele><time>2026-04-25T11:15:39Z</time></trkpt><trkpt lat="41.055469481491116" lon="14.695121004623763"><ele>203.0</ele><time>2026-04-25T11:15:40Z</time></trkpt><trkpt lat="41.05549395034052" lon="14.695250212685446"><ele>203.0</ele><time>2026-04-25T11:15:41Z</time></trkpt><trkpt lat="41.05551766867329" lon="14.695384166000862"><ele>203.0</ele><time>2026-04-25T11:15:42Z</time></trkpt><trkpt lat="41.055539244745425" lon="14.6955130021814"><ele>203.0</ele><time>2026-04-25T11:15:43Z</time></trkpt><trkpt lat="41.05556353687878" lon="14.69564802880345"><ele>203.0</ele><time>2026-04-25T11:15:44Z</time></trkpt><trkpt lat="41.05558267891682" lon="14.69578681578279"><ele>203.0</ele><time>2026-04-25T11:15:45Z</time></trkpt><trkpt lat="41.05560389093111" lon="14.695932202135767"><ele>203.0</ele><time>2026-04-25T11:15:46Z</time></trkpt><trkpt lat="41.05562832043533" lon="14.696084886892718"><ele>203.0</ele><time>2026-04-25T11:15:47Z</time></trkpt><trkpt lat="41.05565067723148" lon="14.69623515428956"><ele>203.25</ele><time>2026-04-25T11:15:48Z</time></trkpt><trkpt lat="41.05567052442909" lon="14.696388807471974"><ele>203.5</ele><time>2026-04-25T11:15:49Z</time></trkpt><trkpt lat="41.05569068898452" lon="14.696546459571225"><ele>203.75</ele><time>2026-04-25T11:15:50Z</time></trkpt><trkpt lat="41.055711949358916" lon="14.69671449662318"><ele>204.0</ele><time>2026-04-25T11:15:51Z</time></trkpt><trkpt lat="41.055724574362415" lon="14.696874552462985"><ele>203.33333333333331</ele><time>2026-04-25T11:15:52Z</time></trkpt><trkpt lat="41.055707033111574" lon="14.697058106433882"><ele>202.66666666666666</ele><time>2026-04-25T11:15:53Z</time></trkpt><trkpt lat="41.055676870035505" lon="14.697248473544363"><ele>202.0</ele><time>2026-04-25T11:15:54Z</time></trkpt><trkpt lat="41.05562626669439" lon="14.697472685351274"><ele>202.0</ele><time>2026-04-25T11:15:55Z</time></trkpt><trkpt lat="41.05557555368068" lon="14.697691314907805"><ele>202.0</ele><time>2026-04-25T11:15:56Z</time></trkpt><trkpt lat="41.05552801299996" lon="14.697914714573963"><ele>202.0</ele><time>2026-04-25T11:15:57Z</time></trkpt><trkpt lat="41.055477791734006" lon="14.698141236755133"><ele>201.33333333333331</ele><time>2026-04-25T11:15:58Z</time></trkpt><trkpt lat="41.05542840828513" lon="14.698363604535837"><ele>200.66666666666669</ele><time>2026-04-25T11:15:59Z</time></trkpt><trkpt lat="41.05539829203618" lon="14.698569739809262"><ele>200.0</ele><time>2026-04-25T11:16:00Z</time></trkpt><trkpt lat="41.055342040104534" lon="14.698743880195803"><ele>200.0</ele><time>2026-04-25T11:16:01Z</time></trkpt><trkpt lat="41.0553132429215" lon="14.69892908485717"><ele>200.0</ele><time>2026-04-25T11:16:02Z</time></trkpt><trkpt lat="41.055265827576434" lon="14.699112367304158"><ele>200.0</ele><time>2026-04-25T11:16:03Z</time></trkpt><trkpt lat="41.055222484242925" lon="14.699302945206698"><ele>200.0</ele><time>2026-04-25T11:16:04Z</time></trkpt><trkpt lat="41.05517661401823" lon="14.699485685172078"><ele>199.33333333333334</ele><time>2026-04-25T11:16:05Z</time></trkpt><trkpt lat="41.05514612851497" lon="14.699683170012669"><ele>198.66666666666669</ele><time>2026-04-25T11:16:06Z</time></trkpt><trkpt lat="41.05513365983417" lon="14.699884001174201"><ele>198.0</ele><time>2026-04-25T11:16:07Z</time></trkpt><trkpt lat="41.05514675503041" lon="14.700090916254219"><ele>197.33333333333331</ele><time>2026-04-25T11:16:08Z</time></trkpt><trkpt lat="41.05516391761753" lon="14.700305909301433"><ele>196.66666666666666</ele><time>2026-04-25T11:16:09Z</time></trkpt><trkpt lat="41.055188515535924" lon="14.700501565110827"><ele>196.0</ele><time>2026-04-25T11:16:10Z</time></trkpt><trkpt lat="41.055209490741795" lon="14.700695311650046"><ele>196.0</ele><time>2026-04-25T11:16:11Z</time></trkpt><trkpt lat="41.05522309592552" lon="14.700893767998783"><ele>196.0</ele><time>2026-04-25T11:16:12Z</time></trkpt><trkpt lat="41.05523811934804" lon="14.70109912570197"><ele>196.0</ele><time>2026-04-25T11:16:13Z</time></trkpt><trkpt lat="41.05525613221726" lon="14.701305174334742"><ele>195.66666666666666</ele><time>2026-04-25T11:16:14Z</time></trkpt><trkpt lat="41.05527539106906" lon="14.701514140990554"><ele>195.33333333333331</ele><time>2026-04-25T11:16:15Z</time></trkpt><trkpt lat="41.05529071034671" lon="14.701725370303057"><ele>195.0</ele><time>2026-04-25T11:16:16Z</time></trkpt><trkpt lat="41.05532467575199" lon="14.70193574468346"><ele>196.33333333333331</ele><time>2026-04-25T11:16:17Z</time></trkpt><trkpt lat="41.0553366789335" lon="14.702147183710167"><ele>197.66666666666666</ele><time>2026-04-25T11:16:18Z</time></trkpt><trkpt lat="41.05535341389436" lon="14.70236299548342"><ele>199.0</ele><time>2026-04-25T11:16:19Z</time></trkpt><trkpt lat="41.05536838787663" lon="14.702573046105506"><ele>199.0</ele><time>2026-04-25T11:16:20Z</time></trkpt><trkpt lat="41.05538588955393" lon="14.702769680972338"><ele>199.0</ele><time>2026-04-25T11:16:21Z</time></trkpt><trkpt lat="41.05542800515925" lon="14.702948399013566"><ele>199.0</ele><time>2026-04-25T11:16:22Z</time></trkpt><trkpt lat="41.05547825766909" lon="14.703139010081877"><ele>199.0</ele><time>2026-04-25T11:16:23Z</time></trkpt><trkpt lat="41.05553755921274" lon="14.703331945820281"><ele>199.0</ele><time>2026-04-25T11:16:24Z</time></trkpt><trkpt lat="41.05561506017088" lon="14.703526115638333"><ele>199.0</ele><time>2026-04-25T11:16:25Z</time></trkpt><trkpt lat="41.05571868555137" lon="14.703709647191396"><ele>199.0</ele><time>2026-04-25T11:16:26Z</time></trkpt><trkpt lat="41.05585543346382" lon="14.703905619895432"><ele>199.0</ele><time>2026-04-25T11:16:27Z</time></trkpt><trkpt lat="41.05599471264177" lon="14.704164244317548"><ele>199.0</ele><time>2026-04-25T11:16:28Z</time></trkpt><trkpt lat="41.05614901346329" lon="14.7044166108288"><ele>201.0</ele><time>2026-04-25T11:16:29Z</time></trkpt><trkpt lat="41.05630484395437" lon="14.70467013780591"><ele>203.0</ele><time>2026-04-25T11:16:30Z</time></trkpt><trkpt lat="41.056477382883884" lon="14.704948970853927"><ele>202.66666666666669</ele><time>2026-04-25T11:16:31Z</time></trkpt><trkpt lat="41.05664498429431" lon="14.705216047722347"><ele>202.33333333333331</ele><time>2026-04-25T11:16:32Z</time></trkpt><trkpt lat="41.056724106885454" lon="14.705343357331587"><ele>202.0</ele><time>2026-04-25T11:16:33Z</time></trkpt><trkpt lat="41.056864904750114" lon="14.705551330922528"><ele>202.0</ele><time>2026-04-25T11:16:34Z</time></trkpt><trkpt lat="41.05700094583608" lon="14.705790974700243"><ele>202.0</ele><time>2026-04-25T11:16:35Z</time></trkpt><trkpt lat="41.0571447606764" lon="14.70602317704258"><ele>203.5</ele><time>2026-04-25T11:16:36Z</time></trkpt><trkpt lat="41.05728869900804" lon="14.70625288549167"><ele>205.0</ele><time>2026-04-25T11:16:37Z</time></trkpt><trkpt lat="41.057445404095425" lon="14.70647746706681"><ele>205.0</ele><time>2026-04-25T11:16:38Z</time></trkpt><trkpt lat="41.057586470946404" lon="14.706706492212618"><ele>205.0</ele><time>2026-04-25T11:16:39Z</time></trkpt><trkpt lat="41.057724673367154" lon="14.706915255758345"><ele>205.0</ele><time>2026-04-25T11:16:40Z</time></trkpt><trkpt lat="41.05785391216801" lon="14.707111145684097"><ele>205.0</ele><time>2026-04-25T11:16:41Z</time></trkpt><trkpt lat="41.05797606150421" lon="14.707294900882397"><ele>205.0</ele><time>2026-04-25T11:16:42Z</time></trkpt><trkpt lat="41.058083820478195" lon="14.707467408195118"><ele>205.0</ele><time>2026-04-25T11:16:43Z</time></trkpt><trkpt lat="41.058192244906365" lon="14.707627715508268"><ele>204.0</ele><time>2026-04-25T11:16:44Z</time></trkpt><trkpt lat="41.058258937061446" lon="14.707765658405023"><ele>203.0</ele><time>2026-04-25T11:16:45Z</time></trkpt><trkpt lat="41.05833209098917" lon="14.707879965777469"><ele>202.0</ele><time>2026-04-25T11:16:46Z</time></trkpt><trkpt lat="41.05841358158774" lon="14.708007471332644"><ele>201.0</ele><time>2026-04-25T11:16:47Z</time></trkpt><trkpt lat="41.05851510664672" lon="14.708132868259684"><ele>201.0</ele><time>2026-04-25T11:16:48Z</time></trkpt><trkpt lat="41.05859770677634" lon="14.708294963962661"><ele>201.0</ele><time>2026-04-25T11:16:49Z</time></trkpt><trkpt lat="41.058694858877075" lon="14.708420241027602"><ele>201.0</ele><time>2026-04-25T11:16:50Z</time></trkpt><trkpt lat="41.05879372528547" lon="14.708575250143259"><ele>201.0</ele><time>2026-04-25T11:16:51Z</time></trkpt><trkpt lat="41.058898705857814" lon="14.708763099343702"><ele>200.0</ele><time>2026-04-25T11:16:52Z</time></trkpt><trkpt lat="41.05903528972686" lon="14.708971845202143"><ele>199.0</ele><time>2026-04-25T11:16:53Z</time></trkpt><trkpt lat="41.05918775586888" lon="14.709204180056908"><ele>198.0</ele><time>2026-04-25T11:16:54Z</time></trkpt><trkpt lat="41.05936764182348" lon="14.709456429211096"><ele>200.0</ele><time>2026-04-25T11:16:55Z</time></trkpt><trkpt lat="41.05948752335216" lon="14.709687566456779"><ele>202.0</ele><time>2026-04-25T11:16:56Z</time></trkpt><trkpt lat="41.05964354880931" lon="14.709883785405081"><ele>204.0</ele><time>2026-04-25T11:16:57Z</time></trkpt><trkpt lat="41.05979524085176" lon="14.710059124248794"><ele>204.0</ele><time>2026-04-25T11:16:58Z</time></trkpt><trkpt lat="41.05991920979084" lon="14.710221327516127"><ele>204.0</ele><time>2026-04-25T11:16:59Z</time></trkpt><trkpt lat="41.06001828930094" lon="14.710368425923805"><ele>204.0</ele><time>2026-04-25T11:17:00Z</time></trkpt><trkpt lat="41.06010793900428" lon="14.71049940580036"><ele>202.75</ele><time>2026-04-25T11:17:01Z</time></trkpt><trkpt lat="41.06018751723444" lon="14.710625573946475"><ele>201.5</ele><time>2026-04-25T11:17:02Z</time></trkpt><trkpt lat="41.06026895939152" lon="14.710750312263158"><ele>200.25</ele><time>2026-04-25T11:17:03Z</time></trkpt><trkpt lat="41.06035771881113" lon="14.710872202408682"><ele>199.0</ele><time>2026-04-25T11:17:04Z</time></trkpt><trkpt lat="41.06045377615572" lon="14.710987285910766"><ele>198.75</ele><time>2026-04-25T11:17:05Z</time></trkpt><trkpt lat="41.06056272587385" lon="14.711093507855619"><ele>198.5</ele><time>2026-04-25T11:17:06Z</time></trkpt><trkpt lat="41.06069402685074" lon="14.711175381576512"><ele>198.25</ele><time>2026-04-25T11:17:07Z</time></trkpt><trkpt lat="41.060842715075204" lon="14.711230912662261"><ele>198.0</ele><time>2026-04-25T11:17:08Z</time></trkpt><trkpt lat="41.061003473003446" lon="14.711262002471225"><ele>197.0</ele><time>2026-04-25T11:17:09Z</time></trkpt><trkpt lat="41.06118679454969" lon="14.711312475725368"><ele>196.0</ele><time>2026-04-25T11:17:10Z</time></trkpt><trkpt lat="41.0614032506701" lon="14.711363303628353"><ele>195.0</ele><time>2026-04-25T11:17:11Z</time></trkpt><trkpt lat="41.06163293056813" lon="14.711416600659367"><ele>195.0</ele><time>2026-04-25T11:17:11.999Z</time></trkpt><trkpt lat="41.061872891518256" lon="14.711459256393884"><ele>195.0</ele><time>2026-04-25T11:17:12.999Z</time></trkpt><trkpt lat="41.06212090716443" lon="14.711529444157817"><ele>195.0</ele><time>2026-04-25T11:17:13.999Z</time></trkpt><trkpt lat="41.06238550047372" lon="14.711595459828738"><ele>195.0</ele><time>2026-04-25T11:17:14.999Z</time></trkpt><trkpt lat="41.06265072054809" lon="14.711653638873589"><ele>195.5</ele><time>2026-04-25T11:17:15.999Z</time></trkpt><trkpt lat="41.06292707663997" lon="14.711704004827428"><ele>196.0</ele><time>2026-04-25T11:17:16.999Z</time></trkpt><trkpt lat="41.06321000357254" lon="14.711748873340076"><ele>195.0</ele><time>2026-04-25T11:17:17.999Z</time></trkpt><trkpt lat="41.06349145757359" lon="14.711790104603875"><ele>194.0</ele><time>2026-04-25T11:17:18.999Z</time></trkpt><trkpt lat="41.06378520299324" lon="14.711834798125524"><ele>194.0</ele><time>2026-04-25T11:17:19.999Z</time></trkpt><trkpt lat="41.064072505644646" lon="14.711880803690375"><ele>194.0</ele><time>2026-04-25T11:17:20.999Z</time></trkpt><trkpt lat="41.06436789234536" lon="14.711915976092454"><ele>196.0</ele><time>2026-04-25T11:17:21.999Z</time></trkpt><trkpt lat="41.064640429283216" lon="14.711959067131916"><ele>198.0</ele><time>2026-04-25T11:17:22.999Z</time></trkpt><trkpt lat="41.064907671969834" lon="14.711997013647826"><ele>198.0</ele><time>2026-04-25T11:17:23.999Z</time></trkpt><trkpt lat="41.065164843784295" lon="14.712035476920601"><ele>198.0</ele><time>2026-04-25T11:17:24.999Z</time></trkpt><trkpt lat="41.06542247811322" lon="14.71207597792594"><ele>198.0</ele><time>2026-04-25T11:17:25.999Z</time></trkpt><trkpt lat="41.06568221961824" lon="14.712119323452855"><ele>198.0</ele><time>2026-04-25T11:17:26.999Z</time></trkpt><trkpt lat="41.06593390469291" lon="14.712160848617415"><ele>196.0</ele><time>2026-04-25T11:17:27.999Z</time></trkpt><trkpt lat="41.066175277383614" lon="14.71221148343408"><ele>194.0</ele><time>2026-04-25T11:17:28.999Z</time></trkpt><trkpt lat="41.066427913732255" lon="14.712239315035722"><ele>193.0</ele><time>2026-04-25T11:17:29.999Z</time></trkpt><trkpt lat="41.06667473099235" lon="14.712276503052902"><ele>192.0</ele><time>2026-04-25T11:17:30.999Z</time></trkpt><trkpt lat="41.066918273018054" lon="14.712314127808396"><ele>192.0</ele><time>2026-04-25T11:17:31.999Z</time></trkpt><trkpt lat="41.06716675666093" lon="14.712352446451474"><ele>192.0</ele><time>2026-04-25T11:17:33Z</time></trkpt><trkpt lat="41.067405103768834" lon="14.71238903584836"><ele>191.0</ele><time>2026-04-25T11:17:34Z</time></trkpt><trkpt lat="41.06763245325821" lon="14.712424223634283"><ele>190.0</ele><time>2026-04-25T11:17:35Z</time></trkpt><trkpt lat="41.06785102883044" lon="14.712455444352875"><ele>189.0</ele><time>2026-04-25T11:17:36Z</time></trkpt><trkpt lat="41.06805051363195" lon="14.712484645826937"><ele>189.0</ele><time>2026-04-25T11:17:37Z</time></trkpt><trkpt lat="41.06823582763242" lon="14.712514241816658"><ele>189.0</ele><time>2026-04-25T11:17:38Z</time></trkpt><trkpt lat="41.06840235631945" lon="14.71253441780158"><ele>189.0</ele><time>2026-04-25T11:17:39Z</time></trkpt><trkpt lat="41.06855952427541" lon="14.712555631240043"><ele>189.0</ele><time>2026-04-25T11:17:40Z</time></trkpt><trkpt lat="41.06870646205693" lon="14.712572306384791"><ele>189.0</ele><time>2026-04-25T11:17:41Z</time></trkpt><trkpt lat="41.06885307363053" lon="14.712590505115523"><ele>189.0</ele><time>2026-04-25T11:17:42Z</time></trkpt><trkpt lat="41.06900727108774" lon="14.712604615274387"><ele>189.0</ele><time>2026-04-25T11:17:43Z</time></trkpt><trkpt lat="41.0691668940632" lon="14.71260029684068"><ele>189.0</ele><time>2026-04-25T11:17:44Z</time></trkpt><trkpt lat="41.0693272590606" lon="14.712613547302153"><ele>189.0</ele><time>2026-04-25T11:17:45Z</time></trkpt><trkpt lat="41.06950301322019" lon="14.712556874356624"><ele>189.0</ele><time>2026-04-25T11:17:46Z</time></trkpt><trkpt lat="41.06971345552914" lon="14.712519677810599"><ele>187.5</ele><time>2026-04-25T11:17:47Z</time></trkpt><trkpt lat="41.06994888205666" lon="14.712487025911742"><ele>186.0</ele><time>2026-04-25T11:17:48Z</time></trkpt><trkpt lat="41.07019439181626" lon="14.712456440713098"><ele>186.0</ele><time>2026-04-25T11:17:49Z</time></trkpt><trkpt lat="41.070469327152786" lon="14.712418585428026"><ele>186.0</ele><time>2026-04-25T11:17:50Z</time></trkpt><trkpt lat="41.07077071705649" lon="14.712363708544771"><ele>185.5</ele><time>2026-04-25T11:17:51Z</time></trkpt><trkpt lat="41.07108115042068" lon="14.712305982625008"><ele>185.0</ele><time>2026-04-25T11:17:52Z</time></trkpt><trkpt lat="41.071407569375125" lon="14.71225019713281"><ele>185.0</ele><time>2026-04-25T11:17:53Z</time></trkpt><trkpt lat="41.07174974579956" lon="14.712196304079852"><ele>185.0</ele><time>2026-04-25T11:17:54Z</time></trkpt><trkpt lat="41.07210288907078" lon="14.712138324466695"><ele>183.0</ele><time>2026-04-25T11:17:55Z</time></trkpt><trkpt lat="41.072457609374425" lon="14.712073458955619"><ele>181.0</ele><time>2026-04-25T11:17:56Z</time></trkpt><trkpt lat="41.072791032750246" lon="14.71201820990575"><ele>181.0</ele><time>2026-04-25T11:17:57Z</time></trkpt><trkpt lat="41.07308576646479" lon="14.711980512944754"><ele>181.0</ele><time>2026-04-25T11:17:58Z</time></trkpt><trkpt lat="41.07337975608272" lon="14.711919713598176"><ele>181.0</ele><time>2026-04-25T11:17:59Z</time></trkpt><trkpt lat="41.07365245932542" lon="14.711869058203145"><ele>181.0</ele><time>2026-04-25T11:18:00Z</time></trkpt><trkpt lat="41.073907573485286" lon="14.71182917330761"><ele>183.0</ele><time>2026-04-25T11:18:01Z</time></trkpt><trkpt lat="41.07415776797547" lon="14.711787704952615"><ele>185.0</ele><time>2026-04-25T11:18:02Z</time></trkpt><trkpt lat="41.07440098454857" lon="14.711771763784908"><ele>185.0</ele><time>2026-04-25T11:18:03Z</time></trkpt><trkpt lat="41.07465375354433" lon="14.711780719980517"><ele>185.0</ele><time>2026-04-25T11:18:04Z</time></trkpt><trkpt lat="41.07491161624392" lon="14.711841348053369"><ele>182.5</ele><time>2026-04-25T11:18:05Z</time></trkpt><trkpt lat="41.075175728702305" lon="14.711942782631118"><ele>180.0</ele><time>2026-04-25T11:18:06Z</time></trkpt><trkpt lat="41.075438331899356" lon="14.712101926057175"><ele>180.0</ele><time>2026-04-25T11:18:07Z</time></trkpt><trkpt lat="41.075700547069886" lon="14.712308225442762"><ele>180.0</ele><time>2026-04-25T11:18:08Z</time></trkpt><trkpt lat="41.0759583977814" lon="14.712513656383742"><ele>179.0</ele><time>2026-04-25T11:18:09Z</time></trkpt><trkpt lat="41.07620553732849" lon="14.7127018711881"><ele>178.0</ele><time>2026-04-25T11:18:10Z</time></trkpt><trkpt lat="41.07644288498676" lon="14.712875616620677"><ele>180.5</ele><time>2026-04-25T11:18:11Z</time></trkpt><trkpt lat="41.07667358818986" lon="14.713055235138684"><ele>183.0</ele><time>2026-04-25T11:18:12Z</time></trkpt><trkpt lat="41.07689440494367" lon="14.713251898314907"><ele>183.0</ele><time>2026-04-25T11:18:13Z</time></trkpt><trkpt lat="41.07710387629767" lon="14.713469826146595"><ele>183.0</ele><time>2026-04-25T11:18:14Z</time></trkpt><trkpt lat="41.077306479492215" lon="14.71370708718777"><ele>180.5</ele><time>2026-04-25T11:18:15Z</time></trkpt><trkpt lat="41.07749690499868" lon="14.713973317897972"><ele>178.0</ele><time>2026-04-25T11:18:16Z</time></trkpt><trkpt lat="41.077676515826134" lon="14.714258947563614"><ele>176.0</ele><time>2026-04-25T11:18:17Z</time></trkpt><trkpt lat="41.07784126430107" lon="14.714575909945323"><ele>174.0</ele><time>2026-04-25T11:18:18Z</time></trkpt><trkpt lat="41.0779914958638" lon="14.714901810501246"><ele>174.0</ele><time>2026-04-25T11:18:19Z</time></trkpt><trkpt lat="41.07812857705472" lon="14.71523434544699"><ele>174.0</ele><time>2026-04-25T11:18:20Z</time></trkpt><trkpt lat="41.078263049564015" lon="14.715564168113263"><ele>175.5</ele><time>2026-04-25T11:18:21Z</time></trkpt><trkpt lat="41.07839622639631" lon="14.715887757046378"><ele>177.0</ele><time>2026-04-25T11:18:22Z</time></trkpt><trkpt lat="41.078529581274374" lon="14.716204988804233"><ele>180.5</ele><time>2026-04-25T11:18:23Z</time></trkpt><trkpt lat="41.07866152822706" lon="14.716517531365191"><ele>184.0</ele><time>2026-04-25T11:18:24Z</time></trkpt><trkpt lat="41.078791557609016" lon="14.716831796199642"><ele>184.0</ele><time>2026-04-25T11:18:25Z</time></trkpt><trkpt lat="41.07892519771844" lon="14.717138132983228"><ele>184.0</ele><time>2026-04-25T11:18:26Z</time></trkpt><trkpt lat="41.07905322243459" lon="14.71744372056047"><ele>184.0</ele><time>2026-04-25T11:18:27Z</time></trkpt><trkpt lat="41.07918243825018" lon="14.71775249468552"><ele>184.0</ele><time>2026-04-25T11:18:28Z</time></trkpt><trkpt lat="41.07930919963647" lon="14.71805888755724"><ele>184.0</ele><time>2026-04-25T11:18:29Z</time></trkpt><trkpt lat="41.07944303169822" lon="14.718368348762843"><ele>184.0</ele><time>2026-04-25T11:18:30Z</time></trkpt><trkpt lat="41.07956773724875" lon="14.71868090893477"><ele>188.5</ele><time>2026-04-25T11:18:31Z</time></trkpt><trkpt lat="41.07969256077181" lon="14.718992373471242"><ele>193.0</ele><time>2026-04-25T11:18:32Z</time></trkpt><trkpt lat="41.07981709644654" lon="14.719298956457639"><ele>191.0</ele><time>2026-04-25T11:18:33Z</time></trkpt><trkpt lat="41.0799419500084" lon="14.719618862237434"><ele>189.0</ele><time>2026-04-25T11:18:34Z</time></trkpt><trkpt lat="41.080055922510915" lon="14.719939269252075"><ele>192.0</ele><time>2026-04-25T11:18:35Z</time></trkpt><trkpt lat="41.080160714520225" lon="14.720262841408285"><ele>195.0</ele><time>2026-04-25T11:18:36Z</time></trkpt><trkpt lat="41.080261831543694" lon="14.720596677485059"><ele>195.0</ele><time>2026-04-25T11:18:37Z</time></trkpt><trkpt lat="41.08034338299677" lon="14.720920114148004"><ele>195.0</ele><time>2026-04-25T11:18:38Z</time></trkpt><trkpt lat="41.0804123386167" lon="14.721220014621613"><ele>194.33333333333331</ele><time>2026-04-25T11:18:39Z</time></trkpt><trkpt lat="41.080473161169394" lon="14.721509339748515"><ele>193.66666666666666</ele><time>2026-04-25T11:18:40Z</time></trkpt><trkpt lat="41.08053076707517" lon="14.721792154251037"><ele>193.0</ele><time>2026-04-25T11:18:41Z</time></trkpt><trkpt lat="41.08059164238096" lon="14.722098073170267"><ele>187.5</ele><time>2026-04-25T11:18:42Z</time></trkpt><trkpt lat="41.08064767187262" lon="14.72243920502372"><ele>182.0</ele><time>2026-04-25T11:18:43Z</time></trkpt><trkpt lat="41.08065856975869" lon="14.722799732145221"><ele>182.0</ele><time>2026-04-25T11:18:44Z</time></trkpt><trkpt lat="41.0807019997367" lon="14.723175754355807"><ele>182.0</ele><time>2026-04-25T11:18:45Z</time></trkpt><trkpt lat="41.080734566626724" lon="14.723548615449486"><ele>185.0</ele><time>2026-04-25T11:18:46Z</time></trkpt><trkpt lat="41.08075805385608" lon="14.723920851242598"><ele>188.0</ele><time>2026-04-25T11:18:47Z</time></trkpt><trkpt lat="41.080772537978696" lon="14.724288542585567"><ele>188.5</ele><time>2026-04-25T11:18:48Z</time></trkpt><trkpt lat="41.080769071437246" lon="14.72462418713349"><ele>189.0</ele><time>2026-04-25T11:18:49Z</time></trkpt><trkpt lat="41.08075559407108" lon="14.724940021169122"><ele>188.0</ele><time>2026-04-25T11:18:50Z</time></trkpt><trkpt lat="41.080744111027535" lon="14.725251584237435"><ele>187.0</ele><time>2026-04-25T11:18:51Z</time></trkpt><trkpt lat="41.08072994572215" lon="14.725560387122426"><ele>187.0</ele><time>2026-04-25T11:18:52Z</time></trkpt><trkpt lat="41.08071065629877" lon="14.7258662471008"><ele>187.0</ele><time>2026-04-25T11:18:53Z</time></trkpt><trkpt lat="41.08068953901443" lon="14.726162148376151"><ele>185.33333333333334</ele><time>2026-04-25T11:18:54Z</time></trkpt><trkpt lat="41.08067299187115" lon="14.726444300427353"><ele>183.66666666666666</ele><time>2026-04-25T11:18:55Z</time></trkpt><trkpt lat="41.080660087947706" lon="14.726711828348712"><ele>182.0</ele><time>2026-04-25T11:18:56Z</time></trkpt><trkpt lat="41.0806505273123" lon="14.726980988589288"><ele>181.66666666666666</ele><time>2026-04-25T11:18:57Z</time></trkpt><trkpt lat="41.080633736417454" lon="14.72724855982568"><ele>181.33333333333334</ele><time>2026-04-25T11:18:58Z</time></trkpt><trkpt lat="41.08062282909968" lon="14.727491069454953"><ele>181.0</ele><time>2026-04-25T11:18:59Z</time></trkpt><trkpt lat="41.08061912050048" lon="14.727726095995555"><ele>181.33333333333334</ele><time>2026-04-25T11:19:00Z</time></trkpt><trkpt lat="41.08062327197307" lon="14.727964168259051"><ele>181.66666666666666</ele><time>2026-04-25T11:19:01Z</time></trkpt><trkpt lat="41.08063858468947" lon="14.728219863732612"><ele>182.0</ele><time>2026-04-25T11:19:02Z</time></trkpt><trkpt lat="41.08064426608471" lon="14.72849513244295"><ele>182.33333333333331</ele><time>2026-04-25T11:19:03Z</time></trkpt><trkpt lat="41.08065817871021" lon="14.728773992131094"><ele>182.66666666666666</ele><time>2026-04-25T11:19:04Z</time></trkpt><trkpt lat="41.08068264269256" lon="14.729070608379418"><ele>183.0</ele><time>2026-04-25T11:19:05Z</time></trkpt><trkpt lat="41.08071383085089" lon="14.72937383043855"><ele>184.5</ele><time>2026-04-25T11:19:06Z</time></trkpt><trkpt lat="41.08075603188734" lon="14.729703872658824"><ele>186.0</ele><time>2026-04-25T11:19:07Z</time></trkpt><trkpt lat="41.0808070153846" lon="14.730019572149077"><ele>180.5</ele><time>2026-04-25T11:19:08Z</time></trkpt><trkpt lat="41.08086805735467" lon="14.730341613160848"><ele>175.0</ele><time>2026-04-25T11:19:09Z</time></trkpt><trkpt lat="41.08092436845101" lon="14.730649154054761"><ele>175.0</ele><time>2026-04-25T11:19:10Z</time></trkpt><trkpt lat="41.080981790535674" lon="14.730931464964605"><ele>175.0</ele><time>2026-04-25T11:19:11Z</time></trkpt><trkpt lat="41.08102282202038" lon="14.731194039308724"><ele>175.0</ele><time>2026-04-25T11:19:12Z</time></trkpt><trkpt lat="41.0810598310658" lon="14.731440697947786"><ele>175.0</ele><time>2026-04-25T11:19:13Z</time></trkpt><trkpt lat="41.08109676154233" lon="14.731669144361156"><ele>175.0</ele><time>2026-04-25T11:19:14Z</time></trkpt><trkpt lat="41.08113550424168" lon="14.731890852363978"><ele>175.0</ele><time>2026-04-25T11:19:15Z</time></trkpt><trkpt lat="41.08116934309918" lon="14.73210124476851"><ele>175.33333333333334</ele><time>2026-04-25T11:19:16Z</time></trkpt><trkpt lat="41.08120775268997" lon="14.732300196261445"><ele>175.66666666666666</ele><time>2026-04-25T11:19:17Z</time></trkpt><trkpt lat="41.08124275167383" lon="14.732506035567356"><ele>176.0</ele><time>2026-04-25T11:19:18Z</time></trkpt><trkpt lat="41.08127768677471" lon="14.732707438957386"><ele>178.66666666666666</ele><time>2026-04-25T11:19:19Z</time></trkpt><trkpt lat="41.08131230391567" lon="14.732903309505573"><ele>181.33333333333334</ele><time>2026-04-25T11:19:20Z</time></trkpt><trkpt lat="41.08134476142981" lon="14.733102095188407"><ele>184.0</ele><time>2026-04-25T11:19:21Z</time></trkpt><trkpt lat="41.08138331967513" lon="14.73332691220805"><ele>184.0</ele><time>2026-04-25T11:19:22Z</time></trkpt><trkpt lat="41.08143138203828" lon="14.733557515770187"><ele>184.0</ele><time>2026-04-25T11:19:23Z</time></trkpt><trkpt lat="41.08148063656758" lon="14.73381131990497"><ele>184.0</ele><time>2026-04-25T11:19:24Z</time></trkpt><trkpt lat="41.08152985098978" lon="14.734083624647647"><ele>184.0</ele><time>2026-04-25T11:19:25Z</time></trkpt><trkpt lat="41.081581067277355" lon="14.734371286717183"><ele>184.0</ele><time>2026-04-25T11:19:26Z</time></trkpt><trkpt lat="41.08162725522042" lon="14.734660127208972"><ele>184.0</ele><time>2026-04-25T11:19:27Z</time></trkpt><trkpt lat="41.08167985052852" lon="14.734953210130143"><ele>175.5</ele><time>2026-04-25T11:19:28Z</time></trkpt><trkpt lat="41.08173189305836" lon="14.735254937297384"><ele>167.0</ele><time>2026-04-25T11:19:29Z</time></trkpt><trkpt lat="41.0817836647333" lon="14.735551902933011"><ele>167.0</ele><time>2026-04-25T11:19:30Z</time></trkpt><trkpt lat="41.08184198526047" lon="14.73583274200768"><ele>167.0</ele><time>2026-04-25T11:19:31Z</time></trkpt><trkpt lat="41.081899914351894" lon="14.736096624242682"><ele>167.0</ele><time>2026-04-25T11:19:31.999Z</time></trkpt><trkpt lat="41.081964180044864" lon="14.736344775592542"><ele>167.0</ele><time>2026-04-25T11:19:32.999Z</time></trkpt><trkpt lat="41.08202434219684" lon="14.736620493109712"><ele>167.0</ele><time>2026-04-25T11:19:33.999Z</time></trkpt><trkpt lat="41.08210925138387" lon="14.736858967673083"><ele>167.0</ele><time>2026-04-25T11:19:34.999Z</time></trkpt><trkpt lat="41.08221683675464" lon="14.737131743383125"><ele>165.5</ele><time>2026-04-25T11:19:35.999Z</time></trkpt><trkpt lat="41.08232401570483" lon="14.737434179945325"><ele>164.0</ele><time>2026-04-25T11:19:36.999Z</time></trkpt><trkpt lat="41.08244627388342" lon="14.737750600320297"><ele>164.0</ele><time>2026-04-25T11:19:37.999Z</time></trkpt><trkpt lat="41.082573296352045" lon="14.738089221564284"><ele>164.0</ele><time>2026-04-25T11:19:39Z</time></trkpt><trkpt lat="41.082736097835074" lon="14.738383151733753"><ele>167.0</ele><time>2026-04-25T11:19:40Z</time></trkpt><trkpt lat="41.08290886862733" lon="14.738686329671404"><ele>170.0</ele><time>2026-04-25T11:19:41Z</time></trkpt><trkpt lat="41.08309602954102" lon="14.738978219900533"><ele>160.0</ele><time>2026-04-25T11:19:42Z</time></trkpt><trkpt lat="41.083275298777316" lon="14.739234589315195"><ele>150.0</ele><time>2026-04-25T11:19:43Z</time></trkpt><trkpt lat="41.08346045227004" lon="14.739471460787968"><ele>150.0</ele><time>2026-04-25T11:19:44Z</time></trkpt><trkpt lat="41.083652099969314" lon="14.73970130195038"><ele>150.0</ele><time>2026-04-25T11:19:45Z</time></trkpt><trkpt lat="41.08382795620211" lon="14.739929916692434"><ele>150.0</ele><time>2026-04-25T11:19:46Z</time></trkpt><trkpt lat="41.084014873143246" lon="14.740102729669747"><ele>150.0</ele><time>2026-04-25T11:19:47Z</time></trkpt><trkpt lat="41.08419364808541" lon="14.740268485696488"><ele>150.0</ele><time>2026-04-25T11:19:48Z</time></trkpt><trkpt lat="41.08438606015598" lon="14.740407717463176"><ele>150.66666666666666</ele><time>2026-04-25T11:19:49Z</time></trkpt><trkpt lat="41.084566752375714" lon="14.740535729298447"><ele>151.33333333333331</ele><time>2026-04-25T11:19:50Z</time></trkpt><trkpt lat="41.08473212958902" lon="14.74064491235958"><ele>152.0</ele><time>2026-04-25T11:19:51Z</time></trkpt><trkpt lat="41.0848864314025" lon="14.740755410193724"><ele>152.0</ele><time>2026-04-25T11:19:52Z</time></trkpt><trkpt lat="41.085028099502374" lon="14.740869084088695"><ele>152.0</ele><time>2026-04-25T11:19:53Z</time></trkpt><trkpt lat="41.08515955480578" lon="14.74097240198675"><ele>152.0</ele><time>2026-04-25T11:19:54Z</time></trkpt><trkpt lat="41.0852950408286" lon="14.741077517886872"><ele>152.0</ele><time>2026-04-25T11:19:55Z</time></trkpt><trkpt lat="41.085427279507456" lon="14.741212761982084"><ele>152.0</ele><time>2026-04-25T11:19:56Z</time></trkpt><trkpt lat="41.085580031984456" lon="14.741368986099262"><ele>152.0</ele><time>2026-04-25T11:19:57Z</time></trkpt><trkpt lat="41.0858483314352" lon="14.741331757215445"><ele>152.66666666666666</ele><time>2026-04-25T11:19:58Z</time></trkpt><trkpt lat="41.08603363493124" lon="14.741448319333246"><ele>153.33333333333334</ele><time>2026-04-25T11:19:59Z</time></trkpt><trkpt lat="41.086222897239594" lon="14.741565752562996"><ele>154.0</ele><time>2026-04-25T11:20:00Z</time></trkpt><trkpt lat="41.08641365729629" lon="14.741684928175543"><ele>154.33333333333334</ele><time>2026-04-25T11:20:01Z</time></trkpt><trkpt lat="41.08659796533703" lon="14.741796878484793"><ele>154.66666666666666</ele><time>2026-04-25T11:20:02Z</time></trkpt><trkpt lat="41.0867835236733" lon="14.741900335900638"><ele>155.0</ele><time>2026-04-25T11:20:03Z</time></trkpt><trkpt lat="41.086974666080955" lon="14.741993813916565"><ele>153.66666666666666</ele><time>2026-04-25T11:20:04Z</time></trkpt><trkpt lat="41.08715886703195" lon="14.742074935153274"><ele>152.33333333333334</ele><time>2026-04-25T11:20:05Z</time></trkpt><trkpt lat="41.08735709552329" lon="14.742142296210009"><ele>151.0</ele><time>2026-04-25T11:20:06Z</time></trkpt><trkpt lat="41.087557575012966" lon="14.742190827662874"><ele>151.0</ele><time>2026-04-25T11:20:07Z</time></trkpt><trkpt lat="41.08775490645857" lon="14.742231915041232"><ele>151.0</ele><time>2026-04-25T11:20:08Z</time></trkpt><trkpt lat="41.0879679054304" lon="14.742259095178127"><ele>151.0</ele><time>2026-04-25T11:20:09Z</time></trkpt><trkpt lat="41.08818950389319" lon="14.74228250327172"><ele>151.0</ele><time>2026-04-25T11:20:10Z</time></trkpt><trkpt lat="41.088418934786205" lon="14.742287194369723"><ele>151.0</ele><time>2026-04-25T11:20:11Z</time></trkpt><trkpt lat="41.08865100867542" lon="14.742279007098047"><ele>151.0</ele><time>2026-04-25T11:20:12Z</time></trkpt><trkpt lat="41.08888697103984" lon="14.742259204376897"><ele>151.0</ele><time>2026-04-25T11:20:13Z</time></trkpt><trkpt lat="41.08912800605288" lon="14.742227232571548"><ele>149.0</ele><time>2026-04-25T11:20:14Z</time></trkpt><trkpt lat="41.08937255069465" lon="14.742174650935251"><ele>147.0</ele><time>2026-04-25T11:20:15Z</time></trkpt><trkpt lat="41.089628255356075" lon="14.742116043122671"><ele>147.0</ele><time>2026-04-25T11:20:16Z</time></trkpt><trkpt lat="41.089892528782784" lon="14.742058408315737"><ele>147.0</ele><time>2026-04-25T11:20:17Z</time></trkpt><trkpt lat="41.09015496979955" lon="14.741999866214181"><ele>148.0</ele><time>2026-04-25T11:20:18Z</time></trkpt><trkpt lat="41.09042110933488" lon="14.741940263989829"><ele>149.0</ele><time>2026-04-25T11:20:19Z</time></trkpt><trkpt lat="41.090689561066455" lon="14.741881490755578"><ele>148.5</ele><time>2026-04-25T11:20:20Z</time></trkpt><trkpt lat="41.09096105920635" lon="14.74182255553392"><ele>148.0</ele><time>2026-04-25T11:20:21Z</time></trkpt><trkpt lat="41.091239799093564" lon="14.74176555415988"><ele>148.0</ele><time>2026-04-25T11:20:22Z</time></trkpt><trkpt lat="41.091517951449795" lon="14.74171292419931"><ele>148.0</ele><time>2026-04-25T11:20:23Z</time></trkpt><trkpt lat="41.091793883448524" lon="14.741659024136833"><ele>149.0</ele><time>2026-04-25T11:20:24Z</time></trkpt><trkpt lat="41.09207320744422" lon="14.74160552596113"><ele>150.0</ele><time>2026-04-25T11:20:25Z</time></trkpt><trkpt lat="41.09234678912022" lon="14.741551851448548"><ele>149.0</ele><time>2026-04-25T11:20:26Z</time></trkpt><trkpt lat="41.09259602736009" lon="14.741502997964618"><ele>148.0</ele><time>2026-04-25T11:20:27Z</time></trkpt><trkpt lat="41.09282875722794" lon="14.741455377522943"><ele>148.0</ele><time>2026-04-25T11:20:28Z</time></trkpt><trkpt lat="41.093049559040985" lon="14.741409122137007"><ele>148.0</ele><time>2026-04-25T11:20:29Z</time></trkpt><trkpt lat="41.09326093713706" lon="14.741365785683437"><ele>148.0</ele><time>2026-04-25T11:20:30Z</time></trkpt><trkpt lat="41.093469863603424" lon="14.741320562187406"><ele>148.66666666666669</ele><time>2026-04-25T11:20:31Z</time></trkpt><trkpt lat="41.09367400402096" lon="14.741259701223019"><ele>149.33333333333334</ele><time>2026-04-25T11:20:32Z</time></trkpt><trkpt lat="41.09388034128714" lon="14.74122743253655"><ele>150.0</ele><time>2026-04-25T11:20:33Z</time></trkpt><trkpt lat="41.09406112901144" lon="14.741195050058229"><ele>149.33333333333334</ele><time>2026-04-25T11:20:34Z</time></trkpt><trkpt lat="41.09423187303218" lon="14.741165552659634"><ele>148.66666666666669</ele><time>2026-04-25T11:20:35Z</time></trkpt><trkpt lat="41.09438678144802" lon="14.741143341279159"><ele>148.0</ele><time>2026-04-25T11:20:36Z</time></trkpt><trkpt lat="41.09453156770326" lon="14.741119100411739"><ele>148.0</ele><time>2026-04-25T11:20:37Z</time></trkpt><trkpt lat="41.0946644015241" lon="14.741102538188098"><ele>148.0</ele><time>2026-04-25T11:20:38Z</time></trkpt><trkpt lat="41.09477724524029" lon="14.741085930543322"><ele>148.0</ele><time>2026-04-25T11:20:39Z</time></trkpt><trkpt lat="41.094865003045605" lon="14.741078744335494"><ele>148.0</ele><time>2026-04-25T11:20:40Z</time></trkpt><trkpt lat="41.094937416882956" lon="14.741067414672264"><ele>148.0</ele><time>2026-04-25T11:20:41Z</time></trkpt><trkpt lat="41.09502644239269" lon="14.741056562028025"><ele>148.75</ele><time>2026-04-25T11:21:01Z</time></trkpt><trkpt lat="41.095115900155896" lon="14.741046088269593"><ele>149.5</ele><time>2026-04-25T11:21:02Z</time></trkpt><trkpt lat="41.095241759300215" lon="14.74103731242658"><ele>150.25</ele><time>2026-04-25T11:21:03Z</time></trkpt><trkpt lat="41.0953790822332" lon="14.741016604887802"><ele>151.0</ele><time>2026-04-25T11:21:04Z</time></trkpt><trkpt lat="41.09553691447285" lon="14.74097221181387"><ele>151.0</ele><time>2026-04-25T11:21:05Z</time></trkpt><trkpt lat="41.09570668938981" lon="14.740922331691515"><ele>151.0</ele><time>2026-04-25T11:21:06Z</time></trkpt><trkpt lat="41.09589125794525" lon="14.740867547574535"><ele>151.0</ele><time>2026-04-25T11:21:07Z</time></trkpt><trkpt lat="41.09608359233659" lon="14.740808385042886"><ele>149.33333333333334</ele><time>2026-04-25T11:21:08Z</time></trkpt><trkpt lat="41.09626925258049" lon="14.74074591005003"><ele>147.66666666666666</ele><time>2026-04-25T11:21:09Z</time></trkpt><trkpt lat="41.096479522989895" lon="14.740683155514194"><ele>146.0</ele><time>2026-04-25T11:21:10Z</time></trkpt><trkpt lat="41.09669575062006" lon="14.740616041613787"><ele>145.5</ele><time>2026-04-25T11:21:11Z</time></trkpt><trkpt lat="41.096921449094935" lon="14.740542540083275"><ele>145.0</ele><time>2026-04-25T11:21:12Z</time></trkpt><trkpt lat="41.09714915332706" lon="14.740466891344775"><ele>145.0</ele><time>2026-04-25T11:21:13Z</time></trkpt><trkpt lat="41.09737106264967" lon="14.740393866392454"><ele>145.0</ele><time>2026-04-25T11:21:14Z</time></trkpt><trkpt lat="41.097581446630876" lon="14.740324215113853"><ele>145.0</ele><time>2026-04-25T11:21:15Z</time></trkpt><trkpt lat="41.097789375835326" lon="14.740256344779587"><ele>145.66666666666669</ele><time>2026-04-25T11:21:16Z</time></trkpt><trkpt lat="41.097989303662175" lon="14.740190037818554"><ele>146.33333333333334</ele><time>2026-04-25T11:21:17Z</time></trkpt><trkpt lat="41.09819147427375" lon="14.740143071125855"><ele>147.0</ele><time>2026-04-25T11:21:18Z</time></trkpt><trkpt lat="41.09840729667056" lon="14.740144548209326"><ele>143.5</ele><time>2026-04-25T11:21:19Z</time></trkpt><trkpt lat="41.09862251886439" lon="14.740234105021246"><ele>140.0</ele><time>2026-04-25T11:21:20Z</time></trkpt><trkpt lat="41.09885412860082" lon="14.740327255254755"><ele>140.0</ele><time>2026-04-25T11:21:21Z</time></trkpt><trkpt lat="41.09908138094405" lon="14.74047108148341"><ele>140.0</ele><time>2026-04-25T11:21:22Z</time></trkpt><trkpt lat="41.0993036091006" lon="14.740622835141295"><ele>140.0</ele><time>2026-04-25T11:21:23Z</time></trkpt><trkpt lat="41.099530287059" lon="14.740794811816391"><ele>140.0</ele><time>2026-04-25T11:21:24Z</time></trkpt><trkpt lat="41.099749076728955" lon="14.740957059619184"><ele>138.5</ele><time>2026-04-25T11:21:25Z</time></trkpt><trkpt lat="41.099968802847506" lon="14.741118680044897"><ele>137.0</ele><time>2026-04-25T11:21:26Z</time></trkpt><trkpt lat="41.100188436056314" lon="14.741283339663488"><ele>137.0</ele><time>2026-04-25T11:21:27Z</time></trkpt><trkpt lat="41.10041017241588" lon="14.741441014678388"><ele>137.0</ele><time>2026-04-25T11:21:28Z</time></trkpt><trkpt lat="41.10063528940712" lon="14.741602716380253"><ele>137.0</ele><time>2026-04-25T11:21:29Z</time></trkpt><trkpt lat="41.1008569007428" lon="14.741769524622562"><ele>137.0</ele><time>2026-04-25T11:21:30Z</time></trkpt><trkpt lat="41.10107939150139" lon="14.74193350429063"><ele>135.5</ele><time>2026-04-25T11:21:31Z</time></trkpt><trkpt lat="41.1013043248262" lon="14.742095571238941"><ele>134.0</ele><time>2026-04-25T11:21:32Z</time></trkpt><trkpt lat="41.10152454005717" lon="14.742253759675332"><ele>134.5</ele><time>2026-04-25T11:21:33Z</time></trkpt><trkpt lat="41.101739056062044" lon="14.742418345758296"><ele>135.0</ele><time>2026-04-25T11:21:34Z</time></trkpt><trkpt lat="41.10195421933354" lon="14.742580876781114"><ele>133.5</ele><time>2026-04-25T11:21:35Z</time></trkpt><trkpt lat="41.1021724031302" lon="14.742745846329063"><ele>132.0</ele><time>2026-04-25T11:21:35.999Z</time></trkpt><trkpt lat="41.10239483469993" lon="14.742898383001897"><ele>133.5</ele><time>2026-04-25T11:21:36.999Z</time></trkpt><trkpt lat="41.10259896078846" lon="14.74306051677675"><ele>135.0</ele><time>2026-04-25T11:21:37.999Z</time></trkpt><trkpt lat="41.1028073339342" lon="14.743219504054018"><ele>135.0</ele><time>2026-04-25T11:21:38.999Z</time></trkpt><trkpt lat="41.10301088889986" lon="14.7433769496413"><ele>135.0</ele><time>2026-04-25T11:21:39.999Z</time></trkpt><trkpt lat="41.103219032893364" lon="14.743535380647643"><ele>135.5</ele><time>2026-04-25T11:21:40.999Z</time></trkpt><trkpt lat="41.10342773611199" lon="14.743692442408987"><ele>136.0</ele><time>2026-04-25T11:21:41.999Z</time></trkpt><trkpt lat="41.10363341405836" lon="14.743847522414653"><ele>136.0</ele><time>2026-04-25T11:21:42.999Z</time></trkpt><trkpt lat="41.103824034795736" lon="14.743998646294186"><ele>136.0</ele><time>2026-04-25T11:21:43.999Z</time></trkpt><trkpt lat="41.10400355338714" lon="14.744133396146495"><ele>136.0</ele><time>2026-04-25T11:21:45Z</time></trkpt><trkpt lat="41.10417811253893" lon="14.744267035017769"><ele>135.66666666666669</ele><time>2026-04-25T11:21:46Z</time></trkpt><trkpt lat="41.104362510208055" lon="14.74440841168842"><ele>135.33333333333334</ele><time>2026-04-25T11:21:47Z</time></trkpt><trkpt lat="41.10454775318744" lon="14.744550590731997"><ele>135.0</ele><time>2026-04-25T11:21:48Z</time></trkpt><trkpt lat="41.10472658829366" lon="14.744703988654063"><ele>135.0</ele><time>2026-04-25T11:21:49Z</time></trkpt><trkpt lat="41.10490249488825" lon="14.744863698815408"><ele>135.0</ele><time>2026-04-25T11:21:50Z</time></trkpt><trkpt lat="41.10508190337153" lon="14.745028980021933"><ele>135.0</ele><time>2026-04-25T11:21:51Z</time></trkpt><trkpt lat="41.10525445646245" lon="14.74519882750286"><ele>134.0</ele><time>2026-04-25T11:21:52Z</time></trkpt><trkpt lat="41.10542453499828" lon="14.745373374699943"><ele>133.0</ele><time>2026-04-25T11:21:53Z</time></trkpt><trkpt lat="41.10558954526543" lon="14.745551297533778"><ele>132.0</ele><time>2026-04-25T11:21:54Z</time></trkpt><trkpt lat="41.10573623472084" lon="14.745738267042677"><ele>132.0</ele><time>2026-04-25T11:21:55Z</time></trkpt><trkpt lat="41.1058896252866" lon="14.745883536932359"><ele>132.0</ele><time>2026-04-25T11:21:56Z</time></trkpt><trkpt lat="41.10603304739711" lon="14.746040588521122"><ele>132.0</ele><time>2026-04-25T11:21:57Z</time></trkpt><trkpt lat="41.1061775662007" lon="14.746192138276992"><ele>132.0</ele><time>2026-04-25T11:21:58Z</time></trkpt><trkpt lat="41.106325692931286" lon="14.746367994170985"><ele>132.0</ele><time>2026-04-25T11:21:59Z</time></trkpt><trkpt lat="41.106471888617314" lon="14.746556756176366"><ele>132.0</ele><time>2026-04-25T11:22:00Z</time></trkpt><trkpt lat="41.106622045702984" lon="14.746745377967313"><ele>131.66666666666666</ele><time>2026-04-25T11:22:01Z</time></trkpt><trkpt lat="41.10677485722004" lon="14.746927802349367"><ele>131.33333333333331</ele><time>2026-04-25T11:22:02Z</time></trkpt><trkpt lat="41.10692672448719" lon="14.747110737647759"><ele>131.0</ele><time>2026-04-25T11:22:03Z</time></trkpt><trkpt lat="41.107077685987186" lon="14.747291519960848"><ele>131.0</ele><time>2026-04-25T11:22:04Z</time></trkpt><trkpt lat="41.107229104142796" lon="14.747465504645335"><ele>131.0</ele><time>2026-04-25T11:22:05Z</time></trkpt><trkpt lat="41.10737701335384" lon="14.74763242208789"><ele>131.0</ele><time>2026-04-25T11:22:06Z</time></trkpt><trkpt lat="41.107523508250594" lon="14.747803857285628"><ele>130.0</ele><time>2026-04-25T11:22:07Z</time></trkpt><trkpt lat="41.10767085122805" lon="14.74796717821724"><ele>129.0</ele><time>2026-04-25T11:22:08Z</time></trkpt><trkpt lat="41.1078184365501" lon="14.748133906359028"><ele>128.0</ele><time>2026-04-25T11:22:09Z</time></trkpt><trkpt lat="41.10796274591976" lon="14.74829779490572"><ele>128.0</ele><time>2026-04-25T11:22:10Z</time></trkpt><trkpt lat="41.108115164866646" lon="14.748451971714793"><ele>128.0</ele><time>2026-04-25T11:22:11Z</time></trkpt><trkpt lat="41.10826869407721" lon="14.74857634645927"><ele>128.0</ele><time>2026-04-25T11:22:12Z</time></trkpt><trkpt lat="41.10842546943217" lon="14.748692710907752"><ele>127.0</ele><time>2026-04-25T11:22:13Z</time></trkpt><trkpt lat="41.108607457491885" lon="14.748801360091914"><ele>126.0</ele><time>2026-04-25T11:22:14Z</time></trkpt><trkpt lat="41.10876442521239" lon="14.748917129642185"><ele>125.0</ele><time>2026-04-25T11:22:15Z</time></trkpt><trkpt lat="41.108912162750684" lon="14.749009257137189"><ele>125.0</ele><time>2026-04-25T11:22:16Z</time></trkpt><trkpt lat="41.10904725906326" lon="14.749074630776171"><ele>125.0</ele><time>2026-04-25T11:22:17Z</time></trkpt><trkpt lat="41.109156399265984" lon="14.749151697292945"><ele>125.0</ele><time>2026-04-25T11:22:18Z</time></trkpt><trkpt lat="41.10926620307736" lon="14.749212160872567"><ele>125.0</ele><time>2026-04-25T11:22:19Z</time></trkpt><trkpt lat="41.10937435529862" lon="14.749271832374658"><ele>125.25</ele><time>2026-04-25T11:22:20Z</time></trkpt><trkpt lat="41.10950130644303" lon="14.749357975642496"><ele>125.5</ele><time>2026-04-25T11:22:21Z</time></trkpt><trkpt lat="41.10963023927195" lon="14.749454446753035"><ele>125.75</ele><time>2026-04-25T11:22:22Z</time></trkpt><trkpt lat="41.10975723508024" lon="14.749535097337922"><ele>126.0</ele><time>2026-04-25T11:22:23Z</time></trkpt><trkpt lat="41.10989250344414" lon="14.749603522842815"><ele>127.66666666666666</ele><time>2026-04-25T11:22:24Z</time></trkpt><trkpt lat="41.1100335598209" lon="14.749677813895383"><ele>129.33333333333331</ele><time>2026-04-25T11:22:25Z</time></trkpt><trkpt lat="41.110164996276346" lon="14.749782689870118"><ele>131.0</ele><time>2026-04-25T11:22:26Z</time></trkpt><trkpt lat="41.110315964753546" lon="14.749893076941389"><ele>131.0</ele><time>2026-04-25T11:22:27Z</time></trkpt><trkpt lat="41.11050675510179" lon="14.750038182202472"><ele>131.0</ele><time>2026-04-25T11:22:28Z</time></trkpt><trkpt lat="41.11072912351071" lon="14.750213861906628"><ele>131.5</ele><time>2026-04-25T11:22:29Z</time></trkpt><trkpt lat="41.110938908547666" lon="14.750431660032614"><ele>132.0</ele><time>2026-04-25T11:22:30Z</time></trkpt><trkpt lat="41.11111537585997" lon="14.750625371628205"><ele>132.0</ele><time>2026-04-25T11:22:31Z</time></trkpt><trkpt lat="41.111274044552445" lon="14.750789768973906"><ele>132.0</ele><time>2026-04-25T11:22:32Z</time></trkpt><trkpt lat="41.11142833914533" lon="14.750948882468611"><ele>132.0</ele><time>2026-04-25T11:22:33Z</time></trkpt><trkpt lat="41.11157554895627" lon="14.7511016322174"><ele>132.66666666666666</ele><time>2026-04-25T11:22:34Z</time></trkpt><trkpt lat="41.111716178771246" lon="14.751250975799318"><ele>133.33333333333331</ele><time>2026-04-25T11:22:35Z</time></trkpt><trkpt lat="41.11186023760539" lon="14.751398395247433"><ele>134.0</ele><time>2026-04-25T11:22:36Z</time></trkpt><trkpt lat="41.11200153411491" lon="14.751544197713839"><ele>134.0</ele><time>2026-04-25T11:22:37Z</time></trkpt><trkpt lat="41.11213101638449" lon="14.751687607241438"><ele>134.0</ele><time>2026-04-25T11:22:38Z</time></trkpt><trkpt lat="41.112252075091334" lon="14.751812293068703"><ele>134.0</ele><time>2026-04-25T11:22:39Z</time></trkpt><trkpt lat="41.11237950731316" lon="14.751938335487967"><ele>137.0</ele><time>2026-04-25T11:22:40Z</time></trkpt><trkpt lat="41.11250586477738" lon="14.752069669218868"><ele>140.0</ele><time>2026-04-25T11:22:41Z</time></trkpt><trkpt lat="41.11262501761239" lon="14.752189780677263"><ele>143.0</ele><time>2026-04-25T11:22:42Z</time></trkpt><trkpt lat="41.11274493514246" lon="14.752309994187925"><ele>143.0</ele><time>2026-04-25T11:22:43Z</time></trkpt><trkpt lat="41.112865849810994" lon="14.752418921190243"><ele>143.0</ele><time>2026-04-25T11:22:44Z</time></trkpt><trkpt lat="41.11298706554007" lon="14.752529193309485"><ele>143.0</ele><time>2026-04-25T11:22:45Z</time></trkpt><trkpt lat="41.1131203403319" lon="14.752637166552098"><ele>143.0</ele><time>2026-04-25T11:22:46Z</time></trkpt><trkpt lat="41.11327077497487" lon="14.752788058967168"><ele>145.0</ele><time>2026-04-25T11:22:47Z</time></trkpt><trkpt lat="41.11345220808455" lon="14.752941048364434"><ele>147.0</ele><time>2026-04-25T11:22:48Z</time></trkpt><trkpt lat="41.1136618229423" lon="14.753110377401251"><ele>147.0</ele><time>2026-04-25T11:22:49Z</time></trkpt><trkpt lat="41.113885214353736" lon="14.75327193839698"><ele>147.0</ele><time>2026-04-25T11:22:50Z</time></trkpt><trkpt lat="41.114080088216326" lon="14.753444858404452"><ele>148.0</ele><time>2026-04-25T11:22:51Z</time></trkpt><trkpt lat="41.114298410050765" lon="14.753617639567462"><ele>149.0</ele><time>2026-04-25T11:22:52Z</time></trkpt><trkpt lat="41.114497703151706" lon="14.753773602742855"><ele>149.0</ele><time>2026-04-25T11:22:53Z</time></trkpt><trkpt lat="41.114702566639906" lon="14.753931796114925"><ele>149.0</ele><time>2026-04-25T11:22:54Z</time></trkpt><trkpt lat="41.114928098689525" lon="14.7541244546768"><ele>147.5</ele><time>2026-04-25T11:22:55Z</time></trkpt><trkpt lat="41.11516514176563" lon="14.754313415245841"><ele>146.0</ele><time>2026-04-25T11:22:56Z</time></trkpt><trkpt lat="41.11539773215537" lon="14.754500923828234"><ele>146.66666666666666</ele><time>2026-04-25T11:22:57Z</time></trkpt><trkpt lat="41.11558938220834" lon="14.754657220606559"><ele>147.33333333333334</ele><time>2026-04-25T11:22:58Z</time></trkpt><trkpt lat="41.115741461402735" lon="14.754788765878468"><ele>148.0</ele><time>2026-04-25T11:22:59Z</time></trkpt><trkpt lat="41.11587220272435" lon="14.754903778547948"><ele>148.0</ele><time>2026-04-25T11:23:00Z</time></trkpt><trkpt lat="41.11601930448199" lon="14.755099325103824"><ele>148.0</ele><time>2026-04-25T11:23:01Z</time></trkpt><trkpt lat="41.11616547708133" lon="14.755323883690405"><ele>148.0</ele><time>2026-04-25T11:23:02Z</time></trkpt><trkpt lat="41.116300640612124" lon="14.755574864103314"><ele>149.33333333333334</ele><time>2026-04-25T11:23:03Z</time></trkpt><trkpt lat="41.11642030185375" lon="14.755829186481726"><ele>150.66666666666666</ele><time>2026-04-25T11:23:04Z</time></trkpt><trkpt lat="41.11652493592275" lon="14.756091401808794"><ele>152.0</ele><time>2026-04-25T11:23:05Z</time></trkpt><trkpt lat="41.116590228534726" lon="14.756354247150057"><ele>150.33333333333331</ele><time>2026-04-25T11:23:06Z</time></trkpt><trkpt lat="41.11665946406354" lon="14.756597982909794"><ele>148.66666666666666</ele><time>2026-04-25T11:23:07Z</time></trkpt><trkpt lat="41.11672720110755" lon="14.756835709584044"><ele>147.0</ele><time>2026-04-25T11:23:08Z</time></trkpt><trkpt lat="41.11678886111967" lon="14.757052108797723"><ele>147.0</ele><time>2026-04-25T11:23:08.999Z</time></trkpt><trkpt lat="41.116840689347605" lon="14.757240171297903"><ele>147.0</ele><time>2026-04-25T11:23:09.999Z</time></trkpt><trkpt lat="41.11688613002999" lon="14.75740696260149"><ele>147.0</ele><time>2026-04-25T11:23:10.999Z</time></trkpt><trkpt lat="41.1169280302333" lon="14.757562395181782"><ele>147.0</ele><time>2026-04-25T11:23:11.999Z</time></trkpt><trkpt lat="41.116978038756926" lon="14.75769533578616"><ele>147.0</ele><time>2026-04-25T11:23:12.999Z</time></trkpt><trkpt lat="41.11700874692153" lon="14.75782542396007"><ele>147.0</ele><time>2026-04-25T11:23:13.999Z</time></trkpt><trkpt lat="41.11704555279239" lon="14.75796725454167"><ele>147.0</ele><time>2026-04-25T11:23:14.999Z</time></trkpt><trkpt lat="41.11708513086233" lon="14.758110744814871"><ele>147.0</ele><time>2026-04-25T11:23:15.999Z</time></trkpt><trkpt lat="41.11712256124277" lon="14.758247349627375"><ele>147.0</ele><time>2026-04-25T11:23:16.999Z</time></trkpt><trkpt lat="41.117159929469814" lon="14.758385273026798"><ele>147.0</ele><time>2026-04-25T11:23:17.999Z</time></trkpt><trkpt lat="41.11719769378572" lon="14.75851898717602"><ele>147.0</ele><time>2026-04-25T11:23:18.999Z</time></trkpt><trkpt lat="41.1172382265943" lon="14.758668285816652"><ele>147.0</ele><time>2026-04-25T11:23:19.999Z</time></trkpt><trkpt lat="41.117287964523214" lon="14.758848155607103"><ele>147.0</ele><time>2026-04-25T11:23:20.999Z</time></trkpt><trkpt lat="41.11734408635984" lon="14.759051709431573"><ele>145.0</ele><time>2026-04-25T11:23:21.999Z</time></trkpt><trkpt lat="41.11740508846427" lon="14.759249289559452"><ele>143.0</ele><time>2026-04-25T11:23:22.999Z</time></trkpt><trkpt lat="41.11747299753586" lon="14.759455715801426"><ele>141.0</ele><time>2026-04-25T11:23:23.999Z</time></trkpt><trkpt lat="41.11753232347602" lon="14.759702018977265"><ele>141.0</ele><time>2026-04-25T11:23:24.999Z</time></trkpt><trkpt lat="41.117586105153656" lon="14.759977375512213"><ele>141.0</ele><time>2026-04-25T11:23:25.999Z</time></trkpt><trkpt lat="41.11764583741204" lon="14.76024486569896"><ele>141.0</ele><time>2026-04-25T11:23:26.999Z</time></trkpt><trkpt lat="41.11771358003353" lon="14.760482457025041"><ele>141.33333333333334</ele><time>2026-04-25T11:23:27.999Z</time></trkpt><trkpt lat="41.11777628723129" lon="14.760693317173114"><ele>141.66666666666669</ele><time>2026-04-25T11:23:28.999Z</time></trkpt><trkpt lat="41.117841078534994" lon="14.760894173976938"><ele>142.0</ele><time>2026-04-25T11:23:29.999Z</time></trkpt><trkpt lat="41.11789333478151" lon="14.761082372404264"><ele>142.66666666666669</ele><time>2026-04-25T11:23:30.999Z</time></trkpt><trkpt lat="41.117947687083976" lon="14.76127136182315"><ele>143.33333333333334</ele><time>2026-04-25T11:23:31.999Z</time></trkpt><trkpt lat="41.118002250097895" lon="14.761463001959696"><ele>144.0</ele><time>2026-04-25T11:23:32.999Z</time></trkpt><trkpt lat="41.11806012552429" lon="14.7616509578237"><ele>144.0</ele><time>2026-04-25T11:23:33.999Z</time></trkpt><trkpt lat="41.11811162901154" lon="14.761831996223282"><ele>144.0</ele><time>2026-04-25T11:23:34.999Z</time></trkpt><trkpt lat="41.11816363995901" lon="14.762008853889515"><ele>144.0</ele><time>2026-04-25T11:23:35.999Z</time></trkpt><trkpt lat="41.118209574384025" lon="14.762163264786999"><ele>144.0</ele><time>2026-04-25T11:23:36.999Z</time></trkpt><trkpt lat="41.1182505361683" lon="14.762310470278349"><ele>146.0</ele><time>2026-04-25T11:23:37.999Z</time></trkpt><trkpt lat="41.11829611546087" lon="14.762470915369025"><ele>148.0</ele><time>2026-04-25T11:23:38.999Z</time></trkpt><trkpt lat="41.11834182629113" lon="14.762639528809677"><ele>150.0</ele><time>2026-04-25T11:23:39.999Z</time></trkpt><trkpt lat="41.11838554848176" lon="14.762811669389688"><ele>152.0</ele><time>2026-04-25T11:23:40.999Z</time></trkpt><trkpt lat="41.118430954282616" lon="14.762983881796238"><ele>153.25</ele><time>2026-04-25T11:23:41.999Z</time></trkpt><trkpt lat="41.11848044049186" lon="14.763153147625223"><ele>154.5</ele><time>2026-04-25T11:23:42.999Z</time></trkpt><trkpt lat="41.118528454543245" lon="14.763318236023178"><ele>155.75</ele><time>2026-04-25T11:23:43.999Z</time></trkpt><trkpt lat="41.11857207023984" lon="14.763475464959921"><ele>157.0</ele><time>2026-04-25T11:23:44.999Z</time></trkpt><trkpt lat="41.11861488330247" lon="14.763628247282861"><ele>158.5</ele><time>2026-04-25T11:23:45.999Z</time></trkpt><trkpt lat="41.11865568233934" lon="14.763777556202006"><ele>160.0</ele><time>2026-04-25T11:23:46.999Z</time></trkpt><trkpt lat="41.118699298331535" lon="14.763926936826424"><ele>161.5</ele><time>2026-04-25T11:23:47.999Z</time></trkpt><trkpt lat="41.11874381165455" lon="14.764080374735686"><ele>163.0</ele><time>2026-04-25T11:23:48.999Z</time></trkpt><trkpt lat="41.11878508035893" lon="14.764236713145642"><ele>164.25</ele><time>2026-04-25T11:23:49.999Z</time></trkpt><trkpt lat="41.118813619689085" lon="14.764400552319946"><ele>165.5</ele><time>2026-04-25T11:23:50.999Z</time></trkpt><trkpt lat="41.11881827491993" lon="14.764570773148295"><ele>166.75</ele><time>2026-04-25T11:23:51.999Z</time></trkpt><trkpt lat="41.118779533646574" lon="14.764742016120408"><ele>168.0</ele><time>2026-04-25T11:23:52.999Z</time></trkpt><trkpt lat="41.118709157785275" lon="14.764919392087316"><ele>168.0</ele><time>2026-04-25T11:23:53.999Z</time></trkpt><trkpt lat="41.11862669823367" lon="14.765102442310447"><ele>168.0</ele><time>2026-04-25T11:23:54.999Z</time></trkpt><trkpt lat="41.118555114463696" lon="14.7652922762231"><ele>168.0</ele><time>2026-04-25T11:23:55.999Z</time></trkpt><trkpt lat="41.118505381253875" lon="14.7654949313212"><ele>169.0</ele><time>2026-04-25T11:23:56.999Z</time></trkpt><trkpt lat="41.11848680872959" lon="14.765705637237456"><ele>170.0</ele><time>2026-04-25T11:23:57.999Z</time></trkpt><trkpt lat="41.118508015910464" lon="14.765917744342516"><ele>171.0</ele><time>2026-04-25T11:23:58.999Z</time></trkpt><trkpt lat="41.11857076672649" lon="14.766119453885294"><ele>172.66666666666666</ele><time>2026-04-25T11:23:59.999Z</time></trkpt><trkpt lat="41.118667205205234" lon="14.766285699841074"><ele>174.33333333333331</ele><time>2026-04-25T11:24:00.999Z</time></trkpt><trkpt lat="41.11878926618541" lon="14.766419994729988"><ele>176.0</ele><time>2026-04-25T11:24:01.999Z</time></trkpt><trkpt lat="41.11892904722189" lon="14.766506516610647"><ele>172.0</ele><time>2026-04-25T11:24:02.999Z</time></trkpt><trkpt lat="41.1190702301384" lon="14.766546716759875"><ele>168.0</ele><time>2026-04-25T11:24:03.999Z</time></trkpt><trkpt lat="41.11923440172892" lon="14.766481706910616"><ele>164.0</ele><time>2026-04-25T11:24:04.999Z</time></trkpt><trkpt lat="41.119359145163685" lon="14.766432084428013"><ele>160.0</ele><time>2026-04-25T11:24:05.999Z</time></trkpt><trkpt lat="41.11946979701909" lon="14.76641166019315"><ele>160.0</ele><time>2026-04-25T11:24:06.999Z</time></trkpt><trkpt lat="41.119551108973454" lon="14.7664614745148"><ele>160.0</ele><time>2026-04-25T11:24:07.999Z</time></trkpt><trkpt lat="41.119619131164555" lon="14.766528890310859"><ele>160.0</ele><time>2026-04-25T11:24:08.999Z</time></trkpt><trkpt lat="41.11967843204291" lon="14.766589515897415"><ele>160.0</ele><time>2026-04-25T11:24:09.999Z</time></trkpt><trkpt lat="41.11972588573065" lon="14.766652442681817"><ele>160.0</ele><time>2026-04-25T11:24:10.999Z</time></trkpt><trkpt lat="41.11979833765537" lon="14.766790969872481"><ele>160.0</ele><time>2026-04-25T11:24:12.999Z</time></trkpt><trkpt lat="41.119839619757435" lon="14.766859723028306"><ele>161.0</ele><time>2026-04-25T11:24:13.999Z</time></trkpt><trkpt lat="41.119879328051866" lon="14.766926594985794"><ele>162.0</ele><time>2026-04-25T11:24:14.999Z</time></trkpt><trkpt lat="41.1199441088646" lon="14.767051864315222"><ele>163.0</ele><time>2026-04-25T11:24:16.999Z</time></trkpt><trkpt lat="41.12000385782642" lon="14.767147846352762"><ele>164.0</ele><time>2026-04-25T11:24:18.999Z</time></trkpt><trkpt lat="41.12010405629446" lon="14.76719739919878"><ele>165.0</ele><time>2026-04-25T11:24:20.999Z</time></trkpt><trkpt lat="41.120172939406" lon="14.767179161034441"><ele>162.5</ele><time>2026-04-25T11:24:21.999Z</time></trkpt><trkpt lat="41.12023962099676" lon="14.767136562328348"><ele>160.0</ele><time>2026-04-25T11:24:22.999Z</time></trkpt><trkpt lat="41.12030892083415" lon="14.767058699042312"><ele>157.5</ele><time>2026-04-25T11:24:23.999Z</time></trkpt><trkpt lat="41.120409285764175" lon="14.766926138457203"><ele>155.0</ele><time>2026-04-25T11:24:24.999Z</time></trkpt><trkpt lat="41.120546968642685" lon="14.766776327957126"><ele>155.0</ele><time>2026-04-25T11:24:25.999Z</time></trkpt><trkpt lat="41.12071660084126" lon="14.76664620461057"><ele>155.0</ele><time>2026-04-25T11:24:26.999Z</time></trkpt><trkpt lat="41.12091255349437" lon="14.766525036506184"><ele>155.0</ele><time>2026-04-25T11:24:27.999Z</time></trkpt><trkpt lat="41.12111382959518" lon="14.766404832340829"><ele>154.0</ele><time>2026-04-25T11:24:28.999Z</time></trkpt><trkpt lat="41.12132550651517" lon="14.766278981472182"><ele>153.0</ele><time>2026-04-25T11:24:29.999Z</time></trkpt><trkpt lat="41.12156814465667" lon="14.766135145703325"><ele>163.0</ele><time>2026-04-25T11:24:30.999Z</time></trkpt><trkpt lat="41.12182658588781" lon="14.765988192740913"><ele>173.0</ele><time>2026-04-25T11:24:31.999Z</time></trkpt><trkpt lat="41.122082911848985" lon="14.765845090112883"><ele>173.0</ele><time>2026-04-25T11:24:33.017Z</time></trkpt><trkpt lat="41.12233002810195" lon="14.7656728236906"><ele>173.0</ele><time>2026-04-25T11:24:34.017Z</time></trkpt><trkpt lat="41.1224802216217" lon="14.765596596763675"><ele>173.0</ele><time>2026-04-25T11:24:34.999Z</time></trkpt><trkpt lat="41.122673194895135" lon="14.765465273488045"><ele>172.0</ele><time>2026-04-25T11:24:35.999Z</time></trkpt><trkpt lat="41.12285641803536" lon="14.76533240084185"><ele>171.0</ele><time>2026-04-25T11:24:36.999Z</time></trkpt><trkpt lat="41.12303088961167" lon="14.765182316824248"><ele>170.0</ele><time>2026-04-25T11:24:37.999Z</time></trkpt><trkpt lat="41.123202053721045" lon="14.765021719628203"><ele>168.0</ele><time>2026-04-25T11:24:38.999Z</time></trkpt><trkpt lat="41.12335943269756" lon="14.764833110952383"><ele>166.0</ele><time>2026-04-25T11:24:39.999Z</time></trkpt><trkpt lat="41.123511182723604" lon="14.76462500225521"><ele>164.0</ele><time>2026-04-25T11:24:40.999Z</time></trkpt><trkpt lat="41.12366310336854" lon="14.764403090952595"><ele>170.5</ele><time>2026-04-25T11:24:41.999Z</time></trkpt><trkpt lat="41.12381112144883" lon="14.764173935261717"><ele>177.0</ele><time>2026-04-25T11:24:42.999Z</time></trkpt><trkpt lat="41.123957820245025" lon="14.76392381120423"><ele>170.5</ele><time>2026-04-25T11:24:43.999Z</time></trkpt><trkpt lat="41.124097014929426" lon="14.76366554314737"><ele>164.0</ele><time>2026-04-25T11:24:44.999Z</time></trkpt><trkpt lat="41.124236242501254" lon="14.763395442149669"><ele>164.0</ele><time>2026-04-25T11:24:45.999Z</time></trkpt><trkpt lat="41.1243809743986" lon="14.763124498931425"><ele>164.0</ele><time>2026-04-25T11:24:46.999Z</time></trkpt><trkpt lat="41.124530504514276" lon="14.762866044434572"><ele>172.5</ele><time>2026-04-25T11:24:47.999Z</time></trkpt><trkpt lat="41.12467102908265" lon="14.762617786797925"><ele>181.0</ele><time>2026-04-25T11:24:48.999Z</time></trkpt><trkpt lat="41.1248074490455" lon="14.762373766746608"><ele>165.5</ele><time>2026-04-25T11:24:49.999Z</time></trkpt><trkpt lat="41.124947706250666" lon="14.762123702416254"><ele>150.0</ele><time>2026-04-25T11:24:50.999Z</time></trkpt><trkpt lat="41.125091472311134" lon="14.761882192818854"><ele>157.0</ele><time>2026-04-25T11:24:51.999Z</time></trkpt><trkpt lat="41.12524358895843" lon="14.761653451853292"><ele>164.0</ele><time>2026-04-25T11:24:52.999Z</time></trkpt><trkpt lat="41.12540233327869" lon="14.761434180137929"><ele>164.0</ele><time>2026-04-25T11:24:53.999Z</time></trkpt><trkpt lat="41.12556419979461" lon="14.761225102728613"><ele>164.0</ele><time>2026-04-25T11:24:54.999Z</time></trkpt><trkpt lat="41.125717613096015" lon="14.761017533093456"><ele>164.0</ele><time>2026-04-25T11:24:55.999Z</time></trkpt><trkpt lat="41.12587396895297" lon="14.760812066643227"><ele>157.5</ele><time>2026-04-25T11:24:56.999Z</time></trkpt><trkpt lat="41.126037389648076" lon="14.760599712396875"><ele>151.0</ele><time>2026-04-25T11:24:57.999Z</time></trkpt><trkpt lat="41.12620384247794" lon="14.760378720779366"><ele>160.0</ele><time>2026-04-25T11:24:58.999Z</time></trkpt><trkpt lat="41.1263703343766" lon="14.760151267628267"><ele>169.0</ele><time>2026-04-25T11:24:59.999Z</time></trkpt><trkpt lat="41.12655998346632" lon="14.759926706833738"><ele>155.0</ele><time>2026-04-25T11:25:00.999Z</time></trkpt><trkpt lat="41.126769593992684" lon="14.759655889437887"><ele>141.0</ele><time>2026-04-25T11:25:01.999Z</time></trkpt><trkpt lat="41.12698437063887" lon="14.759378389623095"><ele>136.5</ele><time>2026-04-25T11:25:02.999Z</time></trkpt><trkpt lat="41.127212697339544" lon="14.759088328024232"><ele>132.0</ele><time>2026-04-25T11:25:03.999Z</time></trkpt><trkpt lat="41.12746597606228" lon="14.758825219489689"><ele>132.0</ele><time>2026-04-25T11:25:04.999Z</time></trkpt><trkpt lat="41.127710739675535" lon="14.758581612025255"><ele>132.0</ele><time>2026-04-25T11:25:05.999Z</time></trkpt><trkpt lat="41.127949675936236" lon="14.758352443668182"><ele>134.0</ele><time>2026-04-25T11:25:06.999Z</time></trkpt><trkpt lat="41.12818159739629" lon="14.758131306785595"><ele>136.0</ele><time>2026-04-25T11:25:07.999Z</time></trkpt><trkpt lat="41.12841131642277" lon="14.757917110563293"><ele>131.5</ele><time>2026-04-25T11:25:08.999Z</time></trkpt><trkpt lat="41.12863541555838" lon="14.75769654292598"><ele>127.0</ele><time>2026-04-25T11:25:09.999Z</time></trkpt><trkpt lat="41.12886136589669" lon="14.757475708340198"><ele>120.5</ele><time>2026-04-25T11:25:10.999Z</time></trkpt><trkpt lat="41.129083233971244" lon="14.757257838102612"><ele>114.0</ele><time>2026-04-25T11:25:11.999Z</time></trkpt><trkpt lat="41.129308225818896" lon="14.757040121032999"><ele>115.0</ele><time>2026-04-25T11:25:12.999Z</time></trkpt><trkpt lat="41.12952939259995" lon="14.756825202806626"><ele>116.0</ele><time>2026-04-25T11:25:13.999Z</time></trkpt><trkpt lat="41.12975033115468" lon="14.756611257116349"><ele>111.5</ele><time>2026-04-25T11:25:14.999Z</time></trkpt><trkpt lat="41.12997494249209" lon="14.756398578522193"><ele>107.0</ele><time>2026-04-25T11:25:15.999Z</time></trkpt><trkpt lat="41.13019554999983" lon="14.756186145617017"><ele>109.0</ele><time>2026-04-25T11:25:16.999Z</time></trkpt><trkpt lat="41.130416019261105" lon="14.75597440194514"><ele>111.0</ele><time>2026-04-25T11:25:17.999Z</time></trkpt><trkpt lat="41.13063375127146" lon="14.755757719673998"><ele>111.0</ele><time>2026-04-25T11:25:18.999Z</time></trkpt><trkpt lat="41.130854005395676" lon="14.755545224204408"><ele>111.0</ele><time>2026-04-25T11:25:19.999Z</time></trkpt><trkpt lat="41.13107191498077" lon="14.75533249256391"><ele>111.5</ele><time>2026-04-25T11:25:20.999Z</time></trkpt><trkpt lat="41.131289509029436" lon="14.755118312444182"><ele>112.0</ele><time>2026-04-25T11:25:21.999Z</time></trkpt><trkpt lat="41.131509153797026" lon="14.754903285818418"><ele>112.0</ele><time>2026-04-25T11:25:22.999Z</time></trkpt><trkpt lat="41.13173097264664" lon="14.754686674653465"><ele>112.0</ele><time>2026-04-25T11:25:23.999Z</time></trkpt><trkpt lat="41.13195048779704" lon="14.754472345616549"><ele>112.0</ele><time>2026-04-25T11:25:24.999Z</time></trkpt><trkpt lat="41.13216687170756" lon="14.754259199630349"><ele>112.0</ele><time>2026-04-25T11:25:25.999Z</time></trkpt><trkpt lat="41.13238617187126" lon="14.7540462167734"><ele>112.0</ele><time>2026-04-25T11:25:26.999Z</time></trkpt><trkpt lat="41.13260555068058" lon="14.75383546436148"><ele>112.0</ele><time>2026-04-25T11:25:27.999Z</time></trkpt><trkpt lat="41.132827053008015" lon="14.753622027294549"><ele>111.5</ele><time>2026-04-25T11:25:28.999Z</time></trkpt><trkpt lat="41.13305062103198" lon="14.753405868872527"><ele>111.0</ele><time>2026-04-25T11:25:29.999Z</time></trkpt><trkpt lat="41.13327126049729" lon="14.753193552555134"><ele>111.0</ele><time>2026-04-25T11:25:30.999Z</time></trkpt><trkpt lat="41.13349382746685" lon="14.752984780339085"><ele>111.0</ele><time>2026-04-25T11:25:31.999Z</time></trkpt><trkpt lat="41.1337141826721" lon="14.752770570581479"><ele>111.0</ele><time>2026-04-25T11:25:32.999Z</time></trkpt><trkpt lat="41.133938124585804" lon="14.75255895133614"><ele>111.0</ele><time>2026-04-25T11:25:33.999Z</time></trkpt><trkpt lat="41.13416261003558" lon="14.752350608929843"><ele>111.0</ele><time>2026-04-25T11:25:34.999Z</time></trkpt><trkpt lat="41.134393017696134" lon="14.752146095970803"><ele>111.0</ele><time>2026-04-25T11:25:35.999Z</time></trkpt><trkpt lat="41.13462709487043" lon="14.75195059345467"><ele>112.0</ele><time>2026-04-25T11:25:36.999Z</time></trkpt><trkpt lat="41.13486835019389" lon="14.751764785451291"><ele>113.0</ele><time>2026-04-25T11:25:37.999Z</time></trkpt><trkpt lat="41.13511543730274" lon="14.751589079627916"><ele>113.0</ele><time>2026-04-25T11:25:38.999Z</time></trkpt><trkpt lat="41.13536953848011" lon="14.751424551452184"><ele>113.0</ele><time>2026-04-25T11:25:39.999Z</time></trkpt><trkpt lat="41.135627125323154" lon="14.751272455392503"><ele>113.0</ele><time>2026-04-25T11:25:40.999Z</time></trkpt><trkpt lat="41.13588913764792" lon="14.751134829568132"><ele>113.0</ele><time>2026-04-25T11:25:41.999Z</time></trkpt><trkpt lat="41.13615755674515" lon="14.751015912220353"><ele>113.0</ele><time>2026-04-25T11:25:42.999Z</time></trkpt><trkpt lat="41.136428249119064" lon="14.750921759111785"><ele>113.0</ele><time>2026-04-25T11:25:43.999Z</time></trkpt><trkpt lat="41.13670576241948" lon="14.750841877603927"><ele>113.0</ele><time>2026-04-25T11:25:44.999Z</time></trkpt><trkpt lat="41.13698328303301" lon="14.750779403002037"><ele>113.0</ele><time>2026-04-25T11:25:45.999Z</time></trkpt><trkpt lat="41.13726409500849" lon="14.750734814924991"><ele>112.5</ele><time>2026-04-25T11:25:46.999Z</time></trkpt><trkpt lat="41.13754566733562" lon="14.75070069208473"><ele>112.0</ele><time>2026-04-25T11:25:47.999Z</time></trkpt><trkpt lat="41.137825146937665" lon="14.750685782475333"><ele>112.0</ele><time>2026-04-25T11:25:48.999Z</time></trkpt><trkpt lat="41.13810523522725" lon="14.750686592306927"><ele>112.0</ele><time>2026-04-25T11:25:49.999Z</time></trkpt><trkpt lat="41.13838759184554" lon="14.750713913730872"><ele>112.5</ele><time>2026-04-25T11:25:50.999Z</time></trkpt><trkpt lat="41.13866536687994" lon="14.75076018489366"><ele>113.0</ele><time>2026-04-25T11:25:51.999Z</time></trkpt><trkpt lat="41.13893857048018" lon="14.750820810750852"><ele>115.0</ele><time>2026-04-25T11:25:52.999Z</time></trkpt><trkpt lat="41.13920715491765" lon="14.750900298462916"><ele>117.0</ele><time>2026-04-25T11:25:53.999Z</time></trkpt><trkpt lat="41.13947559755773" lon="14.750984373442407"><ele>117.0</ele><time>2026-04-25T11:25:54.999Z</time></trkpt><trkpt lat="41.13974116372121" lon="14.751087531344632"><ele>117.0</ele><time>2026-04-25T11:25:55.999Z</time></trkpt><trkpt lat="41.13999854356121" lon="14.75120570296725"><ele>119.0</ele><time>2026-04-25T11:25:56.999Z</time></trkpt><trkpt lat="41.14025359324727" lon="14.751343762262925"><ele>121.0</ele><time>2026-04-25T11:25:57.999Z</time></trkpt><trkpt lat="41.14050499971985" lon="14.7514989986231"><ele>123.0</ele><time>2026-04-25T11:25:58.999Z</time></trkpt><trkpt lat="41.140750362993195" lon="14.751667477306706"><ele>125.0</ele><time>2026-04-25T11:25:59.999Z</time></trkpt><trkpt lat="41.140986006842915" lon="14.751848525493292"><ele>124.5</ele><time>2026-04-25T11:26:00.999Z</time></trkpt><trkpt lat="41.14121598208841" lon="14.752042454504487"><ele>124.0</ele><time>2026-04-25T11:26:01.999Z</time></trkpt><trkpt lat="41.14143610028765" lon="14.752250403952281"><ele>126.0</ele><time>2026-04-25T11:26:02.999Z</time></trkpt><trkpt lat="41.14165128540733" lon="14.752472177590532"><ele>128.0</ele><time>2026-04-25T11:26:03.999Z</time></trkpt><trkpt lat="41.14185617576963" lon="14.752700895452218"><ele>128.0</ele><time>2026-04-25T11:26:04.999Z</time></trkpt><trkpt lat="41.14205662787944" lon="14.752938596797248"><ele>128.0</ele><time>2026-04-25T11:26:05.999Z</time></trkpt><trkpt lat="41.14224917843753" lon="14.753179711271313"><ele>128.0</ele><time>2026-04-25T11:26:06.999Z</time></trkpt><trkpt lat="41.14243540928717" lon="14.753429032854132"><ele>128.0</ele><time>2026-04-25T11:26:07.999Z</time></trkpt><trkpt lat="41.142617302856266" lon="14.75368638680511"><ele>128.0</ele><time>2026-04-25T11:26:08.999Z</time></trkpt><trkpt lat="41.14280122471638" lon="14.753947637042803"><ele>128.0</ele><time>2026-04-25T11:26:09.999Z</time></trkpt><trkpt lat="41.142981135002046" lon="14.754207995025364"><ele>129.0</ele><time>2026-04-25T11:26:10.999Z</time></trkpt><trkpt lat="41.1431652839887" lon="14.754468982139358"><ele>130.0</ele><time>2026-04-25T11:26:11.999Z</time></trkpt><trkpt lat="41.14335195445994" lon="14.75472788640552"><ele>131.5</ele><time>2026-04-25T11:26:12.999Z</time></trkpt><trkpt lat="41.143538289115746" lon="14.754990044054951"><ele>133.0</ele><time>2026-04-25T11:26:13.999Z</time></trkpt><trkpt lat="41.14372813394214" lon="14.755254622417096"><ele>134.0</ele><time>2026-04-25T11:26:14.999Z</time></trkpt><trkpt lat="41.143919181778955" lon="14.75552924242594"><ele>135.0</ele><time>2026-04-25T11:26:15.999Z</time></trkpt><trkpt lat="41.14411123999816" lon="14.755802991209913"><ele>137.0</ele><time>2026-04-25T11:26:16.999Z</time></trkpt><trkpt lat="41.14430253926994" lon="14.756079700590728"><ele>139.0</ele><time>2026-04-25T11:26:17.999Z</time></trkpt><trkpt lat="41.144498041320546" lon="14.7563530458273"><ele>139.0</ele><time>2026-04-25T11:26:18.999Z</time></trkpt><trkpt lat="41.14469190348709" lon="14.756621667636574"><ele>139.0</ele><time>2026-04-25T11:26:19.999Z</time></trkpt><trkpt lat="41.14488977364983" lon="14.756896737722288"><ele>136.5</ele><time>2026-04-25T11:26:20.999Z</time></trkpt><trkpt lat="41.14508259138809" lon="14.757168051887355"><ele>134.0</ele><time>2026-04-25T11:26:21.999Z</time></trkpt><trkpt lat="41.145274125521034" lon="14.757444202189047"><ele>131.0</ele><time>2026-04-25T11:26:22.999Z</time></trkpt><trkpt lat="41.14547257312942" lon="14.757721310221841"><ele>128.0</ele><time>2026-04-25T11:26:23.999Z</time></trkpt><trkpt lat="41.145661835881974" lon="14.758001638363629"><ele>127.0</ele><time>2026-04-25T11:26:24.999Z</time></trkpt><trkpt lat="41.145852294410176" lon="14.758277955434314"><ele>126.0</ele><time>2026-04-25T11:26:25.999Z</time></trkpt><trkpt lat="41.146045126453956" lon="14.758551409239299"><ele>123.5</ele><time>2026-04-25T11:26:26.999Z</time></trkpt><trkpt lat="41.14624001503505" lon="14.758821307703998"><ele>121.0</ele><time>2026-04-25T11:26:27.999Z</time></trkpt><trkpt lat="41.146435062950125" lon="14.759090136768641"><ele>122.0</ele><time>2026-04-25T11:26:28.999Z</time></trkpt><trkpt lat="41.14662353639593" lon="14.759353838029204"><ele>123.0</ele><time>2026-04-25T11:26:29.999Z</time></trkpt><trkpt lat="41.14681546307066" lon="14.75962318759417"><ele>123.0</ele><time>2026-04-25T11:26:30.999Z</time></trkpt><trkpt lat="41.14700627384777" lon="14.759890329222252"><ele>123.0</ele><time>2026-04-25T11:26:31.999Z</time></trkpt><trkpt lat="41.14720023725671" lon="14.760157758567303"><ele>124.5</ele><time>2026-04-25T11:26:32.999Z</time></trkpt><trkpt lat="41.147391418135854" lon="14.760421885957385"><ele>126.0</ele><time>2026-04-25T11:26:33.999Z</time></trkpt><trkpt lat="41.14757484414458" lon="14.760685769417782"><ele>126.0</ele><time>2026-04-25T11:26:34.999Z</time></trkpt><trkpt lat="41.14775882993001" lon="14.76094693360524"><ele>126.0</ele><time>2026-04-25T11:26:35.999Z</time></trkpt><trkpt lat="41.147945178865626" lon="14.761207867808167"><ele>127.0</ele><time>2026-04-25T11:26:36.999Z</time></trkpt><trkpt lat="41.148129440131974" lon="14.761471952066437"><ele>128.0</ele><time>2026-04-25T11:26:37.999Z</time></trkpt><trkpt lat="41.14830694927889" lon="14.761729965717196"><ele>127.0</ele><time>2026-04-25T11:26:38.999Z</time></trkpt><trkpt lat="41.14848324575821" lon="14.7619880776322"><ele>126.0</ele><time>2026-04-25T11:26:39.999Z</time></trkpt><trkpt lat="41.14864649691959" lon="14.762235892634287"><ele>126.0</ele><time>2026-04-25T11:26:40.999Z</time></trkpt><trkpt lat="41.1488042419467" lon="14.762464996862821"><ele>126.0</ele><time>2026-04-25T11:26:41.999Z</time></trkpt><trkpt lat="41.14895099359073" lon="14.762681529846382"><ele>126.33333333333334</ele><time>2026-04-25T11:26:42.999Z</time></trkpt><trkpt lat="41.14908629803813" lon="14.762888926149454"><ele>126.66666666666667</ele><time>2026-04-25T11:26:43.999Z</time></trkpt><trkpt lat="41.149216388107604" lon="14.763091391751548"><ele>127.0</ele><time>2026-04-25T11:26:44.999Z</time></trkpt><trkpt lat="41.149341092292424" lon="14.763295091621728"><ele>127.0</ele><time>2026-04-25T11:26:45.999Z</time></trkpt><trkpt lat="41.14944572142883" lon="14.763508113566445"><ele>127.0</ele><time>2026-04-25T11:26:46.999Z</time></trkpt><trkpt lat="41.149530258336284" lon="14.763741924538316"><ele>127.0</ele><time>2026-04-25T11:26:47.999Z</time></trkpt><trkpt lat="41.14958651736861" lon="14.764007808652192"><ele>127.0</ele><time>2026-04-25T11:26:48.999Z</time></trkpt><trkpt lat="41.14960885048133" lon="14.76428097199649"><ele>127.0</ele><time>2026-04-25T11:26:49.999Z</time></trkpt><trkpt lat="41.14958941279328" lon="14.764570240015507"><ele>127.0</ele><time>2026-04-25T11:26:50.999Z</time></trkpt><trkpt lat="41.14953241549335" lon="14.764852967632164"><ele>127.0</ele><time>2026-04-25T11:26:51.999Z</time></trkpt><trkpt lat="41.14946318613023" lon="14.765117085781448"><ele>127.0</ele><time>2026-04-25T11:26:52.999Z</time></trkpt><trkpt lat="41.14943068720158" lon="14.765369282998536"><ele>127.0</ele><time>2026-04-25T11:26:53.999Z</time></trkpt><trkpt lat="41.14926534667324" lon="14.76557702308605"><ele>128.0</ele><time>2026-04-25T11:26:54.999Z</time></trkpt><trkpt lat="41.149115515385894" lon="14.765761618434391"><ele>129.0</ele><time>2026-04-25T11:26:55.999Z</time></trkpt><trkpt lat="41.14894155159587" lon="14.765894486530797"><ele>130.0</ele><time>2026-04-25T11:26:56.999Z</time></trkpt><trkpt lat="41.148767163655855" lon="14.765968335964308"><ele>130.33333333333334</ele><time>2026-04-25T11:26:57.999Z</time></trkpt><trkpt lat="41.148611634548914" lon="14.765978749233007"><ele>130.66666666666666</ele><time>2026-04-25T11:26:58.999Z</time></trkpt><trkpt lat="41.14845566744462" lon="14.766000114686719"><ele>131.0</ele><time>2026-04-25T11:26:59.999Z</time></trkpt><trkpt lat="41.14831409350379" lon="14.76601621912734"><ele>131.75</ele><time>2026-04-25T11:27:00.999Z</time></trkpt><trkpt lat="41.14816924262359" lon="14.76605052330536"><ele>132.5</ele><time>2026-04-25T11:27:01.999Z</time></trkpt><trkpt lat="41.14802295695778" lon="14.766091204532632"><ele>133.25</ele><time>2026-04-25T11:27:02.999Z</time></trkpt><trkpt lat="41.14789939842853" lon="14.766158027438609"><ele>134.0</ele><time>2026-04-25T11:27:03.999Z</time></trkpt><trkpt lat="41.147744536051626" lon="14.7661519187904"><ele>134.0</ele><time>2026-04-25T11:27:04.999Z</time></trkpt><trkpt lat="41.14760641252444" lon="14.766172823853546"><ele>134.0</ele><time>2026-04-25T11:27:05.999Z</time></trkpt><trkpt lat="41.14747995209398" lon="14.766184629843472"><ele>134.0</ele><time>2026-04-25T11:27:06.999Z</time></trkpt><trkpt lat="41.14734886980622" lon="14.766193328961588"><ele>134.0</ele><time>2026-04-25T11:27:07.999Z</time></trkpt><trkpt lat="41.14721931019699" lon="14.76619747660375"><ele>132.75</ele><time>2026-04-25T11:27:08.999Z</time></trkpt><trkpt lat="41.14709816104952" lon="14.766201283648273"><ele>131.5</ele><time>2026-04-25T11:27:09.999Z</time></trkpt><trkpt lat="41.1469889368201" lon="14.766195189748393"><ele>130.25</ele><time>2026-04-25T11:27:10.999Z</time></trkpt><trkpt lat="41.14687358729267" lon="14.766166307718601"><ele>129.0</ele><time>2026-04-25T11:27:11.999Z</time></trkpt><trkpt lat="41.146756391739586" lon="14.766107844220452"><ele>128.5</ele><time>2026-04-25T11:27:12.999Z</time></trkpt><trkpt lat="41.1466540042077" lon="14.76602640691504"><ele>128.0</ele><time>2026-04-25T11:27:13.999Z</time></trkpt><trkpt lat="41.146564835203684" lon="14.765925741756154"><ele>127.5</ele><time>2026-04-25T11:27:14.999Z</time></trkpt><trkpt lat="41.14647923490459" lon="14.765813809365065"><ele>127.0</ele><time>2026-04-25T11:27:15.999Z</time></trkpt><trkpt lat="41.14638934144381" lon="14.765701531838443"><ele>126.5</ele><time>2026-04-25T11:27:16.999Z</time></trkpt><trkpt lat="41.146291896396626" lon="14.765595660687918"><ele>126.0</ele><time>2026-04-25T11:27:17.999Z</time></trkpt><trkpt lat="41.14619039558847" lon="14.765497249016438"><ele>125.5</ele><time>2026-04-25T11:27:18.999Z</time></trkpt><trkpt lat="41.146082490417456" lon="14.765412904808144"><ele>125.0</ele><time>2026-04-25T11:27:19.999Z</time></trkpt><trkpt lat="41.14597253953859" lon="14.765353242605128"><ele>125.0</ele><time>2026-04-25T11:27:20.999Z</time></trkpt><trkpt lat="41.14586649530605" lon="14.765320230476767"><ele>125.0</ele><time>2026-04-25T11:27:21.999Z</time></trkpt><trkpt lat="41.14575838254711" lon="14.765331096541834"><ele>125.0</ele><time>2026-04-25T11:27:22.999Z</time></trkpt><trkpt lat="41.14564823101017" lon="14.765390144201268"><ele>125.0</ele><time>2026-04-25T11:27:23.999Z</time></trkpt><trkpt lat="41.14555631097821" lon="14.76549094370872"><ele>125.0</ele><time>2026-04-25T11:27:24.999Z</time></trkpt><trkpt lat="41.1454880037779" lon="14.76562315925728"><ele>125.0</ele><time>2026-04-25T11:27:25.999Z</time></trkpt><trkpt lat="41.145458995608074" lon="14.765786208996866"><ele>125.0</ele><time>2026-04-25T11:27:26.999Z</time></trkpt><trkpt lat="41.14545164937536" lon="14.765948063320746"><ele>125.0</ele><time>2026-04-25T11:27:27.999Z</time></trkpt><trkpt lat="41.145461968033935" lon="14.766112183463557"><ele>125.0</ele><time>2026-04-25T11:27:28.999Z</time></trkpt><trkpt lat="41.14547532816581" lon="14.76628640701611"><ele>125.0</ele><time>2026-04-25T11:27:29.999Z</time></trkpt><trkpt lat="41.14550311992788" lon="14.766467464490331"><ele>125.0</ele><time>2026-04-25T11:27:30.999Z</time></trkpt><trkpt lat="41.145544433925565" lon="14.766648720730316"><ele>125.0</ele><time>2026-04-25T11:27:31.999Z</time></trkpt><trkpt lat="41.14559016441028" lon="14.766828679134063"><ele>126.33333333333333</ele><time>2026-04-25T11:27:32.999Z</time></trkpt><trkpt lat="41.14571769007797" lon="14.767169791637759"><ele>127.66666666666666</ele><time>2026-04-25T11:27:34.999Z</time></trkpt><trkpt lat="41.145789916268" lon="14.767327609582372"><ele>129.0</ele><time>2026-04-25T11:27:35.999Z</time></trkpt><trkpt lat="41.14587493829701" lon="14.767463738292738"><ele>129.0</ele><time>2026-04-25T11:27:36.999Z</time></trkpt><trkpt lat="41.145977366616584" lon="14.7675806070543"><ele>129.0</ele><time>2026-04-25T11:27:37.999Z</time></trkpt><trkpt lat="41.14609997428417" lon="14.767665118858828"><ele>129.0</ele><time>2026-04-25T11:27:38.999Z</time></trkpt><trkpt lat="41.14622513100948" lon="14.767716042802714"><ele>129.0</ele><time>2026-04-25T11:27:39.999Z</time></trkpt><trkpt lat="41.14634773117778" lon="14.767758531015938"><ele>129.25</ele><time>2026-04-25T11:27:40.999Z</time></trkpt><trkpt lat="41.14645323516941" lon="14.767833312274162"><ele>129.5</ele><time>2026-04-25T11:27:41.999Z</time></trkpt><trkpt lat="41.14654986024289" lon="14.767974209129557"><ele>129.75</ele><time>2026-04-25T11:27:42.999Z</time></trkpt><trkpt lat="41.14661545618587" lon="14.768183202758266"><ele>130.0</ele><time>2026-04-25T11:27:43.999Z</time></trkpt><trkpt lat="41.14668629171413" lon="14.768439778902096"><ele>132.0</ele><time>2026-04-25T11:27:44.999Z</time></trkpt><trkpt lat="41.14676759395818" lon="14.768717067610922"><ele>134.0</ele><time>2026-04-25T11:27:45.999Z</time></trkpt><trkpt lat="41.14685453740183" lon="14.768994334396561"><ele>134.0</ele><time>2026-04-25T11:27:46.999Z</time></trkpt><trkpt lat="41.146946173120355" lon="14.769285402511542"><ele>134.0</ele><time>2026-04-25T11:27:47.999Z</time></trkpt><trkpt lat="41.147038066896414" lon="14.76957585342728"><ele>135.5</ele><time>2026-04-25T11:27:48.999Z</time></trkpt><trkpt lat="41.14713700367873" lon="14.769885765765007"><ele>137.0</ele><time>2026-04-25T11:27:49.999Z</time></trkpt><trkpt lat="41.1472349946709" lon="14.770176664469028"><ele>137.5</ele><time>2026-04-25T11:27:50.999Z</time></trkpt><trkpt lat="41.147338253232306" lon="14.770487758049143"><ele>138.0</ele><time>2026-04-25T11:27:51.999Z</time></trkpt><trkpt lat="41.147433030102675" lon="14.770813372482412"><ele>140.5</ele><time>2026-04-25T11:27:52.999Z</time></trkpt><trkpt lat="41.147525726837614" lon="14.77113975492868"><ele>143.0</ele><time>2026-04-25T11:27:53.999Z</time></trkpt><trkpt lat="41.14761834405877" lon="14.771463754025598"><ele>143.0</ele><time>2026-04-25T11:27:54.999Z</time></trkpt><trkpt lat="41.14771701661293" lon="14.77178045370365"><ele>143.0</ele><time>2026-04-25T11:27:55.999Z</time></trkpt><trkpt lat="41.14781624192733" lon="14.77209507322442"><ele>142.5</ele><time>2026-04-25T11:27:56.999Z</time></trkpt><trkpt lat="41.14791113337354" lon="14.772390032940901"><ele>142.0</ele><time>2026-04-25T11:27:57.999Z</time></trkpt><trkpt lat="41.14800241098017" lon="14.772675245739952"><ele>142.0</ele><time>2026-04-25T11:27:58.999Z</time></trkpt><trkpt lat="41.14809396770278" lon="14.772953275612378"><ele>142.0</ele><time>2026-04-25T11:27:59.999Z</time></trkpt><trkpt lat="41.14819219096047" lon="14.773238003237656"><ele>146.5</ele><time>2026-04-25T11:28:00.999Z</time></trkpt><trkpt lat="41.14829381550965" lon="14.77353716054868"><ele>151.0</ele><time>2026-04-25T11:28:01.999Z</time></trkpt><trkpt lat="41.14839846088896" lon="14.773844566744874"><ele>151.0</ele><time>2026-04-25T11:28:02.999Z</time></trkpt><trkpt lat="41.14849115974742" lon="14.774174895663966"><ele>151.0</ele><time>2026-04-25T11:28:03.999Z</time></trkpt><trkpt lat="41.14858949511996" lon="14.774499304272744"><ele>151.0</ele><time>2026-04-25T11:28:04.999Z</time></trkpt><trkpt lat="41.14869396235748" lon="14.774820565750188"><ele>151.0</ele><time>2026-04-25T11:28:05.999Z</time></trkpt><trkpt lat="41.14879773633247" lon="14.775134020832956"><ele>150.5</ele><time>2026-04-25T11:28:06.999Z</time></trkpt><trkpt lat="41.14889469460127" lon="14.775425040661322"><ele>150.0</ele><time>2026-04-25T11:28:07.999Z</time></trkpt><trkpt lat="41.148985617113595" lon="14.775709815413235"><ele>154.0</ele><time>2026-04-25T11:28:08.999Z</time></trkpt><trkpt lat="41.149075232024714" lon="14.775999932889162"><ele>158.0</ele><time>2026-04-25T11:28:09.999Z</time></trkpt><trkpt lat="41.14916217253118" lon="14.776275832731622"><ele>158.0</ele><time>2026-04-25T11:28:10.999Z</time></trkpt><trkpt lat="41.14924530837827" lon="14.776529928246521"><ele>158.0</ele><time>2026-04-25T11:28:11.999Z</time></trkpt><trkpt lat="41.149315024027146" lon="14.776767940073757"><ele>158.0</ele><time>2026-04-25T11:28:12.999Z</time></trkpt><trkpt lat="41.14938946487454" lon="14.77698022904474"><ele>157.66666666666666</ele><time>2026-04-25T11:28:13.999Z</time></trkpt><trkpt lat="41.14947502890511" lon="14.777193493504388"><ele>157.33333333333334</ele><time>2026-04-25T11:28:14.999Z</time></trkpt><trkpt lat="41.149597016459865" lon="14.777398281794277"><ele>157.0</ele><time>2026-04-25T11:28:15.999Z</time></trkpt><trkpt lat="41.14973182186882" lon="14.77757708881976"><ele>159.0</ele><time>2026-04-25T11:28:16.999Z</time></trkpt><trkpt lat="41.14988745269776" lon="14.777736992822435"><ele>161.0</ele><time>2026-04-25T11:28:17.999Z</time></trkpt><trkpt lat="41.15005095930531" lon="14.777866023953498"><ele>163.0</ele><time>2026-04-25T11:28:18.999Z</time></trkpt><trkpt lat="41.150212244191046" lon="14.77797524038753"><ele>163.0</ele><time>2026-04-25T11:28:19.999Z</time></trkpt><trkpt lat="41.150372966938605" lon="14.778101765896505"><ele>163.0</ele><time>2026-04-25T11:28:20.999Z</time></trkpt><trkpt lat="41.15057499583773" lon="14.778247184784192"><ele>163.0</ele><time>2026-04-25T11:28:21.999Z</time></trkpt><trkpt lat="41.1508061442459" lon="14.778409210168117"><ele>166.0</ele><time>2026-04-25T11:28:22.999Z</time></trkpt><trkpt lat="41.151058528602114" lon="14.778568631112668"><ele>169.0</ele><time>2026-04-25T11:28:23.999Z</time></trkpt><trkpt lat="41.15130191034798" lon="14.778735908041584"><ele>171.5</ele><time>2026-04-25T11:28:24.999Z</time></trkpt><trkpt lat="41.151560367590044" lon="14.778883963158407"><ele>174.0</ele><time>2026-04-25T11:28:25.999Z</time></trkpt><trkpt lat="41.151794582323774" lon="14.779022984306668"><ele>174.0</ele><time>2026-04-25T11:28:26.999Z</time></trkpt><trkpt lat="41.15207616880511" lon="14.779152738557894"><ele>174.0</ele><time>2026-04-25T11:28:27.999Z</time></trkpt><trkpt lat="41.1523687334594" lon="14.779265737647982"><ele>176.0</ele><time>2026-04-25T11:28:28.999Z</time></trkpt><trkpt lat="41.152689590556975" lon="14.7793635638575"><ele>178.0</ele><time>2026-04-25T11:28:29.999Z</time></trkpt><trkpt lat="41.15300310602579" lon="14.779440430662074"><ele>179.5</ele><time>2026-04-25T11:28:30.999Z</time></trkpt><trkpt lat="41.15332935603338" lon="14.77950306011514"><ele>181.0</ele><time>2026-04-25T11:28:31.999Z</time></trkpt><trkpt lat="41.153643290704665" lon="14.779542162567843"><ele>181.0</ele><time>2026-04-25T11:28:32.999Z</time></trkpt><trkpt lat="41.153931743172606" lon="14.779552804411884"><ele>181.0</ele><time>2026-04-25T11:28:33.999Z</time></trkpt><trkpt lat="41.15421915268501" lon="14.779551216828246"><ele>181.5</ele><time>2026-04-25T11:28:34.999Z</time></trkpt><trkpt lat="41.15449922613861" lon="14.779531031941566"><ele>182.0</ele><time>2026-04-25T11:28:35.999Z</time></trkpt><trkpt lat="41.15478000175606" lon="14.779495053664336"><ele>182.5</ele><time>2026-04-25T11:28:36.999Z</time></trkpt><trkpt lat="41.15504417988331" lon="14.779446816648537"><ele>183.0</ele><time>2026-04-25T11:28:37.999Z</time></trkpt><trkpt lat="41.155307107265294" lon="14.77939915926205"><ele>183.0</ele><time>2026-04-25T11:28:38.999Z</time></trkpt><trkpt lat="41.155565160027855" lon="14.77935316262966"><ele>183.0</ele><time>2026-04-25T11:28:39.999Z</time></trkpt><trkpt lat="41.15582147229116" lon="14.779304464780866"><ele>184.5</ele><time>2026-04-25T11:28:40.999Z</time></trkpt><trkpt lat="41.15607378739744" lon="14.779259421299695"><ele>186.0</ele><time>2026-04-25T11:28:41.999Z</time></trkpt><trkpt lat="41.15632688613159" lon="14.779211333068702"><ele>187.5</ele><time>2026-04-25T11:28:42.999Z</time></trkpt><trkpt lat="41.15657786525146" lon="14.779161468794578"><ele>189.0</ele><time>2026-04-25T11:28:43.999Z</time></trkpt><trkpt lat="41.15683500485837" lon="14.779118704392387"><ele>189.0</ele><time>2026-04-25T11:28:44.999Z</time></trkpt><trkpt lat="41.15710882914044" lon="14.779055821620297"><ele>189.0</ele><time>2026-04-25T11:28:45.999Z</time></trkpt><trkpt lat="41.15735659017019" lon="14.77900954552766"><ele>191.5</ele><time>2026-04-25T11:28:46.999Z</time></trkpt><trkpt lat="41.157613026324434" lon="14.77896138671768"><ele>194.0</ele><time>2026-04-25T11:28:48Z</time></trkpt><trkpt lat="41.157870045606764" lon="14.778904328020818"><ele>194.0</ele><time>2026-04-25T11:28:49Z</time></trkpt><trkpt lat="41.158161181492545" lon="14.778841240463661"><ele>194.0</ele><time>2026-04-25T11:28:50Z</time></trkpt><trkpt lat="41.15841071916716" lon="14.778829052422688"><ele>195.0</ele><time>2026-04-25T11:28:51Z</time></trkpt><trkpt lat="41.158673514896854" lon="14.778789517448345"><ele>196.0</ele><time>2026-04-25T11:28:52Z</time></trkpt><trkpt lat="41.15893796610747" lon="14.778744298405071"><ele>197.5</ele><time>2026-04-25T11:28:53Z</time></trkpt><trkpt lat="41.15920138672845" lon="14.778702360314067"><ele>199.0</ele><time>2026-04-25T11:28:54Z</time></trkpt><trkpt lat="41.15946338673404" lon="14.778651481957704"><ele>199.0</ele><time>2026-04-25T11:28:55Z</time></trkpt><trkpt lat="41.15973543620123" lon="14.778641722323982"><ele>199.0</ele><time>2026-04-25T11:28:56Z</time></trkpt><trkpt lat="41.16002858801201" lon="14.778655615043597"><ele>201.0</ele><time>2026-04-25T11:28:57Z</time></trkpt><trkpt lat="41.16029193558379" lon="14.778644558048866"><ele>203.0</ele><time>2026-04-25T11:28:58Z</time></trkpt><trkpt lat="41.160543496769634" lon="14.778550308621126"><ele>204.0</ele><time>2026-04-25T11:28:59Z</time></trkpt><trkpt lat="41.16080451368736" lon="14.778507590690356"><ele>205.0</ele><time>2026-04-25T11:29:00Z</time></trkpt><trkpt lat="41.161067912909154" lon="14.778464829391735"><ele>205.0</ele><time>2026-04-25T11:29:01Z</time></trkpt><trkpt lat="41.16133144206785" lon="14.778422156914603"><ele>205.0</ele><time>2026-04-25T11:29:02Z</time></trkpt><trkpt lat="41.16159856640494" lon="14.778378672673389"><ele>205.5</ele><time>2026-04-25T11:29:03Z</time></trkpt><trkpt lat="41.161863317948466" lon="14.778336638990638"><ele>206.0</ele><time>2026-04-25T11:29:04Z</time></trkpt><trkpt lat="41.16213403614475" lon="14.778302220491979"><ele>206.0</ele><time>2026-04-25T11:29:05Z</time></trkpt><trkpt lat="41.16239997479069" lon="14.778267399894911"><ele>206.0</ele><time>2026-04-25T11:29:06Z</time></trkpt><trkpt lat="41.162667219923065" lon="14.778227863114273"><ele>206.0</ele><time>2026-04-25T11:29:07Z</time></trkpt><trkpt lat="41.16293452644473" lon="14.77817570056343"><ele>206.0</ele><time>2026-04-25T11:29:08Z</time></trkpt><trkpt lat="41.163202471761466" lon="14.77813855229503"><ele>205.5</ele><time>2026-04-25T11:29:09Z</time></trkpt><trkpt lat="41.16347376582441" lon="14.778096589657888"><ele>205.0</ele><time>2026-04-25T11:29:10Z</time></trkpt><trkpt lat="41.163742032810084" lon="14.77805241366112"><ele>205.0</ele><time>2026-04-25T11:29:11Z</time></trkpt><trkpt lat="41.16401739629907" lon="14.778007840339171"><ele>205.0</ele><time>2026-04-25T11:29:12Z</time></trkpt><trkpt lat="41.16429226596374" lon="14.777969557922786"><ele>205.0</ele><time>2026-04-25T11:29:13Z</time></trkpt><trkpt lat="41.16456747435278" lon="14.77793593782932"><ele>205.0</ele><time>2026-04-25T11:29:14Z</time></trkpt><trkpt lat="41.16483735883047" lon="14.777885418647436"><ele>205.0</ele><time>2026-04-25T11:29:15Z</time></trkpt><trkpt lat="41.16511354939401" lon="14.777835669637149"><ele>205.0</ele><time>2026-04-25T11:29:16Z</time></trkpt><trkpt lat="41.16538425234632" lon="14.777794652898857"><ele>205.0</ele><time>2026-04-25T11:29:17Z</time></trkpt><trkpt lat="41.16565244868363" lon="14.777755940920486"><ele>205.0</ele><time>2026-04-25T11:29:18Z</time></trkpt><trkpt lat="41.165919538643635" lon="14.777723359977031"><ele>205.0</ele><time>2026-04-25T11:29:19Z</time></trkpt><trkpt lat="41.16618849331296" lon="14.77768013188301"><ele>205.0</ele><time>2026-04-25T11:29:20Z</time></trkpt><trkpt lat="41.16645746386815" lon="14.777640607460137"><ele>206.5</ele><time>2026-04-25T11:29:21Z</time></trkpt><trkpt lat="41.16672635803667" lon="14.777611066458292"><ele>208.0</ele><time>2026-04-25T11:29:22Z</time></trkpt><trkpt lat="41.166994800065766" lon="14.777592373827478"><ele>208.0</ele><time>2026-04-25T11:29:23Z</time></trkpt><trkpt lat="41.167263032245366" lon="14.777591460581407"><ele>208.0</ele><time>2026-04-25T11:29:24Z</time></trkpt><trkpt lat="41.167528147649044" lon="14.777606583124037"><ele>208.5</ele><time>2026-04-25T11:29:25Z</time></trkpt><trkpt lat="41.167797805913864" lon="14.777631868418888"><ele>209.0</ele><time>2026-04-25T11:29:26Z</time></trkpt><trkpt lat="41.16806547858353" lon="14.777663753979214"><ele>209.5</ele><time>2026-04-25T11:29:27Z</time></trkpt><trkpt lat="41.16833157508132" lon="14.777707486337599"><ele>210.0</ele><time>2026-04-25T11:29:28Z</time></trkpt><trkpt lat="41.16859803737866" lon="14.777748674753745"><ele>210.0</ele><time>2026-04-25T11:29:29Z</time></trkpt><trkpt lat="41.168865327124664" lon="14.777796927612481"><ele>210.0</ele><time>2026-04-25T11:29:30Z</time></trkpt><trkpt lat="41.169128610670526" lon="14.777879221673361"><ele>210.0</ele><time>2026-04-25T11:29:31Z</time></trkpt><trkpt lat="41.16938430319934" lon="14.777975884238657"><ele>210.0</ele><time>2026-04-25T11:29:32Z</time></trkpt><trkpt lat="41.16963839384594" lon="14.778084923119817"><ele>211.0</ele><time>2026-04-25T11:29:33Z</time></trkpt><trkpt lat="41.16989371925671" lon="14.77818814557526"><ele>212.0</ele><time>2026-04-25T11:29:34Z</time></trkpt><trkpt lat="41.17015333778077" lon="14.77828836252037"><ele>212.0</ele><time>2026-04-25T11:29:35Z</time></trkpt><trkpt lat="41.170407326659735" lon="14.778407019941344"><ele>212.0</ele><time>2026-04-25T11:29:36Z</time></trkpt><trkpt lat="41.170666060747806" lon="14.778550908037507"><ele>213.5</ele><time>2026-04-25T11:29:37Z</time></trkpt><trkpt lat="41.17093936623259" lon="14.77872159807842"><ele>215.0</ele><time>2026-04-25T11:29:38Z</time></trkpt><trkpt lat="41.17121353697855" lon="14.778917820185473"><ele>215.0</ele><time>2026-04-25T11:29:39Z</time></trkpt><trkpt lat="41.17147805629443" lon="14.779125998975204"><ele>215.0</ele><time>2026-04-25T11:29:40Z</time></trkpt><trkpt lat="41.17173681893636" lon="14.779350593962633"><ele>215.0</ele><time>2026-04-25T11:29:41Z</time></trkpt><trkpt lat="41.17197813390824" lon="14.779560465118582"><ele>215.0</ele><time>2026-04-25T11:29:42Z</time></trkpt><trkpt lat="41.17222036880726" lon="14.77976300504669"><ele>217.0</ele><time>2026-04-25T11:29:43Z</time></trkpt><trkpt lat="41.17243485713626" lon="14.780001486298362"><ele>219.0</ele><time>2026-04-25T11:29:44Z</time></trkpt><trkpt lat="41.172654022949054" lon="14.780232774598554"><ele>220.0</ele><time>2026-04-25T11:29:45Z</time></trkpt><trkpt lat="41.17287654813594" lon="14.78045906135988"><ele>221.0</ele><time>2026-04-25T11:29:46Z</time></trkpt><trkpt lat="41.17307732324014" lon="14.780703419283153"><ele>221.5</ele><time>2026-04-25T11:29:47Z</time></trkpt><trkpt lat="41.17327039730932" lon="14.78095292344204"><ele>222.0</ele><time>2026-04-25T11:29:48Z</time></trkpt><trkpt lat="41.173452075292744" lon="14.781208723957592"><ele>222.5</ele><time>2026-04-25T11:29:49Z</time></trkpt><trkpt lat="41.173627762277306" lon="14.781470114613713"><ele>223.0</ele><time>2026-04-25T11:29:50Z</time></trkpt><trkpt lat="41.17380202739147" lon="14.781737103285362"><ele>223.5</ele><time>2026-04-25T11:29:51Z</time></trkpt><trkpt lat="41.1739673621674" lon="14.782007497969497"><ele>224.0</ele><time>2026-04-25T11:29:52Z</time></trkpt><trkpt lat="41.1741257792406" lon="14.782288155675142"><ele>226.0</ele><time>2026-04-25T11:29:53Z</time></trkpt><trkpt lat="41.17427740081475" lon="14.782572198584186"><ele>228.0</ele><time>2026-04-25T11:29:54Z</time></trkpt><trkpt lat="41.17442299187392" lon="14.782857617279253"><ele>229.0</ele><time>2026-04-25T11:29:55Z</time></trkpt><trkpt lat="41.174562214801796" lon="14.78314560984056"><ele>230.0</ele><time>2026-04-25T11:29:56Z</time></trkpt><trkpt lat="41.17469826490888" lon="14.783434511149197"><ele>230.5</ele><time>2026-04-25T11:29:57Z</time></trkpt><trkpt lat="41.1748353049506" lon="14.783720615858243"><ele>231.0</ele><time>2026-04-25T11:29:58Z</time></trkpt><trkpt lat="41.174976483677796" lon="14.78400273162843"><ele>233.0</ele><time>2026-04-25T11:29:59Z</time></trkpt><trkpt lat="41.175118854757955" lon="14.784281356868302"><ele>235.0</ele><time>2026-04-25T11:30:00Z</time></trkpt><trkpt lat="41.175255143620845" lon="14.784571073879981"><ele>237.0</ele><time>2026-04-25T11:30:01Z</time></trkpt><trkpt lat="41.1753703779586" lon="14.784871315958195"><ele>239.0</ele><time>2026-04-25T11:30:02Z</time></trkpt><trkpt lat="41.175468353324135" lon="14.78518930530983"><ele>240.0</ele><time>2026-04-25T11:30:03Z</time></trkpt><trkpt lat="41.17554857019012" lon="14.785518946437525"><ele>241.0</ele><time>2026-04-25T11:30:04Z</time></trkpt><trkpt lat="41.17561658211365" lon="14.78585545524661"><ele>244.5</ele><time>2026-04-25T11:30:05Z</time></trkpt><trkpt lat="41.175670521383395" lon="14.786200725334899"><ele>248.0</ele><time>2026-04-25T11:30:06Z</time></trkpt><trkpt lat="41.17571252528288" lon="14.786551941356237"><ele>252.0</ele><time>2026-04-25T11:30:07Z</time></trkpt><trkpt lat="41.175741978616195" lon="14.78690477481855"><ele>256.0</ele><time>2026-04-25T11:30:08Z</time></trkpt><trkpt lat="41.17574553468716" lon="14.787263767260667"><ele>256.0</ele><time>2026-04-25T11:30:09Z</time></trkpt><trkpt lat="41.17576103535476" lon="14.78761742118575"><ele>256.0</ele><time>2026-04-25T11:30:10Z</time></trkpt><trkpt lat="41.1757630266378" lon="14.787955388031447"><ele>258.5</ele><time>2026-04-25T11:30:11Z</time></trkpt><trkpt lat="41.175769901345596" lon="14.788267271478103"><ele>261.0</ele><time>2026-04-25T11:30:12Z</time></trkpt><trkpt lat="41.175775128089626" lon="14.78857505604755"><ele>262.3333333333333</ele><time>2026-04-25T11:30:13Z</time></trkpt><trkpt lat="41.17578488741962" lon="14.788870773385636"><ele>263.66666666666663</ele><time>2026-04-25T11:30:14Z</time></trkpt><trkpt lat="41.175793271821526" lon="14.78915878320883"><ele>265.0</ele><time>2026-04-25T11:30:15Z</time></trkpt><trkpt lat="41.175798107194666" lon="14.789442959449643"><ele>265.66666666666663</ele><time>2026-04-25T11:30:16Z</time></trkpt><trkpt lat="41.17580136651011" lon="14.789711480468316"><ele>266.3333333333333</ele><time>2026-04-25T11:30:17Z</time></trkpt><trkpt lat="41.175804811145696" lon="14.789959516899389"><ele>267.0</ele><time>2026-04-25T11:30:18Z</time></trkpt><trkpt lat="41.17581050561476" lon="14.790203589434435"><ele>268.3333333333333</ele><time>2026-04-25T11:30:19Z</time></trkpt><trkpt lat="41.17581510562437" lon="14.790464260013435"><ele>269.66666666666663</ele><time>2026-04-25T11:30:20Z</time></trkpt><trkpt lat="41.17581738610959" lon="14.79072409548276"><ele>271.0</ele><time>2026-04-25T11:30:21Z</time></trkpt><trkpt lat="41.1758093929038" lon="14.790952665103594"><ele>270.3333333333333</ele><time>2026-04-25T11:30:22Z</time></trkpt><trkpt lat="41.17578265117155" lon="14.791159895278417"><ele>269.6666666666667</ele><time>2026-04-25T11:30:23Z</time></trkpt><trkpt lat="41.17574973919724" lon="14.791374793292823"><ele>269.0</ele><time>2026-04-25T11:30:24Z</time></trkpt><trkpt lat="41.175684730406445" lon="14.791579369827936"><ele>269.0</ele><time>2026-04-25T11:30:25Z</time></trkpt><trkpt lat="41.17562384894932" lon="14.791793274295413"><ele>269.0</ele><time>2026-04-25T11:30:26.017Z</time></trkpt><trkpt lat="41.17555757302386" lon="14.791998846412714"><ele>269.0</ele><time>2026-04-25T11:30:27.019Z</time></trkpt><trkpt lat="41.175479888002315" lon="14.792184975462822"><ele>269.6666666666667</ele><time>2026-04-25T11:30:28.019Z</time></trkpt><trkpt lat="41.175399708092364" lon="14.792368778086718"><ele>270.3333333333333</ele><time>2026-04-25T11:30:29Z</time></trkpt><trkpt lat="41.175295508791045" lon="14.79256243798907"><ele>271.0</ele><time>2026-04-25T11:30:30Z</time></trkpt><trkpt lat="41.17518614875165" lon="14.792742181678385"><ele>271.0</ele><time>2026-04-25T11:30:31Z</time></trkpt><trkpt lat="41.17506841842514" lon="14.792910169097997"><ele>271.0</ele><time>2026-04-25T11:30:32Z</time></trkpt><trkpt lat="41.17494686386546" lon="14.793069132377514"><ele>271.0</ele><time>2026-04-25T11:30:33Z</time></trkpt><trkpt lat="41.174827401106555" lon="14.793206190806819"><ele>271.0</ele><time>2026-04-25T11:30:34Z</time></trkpt><trkpt lat="41.174716996480164" lon="14.79334916180928"><ele>271.0</ele><time>2026-04-25T11:30:35Z</time></trkpt><trkpt lat="41.174593175090365" lon="14.793472076673218"><ele>271.0</ele><time>2026-04-25T11:30:36Z</time></trkpt><trkpt lat="41.17445648053916" lon="14.793610536553135"><ele>273.0</ele><time>2026-04-25T11:30:37Z</time></trkpt><trkpt lat="41.1743172600401" lon="14.793750346426568"><ele>275.0</ele><time>2026-04-25T11:30:38Z</time></trkpt><trkpt lat="41.17417778836219" lon="14.79390149453491"><ele>277.0</ele><time>2026-04-25T11:30:39Z</time></trkpt><trkpt lat="41.174038280135896" lon="14.794068865669589"><ele>276.0</ele><time>2026-04-25T11:30:40Z</time></trkpt><trkpt lat="41.17390436991009" lon="14.794246419397686"><ele>275.0</ele><time>2026-04-25T11:30:41Z</time></trkpt><trkpt lat="41.17377858607808" lon="14.794443241574465"><ele>274.0</ele><time>2026-04-25T11:30:42Z</time></trkpt><trkpt lat="41.17366992682045" lon="14.794652108293809"><ele>274.0</ele><time>2026-04-25T11:30:43Z</time></trkpt><trkpt lat="41.17357391326794" lon="14.794873441424222"><ele>274.0</ele><time>2026-04-25T11:30:44Z</time></trkpt><trkpt lat="41.1734913182123" lon="14.795106493127172"><ele>274.0</ele><time>2026-04-25T11:30:45Z</time></trkpt><trkpt lat="41.173420594927364" lon="14.795349696615304"><ele>275.66666666666663</ele><time>2026-04-25T11:30:46Z</time></trkpt><trkpt lat="41.17336208244377" lon="14.795591143554677"><ele>277.3333333333333</ele><time>2026-04-25T11:30:47Z</time></trkpt><trkpt lat="41.17331320651635" lon="14.79585137370214"><ele>279.0</ele><time>2026-04-25T11:30:48Z</time></trkpt><trkpt lat="41.17328085379115" lon="14.796126425950488"><ele>280.3333333333333</ele><time>2026-04-25T11:30:49Z</time></trkpt><trkpt lat="41.17326596535948" lon="14.796402310727899"><ele>281.66666666666663</ele><time>2026-04-25T11:30:50Z</time></trkpt><trkpt lat="41.173268110903145" lon="14.796701653660808"><ele>283.0</ele><time>2026-04-25T11:30:51Z</time></trkpt><trkpt lat="41.17326769032921" lon="14.797046440417507"><ele>285.0</ele><time>2026-04-25T11:30:52Z</time></trkpt><trkpt lat="41.173235487023604" lon="14.797425397961405"><ele>287.0</ele><time>2026-04-25T11:30:53Z</time></trkpt><trkpt lat="41.173217681251344" lon="14.79783237139858"><ele>288.5</ele><time>2026-04-25T11:30:54Z</time></trkpt><trkpt lat="41.17321416687168" lon="14.798248935433213"><ele>290.0</ele><time>2026-04-25T11:30:55Z</time></trkpt><trkpt lat="41.173193686721945" lon="14.79868250784312"><ele>286.5</ele><time>2026-04-25T11:30:56Z</time></trkpt><trkpt lat="41.17316209891663" lon="14.799139352138868"><ele>283.0</ele><time>2026-04-25T11:30:57Z</time></trkpt><trkpt lat="41.173127432594534" lon="14.79958958671417"><ele>283.0</ele><time>2026-04-25T11:30:58Z</time></trkpt><trkpt lat="41.17310851907232" lon="14.800031441787016"><ele>283.0</ele><time>2026-04-25T11:30:59Z</time></trkpt><trkpt lat="41.173091605827736" lon="14.800429743584127"><ele>284.5</ele><time>2026-04-25T11:31:00Z</time></trkpt><trkpt lat="41.173075705050714" lon="14.80079389751642"><ele>286.0</ele><time>2026-04-25T11:31:01Z</time></trkpt><trkpt lat="41.173074400482975" lon="14.801158364486296"><ele>287.0</ele><time>2026-04-25T11:31:02Z</time></trkpt><trkpt lat="41.17310515088627" lon="14.801544535830331"><ele>288.0</ele><time>2026-04-25T11:31:03Z</time></trkpt><trkpt lat="41.1731605140993" lon="14.801938595923234"><ele>297.0</ele><time>2026-04-25T11:31:04Z</time></trkpt><trkpt lat="41.173250789969806" lon="14.802333412529526"><ele>306.0</ele><time>2026-04-25T11:31:05Z</time></trkpt><trkpt lat="41.1733590944138" lon="14.802723865376354"><ele>307.0</ele><time>2026-04-25T11:31:06Z</time></trkpt><trkpt lat="41.17346881367012" lon="14.803112250984702"><ele>308.0</ele><time>2026-04-25T11:31:07Z</time></trkpt><trkpt lat="41.173568247262146" lon="14.803473010051839"><ele>307.0</ele><time>2026-04-25T11:31:08Z</time></trkpt><trkpt lat="41.173664332627645" lon="14.803841240301566"><ele>306.0</ele><time>2026-04-25T11:31:09Z</time></trkpt><trkpt lat="41.17375861483988" lon="14.804203845290218"><ele>306.5</ele><time>2026-04-25T11:31:10Z</time></trkpt><trkpt lat="41.1738538740251" lon="14.804564834186452"><ele>307.0</ele><time>2026-04-25T11:31:11Z</time></trkpt><trkpt lat="41.17394364743146" lon="14.804912244693949"><ele>312.0</ele><time>2026-04-25T11:31:12Z</time></trkpt><trkpt lat="41.174031815408014" lon="14.805233600412452"><ele>317.0</ele><time>2026-04-25T11:31:13Z</time></trkpt><trkpt lat="41.17414779865588" lon="14.805537331564363"><ele>317.0</ele><time>2026-04-25T11:31:14Z</time></trkpt><trkpt lat="41.174286884304955" lon="14.805826491982856"><ele>317.0</ele><time>2026-04-25T11:31:15Z</time></trkpt><trkpt lat="41.174455986286404" lon="14.806095944791032"><ele>317.5</ele><time>2026-04-25T11:31:16Z</time></trkpt><trkpt lat="41.17465633997706" lon="14.806342182833399"><ele>318.0</ele><time>2026-04-25T11:31:17Z</time></trkpt><trkpt lat="41.17487386552029" lon="14.806569664555328"><ele>318.0</ele><time>2026-04-25T11:31:18Z</time></trkpt><trkpt lat="41.175105723772674" lon="14.806771298844998"><ele>318.0</ele><time>2026-04-25T11:31:19Z</time></trkpt><trkpt lat="41.17536610013975" lon="14.806933908563044"><ele>318.0</ele><time>2026-04-25T11:31:20Z</time></trkpt><trkpt lat="41.17563887089633" lon="14.807050990300981"><ele>318.0</ele><time>2026-04-25T11:31:21Z</time></trkpt><trkpt lat="41.175921573242114" lon="14.807128957058339"><ele>318.0</ele><time>2026-04-25T11:31:22Z</time></trkpt><trkpt lat="41.17621462595468" lon="14.807161888924417"><ele>318.0</ele><time>2026-04-25T11:31:23Z</time></trkpt><trkpt lat="41.17650840784048" lon="14.807154692488865"><ele>320.5</ele><time>2026-04-25T11:31:24Z</time></trkpt><trkpt lat="41.176796289144065" lon="14.807097658608408"><ele>323.0</ele><time>2026-04-25T11:31:25Z</time></trkpt><trkpt lat="41.17708358882766" lon="14.806992741834787"><ele>324.0</ele><time>2026-04-25T11:31:26Z</time></trkpt><trkpt lat="41.17736311019876" lon="14.80684598459716"><ele>325.0</ele><time>2026-04-25T11:31:27Z</time></trkpt><trkpt lat="41.177650688729905" lon="14.806728718071117"><ele>330.0</ele><time>2026-04-25T11:31:28Z</time></trkpt><trkpt lat="41.177901177109185" lon="14.806467282073902"><ele>335.0</ele><time>2026-04-25T11:31:29Z</time></trkpt><trkpt lat="41.178167786916234" lon="14.806276517661406"><ele>336.5</ele><time>2026-04-25T11:31:30Z</time></trkpt><trkpt lat="41.17843527329342" lon="14.806096361257874"><ele>338.0</ele><time>2026-04-25T11:31:31Z</time></trkpt><trkpt lat="41.17869205732044" lon="14.805927259719319"><ele>341.0</ele><time>2026-04-25T11:31:32Z</time></trkpt><trkpt lat="41.17894295150057" lon="14.805762533969473"><ele>344.0</ele><time>2026-04-25T11:31:33Z</time></trkpt><trkpt lat="41.17918914260178" lon="14.80560042749217"><ele>346.5</ele><time>2026-04-25T11:31:34Z</time></trkpt><trkpt lat="41.1794318648139" lon="14.805430246594387"><ele>349.0</ele><time>2026-04-25T11:31:35Z</time></trkpt><trkpt lat="41.179680849433986" lon="14.805268290471028"><ele>352.0</ele><time>2026-04-25T11:31:36Z</time></trkpt><trkpt lat="41.17992927275732" lon="14.805106224719989"><ele>355.0</ele><time>2026-04-25T11:31:37Z</time></trkpt><trkpt lat="41.180178164247124" lon="14.804939281924115"><ele>355.0</ele><time>2026-04-25T11:31:38Z</time></trkpt><trkpt lat="41.180420510389176" lon="14.804781196266044"><ele>355.0</ele><time>2026-04-25T11:31:39Z</time></trkpt><trkpt lat="41.18066196042517" lon="14.804625206129762"><ele>355.0</ele><time>2026-04-25T11:31:40Z</time></trkpt><trkpt lat="41.18090245721482" lon="14.80446206269844"><ele>355.0</ele><time>2026-04-25T11:31:41Z</time></trkpt><trkpt lat="41.18114258714366" lon="14.80429913302836"><ele>358.0</ele><time>2026-04-25T11:31:42Z</time></trkpt><trkpt lat="41.181380362014984" lon="14.804141075107532"><ele>361.0</ele><time>2026-04-25T11:31:43Z</time></trkpt><trkpt lat="41.18161328031403" lon="14.803983020264202"><ele>363.0</ele><time>2026-04-25T11:31:44Z</time></trkpt><trkpt lat="41.18184624847658" lon="14.80382462598229"><ele>365.0</ele><time>2026-04-25T11:31:45Z</time></trkpt><trkpt lat="41.18207989341417" lon="14.803664369903283"><ele>365.0</ele><time>2026-04-25T11:31:46Z</time></trkpt><trkpt lat="41.18231806821403" lon="14.8035009630948"><ele>365.0</ele><time>2026-04-25T11:31:47Z</time></trkpt><trkpt lat="41.182557306869" lon="14.80334327792855"><ele>368.0</ele><time>2026-04-25T11:31:48Z</time></trkpt><trkpt lat="41.18281174326399" lon="14.803183116498516"><ele>371.0</ele><time>2026-04-25T11:31:49Z</time></trkpt><trkpt lat="41.18304503611092" lon="14.803022242800928"><ele>372.5</ele><time>2026-04-25T11:31:50Z</time></trkpt><trkpt lat="41.183283005540964" lon="14.802861520564123"><ele>374.0</ele><time>2026-04-25T11:31:51Z</time></trkpt><trkpt lat="41.18351988660965" lon="14.802696326972605"><ele>373.5</ele><time>2026-04-25T11:31:52Z</time></trkpt><trkpt lat="41.18376478990387" lon="14.802535837645992"><ele>373.0</ele><time>2026-04-25T11:31:53Z</time></trkpt><trkpt lat="41.18400641589104" lon="14.802378926928114"><ele>374.5</ele><time>2026-04-25T11:31:54Z</time></trkpt><trkpt lat="41.18425139527322" lon="14.802226487920102"><ele>376.0</ele><time>2026-04-25T11:31:55Z</time></trkpt><trkpt lat="41.184502592315546" lon="14.802089007277248"><ele>376.0</ele><time>2026-04-25T11:31:56Z</time></trkpt><trkpt lat="41.18476136315802" lon="14.801976833194205"><ele>376.0</ele><time>2026-04-25T11:31:57Z</time></trkpt><trkpt lat="41.1850291527739" lon="14.801887617671932"><ele>378.0</ele><time>2026-04-25T11:31:58Z</time></trkpt><trkpt lat="41.18530343247681" lon="14.801822692679766"><ele>380.0</ele><time>2026-04-25T11:31:59Z</time></trkpt><trkpt lat="41.18558438720546" lon="14.801778836293435"><ele>381.0</ele><time>2026-04-25T11:32:00Z</time></trkpt><trkpt lat="41.18586742598919" lon="14.801761475130133"><ele>382.0</ele><time>2026-04-25T11:32:01Z</time></trkpt><trkpt lat="41.18615521719276" lon="14.8017694592219"><ele>382.0</ele><time>2026-04-25T11:32:02Z</time></trkpt><trkpt lat="41.18644537570465" lon="14.801787413844831"><ele>382.0</ele><time>2026-04-25T11:32:03Z</time></trkpt><trkpt lat="41.18673646434593" lon="14.801805920400133"><ele>384.0</ele><time>2026-04-25T11:32:04Z</time></trkpt><trkpt lat="41.187028974390806" lon="14.801828709914817"><ele>386.0</ele><time>2026-04-25T11:32:05Z</time></trkpt><trkpt lat="41.187327266635975" lon="14.801853577735278"><ele>389.0</ele><time>2026-04-25T11:32:06Z</time></trkpt><trkpt lat="41.18762921894251" lon="14.801880657107402"><ele>392.0</ele><time>2026-04-25T11:32:07Z</time></trkpt><trkpt lat="41.18792929092714" lon="14.80190812401182"><ele>394.0</ele><time>2026-04-25T11:32:08Z</time></trkpt><trkpt lat="41.18822936425353" lon="14.80193613226325"><ele>396.0</ele><time>2026-04-25T11:32:09Z</time></trkpt><trkpt lat="41.1885311542323" lon="14.801964082343623"><ele>396.0</ele><time>2026-04-25T11:32:10Z</time></trkpt><trkpt lat="41.18883173632629" lon="14.80199192061161"><ele>396.0</ele><time>2026-04-25T11:32:11Z</time></trkpt><trkpt lat="41.18913998602778" lon="14.802019349194264"><ele>396.0</ele><time>2026-04-25T11:32:12Z</time></trkpt><trkpt lat="41.189442312114416" lon="14.80204379675449"><ele>396.0</ele><time>2026-04-25T11:32:13Z</time></trkpt><trkpt lat="41.1897493911948" lon="14.802066591997237"><ele>394.5</ele><time>2026-04-25T11:32:14Z</time></trkpt><trkpt lat="41.190012858429355" lon="14.802097058917926"><ele>393.0</ele><time>2026-04-25T11:32:15.001Z</time></trkpt><trkpt lat="41.19035012002336" lon="14.802128165550883"><ele>393.0</ele><time>2026-04-25T11:32:16.001Z</time></trkpt><trkpt lat="41.190662102950704" lon="14.802144108773325"><ele>393.0</ele><time>2026-04-25T11:32:17.001Z</time></trkpt><trkpt lat="41.19096198960421" lon="14.80216064959823"><ele>393.0</ele><time>2026-04-25T11:32:18.001Z</time></trkpt><trkpt lat="41.191261139111354" lon="14.802160760058182"><ele>393.0</ele><time>2026-04-25T11:32:19.001Z</time></trkpt><trkpt lat="41.19155663874702" lon="14.802152199479876"><ele>392.5</ele><time>2026-04-25T11:32:20.001Z</time></trkpt><trkpt lat="41.191848672490956" lon="14.802132911396097"><ele>392.0</ele><time>2026-04-25T11:32:21.001Z</time></trkpt><trkpt lat="41.19213800172035" lon="14.802107509386493"><ele>392.0</ele><time>2026-04-25T11:32:22.001Z</time></trkpt><trkpt lat="41.19243149480266" lon="14.802061075973482"><ele>392.0</ele><time>2026-04-25T11:32:23.001Z</time></trkpt><trkpt lat="41.19271766269348" lon="14.801990871766476"><ele>392.0</ele><time>2026-04-25T11:32:24.001Z</time></trkpt><trkpt lat="41.19300055241176" lon="14.801906664453444"><ele>392.0</ele><time>2026-04-25T11:32:25Z</time></trkpt><trkpt lat="41.19327961057556" lon="14.801812357216448"><ele>392.5</ele><time>2026-04-25T11:32:26Z</time></trkpt><trkpt lat="41.19355808480712" lon="14.80170512151729"><ele>393.0</ele><time>2026-04-25T11:32:27Z</time></trkpt><trkpt lat="41.193834135153644" lon="14.80158150781928"><ele>394.5</ele><time>2026-04-25T11:32:28Z</time></trkpt><trkpt lat="41.19410512254496" lon="14.801440851834961"><ele>396.0</ele><time>2026-04-25T11:32:29Z</time></trkpt><trkpt lat="41.19437050949299" lon="14.801285736763784"><ele>396.0</ele><time>2026-04-25T11:32:30Z</time></trkpt><trkpt lat="41.194629875481255" lon="14.801129964792253"><ele>396.0</ele><time>2026-04-25T11:32:31Z</time></trkpt><trkpt lat="41.19488824063337" lon="14.800962739840816"><ele>397.5</ele><time>2026-04-25T11:32:32Z</time></trkpt><trkpt lat="41.19514984723774" lon="14.800793092699484"><ele>399.0</ele><time>2026-04-25T11:32:33Z</time></trkpt><trkpt lat="41.19540221824044" lon="14.800629042610716"><ele>399.5</ele><time>2026-04-25T11:32:34Z</time></trkpt><trkpt lat="41.195679560670975" lon="14.800459690125741"><ele>400.0</ele><time>2026-04-25T11:32:35Z</time></trkpt><trkpt lat="41.19593489150154" lon="14.80025751838156"><ele>400.0</ele><time>2026-04-25T11:32:36Z</time></trkpt><trkpt lat="41.19620207197988" lon="14.800076504338199"><ele>400.0</ele><time>2026-04-25T11:32:37Z</time></trkpt><trkpt lat="41.1964709305908" lon="14.799900864581993"><ele>399.5</ele><time>2026-04-25T11:32:38Z</time></trkpt><trkpt lat="41.19674123588362" lon="14.799726114472046"><ele>399.0</ele><time>2026-04-25T11:32:39Z</time></trkpt><trkpt lat="41.197011035277185" lon="14.79954332375404"><ele>399.0</ele><time>2026-04-25T11:32:40Z</time></trkpt><trkpt lat="41.197277482485276" lon="14.799361862205513"><ele>399.0</ele><time>2026-04-25T11:32:41Z</time></trkpt><trkpt lat="41.19754352600764" lon="14.799178087528253"><ele>399.0</ele><time>2026-04-25T11:32:42Z</time></trkpt><trkpt lat="41.19781162570041" lon="14.798991402479114"><ele>399.0</ele><time>2026-04-25T11:32:43Z</time></trkpt><trkpt lat="41.198082178853326" lon="14.798810321779428"><ele>398.0</ele><time>2026-04-25T11:32:44Z</time></trkpt><trkpt lat="41.19835520345344" lon="14.798629861471792"><ele>397.0</ele><time>2026-04-25T11:32:45Z</time></trkpt><trkpt lat="41.19862364701118" lon="14.798451085718588"><ele>397.0</ele><time>2026-04-25T11:32:46Z</time></trkpt><trkpt lat="41.19888999736914" lon="14.798273746886585"><ele>397.0</ele><time>2026-04-25T11:32:47Z</time></trkpt><trkpt lat="41.19915851909887" lon="14.798089749150536"><ele>398.0</ele><time>2026-04-25T11:32:48Z</time></trkpt><trkpt lat="41.19942439412633" lon="14.797908725494633"><ele>399.0</ele><time>2026-04-25T11:32:49Z</time></trkpt><trkpt lat="41.19969367830179" lon="14.797731355542846"><ele>401.0</ele><time>2026-04-25T11:32:50Z</time></trkpt><trkpt lat="41.19996433087361" lon="14.797550727025214"><ele>403.0</ele><time>2026-04-25T11:32:51Z</time></trkpt><trkpt lat="41.20023488818741" lon="14.79737000786054"><ele>403.0</ele><time>2026-04-25T11:32:52Z</time></trkpt><trkpt lat="41.20050516489074" lon="14.797188797693657"><ele>403.0</ele><time>2026-04-25T11:32:53Z</time></trkpt><trkpt lat="41.200770590868885" lon="14.797007248679504"><ele>406.0</ele><time>2026-04-25T11:32:54Z</time></trkpt><trkpt lat="41.20103713459021" lon="14.796822263884785"><ele>409.0</ele><time>2026-04-25T11:32:55Z</time></trkpt><trkpt lat="41.20130765709764" lon="14.796636409239728"><ele>410.5</ele><time>2026-04-25T11:32:56Z</time></trkpt><trkpt lat="41.20157427000231" lon="14.796456830054229"><ele>412.0</ele><time>2026-04-25T11:32:57Z</time></trkpt><trkpt lat="41.2018430087907" lon="14.796281259763292"><ele>412.0</ele><time>2026-04-25T11:32:58Z</time></trkpt><trkpt lat="41.20211019758429" lon="14.79609924606769"><ele>412.0</ele><time>2026-04-25T11:32:59Z</time></trkpt><trkpt lat="41.2023779781629" lon="14.795915915711339"><ele>414.5</ele><time>2026-04-25T11:33:00Z</time></trkpt><trkpt lat="41.20264461497772" lon="14.795729735845523"><ele>417.0</ele><time>2026-04-25T11:33:01Z</time></trkpt><trkpt lat="41.20291010164012" lon="14.795551517420913"><ele>419.5</ele><time>2026-04-25T11:33:02Z</time></trkpt><trkpt lat="41.203177479524115" lon="14.795379370633732"><ele>422.0</ele><time>2026-04-25T11:33:03Z</time></trkpt><trkpt lat="41.203444874945326" lon="14.795220377603117"><ele>421.0</ele><time>2026-04-25T11:33:04Z</time></trkpt><trkpt lat="41.203715769725214" lon="14.795064316608316"><ele>420.0</ele><time>2026-04-25T11:33:05Z</time></trkpt><trkpt lat="41.20398500624531" lon="14.794935563668115"><ele>422.5</ele><time>2026-04-25T11:33:06Z</time></trkpt><trkpt lat="41.2042572790841" lon="14.794820675236307"><ele>425.0</ele><time>2026-04-25T11:33:07Z</time></trkpt><trkpt lat="41.204532902386326" lon="14.794721881914192"><ele>425.0</ele><time>2026-04-25T11:33:08Z</time></trkpt><trkpt lat="41.20481704772427" lon="14.794645706450387"><ele>425.0</ele><time>2026-04-25T11:33:09Z</time></trkpt><trkpt lat="41.20509637798883" lon="14.79458539329811"><ele>427.5</ele><time>2026-04-25T11:33:10Z</time></trkpt><trkpt lat="41.20537349444862" lon="14.79454329576948"><ele>430.0</ele><time>2026-04-25T11:33:11Z</time></trkpt><trkpt lat="41.20565337377454" lon="14.794513549747329"><ele>433.0</ele><time>2026-04-25T11:33:12Z</time></trkpt><trkpt lat="41.205928260847166" lon="14.794491236760138"><ele>436.0</ele><time>2026-04-25T11:33:13Z</time></trkpt><trkpt lat="41.20617420512532" lon="14.794478233901565"><ele>436.0</ele><time>2026-04-25T11:33:14Z</time></trkpt><trkpt lat="41.20640765099954" lon="14.79446034958396"><ele>436.0</ele><time>2026-04-25T11:33:15Z</time></trkpt><trkpt lat="41.20660849172133" lon="14.79445585937896"><ele>436.0</ele><time>2026-04-25T11:33:16Z</time></trkpt><trkpt lat="41.20680900560298" lon="14.79444404374015"><ele>437.6666666666667</ele><time>2026-04-25T11:33:17Z</time></trkpt><trkpt lat="41.207003185098884" lon="14.794433316159866"><ele>439.33333333333337</ele><time>2026-04-25T11:33:18Z</time></trkpt><trkpt lat="41.207177535148936" lon="14.794422446974783"><ele>441.0</ele><time>2026-04-25T11:33:19Z</time></trkpt><trkpt lat="41.20734042374187" lon="14.794414861525313"><ele>442.0</ele><time>2026-04-25T11:33:20Z</time></trkpt><trkpt lat="41.207486201262" lon="14.79440709061299"><ele>443.0</ele><time>2026-04-25T11:33:21Z</time></trkpt><trkpt lat="41.207628642717516" lon="14.794401924046298"><ele>444.0</ele><time>2026-04-25T11:33:22Z</time></trkpt><trkpt lat="41.20777112394502" lon="14.794393727924447"><ele>445.0</ele><time>2026-04-25T11:33:23Z</time></trkpt><trkpt lat="41.20791327042859" lon="14.794387112603472"><ele>445.0</ele><time>2026-04-25T11:33:24Z</time></trkpt><trkpt lat="41.208059500042566" lon="14.79437398173342"><ele>445.0</ele><time>2026-04-25T11:33:25Z</time></trkpt><trkpt lat="41.20821714743691" lon="14.794366510858127"><ele>445.0</ele><time>2026-04-25T11:33:26Z</time></trkpt><trkpt lat="41.20838315565816" lon="14.79435452043261"><ele>445.6666666666667</ele><time>2026-04-25T11:33:27Z</time></trkpt><trkpt lat="41.208568704898425" lon="14.794347016482492"><ele>446.33333333333337</ele><time>2026-04-25T11:33:28Z</time></trkpt><trkpt lat="41.20877326924711" lon="14.794334399594279"><ele>447.0</ele><time>2026-04-25T11:33:29Z</time></trkpt><trkpt lat="41.20899534507161" lon="14.794322534415212"><ele>449.5</ele><time>2026-04-25T11:33:30Z</time></trkpt><trkpt lat="41.209234544131306" lon="14.794311995258443"><ele>452.0</ele><time>2026-04-25T11:33:31Z</time></trkpt><trkpt lat="41.20949529987182" lon="14.794300691032333"><ele>452.0</ele><time>2026-04-25T11:33:32Z</time></trkpt><trkpt lat="41.20977504743691" lon="14.794285418530981"><ele>452.0</ele><time>2026-04-25T11:33:33Z</time></trkpt><trkpt lat="41.21005407824029" lon="14.794272901259696"><ele>453.0</ele><time>2026-04-25T11:33:34Z</time></trkpt><trkpt lat="41.21031028208899" lon="14.794266849371827"><ele>454.0</ele><time>2026-04-25T11:33:35Z</time></trkpt><trkpt lat="41.21061773932325" lon="14.794252946897398"><ele>453.5</ele><time>2026-04-25T11:33:36Z</time></trkpt><trkpt lat="41.21093478393053" lon="14.794241944991112"><ele>453.0</ele><time>2026-04-25T11:33:37Z</time></trkpt><trkpt lat="41.211260829195886" lon="14.794226811036678"><ele>454.0</ele><time>2026-04-25T11:33:38Z</time></trkpt><trkpt lat="41.211580048099385" lon="14.79420909719647"><ele>455.0</ele><time>2026-04-25T11:33:39Z</time></trkpt><trkpt lat="41.211902974097534" lon="14.79418603880539"><ele>455.0</ele><time>2026-04-25T11:33:40Z</time></trkpt><trkpt lat="41.21219779003939" lon="14.794168059966392"><ele>455.0</ele><time>2026-04-25T11:33:41Z</time></trkpt><trkpt lat="41.21248856688704" lon="14.794148097730336"><ele>456.5</ele><time>2026-04-25T11:33:42Z</time></trkpt><trkpt lat="41.212779482482354" lon="14.794127983888696"><ele>458.0</ele><time>2026-04-25T11:33:43Z</time></trkpt><trkpt lat="41.21307347316387" lon="14.79411188482575"><ele>461.5</ele><time>2026-04-25T11:33:44Z</time></trkpt><trkpt lat="41.213366411600916" lon="14.794098833660533"><ele>465.0</ele><time>2026-04-25T11:33:45Z</time></trkpt><trkpt lat="41.213662060801695" lon="14.794083869193908"><ele>465.0</ele><time>2026-04-25T11:33:46Z</time></trkpt><trkpt lat="41.213952327859616" lon="14.79406879182619"><ele>465.0</ele><time>2026-04-25T11:33:47Z</time></trkpt><trkpt lat="41.2142448826253" lon="14.794046479785433"><ele>468.5</ele><time>2026-04-25T11:33:48Z</time></trkpt><trkpt lat="41.214545949551656" lon="14.794027785583804"><ele>472.0</ele><time>2026-04-25T11:33:49Z</time></trkpt><trkpt lat="41.21483946180341" lon="14.79400788327943"><ele>475.5</ele><time>2026-04-25T11:33:50Z</time></trkpt><trkpt lat="41.21513151158552" lon="14.793987689736213"><ele>479.0</ele><time>2026-04-25T11:33:51Z</time></trkpt><trkpt lat="41.21542855338853" lon="14.793965168994902"><ele>481.5</ele><time>2026-04-25T11:33:52Z</time></trkpt><trkpt lat="41.21571355158208" lon="14.793928064850537"><ele>484.0</ele><time>2026-04-25T11:33:53Z</time></trkpt><trkpt lat="41.21599606864222" lon="14.793897585257806"><ele>484.0</ele><time>2026-04-25T11:33:54Z</time></trkpt><trkpt lat="41.2162811920708" lon="14.793867763238888"><ele>484.0</ele><time>2026-04-25T11:33:55Z</time></trkpt><trkpt lat="41.216572060755375" lon="14.793837276186036"><ele>488.0</ele><time>2026-04-25T11:33:56.021Z</time></trkpt><trkpt lat="41.21685731684572" lon="14.79380833571537"><ele>492.0</ele><time>2026-04-25T11:33:57.02Z</time></trkpt><trkpt lat="41.21714149158456" lon="14.793713533132246"><ele>495.0</ele><time>2026-04-25T11:33:58.02Z</time></trkpt><trkpt lat="41.21742734671756" lon="14.79366948807879"><ele>498.0</ele><time>2026-04-25T11:33:59.016Z</time></trkpt><trkpt lat="41.2193850105736" lon="14.792966170248148"><ele>512.0</ele><time>2026-04-25T11:34:02.63Z</time></trkpt><trkpt lat="41.220342397572935" lon="14.792627858007865"><ele>506.0</ele><time>2026-04-25T11:34:03.63Z</time></trkpt><trkpt lat="41.2207929" lon="14.7924665"><ele>475.0</ele><time>2026-04-25T11:34:04.626Z</time></trkpt><trkpt lat="41.224744794928675" lon="14.791155438883967"><ele>471.0</ele><time>2026-04-25T11:34:24.001Z</time></trkpt><trkpt lat="41.22504955006472" lon="14.791080284708562"><ele>467.0</ele><time>2026-04-25T11:34:25.001Z</time></trkpt><trkpt lat="41.22533579310592" lon="14.791014299590515"><ele>463.0</ele><time>2026-04-25T11:34:26.001Z</time></trkpt><trkpt lat="41.22564505467192" lon="14.79097014836168"><ele>459.0</ele><time>2026-04-25T11:34:27.001Z</time></trkpt><trkpt lat="41.22593042465542" lon="14.790956587739057"><ele>458.0</ele><time>2026-04-25T11:34:28.001Z</time></trkpt><trkpt lat="41.226221001335844" lon="14.790949714502492"><ele>457.0</ele><time>2026-04-25T11:34:29.001Z</time></trkpt><trkpt lat="41.22650746213469" lon="14.790945979592008"><ele>457.0</ele><time>2026-04-25T11:34:30.001Z</time></trkpt><trkpt lat="41.22679736086645" lon="14.790955806757689"><ele>457.0</ele><time>2026-04-25T11:34:31.001Z</time></trkpt><trkpt lat="41.22708601138849" lon="14.790974177185523"><ele>456.0</ele><time>2026-04-25T11:34:32.001Z</time></trkpt><trkpt lat="41.227375109074416" lon="14.791004827179416"><ele>455.0</ele><time>2026-04-25T11:34:33.001Z</time></trkpt><trkpt lat="41.22767161218136" lon="14.791046270152883"><ele>454.5</ele><time>2026-04-25T11:34:34.001Z</time></trkpt><trkpt lat="41.22796300459845" lon="14.791097125504827"><ele>454.0</ele><time>2026-04-25T11:34:35.001Z</time></trkpt><trkpt lat="41.22825361174414" lon="14.791156371581984"><ele>454.0</ele><time>2026-04-25T11:34:36.001Z</time></trkpt><trkpt lat="41.228549243141835" lon="14.791229009199178"><ele>454.0</ele><time>2026-04-25T11:34:37.001Z</time></trkpt><trkpt lat="41.22884781573901" lon="14.79130205410997"><ele>450.0</ele><time>2026-04-25T11:34:38.001Z</time></trkpt><trkpt lat="41.22914577573529" lon="14.79137514504977"><ele>446.0</ele><time>2026-04-25T11:34:39.001Z</time></trkpt><trkpt lat="41.229438109591904" lon="14.79144030762601"><ele>446.0</ele><time>2026-04-25T11:34:40.001Z</time></trkpt><trkpt lat="41.22973725413891" lon="14.791516984185504"><ele>446.0</ele><time>2026-04-25T11:34:41.001Z</time></trkpt><trkpt lat="41.2300378725218" lon="14.79158830739341"><ele>443.0</ele><time>2026-04-25T11:34:42.001Z</time></trkpt><trkpt lat="41.230334565946585" lon="14.791661345649896"><ele>440.0</ele><time>2026-04-25T11:34:43.001Z</time></trkpt><trkpt lat="41.23063416777879" lon="14.791733197701301"><ele>436.0</ele><time>2026-04-25T11:34:44.001Z</time></trkpt><trkpt lat="41.23093382667542" lon="14.791804871719561"><ele>432.0</ele><time>2026-04-25T11:34:45.001Z</time></trkpt><trkpt lat="41.23122598254654" lon="14.79187950698427"><ele>427.5</ele><time>2026-04-25T11:34:46.001Z</time></trkpt><trkpt lat="41.23151867375981" lon="14.791952080240074"><ele>423.0</ele><time>2026-04-25T11:34:47.001Z</time></trkpt><trkpt lat="41.231812395383365" lon="14.792022826637218"><ele>423.0</ele><time>2026-04-25T11:34:48.001Z</time></trkpt><trkpt lat="41.232111350600654" lon="14.792090422029306"><ele>423.0</ele><time>2026-04-25T11:34:49.001Z</time></trkpt><trkpt lat="41.2324019636156" lon="14.792162903690434"><ele>419.5</ele><time>2026-04-25T11:34:50.001Z</time></trkpt><trkpt lat="41.232699588653034" lon="14.792233304324116"><ele>416.0</ele><time>2026-04-25T11:34:51.001Z</time></trkpt><trkpt lat="41.23299766361514" lon="14.792306258117437"><ele>413.5</ele><time>2026-04-25T11:34:52.001Z</time></trkpt><trkpt lat="41.233292875829335" lon="14.792380829457105"><ele>411.0</ele><time>2026-04-25T11:34:53.001Z</time></trkpt><trkpt lat="41.2335926244135" lon="14.792454113063314"><ele>411.0</ele><time>2026-04-25T11:34:54.001Z</time></trkpt><trkpt lat="41.23388945057246" lon="14.79252582460614"><ele>411.0</ele><time>2026-04-25T11:34:55.001Z</time></trkpt><trkpt lat="41.23418944105403" lon="14.792600638306954"><ele>408.5</ele><time>2026-04-25T11:34:56.001Z</time></trkpt><trkpt lat="41.23448626119464" lon="14.792675890301787"><ele>406.0</ele><time>2026-04-25T11:34:57.001Z</time></trkpt><trkpt lat="41.2347871660769" lon="14.792748345481925"><ele>406.5</ele><time>2026-04-25T11:34:58.001Z</time></trkpt><trkpt lat="41.235087212574534" lon="14.792817202061538"><ele>407.0</ele><time>2026-04-25T11:34:59.001Z</time></trkpt><trkpt lat="41.235383229537774" lon="14.792882670720722"><ele>406.0</ele><time>2026-04-25T11:35:00.001Z</time></trkpt><trkpt lat="41.235677257708744" lon="14.792945184559251"><ele>405.0</ele><time>2026-04-25T11:35:01.001Z</time></trkpt><trkpt lat="41.23597620867589" lon="14.79301848136532"><ele>405.0</ele><time>2026-04-25T11:35:02.001Z</time></trkpt><trkpt lat="41.236271420178845" lon="14.79308950682565"><ele>405.0</ele><time>2026-04-25T11:35:03.001Z</time></trkpt><trkpt lat="41.236567747966234" lon="14.79315737231626"><ele>404.5</ele><time>2026-04-25T11:35:04.001Z</time></trkpt><trkpt lat="41.23686255788792" lon="14.79322443780554"><ele>404.0</ele><time>2026-04-25T11:35:05.001Z</time></trkpt><trkpt lat="41.23716453573154" lon="14.793297060510755"><ele>399.0</ele><time>2026-04-25T11:35:06.001Z</time></trkpt><trkpt lat="41.23746238100996" lon="14.793369988288648"><ele>394.0</ele><time>2026-04-25T11:35:07.001Z</time></trkpt><trkpt lat="41.237757820711515" lon="14.793440752714588"><ele>392.0</ele><time>2026-04-25T11:35:08.001Z</time></trkpt><trkpt lat="41.23806592256538" lon="14.79351813955473"><ele>390.0</ele><time>2026-04-25T11:35:09.001Z</time></trkpt><trkpt lat="41.23833733425447" lon="14.793576375617075"><ele>385.5</ele><time>2026-04-25T11:35:10.001Z</time></trkpt><trkpt lat="41.238630824563124" lon="14.793647951675062"><ele>381.0</ele><time>2026-04-25T11:35:11.001Z</time></trkpt><trkpt lat="41.23892539577092" lon="14.793720154985813"><ele>381.5</ele><time>2026-04-25T11:35:12.001Z</time></trkpt><trkpt lat="41.239220474752386" lon="14.793791087656532"><ele>382.0</ele><time>2026-04-25T11:35:13.001Z</time></trkpt><trkpt lat="41.23951140347042" lon="14.793863908655556"><ele>384.5</ele><time>2026-04-25T11:35:14.001Z</time></trkpt><trkpt lat="41.239802085595784" lon="14.793934565133911"><ele>387.0</ele><time>2026-04-25T11:35:15.001Z</time></trkpt><trkpt lat="41.240091376739436" lon="14.794006904798696"><ele>387.0</ele><time>2026-04-25T11:35:16.001Z</time></trkpt><trkpt lat="41.24038113770564" lon="14.794078054187777"><ele>387.0</ele><time>2026-04-25T11:35:17.001Z</time></trkpt><trkpt lat="41.24067105446146" lon="14.79414843126889"><ele>392.0</ele><time>2026-04-25T11:35:18.001Z</time></trkpt><trkpt lat="41.240989215643964" lon="14.794223096546846"><ele>397.0</ele><time>2026-04-25T11:35:19.001Z</time></trkpt><trkpt lat="41.24130572844556" lon="14.794301072269459"><ele>399.0</ele><time>2026-04-25T11:35:20.001Z</time></trkpt><trkpt lat="41.241628344733236" lon="14.794383041645444"><ele>401.0</ele><time>2026-04-25T11:35:21.024Z</time></trkpt><trkpt lat="41.24194055103451" lon="14.794458909553152"><ele>401.0</ele><time>2026-04-25T11:35:22.016Z</time></trkpt><trkpt lat="41.24225414503577" lon="14.794540516586943"><ele>401.0</ele><time>2026-04-25T11:35:23.02Z</time></trkpt><trkpt lat="41.24256908545716" lon="14.794609447666382"><ele>399.5</ele><time>2026-04-25T11:35:24.017Z</time></trkpt><trkpt lat="41.242893631269474" lon="14.794678807119627"><ele>398.0</ele><time>2026-04-25T11:35:25.019Z</time></trkpt><trkpt lat="41.24321964170833" lon="14.794754950087995"><ele>394.5</ele><time>2026-04-25T11:35:26.019Z</time></trkpt><trkpt lat="41.24354277537124" lon="14.794832982651748"><ele>391.0</ele><time>2026-04-25T11:35:27.021Z</time></trkpt><trkpt lat="41.244528056160775" lon="14.795424761264394"><ele>378.5</ele><time>2026-04-25T11:35:31Z</time></trkpt><trkpt lat="41.24482073580197" lon="14.795560831745322"><ele>366.0</ele><time>2026-04-25T11:35:32Z</time></trkpt><trkpt lat="41.24511999737197" lon="14.7957117257985"><ele>366.0</ele><time>2026-04-25T11:35:33Z</time></trkpt><trkpt lat="41.24539815476661" lon="14.79586805180435"><ele>366.0</ele><time>2026-04-25T11:35:34Z</time></trkpt><trkpt lat="41.2456685929397" lon="14.796029541417061"><ele>366.0</ele><time>2026-04-25T11:35:35Z</time></trkpt><trkpt lat="41.2459320360852" lon="14.796209350206212"><ele>366.0</ele><time>2026-04-25T11:35:36Z</time></trkpt><trkpt lat="41.24618266379572" lon="14.796399856261349"><ele>366.0</ele><time>2026-04-25T11:35:37Z</time></trkpt><trkpt lat="41.24643213013903" lon="14.796598050007383"><ele>366.0</ele><time>2026-04-25T11:35:38Z</time></trkpt><trkpt lat="41.246675449036005" lon="14.79679427116744"><ele>368.0</ele><time>2026-04-25T11:35:39Z</time></trkpt><trkpt lat="41.24692379891933" lon="14.796996278478487"><ele>370.0</ele><time>2026-04-25T11:35:40.02Z</time></trkpt><trkpt lat="41.24716840004254" lon="14.797195006791634"><ele>378.5</ele><time>2026-04-25T11:35:41.021Z</time></trkpt><trkpt lat="41.24741335993949" lon="14.797394565010014"><ele>387.0</ele><time>2026-04-25T11:35:42.022Z</time></trkpt><trkpt lat="41.247667382876244" lon="14.797605950787721"><ele>388.0</ele><time>2026-04-25T11:35:43.022Z</time></trkpt><trkpt lat="41.24791303410084" lon="14.797807677297218"><ele>389.0</ele><time>2026-04-25T11:35:44.023Z</time></trkpt><trkpt lat="41.248150478165364" lon="14.79799284236046"><ele>344.0</ele><time>2026-04-25T11:35:45.019Z</time></trkpt><trkpt lat="41.25051474668202" lon="14.802492884932832"><ele>333.5</ele><time>2026-04-25T11:35:58Z</time></trkpt><trkpt lat="41.25065850663085" lon="14.802860030312988"><ele>323.0</ele><time>2026-04-25T11:35:59Z</time></trkpt><trkpt lat="41.25075108714731" lon="14.803326258653398"><ele>321.0</ele><time>2026-04-25T11:36:00Z</time></trkpt><trkpt lat="41.25085207342598" lon="14.803723233217998"><ele>319.0</ele><time>2026-04-25T11:36:01Z</time></trkpt><trkpt lat="41.25097504885056" lon="14.80412452492135"><ele>320.0</ele><time>2026-04-25T11:36:02Z</time></trkpt><trkpt lat="41.251044418469064" lon="14.804535421172547"><ele>321.0</ele><time>2026-04-25T11:36:03Z</time></trkpt><trkpt lat="41.251138484212724" lon="14.804933847678601"><ele>320.0</ele><time>2026-04-25T11:36:04Z</time></trkpt><trkpt lat="41.251222462758" lon="14.805332901228738"><ele>319.0</ele><time>2026-04-25T11:36:05Z</time></trkpt><trkpt lat="41.25129349391069" lon="14.80573155154743"><ele>315.0</ele><time>2026-04-25T11:36:06Z</time></trkpt><trkpt lat="41.25133872167043" lon="14.806139012795379"><ele>311.0</ele><time>2026-04-25T11:36:07Z</time></trkpt><trkpt lat="41.251391530128416" lon="14.806543529867257"><ele>308.0</ele><time>2026-04-25T11:36:08Z</time></trkpt><trkpt lat="41.25143777603336" lon="14.806943598746079"><ele>305.0</ele><time>2026-04-25T11:36:09Z</time></trkpt><trkpt lat="41.25146463317217" lon="14.807355987111709"><ele>297.5</ele><time>2026-04-25T11:36:10Z</time></trkpt><trkpt lat="41.25150534622814" lon="14.807760530153987"><ele>290.0</ele><time>2026-04-25T11:36:11Z</time></trkpt><trkpt lat="41.251530440536484" lon="14.808172983306655"><ele>291.0</ele><time>2026-04-25T11:36:12Z</time></trkpt><trkpt lat="41.251507413313696" lon="14.808580505399691"><ele>292.0</ele><time>2026-04-25T11:36:13Z</time></trkpt><trkpt lat="41.25152426687646" lon="14.808993198530015"><ele>296.0</ele><time>2026-04-25T11:36:14Z</time></trkpt><trkpt lat="41.25153748346922" lon="14.809401935068488"><ele>300.0</ele><time>2026-04-25T11:36:15Z</time></trkpt><trkpt lat="41.25155148097446" lon="14.809803987341843"><ele>303.0</ele><time>2026-04-25T11:36:16Z</time></trkpt><trkpt lat="41.25156012661572" lon="14.810210579399017"><ele>306.0</ele><time>2026-04-25T11:36:17Z</time></trkpt><trkpt lat="41.25156803161437" lon="14.810617909739397"><ele>305.0</ele><time>2026-04-25T11:36:18Z</time></trkpt><trkpt lat="41.25157646214534" lon="14.811018652743396"><ele>304.0</ele><time>2026-04-25T11:36:19Z</time></trkpt><trkpt lat="41.25158601088994" lon="14.81141327467963"><ele>304.0</ele><time>2026-04-25T11:36:20Z</time></trkpt><trkpt lat="41.251596289262615" lon="14.811805190328782"><ele>304.0</ele><time>2026-04-25T11:36:21Z</time></trkpt><trkpt lat="41.25160833198206" lon="14.812193446471278"><ele>299.0</ele><time>2026-04-25T11:36:22Z</time></trkpt><trkpt lat="41.25161805840654" lon="14.812581830112883"><ele>294.0</ele><time>2026-04-25T11:36:23Z</time></trkpt><trkpt lat="41.25163313638114" lon="14.812971598629986"><ele>291.0</ele><time>2026-04-25T11:36:24Z</time></trkpt><trkpt lat="41.25164839411779" lon="14.81335185815973"><ele>288.0</ele><time>2026-04-25T11:36:25Z</time></trkpt><trkpt lat="41.251672287146164" lon="14.813740848679462"><ele>288.0</ele><time>2026-04-25T11:36:26Z</time></trkpt><trkpt lat="41.25170104951953" lon="14.814123764309826"><ele>288.0</ele><time>2026-04-25T11:36:27Z</time></trkpt><trkpt lat="41.25173583670702" lon="14.814506798179611"><ele>293.0</ele><time>2026-04-25T11:36:28Z</time></trkpt><trkpt lat="41.2517728894032" lon="14.81488057748174"><ele>298.0</ele><time>2026-04-25T11:36:29Z</time></trkpt><trkpt lat="41.251818883360414" lon="14.815260348425976"><ele>303.5</ele><time>2026-04-25T11:36:30Z</time></trkpt><trkpt lat="41.25186502254468" lon="14.815635867647384"><ele>309.0</ele><time>2026-04-25T11:36:31Z</time></trkpt><trkpt lat="41.25191167533155" lon="14.816008632147913"><ele>315.0</ele><time>2026-04-25T11:36:32Z</time></trkpt><trkpt lat="41.25196447842639" lon="14.816384310626416"><ele>321.0</ele><time>2026-04-25T11:36:33Z</time></trkpt><trkpt lat="41.25202191450111" lon="14.816754435533374"><ele>327.5</ele><time>2026-04-25T11:36:34Z</time></trkpt><trkpt lat="41.25208309615228" lon="14.817130527673163"><ele>334.0</ele><time>2026-04-25T11:36:35Z</time></trkpt><trkpt lat="41.25214842975989" lon="14.817498148352964"><ele>333.5</ele><time>2026-04-25T11:36:36.002Z</time></trkpt><trkpt lat="41.252217890205934" lon="14.817864271885142"><ele>333.0</ele><time>2026-04-25T11:36:37.002Z</time></trkpt><trkpt lat="41.25229356384997" lon="14.818228733086631"><ele>337.0</ele><time>2026-04-25T11:36:38.002Z</time></trkpt><trkpt lat="41.25236261413924" lon="14.818585539246222"><ele>341.0</ele><time>2026-04-25T11:36:39.002Z</time></trkpt><trkpt lat="41.25243034695546" lon="14.818944838992563"><ele>341.0</ele><time>2026-04-25T11:36:40.002Z</time></trkpt><trkpt lat="41.25251272594875" lon="14.819297338522137"><ele>341.0</ele><time>2026-04-25T11:36:41.002Z</time></trkpt><trkpt lat="41.25258044860765" lon="14.819650754008936"><ele>345.0</ele><time>2026-04-25T11:36:42.002Z</time></trkpt><trkpt lat="41.25264511772491" lon="14.819998926680022"><ele>349.0</ele><time>2026-04-25T11:36:43.002Z</time></trkpt><trkpt lat="41.25271116394061" lon="14.820348635868354"><ele>352.5</ele><time>2026-04-25T11:36:44.002Z</time></trkpt><trkpt lat="41.252779875472314" lon="14.820702902546163"><ele>356.0</ele><time>2026-04-25T11:36:45.002Z</time></trkpt><trkpt lat="41.2528485681303" lon="14.821052615516505"><ele>359.5</ele><time>2026-04-25T11:36:46.001Z</time></trkpt><trkpt lat="41.252921490769864" lon="14.82140422212031"><ele>363.0</ele><time>2026-04-25T11:36:47.001Z</time></trkpt><trkpt lat="41.252994600127586" lon="14.821752481794027"><ele>367.5</ele><time>2026-04-25T11:36:48.001Z</time></trkpt><trkpt lat="41.253066070212704" lon="14.822097735133088"><ele>372.0</ele><time>2026-04-25T11:36:49.001Z</time></trkpt><trkpt lat="41.2531364998768" lon="14.822449833553604"><ele>379.5</ele><time>2026-04-25T11:36:50.018Z</time></trkpt><trkpt lat="41.25320862420594" lon="14.822794310755372"><ele>387.0</ele><time>2026-04-25T11:36:51.02Z</time></trkpt><trkpt lat="41.25327824752856" lon="14.823139692997417"><ele>392.5</ele><time>2026-04-25T11:36:52.018Z</time></trkpt><trkpt lat="41.253348324364495" lon="14.823484159166732"><ele>398.0</ele><time>2026-04-25T11:36:53.02Z</time></trkpt><trkpt lat="41.253419721297604" lon="14.823825208465877"><ele>413.0</ele><time>2026-04-25T11:36:54.02Z</time></trkpt><trkpt lat="41.25423996240546" lon="14.825692528200788"><ele>413.0</ele><time>2026-04-25T11:36:57.629Z</time></trkpt><trkpt lat="41.25447023543608" lon="14.826205103638413"><ele>413.0</ele><time>2026-04-25T11:36:58.629Z</time></trkpt><trkpt lat="41.25471611621879" lon="14.82670481909636"><ele>412.5</ele><time>2026-04-25T11:36:59.629Z</time></trkpt><trkpt lat="41.25497477764738" lon="14.827193007368987"><ele>412.0</ele><time>2026-04-25T11:37:00.629Z</time></trkpt><trkpt lat="41.25525108426454" lon="14.827663907308663"><ele>412.0</ele><time>2026-04-25T11:37:01.629Z</time></trkpt><trkpt lat="41.255539393554564" lon="14.82812205310055"><ele>412.0</ele><time>2026-04-25T11:37:02.629Z</time></trkpt><trkpt lat="41.2555846" lon="14.8281925"><ele>429.0</ele><time>2026-04-25T11:37:03.625Z</time></trkpt><trkpt lat="41.25995038081078" lon="14.832325419424876"><ele>429.0</ele><time>2026-04-25T11:37:53Z</time></trkpt><trkpt lat="41.2602057586128" lon="14.832470494647922"><ele>429.0</ele><time>2026-04-25T11:37:54Z</time></trkpt><trkpt lat="41.26044349493086" lon="14.832702207028786"><ele>426.5</ele><time>2026-04-25T11:37:55Z</time></trkpt><trkpt lat="41.26072325771689" lon="14.832879734884356"><ele>424.0</ele><time>2026-04-25T11:37:56Z</time></trkpt><trkpt lat="41.2610182234466" lon="14.833045992593972"><ele>424.0</ele><time>2026-04-25T11:37:57Z</time></trkpt><trkpt lat="41.26132272015021" lon="14.833220827008754"><ele>424.0</ele><time>2026-04-25T11:37:58Z</time></trkpt><trkpt lat="41.2616263801084" lon="14.833398712061566"><ele>424.0</ele><time>2026-04-25T11:37:59Z</time></trkpt><trkpt lat="41.26193487622027" lon="14.83356263072359"><ele>424.0</ele><time>2026-04-25T11:38:00Z</time></trkpt><trkpt lat="41.26223908008601" lon="14.833733537850271"><ele>424.0</ele><time>2026-04-25T11:38:01Z</time></trkpt><trkpt lat="41.26254004984703" lon="14.833897064793963"><ele>424.0</ele><time>2026-04-25T11:38:02Z</time></trkpt><trkpt lat="41.262839824940826" lon="14.834062774880305"><ele>424.0</ele><time>2026-04-25T11:38:03Z</time></trkpt><trkpt lat="41.26313163335231" lon="14.834229612486649"><ele>424.0</ele><time>2026-04-25T11:38:04Z</time></trkpt><trkpt lat="41.26343147596654" lon="14.834394554999157"><ele>425.5</ele><time>2026-04-25T11:38:05Z</time></trkpt><trkpt lat="41.26371424399766" lon="14.834557675325602"><ele>427.0</ele><time>2026-04-25T11:38:06Z</time></trkpt><trkpt lat="41.26397846953335" lon="14.834714382694907"><ele>427.0</ele><time>2026-04-25T11:38:07Z</time></trkpt><trkpt lat="41.264233179750605" lon="14.83488203243327"><ele>427.0</ele><time>2026-04-25T11:38:08Z</time></trkpt><trkpt lat="41.264650794992896" lon="14.835004182302692"><ele>426.0</ele><time>2026-04-25T11:38:09Z</time></trkpt><trkpt lat="41.264956855530315" lon="14.835146076288064"><ele>425.0</ele><time>2026-04-25T11:38:10Z</time></trkpt><trkpt lat="41.265260367510535" lon="14.835280880810565"><ele>425.0</ele><time>2026-04-25T11:38:11Z</time></trkpt><trkpt lat="41.26556843265621" lon="14.835407386093754"><ele>425.0</ele><time>2026-04-25T11:38:12Z</time></trkpt><trkpt lat="41.26588241477367" lon="14.835526572279427"><ele>426.0</ele><time>2026-04-25T11:38:13Z</time></trkpt><trkpt lat="41.26617886231029" lon="14.835645239559458"><ele>427.0</ele><time>2026-04-25T11:38:14Z</time></trkpt><trkpt lat="41.266447893693375" lon="14.83576714102125"><ele>427.0</ele><time>2026-04-25T11:38:15Z</time></trkpt><trkpt lat="41.266747719711375" lon="14.835875557286867"><ele>427.0</ele><time>2026-04-25T11:38:16Z</time></trkpt><trkpt lat="41.26704296437802" lon="14.835980872440027"><ele>432.0</ele><time>2026-04-25T11:38:17Z</time></trkpt><trkpt lat="41.2673410290983" lon="14.836082237617955"><ele>437.0</ele><time>2026-04-25T11:38:18Z</time></trkpt><trkpt lat="41.26763932382542" lon="14.836178532594587"><ele>437.0</ele><time>2026-04-25T11:38:19Z</time></trkpt><trkpt lat="41.267942203851" lon="14.836290173145372"><ele>437.0</ele><time>2026-04-25T11:38:20Z</time></trkpt><trkpt lat="41.26824498322116" lon="14.836388345332317"><ele>440.0</ele><time>2026-04-25T11:38:21Z</time></trkpt><trkpt lat="41.268541791900276" lon="14.836484559539418"><ele>443.0</ele><time>2026-04-25T11:38:22Z</time></trkpt><trkpt lat="41.268843080922075" lon="14.836582524270852"><ele>444.5</ele><time>2026-04-25T11:38:23Z</time></trkpt><trkpt lat="41.26913792812651" lon="14.8366842868824"><ele>446.0</ele><time>2026-04-25T11:38:24Z</time></trkpt><trkpt lat="41.26943065247072" lon="14.83678965126806"><ele>449.0</ele><time>2026-04-25T11:38:25Z</time></trkpt><trkpt lat="41.26972161318904" lon="14.836892896238673"><ele>452.0</ele><time>2026-04-25T11:38:26Z</time></trkpt><trkpt lat="41.2700121659549" lon="14.837001173575624"><ele>453.5</ele><time>2026-04-25T11:38:27Z</time></trkpt><trkpt lat="41.27030166838837" lon="14.837101307256647"><ele>455.0</ele><time>2026-04-25T11:38:28Z</time></trkpt><trkpt lat="41.27059078524363" lon="14.837205529430285"><ele>457.5</ele><time>2026-04-25T11:38:29Z</time></trkpt><trkpt lat="41.270879671232834" lon="14.837303190567269"><ele>460.0</ele><time>2026-04-25T11:38:30Z</time></trkpt><trkpt lat="41.271157854040396" lon="14.837395374800913"><ele>461.5</ele><time>2026-04-25T11:38:31Z</time></trkpt><trkpt lat="41.2714613192675" lon="14.837475286015222"><ele>463.0</ele><time>2026-04-25T11:38:32Z</time></trkpt><trkpt lat="41.27175564025654" lon="14.837569047339562"><ele>465.0</ele><time>2026-04-25T11:38:33Z</time></trkpt><trkpt lat="41.27198622724125" lon="14.837651945899404"><ele>467.0</ele><time>2026-04-25T11:38:34Z</time></trkpt><trkpt lat="41.27226007827276" lon="14.83774471281431"><ele>464.0</ele><time>2026-04-25T11:38:35Z</time></trkpt><trkpt lat="41.272526726493865" lon="14.83783678064866"><ele>461.0</ele><time>2026-04-25T11:38:36Z</time></trkpt><trkpt lat="41.272794059221845" lon="14.837929066639544"><ele>461.0</ele><time>2026-04-25T11:38:37Z</time></trkpt><trkpt lat="41.27306248098349" lon="14.838025411534497"><ele>461.0</ele><time>2026-04-25T11:38:38Z</time></trkpt><trkpt lat="41.27332491866834" lon="14.83811853245353"><ele>456.5</ele><time>2026-04-25T11:38:39Z</time></trkpt><trkpt lat="41.27359360731801" lon="14.838209224203595"><ele>452.0</ele><time>2026-04-25T11:38:40Z</time></trkpt><trkpt lat="41.273859675990266" lon="14.838303869477059"><ele>452.0</ele><time>2026-04-25T11:38:41Z</time></trkpt><trkpt lat="41.274125325932" lon="14.838393379637228"><ele>452.0</ele><time>2026-04-25T11:38:42.002Z</time></trkpt><trkpt lat="41.274363631251695" lon="14.838476891196835"><ele>457.0</ele><time>2026-04-25T11:38:43.002Z</time></trkpt><trkpt lat="41.27459491514495" lon="14.838562190574466"><ele>462.0</ele><time>2026-04-25T11:38:44.002Z</time></trkpt><trkpt lat="41.2748192881426" lon="14.838644100176957"><ele>462.5</ele><time>2026-04-25T11:38:45.002Z</time></trkpt><trkpt lat="41.27504094701137" lon="14.838728207336443"><ele>463.0</ele><time>2026-04-25T11:38:46.002Z</time></trkpt><trkpt lat="41.27526754760571" lon="14.838809014549982"><ele>463.0</ele><time>2026-04-25T11:38:47.002Z</time></trkpt><trkpt lat="41.27548882953041" lon="14.838885950963368"><ele>463.0</ele><time>2026-04-25T11:38:48.002Z</time></trkpt><trkpt lat="41.275681438793534" lon="14.83896191892439"><ele>463.0</ele><time>2026-04-25T11:38:49.002Z</time></trkpt><trkpt lat="41.27585540371172" lon="14.839035273337414"><ele>464.5</ele><time>2026-04-25T11:38:50.002Z</time></trkpt><trkpt lat="41.27594213672349" lon="14.83914969248091"><ele>466.0</ele><time>2026-04-25T11:38:51.002Z</time></trkpt><trkpt lat="41.27599842407518" lon="14.83930216908843"><ele>467.5</ele><time>2026-04-25T11:38:52.002Z</time></trkpt><trkpt lat="41.2760075032273" lon="14.839475242506662"><ele>469.0</ele><time>2026-04-25T11:38:53.002Z</time></trkpt><trkpt lat="41.27597129526386" lon="14.839661727011947"><ele>472.0</ele><time>2026-04-25T11:38:54.002Z</time></trkpt><trkpt lat="41.275872687092594" lon="14.839845326487396"><ele>475.0</ele><time>2026-04-25T11:38:55.002Z</time></trkpt><trkpt lat="41.27576396186952" lon="14.840084472697974"><ele>478.0</ele><time>2026-04-25T11:38:56.002Z</time></trkpt><trkpt lat="41.2756754215389" lon="14.840295017993716"><ele>479.0</ele><time>2026-04-25T11:38:57.001Z</time></trkpt><trkpt lat="41.275559613472716" lon="14.840223542974563"><ele>480.0</ele><time>2026-04-25T11:38:58.001Z</time></trkpt><trkpt lat="41.27540321330866" lon="14.840183044574104"><ele>481.0</ele><time>2026-04-25T11:38:59.001Z</time></trkpt><trkpt lat="41.275207313859646" lon="14.84021350376488"><ele>481.0</ele><time>2026-04-25T11:39:00.001Z</time></trkpt><trkpt lat="41.27503888555905" lon="14.840238017707785"><ele>481.0</ele><time>2026-04-25T11:39:01.001Z</time></trkpt><trkpt lat="41.27492945569087" lon="14.840245001849025"><ele>481.0</ele><time>2026-04-25T11:39:02.001Z</time></trkpt><trkpt lat="41.27484531861055" lon="14.840158424493147"><ele>481.0</ele><time>2026-04-25T11:39:04.001Z</time></trkpt><trkpt lat="41.27483168644435" lon="14.840072801672605"><ele>478.6666666666667</ele><time>2026-04-25T11:39:05.001Z</time></trkpt><trkpt lat="41.27494281247113" lon="14.839800886813169"><ele>476.33333333333337</ele><time>2026-04-25T11:39:08.001Z</time></trkpt><trkpt lat="41.27506274064518" lon="14.83964490631723"><ele>474.0</ele><time>2026-04-25T11:39:09.001Z</time></trkpt><trkpt lat="41.27520305720902" lon="14.839505278584252"><ele>474.0</ele><time>2026-04-25T11:39:10.001Z</time></trkpt><trkpt lat="41.27534617850962" lon="14.839365044017695"><ele>474.0</ele><time>2026-04-25T11:39:11.001Z</time></trkpt><trkpt lat="41.27548317245163" lon="14.839220981797826"><ele>474.0</ele><time>2026-04-25T11:39:12.001Z</time></trkpt><trkpt lat="41.27559003050167" lon="14.83902043843169"><ele>472.33333333333337</ele><time>2026-04-25T11:39:13.001Z</time></trkpt><trkpt lat="41.27567151873386" lon="14.838791110724545"><ele>470.6666666666667</ele><time>2026-04-25T11:39:14.001Z</time></trkpt><trkpt lat="41.27572795689429" lon="14.838586053046324"><ele>469.0</ele><time>2026-04-25T11:39:15.001Z</time></trkpt><trkpt lat="41.275768132091194" lon="14.838410218552864"><ele>468.6666666666667</ele><time>2026-04-25T11:39:16.001Z</time></trkpt><trkpt lat="41.275825710482856" lon="14.838308221433557"><ele>468.33333333333337</ele><time>2026-04-25T11:39:17.001Z</time></trkpt><trkpt lat="41.27589663390693" lon="14.838225552179706"><ele>468.0</ele><time>2026-04-25T11:39:18.001Z</time></trkpt><trkpt lat="41.27595944958276" lon="14.838141165353372"><ele>467.66666666666663</ele><time>2026-04-25T11:39:19.001Z</time></trkpt><trkpt lat="41.27598060653768" lon="14.838046419675003"><ele>467.3333333333333</ele><time>2026-04-25T11:39:20.001Z</time></trkpt><trkpt lat="41.275958365219125" lon="14.837946573484674"><ele>467.0</ele><time>2026-04-25T11:39:21.001Z</time></trkpt><trkpt lat="41.27589780748931" lon="14.83787180836701"><ele>467.0</ele><time>2026-04-25T11:39:22.001Z</time></trkpt><trkpt lat="41.27579251103659" lon="14.837837667535068"><ele>467.00000000000006</ele><time>2026-04-25T11:39:23.001Z</time></trkpt><trkpt lat="41.27571068809411" lon="14.83777509250623"><ele>467.00000000000006</ele><time>2026-04-25T11:39:24.001Z</time></trkpt><trkpt lat="41.27564444572081" lon="14.837652217459958"><ele>467.0</ele><time>2026-04-25T11:39:25.001Z</time></trkpt><trkpt lat="41.27563371535305" lon="14.837502678206777"><ele>467.0</ele><time>2026-04-25T11:39:26.001Z</time></trkpt><trkpt lat="41.27566251814834" lon="14.837339401894452"><ele>467.25</ele><time>2026-04-25T11:39:27.001Z</time></trkpt><trkpt lat="41.27574746869839" lon="14.837170349858805"><ele>467.5</ele><time>2026-04-25T11:39:28.001Z</time></trkpt><trkpt lat="41.2758627950164" lon="14.83705899576625"><ele>467.75</ele><time>2026-04-25T11:39:29.001Z</time></trkpt><trkpt lat="41.2759887470987" lon="14.836978344303624"><ele>468.0</ele><time>2026-04-25T11:39:30.001Z</time></trkpt><trkpt lat="41.27614093683325" lon="14.83686364107963"><ele>466.0</ele><time>2026-04-25T11:39:31Z</time></trkpt><trkpt lat="41.27630859759659" lon="14.836762910706282"><ele>464.0</ele><time>2026-04-25T11:39:32Z</time></trkpt><trkpt lat="41.276482547011575" lon="14.836690307891265"><ele>462.0</ele><time>2026-04-25T11:39:33Z</time></trkpt><trkpt lat="41.27664244818232" lon="14.836647876279365"><ele>462.0</ele><time>2026-04-25T11:39:34Z</time></trkpt><trkpt lat="41.27682740102888" lon="14.83664118650369"><ele>462.0</ele><time>2026-04-25T11:39:35Z</time></trkpt><trkpt lat="41.27704483246894" lon="14.83665191697983"><ele>462.0</ele><time>2026-04-25T11:39:36Z</time></trkpt><trkpt lat="41.277298400184506" lon="14.836665493143153"><ele>461.5</ele><time>2026-04-25T11:39:37Z</time></trkpt><trkpt lat="41.27753674480903" lon="14.836678254259525"><ele>461.0</ele><time>2026-04-25T11:39:38Z</time></trkpt><trkpt lat="41.27775354537761" lon="14.836689861896096"><ele>461.0</ele><time>2026-04-25T11:39:39Z</time></trkpt><trkpt lat="41.277955909740584" lon="14.836701991016158"><ele>461.0</ele><time>2026-04-25T11:39:40Z</time></trkpt><trkpt lat="41.278139212341785" lon="14.836697615913659"><ele>461.0</ele><time>2026-04-25T11:39:41Z</time></trkpt><trkpt lat="41.278306110740104" lon="14.836720246873329"><ele>460.75</ele><time>2026-04-25T11:39:42Z</time></trkpt><trkpt lat="41.27844191213831" lon="14.83672602635167"><ele>460.5</ele><time>2026-04-25T11:39:43Z</time></trkpt><trkpt lat="41.27855809010488" lon="14.83668495320044"><ele>460.25</ele><time>2026-04-25T11:39:44Z</time></trkpt><trkpt lat="41.27864838695331" lon="14.83659323428143"><ele>460.0</ele><time>2026-04-25T11:39:45Z</time></trkpt><trkpt lat="41.278723058294155" lon="14.836460844982176"><ele>460.0</ele><time>2026-04-25T11:39:46Z</time></trkpt><trkpt lat="41.278705582252904" lon="14.836280319094973"><ele>460.0</ele><time>2026-04-25T11:39:47Z</time></trkpt><trkpt lat="41.27864614352843" lon="14.836104339805084"><ele>460.0</ele><time>2026-04-25T11:39:48Z</time></trkpt><trkpt lat="41.27853314371627" lon="14.835917976357475"><ele>458.0</ele><time>2026-04-25T11:39:49Z</time></trkpt><trkpt lat="41.2783574225284" lon="14.835715652307691"><ele>456.0</ele><time>2026-04-25T11:39:50Z</time></trkpt><trkpt lat="41.27820273904637" lon="14.835512372050166"><ele>453.0</ele><time>2026-04-25T11:39:51Z</time></trkpt><trkpt lat="41.27802699527532" lon="14.83531875455624"><ele>450.0</ele><time>2026-04-25T11:39:52Z</time></trkpt><trkpt lat="41.27782415390353" lon="14.835144891150122"><ele>449.5</ele><time>2026-04-25T11:39:53Z</time></trkpt><trkpt lat="41.277630445105" lon="14.834965822588831"><ele>449.0</ele><time>2026-04-25T11:39:54Z</time></trkpt><trkpt lat="41.27745240827605" lon="14.834799603891387"><ele>449.0</ele><time>2026-04-25T11:39:55Z</time></trkpt><trkpt lat="41.277292035923914" lon="14.83464269670512"><ele>449.0</ele><time>2026-04-25T11:39:56Z</time></trkpt><trkpt lat="41.27713151906106" lon="14.834492718494113"><ele>449.0</ele><time>2026-04-25T11:39:57Z</time></trkpt><trkpt lat="41.27700715407126" lon="14.834333082458414"><ele>447.75</ele><time>2026-04-25T11:39:58Z</time></trkpt><trkpt lat="41.27690495467257" lon="14.834179890944888"><ele>446.5</ele><time>2026-04-25T11:39:59Z</time></trkpt><trkpt lat="41.276861830681796" lon="14.83402658603204"><ele>445.25</ele><time>2026-04-25T11:40:00Z</time></trkpt><trkpt lat="41.2768818613673" lon="14.833873539344625"><ele>444.0</ele><time>2026-04-25T11:40:01Z</time></trkpt><trkpt lat="41.27693943176282" lon="14.833728546564963"><ele>444.0</ele><time>2026-04-25T11:40:02Z</time></trkpt><trkpt lat="41.27703729689068" lon="14.833523081154796"><ele>444.0</ele><time>2026-04-25T11:40:03Z</time></trkpt><trkpt lat="41.277138342646786" lon="14.8333577428955"><ele>444.0</ele><time>2026-04-25T11:40:04Z</time></trkpt><trkpt lat="41.27726706448539" lon="14.833267338294096"><ele>444.0</ele><time>2026-04-25T11:40:05Z</time></trkpt><trkpt lat="41.27744397606845" lon="14.833222611550283"><ele>444.0</ele><time>2026-04-25T11:40:06Z</time></trkpt><trkpt lat="41.2776454684335" lon="14.833158249791571"><ele>444.0</ele><time>2026-04-25T11:40:07Z</time></trkpt><trkpt lat="41.277841716204456" lon="14.83308977874606"><ele>444.0</ele><time>2026-04-25T11:40:08Z</time></trkpt><trkpt lat="41.278013020247144" lon="14.832990885552931"><ele>444.0</ele><time>2026-04-25T11:40:09Z</time></trkpt><trkpt lat="41.27819410963468" lon="14.832861611593003"><ele>444.0</ele><time>2026-04-25T11:40:10Z</time></trkpt><trkpt lat="41.27835781561517" lon="14.83269214807561"><ele>441.0</ele><time>2026-04-25T11:40:11Z</time></trkpt><trkpt lat="41.278510629180886" lon="14.832494423544755"><ele>438.0</ele><time>2026-04-25T11:40:12Z</time></trkpt><trkpt lat="41.27864739337326" lon="14.83224719603758"><ele>435.0</ele><time>2026-04-25T11:40:13Z</time></trkpt><trkpt lat="41.27876609894042" lon="14.832001722187428"><ele>434.66666666666663</ele><time>2026-04-25T11:40:14Z</time></trkpt><trkpt lat="41.278888595875294" lon="14.831803119169658"><ele>434.3333333333333</ele><time>2026-04-25T11:40:15Z</time></trkpt><trkpt lat="41.278984363649954" lon="14.831595254608077"><ele>434.0</ele><time>2026-04-25T11:40:16Z</time></trkpt><trkpt lat="41.279067395774746" lon="14.831374563636407"><ele>434.0</ele><time>2026-04-25T11:40:17Z</time></trkpt><trkpt lat="41.27911276413495" lon="14.831138119119332"><ele>434.0</ele><time>2026-04-25T11:40:18Z</time></trkpt><trkpt lat="41.27916679816432" lon="14.830925177315917"><ele>434.0</ele><time>2026-04-25T11:40:19Z</time></trkpt><trkpt lat="41.279246991643" lon="14.830728148445992"><ele>432.3333333333333</ele><time>2026-04-25T11:40:20Z</time></trkpt><trkpt lat="41.27936433854894" lon="14.830542754152848"><ele>430.66666666666663</ele><time>2026-04-25T11:40:21Z</time></trkpt><trkpt lat="41.27951413441364" lon="14.830318950672499"><ele>429.0</ele><time>2026-04-25T11:40:22Z</time></trkpt><trkpt lat="41.27965551186777" lon="14.83008336943511"><ele>428.0</ele><time>2026-04-25T11:40:23Z</time></trkpt><trkpt lat="41.27980464425645" lon="14.82987297105912"><ele>427.0</ele><time>2026-04-25T11:40:24Z</time></trkpt><trkpt lat="41.2799235824231" lon="14.829682549454487"><ele>426.0</ele><time>2026-04-25T11:40:25Z</time></trkpt><trkpt lat="41.28000569528619" lon="14.82950247750634"><ele>423.33333333333337</ele><time>2026-04-25T11:40:26Z</time></trkpt><trkpt lat="41.28004307411553" lon="14.829286533609498"><ele>420.6666666666667</ele><time>2026-04-25T11:40:27Z</time></trkpt><trkpt lat="41.28007655275439" lon="14.829006290693806"><ele>418.0</ele><time>2026-04-25T11:40:28Z</time></trkpt><trkpt lat="41.280117276698306" lon="14.828761912656338"><ele>418.0</ele><time>2026-04-25T11:40:29Z</time></trkpt><trkpt lat="41.280157296570906" lon="14.828563821147117"><ele>418.0</ele><time>2026-04-25T11:40:30Z</time></trkpt><trkpt lat="41.280195968929426" lon="14.828399811569444"><ele>418.0</ele><time>2026-04-25T11:40:31Z</time></trkpt><trkpt lat="41.28026427066794" lon="14.82826472792007"><ele>418.0</ele><time>2026-04-25T11:40:32Z</time></trkpt><trkpt lat="41.280382226339626" lon="14.82818757983417"><ele>419.33333333333337</ele><time>2026-04-25T11:40:33Z</time></trkpt><trkpt lat="41.280531055767234" lon="14.828110239585188"><ele>420.66666666666663</ele><time>2026-04-25T11:40:34Z</time></trkpt><trkpt lat="41.2807234592479" lon="14.828029712847204"><ele>422.0</ele><time>2026-04-25T11:40:35Z</time></trkpt><trkpt lat="41.280928740737714" lon="14.827915245160634"><ele>422.0</ele><time>2026-04-25T11:40:36Z</time></trkpt><trkpt lat="41.281118271251124" lon="14.827793272725259"><ele>422.0</ele><time>2026-04-25T11:40:37Z</time></trkpt><trkpt lat="41.28130392965002" lon="14.827654446309909"><ele>422.0</ele><time>2026-04-25T11:40:38Z</time></trkpt><trkpt lat="41.281481759447516" lon="14.827464235850465"><ele>419.0</ele><time>2026-04-25T11:40:39Z</time></trkpt><trkpt lat="41.2816147773861" lon="14.82723955642258"><ele>416.0</ele><time>2026-04-25T11:40:40Z</time></trkpt><trkpt lat="41.28174173210196" lon="14.827026305654659"><ele>413.0</ele><time>2026-04-25T11:40:41Z</time></trkpt><trkpt lat="41.28186257750878" lon="14.82679986601387"><ele>409.0</ele><time>2026-04-25T11:40:42Z</time></trkpt><trkpt lat="41.281969010787456" lon="14.826585712918531"><ele>405.0</ele><time>2026-04-25T11:40:43Z</time></trkpt><trkpt lat="41.282087663943855" lon="14.826419218869644"><ele>401.0</ele><time>2026-04-25T11:40:44Z</time></trkpt><trkpt lat="41.28221125481946" lon="14.826271865127985"><ele>399.66666666666663</ele><time>2026-04-25T11:40:45Z</time></trkpt><trkpt lat="41.282363766417426" lon="14.82613703356775"><ele>398.33333333333337</ele><time>2026-04-25T11:40:46Z</time></trkpt><trkpt lat="41.2825491415769" lon="14.826017895132981"><ele>397.0</ele><time>2026-04-25T11:40:47Z</time></trkpt><trkpt lat="41.282748191564636" lon="14.825896672682685"><ele>397.0</ele><time>2026-04-25T11:40:48.001Z</time></trkpt><trkpt lat="41.28294094663697" lon="14.825761322713111"><ele>397.0</ele><time>2026-04-25T11:40:49.001Z</time></trkpt><trkpt lat="41.28313401428123" lon="14.825661829700202"><ele>397.0</ele><time>2026-04-25T11:40:50.001Z</time></trkpt><trkpt lat="41.283300310337545" lon="14.825565161790578"><ele>397.6666666666667</ele><time>2026-04-25T11:40:51.001Z</time></trkpt><trkpt lat="41.283455714929936" lon="14.8255110835399"><ele>398.33333333333337</ele><time>2026-04-25T11:40:52.001Z</time></trkpt><trkpt lat="41.2836142118025" lon="14.825515013881583"><ele>399.0</ele><time>2026-04-25T11:40:53.001Z</time></trkpt><trkpt lat="41.28380337371623" lon="14.825573869231778"><ele>396.0</ele><time>2026-04-25T11:40:54.001Z</time></trkpt><trkpt lat="41.28403973784941" lon="14.825641264302126"><ele>393.0</ele><time>2026-04-25T11:40:55.001Z</time></trkpt><trkpt lat="41.28427496804149" lon="14.825690909940754"><ele>393.0</ele><time>2026-04-25T11:40:56.001Z</time></trkpt><trkpt lat="41.28447662582131" lon="14.82575285801204"><ele>393.0</ele><time>2026-04-25T11:40:57.001Z</time></trkpt><trkpt lat="41.284647718736366" lon="14.82581091322444"><ele>393.0</ele><time>2026-04-25T11:40:58.001Z</time></trkpt><trkpt lat="41.28481641177508" lon="14.82584133116905"><ele>392.33333333333337</ele><time>2026-04-25T11:40:59.001Z</time></trkpt><trkpt lat="41.284996521702205" lon="14.82581017813915"><ele>391.6666666666667</ele><time>2026-04-25T11:41:00.001Z</time></trkpt><trkpt lat="41.285177153320255" lon="14.825724439229978"><ele>391.0</ele><time>2026-04-25T11:41:01.001Z</time></trkpt><trkpt lat="41.28536594205313" lon="14.825586066616781"><ele>391.0</ele><time>2026-04-25T11:41:02.001Z</time></trkpt><trkpt lat="41.28556203448862" lon="14.825492159674724"><ele>391.0</ele><time>2026-04-25T11:41:03.001Z</time></trkpt><trkpt lat="41.28574469835206" lon="14.8254322648849"><ele>391.0</ele><time>2026-04-25T11:41:04.001Z</time></trkpt><trkpt lat="41.28590452280948" lon="14.825355419904499"><ele>390.33333333333337</ele><time>2026-04-25T11:41:05.001Z</time></trkpt><trkpt lat="41.28605575012254" lon="14.825288237931979"><ele>389.66666666666663</ele><time>2026-04-25T11:41:06.001Z</time></trkpt><trkpt lat="41.286186422100826" lon="14.82518172010298"><ele>389.0</ele><time>2026-04-25T11:41:07.001Z</time></trkpt><trkpt lat="41.28628964386567" lon="14.825019085627405"><ele>386.66666666666663</ele><time>2026-04-25T11:41:08.001Z</time></trkpt><trkpt lat="41.28635765490475" lon="14.824812036207144"><ele>384.3333333333333</ele><time>2026-04-25T11:41:09Z</time></trkpt><trkpt lat="41.28640994359201" lon="14.824593084080822"><ele>382.0</ele><time>2026-04-25T11:41:10Z</time></trkpt><trkpt lat="41.2865003336112" lon="14.824426905495374"><ele>379.0</ele><time>2026-04-25T11:41:11Z</time></trkpt><trkpt lat="41.286594416817074" lon="14.824292234745277"><ele>376.0</ele><time>2026-04-25T11:41:12Z</time></trkpt><trkpt lat="41.28672022994922" lon="14.824222343088763"><ele>373.0</ele><time>2026-04-25T11:41:13Z</time></trkpt><trkpt lat="41.28688025601934" lon="14.824188053906894"><ele>370.0</ele><time>2026-04-25T11:41:14Z</time></trkpt><trkpt lat="41.287075205502255" lon="14.82414167951384"><ele>371.0</ele><time>2026-04-25T11:41:15Z</time></trkpt><trkpt lat="41.287289109682035" lon="14.824120230720567"><ele>372.0</ele><time>2026-04-25T11:41:16Z</time></trkpt><trkpt lat="41.28750115043332" lon="14.824151349061825"><ele>373.0</ele><time>2026-04-25T11:41:17Z</time></trkpt><trkpt lat="41.28771991832431" lon="14.824185611346254"><ele>373.0</ele><time>2026-04-25T11:41:18Z</time></trkpt><trkpt lat="41.287923624193034" lon="14.82421751470544"><ele>373.0</ele><time>2026-04-25T11:41:19Z</time></trkpt><trkpt lat="41.28810616916343" lon="14.824227662421013"><ele>373.0</ele><time>2026-04-25T11:41:20Z</time></trkpt><trkpt lat="41.28827909034026" lon="14.824275058574889"><ele>378.0</ele><time>2026-04-25T11:41:21Z</time></trkpt><trkpt lat="41.2884600390674" lon="14.824314079712721"><ele>383.0</ele><time>2026-04-25T11:41:22Z</time></trkpt><trkpt lat="41.28861162927358" lon="14.824373667766624"><ele>388.0</ele><time>2026-04-25T11:41:23Z</time></trkpt><trkpt lat="41.28874989019441" lon="14.824486829817701"><ele>388.0</ele><time>2026-04-25T11:41:24Z</time></trkpt><trkpt lat="41.28887345799078" lon="14.82465021415369"><ele>388.0</ele><time>2026-04-25T11:41:25Z</time></trkpt><trkpt lat="41.28900341318391" lon="14.824841144287273"><ele>388.0</ele><time>2026-04-25T11:41:26Z</time></trkpt><trkpt lat="41.289127175936024" lon="14.824997930117961"><ele>384.75</ele><time>2026-04-25T11:41:27Z</time></trkpt><trkpt lat="41.28922214684016" lon="14.82513422748813"><ele>381.5</ele><time>2026-04-25T11:41:28Z</time></trkpt><trkpt lat="41.28934225442203" lon="14.825217600491992"><ele>378.25</ele><time>2026-04-25T11:41:29Z</time></trkpt><trkpt lat="41.28949497167004" lon="14.825237961118594"><ele>375.0</ele><time>2026-04-25T11:41:30Z</time></trkpt><trkpt lat="41.28965935522887" lon="14.825221778175846"><ele>372.75</ele><time>2026-04-25T11:41:31Z</time></trkpt><trkpt lat="41.289812853990306" lon="14.825177775323109"><ele>370.5</ele><time>2026-04-25T11:41:32Z</time></trkpt><trkpt lat="41.289940814517415" lon="14.82517930325473"><ele>368.25</ele><time>2026-04-25T11:41:33Z</time></trkpt><trkpt lat="41.29006369408765" lon="14.825125748899561"><ele>366.0</ele><time>2026-04-25T11:41:34Z</time></trkpt><trkpt lat="41.29015188963183" lon="14.824975636235198"><ele>364.3333333333333</ele><time>2026-04-25T11:41:35Z</time></trkpt><trkpt lat="41.29021829435146" lon="14.824775886991773"><ele>362.66666666666663</ele><time>2026-04-25T11:41:36Z</time></trkpt><trkpt lat="41.290268346214795" lon="14.824515114943564"><ele>361.0</ele><time>2026-04-25T11:41:37Z</time></trkpt><trkpt lat="41.29029576785761" lon="14.824237951747953"><ele>360.3333333333333</ele><time>2026-04-25T11:41:38Z</time></trkpt><trkpt lat="41.29029048747719" lon="14.823973185141947"><ele>359.6666666666667</ele><time>2026-04-25T11:41:39Z</time></trkpt><trkpt lat="41.290274149429386" lon="14.8237686455998"><ele>359.0</ele><time>2026-04-25T11:41:40Z</time></trkpt><trkpt lat="41.29025837383361" lon="14.823609601363195"><ele>359.79999999999995</ele><time>2026-04-25T11:41:41Z</time></trkpt><trkpt lat="41.29026761603331" lon="14.823471059315237"><ele>360.59999999999997</ele><time>2026-04-25T11:41:42Z</time></trkpt><trkpt lat="41.29028927084328" lon="14.823363529634566"><ele>361.4</ele><time>2026-04-25T11:41:43Z</time></trkpt><trkpt lat="41.29036716693572" lon="14.823309576787283"><ele>362.2</ele><time>2026-04-25T11:41:44Z</time></trkpt><trkpt lat="41.29045564388003" lon="14.823283477923722"><ele>363.0</ele><time>2026-04-25T11:41:45Z</time></trkpt><trkpt lat="41.290534165736275" lon="14.823367732867544"><ele>362.0</ele><time>2026-04-25T11:41:46Z</time></trkpt><trkpt lat="41.290564917837294" lon="14.823527734036354"><ele>361.0</ele><time>2026-04-25T11:41:47Z</time></trkpt><trkpt lat="41.290629565148045" lon="14.823713404221015"><ele>360.0</ele><time>2026-04-25T11:41:48Z</time></trkpt><trkpt lat="41.29069162521919" lon="14.823888013458514"><ele>359.0</ele><time>2026-04-25T11:41:49Z</time></trkpt><trkpt lat="41.29074440382241" lon="14.824037352679346"><ele>362.6</ele><time>2026-04-25T11:41:50Z</time></trkpt><trkpt lat="41.290791612184755" lon="14.824170931855562"><ele>366.2</ele><time>2026-04-25T11:41:51Z</time></trkpt><trkpt lat="41.29083712669322" lon="14.824299717092716"><ele>369.8</ele><time>2026-04-25T11:41:52Z</time></trkpt><trkpt lat="41.29088022106841" lon="14.82442165481444"><ele>373.40000000000003</ele><time>2026-04-25T11:41:53Z</time></trkpt><trkpt lat="41.29092023071648" lon="14.824510811176058"><ele>377.0</ele><time>2026-04-25T11:41:54Z</time></trkpt><trkpt lat="41.29094754508707" lon="14.824604857259374"><ele>376.99999999999994</ele><time>2026-04-25T11:41:55Z</time></trkpt><trkpt lat="41.29098719196812" lon="14.824689381270709"><ele>377.0</ele><time>2026-04-25T11:41:56Z</time></trkpt><trkpt lat="41.29105038729676" lon="14.824735147587647"><ele>377.0</ele><time>2026-04-25T11:41:57Z</time></trkpt><trkpt lat="41.29111331310704" lon="14.82478051904506"><ele>377.0</ele><time>2026-04-25T11:41:58Z</time></trkpt><trkpt lat="41.291185105595986" lon="14.82481499211095"><ele>377.0</ele><time>2026-04-25T11:41:59Z</time></trkpt><trkpt lat="41.29125428839113" lon="14.824841109434793"><ele>376.99999999999994</ele><time>2026-04-25T11:42:00Z</time></trkpt><trkpt lat="41.291321258424794" lon="14.82485732313685"><ele>377.0</ele><time>2026-04-25T11:42:01Z</time></trkpt><trkpt lat="41.29138718387508" lon="14.82487255898745"><ele>378.1666666666667</ele><time>2026-04-25T11:42:02Z</time></trkpt><trkpt lat="41.29150323207077" lon="14.824939803086718"><ele>379.33333333333337</ele><time>2026-04-25T11:42:04Z</time></trkpt><trkpt lat="41.291572314208146" lon="14.824966279280885"><ele>380.5</ele><time>2026-04-25T11:42:05Z</time></trkpt><trkpt lat="41.29163831939701" lon="14.824996860249907"><ele>381.6666666666667</ele><time>2026-04-25T11:42:06Z</time></trkpt><trkpt lat="41.291706053120535" lon="14.825032116323147"><ele>382.8333333333333</ele><time>2026-04-25T11:42:07Z</time></trkpt><trkpt lat="41.29177844049709" lon="14.825069874297357"><ele>384.0</ele><time>2026-04-25T11:42:08Z</time></trkpt><trkpt lat="41.29184875774736" lon="14.825102235633375"><ele>384.0</ele><time>2026-04-25T11:42:09Z</time></trkpt><trkpt lat="41.29191998599754" lon="14.825123755600666"><ele>384.0</ele><time>2026-04-25T11:42:10Z</time></trkpt><trkpt lat="41.29199088243033" lon="14.825136481160138"><ele>384.0</ele><time>2026-04-25T11:42:11Z</time></trkpt><trkpt lat="41.292075841793014" lon="14.825135417194193"><ele>384.0</ele><time>2026-04-25T11:42:12Z</time></trkpt><trkpt lat="41.29214929581411" lon="14.825107867931788"><ele>384.0</ele><time>2026-04-25T11:42:13Z</time></trkpt><trkpt lat="41.29221625910577" lon="14.825095354410726"><ele>384.0</ele><time>2026-04-25T11:42:14Z</time></trkpt><trkpt lat="41.292300960032854" lon="14.825083259595363"><ele>385.0</ele><time>2026-04-25T11:42:14.999Z</time></trkpt><trkpt lat="41.29239006295092" lon="14.82509087125622"><ele>386.0</ele><time>2026-04-25T11:42:15.999Z</time></trkpt><trkpt lat="41.29248231064737" lon="14.825079218912778"><ele>387.0</ele><time>2026-04-25T11:42:16.999Z</time></trkpt><trkpt lat="41.29256071229505" lon="14.825067840811217"><ele>388.0</ele><time>2026-04-25T11:42:17.999Z</time></trkpt><trkpt lat="41.29263647026367" lon="14.825054588194968"><ele>389.0</ele><time>2026-04-25T11:42:18.999Z</time></trkpt><trkpt lat="41.292687119260115" lon="14.824955132326583"><ele>390.0</ele><time>2026-04-25T11:42:19.999Z</time></trkpt><trkpt lat="41.29265353438043" lon="14.824832690029627"><ele>390.0</ele><time>2026-04-25T11:42:20.999Z</time></trkpt><trkpt lat="41.2925974381089" lon="14.82474740126566"><ele>390.0</ele><time>2026-04-25T11:42:21.999Z</time></trkpt><trkpt lat="41.292519329384994" lon="14.824647984549522"><ele>390.0</ele><time>2026-04-25T11:42:22.999Z</time></trkpt><trkpt lat="41.29245086092148" lon="14.824488094613747"><ele>390.0</ele><time>2026-04-25T11:42:23.999Z</time></trkpt><trkpt lat="41.29236006114748" lon="14.824387916457157"><ele>390.0</ele><time>2026-04-25T11:42:24.999Z</time></trkpt><trkpt lat="41.292269685051316" lon="14.824279995881534"><ele>390.3333333333333</ele><time>2026-04-25T11:42:25.999Z</time></trkpt><trkpt lat="41.29219640677548" lon="14.824198193856141"><ele>390.66666666666663</ele><time>2026-04-25T11:42:26.999Z</time></trkpt><trkpt lat="41.29212896832357" lon="14.824123089461569"><ele>391.0</ele><time>2026-04-25T11:42:27.999Z</time></trkpt><trkpt lat="41.2920921268662" lon="14.82403548531939"><ele>391.3333333333333</ele><time>2026-04-25T11:42:28.999Z</time></trkpt><trkpt lat="41.292079844754866" lon="14.823952340342029"><ele>391.66666666666663</ele><time>2026-04-25T11:42:29.999Z</time></trkpt><trkpt lat="41.2921638621936" lon="14.823880476731699"><ele>392.0</ele><time>2026-04-25T11:42:31.999Z</time></trkpt><trkpt lat="41.29221979449763" lon="14.823953550301086"><ele>393.5</ele><time>2026-04-25T11:42:32.999Z</time></trkpt><trkpt lat="41.29235949592185" lon="14.824039388640104"><ele>395.0</ele><time>2026-04-25T11:42:33.999Z</time></trkpt><trkpt lat="41.29248636485255" lon="14.824132342929206"><ele>396.5</ele><time>2026-04-25T11:42:34.999Z</time></trkpt><trkpt lat="41.292572742882534" lon="14.82420992278189"><ele>398.0</ele><time>2026-04-25T11:42:35.999Z</time></trkpt><trkpt lat="41.292659694210336" lon="14.824288014628063"><ele>398.0</ele><time>2026-04-25T11:42:36.999Z</time></trkpt><trkpt lat="41.29273647299946" lon="14.824341921285846"><ele>398.0</ele><time>2026-04-25T11:42:37.999Z</time></trkpt><trkpt lat="41.29280542789355" lon="14.824364627036497"><ele>398.0</ele><time>2026-04-25T11:42:38.999Z</time></trkpt><trkpt lat="41.2928843307737" lon="14.824341774844829"><ele>398.0</ele><time>2026-04-25T11:42:39.999Z</time></trkpt><trkpt lat="41.292961326279126" lon="14.824225787641371"><ele>398.0</ele><time>2026-04-25T11:42:40.999Z</time></trkpt><trkpt lat="41.293024678258135" lon="14.824077246374568"><ele>398.0</ele><time>2026-04-25T11:42:41.999Z</time></trkpt><trkpt lat="41.29307448100959" lon="14.823951686589433"><ele>398.0</ele><time>2026-04-25T11:42:42.999Z</time></trkpt><trkpt lat="41.29311430213664" lon="14.823860151784281"><ele>398.0</ele><time>2026-04-25T11:42:43.999Z</time></trkpt><trkpt lat="41.29311477459933" lon="14.823744863162169"><ele>398.0</ele><time>2026-04-25T11:42:44.999Z</time></trkpt><trkpt lat="41.293107553354304" lon="14.823620642807308"><ele>398.0</ele><time>2026-04-25T11:42:45.999Z</time></trkpt><trkpt lat="41.292983765313" lon="14.823522265378083"><ele>400.0</ele><time>2026-04-25T11:42:46.999Z</time></trkpt><trkpt lat="41.292857692597515" lon="14.823424462342192"><ele>402.0</ele><time>2026-04-25T11:42:47.999Z</time></trkpt><trkpt lat="41.292748054091795" lon="14.823299567344279"><ele>404.0</ele><time>2026-04-25T11:42:48.999Z</time></trkpt><trkpt lat="41.292625684874295" lon="14.823206422041018"><ele>406.0</ele><time>2026-04-25T11:42:49.999Z</time></trkpt><trkpt lat="41.292498464510224" lon="14.823094029167759"><ele>406.0</ele><time>2026-04-25T11:42:50.999Z</time></trkpt><trkpt lat="41.29238045600415" lon="14.822983857124127"><ele>406.0</ele><time>2026-04-25T11:42:51.999Z</time></trkpt><trkpt lat="41.292261179708866" lon="14.822864083639052"><ele>406.0</ele><time>2026-04-25T11:42:52.999Z</time></trkpt><trkpt lat="41.29214538021172" lon="14.822742058502133"><ele>406.0</ele><time>2026-04-25T11:42:54.001Z</time></trkpt><trkpt lat="41.292028272016466" lon="14.822628598776705"><ele>406.0</ele><time>2026-04-25T11:42:55.001Z</time></trkpt><trkpt lat="41.29191966151655" lon="14.822526298795038"><ele>406.0</ele><time>2026-04-25T11:42:56.001Z</time></trkpt><trkpt lat="41.29181624682441" lon="14.82240509460958"><ele>406.0</ele><time>2026-04-25T11:42:57.001Z</time></trkpt><trkpt lat="41.29169868414086" lon="14.822291933808263"><ele>406.0</ele><time>2026-04-25T11:42:58.001Z</time></trkpt><trkpt lat="41.291571648181225" lon="14.822168462162445"><ele>406.0</ele><time>2026-04-25T11:42:59.001Z</time></trkpt><trkpt lat="41.29143865041055" lon="14.822048252193287"><ele>406.0</ele><time>2026-04-25T11:43:00.001Z</time></trkpt><trkpt lat="41.29132873086294" lon="14.82190640653145"><ele>406.0</ele><time>2026-04-25T11:43:01Z</time></trkpt><trkpt lat="41.29122952313137" lon="14.82180033596456"><ele>406.0</ele><time>2026-04-25T11:43:02Z</time></trkpt><trkpt lat="41.291144781019895" lon="14.821688074532442"><ele>406.20000000000005</ele><time>2026-04-25T11:43:03Z</time></trkpt><trkpt lat="41.29106950368449" lon="14.821584497264293"><ele>406.40000000000003</ele><time>2026-04-25T11:43:04Z</time></trkpt><trkpt lat="41.29102399470811" lon="14.8214826162964"><ele>406.6</ele><time>2026-04-25T11:43:05Z</time></trkpt><trkpt lat="41.29101547008238" lon="14.821341867578457"><ele>406.8</ele><time>2026-04-25T11:43:06Z</time></trkpt><trkpt lat="41.29106486560562" lon="14.821226561817637"><ele>407.0</ele><time>2026-04-25T11:43:07Z</time></trkpt><trkpt lat="41.29115078839622" lon="14.821135995197901"><ele>407.0</ele><time>2026-04-25T11:43:08Z</time></trkpt><trkpt lat="41.29123060027365" lon="14.821174179813225"><ele>407.0</ele><time>2026-04-25T11:43:09Z</time></trkpt><trkpt lat="41.29135566597133" lon="14.821140990576174"><ele>407.0</ele><time>2026-04-25T11:43:10Z</time></trkpt><trkpt lat="41.29148772601532" lon="14.82113527815266"><ele>407.0</ele><time>2026-04-25T11:43:11Z</time></trkpt><trkpt lat="41.29163675468372" lon="14.821122200384474"><ele>409.3333333333333</ele><time>2026-04-25T11:43:12Z</time></trkpt><trkpt lat="41.29178385184883" lon="14.82110902800488"><ele>411.66666666666663</ele><time>2026-04-25T11:43:13Z</time></trkpt><trkpt lat="41.29194466603728" lon="14.821044762302659"><ele>414.0</ele><time>2026-04-25T11:43:14Z</time></trkpt><trkpt lat="41.29210909178771" lon="14.82105159806861"><ele>415.25</ele><time>2026-04-25T11:43:15Z</time></trkpt><trkpt lat="41.29227039504603" lon="14.821049675808931"><ele>416.5</ele><time>2026-04-25T11:43:16Z</time></trkpt><trkpt lat="41.29240491332638" lon="14.821035598482691"><ele>417.75</ele><time>2026-04-25T11:43:17Z</time></trkpt><trkpt lat="41.29252766021748" lon="14.820967782414042"><ele>419.0</ele><time>2026-04-25T11:43:18Z</time></trkpt><trkpt lat="41.29263797503502" lon="14.820854612318344"><ele>420.75</ele><time>2026-04-25T11:43:19Z</time></trkpt><trkpt lat="41.29274348140099" lon="14.820704264055626"><ele>422.5</ele><time>2026-04-25T11:43:20Z</time></trkpt><trkpt lat="41.292854635155074" lon="14.82056151632944"><ele>424.25</ele><time>2026-04-25T11:43:21Z</time></trkpt><trkpt lat="41.29294535115768" lon="14.820459043746567"><ele>426.0</ele><time>2026-04-25T11:43:22Z</time></trkpt><trkpt lat="41.293036613167686" lon="14.820368681882206"><ele>426.0</ele><time>2026-04-25T11:43:23Z</time></trkpt><trkpt lat="41.29308842114281" lon="14.820283179171916"><ele>426.0</ele><time>2026-04-25T11:43:24Z</time></trkpt><trkpt lat="41.29309579335002" lon="14.820189849454994"><ele>426.0</ele><time>2026-04-25T11:43:25Z</time></trkpt><trkpt lat="41.29305079892697" lon="14.820103918963081"><ele>426.0</ele><time>2026-04-25T11:43:26Z</time></trkpt><trkpt lat="41.29294274862307" lon="14.82005062213431"><ele>426.0</ele><time>2026-04-25T11:43:27Z</time></trkpt><trkpt lat="41.292792163213726" lon="14.820013271310536"><ele>427.0</ele><time>2026-04-25T11:43:28Z</time></trkpt><trkpt lat="41.292632869797124" lon="14.81995923957053"><ele>428.0</ele><time>2026-04-25T11:43:29Z</time></trkpt><trkpt lat="41.29250572942788" lon="14.819910691031362"><ele>429.0</ele><time>2026-04-25T11:43:30Z</time></trkpt><trkpt lat="41.292392054166015" lon="14.819865257599657"><ele>430.0</ele><time>2026-04-25T11:43:31Z</time></trkpt><trkpt lat="41.29228603517607" lon="14.819813318102938"><ele>430.0</ele><time>2026-04-25T11:43:32Z</time></trkpt><trkpt lat="41.29221736764753" lon="14.8197132124526"><ele>430.0</ele><time>2026-04-25T11:43:33Z</time></trkpt><trkpt lat="41.29218833061216" lon="14.819560517334786"><ele>430.0</ele><time>2026-04-25T11:43:34Z</time></trkpt><trkpt lat="41.29219185750264" lon="14.819358207048499"><ele>430.0</ele><time>2026-04-25T11:43:35Z</time></trkpt><trkpt lat="41.292188695113346" lon="14.8191511195586"><ele>430.0</ele><time>2026-04-25T11:43:36Z</time></trkpt><trkpt lat="41.29217242970871" lon="14.818952415370122"><ele>430.0</ele><time>2026-04-25T11:43:37Z</time></trkpt><trkpt lat="41.29215365980407" lon="14.81873949775484"><ele>430.0</ele><time>2026-04-25T11:43:38Z</time></trkpt><trkpt lat="41.29212328674946" lon="14.818534351868328"><ele>432.75</ele><time>2026-04-25T11:43:39Z</time></trkpt><trkpt lat="41.29207766303616" lon="14.818355978728302"><ele>435.5</ele><time>2026-04-25T11:43:40Z</time></trkpt><trkpt lat="41.292008655019586" lon="14.818200077737389"><ele>438.25</ele><time>2026-04-25T11:43:41Z</time></trkpt><trkpt lat="41.2919130430111" lon="14.818067229842747"><ele>441.0</ele><time>2026-04-25T11:43:42Z</time></trkpt><trkpt lat="41.29177698795823" lon="14.817988251794581"><ele>441.0</ele><time>2026-04-25T11:43:43Z</time></trkpt><trkpt lat="41.29163288026509" lon="14.817966909269842"><ele>441.0</ele><time>2026-04-25T11:43:44Z</time></trkpt><trkpt lat="41.291493233746145" lon="14.817960406791109"><ele>441.0</ele><time>2026-04-25T11:43:45Z</time></trkpt><trkpt lat="41.29136581018872" lon="14.81787997968573"><ele>441.0</ele><time>2026-04-25T11:43:46Z</time></trkpt><trkpt lat="41.29126153334771" lon="14.817707515297379"><ele>441.33333333333337</ele><time>2026-04-25T11:43:47Z</time></trkpt><trkpt lat="41.291173882858544" lon="14.81751712218642"><ele>441.6666666666667</ele><time>2026-04-25T11:43:48Z</time></trkpt><trkpt lat="41.29108867813486" lon="14.817318377375592"><ele>442.0</ele><time>2026-04-25T11:43:49Z</time></trkpt><trkpt lat="41.29099373911583" lon="14.81709640662267"><ele>442.0</ele><time>2026-04-25T11:43:50Z</time></trkpt><trkpt lat="41.29090859146091" lon="14.816893218474222"><ele>442.0</ele><time>2026-04-25T11:43:51Z</time></trkpt><trkpt lat="41.290828880270205" lon="14.816728507377857"><ele>442.0</ele><time>2026-04-25T11:43:52Z</time></trkpt><trkpt lat="41.2907723616739" lon="14.816583821643444"><ele>442.0</ele><time>2026-04-25T11:43:53Z</time></trkpt><trkpt lat="41.29076304102069" lon="14.816441420770035"><ele>444.0</ele><time>2026-04-25T11:43:54Z</time></trkpt><trkpt lat="41.2908682310968" lon="14.816320655949049"><ele>446.0</ele><time>2026-04-25T11:43:56Z</time></trkpt><trkpt lat="41.29097889316093" lon="14.816382694743918"><ele>448.0</ele><time>2026-04-25T11:43:57Z</time></trkpt><trkpt lat="41.29108962097585" lon="14.81646776382476"><ele>450.0</ele><time>2026-04-25T11:43:58Z</time></trkpt><trkpt lat="41.291240034446275" lon="14.816535453068191"><ele>450.0</ele><time>2026-04-25T11:43:59Z</time></trkpt><trkpt lat="41.29137753240668" lon="14.81660690776209"><ele>450.0</ele><time>2026-04-25T11:44:00Z</time></trkpt><trkpt lat="41.29152382840681" lon="14.8166679705058"><ele>450.0</ele><time>2026-04-25T11:44:01Z</time></trkpt><trkpt lat="41.29167723634678" lon="14.816688596096517"><ele>452.0</ele><time>2026-04-25T11:44:02Z</time></trkpt><trkpt lat="41.2918492356615" lon="14.816691274845436"><ele>454.0</ele><time>2026-04-25T11:44:02.999Z</time></trkpt><trkpt lat="41.29203324893605" lon="14.816686446239736"><ele>456.0</ele><time>2026-04-25T11:44:03.999Z</time></trkpt><trkpt lat="41.29221767226137" lon="14.81670832514532"><ele>458.0</ele><time>2026-04-25T11:44:04.999Z</time></trkpt><trkpt lat="41.29240279335525" lon="14.81671334234515"><ele>460.0</ele><time>2026-04-25T11:44:05.999Z</time></trkpt><trkpt lat="41.292590992571505" lon="14.81669843719462"><ele>462.0</ele><time>2026-04-25T11:44:06.999Z</time></trkpt><trkpt lat="41.29277995097345" lon="14.816702492648277"><ele>462.0</ele><time>2026-04-25T11:44:07.999Z</time></trkpt><trkpt lat="41.29297675968247" lon="14.81672919330742"><ele>462.0</ele><time>2026-04-25T11:44:08.999Z</time></trkpt><trkpt lat="41.29316918340091" lon="14.816734507384318"><ele>462.0</ele><time>2026-04-25T11:44:09.999Z</time></trkpt><trkpt lat="41.29336203360246" lon="14.81672059986901"><ele>463.66666666666663</ele><time>2026-04-25T11:44:10.999Z</time></trkpt><trkpt lat="41.29355053361901" lon="14.816729642114678"><ele>465.3333333333333</ele><time>2026-04-25T11:44:11.999Z</time></trkpt><trkpt lat="41.29372046226652" lon="14.816753362389308"><ele>467.0</ele><time>2026-04-25T11:44:12.999Z</time></trkpt><trkpt lat="41.2938871249879" lon="14.816733559672038"><ele>468.66666666666663</ele><time>2026-04-25T11:44:13.999Z</time></trkpt><trkpt lat="41.29405125571728" lon="14.816713771355102"><ele>470.33333333333337</ele><time>2026-04-25T11:44:14.999Z</time></trkpt><trkpt lat="41.29420854023678" lon="14.816637315725929"><ele>472.0</ele><time>2026-04-25T11:44:15.999Z</time></trkpt><trkpt lat="41.294369412854074" lon="14.816559936612297"><ele>472.0</ele><time>2026-04-25T11:44:16.999Z</time></trkpt><trkpt lat="41.29452692649454" lon="14.816459228890556"><ele>472.0</ele><time>2026-04-25T11:44:17.999Z</time></trkpt><trkpt lat="41.29470222527835" lon="14.81635379580218"><ele>472.0</ele><time>2026-04-25T11:44:18.999Z</time></trkpt><trkpt lat="41.29487882896019" lon="14.81627309283704"><ele>472.0</ele><time>2026-04-25T11:44:19.999Z</time></trkpt><trkpt lat="41.29507368822837" lon="14.816218166103626"><ele>472.0</ele><time>2026-04-25T11:44:20.999Z</time></trkpt><trkpt lat="41.29528362731719" lon="14.816188549853047"><ele>472.0</ele><time>2026-04-25T11:44:21.999Z</time></trkpt><trkpt lat="41.295509700191644" lon="14.816159044988973"><ele>473.5</ele><time>2026-04-25T11:44:22.999Z</time></trkpt><trkpt lat="41.295736290469726" lon="14.816128995809622"><ele>475.0</ele><time>2026-04-25T11:44:23.999Z</time></trkpt><trkpt lat="41.29596991457906" lon="14.816098840279228"><ele>475.0</ele><time>2026-04-25T11:44:24.999Z</time></trkpt><trkpt lat="41.29619429993453" lon="14.816069877248687"><ele>475.0</ele><time>2026-04-25T11:44:25.999Z</time></trkpt><trkpt lat="41.29641484553987" lon="14.816041409818647"><ele>475.0</ele><time>2026-04-25T11:44:26.999Z</time></trkpt><trkpt lat="41.29662349301006" lon="14.816014478603497"><ele>476.33333333333337</ele><time>2026-04-25T11:44:27.999Z</time></trkpt><trkpt lat="41.2968083838585" lon="14.815990660094263"><ele>477.66666666666663</ele><time>2026-04-25T11:44:28.999Z</time></trkpt><trkpt lat="41.29698320032247" lon="14.815968130222185"><ele>479.0</ele><time>2026-04-25T11:44:29.999Z</time></trkpt><trkpt lat="41.29715074770449" lon="14.815946537164905"><ele>482.66666666666663</ele><time>2026-04-25T11:44:30.999Z</time></trkpt><trkpt lat="41.297306069423286" lon="14.815926519741927"><ele>486.33333333333337</ele><time>2026-04-25T11:44:31.999Z</time></trkpt><trkpt lat="41.297455119056075" lon="14.815878058939209"><ele>490.0</ele><time>2026-04-25T11:44:32.999Z</time></trkpt><trkpt lat="41.29760507374811" lon="14.815802468053313"><ele>490.0</ele><time>2026-04-25T11:44:33.999Z</time></trkpt><trkpt lat="41.29776610711222" lon="14.815701683376895"><ele>490.0</ele><time>2026-04-25T11:44:34.999Z</time></trkpt><trkpt lat="41.297924060920316" lon="14.815569361838964"><ele>490.0</ele><time>2026-04-25T11:44:35.999Z</time></trkpt><trkpt lat="41.29807654001942" lon="14.81545792608191"><ele>490.6666666666667</ele><time>2026-04-25T11:44:36.999Z</time></trkpt><trkpt lat="41.29824411730441" lon="14.815398085452088"><ele>491.33333333333337</ele><time>2026-04-25T11:44:37.999Z</time></trkpt><trkpt lat="41.29843097576853" lon="14.81538521219089"><ele>492.0</ele><time>2026-04-25T11:44:38.999Z</time></trkpt><trkpt lat="41.29864278981173" lon="14.815395743720693"><ele>492.0</ele><time>2026-04-25T11:44:39.999Z</time></trkpt><trkpt lat="41.298872707353325" lon="14.815405692488365"><ele>492.0</ele><time>2026-04-25T11:44:40.999Z</time></trkpt><trkpt lat="41.299092126889846" lon="14.815417569906835"><ele>494.0</ele><time>2026-04-25T11:44:41.999Z</time></trkpt><trkpt lat="41.29929501339594" lon="14.815430212771037"><ele>496.0</ele><time>2026-04-25T11:44:42.999Z</time></trkpt><trkpt lat="41.29947544388691" lon="14.815448683027352"><ele>498.0</ele><time>2026-04-25T11:44:43.999Z</time></trkpt><trkpt lat="41.29965250649205" lon="14.81549211588782"><ele>499.66666666666663</ele><time>2026-04-25T11:44:44.999Z</time></trkpt><trkpt lat="41.299842401120856" lon="14.815571477030492"><ele>501.3333333333333</ele><time>2026-04-25T11:44:45.999Z</time></trkpt><trkpt lat="41.300046641373186" lon="14.815665375479671"><ele>503.0</ele><time>2026-04-25T11:44:46.999Z</time></trkpt><trkpt lat="41.30023812916462" lon="14.815757275958724"><ele>503.0</ele><time>2026-04-25T11:44:47.999Z</time></trkpt><trkpt lat="41.30042702447284" lon="14.815863879506884"><ele>503.0</ele><time>2026-04-25T11:44:48.999Z</time></trkpt><trkpt lat="41.30059717755375" lon="14.816002085700633"><ele>503.0</ele><time>2026-04-25T11:44:49.999Z</time></trkpt><trkpt lat="41.30077025664772" lon="14.816191542021192"><ele>506.0</ele><time>2026-04-25T11:44:50.999Z</time></trkpt><trkpt lat="41.300958482182985" lon="14.816401648576951"><ele>509.0</ele><time>2026-04-25T11:44:51.999Z</time></trkpt><trkpt lat="41.301154181477" lon="14.81658868589454"><ele>509.0</ele><time>2026-04-25T11:44:52.999Z</time></trkpt><trkpt lat="41.30135013215243" lon="14.816797570371966"><ele>509.0</ele><time>2026-04-25T11:44:53.999Z</time></trkpt><trkpt lat="41.30153490326985" lon="14.817003422760095"><ele>511.0</ele><time>2026-04-25T11:44:54.999Z</time></trkpt><trkpt lat="41.301706050339575" lon="14.81716758006518"><ele>513.0</ele><time>2026-04-25T11:44:55.999Z</time></trkpt><trkpt lat="41.30186483538198" lon="14.817318919227866"><ele>515.0</ele><time>2026-04-25T11:44:56.999Z</time></trkpt><trkpt lat="41.30201519323327" lon="14.817463294163884"><ele>515.0</ele><time>2026-04-25T11:44:57.999Z</time></trkpt><trkpt lat="41.30214822350399" lon="14.817602433942863"><ele>515.0</ele><time>2026-04-25T11:44:58.999Z</time></trkpt><trkpt lat="41.30226887376141" lon="14.817750549271462"><ele>515.0</ele><time>2026-04-25T11:45:00Z</time></trkpt><trkpt lat="41.30238936227745" lon="14.817917551477896"><ele>515.3333333333333</ele><time>2026-04-25T11:45:01Z</time></trkpt><trkpt lat="41.302522387655415" lon="14.818108815247202"><ele>515.6666666666666</ele><time>2026-04-25T11:45:02Z</time></trkpt><trkpt lat="41.30266544154638" lon="14.818315036868553"><ele>516.0</ele><time>2026-04-25T11:45:03Z</time></trkpt><trkpt lat="41.30283427279794" lon="14.818529627245336"><ele>516.0</ele><time>2026-04-25T11:45:04Z</time></trkpt><trkpt lat="41.30299088933208" lon="14.818761762616608"><ele>516.0</ele><time>2026-04-25T11:45:05Z</time></trkpt><trkpt lat="41.30315392962284" lon="14.818986689004056"><ele>521.5</ele><time>2026-04-25T11:45:06Z</time></trkpt><trkpt lat="41.3033157115759" lon="14.81921826500433"><ele>527.0</ele><time>2026-04-25T11:45:07Z</time></trkpt><trkpt lat="41.30348959502182" lon="14.819456947301104"><ele>527.0</ele><time>2026-04-25T11:45:08Z</time></trkpt><trkpt lat="41.30364985095331" lon="14.819712699015458"><ele>527.0</ele><time>2026-04-25T11:45:09Z</time></trkpt><trkpt lat="41.30379846450885" lon="14.819987494627323"><ele>529.6666666666666</ele><time>2026-04-25T11:45:10Z</time></trkpt><trkpt lat="41.303930280864" lon="14.820240515959643"><ele>532.3333333333334</ele><time>2026-04-25T11:45:11Z</time></trkpt><trkpt lat="41.30405280474983" lon="14.820462937336481"><ele>535.0</ele><time>2026-04-25T11:45:12Z</time></trkpt><trkpt lat="41.304172171148544" lon="14.820668623174598"><ele>535.0</ele><time>2026-04-25T11:45:13Z</time></trkpt><trkpt lat="41.304308632609505" lon="14.820871696107677"><ele>535.0</ele><time>2026-04-25T11:45:14Z</time></trkpt><trkpt lat="41.30447075867956" lon="14.821054581022475"><ele>535.0</ele><time>2026-04-25T11:45:15Z</time></trkpt><trkpt lat="41.304656838039364" lon="14.821224890757014"><ele>535.5</ele><time>2026-04-25T11:45:16Z</time></trkpt><trkpt lat="41.30486629872871" lon="14.821371932446555"><ele>536.0</ele><time>2026-04-25T11:45:17Z</time></trkpt><trkpt lat="41.30508764650548" lon="14.821496441709447"><ele>536.0</ele><time>2026-04-25T11:45:18Z</time></trkpt><trkpt lat="41.30532624716715" lon="14.821590757203097"><ele>536.0</ele><time>2026-04-25T11:45:19Z</time></trkpt><trkpt lat="41.30556830155426" lon="14.821673910160237"><ele>535.5</ele><time>2026-04-25T11:45:20Z</time></trkpt><trkpt lat="41.305828528132984" lon="14.821753268164777"><ele>535.0</ele><time>2026-04-25T11:45:21Z</time></trkpt><trkpt lat="41.30606277338741" lon="14.82182661759364"><ele>535.0</ele><time>2026-04-25T11:45:22Z</time></trkpt><trkpt lat="41.30627294865762" lon="14.82190112982055"><ele>535.0</ele><time>2026-04-25T11:45:23Z</time></trkpt><trkpt lat="41.30648154808267" lon="14.82197778465259"><ele>535.0</ele><time>2026-04-25T11:45:24Z</time></trkpt><trkpt lat="41.30668180699189" lon="14.822067607930801"><ele>537.3333333333334</ele><time>2026-04-25T11:45:25Z</time></trkpt><trkpt lat="41.30687418475607" lon="14.82213711131506"><ele>539.6666666666666</ele><time>2026-04-25T11:45:26Z</time></trkpt><trkpt lat="41.3070885023559" lon="14.822215105239252"><ele>542.0</ele><time>2026-04-25T11:45:27Z</time></trkpt><trkpt lat="41.30731298510228" lon="14.82229913539867"><ele>545.5</ele><time>2026-04-25T11:45:28Z</time></trkpt><trkpt lat="41.30755143190422" lon="14.822389227486239"><ele>549.0</ele><time>2026-04-25T11:45:29Z</time></trkpt><trkpt lat="41.307796889627426" lon="14.8224799744854"><ele>549.0</ele><time>2026-04-25T11:45:30Z</time></trkpt><trkpt lat="41.3080401663427" lon="14.822558759866325"><ele>549.0</ele><time>2026-04-25T11:45:31Z</time></trkpt><trkpt lat="41.30825346775265" lon="14.822640585496172"><ele>549.3333333333334</ele><time>2026-04-25T11:45:32Z</time></trkpt><trkpt lat="41.30844257789673" lon="14.822720792451543"><ele>549.6666666666667</ele><time>2026-04-25T11:45:33Z</time></trkpt><trkpt lat="41.30861466668713" lon="14.822809927238199"><ele>550.0</ele><time>2026-04-25T11:45:34Z</time></trkpt><trkpt lat="41.30875940687599" lon="14.822893861790968"><ele>550.0</ele><time>2026-04-25T11:45:35Z</time></trkpt><trkpt lat="41.308901860120166" lon="14.822943322408992"><ele>550.0</ele><time>2026-04-25T11:45:36Z</time></trkpt><trkpt lat="41.309053891238534" lon="14.822923401718368"><ele>550.0</ele><time>2026-04-25T11:45:37Z</time></trkpt><trkpt lat="41.309204209809884" lon="14.822829206735788"><ele>552.0</ele><time>2026-04-25T11:45:38Z</time></trkpt><trkpt lat="41.309362428013834" lon="14.822686614135796"><ele>554.0</ele><time>2026-04-25T11:45:39Z</time></trkpt><trkpt lat="41.3095505705599" lon="14.822529207774334"><ele>556.0</ele><time>2026-04-25T11:45:40Z</time></trkpt><trkpt lat="41.309743142380945" lon="14.822373599255213"><ele>557.0</ele><time>2026-04-25T11:45:41Z</time></trkpt><trkpt lat="41.30994292091725" lon="14.822239817350294"><ele>558.0</ele><time>2026-04-25T11:45:42Z</time></trkpt><trkpt lat="41.31016086000243" lon="14.822173780705038"><ele>559.0</ele><time>2026-04-25T11:45:43Z</time></trkpt><trkpt lat="41.310395324260156" lon="14.822131395154562"><ele>558.0</ele><time>2026-04-25T11:45:44Z</time></trkpt><trkpt lat="41.31061756550103" lon="14.822091886377425"><ele>557.0</ele><time>2026-04-25T11:45:45Z</time></trkpt><trkpt lat="41.310817667962105" lon="14.822050457160028"><ele>556.0</ele><time>2026-04-25T11:45:46Z</time></trkpt><trkpt lat="41.31100195335072" lon="14.822023281427587"><ele>556.0</ele><time>2026-04-25T11:45:47Z</time></trkpt><trkpt lat="41.31116115680304" lon="14.821980245969023"><ele>556.0</ele><time>2026-04-25T11:45:48Z</time></trkpt><trkpt lat="41.31130795627776" lon="14.821885486605886"><ele>556.0</ele><time>2026-04-25T11:45:49Z</time></trkpt><trkpt lat="41.3114576293444" lon="14.821729499599266"><ele>557.0</ele><time>2026-04-25T11:45:50Z</time></trkpt><trkpt lat="41.31159846969215" lon="14.821520403605131"><ele>558.0</ele><time>2026-04-25T11:45:51Z</time></trkpt><trkpt lat="41.31172128114292" lon="14.821281152936725"><ele>559.0</ele><time>2026-04-25T11:45:51.999Z</time></trkpt><trkpt lat="41.311838603207974" lon="14.8210258973236"><ele>561.0</ele><time>2026-04-25T11:45:52.999Z</time></trkpt><trkpt lat="41.31193514027491" lon="14.820805790769676"><ele>563.0</ele><time>2026-04-25T11:45:53.999Z</time></trkpt><trkpt lat="41.31202660945013" lon="14.820636447069248"><ele>565.0</ele><time>2026-04-25T11:45:54.999Z</time></trkpt><trkpt lat="41.31214220934529" lon="14.820514752732722"><ele>563.6666666666667</ele><time>2026-04-25T11:45:55.999Z</time></trkpt><trkpt lat="41.312300778791915" lon="14.820456184409814"><ele>562.3333333333334</ele><time>2026-04-25T11:45:56.999Z</time></trkpt><trkpt lat="41.312494544139284" lon="14.82044082159476"><ele>561.0</ele><time>2026-04-25T11:45:57.999Z</time></trkpt><trkpt lat="41.3127303529097" lon="14.820404051122262"><ele>561.0</ele><time>2026-04-25T11:45:58.999Z</time></trkpt><trkpt lat="41.31296681928442" lon="14.820410555739894"><ele>561.0</ele><time>2026-04-25T11:45:59.999Z</time></trkpt><trkpt lat="41.31319647763974" lon="14.820389687629758"><ele>561.0</ele><time>2026-04-25T11:46:00.999Z</time></trkpt><trkpt lat="41.3134100978579" lon="14.82034302967378"><ele>561.0</ele><time>2026-04-25T11:46:01.999Z</time></trkpt><trkpt lat="41.31362636197564" lon="14.820261740649162"><ele>561.0</ele><time>2026-04-25T11:46:02.999Z</time></trkpt><trkpt lat="41.31384217149827" lon="14.820145966386551"><ele>563.0</ele><time>2026-04-25T11:46:03.999Z</time></trkpt><trkpt lat="41.314072338302715" lon="14.820044508299597"><ele>565.0</ele><time>2026-04-25T11:46:04.999Z</time></trkpt><trkpt lat="41.31430323565906" lon="14.81991947460635"><ele>565.0</ele><time>2026-04-25T11:46:05.999Z</time></trkpt><trkpt lat="41.314543080467736" lon="14.819789774999748"><ele>565.0</ele><time>2026-04-25T11:46:06.999Z</time></trkpt><trkpt lat="41.314778271139836" lon="14.819664447210233"><ele>565.0</ele><time>2026-04-25T11:46:07.999Z</time></trkpt><trkpt lat="41.31500518191115" lon="14.819561446169207"><ele>565.0</ele><time>2026-04-25T11:46:08.999Z</time></trkpt><trkpt lat="41.315233762905635" lon="14.81950511053468"><ele>565.0</ele><time>2026-04-25T11:46:09.999Z</time></trkpt><trkpt lat="41.31546429376167" lon="14.819516535796826"><ele>565.0</ele><time>2026-04-25T11:46:10.999Z</time></trkpt><trkpt lat="41.31571057102789" lon="14.819532611579731"><ele>567.5</ele><time>2026-04-25T11:46:11.999Z</time></trkpt><trkpt lat="41.3159644381241" lon="14.819531366854042"><ele>570.0</ele><time>2026-04-25T11:46:12.999Z</time></trkpt><trkpt lat="41.31623389390514" lon="14.819552742170643"><ele>572.0</ele><time>2026-04-25T11:46:13.999Z</time></trkpt><trkpt lat="41.316514055951075" lon="14.81958581492316"><ele>574.0</ele><time>2026-04-25T11:46:14.999Z</time></trkpt><trkpt lat="41.316801490776804" lon="14.819603971642575"><ele>574.0</ele><time>2026-04-25T11:46:15.999Z</time></trkpt><trkpt lat="41.317102570280134" lon="14.819600748333805"><ele>574.0</ele><time>2026-04-25T11:46:16.999Z</time></trkpt><trkpt lat="41.317417271918686" lon="14.819604028953194"><ele>576.0</ele><time>2026-04-25T11:46:17.999Z</time></trkpt><trkpt lat="41.31775489237243" lon="14.819579920041575"><ele>578.0</ele><time>2026-04-25T11:46:18.999Z</time></trkpt><trkpt lat="41.3181123554184" lon="14.81954113419005"><ele>581.5</ele><time>2026-04-25T11:46:19.999Z</time></trkpt><trkpt lat="41.31847677841428" lon="14.819533542883649"><ele>585.0</ele><time>2026-04-25T11:46:20.999Z</time></trkpt><trkpt lat="41.31884144680365" lon="14.819504366881475"><ele>586.5</ele><time>2026-04-25T11:46:21.999Z</time></trkpt><trkpt lat="41.31921615380641" lon="14.81947438768688"><ele>588.0</ele><time>2026-04-25T11:46:22.999Z</time></trkpt><trkpt lat="41.31954458950972" lon="14.81943762664263"><ele>591.5</ele><time>2026-04-25T11:46:23.999Z</time></trkpt><trkpt lat="41.31987699057224" lon="14.819402967829978"><ele>595.0</ele><time>2026-04-25T11:46:24.999Z</time></trkpt><trkpt lat="41.320165819445855" lon="14.819377428017996"><ele>595.0</ele><time>2026-04-25T11:46:25.999Z</time></trkpt><trkpt lat="41.32044111821002" lon="14.819357966514263"><ele>595.0</ele><time>2026-04-25T11:46:26.999Z</time></trkpt><trkpt lat="41.32070821782553" lon="14.819338729912685"><ele>598.5</ele><time>2026-04-25T11:46:27.999Z</time></trkpt><trkpt lat="41.32096523742865" lon="14.819317190949892"><ele>602.0</ele><time>2026-04-25T11:46:28.999Z</time></trkpt><trkpt lat="41.321224779860216" lon="14.81929328688308"><ele>605.0</ele><time>2026-04-25T11:46:29.999Z</time></trkpt><trkpt lat="41.32147746856898" lon="14.81925464879045"><ele>608.0</ele><time>2026-04-25T11:46:30.999Z</time></trkpt><trkpt lat="41.3217290887622" lon="14.819201463422516"><ele>608.0</ele><time>2026-04-25T11:46:31.999Z</time></trkpt><trkpt lat="41.321968925308454" lon="14.819131217007543"><ele>608.0</ele><time>2026-04-25T11:46:32.999Z</time></trkpt><trkpt lat="41.322192183711564" lon="14.81906727253669"><ele>610.0</ele><time>2026-04-25T11:46:33.999Z</time></trkpt><trkpt lat="41.32238635720501" lon="14.819008159471663"><ele>612.0</ele><time>2026-04-25T11:46:34.999Z</time></trkpt><trkpt lat="41.32257542804581" lon="14.818964712824183"><ele>614.0</ele><time>2026-04-25T11:46:35.999Z</time></trkpt><trkpt lat="41.32274349104012" lon="14.818924157382867"><ele>614.0</ele><time>2026-04-25T11:46:36.999Z</time></trkpt><trkpt lat="41.32290131900594" lon="14.818914803611309"><ele>614.0</ele><time>2026-04-25T11:46:37.999Z</time></trkpt><trkpt lat="41.32303825570158" lon="14.818975603873302"><ele>614.0</ele><time>2026-04-25T11:46:38.999Z</time></trkpt><trkpt lat="41.32316372591917" lon="14.819121861959733"><ele>614.6666666666666</ele><time>2026-04-25T11:46:39.999Z</time></trkpt><trkpt lat="41.323281134081974" lon="14.819319131489689"><ele>615.3333333333334</ele><time>2026-04-25T11:46:40.999Z</time></trkpt><trkpt lat="41.32338879794361" lon="14.819525602892655"><ele>616.0</ele><time>2026-04-25T11:46:41.999Z</time></trkpt><trkpt lat="41.32347289094089" lon="14.819702360422962"><ele>616.0</ele><time>2026-04-25T11:46:42.999Z</time></trkpt><trkpt lat="41.32359488599853" lon="14.819840975051342"><ele>616.0</ele><time>2026-04-25T11:46:43.999Z</time></trkpt><trkpt lat="41.32373999940131" lon="14.819948672035462"><ele>616.0</ele><time>2026-04-25T11:46:44.999Z</time></trkpt><trkpt lat="41.323922412604" lon="14.820023203954293"><ele>615.0</ele><time>2026-04-25T11:46:45.999Z</time></trkpt><trkpt lat="41.324139359447194" lon="14.820065038373393"><ele>614.0</ele><time>2026-04-25T11:46:46.999Z</time></trkpt><trkpt lat="41.32435595246405" lon="14.820121428527953"><ele>613.0</ele><time>2026-04-25T11:46:47.999Z</time></trkpt><trkpt lat="41.32455752845487" lon="14.820171854623633"><ele>615.6666666666667</ele><time>2026-04-25T11:46:48.999Z</time></trkpt><trkpt lat="41.32477034697379" lon="14.820191574114972"><ele>618.3333333333334</ele><time>2026-04-25T11:46:49.999Z</time></trkpt><trkpt lat="41.32500160883876" lon="14.820175498418102"><ele>621.0</ele><time>2026-04-25T11:46:50.999Z</time></trkpt><trkpt lat="41.32522201962688" lon="14.820147846256415"><ele>628.0</ele><time>2026-04-25T11:46:51.999Z</time></trkpt><trkpt lat="41.325451821855104" lon="14.820081516625725"><ele>635.0</ele><time>2026-04-25T11:46:52.999Z</time></trkpt><trkpt lat="41.325680051392204" lon="14.819993874741032"><ele>636.0</ele><time>2026-04-25T11:46:53.999Z</time></trkpt><trkpt lat="41.32591035325806" lon="14.819895617975186"><ele>637.0</ele><time>2026-04-25T11:46:54.999Z</time></trkpt><trkpt lat="41.32613912831295" lon="14.819785353854229"><ele>637.0</ele><time>2026-04-25T11:46:55.999Z</time></trkpt><trkpt lat="41.32634382530952" lon="14.81970420239991"><ele>637.0</ele><time>2026-04-25T11:46:56.999Z</time></trkpt><trkpt lat="41.32652727777054" lon="14.819609731521712"><ele>637.0</ele><time>2026-04-25T11:46:57.999Z</time></trkpt><trkpt lat="41.32670702314304" lon="14.819489049750663"><ele>635.3333333333334</ele><time>2026-04-25T11:46:58.999Z</time></trkpt><trkpt lat="41.32686999723253" lon="14.819335664127118"><ele>633.6666666666666</ele><time>2026-04-25T11:46:59.999Z</time></trkpt><trkpt lat="41.327039104776695" lon="14.819169443245627"><ele>632.0</ele><time>2026-04-25T11:47:00.999Z</time></trkpt><trkpt lat="41.327234328136086" lon="14.81904194763046"><ele>638.0</ele><time>2026-04-25T11:47:01.999Z</time></trkpt><trkpt lat="41.327459576872904" lon="14.818968044660656"><ele>644.0</ele><time>2026-04-25T11:47:02.999Z</time></trkpt><trkpt lat="41.32770723639741" lon="14.818952065309746"><ele>644.0</ele><time>2026-04-25T11:47:03.998Z</time></trkpt><trkpt lat="41.32796734503017" lon="14.818942932138395"><ele>644.0</ele><time>2026-04-25T11:47:04.998Z</time></trkpt><trkpt lat="41.328220649136725" lon="14.818930729729406"><ele>645.0</ele><time>2026-04-25T11:47:06Z</time></trkpt><trkpt lat="41.32844790410299" lon="14.818915248199747"><ele>646.0</ele><time>2026-04-25T11:47:07Z</time></trkpt><trkpt lat="41.32865893795975" lon="14.818900631702078"><ele>647.0</ele><time>2026-04-25T11:47:08Z</time></trkpt><trkpt lat="41.328870601434176" lon="14.818888079459354"><ele>649.0</ele><time>2026-04-25T11:47:09Z</time></trkpt><trkpt lat="41.329084274175585" lon="14.818912087365383"><ele>651.0</ele><time>2026-04-25T11:47:10Z</time></trkpt><trkpt lat="41.32929995811006" lon="14.819011138508756"><ele>653.0</ele><time>2026-04-25T11:47:11Z</time></trkpt><trkpt lat="41.32950360788567" lon="14.819159953191182"><ele>655.0</ele><time>2026-04-25T11:47:12Z</time></trkpt><trkpt lat="41.32968395177417" lon="14.819347606402285"><ele>657.0</ele><time>2026-04-25T11:47:13Z</time></trkpt><trkpt lat="41.329863706746636" lon="14.819572601288803"><ele>657.0</ele><time>2026-04-25T11:47:14Z</time></trkpt><trkpt lat="41.33002876254678" lon="14.819782248970599"><ele>657.0</ele><time>2026-04-25T11:47:15Z</time></trkpt><trkpt lat="41.33020429620569" lon="14.819969254339526"><ele>657.0</ele><time>2026-04-25T11:47:16Z</time></trkpt><trkpt lat="41.330397570317864" lon="14.820128593047496"><ele>657.0</ele><time>2026-04-25T11:47:17Z</time></trkpt><trkpt lat="41.33061505249339" lon="14.820251442468946"><ele>658.5</ele><time>2026-04-25T11:47:18Z</time></trkpt><trkpt lat="41.33083545969252" lon="14.820348293085175"><ele>660.0</ele><time>2026-04-25T11:47:19Z</time></trkpt><trkpt lat="41.33106218555885" lon="14.820429861249602"><ele>660.0</ele><time>2026-04-25T11:47:20Z</time></trkpt><trkpt lat="41.331282890653576" lon="14.820498045416247"><ele>660.0</ele><time>2026-04-25T11:47:21Z</time></trkpt><trkpt lat="41.33147759703019" lon="14.820570515245333"><ele>660.0</ele><time>2026-04-25T11:47:22Z</time></trkpt><trkpt lat="41.33165675487212" lon="14.820641688052858"><ele>663.0</ele><time>2026-04-25T11:47:23Z</time></trkpt><trkpt lat="41.331823287925474" lon="14.82069956907158"><ele>666.0</ele><time>2026-04-25T11:47:24Z</time></trkpt><trkpt lat="41.3319784508543" lon="14.82074573903633"><ele>669.0</ele><time>2026-04-25T11:47:25Z</time></trkpt><trkpt lat="41.33213056113875" lon="14.820802935717028"><ele>670.75</ele><time>2026-04-25T11:47:26Z</time></trkpt><trkpt lat="41.33226230529702" lon="14.820875523717348"><ele>672.5</ele><time>2026-04-25T11:47:27Z</time></trkpt><trkpt lat="41.33236928584531" lon="14.820962068748154"><ele>674.25</ele><time>2026-04-25T11:47:28Z</time></trkpt><trkpt lat="41.33247400307736" lon="14.821072233918573"><ele>676.0</ele><time>2026-04-25T11:47:29Z</time></trkpt><trkpt lat="41.33254633572721" lon="14.821205423714883"><ele>676.0</ele><time>2026-04-25T11:47:30Z</time></trkpt><trkpt lat="41.332589547838666" lon="14.82134267809263"><ele>676.0</ele><time>2026-04-25T11:47:31Z</time></trkpt><trkpt lat="41.33259842750891" lon="14.821486189202224"><ele>676.0</ele><time>2026-04-25T11:47:32Z</time></trkpt><trkpt lat="41.33260436268052" lon="14.821633132609584"><ele>676.0</ele><time>2026-04-25T11:47:33Z</time></trkpt><trkpt lat="41.33261298258342" lon="14.82177230439916"><ele>676.0</ele><time>2026-04-25T11:47:34Z</time></trkpt><trkpt lat="41.33262956168835" lon="14.821906830567812"><ele>676.5999999999999</ele><time>2026-04-25T11:47:35Z</time></trkpt><trkpt lat="41.33264385323761" lon="14.822047029822581"><ele>677.2</ele><time>2026-04-25T11:47:36Z</time></trkpt><trkpt lat="41.332655044827234" lon="14.822190203110358"><ele>677.8</ele><time>2026-04-25T11:47:37Z</time></trkpt><trkpt lat="41.33267227720359" lon="14.822337366537965"><ele>678.4000000000001</ele><time>2026-04-25T11:47:38Z</time></trkpt><trkpt lat="41.332685324152706" lon="14.82244669087545"><ele>679.0</ele><time>2026-04-25T11:47:39Z</time></trkpt><trkpt lat="41.33272712692319" lon="14.822558045381424"><ele>679.4000000000001</ele><time>2026-04-25T11:47:40Z</time></trkpt><trkpt lat="41.33277925630974" lon="14.822651091291782"><ele>679.8</ele><time>2026-04-25T11:47:41Z</time></trkpt><trkpt lat="41.332848352599854" lon="14.822718861951596"><ele>680.2</ele><time>2026-04-25T11:47:42Z</time></trkpt><trkpt lat="41.33294190702561" lon="14.822760623642413"><ele>680.5999999999999</ele><time>2026-04-25T11:47:43Z</time></trkpt><trkpt lat="41.3330368771279" lon="14.822754052514743"><ele>681.0</ele><time>2026-04-25T11:47:44Z</time></trkpt><trkpt lat="41.333146978027656" lon="14.82272504066761"><ele>683.3333333333334</ele><time>2026-04-25T11:47:45Z</time></trkpt><trkpt lat="41.333282831992356" lon="14.822618207760614"><ele>685.6666666666667</ele><time>2026-04-25T11:47:46Z</time></trkpt><trkpt lat="41.33343316103949" lon="14.822494667520555"><ele>688.0</ele><time>2026-04-25T11:47:47Z</time></trkpt><trkpt lat="41.33356828186384" lon="14.822383968984516"><ele>688.0</ele><time>2026-04-25T11:47:48Z</time></trkpt><trkpt lat="41.333711295429" lon="14.822266963377672"><ele>688.0</ele><time>2026-04-25T11:47:49Z</time></trkpt><trkpt lat="41.3338510761569" lon="14.822153415358335"><ele>688.0</ele><time>2026-04-25T11:47:50Z</time></trkpt><trkpt lat="41.33397570444834" lon="14.822052176112177"><ele>688.0</ele><time>2026-04-25T11:47:50.999Z</time></trkpt><trkpt lat="41.33412424766042" lon="14.82193544211793"><ele>688.0</ele><time>2026-04-25T11:47:51.999Z</time></trkpt><trkpt lat="41.33427772062836" lon="14.821835795630854"><ele>688.0</ele><time>2026-04-25T11:47:52.999Z</time></trkpt><trkpt lat="41.33444604120678" lon="14.821777479997266"><ele>688.0</ele><time>2026-04-25T11:47:53.999Z</time></trkpt><trkpt lat="41.33464851677429" lon="14.82182021210212"><ele>688.0</ele><time>2026-04-25T11:47:54.999Z</time></trkpt><trkpt lat="41.33486335146448" lon="14.821898912695877"><ele>688.0</ele><time>2026-04-25T11:47:55.999Z</time></trkpt><trkpt lat="41.3350731751818" lon="14.822001828925279"><ele>689.3333333333334</ele><time>2026-04-25T11:47:56.999Z</time></trkpt><trkpt lat="41.33523635014215" lon="14.822115896024625"><ele>690.6666666666666</ele><time>2026-04-25T11:47:57.999Z</time></trkpt><trkpt lat="41.33536487067426" lon="14.822231025776063"><ele>692.0</ele><time>2026-04-25T11:47:58.999Z</time></trkpt><trkpt lat="41.33551020456778" lon="14.82226161621958"><ele>694.5</ele><time>2026-04-25T11:47:59.999Z</time></trkpt><trkpt lat="41.335668266278866" lon="14.822230066352056"><ele>697.0</ele><time>2026-04-25T11:48:00.999Z</time></trkpt><trkpt lat="41.33609024687185" lon="14.82216428634082"><ele>697.0</ele><time>2026-04-25T11:48:01.999Z</time></trkpt><trkpt lat="41.336304408779654" lon="14.822027840073225"><ele>697.0</ele><time>2026-04-25T11:48:02.999Z</time></trkpt><trkpt lat="41.33654526851922" lon="14.821883813481858"><ele>702.0</ele><time>2026-04-25T11:48:03.999Z</time></trkpt><trkpt lat="41.33679044664419" lon="14.821756990906788"><ele>707.0</ele><time>2026-04-25T11:48:04.999Z</time></trkpt><trkpt lat="41.3370486158411" lon="14.821636492288063"><ele>705.0</ele><time>2026-04-25T11:48:05.999Z</time></trkpt><trkpt lat="41.33731446408845" lon="14.821501454134662"><ele>703.0</ele><time>2026-04-25T11:48:06.999Z</time></trkpt><trkpt lat="41.337580290614945" lon="14.821370026153499"><ele>703.0</ele><time>2026-04-25T11:48:07.999Z</time></trkpt><trkpt lat="41.3378231817271" lon="14.821251306194881"><ele>703.0</ele><time>2026-04-25T11:48:08.999Z</time></trkpt><trkpt lat="41.33804156164744" lon="14.821140806588023"><ele>703.6666666666667</ele><time>2026-04-25T11:48:09.999Z</time></trkpt><trkpt lat="41.33823752701764" lon="14.821060296004568"><ele>704.3333333333334</ele><time>2026-04-25T11:48:10.999Z</time></trkpt><trkpt lat="41.33841738941479" lon="14.821005683012496"><ele>705.0</ele><time>2026-04-25T11:48:11.999Z</time></trkpt><trkpt lat="41.338593417905756" lon="14.821035477479423"><ele>705.0</ele><time>2026-04-25T11:48:12.999Z</time></trkpt><trkpt lat="41.3387589329146" lon="14.821143750160314"><ele>705.0</ele><time>2026-04-25T11:48:13.999Z</time></trkpt><trkpt lat="41.33893110801171" lon="14.821298840101257"><ele>705.0</ele><time>2026-04-25T11:48:14.999Z</time></trkpt><trkpt lat="41.33908888119465" lon="14.821423086101264"><ele>707.6666666666666</ele><time>2026-04-25T11:48:15.999Z</time></trkpt><trkpt lat="41.33928089630395" lon="14.821472139921552"><ele>710.3333333333333</ele><time>2026-04-25T11:48:16.999Z</time></trkpt><trkpt lat="41.33948656826917" lon="14.821504990887505"><ele>713.0</ele><time>2026-04-25T11:48:17.999Z</time></trkpt><trkpt lat="41.33970791162959" lon="14.821496632917684"><ele>714.3333333333333</ele><time>2026-04-25T11:48:18.999Z</time></trkpt><trkpt lat="41.3399028431626" lon="14.821488079844928"><ele>715.6666666666666</ele><time>2026-04-25T11:48:19.999Z</time></trkpt><trkpt lat="41.340081715395755" lon="14.821480301548823"><ele>717.0</ele><time>2026-04-25T11:48:20.999Z</time></trkpt><trkpt lat="41.34023659474695" lon="14.821538720293976"><ele>717.0</ele><time>2026-04-25T11:48:21.999Z</time></trkpt><trkpt lat="41.34037054113113" lon="14.821624587605445"><ele>717.0</ele><time>2026-04-25T11:48:22.999Z</time></trkpt><trkpt lat="41.340458015736026" lon="14.821805290592424"><ele>717.0</ele><time>2026-04-25T11:48:23.999Z</time></trkpt><trkpt lat="41.34058214380893" lon="14.822054080188662"><ele>718.0</ele><time>2026-04-25T11:48:24.999Z</time></trkpt><trkpt lat="41.340675974333635" lon="14.822296855375912"><ele>719.0</ele><time>2026-04-25T11:48:25.999Z</time></trkpt><trkpt lat="41.34079067434877" lon="14.822489943676917"><ele>720.0</ele><time>2026-04-25T11:48:26.999Z</time></trkpt><trkpt lat="41.34093270335515" lon="14.822663364680876"><ele>719.3333333333334</ele><time>2026-04-25T11:48:27.999Z</time></trkpt><trkpt lat="41.34112154564469" lon="14.822791148367278"><ele>718.6666666666667</ele><time>2026-04-25T11:48:28.999Z</time></trkpt><trkpt lat="41.34133467755247" lon="14.822900061113373"><ele>718.0</ele><time>2026-04-25T11:48:29.999Z</time></trkpt><trkpt lat="41.34156100164509" lon="14.822997368701515"><ele>718.0</ele><time>2026-04-25T11:48:30.999Z</time></trkpt><trkpt lat="41.34174984236571" lon="14.823148539024096"><ele>718.0</ele><time>2026-04-25T11:48:31.999Z</time></trkpt><trkpt lat="41.34191749430741" lon="14.823343935360258"><ele>718.0</ele><time>2026-04-25T11:48:32.999Z</time></trkpt><trkpt lat="41.342053965233" lon="14.823599628303544"><ele>715.5</ele><time>2026-04-25T11:48:33.999Z</time></trkpt><trkpt lat="41.342209224135274" lon="14.823860978994844"><ele>713.0</ele><time>2026-04-25T11:48:34.999Z</time></trkpt><trkpt lat="41.34233454831327" lon="14.824144047377523"><ele>715.3333333333333</ele><time>2026-04-25T11:48:35.999Z</time></trkpt><trkpt lat="41.34246042221437" lon="14.824390479707295"><ele>717.6666666666666</ele><time>2026-04-25T11:48:36.999Z</time></trkpt><trkpt lat="41.34258260321718" lon="14.824613175813544"><ele>720.0</ele><time>2026-04-25T11:48:37.999Z</time></trkpt><trkpt lat="41.342680985304774" lon="14.824813988125815"><ele>720.0</ele><time>2026-04-25T11:48:38.999Z</time></trkpt><trkpt lat="41.342730586433035" lon="14.825016992912236"><ele>720.0</ele><time>2026-04-25T11:48:39.999Z</time></trkpt><trkpt lat="41.3427161982174" lon="14.825229158601363"><ele>720.0</ele><time>2026-04-25T11:48:40.999Z</time></trkpt><trkpt lat="41.342641436467254" lon="14.825413594191174"><ele>720.25</ele><time>2026-04-25T11:48:41.999Z</time></trkpt><trkpt lat="41.342565139560925" lon="14.825579356491307"><ele>720.5</ele><time>2026-04-25T11:48:42.999Z</time></trkpt><trkpt lat="41.34254386279343" lon="14.825743557531986"><ele>720.75</ele><time>2026-04-25T11:48:43.999Z</time></trkpt><trkpt lat="41.34259149382947" lon="14.82589047854472"><ele>721.0</ele><time>2026-04-25T11:48:44.999Z</time></trkpt><trkpt lat="41.34269542338326" lon="14.826014971747774"><ele>719.6666666666667</ele><time>2026-04-25T11:48:45.999Z</time></trkpt><trkpt lat="41.34285572008504" lon="14.826109814492597"><ele>718.3333333333334</ele><time>2026-04-25T11:48:46.999Z</time></trkpt><trkpt lat="41.34305329123166" lon="14.826189744059612"><ele>717.0</ele><time>2026-04-25T11:48:47.999Z</time></trkpt><trkpt lat="41.343274021095155" lon="14.826244051190432"><ele>717.0</ele><time>2026-04-25T11:48:48.999Z</time></trkpt><trkpt lat="41.343481313360265" lon="14.826257137666612"><ele>717.0</ele><time>2026-04-25T11:48:49.999Z</time></trkpt><trkpt lat="41.34370589982286" lon="14.826254166844526"><ele>717.0</ele><time>2026-04-25T11:48:50.999Z</time></trkpt><trkpt lat="41.343947080057816" lon="14.826251911296046"><ele>719.5</ele><time>2026-04-25T11:48:51.999Z</time></trkpt><trkpt lat="41.344188368569334" lon="14.82626700243399"><ele>722.0</ele><time>2026-04-25T11:48:52.999Z</time></trkpt><trkpt lat="41.3444353899842" lon="14.826304865432144"><ele>722.0</ele><time>2026-04-25T11:48:53.999Z</time></trkpt><trkpt lat="41.34469207204782" lon="14.826386769477088"><ele>722.0</ele><time>2026-04-25T11:48:54.999Z</time></trkpt><trkpt lat="41.34495140948866" lon="14.826510699361592"><ele>725.0</ele><time>2026-04-25T11:48:55.999Z</time></trkpt><trkpt lat="41.34520875422059" lon="14.826634143758936"><ele>728.0</ele><time>2026-04-25T11:48:56.999Z</time></trkpt><trkpt lat="41.345469897475766" lon="14.826741545394496"><ele>728.0</ele><time>2026-04-25T11:48:57.999Z</time></trkpt><trkpt lat="41.34572936672493" lon="14.826846605714435"><ele>728.0</ele><time>2026-04-25T11:48:58.999Z</time></trkpt><trkpt lat="41.34597641682058" lon="14.82695515405984"><ele>728.0</ele><time>2026-04-25T11:48:59.999Z</time></trkpt><trkpt lat="41.346206589190686" lon="14.82705830593741"><ele>728.0</ele><time>2026-04-25T11:49:00.999Z</time></trkpt><trkpt lat="41.34643635220819" lon="14.827148069378442"><ele>732.5</ele><time>2026-04-25T11:49:01.999Z</time></trkpt><trkpt lat="41.34666340995488" lon="14.827220488642379"><ele>737.0</ele><time>2026-04-25T11:49:02.999Z</time></trkpt><trkpt lat="41.34689772734801" lon="14.827282715662134"><ele>737.0</ele><time>2026-04-25T11:49:03.999Z</time></trkpt><trkpt lat="41.347129332948825" lon="14.827323830613327"><ele>737.0</ele><time>2026-04-25T11:49:04.999Z</time></trkpt><trkpt lat="41.34736297346548" lon="14.827347070572094"><ele>739.3333333333333</ele><time>2026-04-25T11:49:05.999Z</time></trkpt><trkpt lat="41.34757207831095" lon="14.827356039980431"><ele>741.6666666666666</ele><time>2026-04-25T11:49:06.998Z</time></trkpt><trkpt lat="41.34777632822946" lon="14.827388306942286"><ele>744.0</ele><time>2026-04-25T11:49:07.998Z</time></trkpt><trkpt lat="41.34797503017455" lon="14.82746939497373"><ele>745.6666666666666</ele><time>2026-04-25T11:49:08.998Z</time></trkpt><trkpt lat="41.348172247816876" lon="14.827565247361125"><ele>747.3333333333333</ele><time>2026-04-25T11:49:09.998Z</time></trkpt><trkpt lat="41.34832974685786" lon="14.827643384028052"><ele>749.0</ele><time>2026-04-25T11:49:10.998Z</time></trkpt><trkpt lat="41.34847923366068" lon="14.827659027890245"><ele>749.0</ele><time>2026-04-25T11:49:12Z</time></trkpt><trkpt lat="41.34862271636928" lon="14.827595945992345"><ele>749.0</ele><time>2026-04-25T11:49:13Z</time></trkpt><trkpt lat="41.34874467336641" lon="14.827466699765516"><ele>749.0</ele><time>2026-04-25T11:49:14Z</time></trkpt><trkpt lat="41.34886232383815" lon="14.827298526383538"><ele>748.6666666666666</ele><time>2026-04-25T11:49:15Z</time></trkpt><trkpt lat="41.34899196178895" lon="14.827160801955294"><ele>748.3333333333334</ele><time>2026-04-25T11:49:16Z</time></trkpt><trkpt lat="41.34913794116147" lon="14.827073637148395"><ele>748.0</ele><time>2026-04-25T11:49:17Z</time></trkpt><trkpt lat="41.34928573788773" lon="14.827074944047181"><ele>748.0</ele><time>2026-04-25T11:49:18Z</time></trkpt><trkpt lat="41.34944609594786" lon="14.827151314140982"><ele>748.0</ele><time>2026-04-25T11:49:19Z</time></trkpt><trkpt lat="41.349602617076" lon="14.827286367736525"><ele>748.0</ele><time>2026-04-25T11:49:20Z</time></trkpt><trkpt lat="41.34976454609721" lon="14.827488584758438"><ele>748.0</ele><time>2026-04-25T11:49:21Z</time></trkpt><trkpt lat="41.349930453309234" lon="14.827702659703967"><ele>748.0</ele><time>2026-04-25T11:49:22Z</time></trkpt><trkpt lat="41.350077493893046" lon="14.82789789285338"><ele>748.0</ele><time>2026-04-25T11:49:23Z</time></trkpt><trkpt lat="41.3502024480263" lon="14.828106320254687"><ele>748.0</ele><time>2026-04-25T11:49:24Z</time></trkpt><trkpt lat="41.35031171344991" lon="14.828317182076749"><ele>748.0</ele><time>2026-04-25T11:49:25Z</time></trkpt><trkpt lat="41.35042159517515" lon="14.828496756438419"><ele>748.0</ele><time>2026-04-25T11:49:26Z</time></trkpt><trkpt lat="41.35055557199915" lon="14.828624970780822"><ele>747.0</ele><time>2026-04-25T11:49:27Z</time></trkpt><trkpt lat="41.350731817585064" lon="14.828706877215906"><ele>746.0</ele><time>2026-04-25T11:49:28Z</time></trkpt><trkpt lat="41.35093760011548" lon="14.82876076405216"><ele>745.0</ele><time>2026-04-25T11:49:29Z</time></trkpt><trkpt lat="41.351155353527076" lon="14.828818633556406"><ele>745.0</ele><time>2026-04-25T11:49:30Z</time></trkpt><trkpt lat="41.35136673012279" lon="14.828925234899673"><ele>745.0</ele><time>2026-04-25T11:49:31Z</time></trkpt><trkpt lat="41.35155872564882" lon="14.829077055916907"><ele>745.0</ele><time>2026-04-25T11:49:32Z</time></trkpt><trkpt lat="41.35171849240194" lon="14.82925347305525"><ele>745.0</ele><time>2026-04-25T11:49:33Z</time></trkpt><trkpt lat="41.35186565721817" lon="14.829421173994481"><ele>745.0</ele><time>2026-04-25T11:49:34Z</time></trkpt><trkpt lat="41.35201142970545" lon="14.829547586806115"><ele>745.0</ele><time>2026-04-25T11:49:35Z</time></trkpt><trkpt lat="41.352159998063584" lon="14.829620289607377"><ele>745.3333333333334</ele><time>2026-04-25T11:49:36Z</time></trkpt><trkpt lat="41.35232950809997" lon="14.829637955913908"><ele>745.6666666666666</ele><time>2026-04-25T11:49:37Z</time></trkpt><trkpt lat="41.3525193667921" lon="14.82960134828469"><ele>746.0</ele><time>2026-04-25T11:49:38Z</time></trkpt><trkpt lat="41.35272526065036" lon="14.829540368909484"><ele>746.0</ele><time>2026-04-25T11:49:39Z</time></trkpt><trkpt lat="41.35296185612776" lon="14.82949035828409"><ele>746.0</ele><time>2026-04-25T11:49:40Z</time></trkpt><trkpt lat="41.353208689761004" lon="14.829481930739004"><ele>742.5</ele><time>2026-04-25T11:49:41Z</time></trkpt><trkpt lat="41.35345822008212" lon="14.829420483547489"><ele>739.0</ele><time>2026-04-25T11:49:42Z</time></trkpt><trkpt lat="41.3536847471828" lon="14.82938749483721"><ele>738.3333333333334</ele><time>2026-04-25T11:49:43Z</time></trkpt><trkpt lat="41.353899197413575" lon="14.829383921647645"><ele>737.6666666666666</ele><time>2026-04-25T11:49:43.999Z</time></trkpt><trkpt lat="41.35410178651482" lon="14.829370433128627"><ele>737.0</ele><time>2026-04-25T11:49:44.999Z</time></trkpt><trkpt lat="41.35430378035065" lon="14.829398723033389"><ele>737.0</ele><time>2026-04-25T11:49:45.999Z</time></trkpt><trkpt lat="41.35451056703996" lon="14.829494638762725"><ele>737.0</ele><time>2026-04-25T11:49:46.999Z</time></trkpt><trkpt lat="41.354743967127924" lon="14.829607693752335"><ele>740.5</ele><time>2026-04-25T11:49:47.999Z</time></trkpt><trkpt lat="41.354981586754874" lon="14.829711789315812"><ele>744.0</ele><time>2026-04-25T11:49:48.999Z</time></trkpt><trkpt lat="41.35520360682519" lon="14.829812800441848"><ele>744.0</ele><time>2026-04-25T11:49:49.999Z</time></trkpt><trkpt lat="41.355417535390366" lon="14.829915462689288"><ele>744.0</ele><time>2026-04-25T11:49:50.999Z</time></trkpt><trkpt lat="41.355630372143786" lon="14.830019090337313"><ele>742.5</ele><time>2026-04-25T11:49:51.999Z</time></trkpt><trkpt lat="41.355842408435876" lon="14.83014901329481"><ele>741.0</ele><time>2026-04-25T11:49:52.999Z</time></trkpt><trkpt lat="41.35606322559614" lon="14.83024414054078"><ele>741.0</ele><time>2026-04-25T11:49:53.999Z</time></trkpt><trkpt lat="41.356286493345216" lon="14.830379409514844"><ele>741.0</ele><time>2026-04-25T11:49:54.999Z</time></trkpt><trkpt lat="41.356500783841035" lon="14.830489982934546"><ele>741.0</ele><time>2026-04-25T11:49:55.999Z</time></trkpt><trkpt lat="41.35671154784414" lon="14.830575556866236"><ele>741.0</ele><time>2026-04-25T11:49:56.999Z</time></trkpt><trkpt lat="41.356909293495534" lon="14.830678219794754"><ele>741.0</ele><time>2026-04-25T11:49:57.999Z</time></trkpt><trkpt lat="41.35709487411368" lon="14.830797134308376"><ele>742.6666666666666</ele><time>2026-04-25T11:49:58.999Z</time></trkpt><trkpt lat="41.357274846186" lon="14.830895120112823"><ele>744.3333333333333</ele><time>2026-04-25T11:49:59.999Z</time></trkpt><trkpt lat="41.357426538301794" lon="14.830999109650552"><ele>746.0</ele><time>2026-04-25T11:50:00.999Z</time></trkpt><trkpt lat="41.3575671631971" lon="14.831147907749584"><ele>742.6666666666666</ele><time>2026-04-25T11:50:01.999Z</time></trkpt><trkpt lat="41.35770277832222" lon="14.83132335740064"><ele>739.3333333333334</ele><time>2026-04-25T11:50:02.999Z</time></trkpt><trkpt lat="41.35785110373524" lon="14.831490919993925"><ele>736.0</ele><time>2026-04-25T11:50:03.999Z</time></trkpt><trkpt lat="41.357999075407385" lon="14.831668900786301"><ele>735.3333333333334</ele><time>2026-04-25T11:50:04.999Z</time></trkpt><trkpt lat="41.358142838880944" lon="14.831824417161194"><ele>734.6666666666666</ele><time>2026-04-25T11:50:05.999Z</time></trkpt><trkpt lat="41.35828085386725" lon="14.831976400968927"><ele>734.0</ele><time>2026-04-25T11:50:06.999Z</time></trkpt><trkpt lat="41.35840587511903" lon="14.832123624676855"><ele>734.0</ele><time>2026-04-25T11:50:07.999Z</time></trkpt><trkpt lat="41.35853455797467" lon="14.832260045809562"><ele>734.0</ele><time>2026-04-25T11:50:08.999Z</time></trkpt><trkpt lat="41.35866817634204" lon="14.832373646882916"><ele>734.0</ele><time>2026-04-25T11:50:09.999Z</time></trkpt><trkpt lat="41.358814900570934" lon="14.83246242600881"><ele>733.5</ele><time>2026-04-25T11:50:10.999Z</time></trkpt><trkpt lat="41.35897280026541" lon="14.832521941623748"><ele>733.0</ele><time>2026-04-25T11:50:11.999Z</time></trkpt><trkpt lat="41.35910419557265" lon="14.832579391336301"><ele>732.5</ele><time>2026-04-25T11:50:12.999Z</time></trkpt><trkpt lat="41.359229627933594" lon="14.832644698409123"><ele>732.0</ele><time>2026-04-25T11:50:13.999Z</time></trkpt><trkpt lat="41.35935222165391" lon="14.832721256624469"><ele>731.75</ele><time>2026-04-25T11:50:14.999Z</time></trkpt><trkpt lat="41.35947080042288" lon="14.832826397215651"><ele>731.5</ele><time>2026-04-25T11:50:15.999Z</time></trkpt><trkpt lat="41.35959580189231" lon="14.832939288406116"><ele>731.25</ele><time>2026-04-25T11:50:16.999Z</time></trkpt><trkpt lat="41.359724789984874" lon="14.833050869709732"><ele>731.0</ele><time>2026-04-25T11:50:17.999Z</time></trkpt><trkpt lat="41.35985596366956" lon="14.833167034039578"><ele>731.0</ele><time>2026-04-25T11:50:18.999Z</time></trkpt><trkpt lat="41.35999527434357" lon="14.833284450573526"><ele>731.0</ele><time>2026-04-25T11:50:19.999Z</time></trkpt><trkpt lat="41.3601339343888" lon="14.833403534601729"><ele>731.0</ele><time>2026-04-25T11:50:20.999Z</time></trkpt><trkpt lat="41.360280470489684" lon="14.833518266330001"><ele>730.3333333333333</ele><time>2026-04-25T11:50:21.999Z</time></trkpt><trkpt lat="41.360429112507724" lon="14.833631030606567"><ele>729.6666666666666</ele><time>2026-04-25T11:50:22.999Z</time></trkpt><trkpt lat="41.3605807941815" lon="14.83373894777877"><ele>729.0</ele><time>2026-04-25T11:50:23.999Z</time></trkpt><trkpt lat="41.360729660281024" lon="14.833839593218181"><ele>730.3333333333334</ele><time>2026-04-25T11:50:24.999Z</time></trkpt><trkpt lat="41.360873724706934" lon="14.833935715607625"><ele>731.6666666666667</ele><time>2026-04-25T11:50:25.999Z</time></trkpt><trkpt lat="41.36102150309209" lon="14.83406235569523"><ele>733.0</ele><time>2026-04-25T11:50:26.999Z</time></trkpt><trkpt lat="41.36115224563823" lon="14.834218726930912"><ele>733.6666666666667</ele><time>2026-04-25T11:50:27.999Z</time></trkpt><trkpt lat="41.3612698170791" lon="14.834436529986297"><ele>734.3333333333334</ele><time>2026-04-25T11:50:28.999Z</time></trkpt><trkpt lat="41.36138908426975" lon="14.834679936374775"><ele>735.0</ele><time>2026-04-25T11:50:29.999Z</time></trkpt><trkpt lat="41.36151147525326" lon="14.83489821978734"><ele>737.0</ele><time>2026-04-25T11:50:30.999Z</time></trkpt><trkpt lat="41.36162080989006" lon="14.835089986596877"><ele>739.0</ele><time>2026-04-25T11:50:31.999Z</time></trkpt><trkpt lat="41.361714914679915" lon="14.835262518856842"><ele>741.0</ele><time>2026-04-25T11:50:32.999Z</time></trkpt><trkpt lat="41.361800237999226" lon="14.835421210378662"><ele>741.5</ele><time>2026-04-25T11:50:33.999Z</time></trkpt><trkpt lat="41.36187978970842" lon="14.835562109781185"><ele>742.0</ele><time>2026-04-25T11:50:34.999Z</time></trkpt><trkpt lat="41.36197477470115" lon="14.83567077118075"><ele>742.5</ele><time>2026-04-25T11:50:35.999Z</time></trkpt><trkpt lat="41.36206973397767" lon="14.835778857952647"><ele>743.0</ele><time>2026-04-25T11:50:36.999Z</time></trkpt><trkpt lat="41.36224323808111" lon="14.835760887476868"><ele>744.3333333333333</ele><time>2026-04-25T11:50:37.999Z</time></trkpt><trkpt lat="41.36240566424623" lon="14.835746016253404"><ele>745.6666666666666</ele><time>2026-04-25T11:50:38.999Z</time></trkpt><trkpt lat="41.362559086070945" lon="14.835784346626257"><ele>747.0</ele><time>2026-04-25T11:50:39.999Z</time></trkpt><trkpt lat="41.362697837315274" lon="14.835802010907978"><ele>747.0</ele><time>2026-04-25T11:50:40.999Z</time></trkpt><trkpt lat="41.36283679565765" lon="14.835819213141438"><ele>747.0</ele><time>2026-04-25T11:50:41.999Z</time></trkpt><trkpt lat="41.362978980077145" lon="14.83581910677482"><ele>747.0</ele><time>2026-04-25T11:50:42.999Z</time></trkpt><trkpt lat="41.36312520116834" lon="14.8358396347663"><ele>747.0</ele><time>2026-04-25T11:50:43.999Z</time></trkpt><trkpt lat="41.36327210713345" lon="14.83585275969497"><ele>747.25</ele><time>2026-04-25T11:50:44.999Z</time></trkpt><trkpt lat="41.36339830908567" lon="14.835885826534513"><ele>747.5</ele><time>2026-04-25T11:50:45.999Z</time></trkpt><trkpt lat="41.363534462298105" lon="14.835904736702227"><ele>747.75</ele><time>2026-04-25T11:50:46.999Z</time></trkpt><trkpt lat="41.36368323164434" lon="14.835925637410472"><ele>748.0</ele><time>2026-04-25T11:50:47.999Z</time></trkpt><trkpt lat="41.363819148092894" lon="14.8359505551041"><ele>748.0</ele><time>2026-04-25T11:50:48.999Z</time></trkpt><trkpt lat="41.36394982743218" lon="14.835971895987962"><ele>748.0</ele><time>2026-04-25T11:50:49.999Z</time></trkpt><trkpt lat="41.364094134507766" lon="14.83603028803531"><ele>748.0</ele><time>2026-04-25T11:50:50.999Z</time></trkpt><trkpt lat="41.364234698451604" lon="14.836034616947478"><ele>748.0</ele><time>2026-04-25T11:50:51.999Z</time></trkpt><trkpt lat="41.36437574666335" lon="14.836056340649355"><ele>748.0</ele><time>2026-04-25T11:50:52.999Z</time></trkpt><trkpt lat="41.36451282102094" lon="14.836075361949076"><ele>748.0</ele><time>2026-04-25T11:50:53.999Z</time></trkpt><trkpt lat="41.36466293746987" lon="14.836089362687284"><ele>748.0</ele><time>2026-04-25T11:50:54.999Z</time></trkpt><trkpt lat="41.36482117495493" lon="14.836134240831056"><ele>748.0</ele><time>2026-04-25T11:50:55.999Z</time></trkpt><trkpt lat="41.364987279859726" lon="14.836160261938684"><ele>748.0</ele><time>2026-04-25T11:50:56.999Z</time></trkpt><trkpt lat="41.36515716781926" lon="14.83618687567749"><ele>748.0</ele><time>2026-04-25T11:50:57.999Z</time></trkpt><trkpt lat="41.365304083047896" lon="14.83620989060153"><ele>748.0</ele><time>2026-04-25T11:50:58.999Z</time></trkpt><trkpt lat="41.36544349137876" lon="14.836224801516737"><ele>748.0</ele><time>2026-04-25T11:50:59.999Z</time></trkpt><trkpt lat="41.36558126998202" lon="14.83624621741601"><ele>748.0</ele><time>2026-04-25T11:51:00.999Z</time></trkpt><trkpt lat="41.365703725021355" lon="14.836265168319825"><ele>748.0</ele><time>2026-04-25T11:51:01.999Z</time></trkpt><trkpt lat="41.36583672629208" lon="14.836286059241187"><ele>747.3333333333334</ele><time>2026-04-25T11:51:02.999Z</time></trkpt><trkpt lat="41.365978245854585" lon="14.836310578187904"><ele>746.6666666666666</ele><time>2026-04-25T11:51:03.999Z</time></trkpt><trkpt lat="41.366114738251085" lon="14.836403129269275"><ele>746.0</ele><time>2026-04-25T11:51:04.999Z</time></trkpt><trkpt lat="41.36624869026584" lon="14.836568828693414"><ele>747.3333333333333</ele><time>2026-04-25T11:51:05.999Z</time></trkpt><trkpt lat="41.36638448752304" lon="14.836715637476669"><ele>748.6666666666666</ele><time>2026-04-25T11:51:06.999Z</time></trkpt><trkpt lat="41.366535262712944" lon="14.836859357331083"><ele>750.0</ele><time>2026-04-25T11:51:07.999Z</time></trkpt><trkpt lat="41.36669356491435" lon="14.836990951530465"><ele>750.0</ele><time>2026-04-25T11:51:08.999Z</time></trkpt><trkpt lat="41.36685387432766" lon="14.837137209985526"><ele>750.0</ele><time>2026-04-25T11:51:09.999Z</time></trkpt><trkpt lat="41.367024926276216" lon="14.837288681654584"><ele>750.0</ele><time>2026-04-25T11:51:10.998Z</time></trkpt><trkpt lat="41.367192088583124" lon="14.837440298506793"><ele>751.0</ele><time>2026-04-25T11:51:11.998Z</time></trkpt><trkpt lat="41.36736030826505" lon="14.837572200720759"><ele>752.0</ele><time>2026-04-25T11:51:12.998Z</time></trkpt><trkpt lat="41.367511506952376" lon="14.837725715191578"><ele>753.0</ele><time>2026-04-25T11:51:13.998Z</time></trkpt><trkpt lat="41.36767126372102" lon="14.837860308375522"><ele>755.0</ele><time>2026-04-25T11:51:14.998Z</time></trkpt><trkpt lat="41.36782725591621" lon="14.838000545293319"><ele>757.0</ele><time>2026-04-25T11:51:15.998Z</time></trkpt><trkpt lat="41.36798823759982" lon="14.83814229653191"><ele>759.0</ele><time>2026-04-25T11:51:16.998Z</time></trkpt><trkpt lat="41.368134834063795" lon="14.838269330641374"><ele>759.6666666666666</ele><time>2026-04-25T11:51:18Z</time></trkpt><trkpt lat="41.368268785755355" lon="14.83838263169705"><ele>760.3333333333333</ele><time>2026-04-25T11:51:19Z</time></trkpt><trkpt lat="41.36840019704183" lon="14.838465748591197"><ele>761.0</ele><time>2026-04-25T11:51:20Z</time></trkpt><trkpt lat="41.3685622075604" lon="14.83849814381838"><ele>760.0</ele><time>2026-04-25T11:51:21Z</time></trkpt><trkpt lat="41.368727031948055" lon="14.838469878114191"><ele>759.0</ele><time>2026-04-25T11:51:22Z</time></trkpt><trkpt lat="41.36892255531965" lon="14.83842308471401"><ele>758.0</ele><time>2026-04-25T11:51:23Z</time></trkpt><trkpt lat="41.369094609120665" lon="14.838393676511334"><ele>758.0</ele><time>2026-04-25T11:51:24Z</time></trkpt><trkpt lat="41.36924018066006" lon="14.838417893746067"><ele>758.0</ele><time>2026-04-25T11:51:25Z</time></trkpt><trkpt lat="41.36937067535166" lon="14.838459358318277"><ele>758.0</ele><time>2026-04-25T11:51:26Z</time></trkpt><trkpt lat="41.36949097659361" lon="14.838575437887155"><ele>758.0</ele><time>2026-04-25T11:51:27Z</time></trkpt><trkpt lat="41.369621515525694" lon="14.838740811324778"><ele>760.3333333333333</ele><time>2026-04-25T11:51:28Z</time></trkpt><trkpt lat="41.36976883764749" lon="14.838918080657292"><ele>762.6666666666666</ele><time>2026-04-25T11:51:29Z</time></trkpt><trkpt lat="41.36991087800991" lon="14.839107928609485"><ele>765.0</ele><time>2026-04-25T11:51:30Z</time></trkpt><trkpt lat="41.37004824613169" lon="14.839301702878297"><ele>766.3333333333333</ele><time>2026-04-25T11:51:31Z</time></trkpt><trkpt lat="41.370186911049466" lon="14.839515370747158"><ele>767.6666666666666</ele><time>2026-04-25T11:51:32Z</time></trkpt><trkpt lat="41.37030775713249" lon="14.83975057048741"><ele>769.0</ele><time>2026-04-25T11:51:33Z</time></trkpt><trkpt lat="41.370412848064795" lon="14.839976817857591"><ele>769.0</ele><time>2026-04-25T11:51:34Z</time></trkpt><trkpt lat="41.37051340029864" lon="14.840175084378794"><ele>769.0</ele><time>2026-04-25T11:51:35Z</time></trkpt><trkpt lat="41.37064736475234" lon="14.840364942240694"><ele>769.0</ele><time>2026-04-25T11:51:36Z</time></trkpt><trkpt lat="41.370819194256654" lon="14.840516421973811"><ele>770.3333333333333</ele><time>2026-04-25T11:51:37Z</time></trkpt><trkpt lat="41.37101398524884" lon="14.840646189888478"><ele>771.6666666666667</ele><time>2026-04-25T11:51:38Z</time></trkpt><trkpt lat="41.371220951533424" lon="14.840757071687367"><ele>773.0</ele><time>2026-04-25T11:51:39Z</time></trkpt><trkpt lat="41.37143984009355" lon="14.840864872001191"><ele>773.5</ele><time>2026-04-25T11:51:40Z</time></trkpt><trkpt lat="41.371649738259606" lon="14.841000876099846"><ele>774.0</ele><time>2026-04-25T11:51:41Z</time></trkpt><trkpt lat="41.37188337036616" lon="14.841102811287303"><ele>774.0</ele><time>2026-04-25T11:51:42Z</time></trkpt><trkpt lat="41.37211733556865" lon="14.841229286348126"><ele>774.0</ele><time>2026-04-25T11:51:43Z</time></trkpt><trkpt lat="41.372365105173756" lon="14.841350390409271"><ele>776.0</ele><time>2026-04-25T11:51:44Z</time></trkpt><trkpt lat="41.372608496724176" lon="14.841445748125766"><ele>778.0</ele><time>2026-04-25T11:51:45Z</time></trkpt><trkpt lat="41.372862551977384" lon="14.841519574804307"><ele>780.5</ele><time>2026-04-25T11:51:46Z</time></trkpt><trkpt lat="41.373120066496895" lon="14.841579382063895"><ele>783.0</ele><time>2026-04-25T11:51:47Z</time></trkpt><trkpt lat="41.3733843730946" lon="14.84163178271226"><ele>783.0</ele><time>2026-04-25T11:51:48Z</time></trkpt><trkpt lat="41.37364228632216" lon="14.841689162835982"><ele>783.0</ele><time>2026-04-25T11:51:49Z</time></trkpt><trkpt lat="41.37388029535082" lon="14.841736673362036"><ele>785.0</ele><time>2026-04-25T11:51:50Z</time></trkpt><trkpt lat="41.37411720264607" lon="14.841762509614489"><ele>787.0</ele><time>2026-04-25T11:51:51Z</time></trkpt><trkpt lat="41.37435781879524" lon="14.841738366924629"><ele>787.0</ele><time>2026-04-25T11:51:52Z</time></trkpt><trkpt lat="41.37460927687614" lon="14.841701555517835"><ele>787.0</ele><time>2026-04-25T11:51:53Z</time></trkpt><trkpt lat="41.374865433198856" lon="14.841653171869005"><ele>788.0</ele><time>2026-04-25T11:51:54Z</time></trkpt><trkpt lat="41.375110313668166" lon="14.841607364670617"><ele>789.0</ele><time>2026-04-25T11:51:55Z</time></trkpt><trkpt lat="41.37534563146861" lon="14.841561902219654"><ele>791.0</ele><time>2026-04-25T11:51:56Z</time></trkpt><trkpt lat="41.375582677518764" lon="14.841514883102201"><ele>793.0</ele><time>2026-04-25T11:51:57Z</time></trkpt><trkpt lat="41.37581747175761" lon="14.841498441406985"><ele>793.0</ele><time>2026-04-25T11:51:58Z</time></trkpt><trkpt lat="41.37605861908639" lon="14.8415091844648"><ele>793.0</ele><time>2026-04-25T11:51:59Z</time></trkpt><trkpt lat="41.37629925917474" lon="14.841505415220112"><ele>794.3333333333333</ele><time>2026-04-25T11:52:00Z</time></trkpt><trkpt lat="41.37652791055497" lon="14.841517421302166"><ele>795.6666666666667</ele><time>2026-04-25T11:52:00.999Z</time></trkpt><trkpt lat="41.37674600725747" lon="14.841514747782421"><ele>797.0</ele><time>2026-04-25T11:52:01.999Z</time></trkpt><trkpt lat="41.37695284529064" lon="14.841502867818035"><ele>797.0</ele><time>2026-04-25T11:52:02.999Z</time></trkpt><trkpt lat="41.37715276004051" lon="14.841490506316326"><ele>797.0</ele><time>2026-04-25T11:52:03.999Z</time></trkpt><trkpt lat="41.37733779442209" lon="14.841496114091912"><ele>797.0</ele><time>2026-04-25T11:52:04.999Z</time></trkpt><trkpt lat="41.37753405261688" lon="14.841512945981725"><ele>797.3333333333334</ele><time>2026-04-25T11:52:05.999Z</time></trkpt><trkpt lat="41.377719004635" lon="14.84157749512437"><ele>797.6666666666667</ele><time>2026-04-25T11:52:06.999Z</time></trkpt><trkpt lat="41.37788739598485" lon="14.8416892381576"><ele>798.0</ele><time>2026-04-25T11:52:07.999Z</time></trkpt><trkpt lat="41.37801500094837" lon="14.841828118122036"><ele>800.3333333333333</ele><time>2026-04-25T11:52:08.999Z</time></trkpt><trkpt lat="41.378091013192545" lon="14.842012264654992"><ele>802.6666666666666</ele><time>2026-04-25T11:52:09.999Z</time></trkpt><trkpt lat="41.378117854694445" lon="14.842232091981653"><ele>805.0</ele><time>2026-04-25T11:52:10.999Z</time></trkpt><trkpt lat="41.37813389533067" lon="14.842468249057845"><ele>805.0</ele><time>2026-04-25T11:52:11.999Z</time></trkpt><trkpt lat="41.378208216196306" lon="14.842669998444931"><ele>805.0</ele><time>2026-04-25T11:52:12.999Z</time></trkpt><trkpt lat="41.378354754569905" lon="14.842856508859372"><ele>805.0</ele><time>2026-04-25T11:52:13.999Z</time></trkpt><trkpt lat="41.37851465405003" lon="14.84305020044152"><ele>805.0</ele><time>2026-04-25T11:52:14.999Z</time></trkpt><trkpt lat="41.378674916412905" lon="14.843275606896992"><ele>805.0</ele><time>2026-04-25T11:52:15.999Z</time></trkpt><trkpt lat="41.378832395609166" lon="14.84348623173739"><ele>806.6666666666666</ele><time>2026-04-25T11:52:16.999Z</time></trkpt><trkpt lat="41.37899477136563" lon="14.843678467569207"><ele>808.3333333333333</ele><time>2026-04-25T11:52:17.999Z</time></trkpt><trkpt lat="41.379124910528574" lon="14.843862511470844"><ele>810.0</ele><time>2026-04-25T11:52:18.999Z</time></trkpt><trkpt lat="41.37922727653789" lon="14.844067655807478"><ele>809.6666666666667</ele><time>2026-04-25T11:52:19.999Z</time></trkpt><trkpt lat="41.37929491420736" lon="14.84430361666924"><ele>809.3333333333334</ele><time>2026-04-25T11:52:20.999Z</time></trkpt><trkpt lat="41.379346931588316" lon="14.844534358341651"><ele>809.0</ele><time>2026-04-25T11:52:21.999Z</time></trkpt><trkpt lat="41.37942485172356" lon="14.844737634357136"><ele>809.0</ele><time>2026-04-25T11:52:22.999Z</time></trkpt><trkpt lat="41.37955452930585" lon="14.844902385654159"><ele>809.0</ele><time>2026-04-25T11:52:23.999Z</time></trkpt><trkpt lat="41.37972112437127" lon="14.845027517400903"><ele>809.0</ele><time>2026-04-25T11:52:24.999Z</time></trkpt><trkpt lat="41.37989361576122" lon="14.845151024870205"><ele>809.6666666666667</ele><time>2026-04-25T11:52:25.999Z</time></trkpt><trkpt lat="41.38004828538363" lon="14.845326263159027"><ele>810.3333333333333</ele><time>2026-04-25T11:52:26.999Z</time></trkpt><trkpt lat="41.38017663310774" lon="14.845537125301153"><ele>811.0</ele><time>2026-04-25T11:52:27.999Z</time></trkpt><trkpt lat="41.38032525634444" lon="14.845714591153833"><ele>811.0</ele><time>2026-04-25T11:52:28.999Z</time></trkpt><trkpt lat="41.3805144889941" lon="14.845857132823129"><ele>811.0</ele><time>2026-04-25T11:52:29.999Z</time></trkpt><trkpt lat="41.3807107500315" lon="14.845998748829906"><ele>811.0</ele><time>2026-04-25T11:52:30.999Z</time></trkpt><trkpt lat="41.38089769875709" lon="14.84613400837368"><ele>811.0</ele><time>2026-04-25T11:52:31.999Z</time></trkpt><trkpt lat="41.381081215739584" lon="14.846236245739327"><ele>811.0</ele><time>2026-04-25T11:52:32.999Z</time></trkpt><trkpt lat="41.38126685354269" lon="14.846297950072449"><ele>811.0</ele><time>2026-04-25T11:52:33.999Z</time></trkpt><trkpt lat="41.38143457046433" lon="14.846343601369757"><ele>814.3333333333333</ele><time>2026-04-25T11:52:34.999Z</time></trkpt><trkpt lat="41.381587216069995" lon="14.8464245872509"><ele>817.6666666666667</ele><time>2026-04-25T11:52:35.999Z</time></trkpt><trkpt lat="41.38173781297608" lon="14.846570907131085"><ele>821.0</ele><time>2026-04-25T11:52:36.999Z</time></trkpt><trkpt lat="41.38188370343769" lon="14.846759602461512"><ele>819.0</ele><time>2026-04-25T11:52:37.999Z</time></trkpt><trkpt lat="41.38204463156727" lon="14.846951924494237"><ele>817.0</ele><time>2026-04-25T11:52:38.999Z</time></trkpt><trkpt lat="41.3821856040259" lon="14.847119084781568"><ele>815.0</ele><time>2026-04-25T11:52:39.999Z</time></trkpt><trkpt lat="41.382296168943995" lon="14.84728723528158"><ele>819.3333333333334</ele><time>2026-04-25T11:52:40.999Z</time></trkpt><trkpt lat="41.38238421666473" lon="14.847493453653184"><ele>823.6666666666667</ele><time>2026-04-25T11:52:41.999Z</time></trkpt><trkpt lat="41.382437912286754" lon="14.847740965884716"><ele>828.0</ele><time>2026-04-25T11:52:42.999Z</time></trkpt><trkpt lat="41.38246218992192" lon="14.847983855046346"><ele>828.0</ele><time>2026-04-25T11:52:43.999Z</time></trkpt><trkpt lat="41.382475020232974" lon="14.848188912759797"><ele>828.0</ele><time>2026-04-25T11:52:44.999Z</time></trkpt><trkpt lat="41.382420106400396" lon="14.848389846643698"><ele>828.0</ele><time>2026-04-25T11:52:45.999Z</time></trkpt><trkpt lat="41.382350181304034" lon="14.848568741186805"><ele>828.25</ele><time>2026-04-25T11:52:46.999Z</time></trkpt><trkpt lat="41.382330763327374" lon="14.848731038151923"><ele>828.5</ele><time>2026-04-25T11:52:47.999Z</time></trkpt><trkpt lat="41.38238036605744" lon="14.848913366081701"><ele>828.75</ele><time>2026-04-25T11:52:48.999Z</time></trkpt><trkpt lat="41.382458780543054" lon="14.849108768010478"><ele>829.0</ele><time>2026-04-25T11:52:49.999Z</time></trkpt><trkpt lat="41.38250004791354" lon="14.849332332004682"><ele>829.3333333333333</ele><time>2026-04-25T11:52:50.999Z</time></trkpt><trkpt lat="41.38249278963625" lon="14.849590939961608"><ele>829.6666666666667</ele><time>2026-04-25T11:52:51.999Z</time></trkpt><trkpt lat="41.38249612657082" lon="14.849844947975157"><ele>830.0</ele><time>2026-04-25T11:52:52.999Z</time></trkpt><trkpt lat="41.38254488995176" lon="14.85008392221641"><ele>829.6666666666667</ele><time>2026-04-25T11:52:53.999Z</time></trkpt><trkpt lat="41.38264125156376" lon="14.850320680619738"><ele>829.3333333333333</ele><time>2026-04-25T11:52:54.999Z</time></trkpt><trkpt lat="41.38275355521895" lon="14.850542930306585"><ele>829.0</ele><time>2026-04-25T11:52:55.999Z</time></trkpt><trkpt lat="41.38284615652147" lon="14.850725492818484"><ele>829.0</ele><time>2026-04-25T11:52:56.999Z</time></trkpt><trkpt lat="41.38294542663547" lon="14.850855576510469"><ele>829.0</ele><time>2026-04-25T11:52:57.999Z</time></trkpt><trkpt lat="41.38308157566169" lon="14.850901028994187"><ele>829.0</ele><time>2026-04-25T11:52:58.999Z</time></trkpt><trkpt lat="41.383245358824745" lon="14.850898290124075"><ele>829.0</ele><time>2026-04-25T11:52:59.999Z</time></trkpt><trkpt lat="41.38343542110469" lon="14.850873985544373"><ele>829.6666666666666</ele><time>2026-04-25T11:53:00.999Z</time></trkpt><trkpt lat="41.38361471230718" lon="14.850843320062836"><ele>830.3333333333333</ele><time>2026-04-25T11:53:01.999Z</time></trkpt><trkpt lat="41.38379376131297" lon="14.850746785843672"><ele>831.0</ele><time>2026-04-25T11:53:02.999Z</time></trkpt><trkpt lat="41.38393425755427" lon="14.85061546968275"><ele>831.0</ele><time>2026-04-25T11:53:03.999Z</time></trkpt><trkpt lat="41.38402694672892" lon="14.850489008887324"><ele>831.0</ele><time>2026-04-25T11:53:04.999Z</time></trkpt><trkpt lat="41.384132359822054" lon="14.850474917587999"><ele>831.0</ele><time>2026-04-25T11:53:05.999Z</time></trkpt><trkpt lat="41.384244666959454" lon="14.85049841424968"><ele>831.0</ele><time>2026-04-25T11:53:06.999Z</time></trkpt><trkpt lat="41.384371012821276" lon="14.850620335261754"><ele>831.0</ele><time>2026-04-25T11:53:07.999Z</time></trkpt><trkpt lat="41.384560252808726" lon="14.850736424807314"><ele>831.0</ele><time>2026-04-25T11:53:08.999Z</time></trkpt><trkpt lat="41.384743504732185" lon="14.85081348785586"><ele>831.0</ele><time>2026-04-25T11:53:09.999Z</time></trkpt><trkpt lat="41.38490223876001" lon="14.85086327655922"><ele>831.5</ele><time>2026-04-25T11:53:10.999Z</time></trkpt><trkpt lat="41.385050685609656" lon="14.850910493741083"><ele>832.0</ele><time>2026-04-25T11:53:11.999Z</time></trkpt><trkpt lat="41.385181553569694" lon="14.850967891263776"><ele>832.5</ele><time>2026-04-25T11:53:12.999Z</time></trkpt><trkpt lat="41.38525921439811" lon="14.851096903692332"><ele>833.0</ele><time>2026-04-25T11:53:13.999Z</time></trkpt><trkpt lat="41.385359476963046" lon="14.851266278445557"><ele>833.0</ele><time>2026-04-25T11:53:14.999Z</time></trkpt><trkpt lat="41.38548689181314" lon="14.851441706831329"><ele>833.0</ele><time>2026-04-25T11:53:15.999Z</time></trkpt><trkpt lat="41.38560337113306" lon="14.85159752958957"><ele>833.0</ele><time>2026-04-25T11:53:16.999Z</time></trkpt><trkpt lat="41.38568960821569" lon="14.85176187566748"><ele>831.0</ele><time>2026-04-25T11:53:17.999Z</time></trkpt><trkpt lat="41.38573751295104" lon="14.851979413274059"><ele>829.0</ele><time>2026-04-25T11:53:18.999Z</time></trkpt><trkpt lat="41.385715704882365" lon="14.852195138734674"><ele>827.0</ele><time>2026-04-25T11:53:19.999Z</time></trkpt><trkpt lat="41.385701372810395" lon="14.852413700555976"><ele>827.0</ele><time>2026-04-25T11:53:20.999Z</time></trkpt><trkpt lat="41.38570407154659" lon="14.852608763942012"><ele>827.0</ele><time>2026-04-25T11:53:21.999Z</time></trkpt><trkpt lat="41.38575081137218" lon="14.85278498672092"><ele>827.0</ele><time>2026-04-25T11:53:22.999Z</time></trkpt><trkpt lat="41.38582964761453" lon="14.85294687608731"><ele>827.0</ele><time>2026-04-25T11:53:24Z</time></trkpt><trkpt lat="41.38595544492183" lon="14.853046892946411"><ele>827.0</ele><time>2026-04-25T11:53:25Z</time></trkpt><trkpt lat="41.38610326644202" lon="14.853064083631642"><ele>827.0</ele><time>2026-04-25T11:53:26Z</time></trkpt><trkpt lat="41.38623750052101" lon="14.853078362318099"><ele>827.0</ele><time>2026-04-25T11:53:27Z</time></trkpt><trkpt lat="41.38633881454625" lon="14.853118356359037"><ele>827.0</ele><time>2026-04-25T11:53:28Z</time></trkpt><trkpt lat="41.386410501275975" lon="14.85317990770089"><ele>827.0</ele><time>2026-04-25T11:53:29Z</time></trkpt><trkpt lat="41.386448993333495" lon="14.853293701785228"><ele>827.0</ele><time>2026-04-25T11:53:30Z</time></trkpt><trkpt lat="41.386420791937276" lon="14.853460979647618"><ele>827.0</ele><time>2026-04-25T11:53:31Z</time></trkpt><trkpt lat="41.38634814833281" lon="14.853616661980016"><ele>827.0</ele><time>2026-04-25T11:53:32Z</time></trkpt><trkpt lat="41.38629264128789" lon="14.853765071904311"><ele>824.0</ele><time>2026-04-25T11:53:33Z</time></trkpt><trkpt lat="41.3862946058429" lon="14.85392400684947"><ele>821.0</ele><time>2026-04-25T11:53:34Z</time></trkpt><trkpt lat="41.3863454937296" lon="14.854054216398056"><ele>818.0</ele><time>2026-04-25T11:53:35Z</time></trkpt><trkpt lat="41.386445261803026" lon="14.854154660902227"><ele>815.0</ele><time>2026-04-25T11:53:36Z</time></trkpt><trkpt lat="41.386587536937654" lon="14.854205044127456"><ele>815.0</ele><time>2026-04-25T11:53:37Z</time></trkpt><trkpt lat="41.386744009214006" lon="14.854255807822364"><ele>815.0</ele><time>2026-04-25T11:53:38Z</time></trkpt><trkpt lat="41.38688230493229" lon="14.854305977461214"><ele>815.0</ele><time>2026-04-25T11:53:39Z</time></trkpt><trkpt lat="41.3870035949572" lon="14.854306860345838"><ele>815.0</ele><time>2026-04-25T11:53:40Z</time></trkpt><trkpt lat="41.38712687859566" lon="14.854245699628184"><ele>816.0</ele><time>2026-04-25T11:53:41Z</time></trkpt><trkpt lat="41.38724645088275" lon="14.85423694397238"><ele>817.0</ele><time>2026-04-25T11:53:42Z</time></trkpt><trkpt lat="41.387356831209246" lon="14.8542767260142"><ele>818.0</ele><time>2026-04-25T11:53:43Z</time></trkpt><trkpt lat="41.38746422043418" lon="14.85437995363058"><ele>819.0</ele><time>2026-04-25T11:53:44Z</time></trkpt><trkpt lat="41.387609638985715" lon="14.854505129999835"><ele>817.0</ele><time>2026-04-25T11:53:45Z</time></trkpt><trkpt lat="41.387777562156856" lon="14.854645328226226"><ele>815.0</ele><time>2026-04-25T11:53:46Z</time></trkpt><trkpt lat="41.3879408138396" lon="14.854756027028666"><ele>813.0</ele><time>2026-04-25T11:53:47Z</time></trkpt><trkpt lat="41.38807037554826" lon="14.854867492444775"><ele>813.0</ele><time>2026-04-25T11:53:48Z</time></trkpt><trkpt lat="41.38819874381138" lon="14.854956314065388"><ele>813.0</ele><time>2026-04-25T11:53:49Z</time></trkpt><trkpt lat="41.38832615338382" lon="14.855017226003179"><ele>813.0</ele><time>2026-04-25T11:53:50Z</time></trkpt><trkpt lat="41.388460080008144" lon="14.855073592303691"><ele>813.0</ele><time>2026-04-25T11:53:51Z</time></trkpt><trkpt lat="41.38858945382586" lon="14.855106143261041"><ele>813.0</ele><time>2026-04-25T11:53:52Z</time></trkpt><trkpt lat="41.38869662647476" lon="14.855154742579703"><ele>813.0</ele><time>2026-04-25T11:53:53Z</time></trkpt><trkpt lat="41.388755242555966" lon="14.85523477378197"><ele>813.0</ele><time>2026-04-25T11:53:54Z</time></trkpt><trkpt lat="41.38875821316759" lon="14.85535005449089"><ele>813.0</ele><time>2026-04-25T11:53:55Z</time></trkpt><trkpt lat="41.388710076874084" lon="14.855480193480881"><ele>813.0</ele><time>2026-04-25T11:53:56Z</time></trkpt><trkpt lat="41.38862682016435" lon="14.855611648933053"><ele>813.0</ele><time>2026-04-25T11:53:57Z</time></trkpt><trkpt lat="41.388511327362046" lon="14.855739090851628"><ele>813.0</ele><time>2026-04-25T11:53:58Z</time></trkpt><trkpt lat="41.38837548030043" lon="14.855871272468951"><ele>813.0</ele><time>2026-04-25T11:53:59Z</time></trkpt><trkpt lat="41.38823023672966" lon="14.856007932748119"><ele>812.6666666666667</ele><time>2026-04-25T11:54:00Z</time></trkpt><trkpt lat="41.38808213805412" lon="14.856128350357372"><ele>812.3333333333334</ele><time>2026-04-25T11:54:01Z</time></trkpt><trkpt lat="41.387926824748504" lon="14.856211456819898"><ele>812.0</ele><time>2026-04-25T11:54:02Z</time></trkpt><trkpt lat="41.387758524230364" lon="14.856264972224825"><ele>812.0</ele><time>2026-04-25T11:54:03Z</time></trkpt><trkpt lat="41.387604711418476" lon="14.856324016456522"><ele>812.0</ele><time>2026-04-25T11:54:04Z</time></trkpt><trkpt lat="41.38747122091647" lon="14.856380310521699"><ele>812.0</ele><time>2026-04-25T11:54:05Z</time></trkpt><trkpt lat="41.38736578239969" lon="14.85644333163128"><ele>812.0</ele><time>2026-04-25T11:54:06Z</time></trkpt><trkpt lat="41.38729724704965" lon="14.856529289696404"><ele>812.0</ele><time>2026-04-25T11:54:07Z</time></trkpt><trkpt lat="41.387272120168205" lon="14.856666753177814"><ele>812.0</ele><time>2026-04-25T11:54:08Z</time></trkpt><trkpt lat="41.387305733525096" lon="14.856814592464689"><ele>812.0</ele><time>2026-04-25T11:54:09Z</time></trkpt><trkpt lat="41.38738974772193" lon="14.856930709707724"><ele>812.0</ele><time>2026-04-25T11:54:10Z</time></trkpt><trkpt lat="41.38750207690824" lon="14.857023879180367"><ele>810.3333333333334</ele><time>2026-04-25T11:54:11Z</time></trkpt><trkpt lat="41.387625150618184" lon="14.857145835103482"><ele>808.6666666666667</ele><time>2026-04-25T11:54:12Z</time></trkpt><trkpt lat="41.38775331113531" lon="14.857312108619123"><ele>807.0</ele><time>2026-04-25T11:54:13Z</time></trkpt><trkpt lat="41.38787833899429" lon="14.857502160112208"><ele>804.6666666666667</ele><time>2026-04-25T11:54:14Z</time></trkpt><trkpt lat="41.388000905781226" lon="14.857704315179353"><ele>802.3333333333334</ele><time>2026-04-25T11:54:15Z</time></trkpt><trkpt lat="41.3881250749548" lon="14.857913968241945"><ele>800.0</ele><time>2026-04-25T11:54:16Z</time></trkpt><trkpt lat="41.38822949621219" lon="14.858096363709365"><ele>801.6666666666667</ele><time>2026-04-25T11:54:17Z</time></trkpt><trkpt lat="41.38832839217173" lon="14.858262335048513"><ele>803.3333333333333</ele><time>2026-04-25T11:54:18Z</time></trkpt><trkpt lat="41.388440765913266" lon="14.858399839878954"><ele>805.0</ele><time>2026-04-25T11:54:19Z</time></trkpt><trkpt lat="41.38858198510414" lon="14.858503284885986"><ele>805.0</ele><time>2026-04-25T11:54:20Z</time></trkpt><trkpt lat="41.38875750693437" lon="14.858577955650494"><ele>805.0</ele><time>2026-04-25T11:54:20.999Z</time></trkpt><trkpt lat="41.38896216742176" lon="14.858604033075112"><ele>805.0</ele><time>2026-04-25T11:54:21.999Z</time></trkpt><trkpt lat="41.38917508211833" lon="14.858627987707795"><ele>806.3333333333333</ele><time>2026-04-25T11:54:22.999Z</time></trkpt><trkpt lat="41.38937462588831" lon="14.858692766076324"><ele>807.6666666666667</ele><time>2026-04-25T11:54:23.999Z</time></trkpt><trkpt lat="41.38957458378737" lon="14.85875798000929"><ele>809.0</ele><time>2026-04-25T11:54:24.999Z</time></trkpt><trkpt lat="41.389755826350004" lon="14.858776740188203"><ele>809.0</ele><time>2026-04-25T11:54:25.999Z</time></trkpt><trkpt lat="41.389913120955136" lon="14.858719073713068"><ele>809.0</ele><time>2026-04-25T11:54:26.999Z</time></trkpt><trkpt lat="41.39007304542428" lon="14.858523793875584"><ele>809.0</ele><time>2026-04-25T11:54:28.999Z</time></trkpt><trkpt lat="41.39017294079345" lon="14.858364909548508"><ele>811.5</ele><time>2026-04-25T11:54:29.999Z</time></trkpt><trkpt lat="41.390246218068555" lon="14.858225127978125"><ele>814.0</ele><time>2026-04-25T11:54:30.999Z</time></trkpt><trkpt lat="41.39035541727582" lon="14.858141639819438"><ele>816.5</ele><time>2026-04-25T11:54:31.999Z</time></trkpt><trkpt lat="41.39048868001201" lon="14.858184542858865"><ele>819.0</ele><time>2026-04-25T11:54:32.999Z</time></trkpt><trkpt lat="41.390642674482244" lon="14.858236151660629"><ele>819.25</ele><time>2026-04-25T11:54:33.999Z</time></trkpt><trkpt lat="41.39073075545038" lon="14.858315286391864"><ele>819.5</ele><time>2026-04-25T11:54:34.999Z</time></trkpt><trkpt lat="41.39078421821925" lon="14.858474882885591"><ele>819.75</ele><time>2026-04-25T11:54:35.999Z</time></trkpt><trkpt lat="41.39086868590713" lon="14.858694502245912"><ele>820.0</ele><time>2026-04-25T11:54:36.999Z</time></trkpt><trkpt lat="41.39097584374433" lon="14.85892155798864"><ele>818.3333333333333</ele><time>2026-04-25T11:54:37.999Z</time></trkpt><trkpt lat="41.39106377607732" lon="14.85914781474832"><ele>816.6666666666667</ele><time>2026-04-25T11:54:38.999Z</time></trkpt><trkpt lat="41.39116024698885" lon="14.859373739687626"><ele>815.0</ele><time>2026-04-25T11:54:39.999Z</time></trkpt><trkpt lat="41.39127470029782" lon="14.859593859612449"><ele>816.6666666666667</ele><time>2026-04-25T11:54:40.999Z</time></trkpt><trkpt lat="41.39139850961719" lon="14.859798532300896"><ele>818.3333333333333</ele><time>2026-04-25T11:54:41.999Z</time></trkpt><trkpt lat="41.3915060602721" lon="14.859961658930564"><ele>820.0</ele><time>2026-04-25T11:54:42.999Z</time></trkpt><trkpt lat="41.391580395835675" lon="14.860086331295001"><ele>818.3333333333333</ele><time>2026-04-25T11:54:43.999Z</time></trkpt><trkpt lat="41.391688727278435" lon="14.860168871043635"><ele>816.6666666666667</ele><time>2026-04-25T11:54:44.999Z</time></trkpt><trkpt lat="41.39183815712165" lon="14.860208625499219"><ele>815.0</ele><time>2026-04-25T11:54:45.999Z</time></trkpt><trkpt lat="41.39202333558049" lon="14.860218376023413"><ele>814.0</ele><time>2026-04-25T11:54:46.999Z</time></trkpt><trkpt lat="41.392249981700985" lon="14.8602292577733"><ele>813.0</ele><time>2026-04-25T11:54:47.999Z</time></trkpt><trkpt lat="41.39248174997788" lon="14.8603020709718"><ele>813.0</ele><time>2026-04-25T11:54:48.999Z</time></trkpt><trkpt lat="41.3927031940708" lon="14.860390660640837"><ele>813.0</ele><time>2026-04-25T11:54:49.999Z</time></trkpt><trkpt lat="41.392903921890564" lon="14.860457617601897"><ele>813.0</ele><time>2026-04-25T11:54:50.999Z</time></trkpt><trkpt lat="41.39308351988712" lon="14.860506619799297"><ele>813.6666666666667</ele><time>2026-04-25T11:54:51.999Z</time></trkpt><trkpt lat="41.39323871899824" lon="14.860576698516262"><ele>814.3333333333334</ele><time>2026-04-25T11:54:52.999Z</time></trkpt><trkpt lat="41.393351410868775" lon="14.860689672360573"><ele>815.0</ele><time>2026-04-25T11:54:53.999Z</time></trkpt><trkpt lat="41.3934460923395" lon="14.860839064234447"><ele>813.0</ele><time>2026-04-25T11:54:54.999Z</time></trkpt><trkpt lat="41.39352710900061" lon="14.861047520061389"><ele>811.0</ele><time>2026-04-25T11:54:55.999Z</time></trkpt><trkpt lat="41.39360160999509" lon="14.861254956121343"><ele>809.0</ele><time>2026-04-25T11:54:56.999Z</time></trkpt><trkpt lat="41.393661890919894" lon="14.861459393710925"><ele>809.0</ele><time>2026-04-25T11:54:57.999Z</time></trkpt><trkpt lat="41.39377186788168" lon="14.861634426873337"><ele>809.0</ele><time>2026-04-25T11:54:58.999Z</time></trkpt><trkpt lat="41.39394306784686" lon="14.861785375954335"><ele>809.0</ele><time>2026-04-25T11:54:59.999Z</time></trkpt><trkpt lat="41.3941336937749" lon="14.861940973693207"><ele>809.0</ele><time>2026-04-25T11:55:00.999Z</time></trkpt><trkpt lat="41.394311534359176" lon="14.86213332810687"><ele>809.0</ele><time>2026-04-25T11:55:01.999Z</time></trkpt><trkpt lat="41.39442867188556" lon="14.862372030382902"><ele>809.0</ele><time>2026-04-25T11:55:02.999Z</time></trkpt><trkpt lat="41.39456464724232" lon="14.862555264549227"><ele>806.6666666666667</ele><time>2026-04-25T11:55:03.999Z</time></trkpt><trkpt lat="41.394715806910554" lon="14.86270673961167"><ele>804.3333333333333</ele><time>2026-04-25T11:55:04.999Z</time></trkpt><trkpt lat="41.394864956239566" lon="14.862822025622178"><ele>802.0</ele><time>2026-04-25T11:55:05.999Z</time></trkpt><trkpt lat="41.39502031531435" lon="14.86287742352055"><ele>802.0</ele><time>2026-04-25T11:55:06.999Z</time></trkpt><trkpt lat="41.395196357572594" lon="14.86286387673221"><ele>802.0</ele><time>2026-04-25T11:55:07.999Z</time></trkpt><trkpt lat="41.39538693604538" lon="14.862808313423423"><ele>802.0</ele><time>2026-04-25T11:55:08.999Z</time></trkpt><trkpt lat="41.39559263553742" lon="14.862798631290833"><ele>802.6666666666666</ele><time>2026-04-25T11:55:09.999Z</time></trkpt><trkpt lat="41.39577054176414" lon="14.862817248284841"><ele>803.3333333333333</ele><time>2026-04-25T11:55:10.999Z</time></trkpt><trkpt lat="41.395952748738694" lon="14.862849944828413"><ele>804.0</ele><time>2026-04-25T11:55:11.999Z</time></trkpt><trkpt lat="41.396117632111626" lon="14.86299773137617"><ele>804.0</ele><time>2026-04-25T11:55:12.999Z</time></trkpt><trkpt lat="41.39628467763055" lon="14.863213265753812"><ele>804.0</ele><time>2026-04-25T11:55:13.999Z</time></trkpt><trkpt lat="41.39646327586802" lon="14.86345456057935"><ele>801.5</ele><time>2026-04-25T11:55:14.999Z</time></trkpt><trkpt lat="41.39665154934456" lon="14.863690316889327"><ele>799.0</ele><time>2026-04-25T11:55:15.999Z</time></trkpt><trkpt lat="41.39684153819614" lon="14.863890850489579"><ele>799.0</ele><time>2026-04-25T11:55:16.999Z</time></trkpt><trkpt lat="41.39702237488271" lon="14.864095146742546"><ele>799.0</ele><time>2026-04-25T11:55:17.999Z</time></trkpt><trkpt lat="41.39720952101821" lon="14.86435689844208"><ele>799.0</ele><time>2026-04-25T11:55:18.999Z</time></trkpt><trkpt lat="41.39735718539534" lon="14.864646971893862"><ele>799.0</ele><time>2026-04-25T11:55:19.999Z</time></trkpt><trkpt lat="41.3974965330878" lon="14.864939788860065"><ele>796.5</ele><time>2026-04-25T11:55:20.999Z</time></trkpt><trkpt lat="41.39763237817716" lon="14.865231344396909"><ele>794.0</ele><time>2026-04-25T11:55:21.999Z</time></trkpt><trkpt lat="41.397749263618344" lon="14.865503086039533"><ele>794.0</ele><time>2026-04-25T11:55:22.999Z</time></trkpt><trkpt lat="41.39786200134151" lon="14.865739565327518"><ele>794.0</ele><time>2026-04-25T11:55:23.999Z</time></trkpt><trkpt lat="41.397980661896504" lon="14.86595794936675"><ele>794.0</ele><time>2026-04-25T11:55:24.999Z</time></trkpt><trkpt lat="41.39812340324584" lon="14.866143340122829"><ele>797.0</ele><time>2026-04-25T11:55:25.999Z</time></trkpt><trkpt lat="41.39830849765977" lon="14.866284133299201"><ele>800.0</ele><time>2026-04-25T11:55:26.999Z</time></trkpt><trkpt lat="41.39853136384146" lon="14.86639556374773"><ele>800.0</ele><time>2026-04-25T11:55:27.999Z</time></trkpt><trkpt lat="41.398776717457615" lon="14.866577834848451"><ele>800.0</ele><time>2026-04-25T11:55:28.999Z</time></trkpt><trkpt lat="41.39902587554911" lon="14.866746890452285"><ele>802.0</ele><time>2026-04-25T11:55:30Z</time></trkpt><trkpt lat="41.39926872982963" lon="14.866890258959238"><ele>804.0</ele><time>2026-04-25T11:55:31Z</time></trkpt><trkpt lat="41.39947667944548" lon="14.867050542238404"><ele>803.5</ele><time>2026-04-25T11:55:32Z</time></trkpt><trkpt lat="41.39967517173345" lon="14.86727622726822"><ele>803.0</ele><time>2026-04-25T11:55:33Z</time></trkpt><trkpt lat="41.39989948160816" lon="14.867517050169473"><ele>804.0</ele><time>2026-04-25T11:55:34Z</time></trkpt><trkpt lat="41.40011295327885" lon="14.867800620370264"><ele>805.0</ele><time>2026-04-25T11:55:35Z</time></trkpt><trkpt lat="41.40033666498033" lon="14.868074619461199"><ele>805.0</ele><time>2026-04-25T11:55:36Z</time></trkpt><trkpt lat="41.40056449287088" lon="14.868330162635797"><ele>805.0</ele><time>2026-04-25T11:55:37Z</time></trkpt><trkpt lat="41.40076606505684" lon="14.868564641571309"><ele>805.0</ele><time>2026-04-25T11:55:38Z</time></trkpt><trkpt lat="41.400943494654115" lon="14.868774339569386"><ele>805.0</ele><time>2026-04-25T11:55:39Z</time></trkpt><trkpt lat="41.40109847225023" lon="14.868983424538161"><ele>805.0</ele><time>2026-04-25T11:55:40Z</time></trkpt><trkpt lat="41.40125052024142" lon="14.86917371954555"><ele>805.0</ele><time>2026-04-25T11:55:41Z</time></trkpt><trkpt lat="41.401367112350144" lon="14.869426982433303"><ele>805.0</ele><time>2026-04-25T11:55:42Z</time></trkpt><trkpt lat="41.40146477137526" lon="14.869713619364726"><ele>805.3333333333333</ele><time>2026-04-25T11:55:43Z</time></trkpt><trkpt lat="41.40157023050621" lon="14.869980701598447"><ele>805.6666666666667</ele><time>2026-04-25T11:55:44Z</time></trkpt><trkpt lat="41.40169692740096" lon="14.870197153657966"><ele>806.0</ele><time>2026-04-25T11:55:45Z</time></trkpt><trkpt lat="41.40186570725353" lon="14.870352885426739"><ele>805.0</ele><time>2026-04-25T11:55:46Z</time></trkpt><trkpt lat="41.40207674923043" lon="14.870458725705927"><ele>804.0</ele><time>2026-04-25T11:55:47Z</time></trkpt><trkpt lat="41.40231642932241" lon="14.870581002364197"><ele>804.0</ele><time>2026-04-25T11:55:48Z</time></trkpt><trkpt lat="41.402558762411324" lon="14.870700908586459"><ele>804.0</ele><time>2026-04-25T11:55:49Z</time></trkpt><trkpt lat="41.40277893974319" lon="14.870845380208067"><ele>805.0</ele><time>2026-04-25T11:55:50Z</time></trkpt><trkpt lat="41.402997754340205" lon="14.870973395072873"><ele>806.0</ele><time>2026-04-25T11:55:51Z</time></trkpt><trkpt lat="41.40322341803464" lon="14.871099729903914"><ele>806.0</ele><time>2026-04-25T11:55:52Z</time></trkpt><trkpt lat="41.40344842567392" lon="14.871229887292072"><ele>806.0</ele><time>2026-04-25T11:55:53Z</time></trkpt><trkpt lat="41.40367571103886" lon="14.871358706453188"><ele>808.0</ele><time>2026-04-25T11:55:54Z</time></trkpt><trkpt lat="41.403897778310935" lon="14.871495484906346"><ele>810.0</ele><time>2026-04-25T11:55:55Z</time></trkpt><trkpt lat="41.404120454837965" lon="14.871635682137995"><ele>810.0</ele><time>2026-04-25T11:55:56Z</time></trkpt><trkpt lat="41.40433977920291" lon="14.871762874117866"><ele>810.0</ele><time>2026-04-25T11:55:57Z</time></trkpt><trkpt lat="41.40455570646878" lon="14.871891766871373"><ele>810.0</ele><time>2026-04-25T11:55:58Z</time></trkpt><trkpt lat="41.404770815037665" lon="14.8720119041756"><ele>810.0</ele><time>2026-04-25T11:55:59Z</time></trkpt><trkpt lat="41.40499468350434" lon="14.872124432729281"><ele>810.0</ele><time>2026-04-25T11:56:00Z</time></trkpt><trkpt lat="41.40521354735212" lon="14.872218220625115"><ele>810.0</ele><time>2026-04-25T11:56:01Z</time></trkpt><trkpt lat="41.40542158655274" lon="14.872294383823327"><ele>810.0</ele><time>2026-04-25T11:56:02Z</time></trkpt><trkpt lat="41.40562307273944" lon="14.872367913372514"><ele>810.3333333333333</ele><time>2026-04-25T11:56:03Z</time></trkpt><trkpt lat="41.40581944203105" lon="14.872439263919139"><ele>810.6666666666666</ele><time>2026-04-25T11:56:04Z</time></trkpt><trkpt lat="41.4060215811807" lon="14.872513893551222"><ele>811.0</ele><time>2026-04-25T11:56:05Z</time></trkpt><trkpt lat="41.406227161767944" lon="14.872587156995706"><ele>811.6666666666666</ele><time>2026-04-25T11:56:06Z</time></trkpt><trkpt lat="41.40643370212219" lon="14.87267059856486"><ele>812.3333333333333</ele><time>2026-04-25T11:56:07Z</time></trkpt><trkpt lat="41.40664299527232" lon="14.872747509452656"><ele>813.0</ele><time>2026-04-25T11:56:08Z</time></trkpt><trkpt lat="41.406861616874835" lon="14.872825341317292"><ele>813.0</ele><time>2026-04-25T11:56:09Z</time></trkpt><trkpt lat="41.407070092349294" lon="14.872905656175258"><ele>813.0</ele><time>2026-04-25T11:56:10Z</time></trkpt><trkpt lat="41.407291519885625" lon="14.872982782605781"><ele>813.0</ele><time>2026-04-25T11:56:11Z</time></trkpt><trkpt lat="41.40751151361638" lon="14.873060926436523"><ele>815.5</ele><time>2026-04-25T11:56:12Z</time></trkpt><trkpt lat="41.40772906746615" lon="14.873141020970968"><ele>818.0</ele><time>2026-04-25T11:56:13Z</time></trkpt><trkpt lat="41.40795300171247" lon="14.873183351009574"><ele>818.5</ele><time>2026-04-25T11:56:14Z</time></trkpt><trkpt lat="41.40818172395285" lon="14.87320200723789"><ele>819.0</ele><time>2026-04-25T11:56:15Z</time></trkpt><trkpt lat="41.408418748481104" lon="14.8731919769964"><ele>819.0</ele><time>2026-04-25T11:56:16Z</time></trkpt><trkpt lat="41.4086529636442" lon="14.873166808294895"><ele>819.0</ele><time>2026-04-25T11:56:17Z</time></trkpt><trkpt lat="41.40887356242056" lon="14.873131925359651"><ele>819.3333333333333</ele><time>2026-04-25T11:56:18Z</time></trkpt><trkpt lat="41.40907673968501" lon="14.873081441786995"><ele>819.6666666666666</ele><time>2026-04-25T11:56:19Z</time></trkpt><trkpt lat="41.409268577942726" lon="14.872989194875197"><ele>820.0</ele><time>2026-04-25T11:56:20Z</time></trkpt><trkpt lat="41.40945466980882" lon="14.87283519271572"><ele>820.0</ele><time>2026-04-25T11:56:21Z</time></trkpt><trkpt lat="41.40963214983731" lon="14.872656911184846"><ele>820.0</ele><time>2026-04-25T11:56:22Z</time></trkpt><trkpt lat="41.409802389296395" lon="14.872483263565007"><ele>820.0</ele><time>2026-04-25T11:56:23Z</time></trkpt><trkpt lat="41.40995848312838" lon="14.872337114511248"><ele>820.25</ele><time>2026-04-25T11:56:24Z</time></trkpt><trkpt lat="41.41009549976631" lon="14.872217073404407"><ele>820.5</ele><time>2026-04-25T11:56:25Z</time></trkpt><trkpt lat="41.410211025847154" lon="14.872110146929051"><ele>820.75</ele><time>2026-04-25T11:56:26Z</time></trkpt><trkpt lat="41.41029005229921" lon="14.871972660422927"><ele>821.0</ele><time>2026-04-25T11:56:27Z</time></trkpt><trkpt lat="41.41031390777663" lon="14.871773437406919"><ele>820.3333333333334</ele><time>2026-04-25T11:56:28Z</time></trkpt><trkpt lat="41.410290800961086" lon="14.871544686914559"><ele>819.6666666666667</ele><time>2026-04-25T11:56:29Z</time></trkpt><trkpt lat="41.410238088402764" lon="14.871303531106015"><ele>819.0</ele><time>2026-04-25T11:56:30Z</time></trkpt><trkpt lat="41.410189856597206" lon="14.871078173925527"><ele>819.6666666666667</ele><time>2026-04-25T11:56:31Z</time></trkpt><trkpt lat="41.410163181555845" lon="14.870880367289704"><ele>820.3333333333334</ele><time>2026-04-25T11:56:32Z</time></trkpt><trkpt lat="41.41017178501097" lon="14.870682816639354"><ele>821.0</ele><time>2026-04-25T11:56:33Z</time></trkpt><trkpt lat="41.41024089944132" lon="14.870495254079472"><ele>821.0</ele><time>2026-04-25T11:56:34Z</time></trkpt><trkpt lat="41.41035555948368" lon="14.870312292289166"><ele>821.0</ele><time>2026-04-25T11:56:35Z</time></trkpt><trkpt lat="41.410488889491106" lon="14.870132642247537"><ele>821.0</ele><time>2026-04-25T11:56:36Z</time></trkpt><trkpt lat="41.41061907990664" lon="14.86995932225793"><ele>822.3333333333334</ele><time>2026-04-25T11:56:37Z</time></trkpt><trkpt lat="41.410746770609556" lon="14.86978460499924"><ele>823.6666666666667</ele><time>2026-04-25T11:56:38Z</time></trkpt><trkpt lat="41.410885516674384" lon="14.869615745303175"><ele>825.0</ele><time>2026-04-25T11:56:39Z</time></trkpt><trkpt lat="41.41105265450502" lon="14.869473066454649"><ele>825.0</ele><time>2026-04-25T11:56:40Z</time></trkpt><trkpt lat="41.41124508092669" lon="14.869338784960778"><ele>825.0</ele><time>2026-04-25T11:56:40.999Z</time></trkpt><trkpt lat="41.41145082465015" lon="14.869202114855431"><ele>825.0</ele><time>2026-04-25T11:56:41.999Z</time></trkpt><trkpt lat="41.411648761398595" lon="14.869053418370903"><ele>825.0</ele><time>2026-04-25T11:56:42.999Z</time></trkpt><trkpt lat="41.41184806373405" lon="14.868896640792569"><ele>825.0</ele><time>2026-04-25T11:56:43.999Z</time></trkpt><trkpt lat="41.412046182435716" lon="14.868746204261027"><ele>825.0</ele><time>2026-04-25T11:56:44.999Z</time></trkpt><trkpt lat="41.412227883205155" lon="14.868610984892774"><ele>825.0</ele><time>2026-04-25T11:56:45.999Z</time></trkpt><trkpt lat="41.41240039284978" lon="14.868476333899013"><ele>825.0</ele><time>2026-04-25T11:56:46.999Z</time></trkpt><trkpt lat="41.412574800931466" lon="14.868381952224693"><ele>825.0</ele><time>2026-04-25T11:56:47.999Z</time></trkpt><trkpt lat="41.4127227062394" lon="14.868278610906549"><ele>825.0</ele><time>2026-04-25T11:56:48.999Z</time></trkpt><trkpt lat="41.41287404914981" lon="14.868220469750671"><ele>825.0</ele><time>2026-04-25T11:56:49.999Z</time></trkpt><trkpt lat="41.413042779200154" lon="14.868216263834308"><ele>826.0</ele><time>2026-04-25T11:56:50.999Z</time></trkpt><trkpt lat="41.41322081501296" lon="14.868272625748448"><ele>827.0</ele><time>2026-04-25T11:56:51.999Z</time></trkpt><trkpt lat="41.4134439965792" lon="14.868319939407831"><ele>828.0</ele><time>2026-04-25T11:56:52.999Z</time></trkpt><trkpt lat="41.4136480869526" lon="14.868336312359592"><ele>828.6666666666667</ele><time>2026-04-25T11:56:53.999Z</time></trkpt><trkpt lat="41.413875506653426" lon="14.86830538902751"><ele>829.3333333333334</ele><time>2026-04-25T11:56:54.999Z</time></trkpt><trkpt lat="41.41409368061294" lon="14.86827383051185"><ele>830.0</ele><time>2026-04-25T11:56:55.999Z</time></trkpt><trkpt lat="41.41430574020029" lon="14.868258678198076"><ele>830.0</ele><time>2026-04-25T11:56:56.999Z</time></trkpt><trkpt lat="41.41452697181369" lon="14.868260616327785"><ele>830.0</ele><time>2026-04-25T11:56:57.999Z</time></trkpt><trkpt lat="41.414746139535175" lon="14.868250645637797"><ele>830.0</ele><time>2026-04-25T11:56:58.999Z</time></trkpt><trkpt lat="41.41494057432017" lon="14.868238847031986"><ele>830.3333333333334</ele><time>2026-04-25T11:56:59.999Z</time></trkpt><trkpt lat="41.4151183141289" lon="14.86819715306097"><ele>830.6666666666667</ele><time>2026-04-25T11:57:00.999Z</time></trkpt><trkpt lat="41.415295172296595" lon="14.868089548662452"><ele>831.0</ele><time>2026-04-25T11:57:01.999Z</time></trkpt><trkpt lat="41.415457769934" lon="14.867898361289027"><ele>830.5</ele><time>2026-04-25T11:57:02.999Z</time></trkpt><trkpt lat="41.41565697435697" lon="14.867715632518088"><ele>830.0</ele><time>2026-04-25T11:57:03.999Z</time></trkpt><trkpt lat="41.415832911518144" lon="14.867540196412593"><ele>830.0</ele><time>2026-04-25T11:57:04.999Z</time></trkpt><trkpt lat="41.415978062717556" lon="14.867398587774183"><ele>830.0</ele><time>2026-04-25T11:57:05.999Z</time></trkpt><trkpt lat="41.416103778391445" lon="14.867256153109144"><ele>830.0</ele><time>2026-04-25T11:57:06.999Z</time></trkpt><trkpt lat="41.41618781838361" lon="14.867079335698689"><ele>830.0</ele><time>2026-04-25T11:57:07.999Z</time></trkpt><trkpt lat="41.41624382574901" lon="14.866884777615672"><ele>830.0</ele><time>2026-04-25T11:57:08.999Z</time></trkpt><trkpt lat="41.41623202113777" lon="14.866677451632388"><ele>830.0</ele><time>2026-04-25T11:57:09.999Z</time></trkpt><trkpt lat="41.416178544192874" lon="14.866469278192973"><ele>829.5</ele><time>2026-04-25T11:57:10.999Z</time></trkpt><trkpt lat="41.41612776683933" lon="14.866313950076858"><ele>829.0</ele><time>2026-04-25T11:57:11.999Z</time></trkpt><trkpt lat="41.41614356200559" lon="14.866148934990429"><ele>828.5</ele><time>2026-04-25T11:57:12.999Z</time></trkpt><trkpt lat="41.416242600530424" lon="14.866008010284249"><ele>828.0</ele><time>2026-04-25T11:57:13.999Z</time></trkpt><trkpt lat="41.41638065776682" lon="14.865830501237939"><ele>829.6666666666667</ele><time>2026-04-25T11:57:14.999Z</time></trkpt><trkpt lat="41.41650131208932" lon="14.865653795606264"><ele>831.3333333333334</ele><time>2026-04-25T11:57:15.999Z</time></trkpt><trkpt lat="41.41662764324465" lon="14.865466022188548"><ele>833.0</ele><time>2026-04-25T11:57:16.999Z</time></trkpt><trkpt lat="41.41673262239119" lon="14.865235604615311"><ele>831.0</ele><time>2026-04-25T11:57:17.999Z</time></trkpt><trkpt lat="41.41679294280804" lon="14.865000934022003"><ele>829.0</ele><time>2026-04-25T11:57:18.999Z</time></trkpt><trkpt lat="41.41684587561352" lon="14.864747785466097"><ele>827.0</ele><time>2026-04-25T11:57:19.999Z</time></trkpt><trkpt lat="41.416886720020855" lon="14.864515916208365"><ele>827.0</ele><time>2026-04-25T11:57:20.999Z</time></trkpt><trkpt lat="41.41692106041548" lon="14.864291324135692"><ele>827.0</ele><time>2026-04-25T11:57:21.999Z</time></trkpt><trkpt lat="41.416908546825745" lon="14.86407541525637"><ele>827.0</ele><time>2026-04-25T11:57:22.999Z</time></trkpt><trkpt lat="41.416845313550894" lon="14.863855198866942"><ele>826.3333333333334</ele><time>2026-04-25T11:57:23.999Z</time></trkpt><trkpt lat="41.416751441555974" lon="14.863647651051622"><ele>825.6666666666667</ele><time>2026-04-25T11:57:24.999Z</time></trkpt><trkpt lat="41.41665758316499" lon="14.863473249930111"><ele>825.0</ele><time>2026-04-25T11:57:25.999Z</time></trkpt><trkpt lat="41.416575026194245" lon="14.86330603716337"><ele>825.0</ele><time>2026-04-25T11:57:26.999Z</time></trkpt><trkpt lat="41.41653319604814" lon="14.863117026917859"><ele>825.0</ele><time>2026-04-25T11:57:27.999Z</time></trkpt><trkpt lat="41.41652617600068" lon="14.862947544926929"><ele>825.0</ele><time>2026-04-25T11:57:28.999Z</time></trkpt><trkpt lat="41.41654511643176" lon="14.862794517600081"><ele>825.0</ele><time>2026-04-25T11:57:29.999Z</time></trkpt><trkpt lat="41.41666363160799" lon="14.862682684587456"><ele>825.0</ele><time>2026-04-25T11:57:30.999Z</time></trkpt><trkpt lat="41.416806431948494" lon="14.862619129077508"><ele>825.0</ele><time>2026-04-25T11:57:31.999Z</time></trkpt><trkpt lat="41.41698642111375" lon="14.862575758487335"><ele>825.0</ele><time>2026-04-25T11:57:32.999Z</time></trkpt><trkpt lat="41.417178429929976" lon="14.862537935701116"><ele>823.0</ele><time>2026-04-25T11:57:33.999Z</time></trkpt><trkpt lat="41.417359902015804" lon="14.862498038071442"><ele>821.0</ele><time>2026-04-25T11:57:34.999Z</time></trkpt><trkpt lat="41.41752387831523" lon="14.862434949668236"><ele>819.0</ele><time>2026-04-25T11:57:36Z</time></trkpt><trkpt lat="41.41767227637774" lon="14.862291567128825"><ele>819.0</ele><time>2026-04-25T11:57:37Z</time></trkpt><trkpt lat="41.41779645167644" lon="14.862087555272232"><ele>819.0</ele><time>2026-04-25T11:57:38Z</time></trkpt><trkpt lat="41.417913008706904" lon="14.861845611572242"><ele>819.0</ele><time>2026-04-25T11:57:39Z</time></trkpt><trkpt lat="41.41803640634174" lon="14.861576613750998"><ele>817.0</ele><time>2026-04-25T11:57:40Z</time></trkpt><trkpt lat="41.41814367943474" lon="14.861344735188588"><ele>815.0</ele><time>2026-04-25T11:57:41Z</time></trkpt><trkpt lat="41.41824002706154" lon="14.861128812120766"><ele>813.0</ele><time>2026-04-25T11:57:42Z</time></trkpt><trkpt lat="41.41834099388269" lon="14.860938810228078"><ele>812.3333333333333</ele><time>2026-04-25T11:57:43Z</time></trkpt><trkpt lat="41.41845541910838" lon="14.860784737234988"><ele>811.6666666666666</ele><time>2026-04-25T11:57:44Z</time></trkpt><trkpt lat="41.41858454374522" lon="14.860674104646014"><ele>811.0</ele><time>2026-04-25T11:57:45Z</time></trkpt><trkpt lat="41.4187285175949" lon="14.8606583761596"><ele>810.6666666666666</ele><time>2026-04-25T11:57:46Z</time></trkpt><trkpt lat="41.41888629114318" lon="14.860699445451399"><ele>810.3333333333333</ele><time>2026-04-25T11:57:47Z</time></trkpt><trkpt lat="41.419074743763986" lon="14.860782385913192"><ele>810.0</ele><time>2026-04-25T11:57:48Z</time></trkpt><trkpt lat="41.41928341319038" lon="14.860887008425603"><ele>809.5</ele><time>2026-04-25T11:57:49Z</time></trkpt><trkpt lat="41.41949950905119" lon="14.860994882088216"><ele>809.0</ele><time>2026-04-25T11:57:50Z</time></trkpt><trkpt lat="41.41972300254643" lon="14.86110491811649"><ele>808.0</ele><time>2026-04-25T11:57:51Z</time></trkpt><trkpt lat="41.419945363677265" lon="14.86121439670552"><ele>807.0</ele><time>2026-04-25T11:57:52Z</time></trkpt><trkpt lat="41.4201496155592" lon="14.861330420621297"><ele>807.0</ele><time>2026-04-25T11:57:53Z</time></trkpt><trkpt lat="41.42034441439472" lon="14.861469224462931"><ele>807.0</ele><time>2026-04-25T11:57:54Z</time></trkpt><trkpt lat="41.4205245570929" lon="14.861616157330992"><ele>807.0</ele><time>2026-04-25T11:57:55Z</time></trkpt><trkpt lat="41.42071021217713" lon="14.86174722475378"><ele>806.0</ele><time>2026-04-25T11:57:56Z</time></trkpt><trkpt lat="41.42088504546279" lon="14.861895771726621"><ele>805.0</ele><time>2026-04-25T11:57:57Z</time></trkpt><trkpt lat="41.421078272973716" lon="14.862007021950008"><ele>804.0</ele><time>2026-04-25T11:57:58Z</time></trkpt><trkpt lat="41.421289215766734" lon="14.862064433958087"><ele>802.5</ele><time>2026-04-25T11:57:59Z</time></trkpt><trkpt lat="41.42155476034398" lon="14.862088525881513"><ele>801.0</ele><time>2026-04-25T11:58:00Z</time></trkpt><trkpt lat="41.421800163069065" lon="14.862090841498993"><ele>801.0</ele><time>2026-04-25T11:58:01Z</time></trkpt><trkpt lat="41.42204429753241" lon="14.862074530733057"><ele>801.0</ele><time>2026-04-25T11:58:02Z</time></trkpt><trkpt lat="41.422290352289885" lon="14.862026599045008"><ele>801.0</ele><time>2026-04-25T11:58:03Z</time></trkpt><trkpt lat="41.42254383436201" lon="14.86193487218709"><ele>801.0</ele><time>2026-04-25T11:58:04Z</time></trkpt><trkpt lat="41.422793605078205" lon="14.861812995775939"><ele>800.5</ele><time>2026-04-25T11:58:05Z</time></trkpt><trkpt lat="41.42304161372795" lon="14.861679842583657"><ele>800.0</ele><time>2026-04-25T11:58:06Z</time></trkpt><trkpt lat="41.42329270857784" lon="14.861543600231066"><ele>800.0</ele><time>2026-04-25T11:58:07Z</time></trkpt><trkpt lat="41.42353974518181" lon="14.861409558087585"><ele>800.0</ele><time>2026-04-25T11:58:08Z</time></trkpt><trkpt lat="41.42379048338216" lon="14.86127829419824"><ele>801.0</ele><time>2026-04-25T11:58:09Z</time></trkpt><trkpt lat="41.424040739079715" lon="14.861146434451168"><ele>802.0</ele><time>2026-04-25T11:58:10Z</time></trkpt><trkpt lat="41.42428531691042" lon="14.861017566386387"><ele>802.0</ele><time>2026-04-25T11:58:11Z</time></trkpt><trkpt lat="41.424511187719624" lon="14.860898566649684"><ele>802.0</ele><time>2026-04-25T11:58:12Z</time></trkpt><trkpt lat="41.42471842114341" lon="14.860789387095101"><ele>802.3333333333333</ele><time>2026-04-25T11:58:13Z</time></trkpt><trkpt lat="41.42491746556317" lon="14.860681036025031"><ele>802.6666666666667</ele><time>2026-04-25T11:58:14Z</time></trkpt><trkpt lat="41.425107552011895" lon="14.860575922976086"><ele>803.0</ele><time>2026-04-25T11:58:15Z</time></trkpt><trkpt lat="41.42529982133723" lon="14.86047681344319"><ele>803.0</ele><time>2026-04-25T11:58:16Z</time></trkpt><trkpt lat="41.425501411226904" lon="14.8603878272134"><ele>803.0</ele><time>2026-04-25T11:58:17Z</time></trkpt><trkpt lat="41.42571118643354" lon="14.860315926355899"><ele>803.0</ele><time>2026-04-25T11:58:18Z</time></trkpt><trkpt lat="41.425928680459705" lon="14.860269313149722"><ele>803.0</ele><time>2026-04-25T11:58:19Z</time></trkpt><trkpt lat="41.42616048380808" lon="14.860205997856127"><ele>803.0</ele><time>2026-04-25T11:58:20Z</time></trkpt><trkpt lat="41.42641047730827" lon="14.860209216902103"><ele>806.0</ele><time>2026-04-25T11:58:21Z</time></trkpt><trkpt lat="41.426680237248945" lon="14.860225470039877"><ele>809.0</ele><time>2026-04-25T11:58:22Z</time></trkpt><trkpt lat="41.42694666267049" lon="14.860230142780908"><ele>807.0</ele><time>2026-04-25T11:58:23Z</time></trkpt><trkpt lat="41.427232006893945" lon="14.860233979447043"><ele>805.0</ele><time>2026-04-25T11:58:24Z</time></trkpt><trkpt lat="41.42753498779239" lon="14.860235699606317"><ele>805.0</ele><time>2026-04-25T11:58:25Z</time></trkpt><trkpt lat="41.42786336228508" lon="14.860243053258396"><ele>805.0</ele><time>2026-04-25T11:58:25.999Z</time></trkpt><trkpt lat="41.428197486830484" lon="14.86026669184754"><ele>805.5</ele><time>2026-04-25T11:58:26.999Z</time></trkpt><trkpt lat="41.42848624851224" lon="14.86028418371751"><ele>806.0</ele><time>2026-04-25T11:58:27.999Z</time></trkpt><trkpt lat="41.42877675592212" lon="14.860348402636767"><ele>806.5</ele><time>2026-04-25T11:58:28.999Z</time></trkpt><trkpt lat="41.429084127585654" lon="14.86047381604828"><ele>807.0</ele><time>2026-04-25T11:58:29.999Z</time></trkpt><trkpt lat="41.42941677711588" lon="14.860636077987987"><ele>808.0</ele><time>2026-04-25T11:58:30.999Z</time></trkpt><trkpt lat="41.42972367834562" lon="14.860792512542462"><ele>809.0</ele><time>2026-04-25T11:58:31.999Z</time></trkpt><trkpt lat="41.43003433732454" lon="14.860930981492766"><ele>807.5</ele><time>2026-04-25T11:58:32.999Z</time></trkpt><trkpt lat="41.430328163367584" lon="14.861054024275672"><ele>806.0</ele><time>2026-04-25T11:58:33.999Z</time></trkpt><trkpt lat="41.43057417554159" lon="14.861190597156293"><ele>809.0</ele><time>2026-04-25T11:58:34.999Z</time></trkpt><trkpt lat="41.43082796416485" lon="14.861298170622232"><ele>812.0</ele><time>2026-04-25T11:58:35.999Z</time></trkpt><trkpt lat="41.43105702022504" lon="14.861390423829716"><ele>812.0</ele><time>2026-04-25T11:58:36.999Z</time></trkpt><trkpt lat="41.43128117480209" lon="14.861512052717318"><ele>812.0</ele><time>2026-04-25T11:58:37.999Z</time></trkpt><trkpt lat="41.431500699330364" lon="14.861681680136442"><ele>815.0</ele><time>2026-04-25T11:58:38.999Z</time></trkpt><trkpt lat="41.43171810958589" lon="14.861869777768751"><ele>818.0</ele><time>2026-04-25T11:58:39.999Z</time></trkpt><trkpt lat="41.43192116713836" lon="14.862097429208433"><ele>818.0</ele><time>2026-04-25T11:58:40.999Z</time></trkpt><trkpt lat="41.43210673690375" lon="14.862348419651921"><ele>818.0</ele><time>2026-04-25T11:58:41.999Z</time></trkpt><trkpt lat="41.43228982342661" lon="14.862604400546438"><ele>820.5</ele><time>2026-04-25T11:58:42.999Z</time></trkpt><trkpt lat="41.432478290214526" lon="14.86282892929918"><ele>823.0</ele><time>2026-04-25T11:58:43.999Z</time></trkpt><trkpt lat="41.43268021263627" lon="14.863024495100385"><ele>823.0</ele><time>2026-04-25T11:58:44.999Z</time></trkpt><trkpt lat="41.432922232014405" lon="14.863148843724439"><ele>823.0</ele><time>2026-04-25T11:58:45.999Z</time></trkpt><trkpt lat="41.433180194143205" lon="14.863230839269963"><ele>823.5</ele><time>2026-04-25T11:58:46.999Z</time></trkpt><trkpt lat="41.43345228298495" lon="14.863262706193598"><ele>824.0</ele><time>2026-04-25T11:58:47.999Z</time></trkpt><trkpt lat="41.43376915623697" lon="14.863242018035141"><ele>825.0</ele><time>2026-04-25T11:58:48.999Z</time></trkpt><trkpt lat="41.434095224388315" lon="14.863217269493925"><ele>826.0</ele><time>2026-04-25T11:58:49.999Z</time></trkpt><trkpt lat="41.43439648824275" lon="14.863196828784103"><ele>827.0</ele><time>2026-04-25T11:58:50.999Z</time></trkpt><trkpt lat="41.43469056849416" lon="14.863160350119676"><ele>828.0</ele><time>2026-04-25T11:58:51.999Z</time></trkpt><trkpt lat="41.43500346601033" lon="14.863129957292147"><ele>828.0</ele><time>2026-04-25T11:58:52.999Z</time></trkpt><trkpt lat="41.43531732356933" lon="14.86309340544136"><ele>828.0</ele><time>2026-04-25T11:58:53.999Z</time></trkpt><trkpt lat="41.43563731993972" lon="14.863069139889573"><ele>827.5</ele><time>2026-04-25T11:58:54.999Z</time></trkpt><trkpt lat="41.435977028008445" lon="14.863050081726952"><ele>827.0</ele><time>2026-04-25T11:58:55.999Z</time></trkpt><trkpt lat="41.436306028577086" lon="14.863010857265706"><ele>825.0</ele><time>2026-04-25T11:58:56.999Z</time></trkpt><trkpt lat="41.43662464898003" lon="14.862958314047647"><ele>823.0</ele><time>2026-04-25T11:58:57.999Z</time></trkpt><trkpt lat="41.43709166144671" lon="14.862996597987093"><ele>823.0</ele><time>2026-04-25T11:58:58.999Z</time></trkpt><trkpt lat="41.43738793170521" lon="14.862979628598291"><ele>823.0</ele><time>2026-04-25T11:58:59.999Z</time></trkpt><trkpt lat="41.43768314188414" lon="14.862957492811372"><ele>823.0</ele><time>2026-04-25T11:59:00.999Z</time></trkpt><trkpt lat="41.43792693854719" lon="14.86294165698692"><ele>823.0</ele><time>2026-04-25T11:59:01.999Z</time></trkpt><trkpt lat="41.43815661937637" lon="14.862913563072173"><ele>824.5</ele><time>2026-04-25T11:59:02.999Z</time></trkpt><trkpt lat="41.43838424579519" lon="14.862944970450833"><ele>826.0</ele><time>2026-04-25T11:59:03.999Z</time></trkpt><trkpt lat="41.43860700527665" lon="14.863021096194197"><ele>826.5</ele><time>2026-04-25T11:59:04.999Z</time></trkpt><trkpt lat="41.4388403414561" lon="14.863147554103282"><ele>827.0</ele><time>2026-04-25T11:59:05.999Z</time></trkpt><trkpt lat="41.43906145335664" lon="14.863340071434042"><ele>826.0</ele><time>2026-04-25T11:59:06.999Z</time></trkpt><trkpt lat="41.43926335204551" lon="14.863583139362888"><ele>825.0</ele><time>2026-04-25T11:59:07.999Z</time></trkpt><trkpt lat="41.43949153938893" lon="14.863857380865932"><ele>825.0</ele><time>2026-04-25T11:59:08.999Z</time></trkpt><trkpt lat="41.43973186310528" lon="14.864141385667438"><ele>825.0</ele><time>2026-04-25T11:59:09.999Z</time></trkpt><trkpt lat="41.43997851717687" lon="14.864421303273383"><ele>824.0</ele><time>2026-04-25T11:59:10.999Z</time></trkpt><trkpt lat="41.440232346298565" lon="14.864715045584845"><ele>823.0</ele><time>2026-04-25T11:59:11.999Z</time></trkpt><trkpt lat="41.44045539498195" lon="14.864975670031734"><ele>820.5</ele><time>2026-04-25T11:59:12.999Z</time></trkpt><trkpt lat="41.44068101402452" lon="14.865227728696436"><ele>818.0</ele><time>2026-04-25T11:59:13.999Z</time></trkpt><trkpt lat="41.440903960124764" lon="14.865472632885146"><ele>818.0</ele><time>2026-04-25T11:59:14.999Z</time></trkpt><trkpt lat="41.44110675887065" lon="14.86570964315215"><ele>818.0</ele><time>2026-04-25T11:59:15.999Z</time></trkpt><trkpt lat="41.44130523708948" lon="14.86593025764594"><ele>817.5</ele><time>2026-04-25T11:59:16.999Z</time></trkpt><trkpt lat="41.441511757453" lon="14.866135138609136"><ele>817.0</ele><time>2026-04-25T11:59:17.999Z</time></trkpt><trkpt lat="41.44174141381944" lon="14.866318981105568"><ele>817.0</ele><time>2026-04-25T11:59:18.999Z</time></trkpt><trkpt lat="41.44198559716634" lon="14.866478294958485"><ele>817.0</ele><time>2026-04-25T11:59:19.999Z</time></trkpt><trkpt lat="41.44227666808133" lon="14.866558674026997"><ele>819.0</ele><time>2026-04-25T11:59:20.999Z</time></trkpt><trkpt lat="41.44257849754964" lon="14.866549044700841"><ele>821.0</ele><time>2026-04-25T11:59:21.999Z</time></trkpt><trkpt lat="41.44287881798142" lon="14.866544132191336"><ele>820.5</ele><time>2026-04-25T11:59:22.999Z</time></trkpt><trkpt lat="41.443181151329895" lon="14.866526539990103"><ele>820.0</ele><time>2026-04-25T11:59:23.999Z</time></trkpt><trkpt lat="41.44346967309794" lon="14.86648927341154"><ele>820.0</ele><time>2026-04-25T11:59:24.999Z</time></trkpt><trkpt lat="41.4437365417417" lon="14.866487207491003"><ele>820.0</ele><time>2026-04-25T11:59:25.999Z</time></trkpt><trkpt lat="41.444008810297305" lon="14.866455710910529"><ele>813.5</ele><time>2026-04-25T11:59:26.999Z</time></trkpt><trkpt lat="41.44428485030524" lon="14.866430541196328"><ele>807.0</ele><time>2026-04-25T11:59:27.999Z</time></trkpt><trkpt lat="41.444545121567685" lon="14.86641009564094"><ele>803.5</ele><time>2026-04-25T11:59:28.999Z</time></trkpt><trkpt lat="41.44478088806149" lon="14.866396712816325"><ele>800.0</ele><time>2026-04-25T11:59:29.999Z</time></trkpt><trkpt lat="41.44502158188893" lon="14.866381429256094"><ele>800.0</ele><time>2026-04-25T11:59:30.999Z</time></trkpt><trkpt lat="41.44525999201934" lon="14.8664024017177"><ele>800.0</ele><time>2026-04-25T11:59:31.999Z</time></trkpt><trkpt lat="41.44550439544333" lon="14.866439929059412"><ele>796.5</ele><time>2026-04-25T11:59:32.999Z</time></trkpt><trkpt lat="41.44575373905679" lon="14.866513069890386"><ele>793.0</ele><time>2026-04-25T11:59:33.999Z</time></trkpt><trkpt lat="41.44599784789792" lon="14.86661516071936"><ele>793.0</ele><time>2026-04-25T11:59:34.999Z</time></trkpt><trkpt lat="41.446228182382534" lon="14.86669944975362"><ele>793.0</ele><time>2026-04-25T11:59:35.999Z</time></trkpt><trkpt lat="41.44643658852786" lon="14.86680599762448"><ele>794.6666666666666</ele><time>2026-04-25T11:59:36.999Z</time></trkpt><trkpt lat="41.44664479035706" lon="14.866896692162832"><ele>796.3333333333333</ele><time>2026-04-25T11:59:37.999Z</time></trkpt><trkpt lat="41.44686068085231" lon="14.866955975075403"><ele>798.0</ele><time>2026-04-25T11:59:38.999Z</time></trkpt><trkpt lat="41.44709143555008" lon="14.86697457717578"><ele>795.0</ele><time>2026-04-25T11:59:39.999Z</time></trkpt><trkpt lat="41.44734115032414" lon="14.866944981324885"><ele>792.0</ele><time>2026-04-25T11:59:40.999Z</time></trkpt><trkpt lat="41.44760963643826" lon="14.86686756702353"><ele>785.5</ele><time>2026-04-25T11:59:42Z</time></trkpt><trkpt lat="41.44788691567041" lon="14.866756108330692"><ele>779.0</ele><time>2026-04-25T11:59:43Z</time></trkpt><trkpt lat="41.44815127925939" lon="14.866638433388957"><ele>779.0</ele><time>2026-04-25T11:59:44Z</time></trkpt><trkpt lat="41.448391826445565" lon="14.866547470447012"><ele>779.0</ele><time>2026-04-25T11:59:45Z</time></trkpt><trkpt lat="41.4486174954618" lon="14.866468555098551"><ele>781.0</ele><time>2026-04-25T11:59:46Z</time></trkpt><trkpt lat="41.448839480290076" lon="14.866368136203446"><ele>783.0</ele><time>2026-04-25T11:59:47Z</time></trkpt><trkpt lat="41.44905413291533" lon="14.866237874289993"><ele>783.0</ele><time>2026-04-25T11:59:48Z</time></trkpt><trkpt lat="41.449242370368175" lon="14.86604641298095"><ele>783.0</ele><time>2026-04-25T11:59:49Z</time></trkpt><trkpt lat="41.449427580325086" lon="14.865806094043977"><ele>780.0</ele><time>2026-04-25T11:59:50Z</time></trkpt><trkpt lat="41.449592769205054" lon="14.865552078446962"><ele>777.0</ele><time>2026-04-25T11:59:51Z</time></trkpt><trkpt lat="41.449738344574754" lon="14.86527567767002"><ele>773.0</ele><time>2026-04-25T11:59:52Z</time></trkpt><trkpt lat="41.44986148560871" lon="14.864959910578182"><ele>769.0</ele><time>2026-04-25T11:59:53Z</time></trkpt><trkpt lat="41.449944097166444" lon="14.864626051122453"><ele>766.0</ele><time>2026-04-25T11:59:54Z</time></trkpt><trkpt lat="41.44999029926752" lon="14.864266111683085"><ele>763.0</ele><time>2026-04-25T11:59:55Z</time></trkpt><trkpt lat="41.4500078072038" lon="14.863901633982545"><ele>763.0</ele><time>2026-04-25T11:59:56Z</time></trkpt><trkpt lat="41.44999431822639" lon="14.86353955038536"><ele>763.0</ele><time>2026-04-25T11:59:57Z</time></trkpt><trkpt lat="41.44998990097298" lon="14.863205321367722"><ele>759.0</ele><time>2026-04-25T11:59:58Z</time></trkpt><trkpt lat="41.449997380783586" lon="14.862900095786891"><ele>755.0</ele><time>2026-04-25T11:59:59Z</time></trkpt><trkpt lat="41.45000583393367" lon="14.862596588107444"><ele>753.6666666666666</ele><time>2026-04-25T12:00:00Z</time></trkpt><trkpt lat="41.45002420047026" lon="14.862315477588053"><ele>752.3333333333334</ele><time>2026-04-25T12:00:01Z</time></trkpt><trkpt lat="41.45006370661273" lon="14.862052252652783"><ele>751.0</ele><time>2026-04-25T12:00:02Z</time></trkpt><trkpt lat="41.45011465516152" lon="14.86177707452565"><ele>749.5</ele><time>2026-04-25T12:00:03Z</time></trkpt><trkpt lat="41.45018795968544" lon="14.861503672148134"><ele>748.0</ele><time>2026-04-25T12:00:04Z</time></trkpt><trkpt lat="41.45026904359344" lon="14.861208354211216"><ele>748.5</ele><time>2026-04-25T12:00:05Z</time></trkpt><trkpt lat="41.45040322293078" lon="14.860916346669226"><ele>749.0</ele><time>2026-04-25T12:00:06Z</time></trkpt><trkpt lat="41.450536811347845" lon="14.860598489461978"><ele>749.0</ele><time>2026-04-25T12:00:07Z</time></trkpt><trkpt lat="41.45066467665197" lon="14.860261302248247"><ele>749.0</ele><time>2026-04-25T12:00:08Z</time></trkpt><trkpt lat="41.45079585644" lon="14.859967008354488"><ele>746.0</ele><time>2026-04-25T12:00:09Z</time></trkpt><trkpt lat="41.450916711137" lon="14.859688052648092"><ele>743.0</ele><time>2026-04-25T12:00:10Z</time></trkpt><trkpt lat="41.45101607918266" lon="14.859436848322199"><ele>742.6666666666666</ele><time>2026-04-25T12:00:11Z</time></trkpt><trkpt lat="41.45114542286317" lon="14.859214724212151"><ele>742.3333333333334</ele><time>2026-04-25T12:00:12Z</time></trkpt><trkpt lat="41.45129093714948" lon="14.858993751162467"><ele>742.0</ele><time>2026-04-25T12:00:13Z</time></trkpt><trkpt lat="41.451466609895675" lon="14.858787334996492"><ele>742.0</ele><time>2026-04-25T12:00:14Z</time></trkpt><trkpt lat="41.45165910059407" lon="14.858612447331867"><ele>742.0</ele><time>2026-04-25T12:00:15Z</time></trkpt><trkpt lat="41.4518633654026" lon="14.858482662809294"><ele>738.0</ele><time>2026-04-25T12:00:16Z</time></trkpt><trkpt lat="41.452074987438486" lon="14.858392896202641"><ele>734.0</ele><time>2026-04-25T12:00:17Z</time></trkpt><trkpt lat="41.45230499306868" lon="14.858329673328843"><ele>734.0</ele><time>2026-04-25T12:00:18Z</time></trkpt><trkpt lat="41.45255660483255" lon="14.858276787047553"><ele>734.0</ele><time>2026-04-25T12:00:19Z</time></trkpt><trkpt lat="41.45282625201594" lon="14.858205673968722"><ele>732.0</ele><time>2026-04-25T12:00:20Z</time></trkpt><trkpt lat="41.45309995873634" lon="14.858154050504135"><ele>730.0</ele><time>2026-04-25T12:00:21Z</time></trkpt><trkpt lat="41.453345774491474" lon="14.858107610233587"><ele>730.0</ele><time>2026-04-25T12:00:22Z</time></trkpt><trkpt lat="41.453575820211334" lon="14.858054765664887"><ele>730.0</ele><time>2026-04-25T12:00:23Z</time></trkpt><trkpt lat="41.45379446452827" lon="14.85800304486238"><ele>728.6666666666667</ele><time>2026-04-25T12:00:24Z</time></trkpt><trkpt lat="41.45395525367216" lon="14.85797148871853"><ele>727.3333333333334</ele><time>2026-04-25T12:00:25Z</time></trkpt><trkpt lat="41.45411033990434" lon="14.85792181189152"><ele>726.0</ele><time>2026-04-25T12:00:26Z</time></trkpt><trkpt lat="41.454240217480965" lon="14.857821490859854"><ele>726.0</ele><time>2026-04-25T12:00:27Z</time></trkpt><trkpt lat="41.454338937632315" lon="14.85766882640574"><ele>726.0</ele><time>2026-04-25T12:00:28Z</time></trkpt><trkpt lat="41.4543966090014" lon="14.8574682953629"><ele>726.0</ele><time>2026-04-25T12:00:29Z</time></trkpt><trkpt lat="41.45440651346127" lon="14.857255444141659"><ele>724.0</ele><time>2026-04-25T12:00:30Z</time></trkpt><trkpt lat="41.4543986850845" lon="14.857057257394626"><ele>722.0</ele><time>2026-04-25T12:00:31Z</time></trkpt><trkpt lat="41.45440722907938" lon="14.856896916072795"><ele>720.0</ele><time>2026-04-25T12:00:32Z</time></trkpt><trkpt lat="41.454406954112166" lon="14.856778903822313"><ele>718.0</ele><time>2026-04-25T12:00:33Z</time></trkpt><trkpt lat="41.453970764903275" lon="14.856659721323787"><ele>714.3333333333334</ele><time>2026-04-25T12:00:34Z</time></trkpt><trkpt lat="41.45376469065975" lon="14.856576276773406"><ele>710.6666666666666</ele><time>2026-04-25T12:00:35Z</time></trkpt><trkpt lat="41.45354709045989" lon="14.85647130694374"><ele>707.0</ele><time>2026-04-25T12:00:36Z</time></trkpt><trkpt lat="41.453326556527756" lon="14.856345982086664"><ele>707.0</ele><time>2026-04-25T12:00:37Z</time></trkpt><trkpt lat="41.45309520707707" lon="14.856203764771756"><ele>707.0</ele><time>2026-04-25T12:00:38Z</time></trkpt><trkpt lat="41.45285279749781" lon="14.856055795562066"><ele>703.5</ele><time>2026-04-25T12:00:39Z</time></trkpt><trkpt lat="41.45259308318223" lon="14.855898164769942"><ele>700.0</ele><time>2026-04-25T12:00:40Z</time></trkpt><trkpt lat="41.45232383447621" lon="14.855745474911057"><ele>700.0</ele><time>2026-04-25T12:00:41Z</time></trkpt><trkpt lat="41.45205879502888" lon="14.85559838188087"><ele>700.0</ele><time>2026-04-25T12:00:42Z</time></trkpt><trkpt lat="41.451821854435934" lon="14.855460065107483"><ele>700.0</ele><time>2026-04-25T12:00:43Z</time></trkpt><trkpt lat="41.45159934059908" lon="14.855331531222966"><ele>700.0</ele><time>2026-04-25T12:00:44Z</time></trkpt><trkpt lat="41.451379914445184" lon="14.85521324432371"><ele>698.0</ele><time>2026-04-25T12:00:45Z</time></trkpt><trkpt lat="41.45117511807745" lon="14.855072168146492"><ele>696.0</ele><time>2026-04-25T12:00:46Z</time></trkpt><trkpt lat="41.45097469956873" lon="14.85488290771895"><ele>696.0</ele><time>2026-04-25T12:00:47Z</time></trkpt><trkpt lat="41.45078591236463" lon="14.854640882370251"><ele>696.0</ele><time>2026-04-25T12:00:48Z</time></trkpt><trkpt lat="41.450621594797106" lon="14.854364502956043"><ele>694.0</ele><time>2026-04-25T12:00:49Z</time></trkpt><trkpt lat="41.45048364939964" lon="14.85405622912032"><ele>692.0</ele><time>2026-04-25T12:00:50Z</time></trkpt><trkpt lat="41.45037428728965" lon="14.853763122784583"><ele>690.5</ele><time>2026-04-25T12:00:51Z</time></trkpt><trkpt lat="41.45027433505107" lon="14.853487883364938"><ele>689.0</ele><time>2026-04-25T12:00:52Z</time></trkpt><trkpt lat="41.45020231803268" lon="14.853201769473031"><ele>689.0</ele><time>2026-04-25T12:00:53Z</time></trkpt><trkpt lat="41.45015954833468" lon="14.852885873032239"><ele>689.0</ele><time>2026-04-25T12:00:54Z</time></trkpt><trkpt lat="41.450149416608966" lon="14.852559133431221"><ele>684.0</ele><time>2026-04-25T12:00:55Z</time></trkpt><trkpt lat="41.450178814797795" lon="14.852224265002167"><ele>679.0</ele><time>2026-04-25T12:00:55.999Z</time></trkpt><trkpt lat="41.45023997085247" lon="14.851890041602964"><ele>676.5</ele><time>2026-04-25T12:00:56.999Z</time></trkpt><trkpt lat="41.4503547802607" lon="14.85156756736718"><ele>674.0</ele><time>2026-04-25T12:00:57.999Z</time></trkpt><trkpt lat="41.4505125505628" lon="14.851235551564319"><ele>674.5</ele><time>2026-04-25T12:00:58.999Z</time></trkpt><trkpt lat="41.45066727349414" lon="14.850887849171814"><ele>675.0</ele><time>2026-04-25T12:00:59.999Z</time></trkpt><trkpt lat="41.450853075248965" lon="14.850510433359855"><ele>675.0</ele><time>2026-04-25T12:01:00.999Z</time></trkpt><trkpt lat="41.451026539304316" lon="14.850135209087485"><ele>675.0</ele><time>2026-04-25T12:01:01.999Z</time></trkpt><trkpt lat="41.45118135913372" lon="14.849767412251065"><ele>675.5</ele><time>2026-04-25T12:01:02.999Z</time></trkpt><trkpt lat="41.45133030407594" lon="14.849431822001833"><ele>676.0</ele><time>2026-04-25T12:01:03.999Z</time></trkpt><trkpt lat="41.45146638731749" lon="14.849122569592511"><ele>674.5</ele><time>2026-04-25T12:01:04.999Z</time></trkpt><trkpt lat="41.45160199738962" lon="14.84882165235269"><ele>673.0</ele><time>2026-04-25T12:01:05.999Z</time></trkpt><trkpt lat="41.451741080186686" lon="14.848523382560664"><ele>671.0</ele><time>2026-04-25T12:01:06.999Z</time></trkpt><trkpt lat="41.451866276703484" lon="14.84822053470025"><ele>669.0</ele><time>2026-04-25T12:01:07.999Z</time></trkpt><trkpt lat="41.45199199712591" lon="14.8479342779564"><ele>669.0</ele><time>2026-04-25T12:01:08.999Z</time></trkpt><trkpt lat="41.45211511559353" lon="14.847660562468516"><ele>669.0</ele><time>2026-04-25T12:01:09.999Z</time></trkpt><trkpt lat="41.45223756993528" lon="14.847399118048564"><ele>670.5</ele><time>2026-04-25T12:01:10.999Z</time></trkpt><trkpt lat="41.452365317975925" lon="14.847156036411365"><ele>672.0</ele><time>2026-04-25T12:01:11.999Z</time></trkpt><trkpt lat="41.452531767912376" lon="14.846893911520013"><ele>669.5</ele><time>2026-04-25T12:01:12.999Z</time></trkpt><trkpt lat="41.452715951950054" lon="14.846654892374989"><ele>667.0</ele><time>2026-04-25T12:01:13.999Z</time></trkpt><trkpt lat="41.452916315040625" lon="14.846522028210536"><ele>667.0</ele><time>2026-04-25T12:01:14.999Z</time></trkpt><trkpt lat="41.45313720760452" lon="14.846378930332552"><ele>667.0</ele><time>2026-04-25T12:01:15.999Z</time></trkpt><trkpt lat="41.45336033922977" lon="14.846248539744847"><ele>667.0</ele><time>2026-04-25T12:01:16.999Z</time></trkpt><trkpt lat="41.45359184394975" lon="14.84610890455577"><ele>667.0</ele><time>2026-04-25T12:01:17.999Z</time></trkpt><trkpt lat="41.45382694796023" lon="14.845946928988939"><ele>665.0</ele><time>2026-04-25T12:01:18.999Z</time></trkpt><trkpt lat="41.454069499900555" lon="14.845769219708355"><ele>663.0</ele><time>2026-04-25T12:01:19.999Z</time></trkpt><trkpt lat="41.45431992098422" lon="14.845588489476652"><ele>663.0</ele><time>2026-04-25T12:01:20.999Z</time></trkpt><trkpt lat="41.45456132204666" lon="14.845418657763902"><ele>663.0</ele><time>2026-04-25T12:01:21.999Z</time></trkpt><trkpt lat="41.454793381840005" lon="14.845257059338035"><ele>660.5</ele><time>2026-04-25T12:01:22.999Z</time></trkpt><trkpt lat="41.455032751463605" lon="14.845089919271773"><ele>658.0</ele><time>2026-04-25T12:01:23.999Z</time></trkpt><trkpt lat="41.45527549526865" lon="14.844923663075093"><ele>659.0</ele><time>2026-04-25T12:01:24.999Z</time></trkpt><trkpt lat="41.45551619533038" lon="14.8447615541013"><ele>660.0</ele><time>2026-04-25T12:01:25.999Z</time></trkpt><trkpt lat="41.45576049960709" lon="14.844600915698551"><ele>660.0</ele><time>2026-04-25T12:01:26.999Z</time></trkpt><trkpt lat="41.45600067129507" lon="14.844442263030377"><ele>660.0</ele><time>2026-04-25T12:01:27.999Z</time></trkpt><trkpt lat="41.45624207550437" lon="14.844290766555941"><ele>657.5</ele><time>2026-04-25T12:01:28.999Z</time></trkpt><trkpt lat="41.45649050154088" lon="14.844145405765806"><ele>655.0</ele><time>2026-04-25T12:01:29.999Z</time></trkpt><trkpt lat="41.45673461602439" lon="14.844002818927349"><ele>655.0</ele><time>2026-04-25T12:01:30.999Z</time></trkpt><trkpt lat="41.45700466697255" lon="14.84386188888799"><ele>655.0</ele><time>2026-04-25T12:01:31.999Z</time></trkpt><trkpt lat="41.45727288645165" lon="14.843708109796575"><ele>655.0</ele><time>2026-04-25T12:01:32.999Z</time></trkpt><trkpt lat="41.45754346352126" lon="14.843555854936954"><ele>655.0</ele><time>2026-04-25T12:01:33.999Z</time></trkpt><trkpt lat="41.457818556818125" lon="14.843396002557066"><ele>655.0</ele><time>2026-04-25T12:01:34.999Z</time></trkpt><trkpt lat="41.4580850021483" lon="14.843244225529672"><ele>655.0</ele><time>2026-04-25T12:01:35.999Z</time></trkpt><trkpt lat="41.45835202018899" lon="14.843092010728329"><ele>655.0</ele><time>2026-04-25T12:01:36.999Z</time></trkpt><trkpt lat="41.45861185341151" lon="14.842981097357459"><ele>655.0</ele><time>2026-04-25T12:01:37.999Z</time></trkpt><trkpt lat="41.45883878974291" lon="14.84285328759947"><ele>654.5</ele><time>2026-04-25T12:01:38.999Z</time></trkpt><trkpt lat="41.45905909190029" lon="14.842729214206784"><ele>654.0</ele><time>2026-04-25T12:01:39.999Z</time></trkpt><trkpt lat="41.45928712065212" lon="14.842608469664105"><ele>654.0</ele><time>2026-04-25T12:01:40.999Z</time></trkpt><trkpt lat="41.45953141698773" lon="14.842515807803384"><ele>654.0</ele><time>2026-04-25T12:01:41.999Z</time></trkpt><trkpt lat="41.45978846935599" lon="14.842433033036924"><ele>654.0</ele><time>2026-04-25T12:01:42.999Z</time></trkpt><trkpt lat="41.46005837869767" lon="14.84234611814694"><ele>654.0</ele><time>2026-04-25T12:01:43.999Z</time></trkpt><trkpt lat="41.46033890920622" lon="14.842254520573382"><ele>655.0</ele><time>2026-04-25T12:01:44.999Z</time></trkpt><trkpt lat="41.46063493911165" lon="14.84215837730952"><ele>656.0</ele><time>2026-04-25T12:01:45.999Z</time></trkpt><trkpt lat="41.46093002238509" lon="14.842062333527606"><ele>656.0</ele><time>2026-04-25T12:01:46.999Z</time></trkpt><trkpt lat="41.461217699489524" lon="14.841968700303909"><ele>656.0</ele><time>2026-04-25T12:01:48Z</time></trkpt><trkpt lat="41.46150869093679" lon="14.841873968276634"><ele>653.5</ele><time>2026-04-25T12:01:49Z</time></trkpt><trkpt lat="41.46180278135566" lon="14.841778224429776"><ele>651.0</ele><time>2026-04-25T12:01:50Z</time></trkpt><trkpt lat="41.46208742660379" lon="14.841683254435166"><ele>654.5</ele><time>2026-04-25T12:01:51Z</time></trkpt><trkpt lat="41.46236343653008" lon="14.841570828155785"><ele>658.0</ele><time>2026-04-25T12:01:52Z</time></trkpt><trkpt lat="41.4626381729128" lon="14.841483156366868"><ele>658.0</ele><time>2026-04-25T12:01:53Z</time></trkpt><trkpt lat="41.462914089343904" lon="14.841434355203102"><ele>658.0</ele><time>2026-04-25T12:01:54Z</time></trkpt><trkpt lat="41.46319587823606" lon="14.841403980385763"><ele>658.5</ele><time>2026-04-25T12:01:55Z</time></trkpt><trkpt lat="41.46349653826948" lon="14.841375612553458"><ele>659.0</ele><time>2026-04-25T12:01:56Z</time></trkpt><trkpt lat="41.46380477647415" lon="14.841376658759414"><ele>656.5</ele><time>2026-04-25T12:01:57Z</time></trkpt><trkpt lat="41.46412889408388" lon="14.841376145928907"><ele>654.0</ele><time>2026-04-25T12:01:58Z</time></trkpt><trkpt lat="41.46444132864699" lon="14.841369294047782"><ele>654.5</ele><time>2026-04-25T12:01:59Z</time></trkpt><trkpt lat="41.46475516496308" lon="14.84135552837888"><ele>655.0</ele><time>2026-04-25T12:02:00Z</time></trkpt><trkpt lat="41.46506825065965" lon="14.841347003635239"><ele>655.0</ele><time>2026-04-25T12:02:01Z</time></trkpt><trkpt lat="41.46539632002348" lon="14.841336568120463"><ele>655.0</ele><time>2026-04-25T12:02:02Z</time></trkpt><trkpt lat="41.46570016048163" lon="14.841334965951003"><ele>654.5</ele><time>2026-04-25T12:02:03Z</time></trkpt><trkpt lat="41.466004744277946" lon="14.841345749499911"><ele>654.0</ele><time>2026-04-25T12:02:04Z</time></trkpt><trkpt lat="41.466311172001426" lon="14.84134365756051"><ele>656.5</ele><time>2026-04-25T12:02:05Z</time></trkpt><trkpt lat="41.466613905931105" lon="14.841332600276532"><ele>659.0</ele><time>2026-04-25T12:02:06Z</time></trkpt><trkpt lat="41.466923771974734" lon="14.841258087901043"><ele>663.5</ele><time>2026-04-25T12:02:07Z</time></trkpt><trkpt lat="41.4671920352712" lon="14.84112651134785"><ele>668.0</ele><time>2026-04-25T12:02:08Z</time></trkpt><trkpt lat="41.46743604458473" lon="14.841029212124978"><ele>663.6666666666666</ele><time>2026-04-25T12:02:09Z</time></trkpt><trkpt lat="41.46741045958035" lon="14.84082164301311"><ele>659.3333333333334</ele><time>2026-04-25T12:02:10Z</time></trkpt><trkpt lat="41.46755824775579" lon="14.840584896491043"><ele>655.0</ele><time>2026-04-25T12:02:11Z</time></trkpt><trkpt lat="41.46769490850196" lon="14.84038058396489"><ele>655.0</ele><time>2026-04-25T12:02:12Z</time></trkpt><trkpt lat="41.46783334982887" lon="14.840202052440247"><ele>655.0</ele><time>2026-04-25T12:02:13Z</time></trkpt><trkpt lat="41.46800401313595" lon="14.84012226543747"><ele>655.0</ele><time>2026-04-25T12:02:14Z</time></trkpt><trkpt lat="41.46816590722152" lon="14.84012030838867"><ele>657.6666666666667</ele><time>2026-04-25T12:02:15Z</time></trkpt><trkpt lat="41.46835949872034" lon="14.840160745219245"><ele>660.3333333333334</ele><time>2026-04-25T12:02:16Z</time></trkpt><trkpt lat="41.46860153565595" lon="14.840211872185094"><ele>663.0</ele><time>2026-04-25T12:02:17Z</time></trkpt><trkpt lat="41.46886857384199" lon="14.840267855030648"><ele>664.0</ele><time>2026-04-25T12:02:18Z</time></trkpt><trkpt lat="41.46913296366313" lon="14.840321488271009"><ele>665.0</ele><time>2026-04-25T12:02:19Z</time></trkpt><trkpt lat="41.46939236743607" lon="14.840373086349025"><ele>662.0</ele><time>2026-04-25T12:02:20Z</time></trkpt><trkpt lat="41.46962892985129" lon="14.840391447331685"><ele>659.0</ele><time>2026-04-25T12:02:21Z</time></trkpt><trkpt lat="41.46984722120507" lon="14.840387204800559"><ele>659.0</ele><time>2026-04-25T12:02:22Z</time></trkpt><trkpt lat="41.4700754416017" lon="14.840311917405018"><ele>659.0</ele><time>2026-04-25T12:02:23Z</time></trkpt><trkpt lat="41.47029190102599" lon="14.840182231369065"><ele>654.5</ele><time>2026-04-25T12:02:24Z</time></trkpt><trkpt lat="41.47047149154839" lon="14.839997835797062"><ele>650.0</ele><time>2026-04-25T12:02:25Z</time></trkpt><trkpt lat="41.47064879219785" lon="14.839758597889114"><ele>650.0</ele><time>2026-04-25T12:02:26Z</time></trkpt><trkpt lat="41.47083994785154" lon="14.839520743263874"><ele>650.0</ele><time>2026-04-25T12:02:27Z</time></trkpt><trkpt lat="41.471079464315274" lon="14.839351864488327"><ele>647.5</ele><time>2026-04-25T12:02:28Z</time></trkpt><trkpt lat="41.471344815913326" lon="14.839209664793835"><ele>645.0</ele><time>2026-04-25T12:02:29Z</time></trkpt><trkpt lat="41.471627359149714" lon="14.839070021530446"><ele>645.0</ele><time>2026-04-25T12:02:30Z</time></trkpt><trkpt lat="41.47191266170438" lon="14.838931501651901"><ele>645.0</ele><time>2026-04-25T12:02:31Z</time></trkpt><trkpt lat="41.47218487975938" lon="14.83879780875235"><ele>646.0</ele><time>2026-04-25T12:02:32Z</time></trkpt><trkpt lat="41.472451635756855" lon="14.838650097139494"><ele>647.0</ele><time>2026-04-25T12:02:33Z</time></trkpt><trkpt lat="41.472710443401766" lon="14.8385245064933"><ele>646.0</ele><time>2026-04-25T12:02:34Z</time></trkpt><trkpt lat="41.472973037015485" lon="14.838422756907882"><ele>645.0</ele><time>2026-04-25T12:02:35Z</time></trkpt><trkpt lat="41.473227763251614" lon="14.838273445597812"><ele>645.0</ele><time>2026-04-25T12:02:36Z</time></trkpt><trkpt lat="41.47348558737819" lon="14.838150304974329"><ele>645.0</ele><time>2026-04-25T12:02:37Z</time></trkpt><trkpt lat="41.473748782389045" lon="14.838030052646035"><ele>644.0</ele><time>2026-04-25T12:02:38Z</time></trkpt><trkpt lat="41.47401244244847" lon="14.837907766975256"><ele>643.0</ele><time>2026-04-25T12:02:39Z</time></trkpt><trkpt lat="41.4742830372142" lon="14.837805617901362"><ele>643.0</ele><time>2026-04-25T12:02:40Z</time></trkpt><trkpt lat="41.47454177951688" lon="14.837663906931517"><ele>643.0</ele><time>2026-04-25T12:02:41Z</time></trkpt><trkpt lat="41.47480137228644" lon="14.83753905305031"><ele>643.0</ele><time>2026-04-25T12:02:42Z</time></trkpt><trkpt lat="41.47506033717843" lon="14.83741556230772"><ele>643.0</ele><time>2026-04-25T12:02:43Z</time></trkpt><trkpt lat="41.47531913435885" lon="14.837293296676604"><ele>641.0</ele><time>2026-04-25T12:02:44Z</time></trkpt><trkpt lat="41.4755774049376" lon="14.837174712347972"><ele>639.0</ele><time>2026-04-25T12:02:45Z</time></trkpt><trkpt lat="41.475835573016504" lon="14.83705924570808"><ele>639.0</ele><time>2026-04-25T12:02:46Z</time></trkpt><trkpt lat="41.47608444162923" lon="14.836940244635871"><ele>639.0</ele><time>2026-04-25T12:02:47Z</time></trkpt><trkpt lat="41.47632896181588" lon="14.836830483226773"><ele>645.0</ele><time>2026-04-25T12:02:48Z</time></trkpt><trkpt lat="41.476571742753606" lon="14.836744103704728"><ele>651.0</ele><time>2026-04-25T12:02:49Z</time></trkpt><trkpt lat="41.47682150352992" lon="14.836693153320153"><ele>651.0</ele><time>2026-04-25T12:02:50Z</time></trkpt><trkpt lat="41.47706534784432" lon="14.83669121954544"><ele>651.0</ele><time>2026-04-25T12:02:51Z</time></trkpt><trkpt lat="41.47732392112429" lon="14.836741620963018"><ele>645.0</ele><time>2026-04-25T12:02:52Z</time></trkpt><trkpt lat="41.477577409579546" lon="14.836833062108074"><ele>639.0</ele><time>2026-04-25T12:02:53Z</time></trkpt><trkpt lat="41.477809357739325" lon="14.83694789457232"><ele>640.0</ele><time>2026-04-25T12:02:54Z</time></trkpt><trkpt lat="41.4780235919435" lon="14.837098494405957"><ele>641.0</ele><time>2026-04-25T12:02:55Z</time></trkpt><trkpt lat="41.47825078955546" lon="14.837275660113896"><ele>641.0</ele><time>2026-04-25T12:02:56Z</time></trkpt><trkpt lat="41.478499717785546" lon="14.837460486690949"><ele>641.0</ele><time>2026-04-25T12:02:57Z</time></trkpt><trkpt lat="41.47875561743622" lon="14.837636573049737"><ele>639.5</ele><time>2026-04-25T12:02:58Z</time></trkpt><trkpt lat="41.47900910630194" lon="14.837809419289044"><ele>638.0</ele><time>2026-04-25T12:02:59Z</time></trkpt><trkpt lat="41.47925964612423" lon="14.837987879378321"><ele>638.0</ele><time>2026-04-25T12:03:00Z</time></trkpt><trkpt lat="41.4795082529237" lon="14.838163943964496"><ele>638.0</ele><time>2026-04-25T12:03:01Z</time></trkpt><trkpt lat="41.47975582131145" lon="14.838342242003796"><ele>639.0</ele><time>2026-04-25T12:03:02Z</time></trkpt><trkpt lat="41.480004053962254" lon="14.838512560235891"><ele>640.0</ele><time>2026-04-25T12:03:02.999Z</time></trkpt><trkpt lat="41.48025134640029" lon="14.838684340554568"><ele>641.0</ele><time>2026-04-25T12:03:03.999Z</time></trkpt><trkpt lat="41.48050239245813" lon="14.838852208451813"><ele>642.0</ele><time>2026-04-25T12:03:04.999Z</time></trkpt><trkpt lat="41.48075523792403" lon="14.83902067641222"><ele>642.0</ele><time>2026-04-25T12:03:05.999Z</time></trkpt><trkpt lat="41.481006940817444" lon="14.83919045011855"><ele>642.0</ele><time>2026-04-25T12:03:06.999Z</time></trkpt><trkpt lat="41.4812570759477" lon="14.83936205566788"><ele>638.5</ele><time>2026-04-25T12:03:07.999Z</time></trkpt><trkpt lat="41.481507132626206" lon="14.839537911672487"><ele>635.0</ele><time>2026-04-25T12:03:08.999Z</time></trkpt><trkpt lat="41.48175678661954" lon="14.839708576911024"><ele>635.0</ele><time>2026-04-25T12:03:09.999Z</time></trkpt><trkpt lat="41.482002763789424" lon="14.839881577628248"><ele>635.0</ele><time>2026-04-25T12:03:10.999Z</time></trkpt><trkpt lat="41.482250221129526" lon="14.840059986893639"><ele>633.0</ele><time>2026-04-25T12:03:11.999Z</time></trkpt><trkpt lat="41.48249731491487" lon="14.840232612735123"><ele>631.0</ele><time>2026-04-25T12:03:12.999Z</time></trkpt><trkpt lat="41.48275055924894" lon="14.84039350865758"><ele>629.0</ele><time>2026-04-25T12:03:13.999Z</time></trkpt><trkpt lat="41.483005257010106" lon="14.840547339137876"><ele>627.0</ele><time>2026-04-25T12:03:14.999Z</time></trkpt><trkpt lat="41.48327554160363" lon="14.840684412547963"><ele>627.0</ele><time>2026-04-25T12:03:15.999Z</time></trkpt><trkpt lat="41.483552339043285" lon="14.840791649189683"><ele>627.0</ele><time>2026-04-25T12:03:16.999Z</time></trkpt><trkpt lat="41.483841026781406" lon="14.840876204447655"><ele>627.5</ele><time>2026-04-25T12:03:17.999Z</time></trkpt><trkpt lat="41.48413537515919" lon="14.840938893891426"><ele>628.0</ele><time>2026-04-25T12:03:18.999Z</time></trkpt><trkpt lat="41.48442927322286" lon="14.840973369436723"><ele>635.5</ele><time>2026-04-25T12:03:19.999Z</time></trkpt><trkpt lat="41.48472705948728" lon="14.840982600340435"><ele>643.0</ele><time>2026-04-25T12:03:20.999Z</time></trkpt><trkpt lat="41.48502547119143" lon="14.840969785971053"><ele>637.0</ele><time>2026-04-25T12:03:21.999Z</time></trkpt><trkpt lat="41.48532842036166" lon="14.840918408926749"><ele>631.0</ele><time>2026-04-25T12:03:22.999Z</time></trkpt><trkpt lat="41.48563059288304" lon="14.84084700136618"><ele>631.0</ele><time>2026-04-25T12:03:23.999Z</time></trkpt><trkpt lat="41.48592864290392" lon="14.840748112234191"><ele>631.0</ele><time>2026-04-25T12:03:24.999Z</time></trkpt><trkpt lat="41.48622608569581" lon="14.84062191947096"><ele>631.5</ele><time>2026-04-25T12:03:25.999Z</time></trkpt><trkpt lat="41.48651599184073" lon="14.8404780529403"><ele>632.0</ele><time>2026-04-25T12:03:26.999Z</time></trkpt><trkpt lat="41.48680133112292" lon="14.84034119108594"><ele>632.0</ele><time>2026-04-25T12:03:27.999Z</time></trkpt><trkpt lat="41.48707063394578" lon="14.840219443265399"><ele>632.0</ele><time>2026-04-25T12:03:28.999Z</time></trkpt><trkpt lat="41.487336350707544" lon="14.84009649641325"><ele>625.0</ele><time>2026-04-25T12:03:29.999Z</time></trkpt><trkpt lat="41.48760157887874" lon="14.839957000684048"><ele>618.0</ele><time>2026-04-25T12:03:30.999Z</time></trkpt><trkpt lat="41.48786797803032" lon="14.839816242972086"><ele>617.5</ele><time>2026-04-25T12:03:31.999Z</time></trkpt><trkpt lat="41.48813923439172" lon="14.839673914094043"><ele>617.0</ele><time>2026-04-25T12:03:32.999Z</time></trkpt><trkpt lat="41.488413141981134" lon="14.83954516071263"><ele>617.0</ele><time>2026-04-25T12:03:33.999Z</time></trkpt><trkpt lat="41.4886969550568" lon="14.839431766831957"><ele>617.0</ele><time>2026-04-25T12:03:34.999Z</time></trkpt><trkpt lat="41.488987354253936" lon="14.839343178405512"><ele>609.0</ele><time>2026-04-25T12:03:35.999Z</time></trkpt><trkpt lat="41.48928074820719" lon="14.83926281621157"><ele>601.0</ele><time>2026-04-25T12:03:36.999Z</time></trkpt><trkpt lat="41.489577696034694" lon="14.839181290346426"><ele>598.0</ele><time>2026-04-25T12:03:37.999Z</time></trkpt><trkpt lat="41.48987595181197" lon="14.83909231889904"><ele>595.0</ele><time>2026-04-25T12:03:38.999Z</time></trkpt><trkpt lat="41.49017574685659" lon="14.839000354491494"><ele>595.5</ele><time>2026-04-25T12:03:39.999Z</time></trkpt><trkpt lat="41.49047971764469" lon="14.838903303891694"><ele>596.0</ele><time>2026-04-25T12:03:40.999Z</time></trkpt><trkpt lat="41.490782075652746" lon="14.838810137306675"><ele>596.0</ele><time>2026-04-25T12:03:41.999Z</time></trkpt><trkpt lat="41.49108711759889" lon="14.838715743527091"><ele>596.0</ele><time>2026-04-25T12:03:42.999Z</time></trkpt><trkpt lat="41.49138578932595" lon="14.838627478929252"><ele>597.0</ele><time>2026-04-25T12:03:43.999Z</time></trkpt><trkpt lat="41.491665148116105" lon="14.838540623865475"><ele>598.0</ele><time>2026-04-25T12:03:44.999Z</time></trkpt><trkpt lat="41.491942105006494" lon="14.83845448639097"><ele>593.5</ele><time>2026-04-25T12:03:45.999Z</time></trkpt><trkpt lat="41.49222050410807" lon="14.838368723607807"><ele>589.0</ele><time>2026-04-25T12:03:46.999Z</time></trkpt><trkpt lat="41.49250097735815" lon="14.8382907859262"><ele>589.0</ele><time>2026-04-25T12:03:47.999Z</time></trkpt><trkpt lat="41.4927910567103" lon="14.838231069385689"><ele>589.0</ele><time>2026-04-25T12:03:48.999Z</time></trkpt><trkpt lat="41.4930827888548" lon="14.83820341060484"><ele>587.0</ele><time>2026-04-25T12:03:49.999Z</time></trkpt><trkpt lat="41.49337889005295" lon="14.838218711098111"><ele>585.0</ele><time>2026-04-25T12:03:50.999Z</time></trkpt><trkpt lat="41.49367921876705" lon="14.838277656251362"><ele>584.0</ele><time>2026-04-25T12:03:51.999Z</time></trkpt><trkpt lat="41.49397152564194" lon="14.838412713420402"><ele>583.0</ele><time>2026-04-25T12:03:52.999Z</time></trkpt><trkpt lat="41.49427197671604" lon="14.838546395450482"><ele>582.0</ele><time>2026-04-25T12:03:54.001Z</time></trkpt><trkpt lat="41.49455812522223" lon="14.838726439565955"><ele>581.0</ele><time>2026-04-25T12:03:55.001Z</time></trkpt><trkpt lat="41.49484570839891" lon="14.838907817850243"><ele>581.0</ele><time>2026-04-25T12:03:56.001Z</time></trkpt><trkpt lat="41.4951424208683" lon="14.839086341589386"><ele>581.0</ele><time>2026-04-25T12:03:57.001Z</time></trkpt><trkpt lat="41.49542331300112" lon="14.839266921820915"><ele>580.0</ele><time>2026-04-25T12:03:58.001Z</time></trkpt><trkpt lat="41.49570283204733" lon="14.839445341629519"><ele>579.0</ele><time>2026-04-25T12:03:59.001Z</time></trkpt><trkpt lat="41.49597975888815" lon="14.839620563311403"><ele>579.0</ele><time>2026-04-25T12:04:00.001Z</time></trkpt><trkpt lat="41.49623885900852" lon="14.839780597466893"><ele>579.0</ele><time>2026-04-25T12:04:01.001Z</time></trkpt><trkpt lat="41.4964975736684" lon="14.83992075013839"><ele>572.5</ele><time>2026-04-25T12:04:02.001Z</time></trkpt><trkpt lat="41.49676582200298" lon="14.840033851433148"><ele>566.0</ele><time>2026-04-25T12:04:03.001Z</time></trkpt><trkpt lat="41.49704714944116" lon="14.840109838401018"><ele>573.0</ele><time>2026-04-25T12:04:04.001Z</time></trkpt><trkpt lat="41.497337903708974" lon="14.84015229214901"><ele>580.0</ele><time>2026-04-25T12:04:05Z</time></trkpt><trkpt lat="41.49764080132372" lon="14.840160351226"><ele>578.0</ele><time>2026-04-25T12:04:06Z</time></trkpt><trkpt lat="41.49794783103454" lon="14.840135734346335"><ele>576.0</ele><time>2026-04-25T12:04:07Z</time></trkpt><trkpt lat="41.49823863535922" lon="14.84008405499718"><ele>569.5</ele><time>2026-04-25T12:04:08Z</time></trkpt><trkpt lat="41.49852315268756" lon="14.840063958238982"><ele>563.0</ele><time>2026-04-25T12:04:09Z</time></trkpt><trkpt lat="41.49879083157497" lon="14.840031949371161"><ele>560.0</ele><time>2026-04-25T12:04:10Z</time></trkpt><trkpt lat="41.49904705937741" lon="14.840008648692855"><ele>557.0</ele><time>2026-04-25T12:04:11Z</time></trkpt><trkpt lat="41.499286240215575" lon="14.840009136275844"><ele>557.0</ele><time>2026-04-25T12:04:12Z</time></trkpt><trkpt lat="41.49952080360512" lon="14.840030417246902"><ele>557.0</ele><time>2026-04-25T12:04:13Z</time></trkpt><trkpt lat="41.4997382724283" lon="14.840074363668347"><ele>559.0</ele><time>2026-04-25T12:04:14Z</time></trkpt><trkpt lat="41.499944246102714" lon="14.840133697328065"><ele>561.0</ele><time>2026-04-25T12:04:15Z</time></trkpt><trkpt lat="41.50014566280125" lon="14.840212639263102"><ele>563.0</ele><time>2026-04-25T12:04:16Z</time></trkpt><trkpt lat="41.50032842262559" lon="14.840298257176368"><ele>560.3333333333333</ele><time>2026-04-25T12:04:17Z</time></trkpt><trkpt lat="41.50049355441304" lon="14.840391036412909"><ele>557.6666666666666</ele><time>2026-04-25T12:04:18Z</time></trkpt><trkpt lat="41.50067578241317" lon="14.840493973394628"><ele>555.0</ele><time>2026-04-25T12:04:19Z</time></trkpt><trkpt lat="41.500863161617204" lon="14.840641486095096"><ele>555.0</ele><time>2026-04-25T12:04:20Z</time></trkpt><trkpt lat="41.50104190583261" lon="14.840797601567322"><ele>555.0</ele><time>2026-04-25T12:04:21Z</time></trkpt><trkpt lat="41.50122395906092" lon="14.840955074456877"><ele>555.0</ele><time>2026-04-25T12:04:22Z</time></trkpt><trkpt lat="41.50140670302453" lon="14.841105958052324"><ele>554.0</ele><time>2026-04-25T12:04:23Z</time></trkpt><trkpt lat="41.50159021543807" lon="14.841237803366443"><ele>553.0</ele><time>2026-04-25T12:04:24Z</time></trkpt><trkpt lat="41.501773704322716" lon="14.841338261982077"><ele>552.0</ele><time>2026-04-25T12:04:25Z</time></trkpt><trkpt lat="41.501973487325195" lon="14.841415334403475"><ele>546.6666666666666</ele><time>2026-04-25T12:04:26Z</time></trkpt><trkpt lat="41.50218296286615" lon="14.841470872589944"><ele>541.3333333333333</ele><time>2026-04-25T12:04:27Z</time></trkpt><trkpt lat="41.50239289737231" lon="14.841506093483725"><ele>536.0</ele><time>2026-04-25T12:04:28Z</time></trkpt><trkpt lat="41.50260527939394" lon="14.84151898910051"><ele>536.0</ele><time>2026-04-25T12:04:29Z</time></trkpt><trkpt lat="41.502825492363634" lon="14.841487901521216"><ele>536.0</ele><time>2026-04-25T12:04:30Z</time></trkpt><trkpt lat="41.50303850627413" lon="14.841431543913302"><ele>536.0</ele><time>2026-04-25T12:04:31Z</time></trkpt><trkpt lat="41.5032566283742" lon="14.841358504439508"><ele>526.0</ele><time>2026-04-25T12:04:32Z</time></trkpt><trkpt lat="41.503479135626556" lon="14.84128199184825"><ele>516.0</ele><time>2026-04-25T12:04:33Z</time></trkpt><trkpt lat="41.50370143443211" lon="14.841211262548477"><ele>508.0</ele><time>2026-04-25T12:04:34Z</time></trkpt><trkpt lat="41.50393041034007" lon="14.84113964133359"><ele>500.0</ele><time>2026-04-25T12:04:35Z</time></trkpt><trkpt lat="41.504156582183356" lon="14.84107422649506"><ele>500.0</ele><time>2026-04-25T12:04:36Z</time></trkpt><trkpt lat="41.50438341433363" lon="14.841010688523655"><ele>500.0</ele><time>2026-04-25T12:04:37Z</time></trkpt><trkpt lat="41.50460625625466" lon="14.840942104758609"><ele>510.0</ele><time>2026-04-25T12:04:38Z</time></trkpt><trkpt lat="41.504835577406205" lon="14.840874292688698"><ele>520.0</ele><time>2026-04-25T12:04:39Z</time></trkpt><trkpt lat="41.50506941579769" lon="14.840806831004459"><ele>520.0</ele><time>2026-04-25T12:04:40Z</time></trkpt><trkpt lat="41.50530893309957" lon="14.840731966852806"><ele>520.0</ele><time>2026-04-25T12:04:41Z</time></trkpt><trkpt lat="41.50555060344956" lon="14.840657509329725"><ele>519.5</ele><time>2026-04-25T12:04:42Z</time></trkpt><trkpt lat="41.50579756218535" lon="14.840578761313628"><ele>519.0</ele><time>2026-04-25T12:04:43Z</time></trkpt><trkpt lat="41.50604827588106" lon="14.84049241199897"><ele>514.0</ele><time>2026-04-25T12:04:44Z</time></trkpt><trkpt lat="41.506301465933" lon="14.8404331733921"><ele>509.0</ele><time>2026-04-25T12:04:45Z</time></trkpt><trkpt lat="41.506558610481626" lon="14.840335665901017"><ele>509.0</ele><time>2026-04-25T12:04:46Z</time></trkpt><trkpt lat="41.50682309460741" lon="14.840282303579794"><ele>509.0</ele><time>2026-04-25T12:04:47Z</time></trkpt><trkpt lat="41.507094894223314" lon="14.840231683527888"><ele>506.0</ele><time>2026-04-25T12:04:48Z</time></trkpt><trkpt lat="41.50737083034888" lon="14.840191275199304"><ele>503.0</ele><time>2026-04-25T12:04:49Z</time></trkpt><trkpt lat="41.50765640008319" lon="14.840216403410476"><ele>502.5</ele><time>2026-04-25T12:04:50Z</time></trkpt><trkpt lat="41.507932578810916" lon="14.840187551100724"><ele>502.0</ele><time>2026-04-25T12:04:51Z</time></trkpt><trkpt lat="41.50823006463437" lon="14.840411311268657"><ele>502.0</ele><time>2026-04-25T12:04:52Z</time></trkpt><trkpt lat="41.50852049529548" lon="14.840561388814303"><ele>502.0</ele><time>2026-04-25T12:04:53Z</time></trkpt><trkpt lat="41.50881934165786" lon="14.840724563060526"><ele>504.5</ele><time>2026-04-25T12:04:54Z</time></trkpt><trkpt lat="41.50913709798545" lon="14.840897576376335"><ele>507.0</ele><time>2026-04-25T12:04:55Z</time></trkpt><trkpt lat="41.509430579326086" lon="14.841068903306853"><ele>501.5</ele><time>2026-04-25T12:04:56Z</time></trkpt><trkpt lat="41.50978263848815" lon="14.841238623643594"><ele>496.0</ele><time>2026-04-25T12:04:57Z</time></trkpt><trkpt lat="41.51011261602058" lon="14.841384054783129"><ele>496.0</ele><time>2026-04-25T12:04:58Z</time></trkpt><trkpt lat="41.510430027986786" lon="14.841527159238586"><ele>496.0</ele><time>2026-04-25T12:04:59Z</time></trkpt><trkpt lat="41.51073757270514" lon="14.841677673735878"><ele>488.5</ele><time>2026-04-25T12:05:00Z</time></trkpt><trkpt lat="41.51102315170779" lon="14.841833395151536"><ele>481.0</ele><time>2026-04-25T12:05:01Z</time></trkpt><trkpt lat="41.51131693479333" lon="14.841975510592626"><ele>481.0</ele><time>2026-04-25T12:05:02Z</time></trkpt><trkpt lat="41.511582276648326" lon="14.842119305788406"><ele>481.0</ele><time>2026-04-25T12:05:02.999Z</time></trkpt><trkpt lat="41.51182907502352" lon="14.842290323532092"><ele>481.0</ele><time>2026-04-25T12:05:03.999Z</time></trkpt><trkpt lat="41.5120558253526" lon="14.842491703542473"><ele>481.0</ele><time>2026-04-25T12:05:04.999Z</time></trkpt><trkpt lat="41.51224804414349" lon="14.842728711468599"><ele>482.0</ele><time>2026-04-25T12:05:05.999Z</time></trkpt><trkpt lat="41.51241201727907" lon="14.843004210332543"><ele>483.0</ele><time>2026-04-25T12:05:06.999Z</time></trkpt><trkpt lat="41.5125467036024" lon="14.84331148939193"><ele>481.0</ele><time>2026-04-25T12:05:07.999Z</time></trkpt><trkpt lat="41.51266331475388" lon="14.8436397848585"><ele>479.0</ele><time>2026-04-25T12:05:08.999Z</time></trkpt><trkpt lat="41.51273820258679" lon="14.84398549253079"><ele>479.0</ele><time>2026-04-25T12:05:09.999Z</time></trkpt><trkpt lat="41.512773684072954" lon="14.844315233827565"><ele>479.0</ele><time>2026-04-25T12:05:10.999Z</time></trkpt><trkpt lat="41.51281979928903" lon="14.844621469662693"><ele>479.0</ele><time>2026-04-25T12:05:11.999Z</time></trkpt><trkpt lat="41.51290544492617" lon="14.844923460054739"><ele>479.0</ele><time>2026-04-25T12:05:12.999Z</time></trkpt><trkpt lat="41.51303147304393" lon="14.845215238737158"><ele>475.5</ele><time>2026-04-25T12:05:13.999Z</time></trkpt><trkpt lat="41.513190629250865" lon="14.845493196992818"><ele>472.0</ele><time>2026-04-25T12:05:14.999Z</time></trkpt><trkpt lat="41.51337855990212" lon="14.845750057051252"><ele>469.0</ele><time>2026-04-25T12:05:15.999Z</time></trkpt><trkpt lat="41.51358333572469" lon="14.845988189979225"><ele>466.0</ele><time>2026-04-25T12:05:16.999Z</time></trkpt><trkpt lat="41.5137915491526" lon="14.846218773018212"><ele>466.0</ele><time>2026-04-25T12:05:17.999Z</time></trkpt><trkpt lat="41.513994202168746" lon="14.846451904296362"><ele>466.0</ele><time>2026-04-25T12:05:18.999Z</time></trkpt><trkpt lat="41.51420508916718" lon="14.846700491899407"><ele>463.0</ele><time>2026-04-25T12:05:19.999Z</time></trkpt><trkpt lat="41.51441774822531" lon="14.846940071314243"><ele>460.0</ele><time>2026-04-25T12:05:20.999Z</time></trkpt><trkpt lat="41.51462173852422" lon="14.847164977745205"><ele>460.0</ele><time>2026-04-25T12:05:21.999Z</time></trkpt><trkpt lat="41.514838466409515" lon="14.847374737031043"><ele>460.0</ele><time>2026-04-25T12:05:22.999Z</time></trkpt><trkpt lat="41.51508264867047" lon="14.847557124252269"><ele>455.5</ele><time>2026-04-25T12:05:23.999Z</time></trkpt><trkpt lat="41.51533071738666" lon="14.847718903954732"><ele>451.0</ele><time>2026-04-25T12:05:24.999Z</time></trkpt><trkpt lat="41.51559650354401" lon="14.847874747452575"><ele>451.0</ele><time>2026-04-25T12:05:25.999Z</time></trkpt><trkpt lat="41.515866442799094" lon="14.84804936582866"><ele>451.0</ele><time>2026-04-25T12:05:26.999Z</time></trkpt><trkpt lat="41.51612634993595" lon="14.848246917725533"><ele>447.0</ele><time>2026-04-25T12:05:27.999Z</time></trkpt><trkpt lat="41.51638479813707" lon="14.848476621577866"><ele>443.0</ele><time>2026-04-25T12:05:28.999Z</time></trkpt><trkpt lat="41.51661947479859" lon="14.848694891839841"><ele>443.0</ele><time>2026-04-25T12:05:29.999Z</time></trkpt><trkpt lat="41.5168494676845" lon="14.848910466932832"><ele>443.0</ele><time>2026-04-25T12:05:30.999Z</time></trkpt><trkpt lat="41.517083129104" lon="14.849140821197325"><ele>441.0</ele><time>2026-04-25T12:05:31.999Z</time></trkpt><trkpt lat="41.517320889617416" lon="14.84938725235707"><ele>439.0</ele><time>2026-04-25T12:05:32.999Z</time></trkpt><trkpt lat="41.5175428919197" lon="14.849658314129046"><ele>439.0</ele><time>2026-04-25T12:05:33.999Z</time></trkpt><trkpt lat="41.517740768145" lon="14.849960175059511"><ele>439.0</ele><time>2026-04-25T12:05:34.999Z</time></trkpt><trkpt lat="41.5179168437267" lon="14.850236204526322"><ele>439.0</ele><time>2026-04-25T12:05:35.999Z</time></trkpt><trkpt lat="41.51808974257257" lon="14.850512463721415"><ele>439.0</ele><time>2026-04-25T12:05:36.999Z</time></trkpt><trkpt lat="41.5182545988936" lon="14.850767233822772"><ele>435.0</ele><time>2026-04-25T12:05:37.999Z</time></trkpt><trkpt lat="41.518410572333096" lon="14.851013740641879"><ele>431.0</ele><time>2026-04-25T12:05:38.999Z</time></trkpt><trkpt lat="41.5185512019873" lon="14.851250674452372"><ele>431.0</ele><time>2026-04-25T12:05:39.999Z</time></trkpt><trkpt lat="41.51868783284112" lon="14.851473233934533"><ele>431.0</ele><time>2026-04-25T12:05:40.999Z</time></trkpt><trkpt lat="41.51883964106625" lon="14.851667928202916"><ele>431.0</ele><time>2026-04-25T12:05:41.999Z</time></trkpt><trkpt lat="41.51901276793058" lon="14.85182550069779"><ele>429.3333333333333</ele><time>2026-04-25T12:05:42.999Z</time></trkpt><trkpt lat="41.51920708074781" lon="14.851935301273892"><ele>427.66666666666663</ele><time>2026-04-25T12:05:43.999Z</time></trkpt><trkpt lat="41.51940826050348" lon="14.851985446558482"><ele>426.0</ele><time>2026-04-25T12:05:44.999Z</time></trkpt><trkpt lat="41.51962302814104" lon="14.851981077447828"><ele>421.5</ele><time>2026-04-25T12:05:45.999Z</time></trkpt><trkpt lat="41.519846379618755" lon="14.851922374273581"><ele>417.0</ele><time>2026-04-25T12:05:46.999Z</time></trkpt><trkpt lat="41.520093971039515" lon="14.851825957971277"><ele>418.5</ele><time>2026-04-25T12:05:47.999Z</time></trkpt><trkpt lat="41.52036024249436" lon="14.851732860880475"><ele>420.0</ele><time>2026-04-25T12:05:48.999Z</time></trkpt><trkpt lat="41.52061285105321" lon="14.85165017489028"><ele>420.0</ele><time>2026-04-25T12:05:49.999Z</time></trkpt><trkpt lat="41.52084421748816" lon="14.851573322318588"><ele>420.0</ele><time>2026-04-25T12:05:50.999Z</time></trkpt><trkpt lat="41.52105797907294" lon="14.85148062759395"><ele>419.0</ele><time>2026-04-25T12:05:51.999Z</time></trkpt><trkpt lat="41.52127250431024" lon="14.851408464234614"><ele>418.0</ele><time>2026-04-25T12:05:52.999Z</time></trkpt><trkpt lat="41.52148480634049" lon="14.85135854310043"><ele>417.0</ele><time>2026-04-25T12:05:53.999Z</time></trkpt><trkpt lat="41.521694733897036" lon="14.851341822551797"><ele>417.0</ele><time>2026-04-25T12:05:54.999Z</time></trkpt><trkpt lat="41.521914790671794" lon="14.851366320273094"><ele>417.0</ele><time>2026-04-25T12:05:55.999Z</time></trkpt><trkpt lat="41.5221282721696" lon="14.85146179812079"><ele>417.0</ele><time>2026-04-25T12:05:56.999Z</time></trkpt><trkpt lat="41.522294824120564" lon="14.851634835354684"><ele>416.33333333333337</ele><time>2026-04-25T12:05:57.999Z</time></trkpt><trkpt lat="41.52245884915909" lon="14.851811149316655"><ele>415.6666666666667</ele><time>2026-04-25T12:05:58.999Z</time></trkpt><trkpt lat="41.52258696568761" lon="14.852064345278285"><ele>415.0</ele><time>2026-04-25T12:06:00Z</time></trkpt><trkpt lat="41.5227140740277" lon="14.852343363396141"><ele>415.5</ele><time>2026-04-25T12:06:01Z</time></trkpt><trkpt lat="41.52284592054594" lon="14.852641437612357"><ele>416.0</ele><time>2026-04-25T12:06:02Z</time></trkpt><trkpt lat="41.52298615547587" lon="14.852960237085549"><ele>416.0</ele><time>2026-04-25T12:06:03Z</time></trkpt><trkpt lat="41.52314354443073" lon="14.853295396363265"><ele>416.0</ele><time>2026-04-25T12:06:04Z</time></trkpt><trkpt lat="41.523292389358694" lon="14.853650841286246"><ele>413.0</ele><time>2026-04-25T12:06:05Z</time></trkpt><trkpt lat="41.52344013643632" lon="14.853994469835904"><ele>410.0</ele><time>2026-04-25T12:06:06Z</time></trkpt><trkpt lat="41.52358237057405" lon="14.854304841331661"><ele>411.5</ele><time>2026-04-25T12:06:07Z</time></trkpt><trkpt lat="41.52371025809569" lon="14.854597874941913"><ele>413.0</ele><time>2026-04-25T12:06:08Z</time></trkpt><trkpt lat="41.523833044178396" lon="14.854889192559636"><ele>410.5</ele><time>2026-04-25T12:06:09Z</time></trkpt><trkpt lat="41.52396056864229" lon="14.855175519929453"><ele>408.0</ele><time>2026-04-25T12:06:10Z</time></trkpt><trkpt lat="41.52409285633616" lon="14.855460748543539"><ele>408.0</ele><time>2026-04-25T12:06:11Z</time></trkpt><trkpt lat="41.52422474189063" lon="14.855746992977723"><ele>408.0</ele><time>2026-04-25T12:06:12Z</time></trkpt><trkpt lat="41.524358639657734" lon="14.856045751491427"><ele>406.0</ele><time>2026-04-25T12:06:13Z</time></trkpt><trkpt lat="41.524493525087856" lon="14.856341978036669"><ele>404.0</ele><time>2026-04-25T12:06:14Z</time></trkpt><trkpt lat="41.524629112023135" lon="14.856661725255718"><ele>402.5</ele><time>2026-04-25T12:06:15Z</time></trkpt><trkpt lat="41.52476088058646" lon="14.856962159394133"><ele>401.0</ele><time>2026-04-25T12:06:16Z</time></trkpt><trkpt lat="41.52488569851241" lon="14.857234647872707"><ele>401.0</ele><time>2026-04-25T12:06:17Z</time></trkpt><trkpt lat="41.52500779869533" lon="14.857497357877344"><ele>401.0</ele><time>2026-04-25T12:06:18Z</time></trkpt><trkpt lat="41.525123246017664" lon="14.857770078532612"><ele>400.0</ele><time>2026-04-25T12:06:19Z</time></trkpt><trkpt lat="41.5252107978436" lon="14.8580772719234"><ele>399.0</ele><time>2026-04-25T12:06:20Z</time></trkpt><trkpt lat="41.525268513778364" lon="14.858409011744852"><ele>397.0</ele><time>2026-04-25T12:06:21Z</time></trkpt><trkpt lat="41.52528806234684" lon="14.858748922462196"><ele>395.0</ele><time>2026-04-25T12:06:22Z</time></trkpt><trkpt lat="41.525268381680746" lon="14.859092828270981"><ele>396.0</ele><time>2026-04-25T12:06:23Z</time></trkpt><trkpt lat="41.52520257272" lon="14.859398284387836"><ele>397.0</ele><time>2026-04-25T12:06:24Z</time></trkpt><trkpt lat="41.52511611868921" lon="14.859734639384692"><ele>397.0</ele><time>2026-04-25T12:06:25Z</time></trkpt><trkpt lat="41.52498522740601" lon="14.860039736738928"><ele>397.0</ele><time>2026-04-25T12:06:26Z</time></trkpt><trkpt lat="41.52482444650336" lon="14.860341898442334"><ele>400.0</ele><time>2026-04-25T12:06:27Z</time></trkpt><trkpt lat="41.524670791916314" lon="14.860625943032085"><ele>403.0</ele><time>2026-04-25T12:06:28Z</time></trkpt><trkpt lat="41.52452957367821" lon="14.860880104288993"><ele>392.0</ele><time>2026-04-25T12:06:29Z</time></trkpt><trkpt lat="41.52440608758775" lon="14.861136958175079"><ele>381.0</ele><time>2026-04-25T12:06:30Z</time></trkpt><trkpt lat="41.52429951592061" lon="14.861414589004731"><ele>381.0</ele><time>2026-04-25T12:06:31Z</time></trkpt><trkpt lat="41.524234768091816" lon="14.86170793292269"><ele>381.0</ele><time>2026-04-25T12:06:32Z</time></trkpt><trkpt lat="41.52420487783503" lon="14.862012757968131"><ele>378.5</ele><time>2026-04-25T12:06:33Z</time></trkpt><trkpt lat="41.5242132506743" lon="14.86234556882445"><ele>376.0</ele><time>2026-04-25T12:06:34Z</time></trkpt><trkpt lat="41.52426330491416" lon="14.862697761260971"><ele>371.5</ele><time>2026-04-25T12:06:35Z</time></trkpt><trkpt lat="41.52433460392268" lon="14.863077307701346"><ele>367.0</ele><time>2026-04-25T12:06:36Z</time></trkpt><trkpt lat="41.52439632061297" lon="14.863433346123443"><ele>362.5</ele><time>2026-04-25T12:06:37Z</time></trkpt><trkpt lat="41.524456947382966" lon="14.863766781624008"><ele>358.0</ele><time>2026-04-25T12:06:38Z</time></trkpt><trkpt lat="41.52452349981947" lon="14.864092971178346"><ele>362.5</ele><time>2026-04-25T12:06:39Z</time></trkpt><trkpt lat="41.524616438136874" lon="14.864415689898314"><ele>367.0</ele><time>2026-04-25T12:06:40Z</time></trkpt><trkpt lat="41.524749835660174" lon="14.86471446661404"><ele>367.0</ele><time>2026-04-25T12:06:41Z</time></trkpt><trkpt lat="41.52492117623907" lon="14.865005148226505"><ele>367.0</ele><time>2026-04-25T12:06:42Z</time></trkpt><trkpt lat="41.52512362887893" lon="14.865282196255137"><ele>363.0</ele><time>2026-04-25T12:06:43Z</time></trkpt><trkpt lat="41.52533763787094" lon="14.865546135930943"><ele>359.0</ele><time>2026-04-25T12:06:44Z</time></trkpt><trkpt lat="41.525525274439296" lon="14.865811320433558"><ele>356.0</ele><time>2026-04-25T12:06:45Z</time></trkpt><trkpt lat="41.525690903377274" lon="14.86609736047814"><ele>353.0</ele><time>2026-04-25T12:06:46Z</time></trkpt><trkpt lat="41.52583451256956" lon="14.866418287558828"><ele>353.0</ele><time>2026-04-25T12:06:47Z</time></trkpt><trkpt lat="41.52594586503892" lon="14.866773574005315"><ele>353.0</ele><time>2026-04-25T12:06:48Z</time></trkpt><trkpt lat="41.52604639210104" lon="14.86715185308706"><ele>350.0</ele><time>2026-04-25T12:06:49Z</time></trkpt><trkpt lat="41.526147582972825" lon="14.867536393196861"><ele>347.0</ele><time>2026-04-25T12:06:50Z</time></trkpt><trkpt lat="41.526253024985785" lon="14.867922228020424"><ele>347.0</ele><time>2026-04-25T12:06:51Z</time></trkpt><trkpt lat="41.52636303783514" lon="14.868302990328896"><ele>347.0</ele><time>2026-04-25T12:06:52Z</time></trkpt><trkpt lat="41.52648162560796" lon="14.868686214889243"><ele>353.0</ele><time>2026-04-25T12:06:53Z</time></trkpt><trkpt lat="41.526591820933916" lon="14.869070003506435"><ele>359.0</ele><time>2026-04-25T12:06:54Z</time></trkpt><trkpt lat="41.52670243768373" lon="14.869456382920688"><ele>360.0</ele><time>2026-04-25T12:06:55Z</time></trkpt><trkpt lat="41.52681665588509" lon="14.86984899327564"><ele>361.0</ele><time>2026-04-25T12:06:56.022Z</time></trkpt><trkpt lat="41.52692966002891" lon="14.870234859373038"><ele>350.5</ele><time>2026-04-25T12:06:57.021Z</time></trkpt><trkpt lat="41.527042432352644" lon="14.870616828226012"><ele>340.0</ele><time>2026-04-25T12:06:58.021Z</time></trkpt><trkpt lat="41.527137975964344" lon="14.870999554037617"><ele>333.5</ele><time>2026-04-25T12:06:59.021Z</time></trkpt><trkpt lat="41.52724644058478" lon="14.87137985538305"><ele>327.0</ele><time>2026-04-25T12:07:00Z</time></trkpt><trkpt lat="41.52737418754196" lon="14.871835560296294"><ele>326.0</ele><time>2026-04-25T12:07:01Z</time></trkpt><trkpt lat="41.52748651914797" lon="14.872230663454115"><ele>325.0</ele><time>2026-04-25T12:07:02Z</time></trkpt><trkpt lat="41.52760321013576" lon="14.872627094598089"><ele>328.0</ele><time>2026-04-25T12:07:02.999Z</time></trkpt><trkpt lat="41.527712907916516" lon="14.873006257462311"><ele>331.0</ele><time>2026-04-25T12:07:03.999Z</time></trkpt><trkpt lat="41.52782043912547" lon="14.87337248172063"><ele>327.5</ele><time>2026-04-25T12:07:04.999Z</time></trkpt><trkpt lat="41.527924790924814" lon="14.873732251947514"><ele>324.0</ele><time>2026-04-25T12:07:05.999Z</time></trkpt><trkpt lat="41.528020210593596" lon="14.874082674791167"><ele>318.0</ele><time>2026-04-25T12:07:06.999Z</time></trkpt><trkpt lat="41.528117085311536" lon="14.874416252037742"><ele>312.0</ele><time>2026-04-25T12:07:07.999Z</time></trkpt><trkpt lat="41.528235604068605" lon="14.874873035466928"><ele>308.0</ele><time>2026-04-25T12:07:08.999Z</time></trkpt><trkpt lat="41.52834730147711" lon="14.875203713094944"><ele>304.0</ele><time>2026-04-25T12:07:09.999Z</time></trkpt><trkpt lat="41.52848145718128" lon="14.875527127297001"><ele>304.0</ele><time>2026-04-25T12:07:10.999Z</time></trkpt><trkpt lat="41.52866101391959" lon="14.875847402328297"><ele>304.0</ele><time>2026-04-25T12:07:11.999Z</time></trkpt><trkpt lat="41.52885340516198" lon="14.876165330003682"><ele>303.0</ele><time>2026-04-25T12:07:12.999Z</time></trkpt><trkpt lat="41.529051533347534" lon="14.876488144150919"><ele>302.0</ele><time>2026-04-25T12:07:13.999Z</time></trkpt><trkpt lat="41.52924943450265" lon="14.876812134789013"><ele>300.5</ele><time>2026-04-25T12:07:14.999Z</time></trkpt><trkpt lat="41.52944840884651" lon="14.877149348731479"><ele>299.0</ele><time>2026-04-25T12:07:15.999Z</time></trkpt><trkpt lat="41.5296376609714" lon="14.877468766837174"><ele>303.5</ele><time>2026-04-25T12:07:16.999Z</time></trkpt><trkpt lat="41.52981792801856" lon="14.87778341882482"><ele>308.0</ele><time>2026-04-25T12:07:17.999Z</time></trkpt><trkpt lat="41.529979999548736" lon="14.878072341467321"><ele>308.0</ele><time>2026-04-25T12:07:18.999Z</time></trkpt><trkpt lat="41.53013122028154" lon="14.878340052909476"><ele>308.0</ele><time>2026-04-25T12:07:19.999Z</time></trkpt><trkpt lat="41.53027718819857" lon="14.878594850834322"><ele>304.5</ele><time>2026-04-25T12:07:21.02Z</time></trkpt><trkpt lat="41.53042319881335" lon="14.878858811842779"><ele>301.0</ele><time>2026-04-25T12:07:22.023Z</time></trkpt><trkpt lat="41.53056078052686" lon="14.879116009615586"><ele>296.5</ele><time>2026-04-25T12:07:23.016Z</time></trkpt><trkpt lat="41.53069983100847" lon="14.879378703423278"><ele>292.0</ele><time>2026-04-25T12:07:24.019Z</time></trkpt><trkpt lat="41.53082811718895" lon="14.879638959341166"><ele>285.0</ele><time>2026-04-25T12:07:24.999Z</time></trkpt><trkpt lat="41.53148735330196" lon="14.880355280138843"><ele>285.0</ele><time>2026-04-25T12:07:25.999Z</time></trkpt><trkpt lat="41.53168300478341" lon="14.880577561167286"><ele>285.0</ele><time>2026-04-25T12:07:26.999Z</time></trkpt><trkpt lat="41.531909668548764" lon="14.880756370530406"><ele>280.5</ele><time>2026-04-25T12:07:27.999Z</time></trkpt><trkpt lat="41.53216534580226" lon="14.8809124442567"><ele>276.0</ele><time>2026-04-25T12:07:28.999Z</time></trkpt><trkpt lat="41.53243066482862" lon="14.881034880609107"><ele>276.0</ele><time>2026-04-25T12:07:29.999Z</time></trkpt><trkpt lat="41.53271049329718" lon="14.881098395303695"><ele>276.0</ele><time>2026-04-25T12:07:30.999Z</time></trkpt><trkpt lat="41.53299538951834" lon="14.881125729672098"><ele>265.5</ele><time>2026-04-25T12:07:31.999Z</time></trkpt><trkpt lat="41.53326511115978" lon="14.881105624428482"><ele>255.0</ele><time>2026-04-25T12:07:32.999Z</time></trkpt><trkpt lat="41.53353278214605" lon="14.881054763606032"><ele>254.0</ele><time>2026-04-25T12:07:33.999Z</time></trkpt><trkpt lat="41.53380900876177" lon="14.880962476820715"><ele>253.0</ele><time>2026-04-25T12:07:34.999Z</time></trkpt><trkpt lat="41.53408206989926" lon="14.880837492704527"><ele>251.0</ele><time>2026-04-25T12:07:35.999Z</time></trkpt><trkpt lat="41.53435692892359" lon="14.880693484229552"><ele>249.0</ele><time>2026-04-25T12:07:36.999Z</time></trkpt><trkpt lat="41.534625499308405" lon="14.88054467702822"><ele>249.0</ele><time>2026-04-25T12:07:37.999Z</time></trkpt><trkpt lat="41.534883408274275" lon="14.880405264729403"><ele>249.0</ele><time>2026-04-25T12:07:38.999Z</time></trkpt><trkpt lat="41.53512098160889" lon="14.880251771321392"><ele>249.0</ele><time>2026-04-25T12:07:39.999Z</time></trkpt><trkpt lat="41.53536068726675" lon="14.880106746648012"><ele>249.0</ele><time>2026-04-25T12:07:40.999Z</time></trkpt><trkpt lat="41.53561562092991" lon="14.879974730240072"><ele>250.0</ele><time>2026-04-25T12:07:41.999Z</time></trkpt><trkpt lat="41.53587235846012" lon="14.879856720478012"><ele>251.0</ele><time>2026-04-25T12:07:42.999Z</time></trkpt><trkpt lat="41.536136828699966" lon="14.879761443276214"><ele>249.0</ele><time>2026-04-25T12:07:43.999Z</time></trkpt><trkpt lat="41.536401643422174" lon="14.879691923382365"><ele>247.0</ele><time>2026-04-25T12:07:44.999Z</time></trkpt><trkpt lat="41.536648637384765" lon="14.87964957676441"><ele>247.0</ele><time>2026-04-25T12:07:45.999Z</time></trkpt><trkpt lat="41.53688888443451" lon="14.879627161723395"><ele>247.0</ele><time>2026-04-25T12:07:46.999Z</time></trkpt><trkpt lat="41.53712210703564" lon="14.879624828599848"><ele>246.33333333333331</ele><time>2026-04-25T12:07:47.999Z</time></trkpt><trkpt lat="41.53733010410612" lon="14.879649108926882"><ele>245.66666666666669</ele><time>2026-04-25T12:07:48.999Z</time></trkpt><trkpt lat="41.537546606613546" lon="14.879637753859122"><ele>245.0</ele><time>2026-04-25T12:07:49.999Z</time></trkpt><trkpt lat="41.537737574591574" lon="14.879635548925712"><ele>242.66666666666669</ele><time>2026-04-25T12:07:50.999Z</time></trkpt><trkpt lat="41.53791793752581" lon="14.879630946399915"><ele>240.33333333333331</ele><time>2026-04-25T12:07:51.999Z</time></trkpt><trkpt lat="41.53808658780064" lon="14.879636586285669"><ele>238.0</ele><time>2026-04-25T12:07:52.999Z</time></trkpt><trkpt lat="41.53824541437634" lon="14.87965930411199"><ele>238.0</ele><time>2026-04-25T12:07:53.999Z</time></trkpt><trkpt lat="41.538388606926134" lon="14.879702026295858"><ele>238.0</ele><time>2026-04-25T12:07:54.999Z</time></trkpt><trkpt lat="41.53851504367831" lon="14.879769563076211"><ele>238.0</ele><time>2026-04-25T12:07:55.999Z</time></trkpt><trkpt lat="41.53861672336605" lon="14.87983335507234"><ele>238.0</ele><time>2026-04-25T12:07:56.999Z</time></trkpt><trkpt lat="41.53868567651981" lon="14.879895303332354"><ele>237.8</ele><time>2026-04-25T12:07:57.999Z</time></trkpt><trkpt lat="41.538722928079366" lon="14.879983458113449"><ele>237.60000000000002</ele><time>2026-04-25T12:07:58.999Z</time></trkpt><trkpt lat="41.53872169187916" lon="14.880106434111624"><ele>237.39999999999998</ele><time>2026-04-25T12:07:59.999Z</time></trkpt><trkpt lat="41.53867744629224" lon="14.880209941046454"><ele>237.2</ele><time>2026-04-25T12:08:00.999Z</time></trkpt><trkpt lat="41.5385919658137" lon="14.880270915328673"><ele>237.0</ele><time>2026-04-25T12:08:01.999Z</time></trkpt><trkpt lat="41.53847617562124" lon="14.880312218051484"><ele>236.25</ele><time>2026-04-25T12:08:02.999Z</time></trkpt><trkpt lat="41.53834910756776" lon="14.880353153619913"><ele>235.5</ele><time>2026-04-25T12:08:03.999Z</time></trkpt><trkpt lat="41.53821047774742" lon="14.880406509254788"><ele>234.75</ele><time>2026-04-25T12:08:04.999Z</time></trkpt><trkpt lat="41.53806597053426" lon="14.880467521934639"><ele>234.0</ele><time>2026-04-25T12:08:06Z</time></trkpt><trkpt lat="41.537921296180784" lon="14.880529321015876"><ele>234.0</ele><time>2026-04-25T12:08:07Z</time></trkpt><trkpt lat="41.537775124275726" lon="14.88058737410879"><ele>234.0</ele><time>2026-04-25T12:08:08Z</time></trkpt><trkpt lat="41.537633613786326" lon="14.880645668166515"><ele>234.0</ele><time>2026-04-25T12:08:09Z</time></trkpt><trkpt lat="41.537500726623094" lon="14.880714786449508"><ele>234.0</ele><time>2026-04-25T12:08:10Z</time></trkpt><trkpt lat="41.53737157649917" lon="14.88078706052504"><ele>234.0</ele><time>2026-04-25T12:08:11Z</time></trkpt><trkpt lat="41.537248781004465" lon="14.880867669462424"><ele>234.0</ele><time>2026-04-25T12:08:12Z</time></trkpt><trkpt lat="41.537135954902816" lon="14.881003170759449"><ele>234.0</ele><time>2026-04-25T12:08:13Z</time></trkpt><trkpt lat="41.53702973011264" lon="14.881127860340541"><ele>234.0</ele><time>2026-04-25T12:08:14Z</time></trkpt><trkpt lat="41.536945559022165" lon="14.881269379971426"><ele>232.5</ele><time>2026-04-25T12:08:15Z</time></trkpt><trkpt lat="41.53684490582226" lon="14.881407227514904"><ele>231.0</ele><time>2026-04-25T12:08:16Z</time></trkpt><trkpt lat="41.53674745898209" lon="14.881552689783902"><ele>229.5</ele><time>2026-04-25T12:08:17Z</time></trkpt><trkpt lat="41.53665071386254" lon="14.881702408509609"><ele>228.0</ele><time>2026-04-25T12:08:18Z</time></trkpt><trkpt lat="41.536546153205464" lon="14.881850640203472"><ele>228.0</ele><time>2026-04-25T12:08:19Z</time></trkpt><trkpt lat="41.53643995962861" lon="14.88200360095937"><ele>228.0</ele><time>2026-04-25T12:08:20Z</time></trkpt><trkpt lat="41.53633767472611" lon="14.882159220569635"><ele>228.0</ele><time>2026-04-25T12:08:21Z</time></trkpt><trkpt lat="41.53623091934764" lon="14.882298857666942"><ele>227.33333333333331</ele><time>2026-04-25T12:08:22Z</time></trkpt><trkpt lat="41.53612419433168" lon="14.882454581022026"><ele>226.66666666666666</ele><time>2026-04-25T12:08:23Z</time></trkpt><trkpt lat="41.536028301768184" lon="14.882620676938407"><ele>226.0</ele><time>2026-04-25T12:08:24Z</time></trkpt><trkpt lat="41.53591687711263" lon="14.882777471907543"><ele>226.0</ele><time>2026-04-25T12:08:25Z</time></trkpt><trkpt lat="41.53580618679172" lon="14.882932623282672"><ele>226.0</ele><time>2026-04-25T12:08:26Z</time></trkpt><trkpt lat="41.53569005776283" lon="14.883102679730035"><ele>226.0</ele><time>2026-04-25T12:08:27Z</time></trkpt><trkpt lat="41.535570626480535" lon="14.883272861459984"><ele>226.0</ele><time>2026-04-25T12:08:28Z</time></trkpt><trkpt lat="41.53544134637986" lon="14.883459860840162"><ele>226.0</ele><time>2026-04-25T12:08:29Z</time></trkpt><trkpt lat="41.53530398631291" lon="14.883661643609127"><ele>226.0</ele><time>2026-04-25T12:08:30Z</time></trkpt><trkpt lat="41.53515614179698" lon="14.883872262720715"><ele>226.0</ele><time>2026-04-25T12:08:31Z</time></trkpt><trkpt lat="41.535001017560134" lon="14.884098732973943"><ele>226.0</ele><time>2026-04-25T12:08:32Z</time></trkpt><trkpt lat="41.53484534043269" lon="14.884324050743146"><ele>225.5</ele><time>2026-04-25T12:08:33Z</time></trkpt><trkpt lat="41.534690693136156" lon="14.884545215246344"><ele>225.0</ele><time>2026-04-25T12:08:34Z</time></trkpt><trkpt lat="41.53453058897939" lon="14.884771189745399"><ele>225.0</ele><time>2026-04-25T12:08:35Z</time></trkpt><trkpt lat="41.53436591156677" lon="14.885005720837796"><ele>225.0</ele><time>2026-04-25T12:08:36Z</time></trkpt><trkpt lat="41.5342014976574" lon="14.885247909659821"><ele>225.0</ele><time>2026-04-25T12:08:37Z</time></trkpt><trkpt lat="41.53403206637687" lon="14.885495533397252"><ele>225.0</ele><time>2026-04-25T12:08:38Z</time></trkpt><trkpt lat="41.533852851028875" lon="14.885750554785849"><ele>224.5</ele><time>2026-04-25T12:08:39Z</time></trkpt><trkpt lat="41.533679402134126" lon="14.886020557276028"><ele>224.0</ele><time>2026-04-25T12:08:40Z</time></trkpt><trkpt lat="41.53349031469331" lon="14.886289176562219"><ele>224.0</ele><time>2026-04-25T12:08:41Z</time></trkpt><trkpt lat="41.53330948315548" lon="14.886568355633335"><ele>224.0</ele><time>2026-04-25T12:08:42Z</time></trkpt><trkpt lat="41.5331316922454" lon="14.886855338255604"><ele>224.0</ele><time>2026-04-25T12:08:43Z</time></trkpt><trkpt lat="41.53295763655406" lon="14.88714110692388"><ele>224.0</ele><time>2026-04-25T12:08:44Z</time></trkpt><trkpt lat="41.532789573982384" lon="14.887426923813178"><ele>222.5</ele><time>2026-04-25T12:08:45Z</time></trkpt><trkpt lat="41.53261969383404" lon="14.88771337877148"><ele>221.0</ele><time>2026-04-25T12:08:46Z</time></trkpt><trkpt lat="41.532446287543365" lon="14.888002464784543"><ele>221.0</ele><time>2026-04-25T12:08:47Z</time></trkpt><trkpt lat="41.53227484964228" lon="14.888290521292282"><ele>221.0</ele><time>2026-04-25T12:08:48Z</time></trkpt><trkpt lat="41.53210157889354" lon="14.888563827448358"><ele>221.5</ele><time>2026-04-25T12:08:49Z</time></trkpt><trkpt lat="41.531932741816" lon="14.888853561227524"><ele>222.0</ele><time>2026-04-25T12:08:50Z</time></trkpt><trkpt lat="41.53176867626156" lon="14.889143558376134"><ele>222.0</ele><time>2026-04-25T12:08:50.999Z</time></trkpt><trkpt lat="41.53159629569061" lon="14.889435662405678"><ele>222.0</ele><time>2026-04-25T12:08:51.999Z</time></trkpt><trkpt lat="41.531422677864605" lon="14.88972493338992"><ele>222.0</ele><time>2026-04-25T12:08:52.999Z</time></trkpt><trkpt lat="41.53125278900264" lon="14.89001448620036"><ele>222.0</ele><time>2026-04-25T12:08:53.999Z</time></trkpt><trkpt lat="41.53108609900406" lon="14.890308932640894"><ele>223.0</ele><time>2026-04-25T12:08:54.999Z</time></trkpt><trkpt lat="41.53092059522111" lon="14.890600703351573"><ele>224.0</ele><time>2026-04-25T12:08:55.999Z</time></trkpt><trkpt lat="41.53075427614342" lon="14.890890536791778"><ele>222.0</ele><time>2026-04-25T12:08:56.999Z</time></trkpt><trkpt lat="41.530592408955634" lon="14.891185863541127"><ele>220.0</ele><time>2026-04-25T12:08:57.999Z</time></trkpt><trkpt lat="41.530443355247456" lon="14.891496732231406"><ele>220.0</ele><time>2026-04-25T12:08:58.999Z</time></trkpt><trkpt lat="41.53031062996919" lon="14.891825204302371"><ele>220.0</ele><time>2026-04-25T12:08:59.999Z</time></trkpt><trkpt lat="41.53019574218656" lon="14.892165446685427"><ele>220.0</ele><time>2026-04-25T12:09:00.999Z</time></trkpt><trkpt lat="41.53010154910377" lon="14.892519258205926"><ele>220.0</ele><time>2026-04-25T12:09:01.999Z</time></trkpt><trkpt lat="41.530019520794596" lon="14.892878503785894"><ele>219.5</ele><time>2026-04-25T12:09:02.999Z</time></trkpt><trkpt lat="41.52993881382767" lon="14.893242238472766"><ele>219.0</ele><time>2026-04-25T12:09:03.999Z</time></trkpt><trkpt lat="41.52985483326919" lon="14.893604513298271"><ele>218.0</ele><time>2026-04-25T12:09:04.999Z</time></trkpt><trkpt lat="41.529764842105706" lon="14.89397144036592"><ele>217.0</ele><time>2026-04-25T12:09:05.999Z</time></trkpt><trkpt lat="41.5296698091326" lon="14.894341988079585"><ele>216.5</ele><time>2026-04-25T12:09:06.999Z</time></trkpt><trkpt lat="41.52957381999211" lon="14.89471169362313"><ele>216.0</ele><time>2026-04-25T12:09:07.999Z</time></trkpt><trkpt lat="41.52947330474321" lon="14.895076893132805"><ele>224.5</ele><time>2026-04-25T12:09:08.999Z</time></trkpt><trkpt lat="41.52937679395995" lon="14.895440518786396"><ele>233.0</ele><time>2026-04-25T12:09:09.999Z</time></trkpt><trkpt lat="41.52927602736606" lon="14.895806859124963"><ele>227.5</ele><time>2026-04-25T12:09:10.999Z</time></trkpt><trkpt lat="41.52917995672204" lon="14.896171883034295"><ele>222.0</ele><time>2026-04-25T12:09:11.999Z</time></trkpt><trkpt lat="41.5290755072515" lon="14.8965223878101"><ele>219.5</ele><time>2026-04-25T12:09:12.999Z</time></trkpt><trkpt lat="41.528964618528796" lon="14.896890136995156"><ele>217.0</ele><time>2026-04-25T12:09:13.999Z</time></trkpt><trkpt lat="41.52885316162034" lon="14.897205781557926"><ele>216.0</ele><time>2026-04-25T12:09:14.999Z</time></trkpt><trkpt lat="41.528729182874756" lon="14.897591723481526"><ele>215.0</ele><time>2026-04-25T12:09:15.999Z</time></trkpt><trkpt lat="41.52861488777313" lon="14.897953583521069"><ele>216.0</ele><time>2026-04-25T12:09:16.999Z</time></trkpt><trkpt lat="41.528518787960344" lon="14.898289776164514"><ele>217.0</ele><time>2026-04-25T12:09:17.999Z</time></trkpt><trkpt lat="41.528452603120826" lon="14.898660010934604"><ele>217.0</ele><time>2026-04-25T12:09:18.999Z</time></trkpt><trkpt lat="41.528412947787196" lon="14.899036807340558"><ele>217.0</ele><time>2026-04-25T12:09:19.999Z</time></trkpt><trkpt lat="41.528381638123555" lon="14.899412917959843"><ele>217.0</ele><time>2026-04-25T12:09:20.999Z</time></trkpt><trkpt lat="41.5283462574572" lon="14.899796354238031"><ele>217.0</ele><time>2026-04-25T12:09:21.999Z</time></trkpt><trkpt lat="41.52831151294002" lon="14.900174072364788"><ele>217.0</ele><time>2026-04-25T12:09:22.999Z</time></trkpt><trkpt lat="41.52827286091474" lon="14.900566906600126"><ele>217.0</ele><time>2026-04-25T12:09:23.999Z</time></trkpt><trkpt lat="41.5282262175335" lon="14.900956478004508"><ele>217.0</ele><time>2026-04-25T12:09:24.999Z</time></trkpt><trkpt lat="41.52818210411477" lon="14.901349466664104"><ele>217.0</ele><time>2026-04-25T12:09:25.999Z</time></trkpt><trkpt lat="41.52814665965076" lon="14.901721622519275"><ele>216.5</ele><time>2026-04-25T12:09:26.999Z</time></trkpt><trkpt lat="41.52811597397645" lon="14.902069386505456"><ele>216.0</ele><time>2026-04-25T12:09:27.999Z</time></trkpt><trkpt lat="41.52807833797981" lon="14.902425072902181"><ele>216.0</ele><time>2026-04-25T12:09:28.999Z</time></trkpt><trkpt lat="41.528039648892474" lon="14.90276395192555"><ele>216.0</ele><time>2026-04-25T12:09:29.999Z</time></trkpt><trkpt lat="41.52798913344261" lon="14.903075255042518"><ele>216.0</ele><time>2026-04-25T12:09:30.999Z</time></trkpt><trkpt lat="41.5279082534661" lon="14.903371579367422"><ele>216.0</ele><time>2026-04-25T12:09:31.999Z</time></trkpt><trkpt lat="41.52778188082226" lon="14.903658345673035"><ele>215.0</ele><time>2026-04-25T12:09:32.999Z</time></trkpt><trkpt lat="41.5276119284273" lon="14.903933102599048"><ele>214.0</ele><time>2026-04-25T12:09:33.999Z</time></trkpt><trkpt lat="41.527395851584565" lon="14.90417911075273"><ele>213.5</ele><time>2026-04-25T12:09:34.999Z</time></trkpt><trkpt lat="41.52714855411322" lon="14.904423707639035"><ele>213.0</ele><time>2026-04-25T12:09:35.999Z</time></trkpt><trkpt lat="41.526894170860075" lon="14.904669672315347"><ele>212.5</ele><time>2026-04-25T12:09:36.999Z</time></trkpt><trkpt lat="41.52666125745607" lon="14.904924821038042"><ele>212.0</ele><time>2026-04-25T12:09:37.999Z</time></trkpt><trkpt lat="41.52642948283257" lon="14.90517215668101"><ele>211.0</ele><time>2026-04-25T12:09:38.999Z</time></trkpt><trkpt lat="41.526201634102776" lon="14.905415916775766"><ele>210.0</ele><time>2026-04-25T12:09:39.999Z</time></trkpt><trkpt lat="41.52598109472608" lon="14.905656777495961"><ele>210.0</ele><time>2026-04-25T12:09:40.999Z</time></trkpt><trkpt lat="41.52577080775421" lon="14.905889707718192"><ele>210.0</ele><time>2026-04-25T12:09:41.999Z</time></trkpt><trkpt lat="41.525589413318" lon="14.90611776017007"><ele>210.0</ele><time>2026-04-25T12:09:42.999Z</time></trkpt><trkpt lat="41.52543622974294" lon="14.906386782766115"><ele>210.0</ele><time>2026-04-25T12:09:43.999Z</time></trkpt><trkpt lat="41.525317838553974" lon="14.90669862118236"><ele>211.0</ele><time>2026-04-25T12:09:44.999Z</time></trkpt><trkpt lat="41.525240256649305" lon="14.907039628715404"><ele>212.0</ele><time>2026-04-25T12:09:45.999Z</time></trkpt><trkpt lat="41.525206992450975" lon="14.907407387484756"><ele>213.5</ele><time>2026-04-25T12:09:46.999Z</time></trkpt><trkpt lat="41.525212113849754" lon="14.907782762404953"><ele>215.0</ele><time>2026-04-25T12:09:47.999Z</time></trkpt><trkpt lat="41.52525268187761" lon="14.908174906081186"><ele>215.0</ele><time>2026-04-25T12:09:48.999Z</time></trkpt><trkpt lat="41.52529149397075" lon="14.908573052026172"><ele>215.0</ele><time>2026-04-25T12:09:49.999Z</time></trkpt><trkpt lat="41.525318998915004" lon="14.908976598799233"><ele>217.5</ele><time>2026-04-25T12:09:50.999Z</time></trkpt><trkpt lat="41.525345275316255" lon="14.909387981831337"><ele>220.0</ele><time>2026-04-25T12:09:51.999Z</time></trkpt><trkpt lat="41.525370472170806" lon="14.90979956993905"><ele>220.5</ele><time>2026-04-25T12:09:52.999Z</time></trkpt><trkpt lat="41.5253918167329" lon="14.910185365648625"><ele>221.0</ele><time>2026-04-25T12:09:53.999Z</time></trkpt><trkpt lat="41.525410494904456" lon="14.910553473671786"><ele>216.5</ele><time>2026-04-25T12:09:54.999Z</time></trkpt><trkpt lat="41.525435513264945" lon="14.910900521467363"><ele>212.0</ele><time>2026-04-25T12:09:55.999Z</time></trkpt><trkpt lat="41.52546653243667" lon="14.911232663837097"><ele>212.0</ele><time>2026-04-25T12:09:56.999Z</time></trkpt><trkpt lat="41.52552524410004" lon="14.911559348094984"><ele>212.0</ele><time>2026-04-25T12:09:57.999Z</time></trkpt><trkpt lat="41.52562350005993" lon="14.911856786806169"><ele>213.5</ele><time>2026-04-25T12:09:58.999Z</time></trkpt><trkpt lat="41.525755003043855" lon="14.91212474704472"><ele>215.0</ele><time>2026-04-25T12:09:59.999Z</time></trkpt><trkpt lat="41.525929598152956" lon="14.912370393258497"><ele>214.0</ele><time>2026-04-25T12:10:00.999Z</time></trkpt><trkpt lat="41.526128598114816" lon="14.912590415166337"><ele>213.0</ele><time>2026-04-25T12:10:01.999Z</time></trkpt><trkpt lat="41.526323630877094" lon="14.91280131562657"><ele>213.0</ele><time>2026-04-25T12:10:02.999Z</time></trkpt><trkpt lat="41.52650453081997" lon="14.913034595646584"><ele>213.0</ele><time>2026-04-25T12:10:03.998Z</time></trkpt><trkpt lat="41.52665312974342" lon="14.913314975515245"><ele>214.0</ele><time>2026-04-25T12:10:04.998Z</time></trkpt><trkpt lat="41.52676754126979" lon="14.913633191280235"><ele>215.0</ele><time>2026-04-25T12:10:05.998Z</time></trkpt><trkpt lat="41.52685258149474" lon="14.91395302626829"><ele>215.33333333333334</ele><time>2026-04-25T12:10:06.998Z</time></trkpt><trkpt lat="41.526886888011774" lon="14.914252220888207"><ele>215.66666666666669</ele><time>2026-04-25T12:10:07.998Z</time></trkpt><trkpt lat="41.526899550555314" lon="14.914547284281515"><ele>216.0</ele><time>2026-04-25T12:10:08.998Z</time></trkpt><trkpt lat="41.5268954731529" lon="14.914817072746098"><ele>216.0</ele><time>2026-04-25T12:10:09.998Z</time></trkpt><trkpt lat="41.52687074397632" lon="14.915059587408479"><ele>216.0</ele><time>2026-04-25T12:10:10.998Z</time></trkpt><trkpt lat="41.52682502081797" lon="14.915299229687811"><ele>216.0</ele><time>2026-04-25T12:10:12Z</time></trkpt><trkpt lat="41.52676969213253" lon="14.915570550295064"><ele>213.5</ele><time>2026-04-25T12:10:13Z</time></trkpt><trkpt lat="41.52670081731718" lon="14.915877907813744"><ele>211.0</ele><time>2026-04-25T12:10:14Z</time></trkpt><trkpt lat="41.526604094280586" lon="14.916199056348754"><ele>209.0</ele><time>2026-04-25T12:10:15Z</time></trkpt><trkpt lat="41.52648955075902" lon="14.916520653737983"><ele>207.0</ele><time>2026-04-25T12:10:16Z</time></trkpt><trkpt lat="41.52639017473629" lon="14.916876959887423"><ele>206.0</ele><time>2026-04-25T12:10:17Z</time></trkpt><trkpt lat="41.526274237537656" lon="14.917223762799287"><ele>205.0</ele><time>2026-04-25T12:10:18Z</time></trkpt><trkpt lat="41.52612194764655" lon="14.917586484035365"><ele>207.5</ele><time>2026-04-25T12:10:19Z</time></trkpt><trkpt lat="41.525946076854254" lon="14.917953961088317"><ele>210.0</ele><time>2026-04-25T12:10:20Z</time></trkpt><trkpt lat="41.52574793858138" lon="14.918316500024075"><ele>207.0</ele><time>2026-04-25T12:10:21Z</time></trkpt><trkpt lat="41.52554264298363" lon="14.918698198786585"><ele>204.0</ele><time>2026-04-25T12:10:22Z</time></trkpt><trkpt lat="41.52534422875636" lon="14.919060476558057"><ele>206.5</ele><time>2026-04-25T12:10:23Z</time></trkpt><trkpt lat="41.525170207476386" lon="14.91939677103473"><ele>209.0</ele><time>2026-04-25T12:10:24Z</time></trkpt><trkpt lat="41.5250118036503" lon="14.919715691486768"><ele>209.0</ele><time>2026-04-25T12:10:25Z</time></trkpt><trkpt lat="41.52486608633652" lon="14.920029563948942"><ele>209.0</ele><time>2026-04-25T12:10:26Z</time></trkpt><trkpt lat="41.524737977899555" lon="14.920351628749112"><ele>207.5</ele><time>2026-04-25T12:10:27Z</time></trkpt><trkpt lat="41.524619393687885" lon="14.920687070300259"><ele>206.0</ele><time>2026-04-25T12:10:28Z</time></trkpt><trkpt lat="41.52451174185736" lon="14.921029175426847"><ele>206.0</ele><time>2026-04-25T12:10:29Z</time></trkpt><trkpt lat="41.52440611350507" lon="14.921375566129457"><ele>206.0</ele><time>2026-04-25T12:10:30Z</time></trkpt><trkpt lat="41.524278670740124" lon="14.921704827670142"><ele>203.5</ele><time>2026-04-25T12:10:31Z</time></trkpt><trkpt lat="41.52416415690887" lon="14.922044463791993"><ele>201.0</ele><time>2026-04-25T12:10:32Z</time></trkpt><trkpt lat="41.524055542945376" lon="14.922387633856854"><ele>200.5</ele><time>2026-04-25T12:10:33Z</time></trkpt><trkpt lat="41.52393190125797" lon="14.922721331112275"><ele>200.0</ele><time>2026-04-25T12:10:34Z</time></trkpt><trkpt lat="41.523805251799104" lon="14.923066612364371"><ele>200.0</ele><time>2026-04-25T12:10:35Z</time></trkpt><trkpt lat="41.523739980336686" lon="14.923423679840578"><ele>200.0</ele><time>2026-04-25T12:10:36Z</time></trkpt><trkpt lat="41.5237044026028" lon="14.923800093738446"><ele>205.0</ele><time>2026-04-25T12:10:37Z</time></trkpt><trkpt lat="41.523698799059254" lon="14.92419074650604"><ele>210.0</ele><time>2026-04-25T12:10:38Z</time></trkpt><trkpt lat="41.52370612554449" lon="14.924590508580248"><ele>210.0</ele><time>2026-04-25T12:10:39Z</time></trkpt><trkpt lat="41.523717105817" lon="14.925005520141006"><ele>210.0</ele><time>2026-04-25T12:10:40Z</time></trkpt><trkpt lat="41.52372168960765" lon="14.925416942464626"><ele>210.5</ele><time>2026-04-25T12:10:41Z</time></trkpt><trkpt lat="41.52372099699518" lon="14.92582022263366"><ele>211.0</ele><time>2026-04-25T12:10:42Z</time></trkpt><trkpt lat="41.523719353568325" lon="14.926222688161742"><ele>211.0</ele><time>2026-04-25T12:10:43Z</time></trkpt><trkpt lat="41.52372000243682" lon="14.926621900644381"><ele>211.0</ele><time>2026-04-25T12:10:44Z</time></trkpt><trkpt lat="41.52371886241538" lon="14.92701279725784"><ele>211.0</ele><time>2026-04-25T12:10:45Z</time></trkpt><trkpt lat="41.52372012844939" lon="14.927406982224454"><ele>211.0</ele><time>2026-04-25T12:10:46Z</time></trkpt><trkpt lat="41.52372163164403" lon="14.927793504909971"><ele>210.5</ele><time>2026-04-25T12:10:47Z</time></trkpt><trkpt lat="41.523725345765875" lon="14.928172704731873"><ele>210.0</ele><time>2026-04-25T12:10:48Z</time></trkpt><trkpt lat="41.52373215185645" lon="14.928557483410557"><ele>206.0</ele><time>2026-04-25T12:10:48.999Z</time></trkpt><trkpt lat="41.523750931320244" lon="14.92893847867483"><ele>202.0</ele><time>2026-04-25T12:10:49.999Z</time></trkpt><trkpt lat="41.523798313931756" lon="14.92931285089701"><ele>202.0</ele><time>2026-04-25T12:10:50.999Z</time></trkpt><trkpt lat="41.52386792623638" lon="14.929690054579167"><ele>202.0</ele><time>2026-04-25T12:10:51.999Z</time></trkpt><trkpt lat="41.52395823494214" lon="14.93006289853335"><ele>201.5</ele><time>2026-04-25T12:10:52.999Z</time></trkpt><trkpt lat="41.52407307465806" lon="14.930436350788169"><ele>201.0</ele><time>2026-04-25T12:10:53.999Z</time></trkpt><trkpt lat="41.52420656052675" lon="14.93080218333943"><ele>203.0</ele><time>2026-04-25T12:10:54.999Z</time></trkpt><trkpt lat="41.52434115697934" lon="14.931168441886392"><ele>205.0</ele><time>2026-04-25T12:10:55.999Z</time></trkpt><trkpt lat="41.524454926163585" lon="14.931497037256525"><ele>202.5</ele><time>2026-04-25T12:10:56.999Z</time></trkpt><trkpt lat="41.52455126828253" lon="14.931794571896011"><ele>200.0</ele><time>2026-04-25T12:10:57.999Z</time></trkpt><trkpt lat="41.524644714030316" lon="14.932067735632117"><ele>200.0</ele><time>2026-04-25T12:10:58.999Z</time></trkpt><trkpt lat="41.5247317101273" lon="14.93232968964674"><ele>200.0</ele><time>2026-04-25T12:10:59.999Z</time></trkpt><trkpt lat="41.52481056084237" lon="14.932573437923521"><ele>200.0</ele><time>2026-04-25T12:11:00.999Z</time></trkpt><trkpt lat="41.52489101062351" lon="14.932809720101819"><ele>200.33333333333334</ele><time>2026-04-25T12:11:01.999Z</time></trkpt><trkpt lat="41.52497154274486" lon="14.933047554932745"><ele>200.66666666666669</ele><time>2026-04-25T12:11:02.999Z</time></trkpt><trkpt lat="41.525062596093484" lon="14.933299482101216"><ele>201.0</ele><time>2026-04-25T12:11:03.999Z</time></trkpt><trkpt lat="41.52515422176278" lon="14.933557051258239"><ele>204.33333333333331</ele><time>2026-04-25T12:11:04.999Z</time></trkpt><trkpt lat="41.52523749089107" lon="14.93381470193539"><ele>207.66666666666666</ele><time>2026-04-25T12:11:05.999Z</time></trkpt><trkpt lat="41.52529421912119" lon="14.93408304302788"><ele>211.0</ele><time>2026-04-25T12:11:06.999Z</time></trkpt><trkpt lat="41.52530727661764" lon="14.934366786573538"><ele>211.5</ele><time>2026-04-25T12:11:07.999Z</time></trkpt><trkpt lat="41.52528917374139" lon="14.934669391001517"><ele>212.0</ele><time>2026-04-25T12:11:08.999Z</time></trkpt><trkpt lat="41.52521136230742" lon="14.934979152515538"><ele>206.0</ele><time>2026-04-25T12:11:09.999Z</time></trkpt><trkpt lat="41.52512951573583" lon="14.935291336792414"><ele>200.0</ele><time>2026-04-25T12:11:10.999Z</time></trkpt><trkpt lat="41.52503880210219" lon="14.935602783963796"><ele>196.0</ele><time>2026-04-25T12:11:11.999Z</time></trkpt><trkpt lat="41.52491102033889" lon="14.935898233211628"><ele>192.0</ele><time>2026-04-25T12:11:12.999Z</time></trkpt><trkpt lat="41.52474156035556" lon="14.936196757024161"><ele>194.5</ele><time>2026-04-25T12:11:13.999Z</time></trkpt><trkpt lat="41.524531730084846" lon="14.936495291417252"><ele>197.0</ele><time>2026-04-25T12:11:14.999Z</time></trkpt><trkpt lat="41.52431675587221" lon="14.936752372040687"><ele>197.0</ele><time>2026-04-25T12:11:15.999Z</time></trkpt><trkpt lat="41.52410220725296" lon="14.937018233656618"><ele>197.0</ele><time>2026-04-25T12:11:16.999Z</time></trkpt><trkpt lat="41.52389126881742" lon="14.937287707043371"><ele>198.0</ele><time>2026-04-25T12:11:17.999Z</time></trkpt><trkpt lat="41.52369649221565" lon="14.93755835402569"><ele>199.0</ele><time>2026-04-25T12:11:18.999Z</time></trkpt><trkpt lat="41.52351737653198" lon="14.937812061190458"><ele>199.0</ele><time>2026-04-25T12:11:19.999Z</time></trkpt><trkpt lat="41.523350598633314" lon="14.93806020904776"><ele>199.0</ele><time>2026-04-25T12:11:20.999Z</time></trkpt><trkpt lat="41.52318551611122" lon="14.938332575367676"><ele>197.5</ele><time>2026-04-25T12:11:21.999Z</time></trkpt><trkpt lat="41.523038711040066" lon="14.938619556205474"><ele>196.0</ele><time>2026-04-25T12:11:22.999Z</time></trkpt><trkpt lat="41.52290484557279" lon="14.938920010022398"><ele>201.0</ele><time>2026-04-25T12:11:23.999Z</time></trkpt><trkpt lat="41.522789966106615" lon="14.939208131946472"><ele>206.0</ele><time>2026-04-25T12:11:24.999Z</time></trkpt><trkpt lat="41.522697092472065" lon="14.939497179621608"><ele>206.0</ele><time>2026-04-25T12:11:25.999Z</time></trkpt><trkpt lat="41.52260019349399" lon="14.93978365866465"><ele>206.0</ele><time>2026-04-25T12:11:26.999Z</time></trkpt><trkpt lat="41.52249898052652" lon="14.940060957037717"><ele>205.0</ele><time>2026-04-25T12:11:27.999Z</time></trkpt><trkpt lat="41.5224012507542" lon="14.940332497910822"><ele>204.0</ele><time>2026-04-25T12:11:28.999Z</time></trkpt><trkpt lat="41.52231389394845" lon="14.940585981117563"><ele>203.0</ele><time>2026-04-25T12:11:29.999Z</time></trkpt><trkpt lat="41.52231424759576" lon="14.940876562279263"><ele>202.66666666666669</ele><time>2026-04-25T12:11:30.999Z</time></trkpt><trkpt lat="41.52225947239061" lon="14.94110925421918"><ele>202.33333333333331</ele><time>2026-04-25T12:11:31.999Z</time></trkpt><trkpt lat="41.52220428340655" lon="14.941324899397907"><ele>202.0</ele><time>2026-04-25T12:11:32.999Z</time></trkpt><trkpt lat="41.52215655510472" lon="14.941504252397005"><ele>202.0</ele><time>2026-04-25T12:11:33.999Z</time></trkpt><trkpt lat="41.52210790025235" lon="14.941638113758298"><ele>202.0</ele><time>2026-04-25T12:11:34.999Z</time></trkpt><trkpt lat="41.52205412074683" lon="14.941709211818655"><ele>202.0</ele><time>2026-04-25T12:11:35.999Z</time></trkpt><trkpt lat="41.52196852363697" lon="14.94172184099109"><ele>202.0</ele><time>2026-04-25T12:11:36.999Z</time></trkpt><trkpt lat="41.52188102428551" lon="14.941649713760059"><ele>202.0</ele><time>2026-04-25T12:11:37.999Z</time></trkpt><trkpt lat="41.52182051685433" lon="14.941500497361954"><ele>202.0</ele><time>2026-04-25T12:11:39.999Z</time></trkpt><trkpt lat="41.52184166953971" lon="14.94139317265233"><ele>202.0</ele><time>2026-04-25T12:11:40.999Z</time></trkpt><trkpt lat="41.5218982480791" lon="14.941296001091153"><ele>202.0</ele><time>2026-04-25T12:11:41.999Z</time></trkpt><trkpt lat="41.52196327491209" lon="14.941209186267715"><ele>202.0</ele><time>2026-04-25T12:11:42.999Z</time></trkpt><trkpt lat="41.52204601620612" lon="14.941104752258605"><ele>202.0</ele><time>2026-04-25T12:11:43.999Z</time></trkpt><trkpt lat="41.52211823361418" lon="14.940979242421603"><ele>202.25</ele><time>2026-04-25T12:11:44.999Z</time></trkpt><trkpt lat="41.522177752324815" lon="14.940819916603573"><ele>202.5</ele><time>2026-04-25T12:11:45.999Z</time></trkpt><trkpt lat="41.52222325433112" lon="14.940645373516148"><ele>202.75</ele><time>2026-04-25T12:11:46.999Z</time></trkpt><trkpt lat="41.522254281057" lon="14.940445985745763"><ele>203.0</ele><time>2026-04-25T12:11:47.999Z</time></trkpt><trkpt lat="41.52227505938671" lon="14.940231372117283"><ele>203.75</ele><time>2026-04-25T12:11:48.999Z</time></trkpt><trkpt lat="41.52229928590724" lon="14.940027267562176"><ele>204.5</ele><time>2026-04-25T12:11:49.999Z</time></trkpt><trkpt lat="41.52231402292724" lon="14.939858003398182"><ele>205.25</ele><time>2026-04-25T12:11:50.999Z</time></trkpt><trkpt lat="41.52232694478768" lon="14.939712889878274"><ele>206.0</ele><time>2026-04-25T12:11:51.999Z</time></trkpt><trkpt lat="41.52234135896717" lon="14.939600453125632"><ele>206.00000000000003</ele><time>2026-04-25T12:11:52.999Z</time></trkpt><trkpt lat="41.52239311478391" lon="14.939537359809705"><ele>206.0</ele><time>2026-04-25T12:11:53.999Z</time></trkpt><trkpt lat="41.52246723440243" lon="14.939508793842704"><ele>206.0</ele><time>2026-04-25T12:11:54.999Z</time></trkpt><trkpt lat="41.52254005573834" lon="14.939543396839044"><ele>206.0</ele><time>2026-04-25T12:11:55.999Z</time></trkpt><trkpt lat="41.522608028145974" lon="14.93962831587448"><ele>206.00000000000003</ele><time>2026-04-25T12:11:56.999Z</time></trkpt><trkpt lat="41.522704744075575" lon="14.93974621588066"><ele>206.0</ele><time>2026-04-25T12:11:57.999Z</time></trkpt><trkpt lat="41.52278900666552" lon="14.939870944118661"><ele>206.0</ele><time>2026-04-25T12:11:58.999Z</time></trkpt><trkpt lat="41.52285347631744" lon="14.940014871339832"><ele>206.0</ele><time>2026-04-25T12:11:59.999Z</time></trkpt><trkpt lat="41.522893968224366" lon="14.940185524698103"><ele>206.0</ele><time>2026-04-25T12:12:00.999Z</time></trkpt><trkpt lat="41.522904987528456" lon="14.940374818427292"><ele>206.0</ele><time>2026-04-25T12:12:01.999Z</time></trkpt><trkpt lat="41.522876670462004" lon="14.940571729425931"><ele>205.0</ele><time>2026-04-25T12:12:02.999Z</time></trkpt><trkpt lat="41.52281236765883" lon="14.940751311718762"><ele>204.0</ele><time>2026-04-25T12:12:03.999Z</time></trkpt><trkpt lat="41.52272062230027" lon="14.940913411168875"><ele>203.0</ele><time>2026-04-25T12:12:04.999Z</time></trkpt><trkpt lat="41.522616728702246" lon="14.941075010538603"><ele>202.8</ele><time>2026-04-25T12:12:05.999Z</time></trkpt><trkpt lat="41.52253146747307" lon="14.941216969035592"><ele>202.60000000000002</ele><time>2026-04-25T12:12:06.999Z</time></trkpt><trkpt lat="41.52246888883753" lon="14.941335021802374"><ele>202.39999999999998</ele><time>2026-04-25T12:12:07.999Z</time></trkpt><trkpt lat="41.52242032446155" lon="14.94141542841641"><ele>202.2</ele><time>2026-04-25T12:12:08.999Z</time></trkpt><trkpt lat="41.52237775618773" lon="14.941511247852032"><ele>202.0</ele><time>2026-04-25T12:12:10.998Z</time></trkpt><trkpt lat="41.52236174360578" lon="14.94161308638634"><ele>201.25</ele><time>2026-04-25T12:12:11.998Z</time></trkpt><trkpt lat="41.52236708555592" lon="14.941758396643236"><ele>200.5</ele><time>2026-04-25T12:12:12.998Z</time></trkpt><trkpt lat="41.52241674347184" lon="14.941906548579443"><ele>199.75</ele><time>2026-04-25T12:12:13.998Z</time></trkpt><trkpt lat="41.522499295590954" lon="14.942050188630857"><ele>199.0</ele><time>2026-04-25T12:12:14.998Z</time></trkpt><trkpt lat="41.52259974469423" lon="14.942197227585522"><ele>199.0</ele><time>2026-04-25T12:12:15.998Z</time></trkpt><trkpt lat="41.52269672084454" lon="14.942351914983693"><ele>199.0</ele><time>2026-04-25T12:12:16.998Z</time></trkpt><trkpt lat="41.5227987965372" lon="14.942521932113971"><ele>199.0</ele><time>2026-04-25T12:12:18Z</time></trkpt><trkpt lat="41.52290378068011" lon="14.942693212837105"><ele>197.66666666666666</ele><time>2026-04-25T12:12:19Z</time></trkpt><trkpt lat="41.52301324160449" lon="14.942879319949094"><ele>196.33333333333331</ele><time>2026-04-25T12:12:20Z</time></trkpt><trkpt lat="41.523134617516185" lon="14.943083231606378"><ele>195.0</ele><time>2026-04-25T12:12:21Z</time></trkpt><trkpt lat="41.523250725221715" lon="14.9432675740447"><ele>195.5</ele><time>2026-04-25T12:12:22Z</time></trkpt><trkpt lat="41.523361560435504" lon="14.943433194601875"><ele>196.0</ele><time>2026-04-25T12:12:23Z</time></trkpt><trkpt lat="41.523452661291216" lon="14.943584525669477"><ele>196.5</ele><time>2026-04-25T12:12:24Z</time></trkpt><trkpt lat="41.523538411481006" lon="14.943719483471092"><ele>197.0</ele><time>2026-04-25T12:12:25Z</time></trkpt><trkpt lat="41.52362182644701" lon="14.943849476393178"><ele>197.00000000000003</ele><time>2026-04-25T12:12:26Z</time></trkpt><trkpt lat="41.52368846148709" lon="14.94398022965055"><ele>197.0</ele><time>2026-04-25T12:12:27Z</time></trkpt><trkpt lat="41.52373294349015" lon="14.944098827012276"><ele>197.0</ele><time>2026-04-25T12:12:28Z</time></trkpt><trkpt lat="41.52376554056489" lon="14.944199116349763"><ele>197.0</ele><time>2026-04-25T12:12:29Z</time></trkpt><trkpt lat="41.52382092062103" lon="14.944258513077486"><ele>197.00000000000003</ele><time>2026-04-25T12:12:30Z</time></trkpt><trkpt lat="41.52388610770893" lon="14.944273125238293"><ele>197.0</ele><time>2026-04-25T12:12:31Z</time></trkpt><trkpt lat="41.52394870302623" lon="14.944260552026325"><ele>198.39999999999998</ele><time>2026-04-25T12:12:32Z</time></trkpt><trkpt lat="41.524044498676396" lon="14.94422792072752"><ele>199.79999999999998</ele><time>2026-04-25T12:12:34Z</time></trkpt><trkpt lat="41.524136992580246" lon="14.944196315999825"><ele>201.2</ele><time>2026-04-25T12:12:46Z</time></trkpt><trkpt lat="41.5242138318439" lon="14.944156794384483"><ele>202.6</ele><time>2026-04-25T12:12:47Z</time></trkpt><trkpt lat="41.52430696238071" lon="14.944130455088818"><ele>204.0</ele><time>2026-04-25T12:12:48Z</time></trkpt><trkpt lat="41.524405243007955" lon="14.94410514581939"><ele>204.0</ele><time>2026-04-25T12:12:49Z</time></trkpt><trkpt lat="41.52451480374939" lon="14.944077239250417"><ele>204.0</ele><time>2026-04-25T12:12:50Z</time></trkpt><trkpt lat="41.52465058863312" lon="14.944051311721292"><ele>204.0</ele><time>2026-04-25T12:12:51Z</time></trkpt><trkpt lat="41.5248534239331" lon="14.944003135550515"><ele>205.0</ele><time>2026-04-25T12:12:52Z</time></trkpt><trkpt lat="41.525027876551505" lon="14.943961150616449"><ele>206.0</ele><time>2026-04-25T12:12:53Z</time></trkpt><trkpt lat="41.52513339584069" lon="14.944004087980861"><ele>207.0</ele><time>2026-04-25T12:12:54Z</time></trkpt><trkpt lat="41.52519470607736" lon="14.944075944372317"><ele>208.0</ele><time>2026-04-25T12:12:55Z</time></trkpt><trkpt lat="41.5252338648133" lon="14.944194677391142"><ele>210.0</ele><time>2026-04-25T12:12:56Z</time></trkpt><trkpt lat="41.525253619078086" lon="14.944335707817494"><ele>212.0</ele><time>2026-04-25T12:12:57Z</time></trkpt><trkpt lat="41.52525023353527" lon="14.94448384331261"><ele>214.0</ele><time>2026-04-25T12:12:58Z</time></trkpt><trkpt lat="41.52515687844191" lon="14.94460413177202"><ele>216.0</ele><time>2026-04-25T12:12:59Z</time></trkpt><trkpt lat="41.52505536852208" lon="14.94470041665368"><ele>216.0</ele><time>2026-04-25T12:13:00Z</time></trkpt><trkpt lat="41.524918559991534" lon="14.944829854973753"><ele>216.0</ele><time>2026-04-25T12:13:01Z</time></trkpt><trkpt lat="41.52479310743351" lon="14.944983746046798"><ele>216.0</ele><time>2026-04-25T12:13:02Z</time></trkpt><trkpt lat="41.524715550522835" lon="14.945151681005749"><ele>217.60000000000002</ele><time>2026-04-25T12:13:03Z</time></trkpt><trkpt lat="41.52465133548444" lon="14.945313900906244"><ele>219.20000000000002</ele><time>2026-04-25T12:13:03.999Z</time></trkpt><trkpt lat="41.52462520793587" lon="14.94546825440771"><ele>220.79999999999998</ele><time>2026-04-25T12:13:04.999Z</time></trkpt><trkpt lat="41.52465172072385" lon="14.945583638270437"><ele>222.39999999999998</ele><time>2026-04-25T12:13:05.999Z</time></trkpt><trkpt lat="41.52472636304496" lon="14.945644468370904"><ele>224.0</ele><time>2026-04-25T12:13:06.999Z</time></trkpt><trkpt lat="41.52489838756186" lon="14.945567363743985"><ele>224.0</ele><time>2026-04-25T12:13:08.999Z</time></trkpt><trkpt lat="41.52500963644868" lon="14.945493556051026"><ele>224.0</ele><time>2026-04-25T12:13:09.999Z</time></trkpt><trkpt lat="41.52514609163959" lon="14.945432965181768"><ele>224.0</ele><time>2026-04-25T12:13:10.999Z</time></trkpt><trkpt lat="41.525252277255284" lon="14.9453896801274"><ele>224.0</ele><time>2026-04-25T12:13:11.999Z</time></trkpt><trkpt lat="41.52535606651246" lon="14.945335468087688"><ele>227.33333333333334</ele><time>2026-04-25T12:13:12.999Z</time></trkpt><trkpt lat="41.5255178319993" lon="14.945245445674713"><ele>230.66666666666669</ele><time>2026-04-25T12:13:13.999Z</time></trkpt><trkpt lat="41.5256886574526" lon="14.94516789649733"><ele>234.0</ele><time>2026-04-25T12:13:14.999Z</time></trkpt><trkpt lat="41.52585965075639" lon="14.945088571720346"><ele>232.5</ele><time>2026-04-25T12:13:15.999Z</time></trkpt><trkpt lat="41.526007690420386" lon="14.945035360980054"><ele>231.0</ele><time>2026-04-25T12:13:16.999Z</time></trkpt><trkpt lat="41.526130070191684" lon="14.944978427195196"><ele>229.5</ele><time>2026-04-25T12:13:17.999Z</time></trkpt><trkpt lat="41.5262517863982" lon="14.944897184807685"><ele>228.0</ele><time>2026-04-25T12:13:18.999Z</time></trkpt><trkpt lat="41.52633338331584" lon="14.944763195452442"><ele>230.66666666666669</ele><time>2026-04-25T12:13:19.999Z</time></trkpt><trkpt lat="41.52638595368563" lon="14.944580660109967"><ele>233.33333333333334</ele><time>2026-04-25T12:13:20.999Z</time></trkpt><trkpt lat="41.52642755895146" lon="14.944348790544133"><ele>236.0</ele><time>2026-04-25T12:13:21.999Z</time></trkpt><trkpt lat="41.526461465192206" lon="14.944147532165156"><ele>236.0</ele><time>2026-04-25T12:13:22.999Z</time></trkpt><trkpt lat="41.526501755836435" lon="14.943997482117155"><ele>236.00000000000003</ele><time>2026-04-25T12:13:23.999Z</time></trkpt><trkpt lat="41.526564887804554" lon="14.943890540609543"><ele>236.00000000000003</ele><time>2026-04-25T12:13:24.999Z</time></trkpt><trkpt lat="41.52664340659423" lon="14.943855711848833"><ele>236.0</ele><time>2026-04-25T12:13:25.999Z</time></trkpt><trkpt lat="41.52671223141612" lon="14.943849965614172"><ele>236.0</ele><time>2026-04-25T12:13:26.999Z</time></trkpt><trkpt lat="41.52678361545666" lon="14.944038128401306"><ele>236.0</ele><time>2026-04-25T12:13:27.999Z</time></trkpt><trkpt lat="41.5268848416308" lon="14.944185381934306"><ele>236.0</ele><time>2026-04-25T12:13:28.999Z</time></trkpt><trkpt lat="41.52696445636349" lon="14.944360129051798"><ele>236.0</ele><time>2026-04-25T12:13:29.999Z</time></trkpt><trkpt lat="41.52704520213924" lon="14.944459339850592"><ele>236.0</ele><time>2026-04-25T12:13:30.999Z</time></trkpt><trkpt lat="41.5271599816126" lon="14.94450577736828"><ele>237.5</ele><time>2026-04-25T12:13:31.999Z</time></trkpt><trkpt lat="41.52726344621568" lon="14.94449844990422"><ele>239.0</ele><time>2026-04-25T12:13:32.999Z</time></trkpt><trkpt lat="41.52737228503175" lon="14.94442987595181"><ele>240.5</ele><time>2026-04-25T12:13:33.999Z</time></trkpt><trkpt lat="41.52746682412071" lon="14.944316114858117"><ele>242.0</ele><time>2026-04-25T12:13:34.999Z</time></trkpt><trkpt lat="41.52754014640295" lon="14.944157828546256"><ele>242.0</ele><time>2026-04-25T12:13:35.999Z</time></trkpt><trkpt lat="41.52762305586984" lon="14.943937709797627"><ele>242.0</ele><time>2026-04-25T12:13:36.999Z</time></trkpt><trkpt lat="41.527705169310174" lon="14.943731281623085"><ele>242.0</ele><time>2026-04-25T12:13:37.999Z</time></trkpt><trkpt lat="41.52781030509859" lon="14.943552066935373"><ele>242.66666666666669</ele><time>2026-04-25T12:13:38.999Z</time></trkpt><trkpt lat="41.527971736706206" lon="14.94339424110242"><ele>243.33333333333331</ele><time>2026-04-25T12:13:39.999Z</time></trkpt><trkpt lat="41.52816074795984" lon="14.943191836930753"><ele>244.0</ele><time>2026-04-25T12:13:40.999Z</time></trkpt><trkpt lat="41.528334355123675" lon="14.942994132274466"><ele>244.0</ele><time>2026-04-25T12:13:41.999Z</time></trkpt><trkpt lat="41.528492603164935" lon="14.942835462376589"><ele>244.0</ele><time>2026-04-25T12:13:42.999Z</time></trkpt><trkpt lat="41.52864191571821" lon="14.942701423102594"><ele>244.0</ele><time>2026-04-25T12:13:43.999Z</time></trkpt><trkpt lat="41.528792608473694" lon="14.942576568033655"><ele>242.66666666666666</ele><time>2026-04-25T12:13:44.999Z</time></trkpt><trkpt lat="41.52893308929539" lon="14.942456852187284"><ele>241.33333333333331</ele><time>2026-04-25T12:13:45.999Z</time></trkpt><trkpt lat="41.52908225602135" lon="14.942323751966924"><ele>240.0</ele><time>2026-04-25T12:13:46.999Z</time></trkpt><trkpt lat="41.52925401649852" lon="14.94224121937573"><ele>240.0</ele><time>2026-04-25T12:13:47.999Z</time></trkpt><trkpt lat="41.52943188936718" lon="14.942144841838358"><ele>240.0</ele><time>2026-04-25T12:13:48.999Z</time></trkpt><trkpt lat="41.52961473762947" lon="14.942088191792385"><ele>240.0</ele><time>2026-04-25T12:13:49.999Z</time></trkpt><trkpt lat="41.529801598847726" lon="14.942014227710017"><ele>242.0</ele><time>2026-04-25T12:13:50.999Z</time></trkpt><trkpt lat="41.529993972100705" lon="14.941960338182172"><ele>244.0</ele><time>2026-04-25T12:13:51.999Z</time></trkpt><trkpt lat="41.530182331558926" lon="14.941936208995951"><ele>246.0</ele><time>2026-04-25T12:13:52.999Z</time></trkpt><trkpt lat="41.5303606855227" lon="14.941915756341464"><ele>248.66666666666669</ele><time>2026-04-25T12:13:53.999Z</time></trkpt><trkpt lat="41.53052130462762" lon="14.941901578517355"><ele>251.33333333333334</ele><time>2026-04-25T12:13:54.999Z</time></trkpt><trkpt lat="41.53067993122914" lon="14.941885629065569"><ele>254.0</ele><time>2026-04-25T12:13:55.999Z</time></trkpt><trkpt lat="41.53082150978119" lon="14.94190107730044"><ele>254.0</ele><time>2026-04-25T12:13:56.999Z</time></trkpt><trkpt lat="41.53095988134032" lon="14.941924917583638"><ele>254.0</ele><time>2026-04-25T12:13:57.999Z</time></trkpt><trkpt lat="41.53110682088784" lon="14.941927180864354"><ele>254.0</ele><time>2026-04-25T12:13:58.999Z</time></trkpt><trkpt lat="41.53124569885265" lon="14.941892387253798"><ele>254.0</ele><time>2026-04-25T12:13:59.999Z</time></trkpt><trkpt lat="41.53138471975363" lon="14.941780365821415"><ele>246.0</ele><time>2026-04-25T12:14:00.999Z</time></trkpt><trkpt lat="41.53155981551773" lon="14.941664732423414"><ele>238.0</ele><time>2026-04-25T12:14:01.999Z</time></trkpt><trkpt lat="41.53173829599204" lon="14.941546987101002"><ele>230.0</ele><time>2026-04-25T12:14:02.999Z</time></trkpt><trkpt lat="41.531900643180755" lon="14.941446732204794"><ele>230.0</ele><time>2026-04-25T12:14:03.999Z</time></trkpt><trkpt lat="41.53204739177733" lon="14.94136175883482"><ele>230.0</ele><time>2026-04-25T12:14:04.999Z</time></trkpt><trkpt lat="41.53217200629204" lon="14.94128266883447"><ele>230.0</ele><time>2026-04-25T12:14:05.999Z</time></trkpt><trkpt lat="41.53229626232341" lon="14.941266909715257"><ele>230.0</ele><time>2026-04-25T12:14:06.999Z</time></trkpt><trkpt lat="41.5324444547932" lon="14.941344748031609"><ele>229.0</ele><time>2026-04-25T12:14:07.999Z</time></trkpt><trkpt lat="41.53264261271237" lon="14.941425675399136"><ele>228.0</ele><time>2026-04-25T12:14:08.999Z</time></trkpt><trkpt lat="41.53285865944251" lon="14.941492067068989"><ele>227.0</ele><time>2026-04-25T12:14:09.999Z</time></trkpt><trkpt lat="41.53304763698938" lon="14.941571151322544"><ele>229.66666666666669</ele><time>2026-04-25T12:14:10.999Z</time></trkpt><trkpt lat="41.53323088694388" lon="14.94164634213875"><ele>232.33333333333331</ele><time>2026-04-25T12:14:11.999Z</time></trkpt><trkpt lat="41.53339402834232" lon="14.941723602119596"><ele>235.0</ele><time>2026-04-25T12:14:12.999Z</time></trkpt><trkpt lat="41.53353262971905" lon="14.941793460582913"><ele>235.0</ele><time>2026-04-25T12:14:13.999Z</time></trkpt><trkpt lat="41.53361144361582" lon="14.941881675284366"><ele>235.0</ele><time>2026-04-25T12:14:14.999Z</time></trkpt><trkpt lat="41.533639720499785" lon="14.9420252716247"><ele>235.0</ele><time>2026-04-25T12:14:15.999Z</time></trkpt><trkpt lat="41.533682890570674" lon="14.942219174213147"><ele>235.0</ele><time>2026-04-25T12:14:16.999Z</time></trkpt><trkpt lat="41.533715291719496" lon="14.942416171825998"><ele>236.75</ele><time>2026-04-25T12:14:17.999Z</time></trkpt><trkpt lat="41.53377999882097" lon="14.942544170706551"><ele>238.5</ele><time>2026-04-25T12:14:18.999Z</time></trkpt><trkpt lat="41.5338957757669" lon="14.942621097641487"><ele>240.25</ele><time>2026-04-25T12:14:19.999Z</time></trkpt><trkpt lat="41.53404105079022" lon="14.942672008032467"><ele>242.0</ele><time>2026-04-25T12:14:20.999Z</time></trkpt><trkpt lat="41.53418338572792" lon="14.942701833709469"><ele>242.0</ele><time>2026-04-25T12:14:21.999Z</time></trkpt><trkpt lat="41.53431918891623" lon="14.942707049355844"><ele>242.0</ele><time>2026-04-25T12:14:22.999Z</time></trkpt><trkpt lat="41.53446876871318" lon="14.942661004801733"><ele>242.0</ele><time>2026-04-25T12:14:24Z</time></trkpt><trkpt lat="41.53466723611563" lon="14.942626293604485"><ele>237.0</ele><time>2026-04-25T12:14:25Z</time></trkpt><trkpt lat="41.53484285163966" lon="14.942665339385263"><ele>232.0</ele><time>2026-04-25T12:14:26Z</time></trkpt><trkpt lat="41.535018662154" lon="14.942748277263988"><ele>227.0</ele><time>2026-04-25T12:14:27Z</time></trkpt><trkpt lat="41.535196435310915" lon="14.942823358095689"><ele>227.0</ele><time>2026-04-25T12:14:28Z</time></trkpt><trkpt lat="41.535370132896986" lon="14.942947962182924"><ele>227.0</ele><time>2026-04-25T12:14:29Z</time></trkpt><trkpt lat="41.53556675463118" lon="14.943097568875416"><ele>227.0</ele><time>2026-04-25T12:14:30Z</time></trkpt><trkpt lat="41.53576978144962" lon="14.94325979133543"><ele>225.33333333333334</ele><time>2026-04-25T12:14:31Z</time></trkpt><trkpt lat="41.535951486718076" lon="14.943407562505358"><ele>223.66666666666669</ele><time>2026-04-25T12:14:32Z</time></trkpt><trkpt lat="41.5361288684689" lon="14.943553801297995"><ele>222.0</ele><time>2026-04-25T12:14:33Z</time></trkpt><trkpt lat="41.53629521981403" lon="14.94372905017058"><ele>222.0</ele><time>2026-04-25T12:14:34Z</time></trkpt><trkpt lat="41.536460651710804" lon="14.943921232462284"><ele>222.0</ele><time>2026-04-25T12:14:35Z</time></trkpt><trkpt lat="41.53660945116163" lon="14.944102129920676"><ele>222.0</ele><time>2026-04-25T12:14:36Z</time></trkpt><trkpt lat="41.53674413127885" lon="14.944261972919234"><ele>226.0</ele><time>2026-04-25T12:14:37Z</time></trkpt><trkpt lat="41.53687313598606" lon="14.944415228921399"><ele>230.0</ele><time>2026-04-25T12:14:38Z</time></trkpt><trkpt lat="41.536975637708586" lon="14.944583468496"><ele>234.0</ele><time>2026-04-25T12:14:39Z</time></trkpt><trkpt lat="41.53702300634883" lon="14.944777398315424"><ele>227.0</ele><time>2026-04-25T12:14:40Z</time></trkpt><trkpt lat="41.53706921568534" lon="14.944986653420774"><ele>220.0</ele><time>2026-04-25T12:14:41Z</time></trkpt><trkpt lat="41.53712109265199" lon="14.94523611317196"><ele>213.0</ele><time>2026-04-25T12:14:42Z</time></trkpt><trkpt lat="41.53714311312122" lon="14.945450935116543"><ele>213.0</ele><time>2026-04-25T12:14:43Z</time></trkpt><trkpt lat="41.5371328622566" lon="14.9456679874092"><ele>213.0</ele><time>2026-04-25T12:14:44Z</time></trkpt><trkpt lat="41.537126506035804" lon="14.945897888202245"><ele>213.0</ele><time>2026-04-25T12:14:45Z</time></trkpt><trkpt lat="41.53708735189737" lon="14.946145376217133"><ele>212.33333333333331</ele><time>2026-04-25T12:14:46Z</time></trkpt><trkpt lat="41.537054378720654" lon="14.94639158262154"><ele>211.66666666666666</ele><time>2026-04-25T12:14:47Z</time></trkpt><trkpt lat="41.537024642944175" lon="14.946633096058358"><ele>211.0</ele><time>2026-04-25T12:14:48Z</time></trkpt><trkpt lat="41.53700137954909" lon="14.94686124112502"><ele>215.66666666666666</ele><time>2026-04-25T12:14:49Z</time></trkpt><trkpt lat="41.536984436603476" lon="14.947079350244671"><ele>220.33333333333331</ele><time>2026-04-25T12:14:50Z</time></trkpt><trkpt lat="41.536955657693554" lon="14.947282853721653"><ele>225.0</ele><time>2026-04-25T12:14:51Z</time></trkpt><trkpt lat="41.536938077259656" lon="14.947477606494486"><ele>224.75</ele><time>2026-04-25T12:14:52Z</time></trkpt><trkpt lat="41.536928296032606" lon="14.947666176647571"><ele>224.5</ele><time>2026-04-25T12:14:53Z</time></trkpt><trkpt lat="41.5369071715159" lon="14.947857042655047"><ele>224.25</ele><time>2026-04-25T12:14:54Z</time></trkpt><trkpt lat="41.53689565462192" lon="14.948053555162481"><ele>224.0</ele><time>2026-04-25T12:14:55Z</time></trkpt><trkpt lat="41.53689782021767" lon="14.948245009411286"><ele>225.75</ele><time>2026-04-25T12:14:56Z</time></trkpt><trkpt lat="41.53691391678908" lon="14.948414687887482"><ele>227.5</ele><time>2026-04-25T12:14:57Z</time></trkpt><trkpt lat="41.53694874192176" lon="14.948626156277697"><ele>229.25</ele><time>2026-04-25T12:14:58Z</time></trkpt><trkpt lat="41.53700676806734" lon="14.948824439676523"><ele>231.0</ele><time>2026-04-25T12:14:59Z</time></trkpt><trkpt lat="41.537089614906066" lon="14.948983571730414"><ele>229.0</ele><time>2026-04-25T12:15:00Z</time></trkpt><trkpt lat="41.53720293418584" lon="14.949141189729348"><ele>227.0</ele><time>2026-04-25T12:15:01Z</time></trkpt><trkpt lat="41.537339233025904" lon="14.949263172613332"><ele>225.0</ele><time>2026-04-25T12:15:02Z</time></trkpt><trkpt lat="41.53743928348157" lon="14.949362716860724"><ele>225.0</ele><time>2026-04-25T12:15:03Z</time></trkpt><trkpt lat="41.53751498033205" lon="14.949522065891191"><ele>225.0</ele><time>2026-04-25T12:15:04Z</time></trkpt><trkpt lat="41.53756945779222" lon="14.949741666319477"><ele>225.0</ele><time>2026-04-25T12:15:05Z</time></trkpt><trkpt lat="41.537638253727415" lon="14.949982597222572"><ele>222.66666666666669</ele><time>2026-04-25T12:15:06Z</time></trkpt><trkpt lat="41.5376993624186" lon="14.950159227554739"><ele>220.33333333333334</ele><time>2026-04-25T12:15:06.999Z</time></trkpt><trkpt lat="41.53781947095272" lon="14.950385840707229"><ele>218.0</ele><time>2026-04-25T12:15:07.999Z</time></trkpt><trkpt lat="41.53794661168111" lon="14.950616552686435"><ele>218.0</ele><time>2026-04-25T12:15:08.999Z</time></trkpt><trkpt lat="41.5380578229676" lon="14.95080947115724"><ele>218.0</ele><time>2026-04-25T12:15:09.999Z</time></trkpt><trkpt lat="41.53815483265106" lon="14.950976494826431"><ele>218.0</ele><time>2026-04-25T12:15:10.999Z</time></trkpt><trkpt lat="41.53826610807226" lon="14.951119270227657"><ele>221.0</ele><time>2026-04-25T12:15:11.999Z</time></trkpt><trkpt lat="41.53836313732004" lon="14.951254457834478"><ele>224.0</ele><time>2026-04-25T12:15:12.999Z</time></trkpt><trkpt lat="41.538472751936375" lon="14.951363907851936"><ele>227.0</ele><time>2026-04-25T12:15:13.999Z</time></trkpt><trkpt lat="41.53856803254044" lon="14.951464363551237"><ele>230.0</ele><time>2026-04-25T12:15:14.999Z</time></trkpt><trkpt lat="41.538658558489225" lon="14.951548794894595"><ele>228.83333333333334</ele><time>2026-04-25T12:15:15.999Z</time></trkpt><trkpt lat="41.538734948389646" lon="14.951645829470264"><ele>227.66666666666669</ele><time>2026-04-25T12:15:16.999Z</time></trkpt><trkpt lat="41.53879983577683" lon="14.951735295197148"><ele>226.5</ele><time>2026-04-25T12:15:17.999Z</time></trkpt><trkpt lat="41.53885074378929" lon="14.951823617293226"><ele>225.33333333333331</ele><time>2026-04-25T12:15:18.999Z</time></trkpt><trkpt lat="41.53889469589637" lon="14.951914495770803"><ele>224.16666666666666</ele><time>2026-04-25T12:15:19.999Z</time></trkpt><trkpt lat="41.53892608310424" lon="14.951995727489194"><ele>223.0</ele><time>2026-04-25T12:15:20.999Z</time></trkpt><trkpt lat="41.53897410593981" lon="14.952132026996576"><ele>222.99999999999997</ele><time>2026-04-25T12:15:22.999Z</time></trkpt><trkpt lat="41.53899508842533" lon="14.952220757082566"><ele>223.0</ele><time>2026-04-25T12:15:23.999Z</time></trkpt><trkpt lat="41.539011898978565" lon="14.952321791504918"><ele>223.0</ele><time>2026-04-25T12:15:24.999Z</time></trkpt><trkpt lat="41.53902717743195" lon="14.952406084171212"><ele>223.0</ele><time>2026-04-25T12:15:25.999Z</time></trkpt><trkpt lat="41.53903486758569" lon="14.952531862189595"><ele>222.99999999999997</ele><time>2026-04-25T12:15:27.999Z</time></trkpt><trkpt lat="41.53904390983161" lon="14.952692536920473"><ele>223.0</ele><time>2026-04-25T12:15:29.999Z</time></trkpt><trkpt lat="41.539048587257255" lon="14.952791628188265"><ele>223.66666666666666</ele><time>2026-04-25T12:15:30.999Z</time></trkpt><trkpt lat="41.53905918646147" lon="14.952898322832937"><ele>224.33333333333331</ele><time>2026-04-25T12:15:31.999Z</time></trkpt><trkpt lat="41.539063483894" lon="14.952991339174844"><ele>225.0</ele><time>2026-04-25T12:15:32.999Z</time></trkpt><trkpt lat="41.53906043426087" lon="14.953092922815351"><ele>225.66666666666669</ele><time>2026-04-25T12:15:33.999Z</time></trkpt><trkpt lat="41.539078184568496" lon="14.953199760484363"><ele>226.33333333333334</ele><time>2026-04-25T12:15:34.999Z</time></trkpt><trkpt lat="41.539079809377384" lon="14.953297300048556"><ele>227.0</ele><time>2026-04-25T12:15:35.999Z</time></trkpt><trkpt lat="41.539098154807995" lon="14.95344207186448"><ele>227.0</ele><time>2026-04-25T12:15:37.999Z</time></trkpt><trkpt lat="41.539099085140705" lon="14.953342523216591"><ele>227.0</ele><time>2026-04-25T12:15:41.999Z</time></trkpt><trkpt lat="41.53911093234039" lon="14.953212760246025"><ele>227.0</ele><time>2026-04-25T12:15:42.999Z</time></trkpt><trkpt lat="41.5390905536719" lon="14.953031204135652"><ele>227.0</ele><time>2026-04-25T12:15:43.999Z</time></trkpt><trkpt lat="41.53907799640549" lon="14.952849269691885"><ele>227.0</ele><time>2026-04-25T12:15:44.999Z</time></trkpt><trkpt lat="41.53905182382335" lon="14.952636636679971"><ele>225.66666666666669</ele><time>2026-04-25T12:15:45.999Z</time></trkpt><trkpt lat="41.53906183472228" lon="14.952370172120125"><ele>224.33333333333331</ele><time>2026-04-25T12:15:46.999Z</time></trkpt><trkpt lat="41.539034019699095" lon="14.95219577731659"><ele>223.0</ele><time>2026-04-25T12:15:47.999Z</time></trkpt><trkpt lat="41.53899354902122" lon="14.952046118696854"><ele>223.0</ele><time>2026-04-25T12:15:48.999Z</time></trkpt><trkpt lat="41.53894264488375" lon="14.951863291644246"><ele>223.0</ele><time>2026-04-25T12:15:49.999Z</time></trkpt><trkpt lat="41.538850500915046" lon="14.951702143686067"><ele>223.0</ele><time>2026-04-25T12:15:50.999Z</time></trkpt><trkpt lat="41.538728863711654" lon="14.95154582989284"><ele>225.33333333333331</ele><time>2026-04-25T12:15:51.999Z</time></trkpt><trkpt lat="41.53859234796082" lon="14.951413067559374"><ele>227.66666666666669</ele><time>2026-04-25T12:15:52.999Z</time></trkpt><trkpt lat="41.538433137254195" lon="14.951279969401448"><ele>230.0</ele><time>2026-04-25T12:15:53.999Z</time></trkpt><trkpt lat="41.53827553676066" lon="14.951085536954608"><ele>233.66666666666669</ele><time>2026-04-25T12:15:54.999Z</time></trkpt><trkpt lat="41.53813113034052" lon="14.950873064326814"><ele>237.33333333333331</ele><time>2026-04-25T12:15:55.999Z</time></trkpt><trkpt lat="41.537989136409266" lon="14.950632113135201"><ele>241.0</ele><time>2026-04-25T12:15:56.999Z</time></trkpt><trkpt lat="41.53786872448513" lon="14.950410274980532"><ele>241.0</ele><time>2026-04-25T12:15:57.999Z</time></trkpt><trkpt lat="41.5377667273317" lon="14.95021905261932"><ele>241.0</ele><time>2026-04-25T12:15:58.999Z</time></trkpt><trkpt lat="41.53769109790014" lon="14.95005432248238"><ele>241.0</ele><time>2026-04-25T12:15:59.999Z</time></trkpt><trkpt lat="41.53763516424064" lon="14.949879535167712"><ele>237.0</ele><time>2026-04-25T12:16:00.999Z</time></trkpt><trkpt lat="41.537595387467206" lon="14.949698705777653"><ele>233.0</ele><time>2026-04-25T12:16:01.999Z</time></trkpt><trkpt lat="41.53754025377003" lon="14.94953342043453"><ele>229.0</ele><time>2026-04-25T12:16:02.999Z</time></trkpt><trkpt lat="41.53747906831737" lon="14.949366786489039"><ele>225.0</ele><time>2026-04-25T12:16:03.999Z</time></trkpt><trkpt lat="41.537386398529065" lon="14.94922413138058"><ele>226.5</ele><time>2026-04-25T12:16:04.999Z</time></trkpt><trkpt lat="41.53727104526442" lon="14.949102720315082"><ele>228.0</ele><time>2026-04-25T12:16:05.999Z</time></trkpt><trkpt lat="41.537157692225975" lon="14.948984680050476"><ele>229.5</ele><time>2026-04-25T12:16:06.999Z</time></trkpt><trkpt lat="41.53705748463521" lon="14.94883315892434"><ele>231.0</ele><time>2026-04-25T12:16:07.999Z</time></trkpt><trkpt lat="41.536992744781955" lon="14.948633722546976"><ele>231.0</ele><time>2026-04-25T12:16:08.999Z</time></trkpt><trkpt lat="41.53695325271034" lon="14.948427786891425"><ele>231.0</ele><time>2026-04-25T12:16:09.999Z</time></trkpt><trkpt lat="41.536941050598" lon="14.948259770309308"><ele>231.0</ele><time>2026-04-25T12:16:10.999Z</time></trkpt><trkpt lat="41.53693745645404" lon="14.948066209372213"><ele>231.0</ele><time>2026-04-25T12:16:11.999Z</time></trkpt><trkpt lat="41.536926431136145" lon="14.94788041452874"><ele>230.0</ele><time>2026-04-25T12:16:12.999Z</time></trkpt><trkpt lat="41.536954235211255" lon="14.947730142756413"><ele>229.0</ele><time>2026-04-25T12:16:13.999Z</time></trkpt><trkpt lat="41.53697871394565" lon="14.947598266493218"><ele>228.0</ele><time>2026-04-25T12:16:14.999Z</time></trkpt><trkpt lat="41.53699266588363" lon="14.947489201637259"><ele>227.0</ele><time>2026-04-25T12:16:15.999Z</time></trkpt><trkpt lat="41.53703101467899" lon="14.947420032458917"><ele>226.0</ele><time>2026-04-25T12:16:16.999Z</time></trkpt><trkpt lat="41.53706717977407" lon="14.947343003860682"><ele>225.0</ele><time>2026-04-25T12:16:18.999Z</time></trkpt><trkpt lat="41.53711265509055" lon="14.947209236623602"><ele>223.33333333333334</ele><time>2026-04-25T12:16:20.999Z</time></trkpt><trkpt lat="41.53713882518067" lon="14.94711084282838"><ele>221.66666666666669</ele><time>2026-04-25T12:16:21.999Z</time></trkpt><trkpt lat="41.537200016453234" lon="14.947003354598774"><ele>220.0</ele><time>2026-04-25T12:16:22.999Z</time></trkpt><trkpt lat="41.53723604377644" lon="14.94689483423522"><ele>218.33333333333334</ele><time>2026-04-25T12:16:23.999Z</time></trkpt><trkpt lat="41.53726352937577" lon="14.946794068924564"><ele>216.66666666666669</ele><time>2026-04-25T12:16:25.999Z</time></trkpt><trkpt lat="41.5373124770197" lon="14.946696958001912"><ele>215.0</ele><time>2026-04-25T12:16:29.999Z</time></trkpt><trkpt lat="41.53743739722756" lon="14.946717131036943"><ele>215.0</ele><time>2026-04-25T12:16:33.999Z</time></trkpt><trkpt lat="41.53751606153042" lon="14.946790390324235"><ele>215.0</ele><time>2026-04-25T12:16:35.999Z</time></trkpt><trkpt lat="41.5375812894599" lon="14.946955761530065"><ele>215.0</ele><time>2026-04-25T12:16:37.999Z</time></trkpt><trkpt lat="41.537603437937186" lon="14.947061663399573"><ele>215.0</ele><time>2026-04-25T12:16:38.999Z</time></trkpt><trkpt lat="41.537630473307246" lon="14.947187214431741"><ele>215.0</ele><time>2026-04-25T12:16:39.999Z</time></trkpt><trkpt lat="41.53764910643517" lon="14.947345417290228"><ele>215.0</ele><time>2026-04-25T12:16:40.999Z</time></trkpt><trkpt lat="41.53764437142012" lon="14.947502803463179"><ele>215.0</ele><time>2026-04-25T12:16:41.999Z</time></trkpt><trkpt lat="41.53762649062246" lon="14.947645819208551"><ele>215.0</ele><time>2026-04-25T12:16:42.999Z</time></trkpt><trkpt lat="41.537634810696204" lon="14.947804276287409"><ele>215.0</ele><time>2026-04-25T12:16:43.999Z</time></trkpt><trkpt lat="41.537631631337696" lon="14.947940023688643"><ele>215.0</ele><time>2026-04-25T12:16:44.999Z</time></trkpt><trkpt lat="41.53757602758514" lon="14.948068014776206"><ele>214.8</ele><time>2026-04-25T12:16:45.999Z</time></trkpt><trkpt lat="41.5375252508478" lon="14.94822815333939"><ele>214.6</ele><time>2026-04-25T12:16:46.999Z</time></trkpt><trkpt lat="41.5375025341483" lon="14.948343249613382"><ele>214.39999999999998</ele><time>2026-04-25T12:16:47.999Z</time></trkpt><trkpt lat="41.53752303491558" lon="14.948461993788325"><ele>214.2</ele><time>2026-04-25T12:16:48.999Z</time></trkpt><trkpt lat="41.53755226436624" lon="14.948562578537938"><ele>214.0</ele><time>2026-04-25T12:16:49.999Z</time></trkpt><trkpt lat="41.53760687339478" lon="14.948655144838359"><ele>214.33333333333331</ele><time>2026-04-25T12:16:50.999Z</time></trkpt><trkpt lat="41.53767405437373" lon="14.948721964578231"><ele>214.66666666666666</ele><time>2026-04-25T12:16:51.999Z</time></trkpt><trkpt lat="41.53775590344654" lon="14.948752077942435"><ele>215.0</ele><time>2026-04-25T12:16:52.999Z</time></trkpt><trkpt lat="41.537830465019184" lon="14.948762281671028"><ele>215.33333333333331</ele><time>2026-04-25T12:16:53.999Z</time></trkpt><trkpt lat="41.53792416207847" lon="14.948752270625485"><ele>215.66666666666666</ele><time>2026-04-25T12:16:54.999Z</time></trkpt><trkpt lat="41.53800378437003" lon="14.94872399423742"><ele>216.0</ele><time>2026-04-25T12:16:55.999Z</time></trkpt><trkpt lat="41.5380725625814" lon="14.948699712754669"><ele>214.33333333333334</ele><time>2026-04-25T12:16:56.999Z</time></trkpt><trkpt lat="41.5381327002782" lon="14.94866336692703"><ele>212.66666666666669</ele><time>2026-04-25T12:16:57.999Z</time></trkpt><trkpt lat="41.53823173467563" lon="14.948636655483483"><ele>211.0</ele><time>2026-04-25T12:16:59.999Z</time></trkpt><trkpt lat="41.53829746033022" lon="14.948609120978473"><ele>209.33333333333334</ele><time>2026-04-25T12:17:00.999Z</time></trkpt><trkpt lat="41.53839149678574" lon="14.948539260361816"><ele>207.66666666666669</ele><time>2026-04-25T12:17:02.999Z</time></trkpt><trkpt lat="41.53847523117167" lon="14.948509831471915"><ele>206.0</ele><time>2026-04-25T12:17:04.999Z</time></trkpt><trkpt lat="41.5385383097335" lon="14.948521307323901"><ele>206.00000000000003</ele><time>2026-04-25T12:17:13.999Z</time></trkpt><trkpt lat="41.538596270240504" lon="14.948477704883006"><ele>206.0</ele><time>2026-04-25T12:17:19.999Z</time></trkpt><trkpt lat="41.538662228756024" lon="14.948414045843771"><ele>206.0</ele><time>2026-04-25T12:17:22.999Z</time></trkpt><trkpt lat="41.538724262188985" lon="14.948373860787406"><ele>206.0</ele><time>2026-04-25T12:17:23.999Z</time></trkpt><trkpt lat="41.53877735938047" lon="14.948322205929236"><ele>206.00000000000003</ele><time>2026-04-25T12:17:24.999Z</time></trkpt><trkpt lat="41.53882971359555" lon="14.948205008115991"><ele>206.0</ele><time>2026-04-25T12:17:26.999Z</time></trkpt><trkpt lat="41.53887461592835" lon="14.948042294443397"><ele>206.4</ele><time>2026-04-25T12:17:28.999Z</time></trkpt><trkpt lat="41.538911964336926" lon="14.947949642979053"><ele>206.8</ele><time>2026-04-25T12:17:29.999Z</time></trkpt><trkpt lat="41.53894603024973" lon="14.947776783210035"><ele>207.20000000000002</ele><time>2026-04-25T12:17:30.999Z</time></trkpt><trkpt lat="41.538967625801284" lon="14.947613338644201"><ele>207.60000000000002</ele><time>2026-04-25T12:17:31.999Z</time></trkpt><trkpt lat="41.53901378781161" lon="14.947482190427026"><ele>208.0</ele><time>2026-04-25T12:17:32.999Z</time></trkpt><trkpt lat="41.53904733488308" lon="14.947353132784064"><ele>208.75</ele><time>2026-04-25T12:17:33.999Z</time></trkpt><trkpt lat="41.53909955016264" lon="14.947184782531918"><ele>209.5</ele><time>2026-04-25T12:17:34.999Z</time></trkpt><trkpt lat="41.539159782266076" lon="14.947027531244055"><ele>210.25</ele><time>2026-04-25T12:17:35.999Z</time></trkpt><trkpt lat="41.53920940013785" lon="14.946886022366227"><ele>211.0</ele><time>2026-04-25T12:17:36.999Z</time></trkpt><trkpt lat="41.53925608752646" lon="14.946731259169654"><ele>210.60000000000002</ele><time>2026-04-25T12:17:37.999Z</time></trkpt><trkpt lat="41.5393117192379" lon="14.946600035944856"><ele>210.2</ele><time>2026-04-25T12:17:38.999Z</time></trkpt><trkpt lat="41.5393726816334" lon="14.9464623053519"><ele>209.8</ele><time>2026-04-25T12:17:39.999Z</time></trkpt><trkpt lat="41.53942964386073" lon="14.946340479273172"><ele>209.39999999999998</ele><time>2026-04-25T12:17:40.999Z</time></trkpt><trkpt lat="41.53950952611139" lon="14.946257843937298"><ele>209.0</ele><time>2026-04-25T12:17:41.999Z</time></trkpt><trkpt lat="41.53956139711395" lon="14.946209453744723"><ele>210.39999999999998</ele><time>2026-04-25T12:17:42.999Z</time></trkpt><trkpt lat="41.53963624511231" lon="14.946147578534204"><ele>211.8</ele><time>2026-04-25T12:17:43.999Z</time></trkpt><trkpt lat="41.53970311820101" lon="14.946105891509436"><ele>213.20000000000002</ele><time>2026-04-25T12:17:44.999Z</time></trkpt><trkpt lat="41.53977737566399" lon="14.946064428997937"><ele>214.60000000000002</ele><time>2026-04-25T12:17:45.999Z</time></trkpt><trkpt lat="41.53985974564528" lon="14.946070095209029"><ele>216.0</ele><time>2026-04-25T12:17:46.999Z</time></trkpt><trkpt lat="41.53999425140016" lon="14.94608965526273"><ele>216.0</ele><time>2026-04-25T12:18:26.999Z</time></trkpt><trkpt lat="41.540118849061905" lon="14.946139519587042"><ele>216.0</ele><time>2026-04-25T12:18:27.999Z</time></trkpt><trkpt lat="41.54025666945968" lon="14.946191519245339"><ele>216.0</ele><time>2026-04-25T12:18:28.999Z</time></trkpt><trkpt lat="41.54041688401423" lon="14.946258195367657"><ele>216.0</ele><time>2026-04-25T12:18:29.999Z</time></trkpt><trkpt lat="41.540556548358694" lon="14.946325215177428"><ele>214.5</ele><time>2026-04-25T12:18:30.999Z</time></trkpt><trkpt lat="41.54067833166817" lon="14.94636503164537"><ele>213.0</ele><time>2026-04-25T12:18:31.999Z</time></trkpt><trkpt lat="41.54078023311997" lon="14.946387742417604"><ele>211.5</ele><time>2026-04-25T12:18:32.999Z</time></trkpt><trkpt lat="41.54090508233281" lon="14.946441521465912"><ele>210.0</ele><time>2026-04-25T12:18:33.999Z</time></trkpt><trkpt lat="41.54102347414345" lon="14.946468496195962"><ele>210.0</ele><time>2026-04-25T12:18:34.999Z</time></trkpt><trkpt lat="41.54114790285383" lon="14.946499546897103"><ele>210.0</ele><time>2026-04-25T12:18:35.999Z</time></trkpt><trkpt lat="41.54126694630318" lon="14.946551662256468"><ele>210.0</ele><time>2026-04-25T12:18:36.999Z</time></trkpt><trkpt lat="41.541440118912774" lon="14.946591766248657"><ele>210.0</ele><time>2026-04-25T12:18:37.999Z</time></trkpt><trkpt lat="41.54160873413874" lon="14.94661370900217"><ele>210.5</ele><time>2026-04-25T12:18:38.999Z</time></trkpt><trkpt lat="41.541756978358414" lon="14.946633701622318"><ele>211.0</ele><time>2026-04-25T12:18:39.999Z</time></trkpt><trkpt lat="41.54190556885961" lon="14.94669443375141"><ele>211.5</ele><time>2026-04-25T12:18:40.999Z</time></trkpt><trkpt lat="41.54201901278947" lon="14.94674250304915"><ele>212.0</ele><time>2026-04-25T12:18:41.999Z</time></trkpt><trkpt lat="41.54212912830797" lon="14.946800391706182"><ele>213.0</ele><time>2026-04-25T12:18:42.999Z</time></trkpt><trkpt lat="41.54221708272589" lon="14.946845799987386"><ele>214.0</ele><time>2026-04-25T12:18:43.999Z</time></trkpt><trkpt lat="41.542290583907715" lon="14.946861390139418"><ele>215.0</ele><time>2026-04-25T12:18:44.999Z</time></trkpt><trkpt lat="41.54240032986731" lon="14.94687269022038"><ele>216.0</ele><time>2026-04-25T12:18:46.999Z</time></trkpt><trkpt lat="41.54250767955028" lon="14.946765457978884"><ele>217.0</ele><time>2026-04-25T12:18:47.999Z</time></trkpt><trkpt lat="41.54260912134073" lon="14.946755749561397"><ele>217.0</ele><time>2026-04-25T12:18:48.999Z</time></trkpt><trkpt lat="41.54270088616772" lon="14.94678601339903"><ele>217.0</ele><time>2026-04-25T12:18:49.999Z</time></trkpt><trkpt lat="41.54276418643313" lon="14.94683754199104"><ele>217.0</ele><time>2026-04-25T12:18:50.999Z</time></trkpt><trkpt lat="41.5428036845305" lon="14.946968057900886"><ele>217.0</ele><time>2026-04-25T12:18:51.999Z</time></trkpt><trkpt lat="41.54287625353658" lon="14.94712806566531"><ele>217.0</ele><time>2026-04-25T12:18:52.999Z</time></trkpt><trkpt lat="41.54296641152948" lon="14.947272796449008"><ele>217.5</ele><time>2026-04-25T12:18:53.999Z</time></trkpt><trkpt lat="41.5430364013579" lon="14.947410049491237"><ele>218.0</ele><time>2026-04-25T12:18:54.999Z</time></trkpt><trkpt lat="41.54314872426275" lon="14.947536111390942"><ele>218.5</ele><time>2026-04-25T12:18:55.999Z</time></trkpt><trkpt lat="41.54325827893335" lon="14.947672245048404"><ele>219.0</ele><time>2026-04-25T12:18:56.999Z</time></trkpt><trkpt lat="41.543359483125826" lon="14.947747289403038"><ele>219.0</ele><time>2026-04-25T12:18:57.999Z</time></trkpt><trkpt lat="41.54345201066058" lon="14.947811517004345"><ele>219.0</ele><time>2026-04-25T12:18:58.999Z</time></trkpt><trkpt lat="41.54352969218499" lon="14.947860025923763"><ele>219.0</ele><time>2026-04-25T12:18:59.999Z</time></trkpt><trkpt lat="41.543617489606525" lon="14.947918408406927"><ele>219.0</ele><time>2026-04-25T12:19:00.999Z</time></trkpt><trkpt lat="41.54367983915806" lon="14.94795708259591"><ele>219.0</ele><time>2026-04-25T12:19:01.999Z</time></trkpt><trkpt lat="41.54373977134527" lon="14.94800661070905"><ele>219.0</ele><time>2026-04-25T12:19:02.999Z</time></trkpt><trkpt lat="41.54379223520628" lon="14.94806040895175"><ele>219.0</ele><time>2026-04-25T12:19:03.999Z</time></trkpt><trkpt lat="41.54387329424583" lon="14.94812977059373"><ele>218.99999999999997</ele><time>2026-04-25T12:19:04.999Z</time></trkpt><trkpt lat="41.5439405063078" lon="14.948191999505392"><ele>218.99999999999997</ele><time>2026-04-25T12:19:06.999Z</time></trkpt><trkpt lat="41.54386801110962" lon="14.948125294430577"><ele>219.0</ele><time>2026-04-25T12:19:13.999Z</time></trkpt><trkpt lat="41.54380479527477" lon="14.948074090456197"><ele>219.0</ele><time>2026-04-25T12:19:14.999Z</time></trkpt><trkpt lat="41.543710476960996" lon="14.947992848097302"><ele>219.0</ele><time>2026-04-25T12:19:15.999Z</time></trkpt><trkpt lat="41.54359636958591" lon="14.947925080412558"><ele>219.0</ele><time>2026-04-25T12:19:16.999Z</time></trkpt><trkpt lat="41.5434838765293" lon="14.947842349500858"><ele>219.0</ele><time>2026-04-25T12:19:17.999Z</time></trkpt><trkpt lat="41.543390513574245" lon="14.947720312072555"><ele>219.0</ele><time>2026-04-25T12:19:18.999Z</time></trkpt><trkpt lat="41.543306966353285" lon="14.947647778734488"><ele>219.0</ele><time>2026-04-25T12:19:19.999Z</time></trkpt><trkpt lat="41.54323355366803" lon="14.947577938082848"><ele>218.99999999999997</ele><time>2026-04-25T12:19:20.999Z</time></trkpt><trkpt lat="41.543127530488285" lon="14.94748902466523"><ele>218.99999999999997</ele><time>2026-04-25T12:19:21.999Z</time></trkpt><trkpt lat="41.543075597796665" lon="14.947395374542507"><ele>219.0</ele><time>2026-04-25T12:19:22.999Z</time></trkpt><trkpt lat="41.54303023165758" lon="14.947329506067302"><ele>219.0</ele><time>2026-04-25T12:19:23.999Z</time></trkpt><trkpt lat="41.542975262990765" lon="14.947240263314503"><ele>218.6</ele><time>2026-04-25T12:19:25.999Z</time></trkpt><trkpt lat="41.54287772948533" lon="14.947088103372433"><ele>218.2</ele><time>2026-04-25T12:19:27.999Z</time></trkpt><trkpt lat="41.542811615096184" lon="14.946946785907148"><ele>217.79999999999998</ele><time>2026-04-25T12:19:28.999Z</time></trkpt><trkpt lat="41.54276206294654" lon="14.946840595842787"><ele>217.39999999999998</ele><time>2026-04-25T12:19:29.999Z</time></trkpt><trkpt lat="41.542718903601404" lon="14.9467671407681"><ele>217.0</ele><time>2026-04-25T12:19:30.999Z</time></trkpt><trkpt lat="41.5426456245742" lon="14.94673580951754"><ele>217.0</ele><time>2026-04-25T12:19:31.999Z</time></trkpt><trkpt lat="41.542566464371916" lon="14.946707093742294"><ele>217.0</ele><time>2026-04-25T12:19:32.999Z</time></trkpt><trkpt lat="41.542439351127754" lon="14.946750182360391"><ele>217.0</ele><time>2026-04-25T12:19:33.999Z</time></trkpt><trkpt lat="41.5423448095722" lon="14.946833160918368"><ele>217.0</ele><time>2026-04-25T12:19:34.999Z</time></trkpt><trkpt lat="41.54227341120471" lon="14.946862430920772"><ele>217.0</ele><time>2026-04-25T12:19:35.999Z</time></trkpt><trkpt lat="41.542216626139265" lon="14.946817151084861"><ele>217.0</ele><time>2026-04-25T12:19:36.999Z</time></trkpt><trkpt lat="41.542127544163094" lon="14.946751918729447"><ele>217.0</ele><time>2026-04-25T12:19:37.999Z</time></trkpt><trkpt lat="41.54200776623614" lon="14.946701659242184"><ele>217.0</ele><time>2026-04-25T12:19:38.999Z</time></trkpt><trkpt lat="41.54186688592912" lon="14.94663397885676"><ele>217.0</ele><time>2026-04-25T12:19:39.999Z</time></trkpt><trkpt lat="41.541699525484916" lon="14.946595341578066"><ele>215.33333333333331</ele><time>2026-04-25T12:19:40.999Z</time></trkpt><trkpt lat="41.54152296726868" lon="14.946566064927723"><ele>213.66666666666669</ele><time>2026-04-25T12:19:41.999Z</time></trkpt><trkpt lat="41.54133717867218" lon="14.946526497187143"><ele>212.0</ele><time>2026-04-25T12:19:42.999Z</time></trkpt><trkpt lat="41.54118516711735" lon="14.94648020828087"><ele>211.5</ele><time>2026-04-25T12:19:43.999Z</time></trkpt><trkpt lat="41.54103558841399" lon="14.946433930176195"><ele>211.0</ele><time>2026-04-25T12:19:44.999Z</time></trkpt><trkpt lat="41.540904139016895" lon="14.946395871941965"><ele>210.5</ele><time>2026-04-25T12:19:45.999Z</time></trkpt><trkpt lat="41.54076895862902" lon="14.946352576601466"><ele>210.0</ele><time>2026-04-25T12:19:46.999Z</time></trkpt><trkpt lat="41.54064496319978" lon="14.946291469723331"><ele>210.0</ele><time>2026-04-25T12:19:47.999Z</time></trkpt><trkpt lat="41.54053830441646" lon="14.946236932461625"><ele>210.0</ele><time>2026-04-25T12:19:48.999Z</time></trkpt><trkpt lat="41.54041880150307" lon="14.946185187014207"><ele>210.0</ele><time>2026-04-25T12:19:49.999Z</time></trkpt><trkpt lat="41.54032149895537" lon="14.946148255424053"><ele>210.0</ele><time>2026-04-25T12:19:50.999Z</time></trkpt><trkpt lat="41.540221617356984" lon="14.946113091248831"><ele>210.0</ele><time>2026-04-25T12:19:51.999Z</time></trkpt><trkpt lat="41.540148425508896" lon="14.946093187150248"><ele>211.5</ele><time>2026-04-25T12:19:52.999Z</time></trkpt><trkpt lat="41.54003621227337" lon="14.946080985176083"><ele>213.0</ele><time>2026-04-25T12:19:54.999Z</time></trkpt><trkpt lat="41.53993433278347" lon="14.946080161505845"><ele>214.5</ele><time>2026-04-25T12:19:56.999Z</time></trkpt><trkpt lat="41.54002227717969" lon="14.94595026087934"><ele>216.0</ele><time>2026-04-25T12:20:02.999Z</time></trkpt><trkpt lat="41.54012904022904" lon="14.945942793091382"><ele>216.0</ele><time>2026-04-25T12:20:04.999Z</time></trkpt><trkpt lat="41.540217288037894" lon="14.945932827621549"><ele>216.00000000000003</ele><time>2026-04-25T12:20:06.999Z</time></trkpt><trkpt lat="41.54015358302116" lon="14.945958162992909"><ele>216.00000000000003</ele><time>2026-04-25T12:28:42Z</time></trkpt><trkpt lat="41.54007970378041" lon="14.945975668715976"><ele>216.0</ele><time>2026-04-25T12:28:43Z</time></trkpt><trkpt lat="41.53998766286658" lon="14.946112085723648"><ele>216.0</ele><time>2026-04-25T12:28:45Z</time></trkpt><trkpt lat="41.53989629341883" lon="14.946057330469513"><ele>216.0</ele><time>2026-04-25T12:28:48Z</time></trkpt><trkpt lat="41.539819521769836" lon="14.946065487330436"><ele>216.0</ele><time>2026-04-25T12:28:50Z</time></trkpt><trkpt lat="41.539730062680775" lon="14.946055181572914"><ele>216.0</ele><time>2026-04-25T12:28:52Z</time></trkpt><trkpt lat="41.53961864723046" lon="14.946099482679045"><ele>216.0</ele><time>2026-04-25T12:28:54Z</time></trkpt><trkpt lat="41.53955139928704" lon="14.946142399841591"><ele>216.0</ele><time>2026-04-25T12:28:55Z</time></trkpt><trkpt lat="41.5394952868366" lon="14.946181751297873"><ele>216.0</ele><time>2026-04-25T12:28:56Z</time></trkpt><trkpt lat="41.5394421798106" lon="14.946256692107289"><ele>215.16666666666666</ele><time>2026-04-25T12:28:57Z</time></trkpt><trkpt lat="41.53938253202051" lon="14.946325735862413"><ele>214.33333333333331</ele><time>2026-04-25T12:28:58Z</time></trkpt><trkpt lat="41.53932728467262" lon="14.946401798542285"><ele>213.5</ele><time>2026-04-25T12:28:59Z</time></trkpt><trkpt lat="41.53928638839061" lon="14.946488558692261"><ele>212.66666666666666</ele><time>2026-04-25T12:29:00Z</time></trkpt><trkpt lat="41.53924436653583" lon="14.94658752869967"><ele>211.83333333333331</ele><time>2026-04-25T12:29:01Z</time></trkpt><trkpt lat="41.539198542596544" lon="14.946715266070496"><ele>211.0</ele><time>2026-04-25T12:29:02Z</time></trkpt><trkpt lat="41.539153388997065" lon="14.946868732251442"><ele>210.99999999999997</ele><time>2026-04-25T12:29:03Z</time></trkpt><trkpt lat="41.53910651708103" lon="14.946996198052139"><ele>211.0</ele><time>2026-04-25T12:29:04Z</time></trkpt><trkpt lat="41.53907225595999" lon="14.947115814726393"><ele>211.0</ele><time>2026-04-25T12:29:05Z</time></trkpt><trkpt lat="41.539055135912044" lon="14.947197145238245"><ele>211.0</ele><time>2026-04-25T12:29:06Z</time></trkpt><trkpt lat="41.53901689660849" lon="14.947311408724342"><ele>210.99999999999997</ele><time>2026-04-25T12:29:08Z</time></trkpt><trkpt lat="41.53897542732184" lon="14.947390638592994"><ele>211.0</ele><time>2026-04-25T12:29:20Z</time></trkpt><trkpt lat="41.53897460256292" lon="14.947506144477183"><ele>210.49999999999997</ele><time>2026-04-25T12:29:21Z</time></trkpt><trkpt lat="41.53891956283022" lon="14.947664774140396"><ele>210.0</ele><time>2026-04-25T12:29:23Z</time></trkpt><trkpt lat="41.538892383506294" lon="14.94775176996089"><ele>209.5</ele><time>2026-04-25T12:29:23.999Z</time></trkpt><trkpt lat="41.53887204609556" lon="14.947837199348301"><ele>209.0</ele><time>2026-04-25T12:29:24.999Z</time></trkpt><trkpt lat="41.5388646030003" lon="14.947928251168392"><ele>208.49999999999997</ele><time>2026-04-25T12:29:25.999Z</time></trkpt><trkpt lat="41.53883984768655" lon="14.94802753198105"><ele>208.0</ele><time>2026-04-25T12:29:26.999Z</time></trkpt><trkpt lat="41.53881430387037" lon="14.948162182910178"><ele>207.99999999999997</ele><time>2026-04-25T12:29:28.999Z</time></trkpt><trkpt lat="41.53878142221212" lon="14.948259469852587"><ele>208.0</ele><time>2026-04-25T12:29:30.999Z</time></trkpt><trkpt lat="41.53868700688727" lon="14.94833523275663"><ele>208.0</ele><time>2026-04-25T12:29:32.999Z</time></trkpt><trkpt lat="41.53859335875816" lon="14.948387698176559"><ele>208.0</ele><time>2026-04-25T12:29:34.999Z</time></trkpt><trkpt lat="41.53853834706825" lon="14.948433088376046"><ele>207.99999999999997</ele><time>2026-04-25T12:29:40.999Z</time></trkpt><trkpt lat="41.53846821727047" lon="14.948459610279508"><ele>208.0</ele><time>2026-04-25T12:29:48Z</time></trkpt><trkpt lat="41.53839036651037" lon="14.94851485380252"><ele>207.60000000000002</ele><time>2026-04-25T12:29:50Z</time></trkpt><trkpt lat="41.538289554658554" lon="14.948556627450074"><ele>207.20000000000002</ele><time>2026-04-25T12:29:52Z</time></trkpt><trkpt lat="41.53821623995675" lon="14.948615338985283"><ele>206.8</ele><time>2026-04-25T12:29:53Z</time></trkpt><trkpt lat="41.53811229428898" lon="14.948660048455139"><ele>206.4</ele><time>2026-04-25T12:29:54Z</time></trkpt><trkpt lat="41.53801734462279" lon="14.948671398942537"><ele>206.0</ele><time>2026-04-25T12:29:55Z</time></trkpt><trkpt lat="41.537941245043775" lon="14.948689064237879"><ele>207.60000000000002</ele><time>2026-04-25T12:29:56Z</time></trkpt><trkpt lat="41.5378560279862" lon="14.948696829464282"><ele>209.2</ele><time>2026-04-25T12:29:57Z</time></trkpt><trkpt lat="41.53771383795756" lon="14.948686260380862"><ele>210.79999999999998</ele><time>2026-04-25T12:29:59Z</time></trkpt><trkpt lat="41.53764958445542" lon="14.948623492618854"><ele>212.39999999999998</ele><time>2026-04-25T12:30:00Z</time></trkpt><trkpt lat="41.53759152567519" lon="14.94854404913012"><ele>214.0</ele><time>2026-04-25T12:30:01Z</time></trkpt><trkpt lat="41.53753568885533" lon="14.94836685510046"><ele>214.0</ele><time>2026-04-25T12:30:03Z</time></trkpt><trkpt lat="41.537555421243766" lon="14.948237823480206"><ele>213.99999999999997</ele><time>2026-04-25T12:30:04Z</time></trkpt><trkpt lat="41.53759361642437" lon="14.94812565412828"><ele>213.99999999999997</ele><time>2026-04-25T12:30:05Z</time></trkpt><trkpt lat="41.53763776402087" lon="14.947996544848644"><ele>214.0</ele><time>2026-04-25T12:30:06Z</time></trkpt><trkpt lat="41.53766204806027" lon="14.947870642522963"><ele>214.0</ele><time>2026-04-25T12:30:07Z</time></trkpt><trkpt lat="41.53767036651961" lon="14.947774881052995"><ele>214.0</ele><time>2026-04-25T12:30:08Z</time></trkpt><trkpt lat="41.5376562149289" lon="14.94766945488249"><ele>213.99999999999997</ele><time>2026-04-25T12:30:09Z</time></trkpt><trkpt lat="41.537668356462035" lon="14.947565877220576"><ele>213.99999999999997</ele><time>2026-04-25T12:30:10Z</time></trkpt><trkpt lat="41.53767705042952" lon="14.947442467090198"><ele>214.0</ele><time>2026-04-25T12:30:11Z</time></trkpt><trkpt lat="41.537664675286216" lon="14.947251785817858"><ele>214.0</ele><time>2026-04-25T12:30:13Z</time></trkpt><trkpt lat="41.5376482202633" lon="14.947052571048774"><ele>214.16666666666666</ele><time>2026-04-25T12:30:15Z</time></trkpt><trkpt lat="41.53762098515882" lon="14.946944818599594"><ele>214.33333333333331</ele><time>2026-04-25T12:30:16Z</time></trkpt><trkpt lat="41.53756903611438" lon="14.946836938454293"><ele>214.5</ele><time>2026-04-25T12:30:17Z</time></trkpt><trkpt lat="41.53750886368618" lon="14.946718564764605"><ele>214.66666666666669</ele><time>2026-04-25T12:30:19Z</time></trkpt><trkpt lat="41.53747126294306" lon="14.94664868543539"><ele>214.83333333333334</ele><time>2026-04-25T12:30:20Z</time></trkpt><trkpt lat="41.53739564277594" lon="14.946620494867533"><ele>215.0</ele><time>2026-04-25T12:30:21Z</time></trkpt><trkpt lat="41.53731399777988" lon="14.946628408717588"><ele>215.0</ele><time>2026-04-25T12:30:22Z</time></trkpt><trkpt lat="41.537247864518335" lon="14.946662933488444"><ele>215.0</ele><time>2026-04-25T12:30:23Z</time></trkpt><trkpt lat="41.537197878692965" lon="14.946760882325371"><ele>215.0</ele><time>2026-04-25T12:30:24Z</time></trkpt><trkpt lat="41.53715166968822" lon="14.947058208371484"><ele>215.0</ele><time>2026-04-25T12:30:26Z</time></trkpt><trkpt lat="41.53710363324436" lon="14.947191089656183"><ele>215.00000000000003</ele><time>2026-04-25T12:30:27Z</time></trkpt><trkpt lat="41.537075054507774" lon="14.94728531409871"><ele>215.0</ele><time>2026-04-25T12:30:28Z</time></trkpt><trkpt lat="41.537042599846565" lon="14.947380570777334"><ele>215.0</ele><time>2026-04-25T12:30:29Z</time></trkpt><trkpt lat="41.53699770857374" lon="14.947493813043774"><ele>215.0</ele><time>2026-04-25T12:30:31Z</time></trkpt><trkpt lat="41.53695759442012" lon="14.94757949649128"><ele>215.00000000000003</ele><time>2026-04-25T12:30:33Z</time></trkpt><trkpt lat="41.53691599742222" lon="14.947669928670047"><ele>215.0</ele><time>2026-04-25T12:30:34Z</time></trkpt><trkpt lat="41.53691465764472" lon="14.947825070582999"><ele>217.25</ele><time>2026-04-25T12:30:35Z</time></trkpt><trkpt lat="41.5369050018704" lon="14.947996753976108"><ele>219.5</ele><time>2026-04-25T12:30:36Z</time></trkpt><trkpt lat="41.536887722187664" lon="14.94818813387493"><ele>221.75</ele><time>2026-04-25T12:30:37Z</time></trkpt><trkpt lat="41.536893560661404" lon="14.948374322221884"><ele>224.0</ele><time>2026-04-25T12:30:38Z</time></trkpt><trkpt lat="41.53691734731021" lon="14.948556618708421"><ele>225.75</ele><time>2026-04-25T12:30:39Z</time></trkpt><trkpt lat="41.536970612223854" lon="14.948729603576535"><ele>227.5</ele><time>2026-04-25T12:30:40Z</time></trkpt><trkpt lat="41.5370323929197" lon="14.948880672961566"><ele>229.25</ele><time>2026-04-25T12:30:41Z</time></trkpt><trkpt lat="41.537114681450724" lon="14.949009425984052"><ele>231.0</ele><time>2026-04-25T12:30:41.999Z</time></trkpt><trkpt lat="41.53719406341174" lon="14.949120271695005"><ele>229.5</ele><time>2026-04-25T12:30:42.999Z</time></trkpt><trkpt lat="41.5373180510753" lon="14.94927314691148"><ele>228.0</ele><time>2026-04-25T12:30:43.999Z</time></trkpt><trkpt lat="41.53743045577593" lon="14.949382171090695"><ele>226.5</ele><time>2026-04-25T12:30:44.999Z</time></trkpt><trkpt lat="41.537515851779126" lon="14.949524833206144"><ele>225.0</ele><time>2026-04-25T12:30:45.999Z</time></trkpt><trkpt lat="41.53757316230689" lon="14.949722555780932"><ele>225.0</ele><time>2026-04-25T12:30:46.999Z</time></trkpt><trkpt lat="41.537636040562184" lon="14.94995679111091"><ele>225.0</ele><time>2026-04-25T12:30:47.999Z</time></trkpt><trkpt lat="41.53767793237255" lon="14.950166304893967"><ele>225.0</ele><time>2026-04-25T12:30:48.999Z</time></trkpt><trkpt lat="41.53777950098435" lon="14.950375145438924"><ele>226.66666666666669</ele><time>2026-04-25T12:30:49.999Z</time></trkpt><trkpt lat="41.53789723485349" lon="14.950594229202169"><ele>228.33333333333334</ele><time>2026-04-25T12:30:50.999Z</time></trkpt><trkpt lat="41.53804488464494" lon="14.950857550156124"><ele>230.0</ele><time>2026-04-25T12:30:51.999Z</time></trkpt><trkpt lat="41.53820084806408" lon="14.951095768210314"><ele>230.0</ele><time>2026-04-25T12:30:52.999Z</time></trkpt><trkpt lat="41.53835403126869" lon="14.951297634891658"><ele>230.0</ele><time>2026-04-25T12:30:53.999Z</time></trkpt><trkpt lat="41.53852439561274" lon="14.951455279732677"><ele>230.0</ele><time>2026-04-25T12:30:54.999Z</time></trkpt><trkpt lat="41.53867435576021" lon="14.95158330101961"><ele>227.66666666666669</ele><time>2026-04-25T12:30:55.999Z</time></trkpt><trkpt lat="41.538807835162494" lon="14.951729603367108"><ele>225.33333333333331</ele><time>2026-04-25T12:30:56.999Z</time></trkpt><trkpt lat="41.53891831668759" lon="14.95191743005111"><ele>223.0</ele><time>2026-04-25T12:30:57.999Z</time></trkpt><trkpt lat="41.5390001133438" lon="14.952145872418093"><ele>223.0</ele><time>2026-04-25T12:30:58.999Z</time></trkpt><trkpt lat="41.53904303278695" lon="14.95240298978428"><ele>223.0</ele><time>2026-04-25T12:30:59.999Z</time></trkpt><trkpt lat="41.53906351424751" lon="14.952701737624555"><ele>223.0</ele><time>2026-04-25T12:31:00.999Z</time></trkpt><trkpt lat="41.5390719286818" lon="14.953025831029507"><ele>225.0</ele><time>2026-04-25T12:31:01.999Z</time></trkpt><trkpt lat="41.53909161054843" lon="14.95335700277832"><ele>227.0</ele><time>2026-04-25T12:31:02.999Z</time></trkpt><trkpt lat="41.539111951566646" lon="14.953675668857766"><ele>226.5</ele><time>2026-04-25T12:31:03.999Z</time></trkpt><trkpt lat="41.539139206399994" lon="14.953981357237433"><ele>226.0</ele><time>2026-04-25T12:31:04.999Z</time></trkpt><trkpt lat="41.539162799505654" lon="14.954283435461239"><ele>226.0</ele><time>2026-04-25T12:31:05.999Z</time></trkpt><trkpt lat="41.53918641145185" lon="14.9545696536465"><ele>226.0</ele><time>2026-04-25T12:31:06.999Z</time></trkpt><trkpt lat="41.53920396169359" lon="14.954852458608885"><ele>226.0</ele><time>2026-04-25T12:31:07.999Z</time></trkpt><trkpt lat="41.53922528837287" lon="14.95511396430462"><ele>228.0</ele><time>2026-04-25T12:31:08.999Z</time></trkpt><trkpt lat="41.53926701765272" lon="14.955380673272368"><ele>230.0</ele><time>2026-04-25T12:31:09.999Z</time></trkpt><trkpt lat="41.539347363222234" lon="14.955663550217576"><ele>232.0</ele><time>2026-04-25T12:31:10.999Z</time></trkpt><trkpt lat="41.539442552707364" lon="14.955946121687512"><ele>234.0</ele><time>2026-04-25T12:31:11.999Z</time></trkpt><trkpt lat="41.539532665302" lon="14.956216664572576"><ele>236.0</ele><time>2026-04-25T12:31:12.999Z</time></trkpt><trkpt lat="41.53959606647107" lon="14.956456324539982"><ele>238.0</ele><time>2026-04-25T12:31:13.999Z</time></trkpt><trkpt lat="41.53964263242779" lon="14.95665759808643"><ele>234.5</ele><time>2026-04-25T12:31:14.999Z</time></trkpt><trkpt lat="41.5396708891664" lon="14.956835399065769"><ele>231.0</ele><time>2026-04-25T12:31:15.999Z</time></trkpt><trkpt lat="41.539661392920586" lon="14.957000773929135"><ele>227.5</ele><time>2026-04-25T12:31:16.999Z</time></trkpt><trkpt lat="41.539609497925035" lon="14.957185857374432"><ele>224.0</ele><time>2026-04-25T12:31:17.999Z</time></trkpt><trkpt lat="41.53955567890501" lon="14.95735244043553"><ele>224.25</ele><time>2026-04-25T12:31:18.999Z</time></trkpt><trkpt lat="41.539532372270266" lon="14.957509523343615"><ele>224.5</ele><time>2026-04-25T12:31:19.999Z</time></trkpt><trkpt lat="41.53954891152092" lon="14.957664535521987"><ele>224.75</ele><time>2026-04-25T12:31:20.999Z</time></trkpt><trkpt lat="41.53960315848662" lon="14.957836441558646"><ele>225.0</ele><time>2026-04-25T12:31:21.999Z</time></trkpt><trkpt lat="41.539677132335086" lon="14.95802404435108"><ele>225.0</ele><time>2026-04-25T12:31:22.999Z</time></trkpt><trkpt lat="41.53973812947449" lon="14.958235800550836"><ele>225.0</ele><time>2026-04-25T12:31:23.999Z</time></trkpt><trkpt lat="41.53980167408953" lon="14.958475227123243"><ele>225.0</ele><time>2026-04-25T12:31:24.999Z</time></trkpt><trkpt lat="41.539849962881675" lon="14.958720532133846"><ele>227.0</ele><time>2026-04-25T12:31:25.999Z</time></trkpt><trkpt lat="41.53990729664678" lon="14.958932833546893"><ele>229.0</ele><time>2026-04-25T12:31:26.999Z</time></trkpt><trkpt lat="41.539945650387516" lon="14.959124631003158"><ele>231.0</ele><time>2026-04-25T12:31:27.999Z</time></trkpt><trkpt lat="41.539952444288325" lon="14.959309640144673"><ele>232.25</ele><time>2026-04-25T12:31:28.999Z</time></trkpt><trkpt lat="41.539971235431665" lon="14.959491030656379"><ele>233.5</ele><time>2026-04-25T12:31:29.999Z</time></trkpt><trkpt lat="41.540034297990275" lon="14.95967535047278"><ele>234.75</ele><time>2026-04-25T12:31:30.999Z</time></trkpt><trkpt lat="41.5401296849777" lon="14.959847917950402"><ele>236.0</ele><time>2026-04-25T12:31:31.999Z</time></trkpt><trkpt lat="41.54024663539974" lon="14.959993300638871"><ele>237.0</ele><time>2026-04-25T12:31:32.999Z</time></trkpt><trkpt lat="41.54040366529928" lon="14.96013294324698"><ele>238.0</ele><time>2026-04-25T12:31:33.999Z</time></trkpt><trkpt lat="41.5405863914438" lon="14.960244986061236"><ele>239.0</ele><time>2026-04-25T12:31:34.999Z</time></trkpt><trkpt lat="41.54075753825895" lon="14.960341733230832"><ele>239.0</ele><time>2026-04-25T12:31:35.999Z</time></trkpt><trkpt lat="41.54090192254318" lon="14.960431336150558"><ele>239.0</ele><time>2026-04-25T12:31:36.999Z</time></trkpt><trkpt lat="41.54103777107001" lon="14.960539388629533"><ele>239.0</ele><time>2026-04-25T12:31:37.999Z</time></trkpt><trkpt lat="41.5411644919542" lon="14.960683386500806"><ele>238.66666666666669</ele><time>2026-04-25T12:31:38.999Z</time></trkpt><trkpt lat="41.54126768735244" lon="14.960842905707098"><ele>238.33333333333331</ele><time>2026-04-25T12:31:39.999Z</time></trkpt><trkpt lat="41.54136237121965" lon="14.961032056324076"><ele>238.0</ele><time>2026-04-25T12:31:40.999Z</time></trkpt><trkpt lat="41.541449621491196" lon="14.961212282937066"><ele>238.0</ele><time>2026-04-25T12:31:41.999Z</time></trkpt><trkpt lat="41.541521599731446" lon="14.961375410367461"><ele>238.0</ele><time>2026-04-25T12:31:42.999Z</time></trkpt><trkpt lat="41.54159268522474" lon="14.961526054816916"><ele>238.0</ele><time>2026-04-25T12:31:43.999Z</time></trkpt><trkpt lat="41.541668211237976" lon="14.961654416158954"><ele>238.0</ele><time>2026-04-25T12:31:44.999Z</time></trkpt><trkpt lat="41.54175540830944" lon="14.961746500219286"><ele>240.75</ele><time>2026-04-25T12:31:45.999Z</time></trkpt><trkpt lat="41.54185537368653" lon="14.961810321721721"><ele>243.5</ele><time>2026-04-25T12:31:46.999Z</time></trkpt><trkpt lat="41.54197549593609" lon="14.96181428317955"><ele>246.25</ele><time>2026-04-25T12:31:47.999Z</time></trkpt><trkpt lat="41.54210027455595" lon="14.961784041696086"><ele>249.0</ele><time>2026-04-25T12:31:48.999Z</time></trkpt><trkpt lat="41.54222585360471" lon="14.961710591596892"><ele>246.0</ele><time>2026-04-25T12:31:49.999Z</time></trkpt><trkpt lat="41.54232728793894" lon="14.961611448559948"><ele>243.0</ele><time>2026-04-25T12:31:50.999Z</time></trkpt><trkpt lat="41.542424094942284" lon="14.961500399072511"><ele>240.0</ele><time>2026-04-25T12:31:51.999Z</time></trkpt><trkpt lat="41.54252064628142" lon="14.961432052355716"><ele>237.0</ele><time>2026-04-25T12:31:52.999Z</time></trkpt><trkpt lat="41.5426297559451" lon="14.961429332619408"><ele>237.0</ele><time>2026-04-25T12:31:53.999Z</time></trkpt><trkpt lat="41.54272853823972" lon="14.961497419932806"><ele>237.0</ele><time>2026-04-25T12:31:54.999Z</time></trkpt><trkpt lat="41.54283096287588" lon="14.961616869050676"><ele>237.0</ele><time>2026-04-25T12:31:55.999Z</time></trkpt><trkpt lat="41.5429179911449" lon="14.961780459475404"><ele>237.0</ele><time>2026-04-25T12:31:56.999Z</time></trkpt><trkpt lat="41.54299960960784" lon="14.96195568068087"><ele>237.75</ele><time>2026-04-25T12:31:57.999Z</time></trkpt><trkpt lat="41.54307262542125" lon="14.962117640652238"><ele>238.5</ele><time>2026-04-25T12:31:58.999Z</time></trkpt><trkpt lat="41.54314086300509" lon="14.962255746382754"><ele>239.25</ele><time>2026-04-25T12:31:59.999Z</time></trkpt><trkpt lat="41.543211472375894" lon="14.962380499790516"><ele>240.0</ele><time>2026-04-25T12:32:00.999Z</time></trkpt><trkpt lat="41.54329030316886" lon="14.962479694935354"><ele>239.75</ele><time>2026-04-25T12:32:01.999Z</time></trkpt><trkpt lat="41.54338618883694" lon="14.962558255194462"><ele>239.5</ele><time>2026-04-25T12:32:02.999Z</time></trkpt><trkpt lat="41.5434987989149" lon="14.962614050238274"><ele>239.25</ele><time>2026-04-25T12:32:03.999Z</time></trkpt><trkpt lat="41.543620320539446" lon="14.962665736176968"><ele>239.0</ele><time>2026-04-25T12:32:04.999Z</time></trkpt><trkpt lat="41.543747845445786" lon="14.962725798805211"><ele>239.0</ele><time>2026-04-25T12:32:05.999Z</time></trkpt><trkpt lat="41.54387733244426" lon="14.96278159411735"><ele>239.0</ele><time>2026-04-25T12:32:06.999Z</time></trkpt><trkpt lat="41.5440201102724" lon="14.962840427036964"><ele>239.0</ele><time>2026-04-25T12:32:07.999Z</time></trkpt><trkpt lat="41.54417864459024" lon="14.962915820566895"><ele>239.0</ele><time>2026-04-25T12:32:08.999Z</time></trkpt><trkpt lat="41.54433496336611" lon="14.96302870340477"><ele>239.0</ele><time>2026-04-25T12:32:09.999Z</time></trkpt><trkpt lat="41.544470619039906" lon="14.963187727065652"><ele>239.0</ele><time>2026-04-25T12:32:10.999Z</time></trkpt><trkpt lat="41.5445635493688" lon="14.963403801230447"><ele>242.5</ele><time>2026-04-25T12:32:11.999Z</time></trkpt><trkpt lat="41.5446621647425" lon="14.963657395189006"><ele>246.0</ele><time>2026-04-25T12:32:12.999Z</time></trkpt><trkpt lat="41.5447583085822" lon="14.963951820839442"><ele>245.5</ele><time>2026-04-25T12:32:13.999Z</time></trkpt><trkpt lat="41.544853007213455" lon="14.964245249111206"><ele>245.0</ele><time>2026-04-25T12:32:14.999Z</time></trkpt><trkpt lat="41.5449721216047" lon="14.964548914331106"><ele>245.0</ele><time>2026-04-25T12:32:15.999Z</time></trkpt><trkpt lat="41.54509958073043" lon="14.964850596157044"><ele>245.0</ele><time>2026-04-25T12:32:16.999Z</time></trkpt><trkpt lat="41.54522710438712" lon="14.965168201580271"><ele>246.5</ele><time>2026-04-25T12:32:17.999Z</time></trkpt><trkpt lat="41.54534416519456" lon="14.965496124394207"><ele>248.0</ele><time>2026-04-25T12:32:18.999Z</time></trkpt><trkpt lat="41.545449898599415" lon="14.965788119450528"><ele>250.0</ele><time>2026-04-25T12:32:19.999Z</time></trkpt><trkpt lat="41.54554614481738" lon="14.966059423263316"><ele>252.0</ele><time>2026-04-25T12:32:20.999Z</time></trkpt><trkpt lat="41.545632092957426" lon="14.966313424747218"><ele>254.0</ele><time>2026-04-25T12:32:21.999Z</time></trkpt><trkpt lat="41.54571842852174" lon="14.966544736266675"><ele>255.66666666666669</ele><time>2026-04-25T12:32:22.999Z</time></trkpt><trkpt lat="41.54581425861611" lon="14.966737700479753"><ele>257.3333333333333</ele><time>2026-04-25T12:32:23.999Z</time></trkpt><trkpt lat="41.545921602383814" lon="14.966909885738048"><ele>259.0</ele><time>2026-04-25T12:32:24.999Z</time></trkpt><trkpt lat="41.54605743530949" lon="14.967090710587506"><ele>259.5</ele><time>2026-04-25T12:32:25.999Z</time></trkpt><trkpt lat="41.54625036027161" lon="14.967246496318515"><ele>260.0</ele><time>2026-04-25T12:32:26.999Z</time></trkpt><trkpt lat="41.546461514488975" lon="14.967408350187686"><ele>264.6666666666667</ele><time>2026-04-25T12:32:27.999Z</time></trkpt><trkpt lat="41.54665281897163" lon="14.96757553996353"><ele>269.3333333333333</ele><time>2026-04-25T12:32:28.999Z</time></trkpt><trkpt lat="41.54681304366612" lon="14.967728008508425"><ele>274.0</ele><time>2026-04-25T12:32:29.999Z</time></trkpt><trkpt lat="41.54695820697423" lon="14.967859642345502"><ele>271.25</ele><time>2026-04-25T12:32:30.999Z</time></trkpt><trkpt lat="41.54708708530205" lon="14.967973991179138"><ele>268.5</ele><time>2026-04-25T12:32:31.999Z</time></trkpt><trkpt lat="41.54719448335894" lon="14.968078446499987"><ele>265.75</ele><time>2026-04-25T12:32:32.999Z</time></trkpt><trkpt lat="41.547275277855626" lon="14.968153646418024"><ele>263.0</ele><time>2026-04-25T12:32:33.999Z</time></trkpt><trkpt lat="41.54731943091317" lon="14.968233146697989"><ele>263.0</ele><time>2026-04-25T12:32:34.999Z</time></trkpt><trkpt lat="41.547273169538414" lon="14.96832981067468"><ele>263.0</ele><time>2026-04-25T12:32:35.999Z</time></trkpt><trkpt lat="41.54716822184313" lon="14.968318598500225"><ele>263.0</ele><time>2026-04-25T12:32:36.999Z</time></trkpt><trkpt lat="41.54708252298201" lon="14.968278272824751"><ele>263.0</ele><time>2026-04-25T12:32:37.999Z</time></trkpt><trkpt lat="41.54699300471122" lon="14.968165657173506"><ele>263.0</ele><time>2026-04-25T12:32:38.999Z</time></trkpt><trkpt lat="41.546824373945235" lon="14.9680308064647"><ele>266.6666666666667</ele><time>2026-04-25T12:32:39.999Z</time></trkpt><trkpt lat="41.5466471720898" lon="14.967961036068457"><ele>270.3333333333333</ele><time>2026-04-25T12:32:40.999Z</time></trkpt><trkpt lat="41.54650119913634" lon="14.96787897200485"><ele>274.0</ele><time>2026-04-25T12:32:41.999Z</time></trkpt><trkpt lat="41.54639290648719" lon="14.967741421156942"><ele>274.0</ele><time>2026-04-25T12:32:42.999Z</time></trkpt><trkpt lat="41.54628321734654" lon="14.967684980503964"><ele>274.0</ele><time>2026-04-25T12:32:43.999Z</time></trkpt><trkpt lat="41.546165334776205" lon="14.967711993873746"><ele>274.0</ele><time>2026-04-25T12:32:45.999Z</time></trkpt><trkpt lat="41.54618565322178" lon="14.967907403450395"><ele>274.0</ele><time>2026-04-25T12:32:47.999Z</time></trkpt><trkpt lat="41.54626261076183" lon="14.96800240598282"><ele>274.0</ele><time>2026-04-25T12:32:48.999Z</time></trkpt><trkpt lat="41.54637923140877" lon="14.968114150497374"><ele>274.0</ele><time>2026-04-25T12:32:49.999Z</time></trkpt><trkpt lat="41.54651907284287" lon="14.968244159439996"><ele>274.0</ele><time>2026-04-25T12:32:50.999Z</time></trkpt><trkpt lat="41.54660160482375" lon="14.968356656140678"><ele>274.0</ele><time>2026-04-25T12:32:51.999Z</time></trkpt><trkpt lat="41.5466914833571" lon="14.968517715400516"><ele>276.66666666666663</ele><time>2026-04-25T12:32:52.999Z</time></trkpt><trkpt lat="41.54676442373964" lon="14.96872348993204"><ele>279.3333333333333</ele><time>2026-04-25T12:32:53.999Z</time></trkpt><trkpt lat="41.54683701657982" lon="14.968870963599795"><ele>282.0</ele><time>2026-04-25T12:32:54.999Z</time></trkpt><trkpt lat="41.54698925910948" lon="14.96894253017069"><ele>282.0</ele><time>2026-04-25T12:32:55.999Z</time></trkpt><trkpt lat="41.54708876715244" lon="14.969055832112858"><ele>282.0</ele><time>2026-04-25T12:32:56.999Z</time></trkpt><trkpt lat="41.54713307789954" lon="14.969136311794333"><ele>282.0</ele><time>2026-04-25T12:32:57.999Z</time></trkpt><trkpt lat="41.54711805731142" lon="14.969230262818332"><ele>282.0</ele><time>2026-04-25T12:32:58.999Z</time></trkpt><trkpt lat="41.547029875144325" lon="14.969301572193038"><ele>282.0</ele><time>2026-04-25T12:32:59.999Z</time></trkpt><trkpt lat="41.546967729086795" lon="14.969334957788886"><ele>282.0</ele><time>2026-04-25T12:33:00.999Z</time></trkpt><trkpt lat="41.54688062225335" lon="14.969168025212758"><ele>282.0</ele><time>2026-04-25T12:33:01.999Z</time></trkpt><trkpt lat="41.54677641839848" lon="14.969052567628003"><ele>282.0</ele><time>2026-04-25T12:33:02.999Z</time></trkpt><trkpt lat="41.54664138872983" lon="14.96888777602382"><ele>282.0</ele><time>2026-04-25T12:33:03.999Z</time></trkpt><trkpt lat="41.546523555948866" lon="14.968745258517606"><ele>282.0</ele><time>2026-04-25T12:33:04.999Z</time></trkpt><trkpt lat="41.54642031790357" lon="14.968620393192563"><ele>282.0</ele><time>2026-04-25T12:33:05.999Z</time></trkpt><trkpt lat="41.546333075017266" lon="14.96851632669442"><ele>282.0</ele><time>2026-04-25T12:33:06.999Z</time></trkpt><trkpt lat="41.54625285820366" lon="14.968456783106596"><ele>282.0</ele><time>2026-04-25T12:33:07.999Z</time></trkpt><trkpt lat="41.546116775302906" lon="14.968494888421759"><ele>282.0</ele><time>2026-04-25T12:33:09.999Z</time></trkpt><trkpt lat="41.54609426158749" lon="14.968611328434841"><ele>282.0</ele><time>2026-04-25T12:33:10.999Z</time></trkpt><trkpt lat="41.546193606674066" lon="14.968727165648597"><ele>282.0</ele><time>2026-04-25T12:33:11.999Z</time></trkpt><trkpt lat="41.54627794671804" lon="14.968849123568777"><ele>282.0</ele><time>2026-04-25T12:33:12.999Z</time></trkpt><trkpt lat="41.54640633033856" lon="14.96898191592388"><ele>282.0</ele><time>2026-04-25T12:33:13.999Z</time></trkpt><trkpt lat="41.54648245264422" lon="14.969099508861056"><ele>282.0</ele><time>2026-04-25T12:33:14.999Z</time></trkpt><trkpt lat="41.546503867591305" lon="14.969265266880463"><ele>282.0</ele><time>2026-04-25T12:33:15.999Z</time></trkpt><trkpt lat="41.54644856142884" lon="14.96943039207262"><ele>282.0</ele><time>2026-04-25T12:33:16.999Z</time></trkpt><trkpt lat="41.54646189012892" lon="14.9695815532924"><ele>282.75</ele><time>2026-04-25T12:33:17.999Z</time></trkpt><trkpt lat="41.54651601505991" lon="14.969735378244284"><ele>283.5</ele><time>2026-04-25T12:33:18.999Z</time></trkpt><trkpt lat="41.546624346603636" lon="14.96985555566486"><ele>284.25</ele><time>2026-04-25T12:33:19.999Z</time></trkpt><trkpt lat="41.546777908047154" lon="14.969961770937092"><ele>285.0</ele><time>2026-04-25T12:33:20.999Z</time></trkpt><trkpt lat="41.54695926478528" lon="14.970040027616704"><ele>288.6666666666667</ele><time>2026-04-25T12:33:21.999Z</time></trkpt><trkpt lat="41.54714175770659" lon="14.970108234486398"><ele>292.33333333333337</ele><time>2026-04-25T12:33:22.999Z</time></trkpt><trkpt lat="41.54728214797035" lon="14.970169745327425"><ele>296.0</ele><time>2026-04-25T12:33:23.999Z</time></trkpt><trkpt lat="41.547387884276084" lon="14.970239560611226"><ele>296.0</ele><time>2026-04-25T12:33:24.999Z</time></trkpt><trkpt lat="41.54746760483492" lon="14.970362820405182"><ele>296.0</ele><time>2026-04-25T12:33:25.999Z</time></trkpt><trkpt lat="41.54747500181425" lon="14.970557433917428"><ele>296.0</ele><time>2026-04-25T12:33:26.999Z</time></trkpt><trkpt lat="41.54750422350739" lon="14.970798670157421"><ele>298.0</ele><time>2026-04-25T12:33:27.999Z</time></trkpt><trkpt lat="41.54755496302632" lon="14.970994231344381"><ele>300.0</ele><time>2026-04-25T12:33:28.999Z</time></trkpt><trkpt lat="41.54758480940535" lon="14.971160422095885"><ele>302.0</ele><time>2026-04-25T12:33:29.999Z</time></trkpt><trkpt lat="41.54763249578869" lon="14.971310066453775"><ele>304.0</ele><time>2026-04-25T12:33:30.999Z</time></trkpt><trkpt lat="41.54771395164649" lon="14.971430782514194"><ele>304.0</ele><time>2026-04-25T12:33:31.999Z</time></trkpt><trkpt lat="41.54782217100827" lon="14.971518384309528"><ele>304.0</ele><time>2026-04-25T12:33:32.999Z</time></trkpt><trkpt lat="41.54794760724902" lon="14.971571804452735"><ele>304.0</ele><time>2026-04-25T12:33:33.999Z</time></trkpt><trkpt lat="41.54808632427923" lon="14.971581341497034"><ele>304.0</ele><time>2026-04-25T12:33:34.999Z</time></trkpt><trkpt lat="41.54823171389171" lon="14.971572626219078"><ele>304.8</ele><time>2026-04-25T12:33:35.999Z</time></trkpt><trkpt lat="41.54834001191406" lon="14.97157583459313"><ele>305.59999999999997</ele><time>2026-04-25T12:33:36.999Z</time></trkpt><trkpt lat="41.54841622126447" lon="14.971612293303664"><ele>306.4</ele><time>2026-04-25T12:33:37.999Z</time></trkpt><trkpt lat="41.54839186170852" lon="14.971752277029392"><ele>307.2</ele><time>2026-04-25T12:33:39.999Z</time></trkpt><trkpt lat="41.54830957023593" lon="14.97177773370257"><ele>308.0</ele><time>2026-04-25T12:33:40.999Z</time></trkpt><trkpt lat="41.54819280588629" lon="14.971790200418193"><ele>310.6666666666667</ele><time>2026-04-25T12:33:41.999Z</time></trkpt><trkpt lat="41.54803118714189" lon="14.971847402786725"><ele>313.3333333333333</ele><time>2026-04-25T12:33:42.999Z</time></trkpt><trkpt lat="41.547878486079746" lon="14.971874785068566"><ele>316.0</ele><time>2026-04-25T12:33:43.999Z</time></trkpt><trkpt lat="41.54774556303005" lon="14.971916744001248"><ele>316.0</ele><time>2026-04-25T12:33:44.999Z</time></trkpt><trkpt lat="41.547618650458126" lon="14.971982427347628"><ele>316.0</ele><time>2026-04-25T12:33:45.999Z</time></trkpt><trkpt lat="41.547537491990965" lon="14.972027772325719"><ele>316.0</ele><time>2026-04-25T12:33:46.999Z</time></trkpt><trkpt lat="41.54749970031294" lon="14.972102146116159"><ele>316.0</ele><time>2026-04-25T12:33:47.999Z</time></trkpt><trkpt lat="41.54751044243521" lon="14.97219039641875"><ele>316.0</ele><time>2026-04-25T12:33:48.999Z</time></trkpt><trkpt lat="41.54769660069552" lon="14.972243843718891"><ele>316.0</ele><time>2026-04-25T12:33:50.999Z</time></trkpt><trkpt lat="41.547821904709274" lon="14.972214621584518"><ele>316.0</ele><time>2026-04-25T12:33:51.999Z</time></trkpt><trkpt lat="41.54797327856543" lon="14.972201585517059"><ele>316.0</ele><time>2026-04-25T12:33:52.999Z</time></trkpt><trkpt lat="41.548092839144914" lon="14.97230276937814"><ele>316.0</ele><time>2026-04-25T12:33:53.999Z</time></trkpt><trkpt lat="41.54821827706752" lon="14.972402753357464"><ele>318.0</ele><time>2026-04-25T12:33:54.999Z</time></trkpt><trkpt lat="41.548321369843876" lon="14.972448569052238"><ele>320.0</ele><time>2026-04-25T12:33:55.999Z</time></trkpt><trkpt lat="41.54847463521985" lon="14.972437438134149"><ele>322.0</ele><time>2026-04-25T12:33:56.999Z</time></trkpt><trkpt lat="41.54866314150903" lon="14.972384261491877"><ele>321.75</ele><time>2026-04-25T12:33:57.999Z</time></trkpt><trkpt lat="41.548808458350415" lon="14.972394271687998"><ele>321.5</ele><time>2026-04-25T12:33:58.998Z</time></trkpt><trkpt lat="41.548933278203194" lon="14.97241907995233"><ele>321.25</ele><time>2026-04-25T12:33:59.998Z</time></trkpt><trkpt lat="41.549045297095276" lon="14.972495597335545"><ele>321.0</ele><time>2026-04-25T12:34:00.998Z</time></trkpt><trkpt lat="41.54918077475057" lon="14.972631286836632"><ele>324.25</ele><time>2026-04-25T12:34:01.998Z</time></trkpt><trkpt lat="41.54932616322976" lon="14.972753184065267"><ele>327.5</ele><time>2026-04-25T12:34:02.998Z</time></trkpt><trkpt lat="41.54941126085347" lon="14.972866276503357"><ele>330.75</ele><time>2026-04-25T12:34:03.998Z</time></trkpt><trkpt lat="41.54946373378574" lon="14.972936903362191"><ele>334.0</ele><time>2026-04-25T12:34:04.998Z</time></trkpt><trkpt lat="41.549316135457595" lon="14.972978864242565"><ele>334.0</ele><time>2026-04-25T12:34:07.999Z</time></trkpt><trkpt lat="41.549233002131494" lon="14.972860350077008"><ele>334.0</ele><time>2026-04-25T12:34:08.999Z</time></trkpt><trkpt lat="41.549091966796155" lon="14.972783328371142"><ele>334.0</ele><time>2026-04-25T12:34:09.999Z</time></trkpt><trkpt lat="41.54894557944489" lon="14.972737263638123"><ele>334.0</ele><time>2026-04-25T12:34:10.999Z</time></trkpt><trkpt lat="41.54880290639268" lon="14.972778556456275"><ele>335.0</ele><time>2026-04-25T12:34:11.999Z</time></trkpt><trkpt lat="41.54864202386892" lon="14.972864405246627"><ele>336.0</ele><time>2026-04-25T12:34:12.999Z</time></trkpt><trkpt lat="41.54845800884955" lon="14.972973943012635"><ele>337.0</ele><time>2026-04-25T12:34:13.999Z</time></trkpt><trkpt lat="41.54828132794124" lon="14.973050209320736"><ele>337.0</ele><time>2026-04-25T12:34:14.999Z</time></trkpt><trkpt lat="41.54813157017998" lon="14.973080729420456"><ele>337.0</ele><time>2026-04-25T12:34:15.999Z</time></trkpt><trkpt lat="41.547990285184575" lon="14.973093574606226"><ele>337.0</ele><time>2026-04-25T12:34:16.999Z</time></trkpt><trkpt lat="41.54788244421162" lon="14.973108561695124"><ele>337.0</ele><time>2026-04-25T12:34:17.999Z</time></trkpt><trkpt lat="41.54781585030037" lon="14.973146069997537"><ele>337.0</ele><time>2026-04-25T12:34:18.999Z</time></trkpt><trkpt lat="41.54782454524065" lon="14.973323081263398"><ele>337.0</ele><time>2026-04-25T12:34:20.999Z</time></trkpt><trkpt lat="41.547896319256004" lon="14.973373621003315"><ele>337.0</ele><time>2026-04-25T12:34:21.999Z</time></trkpt><trkpt lat="41.547990068310796" lon="14.973366565643222"><ele>337.0</ele><time>2026-04-25T12:34:22.999Z</time></trkpt><trkpt lat="41.54810371960764" lon="14.973334007728415"><ele>337.0</ele><time>2026-04-25T12:34:23.999Z</time></trkpt><trkpt lat="41.54822257306191" lon="14.973314905000239"><ele>337.0</ele><time>2026-04-25T12:34:24.999Z</time></trkpt><trkpt lat="41.54833349983335" lon="14.973352728778472"><ele>337.0</ele><time>2026-04-25T12:34:25.999Z</time></trkpt><trkpt lat="41.548459432574205" lon="14.973450937130846"><ele>337.0</ele><time>2026-04-25T12:34:26.999Z</time></trkpt><trkpt lat="41.548585533953606" lon="14.97353905525993"><ele>337.0</ele><time>2026-04-25T12:34:27.999Z</time></trkpt><trkpt lat="41.54872201463165" lon="14.973594940492955"><ele>339.25</ele><time>2026-04-25T12:34:28.999Z</time></trkpt><trkpt lat="41.54884371998129" lon="14.973601410860487"><ele>341.5</ele><time>2026-04-25T12:34:29.999Z</time></trkpt><trkpt lat="41.54895928864699" lon="14.973617932447096"><ele>343.75</ele><time>2026-04-25T12:34:30.999Z</time></trkpt><trkpt lat="41.54907613075654" lon="14.973719392852807"><ele>346.0</ele><time>2026-04-25T12:34:31.999Z</time></trkpt><trkpt lat="41.5491281712276" lon="14.97389774468988"><ele>346.0</ele><time>2026-04-25T12:34:32.999Z</time></trkpt><trkpt lat="41.54923290773169" lon="14.974114307700802"><ele>346.0</ele><time>2026-04-25T12:34:33.999Z</time></trkpt><trkpt lat="41.5493151934494" lon="14.974347934970986"><ele>346.0</ele><time>2026-04-25T12:34:34.999Z</time></trkpt><trkpt lat="41.549404160963604" lon="14.974512658680329"><ele>345.0</ele><time>2026-04-25T12:34:35.999Z</time></trkpt><trkpt lat="41.54951473331227" lon="14.974638979006219"><ele>344.0</ele><time>2026-04-25T12:34:36.999Z</time></trkpt><trkpt lat="41.54964242587" lon="14.97473353144608"><ele>343.0</ele><time>2026-04-25T12:34:37.999Z</time></trkpt><trkpt lat="41.549754361150114" lon="14.974820302166133"><ele>342.0</ele><time>2026-04-25T12:34:38.999Z</time></trkpt><trkpt lat="41.549811919245165" lon="14.974964082642481"><ele>344.75</ele><time>2026-04-25T12:34:39.999Z</time></trkpt><trkpt lat="41.549820643718235" lon="14.975126348843215"><ele>347.5</ele><time>2026-04-25T12:34:40.999Z</time></trkpt><trkpt lat="41.549754193021" lon="14.975298823378006"><ele>350.25</ele><time>2026-04-25T12:34:41.999Z</time></trkpt><trkpt lat="41.54973615004052" lon="14.975540170631248"><ele>353.0</ele><time>2026-04-25T12:34:42.999Z</time></trkpt><trkpt lat="41.54970745592579" lon="14.975739646987739"><ele>355.25</ele><time>2026-04-25T12:34:43.999Z</time></trkpt><trkpt lat="41.54972563631532" lon="14.97592090993483"><ele>357.5</ele><time>2026-04-25T12:34:44.999Z</time></trkpt><trkpt lat="41.549781816079935" lon="14.976090648350446"><ele>359.75</ele><time>2026-04-25T12:34:45.999Z</time></trkpt><trkpt lat="41.5498914899369" lon="14.976234684091246"><ele>362.0</ele><time>2026-04-25T12:34:46.999Z</time></trkpt><trkpt lat="41.55002387239815" lon="14.976339617789542"><ele>362.0</ele><time>2026-04-25T12:34:47.999Z</time></trkpt><trkpt lat="41.550116791291536" lon="14.976432777847466"><ele>362.0</ele><time>2026-04-25T12:34:48.999Z</time></trkpt><trkpt lat="41.5501622622296" lon="14.97656010418202"><ele>362.0</ele><time>2026-04-25T12:34:49.999Z</time></trkpt><trkpt lat="41.55020012529006" lon="14.976756644905725"><ele>362.0</ele><time>2026-04-25T12:34:50.999Z</time></trkpt><trkpt lat="41.55023550958164" lon="14.976987111288697"><ele>364.6666666666667</ele><time>2026-04-25T12:34:51.999Z</time></trkpt><trkpt lat="41.55022005913252" lon="14.977234327304272"><ele>367.3333333333333</ele><time>2026-04-25T12:34:52.999Z</time></trkpt><trkpt lat="41.55020187617058" lon="14.977456864950874"><ele>370.0</ele><time>2026-04-25T12:34:53.999Z</time></trkpt><trkpt lat="41.55021108639242" lon="14.977661488117365"><ele>368.66666666666663</ele><time>2026-04-25T12:34:54.999Z</time></trkpt><trkpt lat="41.55025666468894" lon="14.977853736685976"><ele>367.3333333333333</ele><time>2026-04-25T12:34:55.999Z</time></trkpt><trkpt lat="41.550334369914474" lon="14.978039919239837"><ele>366.0</ele><time>2026-04-25T12:34:56.999Z</time></trkpt><trkpt lat="41.55044192117178" lon="14.97822841504498"><ele>372.0</ele><time>2026-04-25T12:34:57.999Z</time></trkpt><trkpt lat="41.55059121036926" lon="14.978426408557246"><ele>378.0</ele><time>2026-04-25T12:34:58.999Z</time></trkpt><trkpt lat="41.550731529493966" lon="14.978602710331165"><ele>384.0</ele><time>2026-04-25T12:34:59.999Z</time></trkpt><trkpt lat="41.55085706505268" lon="14.97873926099273"><ele>384.0</ele><time>2026-04-25T12:35:00.999Z</time></trkpt><trkpt lat="41.55100898993505" lon="14.97884726573297"><ele>384.0</ele><time>2026-04-25T12:35:01.999Z</time></trkpt><trkpt lat="41.55120191281703" lon="14.978908213333309"><ele>384.0</ele><time>2026-04-25T12:35:02.999Z</time></trkpt><trkpt lat="41.551441666766195" lon="14.978977842731544"><ele>382.3333333333333</ele><time>2026-04-25T12:35:03.999Z</time></trkpt><trkpt lat="41.55165718466182" lon="14.979050820834333"><ele>380.66666666666663</ele><time>2026-04-25T12:35:04.999Z</time></trkpt><trkpt lat="41.5518364824127" lon="14.979118634100251"><ele>379.0</ele><time>2026-04-25T12:35:05.999Z</time></trkpt><trkpt lat="41.552003555399274" lon="14.979176631923433"><ele>382.79999999999995</ele><time>2026-04-25T12:35:06.999Z</time></trkpt><trkpt lat="41.55212549530018" lon="14.979188043565815"><ele>386.59999999999997</ele><time>2026-04-25T12:35:07.999Z</time></trkpt><trkpt lat="41.55221790718692" lon="14.9792029677684"><ele>390.4</ele><time>2026-04-25T12:35:08.999Z</time></trkpt><trkpt lat="41.552272761651665" lon="14.979265665311686"><ele>394.2</ele><time>2026-04-25T12:35:09.999Z</time></trkpt><trkpt lat="41.552257387917" lon="14.979379297659067"><ele>398.0</ele><time>2026-04-25T12:35:10.999Z</time></trkpt><trkpt lat="41.552181593301" lon="14.979459758277596"><ele>398.0</ele><time>2026-04-25T12:35:11.999Z</time></trkpt><trkpt lat="41.552081527777936" lon="14.9794876575922"><ele>398.0</ele><time>2026-04-25T12:35:12.999Z</time></trkpt><trkpt lat="41.551981397085385" lon="14.979404186360231"><ele>398.0</ele><time>2026-04-25T12:35:13.999Z</time></trkpt><trkpt lat="41.55187882900709" lon="14.979319517731794"><ele>398.0</ele><time>2026-04-25T12:35:14.999Z</time></trkpt><trkpt lat="41.551742068265405" lon="14.979287904559442"><ele>397.3333333333333</ele><time>2026-04-25T12:35:15.999Z</time></trkpt><trkpt lat="41.551616423681125" lon="14.979288798967604"><ele>396.66666666666663</ele><time>2026-04-25T12:35:16.999Z</time></trkpt><trkpt lat="41.55147052922126" lon="14.979347323379233"><ele>396.0</ele><time>2026-04-25T12:35:17.999Z</time></trkpt><trkpt lat="41.551294158543556" lon="14.97939900106354"><ele>394.33333333333337</ele><time>2026-04-25T12:35:18.999Z</time></trkpt><trkpt lat="41.551114616200366" lon="14.979369208566906"><ele>392.6666666666667</ele><time>2026-04-25T12:35:19.999Z</time></trkpt><trkpt lat="41.550915536502956" lon="14.979317242326639"><ele>391.0</ele><time>2026-04-25T12:35:20.999Z</time></trkpt><trkpt lat="41.550748595482844" lon="14.979291160197898"><ele>391.0</ele><time>2026-04-25T12:35:21.999Z</time></trkpt><trkpt lat="41.55061208029691" lon="14.979249185337554"><ele>391.0</ele><time>2026-04-25T12:35:22.999Z</time></trkpt><trkpt lat="41.55047799207486" lon="14.979265699663896"><ele>391.0</ele><time>2026-04-25T12:35:23.999Z</time></trkpt><trkpt lat="41.550390571141" lon="14.979288173485857"><ele>391.0</ele><time>2026-04-25T12:35:24.999Z</time></trkpt><trkpt lat="41.55034376674528" lon="14.979357419942524"><ele>391.0</ele><time>2026-04-25T12:35:25.999Z</time></trkpt><trkpt lat="41.55033727711945" lon="14.979483518375737"><ele>391.0</ele><time>2026-04-25T12:35:26.999Z</time></trkpt><trkpt lat="41.55037476369622" lon="14.979617512380514"><ele>391.0</ele><time>2026-04-25T12:35:27.999Z</time></trkpt><trkpt lat="41.55046344922268" lon="14.979713320799632"><ele>391.0</ele><time>2026-04-25T12:35:28.999Z</time></trkpt><trkpt lat="41.550587404076076" lon="14.97976858361453"><ele>391.0</ele><time>2026-04-25T12:35:29.999Z</time></trkpt><trkpt lat="41.5507350705544" lon="14.979801804558667"><ele>391.0</ele><time>2026-04-25T12:35:30.999Z</time></trkpt><trkpt lat="41.55089374203801" lon="14.979816033216814"><ele>391.0</ele><time>2026-04-25T12:35:31.999Z</time></trkpt><trkpt lat="41.551077409185844" lon="14.979845253452481"><ele>391.0</ele><time>2026-04-25T12:35:32.999Z</time></trkpt><trkpt lat="41.5512722998036" lon="14.9798790509679"><ele>392.6666666666667</ele><time>2026-04-25T12:35:33.999Z</time></trkpt><trkpt lat="41.55145306894407" lon="14.979906434775788"><ele>394.33333333333337</ele><time>2026-04-25T12:35:34.999Z</time></trkpt><trkpt lat="41.551604125048506" lon="14.979948122373713"><ele>396.0</ele><time>2026-04-25T12:35:35.999Z</time></trkpt><trkpt lat="41.55172254209828" lon="14.980036666923116"><ele>396.75</ele><time>2026-04-25T12:35:36.999Z</time></trkpt><trkpt lat="41.5518331504392" lon="14.980135600330577"><ele>397.5</ele><time>2026-04-25T12:35:37.999Z</time></trkpt><trkpt lat="41.551967004855655" lon="14.980243607996647"><ele>398.25</ele><time>2026-04-25T12:35:38.999Z</time></trkpt><trkpt lat="41.55208352280274" lon="14.980377628403268"><ele>399.0</ele><time>2026-04-25T12:35:39.999Z</time></trkpt><trkpt lat="41.55221907698616" lon="14.980488568867719"><ele>403.0</ele><time>2026-04-25T12:35:40.999Z</time></trkpt><trkpt lat="41.55237024695141" lon="14.980577152621615"><ele>407.0</ele><time>2026-04-25T12:35:41.999Z</time></trkpt><trkpt lat="41.55252681090704" lon="14.980626137905054"><ele>411.0</ele><time>2026-04-25T12:35:42.999Z</time></trkpt><trkpt lat="41.55268454494915" lon="14.980614487531529"><ele>411.0</ele><time>2026-04-25T12:35:43.999Z</time></trkpt><trkpt lat="41.55286794106799" lon="14.980559085586322"><ele>411.0</ele><time>2026-04-25T12:35:44.999Z</time></trkpt><trkpt lat="41.55304968419055" lon="14.980461943888926"><ele>411.0</ele><time>2026-04-25T12:35:45.999Z</time></trkpt><trkpt lat="41.55319345786547" lon="14.980365180071558"><ele>413.66666666666663</ele><time>2026-04-25T12:35:46.999Z</time></trkpt><trkpt lat="41.55333701333114" lon="14.980283043590644"><ele>416.3333333333333</ele><time>2026-04-25T12:35:47.999Z</time></trkpt><trkpt lat="41.553485350723335" lon="14.980241796501973"><ele>419.0</ele><time>2026-04-25T12:35:48.999Z</time></trkpt><trkpt lat="41.55364657569013" lon="14.980224227886294"><ele>420.3333333333333</ele><time>2026-04-25T12:35:49.999Z</time></trkpt><trkpt lat="41.55383933622806" lon="14.98022671324054"><ele>421.66666666666663</ele><time>2026-04-25T12:35:50.999Z</time></trkpt><trkpt lat="41.55401619228593" lon="14.980210733599419"><ele>423.0</ele><time>2026-04-25T12:35:51.999Z</time></trkpt><trkpt lat="41.55416337713996" lon="14.980209059841672"><ele>423.0</ele><time>2026-04-25T12:35:52.999Z</time></trkpt><trkpt lat="41.55429411623109" lon="14.980244110132624"><ele>423.0</ele><time>2026-04-25T12:35:53.999Z</time></trkpt><trkpt lat="41.554423778423015" lon="14.980312435839075"><ele>423.0</ele><time>2026-04-25T12:35:54.999Z</time></trkpt><trkpt lat="41.55456454987978" lon="14.980434601129415"><ele>423.0</ele><time>2026-04-25T12:35:55.999Z</time></trkpt><trkpt lat="41.554741801339006" lon="14.980560863621271"><ele>423.66666666666663</ele><time>2026-04-25T12:35:56.999Z</time></trkpt><trkpt lat="41.55490735338916" lon="14.980710639930345"><ele>424.3333333333333</ele><time>2026-04-25T12:35:57.999Z</time></trkpt><trkpt lat="41.55502864405999" lon="14.980864307330151"><ele>425.0</ele><time>2026-04-25T12:35:58.999Z</time></trkpt><trkpt lat="41.55512436885859" lon="14.981009578578352"><ele>425.0</ele><time>2026-04-25T12:35:59.999Z</time></trkpt><trkpt lat="41.55518669768982" lon="14.981171663473935"><ele>425.0</ele><time>2026-04-25T12:36:00.999Z</time></trkpt><trkpt lat="41.55520984040725" lon="14.981327052863653"><ele>425.0</ele><time>2026-04-25T12:36:01.999Z</time></trkpt><trkpt lat="41.55518293445768" lon="14.981475577044838"><ele>425.0</ele><time>2026-04-25T12:36:02.999Z</time></trkpt><trkpt lat="41.55512035330607" lon="14.981630358256528"><ele>425.66666666666663</ele><time>2026-04-25T12:36:03.999Z</time></trkpt><trkpt lat="41.55505182014334" lon="14.981864098635326"><ele>426.33333333333337</ele><time>2026-04-25T12:36:04.999Z</time></trkpt><trkpt lat="41.5550221437058" lon="14.982035161326644"><ele>427.0</ele><time>2026-04-25T12:36:05.999Z</time></trkpt><trkpt lat="41.555050203309996" lon="14.982213594530037"><ele>427.0</ele><time>2026-04-25T12:36:06.999Z</time></trkpt><trkpt lat="41.555092073859555" lon="14.982390882420834"><ele>427.0</ele><time>2026-04-25T12:36:07.999Z</time></trkpt><trkpt lat="41.55521298144182" lon="14.982556953128919"><ele>427.0</ele><time>2026-04-25T12:36:08.999Z</time></trkpt><trkpt lat="41.55535554491418" lon="14.982753649754363"><ele>429.33333333333337</ele><time>2026-04-25T12:36:09.999Z</time></trkpt><trkpt lat="41.55548976377699" lon="14.982953814640915"><ele>431.66666666666663</ele><time>2026-04-25T12:36:10.999Z</time></trkpt><trkpt lat="41.55559980296037" lon="14.983143843175828"><ele>434.0</ele><time>2026-04-25T12:36:11.999Z</time></trkpt><trkpt lat="41.555700848762086" lon="14.983301842496035"><ele>434.3333333333333</ele><time>2026-04-25T12:36:12.999Z</time></trkpt><trkpt lat="41.55581112093943" lon="14.983416067093183"><ele>434.66666666666663</ele><time>2026-04-25T12:36:13.999Z</time></trkpt><trkpt lat="41.555970046889605" lon="14.98352046063839"><ele>435.0</ele><time>2026-04-25T12:36:14.999Z</time></trkpt><trkpt lat="41.556103142714086" lon="14.983594215044553"><ele>438.75</ele><time>2026-04-25T12:36:15.999Z</time></trkpt><trkpt lat="41.556221301670554" lon="14.983638645997207"><ele>442.5</ele><time>2026-04-25T12:36:16.999Z</time></trkpt><trkpt lat="41.556339386539165" lon="14.98363008890725"><ele>446.25</ele><time>2026-04-25T12:36:17.999Z</time></trkpt><trkpt lat="41.55645215658275" lon="14.98354834606133"><ele>450.0</ele><time>2026-04-25T12:36:18.999Z</time></trkpt><trkpt lat="41.55653256247156" lon="14.983405397599226"><ele>448.0</ele><time>2026-04-25T12:36:19.999Z</time></trkpt><trkpt lat="41.55662780437081" lon="14.98327630425327"><ele>446.0</ele><time>2026-04-25T12:36:20.999Z</time></trkpt><trkpt lat="41.556785377957105" lon="14.983238869975597"><ele>444.0</ele><time>2026-04-25T12:36:21.999Z</time></trkpt><trkpt lat="41.55695729311332" lon="14.983185197901728"><ele>445.66666666666663</ele><time>2026-04-25T12:36:22.999Z</time></trkpt><trkpt lat="41.55712419482612" lon="14.983139882847187"><ele>447.3333333333333</ele><time>2026-04-25T12:36:23.999Z</time></trkpt><trkpt lat="41.55728973388204" lon="14.983117841852906"><ele>449.0</ele><time>2026-04-25T12:36:24.999Z</time></trkpt><trkpt lat="41.557444468890466" lon="14.983131314384458"><ele>449.0</ele><time>2026-04-25T12:36:25.999Z</time></trkpt><trkpt lat="41.557608709304404" lon="14.983175552802324"><ele>449.0</ele><time>2026-04-25T12:36:26.999Z</time></trkpt><trkpt lat="41.55776915930477" lon="14.98327183593958"><ele>449.0</ele><time>2026-04-25T12:36:27.999Z</time></trkpt><trkpt lat="41.55792048442992" lon="14.983394671421898"><ele>453.0</ele><time>2026-04-25T12:36:28.999Z</time></trkpt><trkpt lat="41.55802303847215" lon="14.98353265959081"><ele>457.0</ele><time>2026-04-25T12:36:29.999Z</time></trkpt><trkpt lat="41.558114617605234" lon="14.98366923784693"><ele>461.0</ele><time>2026-04-25T12:36:30.999Z</time></trkpt><trkpt lat="41.55824212107734" lon="14.983753183159385"><ele>465.0</ele><time>2026-04-25T12:36:31.999Z</time></trkpt><trkpt lat="41.55839070246121" lon="14.983804278022145"><ele>465.0</ele><time>2026-04-25T12:36:32.999Z</time></trkpt><trkpt lat="41.55856378094074" lon="14.983833284091709"><ele>465.0</ele><time>2026-04-25T12:36:33.999Z</time></trkpt><trkpt lat="41.55869281377633" lon="14.983919032757656"><ele>465.0</ele><time>2026-04-25T12:36:34.999Z</time></trkpt><trkpt lat="41.55883697685157" lon="14.98400510968284"><ele>465.5</ele><time>2026-04-25T12:36:35.999Z</time></trkpt><trkpt lat="41.55896696484464" lon="14.984005372838144"><ele>466.0</ele><time>2026-04-25T12:36:36.999Z</time></trkpt><trkpt lat="41.559110403498416" lon="14.983973942443834"><ele>466.5</ele><time>2026-04-25T12:36:37.999Z</time></trkpt><trkpt lat="41.55924826662278" lon="14.983892907216172"><ele>467.0</ele><time>2026-04-25T12:36:38.999Z</time></trkpt><trkpt lat="41.559378224701106" lon="14.983791948226353"><ele>467.0</ele><time>2026-04-25T12:36:39.999Z</time></trkpt><trkpt lat="41.55949806109819" lon="14.983684866728973"><ele>467.0</ele><time>2026-04-25T12:36:40.999Z</time></trkpt><trkpt lat="41.5596140376747" lon="14.983586709565662"><ele>467.0</ele><time>2026-04-25T12:36:41.999Z</time></trkpt><trkpt lat="41.55971108910633" lon="14.983486190652892"><ele>467.0</ele><time>2026-04-25T12:36:42.999Z</time></trkpt><trkpt lat="41.55977951988654" lon="14.983344225806762"><ele>468.40000000000003</ele><time>2026-04-25T12:36:43.999Z</time></trkpt><trkpt lat="41.55981718612298" lon="14.98318682276271"><ele>469.80000000000007</ele><time>2026-04-25T12:36:44.999Z</time></trkpt><trkpt lat="41.55983509836914" lon="14.983044238169521"><ele>471.2</ele><time>2026-04-25T12:36:45.999Z</time></trkpt><trkpt lat="41.559897046370544" lon="14.982951172357643"><ele>472.6</ele><time>2026-04-25T12:36:46.999Z</time></trkpt><trkpt lat="41.55995119659033" lon="14.982862919720198"><ele>474.0</ele><time>2026-04-25T12:36:48Z</time></trkpt><trkpt lat="41.559990099300904" lon="14.98278703662505"><ele>474.0</ele><time>2026-04-25T12:36:49Z</time></trkpt><trkpt lat="41.56004199389999" lon="14.982713604197682"><ele>474.0</ele><time>2026-04-25T12:36:51Z</time></trkpt><trkpt lat="41.56010237443828" lon="14.982666836069377"><ele>474.0</ele><time>2026-04-25T12:36:53Z</time></trkpt><trkpt lat="41.56016563146535" lon="14.982565980028104"><ele>474.0</ele><time>2026-04-25T12:36:55Z</time></trkpt><trkpt lat="41.56022965444111" lon="14.982465355497808"><ele>474.0</ele><time>2026-04-25T12:36:57Z</time></trkpt><trkpt lat="41.560242886579026" lon="14.982290826747894"><ele>473.4</ele><time>2026-04-25T12:36:59Z</time></trkpt><trkpt lat="41.56023072032938" lon="14.982205853972431"><ele>472.79999999999995</ele><time>2026-04-25T12:37:00Z</time></trkpt><trkpt lat="41.56019252038073" lon="14.982069426370735"><ele>472.20000000000005</ele><time>2026-04-25T12:37:02Z</time></trkpt><trkpt lat="41.56015902161493" lon="14.981977847580573"><ele>471.6</ele><time>2026-04-25T12:37:03Z</time></trkpt><trkpt lat="41.56011988263114" lon="14.98186099137343"><ele>471.0</ele><time>2026-04-25T12:37:04Z</time></trkpt><trkpt lat="41.560074978427465" lon="14.98172631276875"><ele>471.3333333333333</ele><time>2026-04-25T12:37:05Z</time></trkpt><trkpt lat="41.56003559792957" lon="14.981608094292541"><ele>471.66666666666663</ele><time>2026-04-25T12:37:06Z</time></trkpt><trkpt lat="41.560002084920356" lon="14.981507423633325"><ele>472.0</ele><time>2026-04-25T12:37:07Z</time></trkpt><trkpt lat="41.559961905708576" lon="14.981390147507641"><ele>472.3333333333333</ele><time>2026-04-25T12:37:08Z</time></trkpt><trkpt lat="41.55992942069342" lon="14.981295329361428"><ele>472.66666666666663</ele><time>2026-04-25T12:37:09Z</time></trkpt><trkpt lat="41.55989099092706" lon="14.981183159524798"><ele>473.0</ele><time>2026-04-25T12:37:10Z</time></trkpt><trkpt lat="41.559848306062506" lon="14.98105546336347"><ele>473.0</ele><time>2026-04-25T12:37:11Z</time></trkpt><trkpt lat="41.55981270395068" lon="14.980918699067036"><ele>472.99999999999994</ele><time>2026-04-25T12:37:12Z</time></trkpt><trkpt lat="41.559796817586204" lon="14.980783734159392"><ele>472.99999999999994</ele><time>2026-04-25T12:37:13Z</time></trkpt><trkpt lat="41.55979328959375" lon="14.98065079270819"><ele>473.0</ele><time>2026-04-25T12:37:14Z</time></trkpt><trkpt lat="41.55979198224952" lon="14.980528033026408"><ele>473.0</ele><time>2026-04-25T12:37:15Z</time></trkpt><trkpt lat="41.55979018931118" lon="14.98041002619957"><ele>473.3333333333333</ele><time>2026-04-25T12:37:16Z</time></trkpt><trkpt lat="41.55978637027512" lon="14.98030418068461"><ele>473.66666666666663</ele><time>2026-04-25T12:37:17Z</time></trkpt><trkpt lat="41.55978281301662" lon="14.980205590411341"><ele>474.0</ele><time>2026-04-25T12:37:18Z</time></trkpt><trkpt lat="41.559779490352895" lon="14.98011350200244"><ele>474.33333333333337</ele><time>2026-04-25T12:37:19Z</time></trkpt><trkpt lat="41.55977687764154" lon="14.979971934324023"><ele>474.6666666666667</ele><time>2026-04-25T12:37:21Z</time></trkpt><trkpt lat="41.559771552303225" lon="14.979864038119848"><ele>475.0</ele><time>2026-04-25T12:37:23Z</time></trkpt><trkpt lat="41.55982766180435" lon="14.979771205600223"><ele>474.00000000000006</ele><time>2026-04-25T12:37:25Z</time></trkpt><trkpt lat="41.5599262317578" lon="14.979744172473815"><ele>473.0</ele><time>2026-04-25T12:37:27Z</time></trkpt><trkpt lat="41.55998729274625" lon="14.979716253903293"><ele>472.0</ele><time>2026-04-25T12:37:28Z</time></trkpt><trkpt lat="41.56006636364224" lon="14.979704699737487"><ele>471.0</ele><time>2026-04-25T12:37:29Z</time></trkpt><trkpt lat="41.5601354521995" lon="14.979694468182947"><ele>470.00000000000006</ele><time>2026-04-25T12:37:30Z</time></trkpt><trkpt lat="41.56023742938231" lon="14.979680872323252"><ele>469.0</ele><time>2026-04-25T12:37:31Z</time></trkpt><trkpt lat="41.56034909514697" lon="14.979670082868203"><ele>470.25</ele><time>2026-04-25T12:37:32Z</time></trkpt><trkpt lat="41.56048903235668" lon="14.97966352484419"><ele>471.5</ele><time>2026-04-25T12:37:33Z</time></trkpt><trkpt lat="41.56061275711068" lon="14.979657947080344"><ele>472.75</ele><time>2026-04-25T12:37:34Z</time></trkpt><trkpt lat="41.560742458024315" lon="14.97963232666401"><ele>474.0</ele><time>2026-04-25T12:37:35Z</time></trkpt><trkpt lat="41.560849579691975" lon="14.979611494484807"><ele>474.0</ele><time>2026-04-25T12:37:36Z</time></trkpt><trkpt lat="41.56095300600206" lon="14.979596276933107"><ele>474.0</ele><time>2026-04-25T12:37:37Z</time></trkpt><trkpt lat="41.561037982462956" lon="14.979576066813575"><ele>474.0</ele><time>2026-04-25T12:37:38Z</time></trkpt><trkpt lat="41.56110898023912" lon="14.97956503955825"><ele>474.0</ele><time>2026-04-25T12:37:39Z</time></trkpt><trkpt lat="41.56122150428918" lon="14.979555215631528"><ele>474.0</ele><time>2026-04-25T12:37:41Z</time></trkpt><trkpt lat="41.56130147569794" lon="14.979524044185561"><ele>472.4</ele><time>2026-04-25T12:37:44Z</time></trkpt><trkpt lat="41.56138484620957" lon="14.97938462169301"><ele>470.79999999999995</ele><time>2026-04-25T12:37:46Z</time></trkpt><trkpt lat="41.561405175640154" lon="14.979294051218066"><ele>469.20000000000005</ele><time>2026-04-25T12:37:47Z</time></trkpt><trkpt lat="41.56142059954383" lon="14.979194723969465"><ele>467.6</ele><time>2026-04-25T12:37:48Z</time></trkpt><trkpt lat="41.56143642401319" lon="14.979100446550907"><ele>466.0</ele><time>2026-04-25T12:37:49Z</time></trkpt><trkpt lat="41.56148623245495" lon="14.978967505004126"><ele>465.50000000000006</ele><time>2026-04-25T12:37:51Z</time></trkpt><trkpt lat="41.561535189141836" lon="14.978897662966993"><ele>465.0</ele><time>2026-04-25T12:37:52Z</time></trkpt><trkpt lat="41.56158460977268" lon="14.978822170912107"><ele>464.5</ele><time>2026-04-25T12:37:53Z</time></trkpt><trkpt lat="41.56165985335608" lon="14.978796441355774"><ele>464.0</ele><time>2026-04-25T12:37:54Z</time></trkpt><trkpt lat="41.561707288501715" lon="14.978722616676945"><ele>463.50000000000006</ele><time>2026-04-25T12:37:55Z</time></trkpt><trkpt lat="41.56175095629824" lon="14.978638002933264"><ele>463.0</ele><time>2026-04-25T12:37:56Z</time></trkpt><trkpt lat="41.56178292019191" lon="14.978544192985677"><ele>463.00000000000006</ele><time>2026-04-25T12:37:57Z</time></trkpt><trkpt lat="41.561814826058395" lon="14.978468550328685"><ele>463.0</ele><time>2026-04-25T12:37:58Z</time></trkpt><trkpt lat="41.561855462531426" lon="14.978385358237544"><ele>463.0</ele><time>2026-04-25T12:38:00Z</time></trkpt><trkpt lat="41.56193623870566" lon="14.97823472868343"><ele>463.0</ele><time>2026-04-25T12:38:02Z</time></trkpt><trkpt lat="41.561987230543714" lon="14.97815973876347"><ele>463.00000000000006</ele><time>2026-04-25T12:38:03Z</time></trkpt><trkpt lat="41.562066998569094" lon="14.978112434948754"><ele>463.0</ele><time>2026-04-25T12:38:04Z</time></trkpt><trkpt lat="41.56221061397006" lon="14.978011587858049"><ele>462.2</ele><time>2026-04-25T12:38:06Z</time></trkpt><trkpt lat="41.5622912451982" lon="14.977956491581509"><ele>461.4</ele><time>2026-04-25T12:38:07Z</time></trkpt><trkpt lat="41.56239249418122" lon="14.977914775402578"><ele>460.59999999999997</ele><time>2026-04-25T12:38:08Z</time></trkpt><trkpt lat="41.56248470775971" lon="14.977850548563053"><ele>459.79999999999995</ele><time>2026-04-25T12:38:09Z</time></trkpt><trkpt lat="41.56257539929866" lon="14.977800505406538"><ele>459.0</ele><time>2026-04-25T12:38:10Z</time></trkpt><trkpt lat="41.56266315624175" lon="14.97774934751422"><ele>459.0</ele><time>2026-04-25T12:38:10.999Z</time></trkpt><trkpt lat="41.56275843924141" lon="14.977707845463355"><ele>459.0</ele><time>2026-04-25T12:38:11.999Z</time></trkpt><trkpt lat="41.56283904816187" lon="14.977658201592536"><ele>459.0</ele><time>2026-04-25T12:38:12.999Z</time></trkpt><trkpt lat="41.562927009959026" lon="14.977609666849228"><ele>459.0</ele><time>2026-04-25T12:38:13.999Z</time></trkpt><trkpt lat="41.563073324278186" lon="14.977525135353927"><ele>459.0</ele><time>2026-04-25T12:38:15.999Z</time></trkpt><trkpt lat="41.563131645422395" lon="14.977485075868772"><ele>458.3333333333333</ele><time>2026-04-25T12:38:16.999Z</time></trkpt><trkpt lat="41.5631945240545" lon="14.977443204878965"><ele>457.66666666666663</ele><time>2026-04-25T12:38:17.999Z</time></trkpt><trkpt lat="41.56325652953459" lon="14.977387649747955"><ele>457.0</ele><time>2026-04-25T12:38:18.999Z</time></trkpt><trkpt lat="41.563323054635404" lon="14.977337081394184"><ele>456.3333333333333</ele><time>2026-04-25T12:38:19.999Z</time></trkpt><trkpt lat="41.56337320226188" lon="14.977237938768985"><ele>455.66666666666663</ele><time>2026-04-25T12:38:20.999Z</time></trkpt><trkpt lat="41.563429525828006" lon="14.977140045814231"><ele>455.0</ele><time>2026-04-25T12:38:21.999Z</time></trkpt><trkpt lat="41.563494824320344" lon="14.977031375631592"><ele>455.0</ele><time>2026-04-25T12:38:22.999Z</time></trkpt><trkpt lat="41.563570749498076" lon="14.97692050181814"><ele>455.0</ele><time>2026-04-25T12:38:23.999Z</time></trkpt><trkpt lat="41.56364424979918" lon="14.976824322952467"><ele>455.0</ele><time>2026-04-25T12:38:24.999Z</time></trkpt><trkpt lat="41.56372335283075" lon="14.976735407049324"><ele>455.0</ele><time>2026-04-25T12:38:25.999Z</time></trkpt><trkpt lat="41.56381053439615" lon="14.976642961292637"><ele>455.0</ele><time>2026-04-25T12:38:26.999Z</time></trkpt><trkpt lat="41.56389418779293" lon="14.97653336324756"><ele>450.0</ele><time>2026-04-25T12:38:27.999Z</time></trkpt><trkpt lat="41.56396132307364" lon="14.976426157854272"><ele>445.0</ele><time>2026-04-25T12:38:29Z</time></trkpt><trkpt lat="41.563972481070884" lon="14.976260241593321"><ele>440.0</ele><time>2026-04-25T12:38:30Z</time></trkpt><trkpt lat="41.56395869079436" lon="14.97609881801267"><ele>435.0</ele><time>2026-04-25T12:38:31Z</time></trkpt><trkpt lat="41.56393656784347" lon="14.97591415564693"><ele>435.8</ele><time>2026-04-25T12:38:32Z</time></trkpt><trkpt lat="41.5639228642164" lon="14.975754086759148"><ele>436.6</ele><time>2026-04-25T12:38:33Z</time></trkpt><trkpt lat="41.56392160232598" lon="14.975638307802859"><ele>437.4</ele><time>2026-04-25T12:38:34Z</time></trkpt><trkpt lat="41.5639314357771" lon="14.975530140650468"><ele>438.2</ele><time>2026-04-25T12:38:35Z</time></trkpt><trkpt lat="41.56394853218273" lon="14.975419761109565"><ele>439.0</ele><time>2026-04-25T12:38:36Z</time></trkpt><trkpt lat="41.56393255159827" lon="14.975308953921285"><ele>439.00000000000006</ele><time>2026-04-25T12:38:37Z</time></trkpt><trkpt lat="41.56395051346483" lon="14.975214014464626"><ele>439.0</ele><time>2026-04-25T12:38:38Z</time></trkpt><trkpt lat="41.563987970753445" lon="14.975119676773625"><ele>439.0</ele><time>2026-04-25T12:38:39Z</time></trkpt><trkpt lat="41.56403942762521" lon="14.97504291074177"><ele>439.0</ele><time>2026-04-25T12:38:40Z</time></trkpt><trkpt lat="41.56408750448323" lon="14.974966429732802"><ele>439.00000000000006</ele><time>2026-04-25T12:38:41Z</time></trkpt><trkpt lat="41.564124787706994" lon="14.974888540201182"><ele>439.0</ele><time>2026-04-25T12:38:42Z</time></trkpt><trkpt lat="41.56414237709313" lon="14.974773606782254"><ele>437.50000000000006</ele><time>2026-04-25T12:38:44Z</time></trkpt><trkpt lat="41.5640801281547" lon="14.974733472598253"><ele>436.0</ele><time>2026-04-25T12:38:46Z</time></trkpt><trkpt lat="41.56399344491077" lon="14.974701444425586"><ele>434.5</ele><time>2026-04-25T12:39:16Z</time></trkpt><trkpt lat="41.56390708565233" lon="14.974665503711465"><ele>433.0</ele><time>2026-04-25T12:39:17Z</time></trkpt><trkpt lat="41.56382951736691" lon="14.974720867733499"><ele>431.50000000000006</ele><time>2026-04-25T12:39:18Z</time></trkpt><trkpt lat="41.56376951237959" lon="14.974794616590085"><ele>430.0</ele><time>2026-04-25T12:39:19Z</time></trkpt><trkpt lat="41.563727059985965" lon="14.974874155780933"><ele>428.2</ele><time>2026-04-25T12:39:20Z</time></trkpt><trkpt lat="41.56362161819534" lon="14.97488516886369"><ele>426.4</ele><time>2026-04-25T12:39:22Z</time></trkpt><trkpt lat="41.56358161980739" lon="14.974784505437334"><ele>424.6</ele><time>2026-04-25T12:39:23Z</time></trkpt><trkpt lat="41.56361752153889" lon="14.974635093901842"><ele>422.8</ele><time>2026-04-25T12:39:24Z</time></trkpt><trkpt lat="41.56360462914865" lon="14.974493810192214"><ele>421.0</ele><time>2026-04-25T12:39:25Z</time></trkpt><trkpt lat="41.56359368702553" lon="14.974365483749766"><ele>421.0</ele><time>2026-04-25T12:39:26Z</time></trkpt><trkpt lat="41.56357734975234" lon="14.974246266506125"><ele>421.0</ele><time>2026-04-25T12:39:27Z</time></trkpt><trkpt lat="41.56356349665498" lon="14.974141292101116"><ele>421.0</ele><time>2026-04-25T12:39:28Z</time></trkpt><trkpt lat="41.56360031119617" lon="14.974049532345466"><ele>421.0</ele><time>2026-04-25T12:39:29Z</time></trkpt><trkpt lat="41.56370394827925" lon="14.974028292973356"><ele>421.0</ele><time>2026-04-25T12:39:30Z</time></trkpt><trkpt lat="41.56381424533468" lon="14.973977375764088"><ele>419.20000000000005</ele><time>2026-04-25T12:39:31Z</time></trkpt><trkpt lat="41.56392073349966" lon="14.97393242865561"><ele>417.40000000000003</ele><time>2026-04-25T12:39:32Z</time></trkpt><trkpt lat="41.56400315001289" lon="14.973925434666157"><ele>415.6</ele><time>2026-04-25T12:39:33Z</time></trkpt><trkpt lat="41.56411083111597" lon="14.973823433223838"><ele>413.8</ele><time>2026-04-25T12:39:35Z</time></trkpt><trkpt lat="41.56410935587881" lon="14.973721383767026"><ele>412.0</ele><time>2026-04-25T12:39:36Z</time></trkpt><trkpt lat="41.564020047268556" lon="14.973616719036189"><ele>412.0</ele><time>2026-04-25T12:39:37Z</time></trkpt><trkpt lat="41.56393294751968" lon="14.973515890230436"><ele>412.0</ele><time>2026-04-25T12:39:38Z</time></trkpt><trkpt lat="41.563843317374044" lon="14.973420465693653"><ele>412.0</ele><time>2026-04-25T12:39:39Z</time></trkpt><trkpt lat="41.5637641503522" lon="14.973345959396951"><ele>412.0</ele><time>2026-04-25T12:39:40Z</time></trkpt><trkpt lat="41.56370411168077" lon="14.97325479755693"><ele>412.0</ele><time>2026-04-25T12:39:41Z</time></trkpt><trkpt lat="41.56374845837477" lon="14.973122847009009"><ele>407.5</ele><time>2026-04-25T12:39:43Z</time></trkpt><trkpt lat="41.563812393268236" lon="14.973057741705174"><ele>403.0</ele><time>2026-04-25T12:39:44Z</time></trkpt><trkpt lat="41.56391089050658" lon="14.973043542221717"><ele>398.5</ele><time>2026-04-25T12:39:45Z</time></trkpt><trkpt lat="41.564039224734124" lon="14.973024530565583"><ele>394.0</ele><time>2026-04-25T12:39:46Z</time></trkpt><trkpt lat="41.56418514717611" lon="14.973026286752825"><ele>394.0</ele><time>2026-04-25T12:39:47Z</time></trkpt><trkpt lat="41.56433806326413" lon="14.973012910346231"><ele>394.0</ele><time>2026-04-25T12:39:48Z</time></trkpt><trkpt lat="41.56449810223085" lon="14.9729866535435"><ele>394.0</ele><time>2026-04-25T12:39:49Z</time></trkpt><trkpt lat="41.56464156053312" lon="14.972956174099066"><ele>391.25</ele><time>2026-04-25T12:39:50Z</time></trkpt><trkpt lat="41.564781052218734" lon="14.972925639454477"><ele>388.5</ele><time>2026-04-25T12:39:51Z</time></trkpt><trkpt lat="41.56491100301847" lon="14.97292588700444"><ele>385.75</ele><time>2026-04-25T12:39:52Z</time></trkpt><trkpt lat="41.565009520145374" lon="14.972912751397699"><ele>383.0</ele><time>2026-04-25T12:39:53Z</time></trkpt><trkpt lat="41.56510017774334" lon="14.9728730076438"><ele>383.0</ele><time>2026-04-25T12:39:54Z</time></trkpt><trkpt lat="41.5651798837231" lon="14.972769081814246"><ele>383.0</ele><time>2026-04-25T12:39:55Z</time></trkpt><trkpt lat="41.5652481883116" lon="14.972614440613425"><ele>383.0</ele><time>2026-04-25T12:39:56Z</time></trkpt><trkpt lat="41.565337184351286" lon="14.972430164733497"><ele>383.0</ele><time>2026-04-25T12:39:57Z</time></trkpt><trkpt lat="41.56541480965671" lon="14.972264821918293"><ele>379.79999999999995</ele><time>2026-04-25T12:39:58Z</time></trkpt><trkpt lat="41.56547072682252" lon="14.972105929706725"><ele>376.6</ele><time>2026-04-25T12:39:59Z</time></trkpt><trkpt lat="41.56553444976765" lon="14.971975394489027"><ele>373.4</ele><time>2026-04-25T12:40:00Z</time></trkpt><trkpt lat="41.565589147898216" lon="14.97187537854014"><ele>370.20000000000005</ele><time>2026-04-25T12:40:01Z</time></trkpt><trkpt lat="41.56567018400611" lon="14.971826710377695"><ele>367.0</ele><time>2026-04-25T12:40:02Z</time></trkpt><trkpt lat="41.56579356312273" lon="14.971804988549025"><ele>367.0</ele><time>2026-04-25T12:40:03Z</time></trkpt><trkpt lat="41.56591471105187" lon="14.971744293762487"><ele>367.0</ele><time>2026-04-25T12:40:04Z</time></trkpt><trkpt lat="41.56600919306174" lon="14.97166379205064"><ele>367.0</ele><time>2026-04-25T12:40:05Z</time></trkpt><trkpt lat="41.56608299528476" lon="14.971568274440502"><ele>367.0</ele><time>2026-04-25T12:40:06Z</time></trkpt><trkpt lat="41.566118163416874" lon="14.971436151998175"><ele>367.0</ele><time>2026-04-25T12:40:07Z</time></trkpt><trkpt lat="41.56611387767297" lon="14.97126905665002"><ele>366.20000000000005</ele><time>2026-04-25T12:40:08Z</time></trkpt><trkpt lat="41.56610046118425" lon="14.971121816918421"><ele>365.4</ele><time>2026-04-25T12:40:09Z</time></trkpt><trkpt lat="41.56606834250774" lon="14.970995707613579"><ele>364.6</ele><time>2026-04-25T12:40:10Z</time></trkpt><trkpt lat="41.566059624114814" lon="14.970897060272145"><ele>363.79999999999995</ele><time>2026-04-25T12:40:11Z</time></trkpt><trkpt lat="41.56610415353747" lon="14.970815371149635"><ele>363.0</ele><time>2026-04-25T12:40:12Z</time></trkpt><trkpt lat="41.56620433152835" lon="14.970733978441096"><ele>358.0</ele><time>2026-04-25T12:40:13Z</time></trkpt><trkpt lat="41.56633348456327" lon="14.970657901362582"><ele>353.0</ele><time>2026-04-25T12:40:14Z</time></trkpt><trkpt lat="41.56644803537312" lon="14.970600618438729"><ele>348.0</ele><time>2026-04-25T12:40:15Z</time></trkpt><trkpt lat="41.566549970418485" lon="14.970525316316168"><ele>343.0</ele><time>2026-04-25T12:40:16Z</time></trkpt><trkpt lat="41.566651445592356" lon="14.970448947930564"><ele>343.0</ele><time>2026-04-25T12:40:17Z</time></trkpt><trkpt lat="41.566686171792014" lon="14.970298948949162"><ele>343.0</ele><time>2026-04-25T12:40:18Z</time></trkpt><trkpt lat="41.5667078212779" lon="14.970132150453466"><ele>343.0</ele><time>2026-04-25T12:40:19Z</time></trkpt><trkpt lat="41.566732583375924" lon="14.969935041668089"><ele>343.0</ele><time>2026-04-25T12:40:20Z</time></trkpt><trkpt lat="41.56676054829165" lon="14.969727944739542"><ele>341.0</ele><time>2026-04-25T12:40:21Z</time></trkpt><trkpt lat="41.56679231657473" lon="14.969503901762582"><ele>339.0</ele><time>2026-04-25T12:40:22Z</time></trkpt><trkpt lat="41.56681503958125" lon="14.96927904184195"><ele>337.0</ele><time>2026-04-25T12:40:23Z</time></trkpt><trkpt lat="41.566832821453694" lon="14.969063065598256"><ele>333.0</ele><time>2026-04-25T12:40:24Z</time></trkpt><trkpt lat="41.566850212621084" lon="14.968846056386704"><ele>329.0</ele><time>2026-04-25T12:40:25Z</time></trkpt><trkpt lat="41.566868465767016" lon="14.968618291507894"><ele>325.0</ele><time>2026-04-25T12:40:26Z</time></trkpt><trkpt lat="41.56687047835294" lon="14.968389086693792"><ele>323.3333333333333</ele><time>2026-04-25T12:40:27Z</time></trkpt><trkpt lat="41.566889598233494" lon="14.968167046024034"><ele>321.6666666666667</ele><time>2026-04-25T12:40:28Z</time></trkpt><trkpt lat="41.5668965196254" lon="14.967944999648102"><ele>320.0</ele><time>2026-04-25T12:40:29Z</time></trkpt><trkpt lat="41.5668873238524" lon="14.96772617668571"><ele>320.0</ele><time>2026-04-25T12:40:30Z</time></trkpt><trkpt lat="41.56687821226179" lon="14.967489773864672"><ele>320.0</ele><time>2026-04-25T12:40:31Z</time></trkpt><trkpt lat="41.56685632339051" lon="14.96727427945146"><ele>320.0</ele><time>2026-04-25T12:40:32Z</time></trkpt><trkpt lat="41.56682789199921" lon="14.967075364740635"><ele>320.0</ele><time>2026-04-25T12:40:33Z</time></trkpt><trkpt lat="41.56680593869746" lon="14.966893524734433"><ele>320.0</ele><time>2026-04-25T12:40:34Z</time></trkpt><trkpt lat="41.56679411262256" lon="14.966727420227155"><ele>320.0</ele><time>2026-04-25T12:40:35Z</time></trkpt><trkpt lat="41.56681269916341" lon="14.966554812990283"><ele>320.0</ele><time>2026-04-25T12:40:36Z</time></trkpt><trkpt lat="41.56684895412264" lon="14.966360954165877"><ele>319.6666666666667</ele><time>2026-04-25T12:40:37Z</time></trkpt><trkpt lat="41.56694377677023" lon="14.96617707104123"><ele>319.3333333333333</ele><time>2026-04-25T12:40:38Z</time></trkpt><trkpt lat="41.56703499377982" lon="14.965981449402278"><ele>319.0</ele><time>2026-04-25T12:40:39Z</time></trkpt><trkpt lat="41.567117762782814" lon="14.965794673596474"><ele>317.3333333333333</ele><time>2026-04-25T12:40:40Z</time></trkpt><trkpt lat="41.56719785689313" lon="14.965593344675675"><ele>315.6666666666667</ele><time>2026-04-25T12:40:41Z</time></trkpt><trkpt lat="41.56727647786417" lon="14.965364558180909"><ele>314.0</ele><time>2026-04-25T12:40:42Z</time></trkpt><trkpt lat="41.56734354803062" lon="14.965134936452536"><ele>316.6666666666667</ele><time>2026-04-25T12:40:43Z</time></trkpt><trkpt lat="41.5674065248798" lon="14.964916309594393"><ele>319.3333333333333</ele><time>2026-04-25T12:40:44Z</time></trkpt><trkpt lat="41.56745091262605" lon="14.964696269114391"><ele>322.0</ele><time>2026-04-25T12:40:45Z</time></trkpt><trkpt lat="41.56751007449818" lon="14.964421695539528"><ele>322.0</ele><time>2026-04-25T12:40:46Z</time></trkpt><trkpt lat="41.56744398405514" lon="14.964606296091919"><ele>322.0</ele><time>2026-04-25T12:40:47Z</time></trkpt><trkpt lat="41.5674867055888" lon="14.964432618858197"><ele>322.0</ele><time>2026-04-25T12:40:48Z</time></trkpt><trkpt lat="41.56754834850272" lon="14.964274785559084"><ele>322.0</ele><time>2026-04-25T12:40:49Z</time></trkpt><trkpt lat="41.56760933591538" lon="14.964137834586085"><ele>320.5</ele><time>2026-04-25T12:40:50Z</time></trkpt><trkpt lat="41.567672724914" lon="14.963993324809282"><ele>319.0</ele><time>2026-04-25T12:40:51Z</time></trkpt><trkpt lat="41.56773495713073" lon="14.9638514521458"><ele>317.5</ele><time>2026-04-25T12:40:52Z</time></trkpt><trkpt lat="41.56780656660091" lon="14.963683321392322"><ele>316.0</ele><time>2026-04-25T12:40:53Z</time></trkpt><trkpt lat="41.56785706565472" lon="14.963510474863932"><ele>315.25</ele><time>2026-04-25T12:40:54Z</time></trkpt><trkpt lat="41.56792276772913" lon="14.96335589038263"><ele>314.5</ele><time>2026-04-25T12:40:55Z</time></trkpt><trkpt lat="41.56799027691145" lon="14.963197820765632"><ele>313.75</ele><time>2026-04-25T12:40:56Z</time></trkpt><trkpt lat="41.56807159131541" lon="14.963062924829893"><ele>313.0</ele><time>2026-04-25T12:40:57Z</time></trkpt><trkpt lat="41.56814455559988" lon="14.962924080613965"><ele>313.0</ele><time>2026-04-25T12:40:58Z</time></trkpt><trkpt lat="41.56824499151856" lon="14.962784820900822"><ele>313.0</ele><time>2026-04-25T12:40:59Z</time></trkpt><trkpt lat="41.56833568499173" lon="14.962650886774957"><ele>313.0</ele><time>2026-04-25T12:41:00Z</time></trkpt><trkpt lat="41.56841769678893" lon="14.96249820752852"><ele>313.0</ele><time>2026-04-25T12:41:01Z</time></trkpt><trkpt lat="41.56847202164582" lon="14.962307662178844"><ele>310.25</ele><time>2026-04-25T12:41:02Z</time></trkpt><trkpt lat="41.56851147362668" lon="14.96212534875012"><ele>307.5</ele><time>2026-04-25T12:41:03Z</time></trkpt><trkpt lat="41.56856447236603" lon="14.961941662589517"><ele>304.75</ele><time>2026-04-25T12:41:04Z</time></trkpt><trkpt lat="41.568638753505134" lon="14.961765616113933"><ele>302.0</ele><time>2026-04-25T12:41:05Z</time></trkpt><trkpt lat="41.56874617163703" lon="14.961598246147554"><ele>302.0</ele><time>2026-04-25T12:41:06Z</time></trkpt><trkpt lat="41.56884315366415" lon="14.96142736287637"><ele>302.0</ele><time>2026-04-25T12:41:07Z</time></trkpt><trkpt lat="41.56895182618347" lon="14.961265165165948"><ele>302.0</ele><time>2026-04-25T12:41:08Z</time></trkpt><trkpt lat="41.569073315485475" lon="14.961097266363327"><ele>302.0</ele><time>2026-04-25T12:41:09Z</time></trkpt><trkpt lat="41.56917577404532" lon="14.960927929306006"><ele>302.0</ele><time>2026-04-25T12:41:10Z</time></trkpt><trkpt lat="41.56929118046697" lon="14.96077445143586"><ele>302.0</ele><time>2026-04-25T12:41:11Z</time></trkpt><trkpt lat="41.56941217084054" lon="14.96063753127077"><ele>299.5</ele><time>2026-04-25T12:41:12Z</time></trkpt><trkpt lat="41.56951585829205" lon="14.960487242536695"><ele>297.0</ele><time>2026-04-25T12:41:13Z</time></trkpt><trkpt lat="41.5696046397347" lon="14.960347364413064"><ele>294.5</ele><time>2026-04-25T12:41:14Z</time></trkpt><trkpt lat="41.56969603914643" lon="14.960246684887242"><ele>292.0</ele><time>2026-04-25T12:41:15Z</time></trkpt><trkpt lat="41.569797934356686" lon="14.960202012947867"><ele>292.25</ele><time>2026-04-25T12:41:16Z</time></trkpt><trkpt lat="41.56991519968916" lon="14.960166245720245"><ele>292.5</ele><time>2026-04-25T12:41:17Z</time></trkpt><trkpt lat="41.570063675985516" lon="14.960114146317014"><ele>292.75</ele><time>2026-04-25T12:41:18Z</time></trkpt><trkpt lat="41.57021192373367" lon="14.960064516782998"><ele>293.0</ele><time>2026-04-25T12:41:19Z</time></trkpt><trkpt lat="41.570339380953754" lon="14.959997875687234"><ele>289.0</ele><time>2026-04-25T12:41:20Z</time></trkpt><trkpt lat="41.570456079139106" lon="14.959881139958567"><ele>285.0</ele><time>2026-04-25T12:41:21Z</time></trkpt><trkpt lat="41.5705588939509" lon="14.959770266097319"><ele>281.0</ele><time>2026-04-25T12:41:22Z</time></trkpt><trkpt lat="41.57063750990513" lon="14.959633816985681"><ele>277.0</ele><time>2026-04-25T12:41:23Z</time></trkpt><trkpt lat="41.57072371916085" lon="14.959512780256034"><ele>277.0</ele><time>2026-04-25T12:41:24Z</time></trkpt><trkpt lat="41.57082668289304" lon="14.95937584752514"><ele>277.0</ele><time>2026-04-25T12:41:25Z</time></trkpt><trkpt lat="41.570963603898086" lon="14.959279878689523"><ele>277.0</ele><time>2026-04-25T12:41:26Z</time></trkpt><trkpt lat="41.571124471539356" lon="14.959167474233269"><ele>274.3333333333333</ele><time>2026-04-25T12:41:27Z</time></trkpt><trkpt lat="41.5712810262348" lon="14.95906533649309"><ele>271.6666666666667</ele><time>2026-04-25T12:41:28Z</time></trkpt><trkpt lat="41.5714235342454" lon="14.958972744560906"><ele>269.0</ele><time>2026-04-25T12:41:29Z</time></trkpt><trkpt lat="41.57156096556622" lon="14.958884554309252"><ele>269.0</ele><time>2026-04-25T12:41:30Z</time></trkpt><trkpt lat="41.571699237698326" lon="14.958810369122302"><ele>269.0</ele><time>2026-04-25T12:41:31Z</time></trkpt><trkpt lat="41.57184106283781" lon="14.958751492796827"><ele>269.0</ele><time>2026-04-25T12:41:32Z</time></trkpt><trkpt lat="41.57200190574915" lon="14.958693866650762"><ele>266.0</ele><time>2026-04-25T12:41:33Z</time></trkpt><trkpt lat="41.57216776195238" lon="14.958620635318065"><ele>263.0</ele><time>2026-04-25T12:41:34Z</time></trkpt><trkpt lat="41.572344635394764" lon="14.958573470152645"><ele>260.0</ele><time>2026-04-25T12:41:35Z</time></trkpt><trkpt lat="41.572522532430206" lon="14.958524951925753"><ele>260.0</ele><time>2026-04-25T12:41:36Z</time></trkpt><trkpt lat="41.572704772333964" lon="14.958471720351596"><ele>260.0</ele><time>2026-04-25T12:41:37Z</time></trkpt><trkpt lat="41.57289110156291" lon="14.9584176762941"><ele>260.0</ele><time>2026-04-25T12:41:38Z</time></trkpt><trkpt lat="41.573088322574705" lon="14.958364066880337"><ele>260.6666666666667</ele><time>2026-04-25T12:41:39Z</time></trkpt><trkpt lat="41.57326945120246" lon="14.958241910516179"><ele>261.3333333333333</ele><time>2026-04-25T12:41:40Z</time></trkpt><trkpt lat="41.57344819540485" lon="14.958128479602822"><ele>262.0</ele><time>2026-04-25T12:41:41Z</time></trkpt><trkpt lat="41.57361743040576" lon="14.958038711110763"><ele>264.0</ele><time>2026-04-25T12:41:42Z</time></trkpt><trkpt lat="41.573766962784696" lon="14.95793007213674"><ele>266.0</ele><time>2026-04-25T12:41:43Z</time></trkpt><trkpt lat="41.573891729385025" lon="14.95781192518977"><ele>268.0</ele><time>2026-04-25T12:41:44Z</time></trkpt><trkpt lat="41.57400895333622" lon="14.957720841568445"><ele>268.0</ele><time>2026-04-25T12:41:45Z</time></trkpt><trkpt lat="41.574115981573755" lon="14.957633863862162"><ele>268.0</ele><time>2026-04-25T12:41:46Z</time></trkpt><trkpt lat="41.57422861433684" lon="14.95758737673058"><ele>268.0</ele><time>2026-04-25T12:41:47Z</time></trkpt><trkpt lat="41.57433642805697" lon="14.957552846728003"><ele>268.0</ele><time>2026-04-25T12:41:48Z</time></trkpt><trkpt lat="41.57444210475756" lon="14.957528359383724"><ele>265.6</ele><time>2026-04-25T12:41:49Z</time></trkpt><trkpt lat="41.57453736481559" lon="14.95751169329717"><ele>263.20000000000005</ele><time>2026-04-25T12:41:50Z</time></trkpt><trkpt lat="41.57463671592899" lon="14.957484529893547"><ele>260.8</ele><time>2026-04-25T12:41:51Z</time></trkpt><trkpt lat="41.57473643018409" lon="14.957465331367768"><ele>258.40000000000003</ele><time>2026-04-25T12:41:52Z</time></trkpt><trkpt lat="41.57484089061405" lon="14.95745273147921"><ele>256.0</ele><time>2026-04-25T12:41:53Z</time></trkpt><trkpt lat="41.57494336025678" lon="14.957446000755953"><ele>256.0</ele><time>2026-04-25T12:41:54Z</time></trkpt><trkpt lat="41.575053582404074" lon="14.95744543652718"><ele>256.0</ele><time>2026-04-25T12:41:55Z</time></trkpt><trkpt lat="41.57515517804897" lon="14.957414913707442"><ele>256.0</ele><time>2026-04-25T12:41:56Z</time></trkpt><trkpt lat="41.57525957983298" lon="14.957368369081683"><ele>256.0</ele><time>2026-04-25T12:41:57Z</time></trkpt><trkpt lat="41.575346765469234" lon="14.957309506736102"><ele>256.0</ele><time>2026-04-25T12:41:58Z</time></trkpt><trkpt lat="41.57543064497575" lon="14.957237179974006"><ele>254.83333333333331</ele><time>2026-04-25T12:41:59Z</time></trkpt><trkpt lat="41.57550081516068" lon="14.95714810606667"><ele>253.66666666666666</ele><time>2026-04-25T12:42:00Z</time></trkpt><trkpt lat="41.57557006539454" lon="14.95706831075095"><ele>252.5</ele><time>2026-04-25T12:42:01Z</time></trkpt><trkpt lat="41.57561923375684" lon="14.956987836639938"><ele>251.33333333333331</ele><time>2026-04-25T12:42:02Z</time></trkpt><trkpt lat="41.5756720029313" lon="14.956912265203583"><ele>250.16666666666666</ele><time>2026-04-25T12:42:03Z</time></trkpt><trkpt lat="41.575732475888884" lon="14.956817791961305"><ele>249.0</ele><time>2026-04-25T12:42:04Z</time></trkpt><trkpt lat="41.575812227997964" lon="14.956713626502308"><ele>248.75</ele><time>2026-04-25T12:42:05Z</time></trkpt><trkpt lat="41.57588807090996" lon="14.956590468001524"><ele>248.5</ele><time>2026-04-25T12:42:06Z</time></trkpt><trkpt lat="41.57596991933556" lon="14.956459685942672"><ele>248.25</ele><time>2026-04-25T12:42:07Z</time></trkpt><trkpt lat="41.576049385125955" lon="14.956321512657894"><ele>248.0</ele><time>2026-04-25T12:42:08Z</time></trkpt><trkpt lat="41.57612782942329" lon="14.956177795963935"><ele>245.75</ele><time>2026-04-25T12:42:09Z</time></trkpt><trkpt lat="41.57621243667422" lon="14.95602196849922"><ele>243.5</ele><time>2026-04-25T12:42:10Z</time></trkpt><trkpt lat="41.57630229667689" lon="14.955860145898223"><ele>241.25</ele><time>2026-04-25T12:42:11Z</time></trkpt><trkpt lat="41.57638687022157" lon="14.955700775763736"><ele>239.0</ele><time>2026-04-25T12:42:12Z</time></trkpt><trkpt lat="41.57646700243856" lon="14.95555374079335"><ele>239.0</ele><time>2026-04-25T12:42:13Z</time></trkpt><trkpt lat="41.57655415689615" lon="14.955416644109693"><ele>239.0</ele><time>2026-04-25T12:42:14Z</time></trkpt><trkpt lat="41.57663137547275" lon="14.955255183541766"><ele>239.0</ele><time>2026-04-25T12:42:15Z</time></trkpt><trkpt lat="41.576715298970946" lon="14.955088273879191"><ele>239.0</ele><time>2026-04-25T12:42:16Z</time></trkpt><trkpt lat="41.576797434030155" lon="14.954927792188391"><ele>237.75</ele><time>2026-04-25T12:42:17Z</time></trkpt><trkpt lat="41.57686586406988" lon="14.954775507651531"><ele>236.5</ele><time>2026-04-25T12:42:18Z</time></trkpt><trkpt lat="41.57693728629312" lon="14.954618785125552"><ele>235.25</ele><time>2026-04-25T12:42:19Z</time></trkpt><trkpt lat="41.577011051362696" lon="14.954455886660273"><ele>234.0</ele><time>2026-04-25T12:42:20Z</time></trkpt><trkpt lat="41.57709320454425" lon="14.954286628901734"><ele>231.75</ele><time>2026-04-25T12:42:21Z</time></trkpt><trkpt lat="41.57716655907098" lon="14.954121432898065"><ele>229.5</ele><time>2026-04-25T12:42:22Z</time></trkpt><trkpt lat="41.57723958839686" lon="14.953974347566325"><ele>227.25</ele><time>2026-04-25T12:42:23Z</time></trkpt><trkpt lat="41.577332728255534" lon="14.953845420672755"><ele>225.0</ele><time>2026-04-25T12:42:24Z</time></trkpt><trkpt lat="41.57742587764814" lon="14.953693046245428"><ele>225.0</ele><time>2026-04-25T12:42:25Z</time></trkpt><trkpt lat="41.57752098100661" lon="14.953539967227588"><ele>225.0</ele><time>2026-04-25T12:42:26Z</time></trkpt><trkpt lat="41.57761320287032" lon="14.953394354391518"><ele>225.0</ele><time>2026-04-25T12:42:27Z</time></trkpt><trkpt lat="41.57770224183363" lon="14.953257148601248"><ele>225.0</ele><time>2026-04-25T12:42:28Z</time></trkpt><trkpt lat="41.57778416668181" lon="14.953110498910789"><ele>224.0</ele><time>2026-04-25T12:42:29Z</time></trkpt><trkpt lat="41.577874307668736" lon="14.952986752178768"><ele>223.0</ele><time>2026-04-25T12:42:30Z</time></trkpt><trkpt lat="41.577971206394245" lon="14.952871491063235"><ele>222.0</ele><time>2026-04-25T12:42:31Z</time></trkpt><trkpt lat="41.578064188405236" lon="14.952758740158824"><ele>221.0</ele><time>2026-04-25T12:42:32Z</time></trkpt><trkpt lat="41.57816711301919" lon="14.952663147755992"><ele>221.0</ele><time>2026-04-25T12:42:33Z</time></trkpt><trkpt lat="41.57824368168627" lon="14.952584879274625"><ele>221.00000000000003</ele><time>2026-04-25T12:42:34Z</time></trkpt><trkpt lat="41.57833190597435" lon="14.95248878402148"><ele>221.00000000000003</ele><time>2026-04-25T12:42:35Z</time></trkpt><trkpt lat="41.57841424915594" lon="14.952358710598595"><ele>221.0</ele><time>2026-04-25T12:42:36Z</time></trkpt><trkpt lat="41.57848849858301" lon="14.95226887198949"><ele>221.0</ele><time>2026-04-25T12:42:37Z</time></trkpt><trkpt lat="41.57853536747197" lon="14.95218214877409"><ele>220.0</ele><time>2026-04-25T12:42:39Z</time></trkpt><trkpt lat="41.578606546039225" lon="14.952108166401091"><ele>219.00000000000003</ele><time>2026-04-25T12:42:44Z</time></trkpt><trkpt lat="41.57866430563542" lon="14.952029514564837"><ele>218.00000000000003</ele><time>2026-04-25T12:42:46Z</time></trkpt><trkpt lat="41.57871068163025" lon="14.951966363884011"><ele>217.0</ele><time>2026-04-25T12:42:47Z</time></trkpt><trkpt lat="41.57876203283118" lon="14.951760707433545"><ele>216.0</ele><time>2026-04-25T12:42:49Z</time></trkpt><trkpt lat="41.57883340661517" lon="14.951721407104415"><ele>216.0</ele><time>2026-04-25T12:42:51Z</time></trkpt><trkpt lat="41.57889471836938" lon="14.951755983036733"><ele>216.0</ele><time>2026-04-25T12:42:53Z</time></trkpt><trkpt lat="41.5789584052292" lon="14.951756383860285"><ele>216.0</ele><time>2026-04-25T12:42:55Z</time></trkpt><trkpt lat="41.57902790565984" lon="14.951788227162563"><ele>216.0</ele><time>2026-04-25T12:42:57Z</time></trkpt><trkpt lat="41.578963451104585" lon="14.951839849278425"><ele>216.0</ele><time>2026-04-25T12:43:02Z</time></trkpt><trkpt lat="41.57889994076331" lon="14.951868905322321"><ele>216.0</ele><time>2026-04-25T12:43:04Z</time></trkpt><trkpt lat="41.57880822521155" lon="14.95190414194077"><ele>216.0</ele><time>2026-04-25T12:43:05Z</time></trkpt><trkpt lat="41.57866827770436" lon="14.95198677960182"><ele>216.0</ele><time>2026-04-25T12:43:07Z</time></trkpt><trkpt lat="41.57859232140972" lon="14.952083818366258"><ele>216.00000000000003</ele><time>2026-04-25T12:43:09Z</time></trkpt><trkpt lat="41.57853585869204" lon="14.952140972769831"><ele>216.00000000000003</ele><time>2026-04-25T12:43:10Z</time></trkpt><trkpt lat="41.5784599553605" lon="14.952243771919619"><ele>216.0</ele><time>2026-04-25T12:43:11Z</time></trkpt><trkpt lat="41.57838741077385" lon="14.952307194553716"><ele>216.0</ele><time>2026-04-25T12:43:12Z</time></trkpt><trkpt lat="41.57830033089983" lon="14.95241568917185"><ele>216.0</ele><time>2026-04-25T12:43:13Z</time></trkpt><trkpt lat="41.578201385328676" lon="14.95251214265252"><ele>216.0</ele><time>2026-04-25T12:43:14Z</time></trkpt><trkpt lat="41.57810563717619" lon="14.952648825022152"><ele>216.0</ele><time>2026-04-25T12:43:15Z</time></trkpt><trkpt lat="41.57797264436878" lon="14.952786539049994"><ele>216.0</ele><time>2026-04-25T12:43:16Z</time></trkpt><trkpt lat="41.577827161064896" lon="14.952971821322613"><ele>218.33333333333331</ele><time>2026-04-25T12:43:17Z</time></trkpt><trkpt lat="41.577689850047655" lon="14.95317195606185"><ele>220.66666666666666</ele><time>2026-04-25T12:43:18Z</time></trkpt><trkpt lat="41.57753139271959" lon="14.95338523436057"><ele>223.0</ele><time>2026-04-25T12:43:19Z</time></trkpt><trkpt lat="41.57736694984546" lon="14.953649530887848"><ele>224.0</ele><time>2026-04-25T12:43:20Z</time></trkpt><trkpt lat="41.57721742837881" lon="14.953910099461016"><ele>225.0</ele><time>2026-04-25T12:43:21Z</time></trkpt><trkpt lat="41.577090665077606" lon="14.954144021880277"><ele>228.0</ele><time>2026-04-25T12:43:22Z</time></trkpt><trkpt lat="41.5769827558147" lon="14.954374197307734"><ele>231.0</ele><time>2026-04-25T12:43:23Z</time></trkpt><trkpt lat="41.576878287264854" lon="14.954608005574618"><ele>234.0</ele><time>2026-04-25T12:43:24Z</time></trkpt><trkpt lat="41.57676343351933" lon="14.954864922442882"><ele>235.66666666666669</ele><time>2026-04-25T12:43:25Z</time></trkpt><trkpt lat="41.57664192884354" lon="14.95512454452518"><ele>237.33333333333334</ele><time>2026-04-25T12:43:26Z</time></trkpt><trkpt lat="41.57652865597516" lon="14.95533811359093"><ele>239.0</ele><time>2026-04-25T12:43:27Z</time></trkpt><trkpt lat="41.57642712932242" lon="14.955538744236076"><ele>239.0</ele><time>2026-04-25T12:43:28Z</time></trkpt><trkpt lat="41.576312758534996" lon="14.955754491831126"><ele>239.0</ele><time>2026-04-25T12:43:29Z</time></trkpt><trkpt lat="41.576182701951154" lon="14.955986702820104"><ele>239.0</ele><time>2026-04-25T12:43:30Z</time></trkpt><trkpt lat="41.576059631145725" lon="14.956209747075157"><ele>242.0</ele><time>2026-04-25T12:43:31Z</time></trkpt><trkpt lat="41.575934282646706" lon="14.956417671421095"><ele>245.0</ele><time>2026-04-25T12:43:32Z</time></trkpt><trkpt lat="41.57579232056236" lon="14.956645629003132"><ele>248.0</ele><time>2026-04-25T12:43:33Z</time></trkpt><trkpt lat="41.57565802002467" lon="14.956858679429201"><ele>248.33333333333334</ele><time>2026-04-25T12:43:34Z</time></trkpt><trkpt lat="41.57553677594123" lon="14.957030617775832"><ele>248.66666666666669</ele><time>2026-04-25T12:43:35Z</time></trkpt><trkpt lat="41.5754172526575" lon="14.957181875431903"><ele>249.0</ele><time>2026-04-25T12:43:36Z</time></trkpt><trkpt lat="41.57530317605437" lon="14.957307105556957"><ele>251.33333333333331</ele><time>2026-04-25T12:43:37Z</time></trkpt><trkpt lat="41.575160665938704" lon="14.957379590574895"><ele>253.66666666666666</ele><time>2026-04-25T12:43:38Z</time></trkpt><trkpt lat="41.57499558265937" lon="14.957413443995904"><ele>256.0</ele><time>2026-04-25T12:43:39Z</time></trkpt><trkpt lat="41.57480762388775" lon="14.95743164795522"><ele>256.0</ele><time>2026-04-25T12:43:40Z</time></trkpt><trkpt lat="41.574625821989734" lon="14.957461599571563"><ele>256.0</ele><time>2026-04-25T12:43:41Z</time></trkpt><trkpt lat="41.574481498546234" lon="14.957493911283986"><ele>256.0</ele><time>2026-04-25T12:43:42Z</time></trkpt><trkpt lat="41.57437181909411" lon="14.957496284397314"><ele>256.0</ele><time>2026-04-25T12:43:43Z</time></trkpt><trkpt lat="41.57425564648267" lon="14.957530760678578"><ele>259.0</ele><time>2026-04-25T12:43:44Z</time></trkpt><trkpt lat="41.57415296734004" lon="14.95758425171957"><ele>262.0</ele><time>2026-04-25T12:43:45Z</time></trkpt><trkpt lat="41.57405164438952" lon="14.95765073366874"><ele>265.0</ele><time>2026-04-25T12:43:46Z</time></trkpt><trkpt lat="41.57394715959044" lon="14.957726176840893"><ele>268.0</ele><time>2026-04-25T12:43:47Z</time></trkpt><trkpt lat="41.573850646844214" lon="14.957805732079704"><ele>268.0</ele><time>2026-04-25T12:43:48Z</time></trkpt><trkpt lat="41.57378283878025" lon="14.957871113205202"><ele>268.0</ele><time>2026-04-25T12:43:49Z</time></trkpt><trkpt lat="41.5737171894104" lon="14.957914360052387"><ele>268.0</ele><time>2026-04-25T12:43:50Z</time></trkpt><trkpt lat="41.5736596674378" lon="14.9579511047508"><ele>268.0</ele><time>2026-04-25T12:43:51Z</time></trkpt><trkpt lat="41.57358181598838" lon="14.958001216770095"><ele>268.0</ele><time>2026-04-25T12:43:53Z</time></trkpt><trkpt lat="41.57354097351578" lon="14.958172822385055"><ele>268.0</ele><time>2026-04-25T12:48:08.02Z</time></trkpt><trkpt lat="41.57357098072914" lon="14.9580444954475"><ele>267.0</ele><time>2026-04-25T12:48:10.003Z</time></trkpt><trkpt lat="41.57349744930682" lon="14.958051136151134"><ele>266.0</ele><time>2026-04-25T12:48:37.001Z</time></trkpt><trkpt lat="41.57344051508204" lon="14.95809042720715"><ele>265.0</ele><time>2026-04-25T12:48:38.001Z</time></trkpt><trkpt lat="41.57337794876685" lon="14.95813260376285"><ele>264.0</ele><time>2026-04-25T12:48:39.001Z</time></trkpt><trkpt lat="41.573296351689585" lon="14.958185057695802"><ele>263.0</ele><time>2026-04-25T12:48:40.001Z</time></trkpt><trkpt lat="41.57320355156805" lon="14.958243605865057"><ele>262.0</ele><time>2026-04-25T12:48:41.001Z</time></trkpt><trkpt lat="41.57310485375771" lon="14.958303132526494"><ele>262.0</ele><time>2026-04-25T12:48:42.001Z</time></trkpt><trkpt lat="41.572996401678516" lon="14.958355300139026"><ele>262.0</ele><time>2026-04-25T12:48:43.001Z</time></trkpt><trkpt lat="41.57288520891378" lon="14.958397226815922"><ele>262.0</ele><time>2026-04-25T12:48:44.001Z</time></trkpt><trkpt lat="41.572760426612405" lon="14.958432847785378"><ele>262.0</ele><time>2026-04-25T12:48:45.001Z</time></trkpt><trkpt lat="41.57262810650394" lon="14.958469029949057"><ele>261.5</ele><time>2026-04-25T12:48:46.001Z</time></trkpt><trkpt lat="41.572489871349205" lon="14.958507464014804"><ele>261.0</ele><time>2026-04-25T12:48:47.001Z</time></trkpt><trkpt lat="41.572353822028276" lon="14.95855286829458"><ele>260.5</ele><time>2026-04-25T12:48:48.001Z</time></trkpt><trkpt lat="41.5722169279818" lon="14.958596438583074"><ele>260.0</ele><time>2026-04-25T12:48:49.001Z</time></trkpt><trkpt lat="41.572079993082" lon="14.958626118576904"><ele>262.25</ele><time>2026-04-25T12:48:50.001Z</time></trkpt><trkpt lat="41.57194338523362" lon="14.958668928957065"><ele>264.5</ele><time>2026-04-25T12:48:51.001Z</time></trkpt><trkpt lat="41.57181773882354" lon="14.958715890206904"><ele>266.75</ele><time>2026-04-25T12:48:52Z</time></trkpt><trkpt lat="41.57168324336076" lon="14.958762118102785"><ele>269.0</ele><time>2026-04-25T12:48:53Z</time></trkpt><trkpt lat="41.571553519054426" lon="14.958829122949702"><ele>269.0</ele><time>2026-04-25T12:48:54Z</time></trkpt><trkpt lat="41.57142355042227" lon="14.95890631957936"><ele>269.0</ele><time>2026-04-25T12:48:55Z</time></trkpt><trkpt lat="41.57128417133207" lon="14.959008930094612"><ele>269.0</ele><time>2026-04-25T12:48:56Z</time></trkpt><trkpt lat="41.571141961577354" lon="14.959116626310102"><ele>271.6666666666667</ele><time>2026-04-25T12:48:57Z</time></trkpt><trkpt lat="41.57099967217855" lon="14.959227975467684"><ele>274.3333333333333</ele><time>2026-04-25T12:48:58Z</time></trkpt><trkpt lat="41.57086620199637" lon="14.959323097046276"><ele>277.0</ele><time>2026-04-25T12:48:59Z</time></trkpt><trkpt lat="41.57075251251405" lon="14.959443096636097"><ele>277.0</ele><time>2026-04-25T12:49:00Z</time></trkpt><trkpt lat="41.57063434808595" lon="14.959589392771711"><ele>277.0</ele><time>2026-04-25T12:49:01Z</time></trkpt><trkpt lat="41.57053317755571" lon="14.959758002029641"><ele>277.0</ele><time>2026-04-25T12:49:02Z</time></trkpt><trkpt lat="41.57041640182484" lon="14.9598646684454"><ele>280.0</ele><time>2026-04-25T12:49:03Z</time></trkpt><trkpt lat="41.5703074215505" lon="14.959955944867136"><ele>283.0</ele><time>2026-04-25T12:49:04Z</time></trkpt><trkpt lat="41.57018675451212" lon="14.96002921544731"><ele>286.0</ele><time>2026-04-25T12:49:05Z</time></trkpt><trkpt lat="41.5700520701967" lon="14.960076864553415"><ele>289.0</ele><time>2026-04-25T12:49:06Z</time></trkpt><trkpt lat="41.56989514500822" lon="14.96012686518823"><ele>289.0</ele><time>2026-04-25T12:49:07Z</time></trkpt><trkpt lat="41.569771540235394" lon="14.960173395912308"><ele>289.0</ele><time>2026-04-25T12:49:08Z</time></trkpt><trkpt lat="41.569673841210076" lon="14.96021103692834"><ele>289.0</ele><time>2026-04-25T12:49:09Z</time></trkpt><trkpt lat="41.56958411718009" lon="14.960291634097983"><ele>289.0</ele><time>2026-04-25T12:49:10Z</time></trkpt><trkpt lat="41.56949380135948" lon="14.96041935189811"><ele>289.75</ele><time>2026-04-25T12:49:11Z</time></trkpt><trkpt lat="41.56940428542413" lon="14.9605674260796"><ele>290.5</ele><time>2026-04-25T12:49:12Z</time></trkpt><trkpt lat="41.56931669314147" lon="14.960723522358599"><ele>291.25</ele><time>2026-04-25T12:49:13Z</time></trkpt><trkpt lat="41.56921518785594" lon="14.960872853995056"><ele>292.0</ele><time>2026-04-25T12:49:14Z</time></trkpt><trkpt lat="41.56910491841328" lon="14.9610118611878"><ele>295.3333333333333</ele><time>2026-04-25T12:49:15Z</time></trkpt><trkpt lat="41.56898926137545" lon="14.96115991835592"><ele>298.6666666666667</ele><time>2026-04-25T12:49:16Z</time></trkpt><trkpt lat="41.56887174143906" lon="14.961308944227389"><ele>302.0</ele><time>2026-04-25T12:49:17Z</time></trkpt><trkpt lat="41.568762076598894" lon="14.961468804665689"><ele>301.33333333333337</ele><time>2026-04-25T12:49:18Z</time></trkpt><trkpt lat="41.568670937439215" lon="14.961644590509868"><ele>300.6666666666667</ele><time>2026-04-25T12:49:19Z</time></trkpt><trkpt lat="41.56858280501544" lon="14.961826210621533"><ele>300.0</ele><time>2026-04-25T12:49:20Z</time></trkpt><trkpt lat="41.56850615544003" lon="14.962019990205407"><ele>300.0</ele><time>2026-04-25T12:49:21Z</time></trkpt><trkpt lat="41.56844139441109" lon="14.96221942156697"><ele>300.0</ele><time>2026-04-25T12:49:22Z</time></trkpt><trkpt lat="41.56838983360075" lon="14.962421997670093"><ele>300.0</ele><time>2026-04-25T12:49:23Z</time></trkpt><trkpt lat="41.56833490437706" lon="14.962610757165145"><ele>304.3333333333333</ele><time>2026-04-25T12:49:24Z</time></trkpt><trkpt lat="41.56823062088186" lon="14.962759432936473"><ele>308.66666666666663</ele><time>2026-04-25T12:49:25Z</time></trkpt><trkpt lat="41.568123322363505" lon="14.962916292706117"><ele>313.0</ele><time>2026-04-25T12:49:26Z</time></trkpt><trkpt lat="41.56801445258933" lon="14.963084442183705"><ele>313.0</ele><time>2026-04-25T12:49:27Z</time></trkpt><trkpt lat="41.5679184617791" lon="14.963256423949794"><ele>313.0</ele><time>2026-04-25T12:49:28Z</time></trkpt><trkpt lat="41.56784147725824" lon="14.963459322200467"><ele>313.0</ele><time>2026-04-25T12:49:29Z</time></trkpt><trkpt lat="41.56776594521081" lon="14.963675329618674"><ele>314.0</ele><time>2026-04-25T12:49:30Z</time></trkpt><trkpt lat="41.567685853142414" lon="14.963885898560315"><ele>315.0</ele><time>2026-04-25T12:49:31Z</time></trkpt><trkpt lat="41.56761135846052" lon="14.964057778202099"><ele>316.0</ele><time>2026-04-25T12:49:32Z</time></trkpt><trkpt lat="41.567545770488536" lon="14.964209717362767"><ele>317.5</ele><time>2026-04-25T12:49:33Z</time></trkpt><trkpt lat="41.56747713380925" lon="14.964366455930994"><ele>319.0</ele><time>2026-04-25T12:49:34Z</time></trkpt><trkpt lat="41.56741627389084" lon="14.964526204864454"><ele>320.5</ele><time>2026-04-25T12:49:35Z</time></trkpt><trkpt lat="41.56737840328299" lon="14.964693055966123"><ele>322.0</ele><time>2026-04-25T12:49:36Z</time></trkpt><trkpt lat="41.56736696804268" lon="14.964870588635534"><ele>322.0</ele><time>2026-04-25T12:49:37Z</time></trkpt><trkpt lat="41.56735225759749" lon="14.965027525150884"><ele>322.0</ele><time>2026-04-25T12:49:38Z</time></trkpt><trkpt lat="41.56729702663152" lon="14.965175876933625"><ele>322.0</ele><time>2026-04-25T12:49:39Z</time></trkpt><trkpt lat="41.567255273517326" lon="14.965346021218945"><ele>322.0</ele><time>2026-04-25T12:49:40Z</time></trkpt><trkpt lat="41.5671954477801" lon="14.965517466752198"><ele>321.0</ele><time>2026-04-25T12:49:41Z</time></trkpt><trkpt lat="41.56711655439836" lon="14.96571356115438"><ele>320.0</ele><time>2026-04-25T12:49:42Z</time></trkpt><trkpt lat="41.567033908864815" lon="14.96590076755359"><ele>319.0</ele><time>2026-04-25T12:49:43Z</time></trkpt><trkpt lat="41.5669556491717" lon="14.96607479086763"><ele>319.0</ele><time>2026-04-25T12:49:44Z</time></trkpt><trkpt lat="41.56687035017996" lon="14.966232943733688"><ele>319.0</ele><time>2026-04-25T12:49:45Z</time></trkpt><trkpt lat="41.56679943786232" lon="14.966395167871974"><ele>319.0</ele><time>2026-04-25T12:49:46Z</time></trkpt><trkpt lat="41.56675863953983" lon="14.966555736283901"><ele>319.0</ele><time>2026-04-25T12:49:47Z</time></trkpt><trkpt lat="41.566749672439656" lon="14.966728379631324"><ele>319.3333333333333</ele><time>2026-04-25T12:49:48Z</time></trkpt><trkpt lat="41.56676665926003" lon="14.966920300414353"><ele>319.6666666666667</ele><time>2026-04-25T12:49:49Z</time></trkpt><trkpt lat="41.56680009207217" lon="14.967120954715178"><ele>320.0</ele><time>2026-04-25T12:49:50Z</time></trkpt><trkpt lat="41.566828219430604" lon="14.967337405294046"><ele>320.0</ele><time>2026-04-25T12:49:51Z</time></trkpt><trkpt lat="41.5668582146844" lon="14.967574287859525"><ele>320.0</ele><time>2026-04-25T12:49:52Z</time></trkpt><trkpt lat="41.566879669438286" lon="14.96781485717547"><ele>320.0</ele><time>2026-04-25T12:49:53Z</time></trkpt><trkpt lat="41.56688658875485" lon="14.968038932955709"><ele>320.0</ele><time>2026-04-25T12:49:54Z</time></trkpt><trkpt lat="41.566876473232234" lon="14.968268457241127"><ele>320.0</ele><time>2026-04-25T12:49:55Z</time></trkpt><trkpt lat="41.566853406734666" lon="14.968508342279128"><ele>320.0</ele><time>2026-04-25T12:49:56Z</time></trkpt><trkpt lat="41.5668207759866" lon="14.968753748382637"><ele>321.6666666666667</ele><time>2026-04-25T12:49:57Z</time></trkpt><trkpt lat="41.56679508667769" lon="14.968999313163895"><ele>323.3333333333333</ele><time>2026-04-25T12:49:58Z</time></trkpt><trkpt lat="41.56677673761893" lon="14.969246281963358"><ele>325.0</ele><time>2026-04-25T12:49:59Z</time></trkpt><trkpt lat="41.56675522356735" lon="14.969508134207272"><ele>329.0</ele><time>2026-04-25T12:50:00Z</time></trkpt><trkpt lat="41.56673816440449" lon="14.969761965984386"><ele>333.0</ele><time>2026-04-25T12:50:01Z</time></trkpt><trkpt lat="41.56670879009671" lon="14.969985792334603"><ele>337.0</ele><time>2026-04-25T12:50:02Z</time></trkpt><trkpt lat="41.56668290831573" lon="14.970174363173651"><ele>338.5</ele><time>2026-04-25T12:50:03Z</time></trkpt><trkpt lat="41.56664608126874" lon="14.970338993933959"><ele>340.0</ele><time>2026-04-25T12:50:04Z</time></trkpt><trkpt lat="41.566616092245816" lon="14.970472833796114"><ele>341.5</ele><time>2026-04-25T12:50:05Z</time></trkpt><trkpt lat="41.5665125832314" lon="14.97053431516154"><ele>343.0</ele><time>2026-04-25T12:50:06Z</time></trkpt><trkpt lat="41.56637825522223" lon="14.97060320689952"><ele>343.0</ele><time>2026-04-25T12:50:07Z</time></trkpt><trkpt lat="41.566248821194634" lon="14.970690292894771"><ele>343.0</ele><time>2026-04-25T12:50:08Z</time></trkpt><trkpt lat="41.56614571662554" lon="14.97073506352426"><ele>343.0</ele><time>2026-04-25T12:50:09Z</time></trkpt><trkpt lat="41.56606429320703" lon="14.97080094391345"><ele>343.0</ele><time>2026-04-25T12:50:10Z</time></trkpt><trkpt lat="41.56602183896078" lon="14.970880903618763"><ele>343.0</ele><time>2026-04-25T12:50:11Z</time></trkpt><trkpt lat="41.5660273929967" lon="14.970986350216833"><ele>348.0</ele><time>2026-04-25T12:50:12Z</time></trkpt><trkpt lat="41.56606705693717" lon="14.971132350267416"><ele>353.0</ele><time>2026-04-25T12:50:13Z</time></trkpt><trkpt lat="41.5660919551738" lon="14.971305812214148"><ele>358.0</ele><time>2026-04-25T12:50:14Z</time></trkpt><trkpt lat="41.566084969991344" lon="14.971460688582319"><ele>363.0</ele><time>2026-04-25T12:50:15.001Z</time></trkpt><trkpt lat="41.56604228192518" lon="14.971588141812424"><ele>363.0</ele><time>2026-04-25T12:50:16.001Z</time></trkpt><trkpt lat="41.56596392654513" lon="14.971686704550043"><ele>363.0</ele><time>2026-04-25T12:50:17.001Z</time></trkpt><trkpt lat="41.56585607780321" lon="14.971730585076067"><ele>363.0</ele><time>2026-04-25T12:50:18.001Z</time></trkpt><trkpt lat="41.565755212751185" lon="14.971808782244642"><ele>363.0</ele><time>2026-04-25T12:50:19.001Z</time></trkpt><trkpt lat="41.565653498779916" lon="14.971856365018036"><ele>363.0</ele><time>2026-04-25T12:50:20.001Z</time></trkpt><trkpt lat="41.56557963813312" lon="14.971861611247483"><ele>363.79999999999995</ele><time>2026-04-25T12:50:21.001Z</time></trkpt><trkpt lat="41.56551978823243" lon="14.97192416056844"><ele>364.6</ele><time>2026-04-25T12:50:22.001Z</time></trkpt><trkpt lat="41.56547651882674" lon="14.972015095424771"><ele>365.4</ele><time>2026-04-25T12:50:23.001Z</time></trkpt><trkpt lat="41.56542063938428" lon="14.972156831246988"><ele>366.20000000000005</ele><time>2026-04-25T12:50:24.001Z</time></trkpt><trkpt lat="41.56535415671152" lon="14.97232544532639"><ele>367.0</ele><time>2026-04-25T12:50:25.001Z</time></trkpt><trkpt lat="41.56528602507373" lon="14.972474196073323"><ele>370.20000000000005</ele><time>2026-04-25T12:50:26.001Z</time></trkpt><trkpt lat="41.5652061208716" lon="14.972622108384897"><ele>373.4</ele><time>2026-04-25T12:50:27.001Z</time></trkpt><trkpt lat="41.5651404902165" lon="14.97276131662321"><ele>376.6</ele><time>2026-04-25T12:50:28.001Z</time></trkpt><trkpt lat="41.56507268979937" lon="14.972851246998315"><ele>379.79999999999995</ele><time>2026-04-25T12:50:29.001Z</time></trkpt><trkpt lat="41.5649983351363" lon="14.972897470228151"><ele>383.0</ele><time>2026-04-25T12:50:30.001Z</time></trkpt><trkpt lat="41.564895075784655" lon="14.97290025278455"><ele>383.0</ele><time>2026-04-25T12:50:31.001Z</time></trkpt><trkpt lat="41.56475763662143" lon="14.972905426173869"><ele>383.0</ele><time>2026-04-25T12:50:32.001Z</time></trkpt><trkpt lat="41.56462538461363" lon="14.972935249749959"><ele>383.0</ele><time>2026-04-25T12:50:33.001Z</time></trkpt><trkpt lat="41.56449585009041" lon="14.972969543106785"><ele>383.0</ele><time>2026-04-25T12:50:34.001Z</time></trkpt><trkpt lat="41.56434992141134" lon="14.973000227649896"><ele>385.75</ele><time>2026-04-25T12:50:35Z</time></trkpt><trkpt lat="41.56418402560827" lon="14.973014046676495"><ele>388.5</ele><time>2026-04-25T12:50:36Z</time></trkpt><trkpt lat="41.564040451116156" lon="14.973003709898114"><ele>391.25</ele><time>2026-04-25T12:50:37Z</time></trkpt><trkpt lat="41.563908892999656" lon="14.973003074628323"><ele>394.0</ele><time>2026-04-25T12:50:38Z</time></trkpt><trkpt lat="41.56380246848723" lon="14.973012399796257"><ele>394.00000000000006</ele><time>2026-04-25T12:50:39Z</time></trkpt><trkpt lat="41.56372039232282" lon="14.973052151186923"><ele>394.0</ele><time>2026-04-25T12:50:40Z</time></trkpt><trkpt lat="41.563669698706384" lon="14.973124278959963"><ele>394.0</ele><time>2026-04-25T12:50:41Z</time></trkpt><trkpt lat="41.56365323694207" lon="14.973235337378318"><ele>394.0</ele><time>2026-04-25T12:50:42Z</time></trkpt><trkpt lat="41.56368352055717" lon="14.973326885679047"><ele>394.00000000000006</ele><time>2026-04-25T12:50:43Z</time></trkpt><trkpt lat="41.56374238774804" lon="14.973391404961227"><ele>394.0</ele><time>2026-04-25T12:50:44Z</time></trkpt><trkpt lat="41.56383150288439" lon="14.973453977258481"><ele>397.6</ele><time>2026-04-25T12:50:45Z</time></trkpt><trkpt lat="41.56393732106455" lon="14.973540764586952"><ele>401.2</ele><time>2026-04-25T12:50:46Z</time></trkpt><trkpt lat="41.56402921775215" lon="14.973648232644985"><ele>404.8</ele><time>2026-04-25T12:50:47Z</time></trkpt><trkpt lat="41.564087697157376" lon="14.973761910767433"><ele>408.40000000000003</ele><time>2026-04-25T12:50:48Z</time></trkpt><trkpt lat="41.564092915644636" lon="14.97385924968545"><ele>412.0</ele><time>2026-04-25T12:50:49Z</time></trkpt><trkpt lat="41.56403816202502" lon="14.97391349659455"><ele>412.0</ele><time>2026-04-25T12:50:50Z</time></trkpt><trkpt lat="41.563962189080094" lon="14.97392816255772"><ele>412.0</ele><time>2026-04-25T12:50:51Z</time></trkpt><trkpt lat="41.56384279224582" lon="14.973911601695775"><ele>412.0</ele><time>2026-04-25T12:50:52Z</time></trkpt><trkpt lat="41.56372790688612" lon="14.973977603014859"><ele>412.0</ele><time>2026-04-25T12:50:53Z</time></trkpt><trkpt lat="41.563620100562304" lon="14.974031727088411"><ele>412.0</ele><time>2026-04-25T12:50:54Z</time></trkpt><trkpt lat="41.563547792851345" lon="14.974099008438534"><ele>411.20000000000005</ele><time>2026-04-25T12:50:55Z</time></trkpt><trkpt lat="41.56352472243233" lon="14.97417942546815"><ele>410.4</ele><time>2026-04-25T12:50:56Z</time></trkpt><trkpt lat="41.56353606627764" lon="14.97431126842143"><ele>409.6</ele><time>2026-04-25T12:50:57Z</time></trkpt><trkpt lat="41.563559243573366" lon="14.974478275442149"><ele>408.79999999999995</ele><time>2026-04-25T12:50:58Z</time></trkpt><trkpt lat="41.56358879878579" lon="14.974640015638105"><ele>408.0</ele><time>2026-04-25T12:50:59Z</time></trkpt><trkpt lat="41.563593064225024" lon="14.974747190958569"><ele>410.59999999999997</ele><time>2026-04-25T12:51:00Z</time></trkpt><trkpt lat="41.56359658411762" lon="14.974834824927719"><ele>413.2</ele><time>2026-04-25T12:51:01Z</time></trkpt><trkpt lat="41.563670646011396" lon="14.974923340030005"><ele>415.8</ele><time>2026-04-25T12:51:03Z</time></trkpt><trkpt lat="41.56380802344737" lon="14.974817480399594"><ele>418.4</ele><time>2026-04-25T12:51:05Z</time></trkpt><trkpt lat="41.5638769031539" lon="14.974730204366523"><ele>421.0</ele><time>2026-04-25T12:51:06Z</time></trkpt><trkpt lat="41.56394835258958" lon="14.974693227899246"><ele>422.50000000000006</ele><time>2026-04-25T12:51:07Z</time></trkpt><trkpt lat="41.56401463153838" lon="14.974713095698146"><ele>424.0</ele><time>2026-04-25T12:51:08Z</time></trkpt><trkpt lat="41.56409325099117" lon="14.974788360782352"><ele>425.5</ele><time>2026-04-25T12:51:09Z</time></trkpt><trkpt lat="41.5641284051131" lon="14.974873898341498"><ele>427.0</ele><time>2026-04-25T12:51:10Z</time></trkpt><trkpt lat="41.56410507117528" lon="14.97496139464712"><ele>428.50000000000006</ele><time>2026-04-25T12:51:11Z</time></trkpt><trkpt lat="41.56404364710931" lon="14.975069728105474"><ele>430.0</ele><time>2026-04-25T12:51:12Z</time></trkpt><trkpt lat="41.56397611936138" lon="14.97520819561852"><ele>431.0</ele><time>2026-04-25T12:51:13Z</time></trkpt><trkpt lat="41.56393663039197" lon="14.975354351855964"><ele>432.0</ele><time>2026-04-25T12:51:14Z</time></trkpt><trkpt lat="41.56391327358445" lon="14.975506769195173"><ele>433.0</ele><time>2026-04-25T12:51:15Z</time></trkpt><trkpt lat="41.56389842355578" lon="14.975638428606175"><ele>434.0</ele><time>2026-04-25T12:51:16Z</time></trkpt><trkpt lat="41.56389683847843" lon="14.975779374578304"><ele>435.0</ele><time>2026-04-25T12:51:17Z</time></trkpt><trkpt lat="41.56390942228016" lon="14.975924065582662"><ele>435.0</ele><time>2026-04-25T12:51:18Z</time></trkpt><trkpt lat="41.563924865843106" lon="14.976081692761129"><ele>435.0</ele><time>2026-04-25T12:51:19Z</time></trkpt><trkpt lat="41.563937413501314" lon="14.976249397606413"><ele>435.0</ele><time>2026-04-25T12:51:20Z</time></trkpt><trkpt lat="41.563942018133325" lon="14.976376812364013"><ele>435.0</ele><time>2026-04-25T12:51:21Z</time></trkpt><trkpt lat="41.56390505322071" lon="14.976489907228872"><ele>435.0</ele><time>2026-04-25T12:51:22Z</time></trkpt><trkpt lat="41.563831731587804" lon="14.976552964562476"><ele>435.0</ele><time>2026-04-25T12:51:23Z</time></trkpt><trkpt lat="41.563735633887234" lon="14.97666460675652"><ele>435.0</ele><time>2026-04-25T12:51:24Z</time></trkpt><trkpt lat="41.56363355339169" lon="14.976776803330187"><ele>435.0</ele><time>2026-04-25T12:51:25Z</time></trkpt><trkpt lat="41.56354488591067" lon="14.976891320144697"><ele>435.0</ele><time>2026-04-25T12:51:26Z</time></trkpt><trkpt lat="41.56346341913027" lon="14.977011573463155"><ele>438.3333333333333</ele><time>2026-04-25T12:51:27Z</time></trkpt><trkpt lat="41.56339731581378" lon="14.977119299609935"><ele>441.66666666666663</ele><time>2026-04-25T12:51:28Z</time></trkpt><trkpt lat="41.563342163663904" lon="14.977220707628979"><ele>445.0</ele><time>2026-04-25T12:51:29Z</time></trkpt><trkpt lat="41.563305876094006" lon="14.977311653447883"><ele>448.3333333333333</ele><time>2026-04-25T12:51:30Z</time></trkpt><trkpt lat="41.56325512010941" lon="14.977378481441152"><ele>451.66666666666663</ele><time>2026-04-25T12:51:31Z</time></trkpt><trkpt lat="41.56318221280722" lon="14.977425824687323"><ele>455.0</ele><time>2026-04-25T12:51:32Z</time></trkpt><trkpt lat="41.56309859583513" lon="14.977484089247065"><ele>455.8</ele><time>2026-04-25T12:51:33Z</time></trkpt><trkpt lat="41.56300218983725" lon="14.977547364936404"><ele>456.6</ele><time>2026-04-25T12:51:34Z</time></trkpt><trkpt lat="41.56290817365465" lon="14.977604300594699"><ele>457.4</ele><time>2026-04-25T12:51:35Z</time></trkpt><trkpt lat="41.562804528766755" lon="14.977659843729844"><ele>458.2</ele><time>2026-04-25T12:51:36Z</time></trkpt><trkpt lat="41.562694740442126" lon="14.97769927499173"><ele>459.0</ele><time>2026-04-25T12:51:37Z</time></trkpt><trkpt lat="41.562588988638474" lon="14.977757097623941"><ele>459.0</ele><time>2026-04-25T12:51:38Z</time></trkpt><trkpt lat="41.562489142900404" lon="14.977813325257587"><ele>459.0</ele><time>2026-04-25T12:51:39Z</time></trkpt><trkpt lat="41.562388175677526" lon="14.977872644760058"><ele>459.0</ele><time>2026-04-25T12:51:40Z</time></trkpt><trkpt lat="41.562283396107794" lon="14.977927545310349"><ele>459.0</ele><time>2026-04-25T12:51:41Z</time></trkpt><trkpt lat="41.56218361431783" lon="14.97797898683019"><ele>459.0</ele><time>2026-04-25T12:51:42Z</time></trkpt><trkpt lat="41.56210225601403" lon="14.978036635474947"><ele>459.6666666666667</ele><time>2026-04-25T12:51:43Z</time></trkpt><trkpt lat="41.562025480553686" lon="14.978091189308598"><ele>460.33333333333337</ele><time>2026-04-25T12:51:44Z</time></trkpt><trkpt lat="41.56195600161018" lon="14.9781229262713"><ele>461.0</ele><time>2026-04-25T12:51:45Z</time></trkpt><trkpt lat="41.56189490013352" lon="14.978180556179657"><ele>461.6666666666667</ele><time>2026-04-25T12:51:46Z</time></trkpt><trkpt lat="41.561835588278576" lon="14.978271978403425"><ele>462.33333333333337</ele><time>2026-04-25T12:51:47Z</time></trkpt><trkpt lat="41.56181833076711" lon="14.978392597798123"><ele>463.0</ele><time>2026-04-25T12:51:48Z</time></trkpt><trkpt lat="41.56178408674882" lon="14.978465842771305"><ele>463.0</ele><time>2026-04-25T12:51:49Z</time></trkpt><trkpt lat="41.56175296786787" lon="14.978552753640832"><ele>462.99999999999994</ele><time>2026-04-25T12:51:50Z</time></trkpt><trkpt lat="41.56165398026535" lon="14.978696177378307"><ele>462.99999999999994</ele><time>2026-04-25T12:51:52Z</time></trkpt><trkpt lat="41.56157166736312" lon="14.978815038824589"><ele>463.0</ele><time>2026-04-25T12:51:54Z</time></trkpt><trkpt lat="41.56153897658344" lon="14.978888407590594"><ele>463.0</ele><time>2026-04-25T12:51:55Z</time></trkpt><trkpt lat="41.56147386295426" lon="14.9790074517056"><ele>463.0</ele><time>2026-04-25T12:51:57Z</time></trkpt><trkpt lat="41.56139983590379" lon="14.979121998317934"><ele>462.99999999999994</ele><time>2026-04-25T12:51:59Z</time></trkpt><trkpt lat="41.561352016525134" lon="14.97919230708858"><ele>462.99999999999994</ele><time>2026-04-25T12:52:00Z</time></trkpt><trkpt lat="41.56135049410337" lon="14.979307211355477"><ele>463.0</ele><time>2026-04-25T12:52:01Z</time></trkpt><trkpt lat="41.561313604693964" lon="14.979441258432944"><ele>463.0</ele><time>2026-04-25T12:52:03Z</time></trkpt><trkpt lat="41.561236441939776" lon="14.979485714098235"><ele>463.59999999999997</ele><time>2026-04-25T12:52:05.999Z</time></trkpt><trkpt lat="41.5612474512223" lon="14.979608836532243"><ele>464.19999999999993</ele><time>2026-04-25T12:52:08.999Z</time></trkpt><trkpt lat="41.56124288094266" lon="14.979750050305922"><ele>464.8</ele><time>2026-04-25T12:52:10.999Z</time></trkpt><trkpt lat="41.56117892677697" lon="14.97985896549967"><ele>465.4</ele><time>2026-04-25T12:52:12.999Z</time></trkpt><trkpt lat="41.56112925366746" lon="14.979949013110732"><ele>466.0</ele><time>2026-04-25T12:52:14.999Z</time></trkpt><trkpt lat="41.5610843495253" lon="14.980036548111737"><ele>467.6</ele><time>2026-04-25T12:52:16.999Z</time></trkpt><trkpt lat="41.56099426085677" lon="14.97999937730986"><ele>469.20000000000005</ele><time>2026-04-25T12:52:17.999Z</time></trkpt><trkpt lat="41.56087043830669" lon="14.980007849757108"><ele>470.79999999999995</ele><time>2026-04-25T12:52:19.999Z</time></trkpt><trkpt lat="41.56077758048841" lon="14.980028772124685"><ele>472.4</ele><time>2026-04-25T12:52:21Z</time></trkpt><trkpt lat="41.56068753317103" lon="14.98006610896112"><ele>474.0</ele><time>2026-04-25T12:52:22Z</time></trkpt><trkpt lat="41.56059576054581" lon="14.980088372318791"><ele>474.1666666666667</ele><time>2026-04-25T12:52:23Z</time></trkpt><trkpt lat="41.560501843556715" lon="14.980101497565466"><ele>474.33333333333337</ele><time>2026-04-25T12:52:24Z</time></trkpt><trkpt lat="41.560408558208444" lon="14.980113659012611"><ele>474.5</ele><time>2026-04-25T12:52:25Z</time></trkpt><trkpt lat="41.56031919212334" lon="14.98011655108029"><ele>474.6666666666667</ele><time>2026-04-25T12:52:26Z</time></trkpt><trkpt lat="41.56025287559104" lon="14.980118893095575"><ele>474.83333333333337</ele><time>2026-04-25T12:52:27Z</time></trkpt><trkpt lat="41.56017261837482" lon="14.980161406900482"><ele>475.0</ele><time>2026-04-25T12:52:29Z</time></trkpt><trkpt lat="41.56012678229026" lon="14.98023315118393"><ele>475.0</ele><time>2026-04-25T12:52:31Z</time></trkpt><trkpt lat="41.560055186127336" lon="14.980367876563895"><ele>475.0</ele><time>2026-04-25T12:52:33Z</time></trkpt><trkpt lat="41.56004704631879" lon="14.98047939709503"><ele>475.0</ele><time>2026-04-25T12:52:34Z</time></trkpt><trkpt lat="41.56003579900523" lon="14.980594091317725"><ele>475.0</ele><time>2026-04-25T12:52:35Z</time></trkpt><trkpt lat="41.560050662810276" lon="14.980712532567043"><ele>475.0</ele><time>2026-04-25T12:52:36Z</time></trkpt><trkpt lat="41.560082015264456" lon="14.980825102457205"><ele>474.5</ele><time>2026-04-25T12:52:37Z</time></trkpt><trkpt lat="41.56015707362717" lon="14.98093656816576"><ele>474.0</ele><time>2026-04-25T12:52:38Z</time></trkpt><trkpt lat="41.56024674802198" lon="14.981054940111484"><ele>473.5</ele><time>2026-04-25T12:52:39Z</time></trkpt><trkpt lat="41.56032958055357" lon="14.981169407254725"><ele>473.0</ele><time>2026-04-25T12:52:40Z</time></trkpt><trkpt lat="41.56040914304343" lon="14.981294009094903"><ele>475.0</ele><time>2026-04-25T12:52:41Z</time></trkpt><trkpt lat="41.560473854766286" lon="14.981395745375563"><ele>476.99999999999994</ele><time>2026-04-25T12:52:42Z</time></trkpt><trkpt lat="41.56054432232562" lon="14.981521574868486"><ele>478.99999999999994</ele><time>2026-04-25T12:52:43Z</time></trkpt><trkpt lat="41.560603115415574" lon="14.98163942261704"><ele>481.0</ele><time>2026-04-25T12:52:44Z</time></trkpt><trkpt lat="41.56065123511101" lon="14.98175884617076"><ele>483.0</ele><time>2026-04-25T12:52:45Z</time></trkpt><trkpt lat="41.5606800800011" lon="14.981877660915414"><ele>483.0</ele><time>2026-04-25T12:52:46Z</time></trkpt><trkpt lat="41.560695225463846" lon="14.982017411215542"><ele>482.99999999999994</ele><time>2026-04-25T12:52:47Z</time></trkpt><trkpt lat="41.56071700481958" lon="14.982156578070057"><ele>482.99999999999994</ele><time>2026-04-25T12:52:48Z</time></trkpt><trkpt lat="41.56073125252034" lon="14.982291430100638"><ele>483.0</ele><time>2026-04-25T12:52:49Z</time></trkpt><trkpt lat="41.560748352262834" lon="14.982394329829"><ele>483.0</ele><time>2026-04-25T12:52:50Z</time></trkpt><trkpt lat="41.560737599219735" lon="14.982510529350003"><ele>483.0</ele><time>2026-04-25T12:52:52Z</time></trkpt><trkpt lat="41.56063978332618" lon="14.982501754649668"><ele>482.99999999999994</ele><time>2026-04-25T12:52:53Z</time></trkpt><trkpt lat="41.560574190614034" lon="14.982599918723958"><ele>482.99999999999994</ele><time>2026-04-25T12:52:55Z</time></trkpt><trkpt lat="41.56045467427156" lon="14.982721072860617"><ele>483.0</ele><time>2026-04-25T12:52:57Z</time></trkpt><trkpt lat="41.56035967021629" lon="14.98276736873512"><ele>483.0</ele><time>2026-04-25T12:52:58Z</time></trkpt><trkpt lat="41.56027761484044" lon="14.982797644793726"><ele>481.5</ele><time>2026-04-25T12:52:59Z</time></trkpt><trkpt lat="41.560215289710015" lon="14.982868350267285"><ele>480.0</ele><time>2026-04-25T12:53:00Z</time></trkpt><trkpt lat="41.56014134557727" lon="14.982930145442985"><ele>478.5</ele><time>2026-04-25T12:53:01Z</time></trkpt><trkpt lat="41.56007214426534" lon="14.983009474474079"><ele>477.0</ele><time>2026-04-25T12:53:02Z</time></trkpt><trkpt lat="41.560017583642136" lon="14.98310918780028"><ele>475.5</ele><time>2026-04-25T12:53:03Z</time></trkpt><trkpt lat="41.55996239850356" lon="14.983197587673397"><ele>474.0</ele><time>2026-04-25T12:53:04Z</time></trkpt><trkpt lat="41.559897196958836" lon="14.983291341940518"><ele>474.0</ele><time>2026-04-25T12:53:06Z</time></trkpt><trkpt lat="41.55990137049382" lon="14.983158151707237"><ele>474.0</ele><time>2026-04-25T12:53:11Z</time></trkpt><trkpt lat="41.559912905910565" lon="14.983037453070262"><ele>474.0</ele><time>2026-04-25T12:53:12Z</time></trkpt><trkpt lat="41.55977986935978" lon="14.983151473405696"><ele>474.0</ele><time>2026-04-25T12:53:17Z</time></trkpt><trkpt lat="41.55973623772226" lon="14.98332091875539"><ele>475.75</ele><time>2026-04-25T12:53:18Z</time></trkpt><trkpt lat="41.5596649650688" lon="14.9834638073533"><ele>477.5</ele><time>2026-04-25T12:53:18.999Z</time></trkpt><trkpt lat="41.55957840503157" lon="14.983571853651783"><ele>479.25</ele><time>2026-04-25T12:53:19.999Z</time></trkpt><trkpt lat="41.5594594050466" lon="14.983653654488691"><ele>481.0</ele><time>2026-04-25T12:53:20.999Z</time></trkpt><trkpt lat="41.55931079804845" lon="14.983769797710924"><ele>477.5</ele><time>2026-04-25T12:53:21.999Z</time></trkpt><trkpt lat="41.55917841659371" lon="14.983884315088918"><ele>474.0</ele><time>2026-04-25T12:53:22.999Z</time></trkpt><trkpt lat="41.55905502666809" lon="14.983938071752107"><ele>470.5</ele><time>2026-04-25T12:53:23.999Z</time></trkpt><trkpt lat="41.55892476863172" lon="14.98396966446025"><ele>467.0</ele><time>2026-04-25T12:53:24.999Z</time></trkpt><trkpt lat="41.55879254696472" lon="14.983984347514532"><ele>466.3333333333333</ele><time>2026-04-25T12:53:25.999Z</time></trkpt><trkpt lat="41.558646288950335" lon="14.983984785375748"><ele>465.66666666666663</ele><time>2026-04-25T12:53:26.999Z</time></trkpt><trkpt lat="41.55848836927826" lon="14.983810551782764"><ele>465.0</ele><time>2026-04-25T12:53:27.999Z</time></trkpt><trkpt lat="41.55832999148733" lon="14.98374822727229"><ele>465.0</ele><time>2026-04-25T12:53:28.999Z</time></trkpt><trkpt lat="41.55819322292381" lon="14.983689547363175"><ele>465.0</ele><time>2026-04-25T12:53:29.999Z</time></trkpt><trkpt lat="41.55807550065999" lon="14.983598909391192"><ele>465.0</ele><time>2026-04-25T12:53:30.999Z</time></trkpt><trkpt lat="41.55798513344255" lon="14.9834512889984"><ele>465.0</ele><time>2026-04-25T12:53:31.999Z</time></trkpt><trkpt lat="41.55788939266444" lon="14.983307853181657"><ele>459.66666666666663</ele><time>2026-04-25T12:53:32.999Z</time></trkpt><trkpt lat="41.55776591347581" lon="14.983198956963326"><ele>454.3333333333333</ele><time>2026-04-25T12:53:33.999Z</time></trkpt><trkpt lat="41.55761684298112" lon="14.983128245049228"><ele>449.0</ele><time>2026-04-25T12:53:34.999Z</time></trkpt><trkpt lat="41.557460236984" lon="14.983080044721971"><ele>449.0</ele><time>2026-04-25T12:53:35.999Z</time></trkpt><trkpt lat="41.55729543844141" lon="14.983037634614993"><ele>449.0</ele><time>2026-04-25T12:53:36.999Z</time></trkpt><trkpt lat="41.55712386703061" lon="14.983056795279683"><ele>449.0</ele><time>2026-04-25T12:53:37.999Z</time></trkpt><trkpt lat="41.556940710338466" lon="14.98312833261966"><ele>449.25</ele><time>2026-04-25T12:53:38.999Z</time></trkpt><trkpt lat="41.55677689026548" lon="14.983193063947608"><ele>449.5</ele><time>2026-04-25T12:53:39.999Z</time></trkpt><trkpt lat="41.55664315156722" lon="14.983253391560693"><ele>449.75</ele><time>2026-04-25T12:53:40.999Z</time></trkpt><trkpt lat="41.556518478324826" lon="14.983324926241858"><ele>450.0</ele><time>2026-04-25T12:53:41.999Z</time></trkpt><trkpt lat="41.5564131857417" lon="14.983435347607333"><ele>450.0</ele><time>2026-04-25T12:53:42.999Z</time></trkpt><trkpt lat="41.556336110803116" lon="14.983552700282958"><ele>450.0</ele><time>2026-04-25T12:53:43.999Z</time></trkpt><trkpt lat="41.556241106682116" lon="14.983599064601188"><ele>450.0</ele><time>2026-04-25T12:53:44.999Z</time></trkpt><trkpt lat="41.55612557282026" lon="14.983567813646667"><ele>450.0</ele><time>2026-04-25T12:53:45.999Z</time></trkpt><trkpt lat="41.55601678563594" lon="14.983502672733147"><ele>445.0</ele><time>2026-04-25T12:53:46.999Z</time></trkpt><trkpt lat="41.5558730212735" lon="14.983430211010527"><ele>440.0</ele><time>2026-04-25T12:53:47.999Z</time></trkpt><trkpt lat="41.55574830504352" lon="14.983317057213496"><ele>435.0</ele><time>2026-04-25T12:53:48.999Z</time></trkpt><trkpt lat="41.55564339220441" lon="14.983173109359443"><ele>434.66666666666663</ele><time>2026-04-25T12:53:49.999Z</time></trkpt><trkpt lat="41.55553794276422" lon="14.983026281910423"><ele>434.3333333333333</ele><time>2026-04-25T12:53:50.999Z</time></trkpt><trkpt lat="41.55543380996294" lon="14.982851279659316"><ele>434.0</ele><time>2026-04-25T12:53:51.999Z</time></trkpt><trkpt lat="41.55533241232929" lon="14.982695930421167"><ele>432.25</ele><time>2026-04-25T12:53:52.999Z</time></trkpt><trkpt lat="41.555229403483466" lon="14.982569971253348"><ele>430.5</ele><time>2026-04-25T12:53:53.999Z</time></trkpt><trkpt lat="41.555134433969535" lon="14.9824493046154"><ele>428.75</ele><time>2026-04-25T12:53:54.999Z</time></trkpt><trkpt lat="41.55509409033666" lon="14.982277593546947"><ele>427.0</ele><time>2026-04-25T12:53:55.999Z</time></trkpt><trkpt lat="41.555061423587375" lon="14.982112504253143"><ele>427.0</ele><time>2026-04-25T12:53:56.999Z</time></trkpt><trkpt lat="41.55507156562307" lon="14.981926903573317"><ele>427.0</ele><time>2026-04-25T12:53:57.999Z</time></trkpt><trkpt lat="41.55511735230599" lon="14.98175188024399"><ele>427.0</ele><time>2026-04-25T12:53:58.999Z</time></trkpt><trkpt lat="41.55516200465061" lon="14.981586255275815"><ele>427.0</ele><time>2026-04-25T12:53:59.999Z</time></trkpt><trkpt lat="41.55520764610225" lon="14.981440950847125"><ele>426.5</ele><time>2026-04-25T12:54:00.999Z</time></trkpt><trkpt lat="41.555223704422325" lon="14.981293846011088"><ele>426.0</ele><time>2026-04-25T12:54:01.999Z</time></trkpt><trkpt lat="41.55520987316957" lon="14.981145682990107"><ele>425.5</ele><time>2026-04-25T12:54:02.999Z</time></trkpt><trkpt lat="41.5551554428989" lon="14.980988413369925"><ele>425.0</ele><time>2026-04-25T12:54:03.999Z</time></trkpt><trkpt lat="41.55506811506299" lon="14.98082958395955"><ele>422.0</ele><time>2026-04-25T12:54:04.999Z</time></trkpt><trkpt lat="41.55495786775455" lon="14.980713795621483"><ele>419.0</ele><time>2026-04-25T12:54:05.999Z</time></trkpt><trkpt lat="41.554815407210164" lon="14.980598189488473"><ele>416.0</ele><time>2026-04-25T12:54:06.999Z</time></trkpt><trkpt lat="41.55465690009153" lon="14.980476082537486"><ele>417.75</ele><time>2026-04-25T12:54:07.999Z</time></trkpt><trkpt lat="41.554532024335735" lon="14.980374617915492"><ele>419.5</ele><time>2026-04-25T12:54:08.999Z</time></trkpt><trkpt lat="41.554426631844855" lon="14.980265193303378"><ele>421.25</ele><time>2026-04-25T12:54:09.999Z</time></trkpt><trkpt lat="41.55430703493951" lon="14.98019256285385"><ele>423.0</ele><time>2026-04-25T12:54:10.999Z</time></trkpt><trkpt lat="41.554171361978185" lon="14.980154460449349"><ele>423.0</ele><time>2026-04-25T12:54:11.999Z</time></trkpt><trkpt lat="41.55400352041223" lon="14.980157837918986"><ele>423.0</ele><time>2026-04-25T12:54:12.999Z</time></trkpt><trkpt lat="41.5538190463168" lon="14.980167763920157"><ele>423.0</ele><time>2026-04-25T12:54:13.999Z</time></trkpt><trkpt lat="41.553633868191284" lon="14.98017727368161"><ele>421.66666666666663</ele><time>2026-04-25T12:54:14.999Z</time></trkpt><trkpt lat="41.55347437789106" lon="14.980181974981942"><ele>420.3333333333333</ele><time>2026-04-25T12:54:15.999Z</time></trkpt><trkpt lat="41.55333178663923" lon="14.980216123901672"><ele>419.0</ele><time>2026-04-25T12:54:16.999Z</time></trkpt><trkpt lat="41.553185174749025" lon="14.980300388840739"><ele>419.0</ele><time>2026-04-25T12:54:17.999Z</time></trkpt><trkpt lat="41.55302495051126" lon="14.980422185691824"><ele>419.0</ele><time>2026-04-25T12:54:18.999Z</time></trkpt><trkpt lat="41.55286937064572" lon="14.980524096352504"><ele>419.0</ele><time>2026-04-25T12:54:19.999Z</time></trkpt><trkpt lat="41.5527191691277" lon="14.980579864449549"><ele>416.3333333333333</ele><time>2026-04-25T12:54:20.999Z</time></trkpt><trkpt lat="41.552560257228635" lon="14.980565813164871"><ele>413.66666666666663</ele><time>2026-04-25T12:54:21.999Z</time></trkpt><trkpt lat="41.552395337081556" lon="14.980531998341979"><ele>411.0</ele><time>2026-04-25T12:54:22.999Z</time></trkpt><trkpt lat="41.55224194149587" lon="14.980448534216517"><ele>411.0</ele><time>2026-04-25T12:54:23.999Z</time></trkpt><trkpt lat="41.55207864105996" lon="14.980330061069992"><ele>411.0</ele><time>2026-04-25T12:54:24.999Z</time></trkpt><trkpt lat="41.55194112272846" lon="14.980188794044569"><ele>411.0</ele><time>2026-04-25T12:54:25.999Z</time></trkpt><trkpt lat="41.55180927015234" lon="14.980070361422824"><ele>406.0</ele><time>2026-04-25T12:54:26.999Z</time></trkpt><trkpt lat="41.55168443610654" lon="14.97995298327244"><ele>401.0</ele><time>2026-04-25T12:54:27.999Z</time></trkpt><trkpt lat="41.55153294201047" lon="14.979872614304163"><ele>396.0</ele><time>2026-04-25T12:54:28.999Z</time></trkpt><trkpt lat="41.55134696867524" lon="14.979832674317995"><ele>394.33333333333337</ele><time>2026-04-25T12:54:29.999Z</time></trkpt><trkpt lat="41.55112207891223" lon="14.979812022804152"><ele>392.6666666666667</ele><time>2026-04-25T12:54:30.999Z</time></trkpt><trkpt lat="41.55092246742054" lon="14.9797631433394"><ele>391.0</ele><time>2026-04-25T12:54:31.999Z</time></trkpt><trkpt lat="41.55074237056106" lon="14.979721312476038"><ele>391.0</ele><time>2026-04-25T12:54:32.999Z</time></trkpt><trkpt lat="41.550589524058154" lon="14.979679650286245"><ele>391.0</ele><time>2026-04-25T12:54:33.999Z</time></trkpt><trkpt lat="41.550477812645354" lon="14.979623885318382"><ele>391.0</ele><time>2026-04-25T12:54:34.999Z</time></trkpt><trkpt lat="41.55040473089029" lon="14.979542806919035"><ele>391.0</ele><time>2026-04-25T12:54:35.999Z</time></trkpt><trkpt lat="41.55036401379112" lon="14.97944863418881"><ele>391.0</ele><time>2026-04-25T12:54:36.999Z</time></trkpt><trkpt lat="41.5503955974684" lon="14.979332639096967"><ele>391.0</ele><time>2026-04-25T12:54:37.999Z</time></trkpt><trkpt lat="41.550488500541825" lon="14.979282747306705"><ele>391.0</ele><time>2026-04-25T12:54:38.999Z</time></trkpt><trkpt lat="41.550611831327025" lon="14.97928441640112"><ele>391.0</ele><time>2026-04-25T12:54:40Z</time></trkpt><trkpt lat="41.550780796993905" lon="14.979302930727288"><ele>391.0</ele><time>2026-04-25T12:54:41Z</time></trkpt><trkpt lat="41.550955877518064" lon="14.979373599198306"><ele>391.0</ele><time>2026-04-25T12:54:42Z</time></trkpt><trkpt lat="41.551122854081136" lon="14.979413966181012"><ele>391.0</ele><time>2026-04-25T12:54:43Z</time></trkpt><trkpt lat="41.55126700071369" lon="14.979446994288445"><ele>392.6666666666667</ele><time>2026-04-25T12:54:44Z</time></trkpt><trkpt lat="41.551427747598076" lon="14.979410352322935"><ele>394.33333333333337</ele><time>2026-04-25T12:54:45Z</time></trkpt><trkpt lat="41.551596018565704" lon="14.979359668187431"><ele>396.0</ele><time>2026-04-25T12:54:46Z</time></trkpt><trkpt lat="41.55173191536713" lon="14.979317087939876"><ele>396.0</ele><time>2026-04-25T12:54:47Z</time></trkpt><trkpt lat="41.55185973407737" lon="14.979325777678884"><ele>396.0</ele><time>2026-04-25T12:54:48Z</time></trkpt><trkpt lat="41.55197093769662" lon="14.979428651419589"><ele>396.0</ele><time>2026-04-25T12:54:49Z</time></trkpt><trkpt lat="41.552097232322936" lon="14.979472781507635"><ele>396.0</ele><time>2026-04-25T12:54:50Z</time></trkpt><trkpt lat="41.55218276271806" lon="14.979502909085804"><ele>396.4</ele><time>2026-04-25T12:54:51Z</time></trkpt><trkpt lat="41.552260549806554" lon="14.979459841839777"><ele>396.8</ele><time>2026-04-25T12:54:52Z</time></trkpt><trkpt lat="41.552293864273175" lon="14.979362736123058"><ele>397.2</ele><time>2026-04-25T12:54:53Z</time></trkpt><trkpt lat="41.55229101121965" lon="14.979233328199642"><ele>397.59999999999997</ele><time>2026-04-25T12:54:54Z</time></trkpt><trkpt lat="41.552224658398316" lon="14.979139333853936"><ele>398.0</ele><time>2026-04-25T12:54:55Z</time></trkpt><trkpt lat="41.55212626873346" lon="14.979102951266205"><ele>391.66666666666663</ele><time>2026-04-25T12:54:56Z</time></trkpt><trkpt lat="41.55199873293652" lon="14.979096319007583"><ele>385.3333333333333</ele><time>2026-04-25T12:54:57Z</time></trkpt><trkpt lat="41.55183897770312" lon="14.979077521747286"><ele>379.0</ele><time>2026-04-25T12:54:58Z</time></trkpt><trkpt lat="41.55165697020091" lon="14.979001513693843"><ele>379.0</ele><time>2026-04-25T12:54:59Z</time></trkpt><trkpt lat="41.55148732803844" lon="14.978960156903566"><ele>379.0</ele><time>2026-04-25T12:55:00Z</time></trkpt><trkpt lat="41.55133610675651" lon="14.978890491586967"><ele>379.0</ele><time>2026-04-25T12:55:01Z</time></trkpt><trkpt lat="41.55118070893573" lon="14.97885636832506"><ele>380.66666666666663</ele><time>2026-04-25T12:55:02Z</time></trkpt><trkpt lat="41.551019796926056" lon="14.97879232640857"><ele>382.3333333333333</ele><time>2026-04-25T12:55:03Z</time></trkpt><trkpt lat="41.55086196883317" lon="14.978692565057134"><ele>384.0</ele><time>2026-04-25T12:55:04Z</time></trkpt><trkpt lat="41.55074004192175" lon="14.9785300863839"><ele>384.0</ele><time>2026-04-25T12:55:05Z</time></trkpt><trkpt lat="41.55060072493307" lon="14.978356573438992"><ele>384.0</ele><time>2026-04-25T12:55:06Z</time></trkpt><trkpt lat="41.550475538113176" lon="14.978216263492204"><ele>384.0</ele><time>2026-04-25T12:55:07Z</time></trkpt><trkpt lat="41.550389093375976" lon="14.97803598387851"><ele>382.0</ele><time>2026-04-25T12:55:08Z</time></trkpt><trkpt lat="41.55031342104514" lon="14.977853692116303"><ele>380.0</ele><time>2026-04-25T12:55:09Z</time></trkpt><trkpt lat="41.5502661948979" lon="14.97764994076703"><ele>378.0</ele><time>2026-04-25T12:55:10Z</time></trkpt><trkpt lat="41.5502477053015" lon="14.977432583191323"><ele>375.3333333333333</ele><time>2026-04-25T12:55:11Z</time></trkpt><trkpt lat="41.55025082517828" lon="14.977195018100776"><ele>372.66666666666663</ele><time>2026-04-25T12:55:12Z</time></trkpt><trkpt lat="41.550243681769196" lon="14.976930261216651"><ele>370.0</ele><time>2026-04-25T12:55:13Z</time></trkpt><trkpt lat="41.550234738696744" lon="14.976705382423807"><ele>368.0</ele><time>2026-04-25T12:55:14Z</time></trkpt><trkpt lat="41.550202274060545" lon="14.976521873047446"><ele>366.0</ele><time>2026-04-25T12:55:15Z</time></trkpt><trkpt lat="41.55014161691651" lon="14.97638426878656"><ele>364.0</ele><time>2026-04-25T12:55:16Z</time></trkpt><trkpt lat="41.55005923977314" lon="14.976271325666348"><ele>362.0</ele><time>2026-04-25T12:55:17Z</time></trkpt><trkpt lat="41.549929360126974" lon="14.97616552495147"><ele>362.0</ele><time>2026-04-25T12:55:18Z</time></trkpt><trkpt lat="41.549822716348885" lon="14.9760339302574"><ele>362.0</ele><time>2026-04-25T12:55:19Z</time></trkpt><trkpt lat="41.549763171567065" lon="14.975878133425775"><ele>362.0</ele><time>2026-04-25T12:55:19.999Z</time></trkpt><trkpt lat="41.54974845296567" lon="14.975703887186071"><ele>362.0</ele><time>2026-04-25T12:55:20.999Z</time></trkpt><trkpt lat="41.54975845387627" lon="14.975497827145329"><ele>359.75</ele><time>2026-04-25T12:55:21.999Z</time></trkpt><trkpt lat="41.5497876427945" lon="14.975303608120393"><ele>357.5</ele><time>2026-04-25T12:55:22.999Z</time></trkpt><trkpt lat="41.54980720351439" lon="14.975132485633555"><ele>355.25</ele><time>2026-04-25T12:55:23.999Z</time></trkpt><trkpt lat="41.549830172121965" lon="14.974995966963595"><ele>353.0</ele><time>2026-04-25T12:55:24.999Z</time></trkpt><trkpt lat="41.549822724549415" lon="14.974872744891075"><ele>353.25</ele><time>2026-04-25T12:55:26Z</time></trkpt><trkpt lat="41.549757840574166" lon="14.974773993473496"><ele>353.5</ele><time>2026-04-25T12:55:26.999Z</time></trkpt><trkpt lat="41.54966940367768" lon="14.974669105184043"><ele>353.75</ele><time>2026-04-25T12:55:27.999Z</time></trkpt><trkpt lat="41.549533187556" lon="14.974561829964642"><ele>354.0</ele><time>2026-04-25T12:55:28.999Z</time></trkpt><trkpt lat="41.54940653601602" lon="14.974406584864424"><ele>354.0</ele><time>2026-04-25T12:55:29.999Z</time></trkpt><trkpt lat="41.549302715423" lon="14.974208858009867"><ele>354.0</ele><time>2026-04-25T12:55:30.999Z</time></trkpt><trkpt lat="41.54921754254456" lon="14.974022649139213"><ele>354.0</ele><time>2026-04-25T12:55:31.999Z</time></trkpt><trkpt lat="41.54913899426" lon="14.973866215705286"><ele>352.0</ele><time>2026-04-25T12:55:32.999Z</time></trkpt><trkpt lat="41.54908439410445" lon="14.973706855750393"><ele>350.0</ele><time>2026-04-25T12:55:33.999Z</time></trkpt><trkpt lat="41.5490187452046" lon="14.973600912843494"><ele>348.0</ele><time>2026-04-25T12:55:34.999Z</time></trkpt><trkpt lat="41.548931650146194" lon="14.97354537673537"><ele>346.0</ele><time>2026-04-25T12:55:35.999Z</time></trkpt><trkpt lat="41.54880465511699" lon="14.973534341758656"><ele>345.25</ele><time>2026-04-25T12:55:36.999Z</time></trkpt><trkpt lat="41.548651487100656" lon="14.973530935816546"><ele>344.5</ele><time>2026-04-25T12:55:37.999Z</time></trkpt><trkpt lat="41.5485096622683" lon="14.973457693734982"><ele>343.75</ele><time>2026-04-25T12:55:38.999Z</time></trkpt><trkpt lat="41.54839394429953" lon="14.973373000404031"><ele>343.0</ele><time>2026-04-25T12:55:39.999Z</time></trkpt><trkpt lat="41.548282873856586" lon="14.97330850501301"><ele>341.79999999999995</ele><time>2026-04-25T12:55:40.999Z</time></trkpt><trkpt lat="41.548175689792224" lon="14.973266513231401"><ele>340.6</ele><time>2026-04-25T12:55:41.999Z</time></trkpt><trkpt lat="41.54806727423559" lon="14.973282875210064"><ele>339.4</ele><time>2026-04-25T12:55:42.999Z</time></trkpt><trkpt lat="41.54797005635216" lon="14.973319575075422"><ele>338.20000000000005</ele><time>2026-04-25T12:55:43.999Z</time></trkpt><trkpt lat="41.54788872948353" lon="14.973318684494918"><ele>337.0</ele><time>2026-04-25T12:55:44.999Z</time></trkpt><trkpt lat="41.54784184997606" lon="14.973212527188618"><ele>337.0</ele><time>2026-04-25T12:55:46.999Z</time></trkpt><trkpt lat="41.54790658828809" lon="14.97312666072973"><ele>337.0</ele><time>2026-04-25T12:55:47.999Z</time></trkpt><trkpt lat="41.54803828695153" lon="14.973116551557474"><ele>337.0</ele><time>2026-04-25T12:55:48.999Z</time></trkpt><trkpt lat="41.54817150915966" lon="14.973104545668727"><ele>337.0</ele><time>2026-04-25T12:55:49.999Z</time></trkpt><trkpt lat="41.54832195497254" lon="14.973082233003204"><ele>337.0</ele><time>2026-04-25T12:55:50.999Z</time></trkpt><trkpt lat="41.54847763740062" lon="14.973026794578336"><ele>337.0</ele><time>2026-04-25T12:55:51.999Z</time></trkpt><trkpt lat="41.548638070132746" lon="14.972959272092705"><ele>337.0</ele><time>2026-04-25T12:55:52.999Z</time></trkpt><trkpt lat="41.54878259893694" lon="14.972888766059617"><ele>336.25</ele><time>2026-04-25T12:55:53.999Z</time></trkpt><trkpt lat="41.548911852108915" lon="14.97282702418266"><ele>335.5</ele><time>2026-04-25T12:55:54.999Z</time></trkpt><trkpt lat="41.549044292397845" lon="14.972802826578496"><ele>334.75</ele><time>2026-04-25T12:55:55.999Z</time></trkpt><trkpt lat="41.54917136230858" lon="14.972862171408122"><ele>334.0</ele><time>2026-04-25T12:55:56.999Z</time></trkpt><trkpt lat="41.54928429591555" lon="14.972931959526113"><ele>334.0</ele><time>2026-04-25T12:55:57.999Z</time></trkpt><trkpt lat="41.549361918221415" lon="14.973027746277753"><ele>334.0</ele><time>2026-04-25T12:55:58.999Z</time></trkpt><trkpt lat="41.54941886689615" lon="14.973096818464223"><ele>334.0</ele><time>2026-04-25T12:55:59.999Z</time></trkpt><trkpt lat="41.54948730872546" lon="14.973004377897983"><ele>334.0</ele><time>2026-04-25T12:56:01.999Z</time></trkpt><trkpt lat="41.549506476504426" lon="14.972880800612053"><ele>334.0</ele><time>2026-04-25T12:56:02.999Z</time></trkpt><trkpt lat="41.54939159944817" lon="14.97278555454709"><ele>334.0</ele><time>2026-04-25T12:56:03.999Z</time></trkpt><trkpt lat="41.549297267529305" lon="14.972690019305835"><ele>334.0</ele><time>2026-04-25T12:56:04.999Z</time></trkpt><trkpt lat="41.54918084449228" lon="14.97259172952864"><ele>334.0</ele><time>2026-04-25T12:56:05.999Z</time></trkpt><trkpt lat="41.549070333403066" lon="14.972484677649984"><ele>334.0</ele><time>2026-04-25T12:56:06.999Z</time></trkpt><trkpt lat="41.54895672352095" lon="14.972386894686604"><ele>331.0</ele><time>2026-04-25T12:56:07.999Z</time></trkpt><trkpt lat="41.54884694660156" lon="14.972330508918029"><ele>328.0</ele><time>2026-04-25T12:56:08.999Z</time></trkpt><trkpt lat="41.548706590499414" lon="14.972316655373909"><ele>325.0</ele><time>2026-04-25T12:56:09.999Z</time></trkpt><trkpt lat="41.54856454660936" lon="14.97236492074889"><ele>322.0</ele><time>2026-04-25T12:56:10.999Z</time></trkpt><trkpt lat="41.54844491713911" lon="14.972402508755847"><ele>322.0</ele><time>2026-04-25T12:56:11.999Z</time></trkpt><trkpt lat="41.54833923534014" lon="14.97241859007196"><ele>322.0</ele><time>2026-04-25T12:56:12.999Z</time></trkpt><trkpt lat="41.548237432982305" lon="14.972393039066395"><ele>322.0</ele><time>2026-04-25T12:56:13.999Z</time></trkpt><trkpt lat="41.54813130575686" lon="14.972279579553057"><ele>322.0</ele><time>2026-04-25T12:56:14.999Z</time></trkpt><trkpt lat="41.548022722025536" lon="14.972220782294169"><ele>322.0</ele><time>2026-04-25T12:56:15.999Z</time></trkpt><trkpt lat="41.54789922998758" lon="14.972153985499208"><ele>322.0</ele><time>2026-04-25T12:56:16.999Z</time></trkpt><trkpt lat="41.54777963552957" lon="14.972139822248854"><ele>322.0</ele><time>2026-04-25T12:56:17.999Z</time></trkpt><trkpt lat="41.54767852411617" lon="14.972179800723893"><ele>322.0</ele><time>2026-04-25T12:56:18.999Z</time></trkpt><trkpt lat="41.54760709199692" lon="14.97219394672483"><ele>322.0</ele><time>2026-04-25T12:56:19.999Z</time></trkpt><trkpt lat="41.547558809355984" lon="14.972139778483452"><ele>322.0</ele><time>2026-04-25T12:56:20.999Z</time></trkpt><trkpt lat="41.547629556278174" lon="14.97197818736555"><ele>322.0</ele><time>2026-04-25T12:56:22.999Z</time></trkpt><trkpt lat="41.547752566387366" lon="14.971957497143448"><ele>322.0</ele><time>2026-04-25T12:56:23.999Z</time></trkpt><trkpt lat="41.54789593732576" lon="14.971918988274597"><ele>322.0</ele><time>2026-04-25T12:56:24.999Z</time></trkpt><trkpt lat="41.548069524312645" lon="14.97187018441315"><ele>322.0</ele><time>2026-04-25T12:56:25.999Z</time></trkpt><trkpt lat="41.54822928482225" lon="14.971823743146365"><ele>322.0</ele><time>2026-04-25T12:56:26.999Z</time></trkpt><trkpt lat="41.54834949074751" lon="14.97179826792754"><ele>322.0</ele><time>2026-04-25T12:56:27.999Z</time></trkpt><trkpt lat="41.54842679780861" lon="14.971769705684403"><ele>322.0</ele><time>2026-04-25T12:56:28.999Z</time></trkpt><trkpt lat="41.54848571984753" lon="14.971712419456573"><ele>322.0</ele><time>2026-04-25T12:56:29.999Z</time></trkpt><trkpt lat="41.548419335161384" lon="14.97151959511643"><ele>318.5</ele><time>2026-04-25T12:56:31.999Z</time></trkpt><trkpt lat="41.548297496269335" lon="14.971499414781647"><ele>315.0</ele><time>2026-04-25T12:56:32.999Z</time></trkpt><trkpt lat="41.54815142286422" lon="14.97151425744034"><ele>311.5</ele><time>2026-04-25T12:56:33.999Z</time></trkpt><trkpt lat="41.547977340958475" lon="14.971518070336938"><ele>308.0</ele><time>2026-04-25T12:56:34.999Z</time></trkpt><trkpt lat="41.547858309142704" lon="14.971481185324478"><ele>307.0</ele><time>2026-04-25T12:56:35.999Z</time></trkpt><trkpt lat="41.54775279047691" lon="14.971412262992859"><ele>306.0</ele><time>2026-04-25T12:56:36.999Z</time></trkpt><trkpt lat="41.54766432621309" lon="14.971292202635507"><ele>305.0</ele><time>2026-04-25T12:56:37.999Z</time></trkpt><trkpt lat="41.54758211834522" lon="14.971135989952337"><ele>304.0</ele><time>2026-04-25T12:56:38.999Z</time></trkpt><trkpt lat="41.54755410249194" lon="14.97089650177681"><ele>302.0</ele><time>2026-04-25T12:56:40Z</time></trkpt><trkpt lat="41.54751235003304" lon="14.970688734895528"><ele>300.0</ele><time>2026-04-25T12:56:41Z</time></trkpt><trkpt lat="41.547495888268" lon="14.97050172275154"><ele>298.0</ele><time>2026-04-25T12:56:42Z</time></trkpt><trkpt lat="41.54746775996283" lon="14.970349556985378"><ele>296.0</ele><time>2026-04-25T12:56:43Z</time></trkpt><trkpt lat="41.54742275120243" lon="14.970230773402879"><ele>296.0</ele><time>2026-04-25T12:56:44Z</time></trkpt><trkpt lat="41.547331777235435" lon="14.970138668338192"><ele>296.0</ele><time>2026-04-25T12:56:45Z</time></trkpt><trkpt lat="41.547186104112086" lon="14.97007090344075"><ele>296.0</ele><time>2026-04-25T12:56:46Z</time></trkpt><trkpt lat="41.546994930338954" lon="14.970010775055512"><ele>292.33333333333337</ele><time>2026-04-25T12:56:47Z</time></trkpt><trkpt lat="41.546832911324515" lon="14.969913593210936"><ele>288.6666666666667</ele><time>2026-04-25T12:56:48Z</time></trkpt><trkpt lat="41.546704694910375" lon="14.969825361058785"><ele>285.0</ele><time>2026-04-25T12:56:49Z</time></trkpt><trkpt lat="41.5465951048927" lon="14.969732924963909"><ele>285.0</ele><time>2026-04-25T12:56:50Z</time></trkpt><trkpt lat="41.54652135382606" lon="14.969614801682471"><ele>285.0</ele><time>2026-04-25T12:56:51Z</time></trkpt><trkpt lat="41.54648243056646" lon="14.969513012785836"><ele>285.0</ele><time>2026-04-25T12:56:52Z</time></trkpt><trkpt lat="41.546455581229935" lon="14.969376085235604"><ele>285.0</ele><time>2026-04-25T12:56:53Z</time></trkpt><trkpt lat="41.546491570574204" lon="14.969215333484144"><ele>285.0</ele><time>2026-04-25T12:56:54Z</time></trkpt><trkpt lat="41.54651527497947" lon="14.969093458203247"><ele>284.25</ele><time>2026-04-25T12:56:55Z</time></trkpt><trkpt lat="41.54646600193925" lon="14.968958163455705"><ele>283.5</ele><time>2026-04-25T12:56:56Z</time></trkpt><trkpt lat="41.54635906038732" lon="14.96882282546584"><ele>282.75</ele><time>2026-04-25T12:56:57Z</time></trkpt><trkpt lat="41.54625024070175" lon="14.96871445321262"><ele>282.0</ele><time>2026-04-25T12:56:58Z</time></trkpt><trkpt lat="41.5461955777426" lon="14.968614488399178"><ele>282.0</ele><time>2026-04-25T12:56:59Z</time></trkpt><trkpt lat="41.546167563020376" lon="14.968537036473274"><ele>282.0</ele><time>2026-04-25T12:57:00Z</time></trkpt><trkpt lat="41.546213480963566" lon="14.9684715576947"><ele>282.0</ele><time>2026-04-25T12:57:02Z</time></trkpt><trkpt lat="41.54634663543346" lon="14.968557281653773"><ele>282.0</ele><time>2026-04-25T12:57:03Z</time></trkpt><trkpt lat="41.54643703856335" lon="14.968675146753824"><ele>282.0</ele><time>2026-04-25T12:57:04Z</time></trkpt><trkpt lat="41.54655082786186" lon="14.968829342060083"><ele>282.0</ele><time>2026-04-25T12:57:05Z</time></trkpt><trkpt lat="41.546666439625994" lon="14.968967749639994"><ele>282.0</ele><time>2026-04-25T12:57:06Z</time></trkpt><trkpt lat="41.54676370725778" lon="14.969070859672335"><ele>282.0</ele><time>2026-04-25T12:57:07Z</time></trkpt><trkpt lat="41.54684540422401" lon="14.969181631734468"><ele>282.0</ele><time>2026-04-25T12:57:08Z</time></trkpt><trkpt lat="41.546908065559215" lon="14.969253710605203"><ele>282.5</ele><time>2026-04-25T12:57:09Z</time></trkpt><trkpt lat="41.54698685532165" lon="14.96932520649537"><ele>283.0</ele><time>2026-04-25T12:57:10Z</time></trkpt><trkpt lat="41.5470639098993" lon="14.969312844479058"><ele>283.5</ele><time>2026-04-25T12:57:11Z</time></trkpt><trkpt lat="41.54712868256923" lon="14.969224865204287"><ele>284.0</ele><time>2026-04-25T12:57:12Z</time></trkpt><trkpt lat="41.5471521485267" lon="14.96909821978435"><ele>284.5</ele><time>2026-04-25T12:57:13Z</time></trkpt><trkpt lat="41.54712675166392" lon="14.968993194342422"><ele>285.0</ele><time>2026-04-25T12:57:14Z</time></trkpt><trkpt lat="41.54706602114785" lon="14.96892261205185"><ele>284.25</ele><time>2026-04-25T12:57:15Z</time></trkpt><trkpt lat="41.54696836134433" lon="14.968868346790227"><ele>283.5</ele><time>2026-04-25T12:57:16Z</time></trkpt><trkpt lat="41.54685551363285" lon="14.968777243081433"><ele>282.75</ele><time>2026-04-25T12:57:17Z</time></trkpt><trkpt lat="41.54674485076664" lon="14.968678942316977"><ele>282.0</ele><time>2026-04-25T12:57:18Z</time></trkpt><trkpt lat="41.54671231570446" lon="14.96850356807441"><ele>280.0</ele><time>2026-04-25T12:57:19Z</time></trkpt><trkpt lat="41.546651553392394" lon="14.968327940943038"><ele>278.0</ele><time>2026-04-25T12:57:20Z</time></trkpt><trkpt lat="41.546560990497554" lon="14.968208773579775"><ele>276.0</ele><time>2026-04-25T12:57:21Z</time></trkpt><trkpt lat="41.546454951530066" lon="14.968097758078951"><ele>274.0</ele><time>2026-04-25T12:57:22Z</time></trkpt><trkpt lat="41.546366883870654" lon="14.968007530762723"><ele>274.0</ele><time>2026-04-25T12:57:23Z</time></trkpt><trkpt lat="41.546288108656846" lon="14.967923579954737"><ele>274.0</ele><time>2026-04-25T12:57:24Z</time></trkpt><trkpt lat="41.54623268765059" lon="14.96784727886471"><ele>274.0</ele><time>2026-04-25T12:57:25Z</time></trkpt><trkpt lat="41.546224997086014" lon="14.96774005214137"><ele>274.0</ele><time>2026-04-25T12:57:27Z</time></trkpt><trkpt lat="41.54628597654309" lon="14.967718971905072"><ele>274.0</ele><time>2026-04-25T12:57:28Z</time></trkpt><trkpt lat="41.54635929767005" lon="14.967772294464803"><ele>274.0</ele><time>2026-04-25T12:57:29Z</time></trkpt><trkpt lat="41.54644732953625" lon="14.967871547283123"><ele>274.0</ele><time>2026-04-25T12:57:30Z</time></trkpt><trkpt lat="41.546562061712955" lon="14.967969299629944"><ele>274.0</ele><time>2026-04-25T12:57:31Z</time></trkpt><trkpt lat="41.54667135468188" lon="14.968028266947554"><ele>274.0</ele><time>2026-04-25T12:57:32Z</time></trkpt><trkpt lat="41.546794716300546" lon="14.968055517088958"><ele>274.0</ele><time>2026-04-25T12:57:33Z</time></trkpt><trkpt lat="41.54689766064501" lon="14.968106487245464"><ele>274.0</ele><time>2026-04-25T12:57:34Z</time></trkpt><trkpt lat="41.546970424728976" lon="14.968199655509858"><ele>274.0</ele><time>2026-04-25T12:57:35Z</time></trkpt><trkpt lat="41.54703880373796" lon="14.96827900694186"><ele>274.0</ele><time>2026-04-25T12:57:36Z</time></trkpt><trkpt lat="41.54710703911873" lon="14.968340454544315"><ele>274.0</ele><time>2026-04-25T12:57:37Z</time></trkpt><trkpt lat="41.547177174519554" lon="14.968355454226526"><ele>274.0</ele><time>2026-04-25T12:57:38Z</time></trkpt><trkpt lat="41.54724898296901" lon="14.968328794363902"><ele>274.0</ele><time>2026-04-25T12:57:39Z</time></trkpt><trkpt lat="41.5473004661566" lon="14.968254671582164"><ele>274.0</ele><time>2026-04-25T12:57:40Z</time></trkpt><trkpt lat="41.54729906481588" lon="14.96815317408665"><ele>274.0</ele><time>2026-04-25T12:57:41Z</time></trkpt><trkpt lat="41.547258785855725" lon="14.968070373670876"><ele>274.0</ele><time>2026-04-25T12:57:42Z</time></trkpt><trkpt lat="41.547193466962156" lon="14.968015455456234"><ele>274.0</ele><time>2026-04-25T12:57:43Z</time></trkpt><trkpt lat="41.54712515729603" lon="14.967946952657453"><ele>274.0</ele><time>2026-04-25T12:57:44Z</time></trkpt><trkpt lat="41.54703834467557" lon="14.967866729545465"><ele>274.0</ele><time>2026-04-25T12:57:45Z</time></trkpt><trkpt lat="41.546931629655866" lon="14.967791417726152"><ele>274.0</ele><time>2026-04-25T12:57:45.999Z</time></trkpt><trkpt lat="41.54683772942255" lon="14.967689193774687"><ele>274.0</ele><time>2026-04-25T12:57:46.999Z</time></trkpt><trkpt lat="41.54672794634918" lon="14.967576672762904"><ele>274.0</ele><time>2026-04-25T12:57:47.999Z</time></trkpt><trkpt lat="41.54660343242793" lon="14.967461008224017"><ele>274.0</ele><time>2026-04-25T12:57:48.999Z</time></trkpt><trkpt lat="41.546479467599596" lon="14.967332258852824"><ele>269.3333333333333</ele><time>2026-04-25T12:57:49.999Z</time></trkpt><trkpt lat="41.54632935629513" lon="14.967232597407664"><ele>264.6666666666667</ele><time>2026-04-25T12:57:50.999Z</time></trkpt><trkpt lat="41.54619057125884" lon="14.967123721782396"><ele>260.0</ele><time>2026-04-25T12:57:51.999Z</time></trkpt><trkpt lat="41.5460791900829" lon="14.967000108843166"><ele>259.6666666666667</ele><time>2026-04-25T12:57:52.999Z</time></trkpt><trkpt lat="41.545950987609494" lon="14.966869280452237"><ele>259.3333333333333</ele><time>2026-04-25T12:57:53.999Z</time></trkpt><trkpt lat="41.545849129080345" lon="14.96670973041368"><ele>259.0</ele><time>2026-04-25T12:57:54.999Z</time></trkpt><trkpt lat="41.54576757751381" lon="14.966505018245895"><ele>257.3333333333333</ele><time>2026-04-25T12:57:55.999Z</time></trkpt><trkpt lat="41.54567790488601" lon="14.966272440042607"><ele>255.66666666666669</ele><time>2026-04-25T12:57:56.999Z</time></trkpt><trkpt lat="41.54557991470919" lon="14.966018691300036"><ele>254.0</ele><time>2026-04-25T12:57:57.999Z</time></trkpt><trkpt lat="41.54553457825038" lon="14.965884153342905"><ele>254.0</ele><time>2026-04-25T12:57:58.999Z</time></trkpt><trkpt lat="41.54544622619008" lon="14.965651265943269"><ele>254.0</ele><time>2026-04-25T12:57:59.999Z</time></trkpt><trkpt lat="41.5453578729694" lon="14.965418375666097"><ele>254.0</ele><time>2026-04-25T12:58:00.999Z</time></trkpt><trkpt lat="41.54526947902948" lon="14.965185378012702"><ele>251.0</ele><time>2026-04-25T12:58:01.999Z</time></trkpt><trkpt lat="41.54518401134773" lon="14.964960093682723"><ele>248.0</ele><time>2026-04-25T12:58:02.999Z</time></trkpt><trkpt lat="41.545106840031934" lon="14.964756677724912"><ele>245.0</ele><time>2026-04-25T12:58:03.999Z</time></trkpt><trkpt lat="41.54503515967493" lon="14.964566952587747"><ele>245.0</ele><time>2026-04-25T12:58:04.999Z</time></trkpt><trkpt lat="41.544965409631104" lon="14.964381502751785"><ele>245.0</ele><time>2026-04-25T12:58:05.999Z</time></trkpt><trkpt lat="41.54489222259272" lon="14.964186914704822"><ele>245.0</ele><time>2026-04-25T12:58:06.999Z</time></trkpt><trkpt lat="41.544816244741995" lon="14.963981442509203"><ele>245.33333333333334</ele><time>2026-04-25T12:58:07.999Z</time></trkpt><trkpt lat="41.544739863941025" lon="14.963772264582902"><ele>245.66666666666669</ele><time>2026-04-25T12:58:08.999Z</time></trkpt><trkpt lat="41.544669748780876" lon="14.963579933692483"><ele>246.0</ele><time>2026-04-25T12:58:09.999Z</time></trkpt><trkpt lat="41.5445995611229" lon="14.96340012591364"><ele>243.66666666666669</ele><time>2026-04-25T12:58:10.999Z</time></trkpt><trkpt lat="41.544518291687815" lon="14.96324086994136"><ele>241.33333333333334</ele><time>2026-04-25T12:58:11.999Z</time></trkpt><trkpt lat="41.54442880427604" lon="14.96307833176012"><ele>239.0</ele><time>2026-04-25T12:58:12.999Z</time></trkpt><trkpt lat="41.544305795759136" lon="14.96293455885777"><ele>239.0</ele><time>2026-04-25T12:58:13.999Z</time></trkpt><trkpt lat="41.5441522141901" lon="14.962812838775147"><ele>239.0</ele><time>2026-04-25T12:58:14.999Z</time></trkpt><trkpt lat="41.54397857479988" lon="14.962726773874685"><ele>239.0</ele><time>2026-04-25T12:58:15.999Z</time></trkpt><trkpt lat="41.543816631555515" lon="14.962678039908772"><ele>239.25</ele><time>2026-04-25T12:58:16.999Z</time></trkpt><trkpt lat="41.54366732352356" lon="14.962634262944169"><ele>239.5</ele><time>2026-04-25T12:58:17.999Z</time></trkpt><trkpt lat="41.54352895313417" lon="14.96258113988537"><ele>239.75</ele><time>2026-04-25T12:58:18.999Z</time></trkpt><trkpt lat="41.54340545647231" lon="14.96252512726939"><ele>240.0</ele><time>2026-04-25T12:58:19.999Z</time></trkpt><trkpt lat="41.543296547334336" lon="14.962420979942703"><ele>240.0</ele><time>2026-04-25T12:58:20.999Z</time></trkpt><trkpt lat="41.54316575255247" lon="14.962192622806413"><ele>240.0</ele><time>2026-04-25T12:58:22.999Z</time></trkpt><trkpt lat="41.543021200609964" lon="14.961889569664931"><ele>239.0</ele><time>2026-04-25T12:58:23.999Z</time></trkpt><trkpt lat="41.542925865752906" lon="14.961666372159286"><ele>238.0</ele><time>2026-04-25T12:58:24.999Z</time></trkpt><trkpt lat="41.54283739864587" lon="14.961518630472042"><ele>237.0</ele><time>2026-04-25T12:58:25.999Z</time></trkpt><trkpt lat="41.54268543868814" lon="14.961391426934846"><ele>237.0</ele><time>2026-04-25T12:58:26.999Z</time></trkpt><trkpt lat="41.542569935128434" lon="14.961349684292653"><ele>237.0</ele><time>2026-04-25T12:58:27.999Z</time></trkpt><trkpt lat="41.54245961942096" lon="14.961383144111535"><ele>237.0</ele><time>2026-04-25T12:58:28.999Z</time></trkpt><trkpt lat="41.542358837482965" lon="14.9614550295687"><ele>237.0</ele><time>2026-04-25T12:58:29.999Z</time></trkpt><trkpt lat="41.54226159529073" lon="14.961599377823434"><ele>241.0</ele><time>2026-04-25T12:58:30.999Z</time></trkpt><trkpt lat="41.5421189932876" lon="14.961723529295828"><ele>245.0</ele><time>2026-04-25T12:58:31.999Z</time></trkpt><trkpt lat="41.54198564596651" lon="14.96179641206798"><ele>249.0</ele><time>2026-04-25T12:58:32.999Z</time></trkpt><trkpt lat="41.54184420446017" lon="14.961753867464854"><ele>246.25</ele><time>2026-04-25T12:58:33.999Z</time></trkpt><trkpt lat="41.541731468426086" lon="14.961686813550381"><ele>243.5</ele><time>2026-04-25T12:58:34.999Z</time></trkpt><trkpt lat="41.5416572413052" lon="14.961556514540714"><ele>240.75</ele><time>2026-04-25T12:58:35.999Z</time></trkpt><trkpt lat="41.541586899638396" lon="14.961388560128386"><ele>238.0</ele><time>2026-04-25T12:58:36.999Z</time></trkpt><trkpt lat="41.541487026187255" lon="14.961185994992718"><ele>238.0</ele><time>2026-04-25T12:58:37.999Z</time></trkpt><trkpt lat="41.54137498215664" lon="14.960960883514474"><ele>238.0</ele><time>2026-04-25T12:58:39Z</time></trkpt><trkpt lat="41.54127077139495" lon="14.960771836150176"><ele>238.0</ele><time>2026-04-25T12:58:40Z</time></trkpt><trkpt lat="41.54115281846726" lon="14.960622852806225"><ele>238.33333333333331</ele><time>2026-04-25T12:58:41Z</time></trkpt><trkpt lat="41.54102875315468" lon="14.960474867317236"><ele>238.66666666666669</ele><time>2026-04-25T12:58:42Z</time></trkpt><trkpt lat="41.540871189606136" lon="14.960350948486477"><ele>239.0</ele><time>2026-04-25T12:58:43Z</time></trkpt><trkpt lat="41.54069128421901" lon="14.960239629894334"><ele>239.0</ele><time>2026-04-25T12:58:44Z</time></trkpt><trkpt lat="41.540515254367385" lon="14.960121048533235"><ele>239.0</ele><time>2026-04-25T12:58:45Z</time></trkpt><trkpt lat="41.54036480254597" lon="14.96001818933268"><ele>239.0</ele><time>2026-04-25T12:58:46Z</time></trkpt><trkpt lat="41.54023562926022" lon="14.959887032627586"><ele>238.0</ele><time>2026-04-25T12:58:47Z</time></trkpt><trkpt lat="41.54012875491507" lon="14.95974812492383"><ele>237.0</ele><time>2026-04-25T12:58:48Z</time></trkpt><trkpt lat="41.54006101341511" lon="14.959574847797512"><ele>236.0</ele><time>2026-04-25T12:58:49Z</time></trkpt><trkpt lat="41.54000481042078" lon="14.959378265761137"><ele>234.33333333333334</ele><time>2026-04-25T12:58:50Z</time></trkpt><trkpt lat="41.53998316025752" lon="14.959164634035284"><ele>232.66666666666669</ele><time>2026-04-25T12:58:51Z</time></trkpt><trkpt lat="41.53995161805195" lon="14.958912065868414"><ele>231.0</ele><time>2026-04-25T12:58:52Z</time></trkpt><trkpt lat="41.539893753611814" lon="14.958676300347978"><ele>231.0</ele><time>2026-04-25T12:58:53Z</time></trkpt><trkpt lat="41.539827600978455" lon="14.958418418505826"><ele>231.0</ele><time>2026-04-25T12:58:54Z</time></trkpt><trkpt lat="41.53974880685459" lon="14.9581573688619"><ele>231.0</ele><time>2026-04-25T12:58:55Z</time></trkpt><trkpt lat="41.53967062908548" lon="14.957901496658415"><ele>229.0</ele><time>2026-04-25T12:58:56Z</time></trkpt><trkpt lat="41.539605341311585" lon="14.957673808272949"><ele>227.0</ele><time>2026-04-25T12:58:57Z</time></trkpt><trkpt lat="41.53957088770269" lon="14.957485060239094"><ele>225.0</ele><time>2026-04-25T12:58:58Z</time></trkpt><trkpt lat="41.53958680994501" lon="14.95730806996364"><ele>224.75</ele><time>2026-04-25T12:58:59Z</time></trkpt><trkpt lat="41.53964608781961" lon="14.957132990083542"><ele>224.5</ele><time>2026-04-25T12:59:00Z</time></trkpt><trkpt lat="41.539690718133585" lon="14.956935847294218"><ele>224.25</ele><time>2026-04-25T12:59:01Z</time></trkpt><trkpt lat="41.539692237209145" lon="14.956749666375236"><ele>224.0</ele><time>2026-04-25T12:59:02Z</time></trkpt><trkpt lat="41.5396561818338" lon="14.956546831219743"><ele>223.66666666666669</ele><time>2026-04-25T12:59:03Z</time></trkpt><trkpt lat="41.53958040289514" lon="14.956305603193547"><ele>223.33333333333331</ele><time>2026-04-25T12:59:04Z</time></trkpt><trkpt lat="41.53948980829663" lon="14.956025424829427"><ele>223.0</ele><time>2026-04-25T12:59:05Z</time></trkpt><trkpt lat="41.53940525625974" lon="14.955736338781156"><ele>224.0</ele><time>2026-04-25T12:59:06Z</time></trkpt><trkpt lat="41.53934199190172" lon="14.955445682953666"><ele>225.0</ele><time>2026-04-25T12:59:07Z</time></trkpt><trkpt lat="41.53927880757875" lon="14.955180531795"><ele>226.0</ele><time>2026-04-25T12:59:08Z</time></trkpt><trkpt lat="41.53925327634357" lon="14.954904913322265"><ele>226.0</ele><time>2026-04-25T12:59:09Z</time></trkpt><trkpt lat="41.53923131337692" lon="14.954598109697061"><ele>226.0</ele><time>2026-04-25T12:59:10Z</time></trkpt><trkpt lat="41.53920603139159" lon="14.954245113283974"><ele>228.0</ele><time>2026-04-25T12:59:11Z</time></trkpt><trkpt lat="41.53918037818264" lon="14.953908570326417"><ele>230.0</ele><time>2026-04-25T12:59:12Z</time></trkpt><trkpt lat="41.53915492921557" lon="14.95360650844274"><ele>229.0</ele><time>2026-04-25T12:59:13Z</time></trkpt><trkpt lat="41.53913137319967" lon="14.95333450725423"><ele>228.0</ele><time>2026-04-25T12:59:14Z</time></trkpt><trkpt lat="41.53911056644612" lon="14.953084631167515"><ele>227.0</ele><time>2026-04-25T12:59:15Z</time></trkpt><trkpt lat="41.53909273924084" lon="14.952835772863638"><ele>227.0</ele><time>2026-04-25T12:59:16Z</time></trkpt><trkpt lat="41.539077772896476" lon="14.952592751882259"><ele>227.0</ele><time>2026-04-25T12:59:17Z</time></trkpt><trkpt lat="41.53904892158427" lon="14.952374856046264"><ele>227.0</ele><time>2026-04-25T12:59:18Z</time></trkpt><trkpt lat="41.539031292788415" lon="14.952168057565695"><ele>225.66666666666669</ele><time>2026-04-25T12:59:19Z</time></trkpt><trkpt lat="41.53895684919455" lon="14.951959151562683"><ele>224.33333333333331</ele><time>2026-04-25T12:59:20Z</time></trkpt><trkpt lat="41.53886784038235" lon="14.951754682045806"><ele>223.0</ele><time>2026-04-25T12:59:21Z</time></trkpt><trkpt lat="41.538738524745135" lon="14.951582665002618"><ele>225.33333333333331</ele><time>2026-04-25T12:59:22Z</time></trkpt><trkpt lat="41.53857318539678" lon="14.951427233721294"><ele>227.66666666666669</ele><time>2026-04-25T12:59:23Z</time></trkpt><trkpt lat="41.53842141231019" lon="14.95125917052949"><ele>230.0</ele><time>2026-04-25T12:59:24Z</time></trkpt><trkpt lat="41.53827998431218" lon="14.951091296778888"><ele>230.0</ele><time>2026-04-25T12:59:25Z</time></trkpt><trkpt lat="41.538141606385174" lon="14.950889007229728"><ele>230.0</ele><time>2026-04-25T12:59:26Z</time></trkpt><trkpt lat="41.53799893517015" lon="14.950649394036786"><ele>230.0</ele><time>2026-04-25T12:59:27Z</time></trkpt><trkpt lat="41.537874792046594" lon="14.950421654540694"><ele>228.33333333333334</ele><time>2026-04-25T12:59:28Z</time></trkpt><trkpt lat="41.53776546176993" lon="14.950216681441109"><ele>226.66666666666669</ele><time>2026-04-25T12:59:29Z</time></trkpt><trkpt lat="41.53767477987442" lon="14.95000902660806"><ele>225.0</ele><time>2026-04-25T12:59:30Z</time></trkpt><trkpt lat="41.53761532835729" lon="14.94979825281396"><ele>225.0</ele><time>2026-04-25T12:59:31Z</time></trkpt><trkpt lat="41.537568501734185" lon="14.949583161608533"><ele>225.0</ele><time>2026-04-25T12:59:32Z</time></trkpt><trkpt lat="41.5374843532018" lon="14.949375235514902"><ele>225.0</ele><time>2026-04-25T12:59:33Z</time></trkpt><trkpt lat="41.537382664123434" lon="14.9492444648176"><ele>222.0</ele><time>2026-04-25T12:59:34Z</time></trkpt><trkpt lat="41.53724814631784" lon="14.949125053598154"><ele>219.0</ele><time>2026-04-25T12:59:35Z</time></trkpt><trkpt lat="41.537150957180394" lon="14.948966301197194"><ele>216.0</ele><time>2026-04-25T12:59:36Z</time></trkpt><trkpt lat="41.53705828874955" lon="14.948804341596816"><ele>218.66666666666669</ele><time>2026-04-25T12:59:37Z</time></trkpt><trkpt lat="41.536990529740955" lon="14.948627345200542"><ele>221.33333333333334</ele><time>2026-04-25T12:59:38Z</time></trkpt><trkpt lat="41.53695316665552" lon="14.94841833695168"><ele>224.0</ele><time>2026-04-25T12:59:39Z</time></trkpt><trkpt lat="41.53693756732981" lon="14.948167499881036"><ele>224.0</ele><time>2026-04-25T12:59:40Z</time></trkpt><trkpt lat="41.53694037480733" lon="14.947904083252155"><ele>224.0</ele><time>2026-04-25T12:59:41Z</time></trkpt><trkpt lat="41.53696321333293" lon="14.947613024334654"><ele>224.0</ele><time>2026-04-25T12:59:42Z</time></trkpt><trkpt lat="41.536993496382635" lon="14.947317023343874"><ele>224.33333333333334</ele><time>2026-04-25T12:59:43Z</time></trkpt><trkpt lat="41.53702430499819" lon="14.947024113728299"><ele>224.66666666666669</ele><time>2026-04-25T12:59:44Z</time></trkpt><trkpt lat="41.53705290979181" lon="14.946727220123009"><ele>225.0</ele><time>2026-04-25T12:59:45Z</time></trkpt><trkpt lat="41.5370838969006" lon="14.946448631082314"><ele>221.0</ele><time>2026-04-25T12:59:46Z</time></trkpt><trkpt lat="41.53711190220123" lon="14.946199232985213"><ele>217.0</ele><time>2026-04-25T12:59:47Z</time></trkpt><trkpt lat="41.53713764026925" lon="14.945963499857971"><ele>213.0</ele><time>2026-04-25T12:59:48Z</time></trkpt><trkpt lat="41.53714701411794" lon="14.945732054710403"><ele>213.0</ele><time>2026-04-25T12:59:49Z</time></trkpt><trkpt lat="41.537156326152584" lon="14.945481935653508"><ele>213.0</ele><time>2026-04-25T12:59:50Z</time></trkpt><trkpt lat="41.53713831738671" lon="14.94522004901859"><ele>213.0</ele><time>2026-04-25T12:59:51Z</time></trkpt><trkpt lat="41.53709747489516" lon="14.944982770600822"><ele>212.33333333333331</ele><time>2026-04-25T12:59:52Z</time></trkpt><trkpt lat="41.53706087444502" lon="14.944770835299684"><ele>211.66666666666666</ele><time>2026-04-25T12:59:53Z</time></trkpt><trkpt lat="41.53698847039031" lon="14.944586851525456"><ele>211.0</ele><time>2026-04-25T12:59:54Z</time></trkpt><trkpt lat="41.536898674779295" lon="14.94440494872022"><ele>214.66666666666666</ele><time>2026-04-25T12:59:55Z</time></trkpt><trkpt lat="41.536773681923684" lon="14.944226209322306"><ele>218.33333333333331</ele><time>2026-04-25T12:59:56Z</time></trkpt><trkpt lat="41.53662103196584" lon="14.944049644670278"><ele>222.0</ele><time>2026-04-25T12:59:57Z</time></trkpt><trkpt lat="41.53644419843185" lon="14.94386083813299"><ele>222.0</ele><time>2026-04-25T12:59:58Z</time></trkpt><trkpt lat="41.53627473686062" lon="14.943673626463944"><ele>222.0</ele><time>2026-04-25T12:59:59Z</time></trkpt><trkpt lat="41.53610278589898" lon="14.943508402717132"><ele>222.0</ele><time>2026-04-25T13:00:00Z</time></trkpt><trkpt lat="41.535924200232145" lon="14.943363497009917"><ele>221.0</ele><time>2026-04-25T13:00:01Z</time></trkpt><trkpt lat="41.535755341104284" lon="14.943207795169215"><ele>220.0</ele><time>2026-04-25T13:00:02Z</time></trkpt><trkpt lat="41.53558420834273" lon="14.943076997799782"><ele>219.0</ele><time>2026-04-25T13:00:03Z</time></trkpt><trkpt lat="41.53542119456886" lon="14.942952405791448"><ele>221.66666666666669</ele><time>2026-04-25T13:00:04Z</time></trkpt><trkpt lat="41.535249342108706" lon="14.942854873536998"><ele>224.33333333333334</ele><time>2026-04-25T13:00:05Z</time></trkpt><trkpt lat="41.53507343450033" lon="14.94273952574046"><ele>227.0</ele><time>2026-04-25T13:00:06Z</time></trkpt><trkpt lat="41.53489447329228" lon="14.942665050112428"><ele>227.0</ele><time>2026-04-25T13:00:07Z</time></trkpt><trkpt lat="41.53472401423666" lon="14.942609813633803"><ele>227.0</ele><time>2026-04-25T13:00:08Z</time></trkpt><trkpt lat="41.53455854988864" lon="14.942592481125434"><ele>227.0</ele><time>2026-04-25T13:00:09Z</time></trkpt><trkpt lat="41.53438561289631" lon="14.942621873133966"><ele>224.5</ele><time>2026-04-25T13:00:10Z</time></trkpt><trkpt lat="41.534223091833226" lon="14.942663123919573"><ele>222.0</ele><time>2026-04-25T13:00:11Z</time></trkpt><trkpt lat="41.53410661553137" lon="14.9426263670671"><ele>219.5</ele><time>2026-04-25T13:00:12Z</time></trkpt><trkpt lat="41.53397590312346" lon="14.942581165961013"><ele>217.0</ele><time>2026-04-25T13:00:13Z</time></trkpt><trkpt lat="41.53385864087336" lon="14.9425225848423"><ele>217.0</ele><time>2026-04-25T13:00:14Z</time></trkpt><trkpt lat="41.533754388037465" lon="14.94241237743745"><ele>217.0</ele><time>2026-04-25T13:00:15Z</time></trkpt><trkpt lat="41.533712677405546" lon="14.942280906868715"><ele>217.0</ele><time>2026-04-25T13:00:16Z</time></trkpt><trkpt lat="41.5336747970367" lon="14.942088646968871"><ele>217.0</ele><time>2026-04-25T13:00:17Z</time></trkpt><trkpt lat="41.53363181278857" lon="14.941929986307423"><ele>217.25</ele><time>2026-04-25T13:00:18Z</time></trkpt><trkpt lat="41.53357336577432" lon="14.941790772842301"><ele>217.5</ele><time>2026-04-25T13:00:19Z</time></trkpt><trkpt lat="41.533457961848626" lon="14.941695792237963"><ele>217.75</ele><time>2026-04-25T13:00:20Z</time></trkpt><trkpt lat="41.53331463942576" lon="14.941615427473401"><ele>218.0</ele><time>2026-04-25T13:00:21Z</time></trkpt><trkpt lat="41.53312775741666" lon="14.941573608395526"><ele>218.0</ele><time>2026-04-25T13:00:22Z</time></trkpt><trkpt lat="41.532925586253015" lon="14.94150552085619"><ele>218.0</ele><time>2026-04-25T13:00:23Z</time></trkpt><trkpt lat="41.53274698521563" lon="14.941433303906047"><ele>218.0</ele><time>2026-04-25T13:00:24Z</time></trkpt><trkpt lat="41.53256977458305" lon="14.941361995533287"><ele>220.25</ele><time>2026-04-25T13:00:25Z</time></trkpt><trkpt lat="41.532414088201044" lon="14.94129521065637"><ele>222.5</ele><time>2026-04-25T13:00:26Z</time></trkpt><trkpt lat="41.5322905795328" lon="14.94125303955133"><ele>224.75</ele><time>2026-04-25T13:00:27Z</time></trkpt><trkpt lat="41.53216414035075" lon="14.94125203494931"><ele>227.0</ele><time>2026-04-25T13:00:28Z</time></trkpt><trkpt lat="41.532028946106614" lon="14.941292835643782"><ele>228.0</ele><time>2026-04-25T13:00:29Z</time></trkpt><trkpt lat="41.53187984265991" lon="14.941408258153011"><ele>229.0</ele><time>2026-04-25T13:00:30Z</time></trkpt><trkpt lat="41.53169467896621" lon="14.94153497508947"><ele>230.0</ele><time>2026-04-25T13:00:31Z</time></trkpt><trkpt lat="41.531503632257724" lon="14.941647619439134"><ele>238.0</ele><time>2026-04-25T13:00:31.999Z</time></trkpt><trkpt lat="41.531338264113685" lon="14.94176271684056"><ele>246.0</ele><time>2026-04-25T13:00:32.999Z</time></trkpt><trkpt lat="41.53119088398729" lon="14.941863626843547"><ele>254.0</ele><time>2026-04-25T13:00:33.999Z</time></trkpt><trkpt lat="41.53104108552609" lon="14.941916993043469"><ele>254.0</ele><time>2026-04-25T13:00:34.999Z</time></trkpt><trkpt lat="41.53087637248747" lon="14.941862942695387"><ele>254.0</ele><time>2026-04-25T13:00:35.999Z</time></trkpt><trkpt lat="41.53068471550944" lon="14.941865448568073"><ele>254.0</ele><time>2026-04-25T13:00:36.999Z</time></trkpt><trkpt lat="41.5304743981903" lon="14.941840529470243"><ele>251.33333333333334</ele><time>2026-04-25T13:00:37.999Z</time></trkpt><trkpt lat="41.53025566771042" lon="14.94188746112962"><ele>248.66666666666669</ele><time>2026-04-25T13:00:38.999Z</time></trkpt><trkpt lat="41.530061376113196" lon="14.94191780263196"><ele>246.0</ele><time>2026-04-25T13:00:39.999Z</time></trkpt><trkpt lat="41.52985603441148" lon="14.941951535173214"><ele>246.0</ele><time>2026-04-25T13:00:40.999Z</time></trkpt><trkpt lat="41.52964637514364" lon="14.942001765983685"><ele>246.0</ele><time>2026-04-25T13:00:41.999Z</time></trkpt><trkpt lat="41.529442425432755" lon="14.942102027814796"><ele>246.0</ele><time>2026-04-25T13:00:42.999Z</time></trkpt><trkpt lat="41.52928702810315" lon="14.942199662369735"><ele>244.0</ele><time>2026-04-25T13:00:43.999Z</time></trkpt><trkpt lat="41.52911065935444" lon="14.942270981389878"><ele>242.0</ele><time>2026-04-25T13:00:45Z</time></trkpt><trkpt lat="41.52893497033544" lon="14.942386594061128"><ele>240.0</ele><time>2026-04-25T13:00:46Z</time></trkpt><trkpt lat="41.528755400155646" lon="14.942553037087057"><ele>242.0</ele><time>2026-04-25T13:00:47Z</time></trkpt><trkpt lat="41.52856718762156" lon="14.94274092329347"><ele>244.0</ele><time>2026-04-25T13:00:48Z</time></trkpt><trkpt lat="41.52836240477497" lon="14.942938156921425"><ele>244.0</ele><time>2026-04-25T13:00:49Z</time></trkpt><trkpt lat="41.528184873118605" lon="14.943115589407007"><ele>244.0</ele><time>2026-04-25T13:00:50Z</time></trkpt><trkpt lat="41.52802893838979" lon="14.943274613276774"><ele>244.0</ele><time>2026-04-25T13:00:51Z</time></trkpt><trkpt lat="41.52788015015549" lon="14.943434197833755"><ele>243.33333333333331</ele><time>2026-04-25T13:00:52Z</time></trkpt><trkpt lat="41.52773884010297" lon="14.94360611821212"><ele>242.66666666666669</ele><time>2026-04-25T13:00:53Z</time></trkpt><trkpt lat="41.52761085568114" lon="14.943798931810672"><ele>242.0</ele><time>2026-04-25T13:00:54Z</time></trkpt><trkpt lat="41.52752186494808" lon="14.944011754075719"><ele>242.0</ele><time>2026-04-25T13:00:55Z</time></trkpt><trkpt lat="41.5274510377122" lon="14.944206289592644"><ele>242.0</ele><time>2026-04-25T13:00:56Z</time></trkpt><trkpt lat="41.527385923415125" lon="14.944348565778062"><ele>242.0</ele><time>2026-04-25T13:00:57Z</time></trkpt><trkpt lat="41.527301964158106" lon="14.944442521365973"><ele>242.0</ele><time>2026-04-25T13:00:58Z</time></trkpt><trkpt lat="41.527194966617195" lon="14.944475945904651"><ele>242.5</ele><time>2026-04-25T13:00:59Z</time></trkpt><trkpt lat="41.527089303014584" lon="14.94444056955341"><ele>243.0</ele><time>2026-04-25T13:01:00Z</time></trkpt><trkpt lat="41.526991070429865" lon="14.94433348988793"><ele>243.5</ele><time>2026-04-25T13:01:01Z</time></trkpt><trkpt lat="41.526907656300786" lon="14.944184558467695"><ele>244.0</ele><time>2026-04-25T13:01:02Z</time></trkpt><trkpt lat="41.526821698976725" lon="14.944031673729409"><ele>242.39999999999998</ele><time>2026-04-25T13:01:03Z</time></trkpt><trkpt lat="41.52673656744747" lon="14.943922372110988"><ele>240.79999999999998</ele><time>2026-04-25T13:01:04Z</time></trkpt><trkpt lat="41.52666838423727" lon="14.943841873305677"><ele>239.20000000000002</ele><time>2026-04-25T13:01:05Z</time></trkpt><trkpt lat="41.52658401368121" lon="14.943840863289893"><ele>237.60000000000002</ele><time>2026-04-25T13:01:06Z</time></trkpt><trkpt lat="41.5264956316971" lon="14.94387782095955"><ele>236.0</ele><time>2026-04-25T13:01:07Z</time></trkpt><trkpt lat="41.52644608724784" lon="14.944054374830095"><ele>238.66666666666669</ele><time>2026-04-25T13:01:08Z</time></trkpt><trkpt lat="41.52640677402693" lon="14.944250441824172"><ele>241.33333333333331</ele><time>2026-04-25T13:01:09Z</time></trkpt><trkpt lat="41.5263700515341" lon="14.944465424766085"><ele>244.0</ele><time>2026-04-25T13:01:10Z</time></trkpt><trkpt lat="41.526335859811816" lon="14.944642383409297"><ele>244.0</ele><time>2026-04-25T13:01:11Z</time></trkpt><trkpt lat="41.526272031146654" lon="14.944790644258273"><ele>244.0</ele><time>2026-04-25T13:01:12Z</time></trkpt><trkpt lat="41.52618906185612" lon="14.944905019285644"><ele>244.0</ele><time>2026-04-25T13:01:13Z</time></trkpt><trkpt lat="41.52608986661128" lon="14.944956196604844"><ele>244.0</ele><time>2026-04-25T13:01:14Z</time></trkpt><trkpt lat="41.525946324185036" lon="14.945013415314275"><ele>240.66666666666666</ele><time>2026-04-25T13:01:15Z</time></trkpt><trkpt lat="41.52578267322915" lon="14.945076726916833"><ele>237.33333333333331</ele><time>2026-04-25T13:01:16Z</time></trkpt><trkpt lat="41.52562476309361" lon="14.945165820949228"><ele>234.0</ele><time>2026-04-25T13:01:17Z</time></trkpt><trkpt lat="41.525461236202574" lon="14.94525473868071"><ele>230.66666666666669</ele><time>2026-04-25T13:01:18Z</time></trkpt><trkpt lat="41.52530798443314" lon="14.945345916105875"><ele>227.33333333333334</ele><time>2026-04-25T13:01:19Z</time></trkpt><trkpt lat="41.52516106920128" lon="14.945392128719483"><ele>224.0</ele><time>2026-04-25T13:01:20Z</time></trkpt><trkpt lat="41.52501738869124" lon="14.945448332168413"><ele>224.0</ele><time>2026-04-25T13:01:21Z</time></trkpt><trkpt lat="41.52488490606403" lon="14.94550953068481"><ele>224.0</ele><time>2026-04-25T13:01:22Z</time></trkpt><trkpt lat="41.524776019667826" lon="14.945560045316125"><ele>224.0</ele><time>2026-04-25T13:01:23Z</time></trkpt><trkpt lat="41.52469061155465" lon="14.945555434549396"><ele>224.0</ele><time>2026-04-25T13:01:24Z</time></trkpt><trkpt lat="41.52462338862135" lon="14.945431016133773"><ele>224.0</ele><time>2026-04-25T13:01:26Z</time></trkpt><trkpt lat="41.524652606275765" lon="14.945292611763472"><ele>224.0</ele><time>2026-04-25T13:01:27Z</time></trkpt><trkpt lat="41.524750579077" lon="14.945118366301758"><ele>224.0</ele><time>2026-04-25T13:01:28Z</time></trkpt><trkpt lat="41.52485951802742" lon="14.944940262681728"><ele>224.0</ele><time>2026-04-25T13:01:29Z</time></trkpt><trkpt lat="41.52497859327889" lon="14.944805187946413"><ele>222.0</ele><time>2026-04-25T13:01:30Z</time></trkpt><trkpt lat="41.525077845383" lon="14.94471827218296"><ele>220.0</ele><time>2026-04-25T13:01:31Z</time></trkpt><trkpt lat="41.52518321071517" lon="14.944604095438779"><ele>218.0</ele><time>2026-04-25T13:01:32Z</time></trkpt><trkpt lat="41.52525759105461" lon="14.944469993073032"><ele>216.0</ele><time>2026-04-25T13:01:33Z</time></trkpt><trkpt lat="41.525289313717536" lon="14.944318484890236"><ele>214.0</ele><time>2026-04-25T13:01:34Z</time></trkpt><trkpt lat="41.52527212331159" lon="14.944164916333834"><ele>212.0</ele><time>2026-04-25T13:01:35Z</time></trkpt><trkpt lat="41.52520184692222" lon="14.944027262323178"><ele>210.0</ele><time>2026-04-25T13:01:36Z</time></trkpt><trkpt lat="41.525107317392255" lon="14.94393571297438"><ele>208.0</ele><time>2026-04-25T13:01:37Z</time></trkpt><trkpt lat="41.52498156858887" lon="14.9439221133869"><ele>208.0</ele><time>2026-04-25T13:01:38Z</time></trkpt><trkpt lat="41.52484507068313" lon="14.94395584165555"><ele>208.0</ele><time>2026-04-25T13:01:39Z</time></trkpt><trkpt lat="41.524696771603665" lon="14.944021116965803"><ele>208.0</ele><time>2026-04-25T13:01:40Z</time></trkpt><trkpt lat="41.52454514947072" lon="14.944065189935838"><ele>207.0</ele><time>2026-04-25T13:01:41Z</time></trkpt><trkpt lat="41.524415019768284" lon="14.94409056037758"><ele>206.0</ele><time>2026-04-25T13:01:42Z</time></trkpt><trkpt lat="41.52430043258879" lon="14.944117019638135"><ele>205.0</ele><time>2026-04-25T13:01:43Z</time></trkpt><trkpt lat="41.524187830320976" lon="14.944140040839313"><ele>204.0</ele><time>2026-04-25T13:01:44Z</time></trkpt><trkpt lat="41.52409279560894" lon="14.94417546977183"><ele>204.0</ele><time>2026-04-25T13:01:45Z</time></trkpt><trkpt lat="41.52400070570185" lon="14.944205893995884"><ele>204.0</ele><time>2026-04-25T13:01:46Z</time></trkpt><trkpt lat="41.5239068772248" lon="14.94421578254671"><ele>204.0</ele><time>2026-04-25T13:01:47Z</time></trkpt><trkpt lat="41.523830085227516" lon="14.944188083989147"><ele>204.0</ele><time>2026-04-25T13:01:48Z</time></trkpt><trkpt lat="41.52373801381663" lon="14.943997947152658"><ele>204.0</ele><time>2026-04-25T13:01:50Z</time></trkpt><trkpt lat="41.52365439567226" lon="14.943869478373427"><ele>201.66666666666669</ele><time>2026-04-25T13:01:51Z</time></trkpt><trkpt lat="41.523556353560984" lon="14.94370140437305"><ele>199.33333333333334</ele><time>2026-04-25T13:01:52Z</time></trkpt><trkpt lat="41.523449718726816" lon="14.943524535013408"><ele>197.0</ele><time>2026-04-25T13:01:53Z</time></trkpt><trkpt lat="41.52332219651161" lon="14.943329348641319"><ele>196.33333333333334</ele><time>2026-04-25T13:01:54Z</time></trkpt><trkpt lat="41.5232068758736" lon="14.943135762707614"><ele>195.66666666666669</ele><time>2026-04-25T13:01:55Z</time></trkpt><trkpt lat="41.52309461976158" lon="14.942955229404394"><ele>195.0</ele><time>2026-04-25T13:01:56Z</time></trkpt><trkpt lat="41.52298752955234" lon="14.942776288990084"><ele>195.66666666666669</ele><time>2026-04-25T13:01:57Z</time></trkpt><trkpt lat="41.522884781716805" lon="14.942583413396722"><ele>196.33333333333334</ele><time>2026-04-25T13:01:58Z</time></trkpt><trkpt lat="41.52276621781072" lon="14.942411994124482"><ele>197.0</ele><time>2026-04-25T13:01:59Z</time></trkpt><trkpt lat="41.52267207299265" lon="14.9422705726508"><ele>197.5</ele><time>2026-04-25T13:02:00Z</time></trkpt><trkpt lat="41.52258370040432" lon="14.942122781930978"><ele>198.0</ele><time>2026-04-25T13:02:01Z</time></trkpt><trkpt lat="41.52250160639276" lon="14.94198697393013"><ele>198.5</ele><time>2026-04-25T13:02:02Z</time></trkpt><trkpt lat="41.5224308358929" lon="14.941853489046494"><ele>199.0</ele><time>2026-04-25T13:02:03Z</time></trkpt><trkpt lat="41.52240517214512" lon="14.941724496193919"><ele>199.75</ele><time>2026-04-25T13:02:04Z</time></trkpt><trkpt lat="41.52238830445927" lon="14.941599834458332"><ele>200.5</ele><time>2026-04-25T13:02:05Z</time></trkpt><trkpt lat="41.5223479129178" lon="14.941456277982422"><ele>201.25</ele><time>2026-04-25T13:02:06Z</time></trkpt><trkpt lat="41.52233227383865" lon="14.941286537638485"><ele>202.0</ele><time>2026-04-25T13:02:07Z</time></trkpt><trkpt lat="41.52233051065958" lon="14.941104286122789"><ele>202.0</ele><time>2026-04-25T13:02:08Z</time></trkpt><trkpt lat="41.52235766210398" lon="14.94092450633645"><ele>202.0</ele><time>2026-04-25T13:02:09Z</time></trkpt><trkpt lat="41.522408463033976" lon="14.940726195608404"><ele>202.0</ele><time>2026-04-25T13:02:10Z</time></trkpt><trkpt lat="41.522462769347904" lon="14.940513407952611"><ele>202.33333333333331</ele><time>2026-04-25T13:02:11Z</time></trkpt><trkpt lat="41.52252571279483" lon="14.940257465467624"><ele>202.66666666666669</ele><time>2026-04-25T13:02:12Z</time></trkpt><trkpt lat="41.522585358105324" lon="14.940003751050233"><ele>203.0</ele><time>2026-04-25T13:02:13Z</time></trkpt><trkpt lat="41.522662781304156" lon="14.939724915168004"><ele>204.5</ele><time>2026-04-25T13:02:14Z</time></trkpt><trkpt lat="41.52275243758843" lon="14.93943635172431"><ele>206.0</ele><time>2026-04-25T13:02:15Z</time></trkpt><trkpt lat="41.5228545044696" lon="14.9391646391723"><ele>201.0</ele><time>2026-04-25T13:02:16Z</time></trkpt><trkpt lat="41.52297343232561" lon="14.938883130058654"><ele>196.0</ele><time>2026-04-25T13:02:17Z</time></trkpt><trkpt lat="41.52312252008688" lon="14.938583215073177"><ele>197.5</ele><time>2026-04-25T13:02:18Z</time></trkpt><trkpt lat="41.52327406513191" lon="14.938295888611126"><ele>199.0</ele><time>2026-04-25T13:02:19Z</time></trkpt><trkpt lat="41.52343616160656" lon="14.938029991468927"><ele>199.0</ele><time>2026-04-25T13:02:20Z</time></trkpt><trkpt lat="41.52358089532376" lon="14.937784798332538"><ele>199.0</ele><time>2026-04-25T13:02:21Z</time></trkpt><trkpt lat="41.52376936863192" lon="14.937525334540792"><ele>198.0</ele><time>2026-04-25T13:02:22Z</time></trkpt><trkpt lat="41.52397232821221" lon="14.93726310516844"><ele>197.0</ele><time>2026-04-25T13:02:23Z</time></trkpt><trkpt lat="41.52418044343329" lon="14.936997537307503"><ele>197.0</ele><time>2026-04-25T13:02:24Z</time></trkpt><trkpt lat="41.5243927029403" lon="14.936723272722558"><ele>197.0</ele><time>2026-04-25T13:02:25Z</time></trkpt><trkpt lat="41.52460753243223" lon="14.936472259998185"><ele>198.0</ele><time>2026-04-25T13:02:26Z</time></trkpt><trkpt lat="41.5247741244663" lon="14.936214335927616"><ele>199.0</ele><time>2026-04-25T13:02:27Z</time></trkpt><trkpt lat="41.52488629301736" lon="14.936027210246882"><ele>200.0</ele><time>2026-04-25T13:02:28Z</time></trkpt><trkpt lat="41.52502465683215" lon="14.935780155866466"><ele>200.0</ele><time>2026-04-25T13:02:29Z</time></trkpt><trkpt lat="41.525145381008784" lon="14.935483288137632"><ele>200.0</ele><time>2026-04-25T13:02:30Z</time></trkpt><trkpt lat="41.52523569748697" lon="14.935163463587646"><ele>206.0</ele><time>2026-04-25T13:02:31Z</time></trkpt><trkpt lat="41.52529522506669" lon="14.934826876077992"><ele>212.0</ele><time>2026-04-25T13:02:32Z</time></trkpt><trkpt lat="41.52533058063085" lon="14.934491627706617"><ele>211.5</ele><time>2026-04-25T13:02:33Z</time></trkpt><trkpt lat="41.52534153064466" lon="14.93418421574998"><ele>211.0</ele><time>2026-04-25T13:02:34Z</time></trkpt><trkpt lat="41.5253073790713" lon="14.933882174704014"><ele>211.0</ele><time>2026-04-25T13:02:35Z</time></trkpt><trkpt lat="41.52522595979812" lon="14.93356469366562"><ele>211.0</ele><time>2026-04-25T13:02:36Z</time></trkpt><trkpt lat="41.52511093650676" lon="14.933270217549442"><ele>207.66666666666666</ele><time>2026-04-25T13:02:37Z</time></trkpt><trkpt lat="41.52500749917949" lon="14.933029482958165"><ele>204.33333333333331</ele><time>2026-04-25T13:02:38Z</time></trkpt><trkpt lat="41.524942612993826" lon="14.932798072899262"><ele>201.0</ele><time>2026-04-25T13:02:39Z</time></trkpt><trkpt lat="41.52487439185228" lon="14.932598393848203"><ele>200.66666666666669</ele><time>2026-04-25T13:02:40Z</time></trkpt><trkpt lat="41.524804111498" lon="14.9323917355351"><ele>200.33333333333334</ele><time>2026-04-25T13:02:41Z</time></trkpt><trkpt lat="41.52472715032896" lon="14.932165520560787"><ele>200.0</ele><time>2026-04-25T13:02:42Z</time></trkpt><trkpt lat="41.5246345713945" lon="14.931936921003059"><ele>201.66666666666669</ele><time>2026-04-25T13:02:43Z</time></trkpt><trkpt lat="41.52455144696099" lon="14.931686096312205"><ele>203.33333333333331</ele><time>2026-04-25T13:02:44Z</time></trkpt><trkpt lat="41.524456638517954" lon="14.931411312364363"><ele>205.0</ele><time>2026-04-25T13:02:45Z</time></trkpt><trkpt lat="41.524349591395065" lon="14.931102960724925"><ele>203.0</ele><time>2026-04-25T13:02:46Z</time></trkpt><trkpt lat="41.5242512182883" lon="14.930771918947567"><ele>201.0</ele><time>2026-04-25T13:02:47Z</time></trkpt><trkpt lat="41.52414188657183" lon="14.930481502634198"><ele>201.0</ele><time>2026-04-25T13:02:48Z</time></trkpt><trkpt lat="41.5240293513015" lon="14.930142268130519"><ele>201.0</ele><time>2026-04-25T13:02:49Z</time></trkpt><trkpt lat="41.52393120946198" lon="14.929778240585973"><ele>201.5</ele><time>2026-04-25T13:02:50Z</time></trkpt><trkpt lat="41.523874684695485" lon="14.929387205358578"><ele>202.0</ele><time>2026-04-25T13:02:51Z</time></trkpt><trkpt lat="41.52381879609487" lon="14.928982848077712"><ele>200.5</ele><time>2026-04-25T13:02:52Z</time></trkpt><trkpt lat="41.523783361364366" lon="14.928576665907276"><ele>199.0</ele><time>2026-04-25T13:02:53Z</time></trkpt><trkpt lat="41.523768403027994" lon="14.928154977061734"><ele>199.0</ele><time>2026-04-25T13:02:54Z</time></trkpt><trkpt lat="41.523766260376995" lon="14.927714827523173"><ele>199.0</ele><time>2026-04-25T13:02:55Z</time></trkpt><trkpt lat="41.523765257908074" lon="14.927283844991978"><ele>199.0</ele><time>2026-04-25T13:02:56Z</time></trkpt><trkpt lat="41.52376440122066" lon="14.926847750978185"><ele>199.0</ele><time>2026-04-25T13:02:57Z</time></trkpt><trkpt lat="41.52376343855488" lon="14.926411802712154"><ele>199.5</ele><time>2026-04-25T13:02:58Z</time></trkpt><trkpt lat="41.52376285651638" lon="14.925969475923972"><ele>200.0</ele><time>2026-04-25T13:02:59Z</time></trkpt><trkpt lat="41.52376285651598" lon="14.925535966618643"><ele>199.0</ele><time>2026-04-25T13:03:00Z</time></trkpt><trkpt lat="41.52376285651676" lon="14.925092862944956"><ele>198.0</ele><time>2026-04-25T13:03:01Z</time></trkpt><trkpt lat="41.52376285651599" lon="14.924653002875036"><ele>198.0</ele><time>2026-04-25T13:03:02Z</time></trkpt><trkpt lat="41.52376391390975" lon="14.924255743820567"><ele>198.0</ele><time>2026-04-25T13:03:03Z</time></trkpt><trkpt lat="41.52377138511461" lon="14.923881392682233"><ele>199.0</ele><time>2026-04-25T13:03:04Z</time></trkpt><trkpt lat="41.523795249175556" lon="14.92351725693809"><ele>200.0</ele><time>2026-04-25T13:03:05Z</time></trkpt><trkpt lat="41.52385293034689" lon="14.923165759439774"><ele>200.0</ele><time>2026-04-25T13:03:06Z</time></trkpt><trkpt lat="41.52394725443357" lon="14.92281735710024"><ele>200.0</ele><time>2026-04-25T13:03:07Z</time></trkpt><trkpt lat="41.52407182294998" lon="14.922449492443723"><ele>200.5</ele><time>2026-04-25T13:03:08Z</time></trkpt><trkpt lat="41.524206631609815" lon="14.922063822846049"><ele>201.0</ele><time>2026-04-25T13:03:09Z</time></trkpt><trkpt lat="41.52434027679631" lon="14.921678496803827"><ele>202.0</ele><time>2026-04-25T13:03:10Z</time></trkpt><trkpt lat="41.52448612022195" lon="14.921223051163505"><ele>203.0</ele><time>2026-04-25T13:03:11Z</time></trkpt><trkpt lat="41.524600417354925" lon="14.920931528871225"><ele>203.0</ele><time>2026-04-25T13:03:12Z</time></trkpt><trkpt lat="41.524723833612235" lon="14.920581829775266"><ele>203.0</ele><time>2026-04-25T13:03:13Z</time></trkpt><trkpt lat="41.52484290621568" lon="14.920251148175572"><ele>206.0</ele><time>2026-04-25T13:03:14Z</time></trkpt><trkpt lat="41.52498840076228" lon="14.919899380118558"><ele>209.0</ele><time>2026-04-25T13:03:15Z</time></trkpt><trkpt lat="41.525158947196644" lon="14.919547806643706"><ele>206.5</ele><time>2026-04-25T13:03:16Z</time></trkpt><trkpt lat="41.52534118224699" lon="14.919195675812253"><ele>204.0</ele><time>2026-04-25T13:03:17Z</time></trkpt><trkpt lat="41.52552456071849" lon="14.918842771953576"><ele>204.0</ele><time>2026-04-25T13:03:18Z</time></trkpt><trkpt lat="41.525707798618086" lon="14.918465792406339"><ele>204.0</ele><time>2026-04-25T13:03:19Z</time></trkpt><trkpt lat="41.52596628993015" lon="14.91808169932674"><ele>204.5</ele><time>2026-04-25T13:03:20Z</time></trkpt><trkpt lat="41.52618196322054" lon="14.917749217590012"><ele>205.0</ele><time>2026-04-25T13:03:21Z</time></trkpt><trkpt lat="41.52635157263462" lon="14.917369685605875"><ele>205.0</ele><time>2026-04-25T13:03:22Z</time></trkpt><trkpt lat="41.52649470785734" lon="14.916971430423295"><ele>205.0</ele><time>2026-04-25T13:03:23Z</time></trkpt><trkpt lat="41.52651215096267" lon="14.916668517899028"><ele>206.0</ele><time>2026-04-25T13:03:24Z</time></trkpt><trkpt lat="41.526608099869065" lon="14.916310013487701"><ele>207.0</ele><time>2026-04-25T13:03:25Z</time></trkpt><trkpt lat="41.526691946212566" lon="14.915970367805151"><ele>209.0</ele><time>2026-04-25T13:03:26Z</time></trkpt><trkpt lat="41.526782654171654" lon="14.915643550563187"><ele>211.0</ele><time>2026-04-25T13:03:27Z</time></trkpt><trkpt lat="41.5268606186556" lon="14.915326142215378"><ele>213.5</ele><time>2026-04-25T13:03:28Z</time></trkpt><trkpt lat="41.5269300394372" lon="14.915000397103245"><ele>216.0</ele><time>2026-04-25T13:03:29Z</time></trkpt><trkpt lat="41.52697593635153" lon="14.914668088925767"><ele>216.0</ele><time>2026-04-25T13:03:30Z</time></trkpt><trkpt lat="41.52698739936535" lon="14.914324990526756"><ele>216.0</ele><time>2026-04-25T13:03:31Z</time></trkpt><trkpt lat="41.52696161540446" lon="14.9140045472049"><ele>215.5</ele><time>2026-04-25T13:03:32Z</time></trkpt><trkpt lat="41.5268992358847" lon="14.913691246183436"><ele>215.0</ele><time>2026-04-25T13:03:33Z</time></trkpt><trkpt lat="41.52681209383618" lon="14.913416632629259"><ele>214.0</ele><time>2026-04-25T13:03:34Z</time></trkpt><trkpt lat="41.52669678366078" lon="14.913142323686387"><ele>213.0</ele><time>2026-04-25T13:03:35Z</time></trkpt><trkpt lat="41.526542726773656" lon="14.912881067679267"><ele>213.0</ele><time>2026-04-25T13:03:36Z</time></trkpt><trkpt lat="41.52635045366888" lon="14.912633638986984"><ele>213.0</ele><time>2026-04-25T13:03:37Z</time></trkpt><trkpt lat="41.52614389967026" lon="14.912407606705285"><ele>214.0</ele><time>2026-04-25T13:03:38Z</time></trkpt><trkpt lat="41.52595701376247" lon="14.91219519071485"><ele>215.0</ele><time>2026-04-25T13:03:39Z</time></trkpt><trkpt lat="41.52579010290514" lon="14.911973816183432"><ele>213.5</ele><time>2026-04-25T13:03:40Z</time></trkpt><trkpt lat="41.52563922173004" lon="14.91173117214357"><ele>212.0</ele><time>2026-04-25T13:03:41Z</time></trkpt><trkpt lat="41.52555337961081" lon="14.91142059532822"><ele>212.0</ele><time>2026-04-25T13:03:42Z</time></trkpt><trkpt lat="41.525499729738016" lon="14.91108645946568"><ele>212.0</ele><time>2026-04-25T13:03:43Z</time></trkpt><trkpt lat="41.5254706170581" lon="14.910716594183844"><ele>212.0</ele><time>2026-04-25T13:03:44Z</time></trkpt><trkpt lat="41.52544186893654" lon="14.910322407770366"><ele>212.0</ele><time>2026-04-25T13:03:45Z</time></trkpt><trkpt lat="41.52540219421824" lon="14.909883018157466"><ele>213.5</ele><time>2026-04-25T13:03:46Z</time></trkpt><trkpt lat="41.52537973463489" lon="14.909503954780527"><ele>215.0</ele><time>2026-04-25T13:03:47Z</time></trkpt><trkpt lat="41.52535246220343" lon="14.90912977749624"><ele>215.0</ele><time>2026-04-25T13:03:48Z</time></trkpt><trkpt lat="41.52531988006495" lon="14.908745147909787"><ele>215.0</ele><time>2026-04-25T13:03:49Z</time></trkpt><trkpt lat="41.525299467006604" lon="14.908373700264208"><ele>215.0</ele><time>2026-04-25T13:03:50Z</time></trkpt><trkpt lat="41.52527804764637" lon="14.908008228092408"><ele>215.0</ele><time>2026-04-25T13:03:51Z</time></trkpt><trkpt lat="41.5252550816954" lon="14.907660380699895"><ele>213.5</ele><time>2026-04-25T13:03:52Z</time></trkpt><trkpt lat="41.52524972176573" lon="14.9073275562696"><ele>212.0</ele><time>2026-04-25T13:03:53Z</time></trkpt><trkpt lat="41.52527996288954" lon="14.906998739840377"><ele>213.0</ele><time>2026-04-25T13:03:54Z</time></trkpt><trkpt lat="41.525356882440164" lon="14.906670951323118"><ele>214.0</ele><time>2026-04-25T13:03:55Z</time></trkpt><trkpt lat="41.525477366542596" lon="14.906371521326346"><ele>212.0</ele><time>2026-04-25T13:03:56Z</time></trkpt><trkpt lat="41.52563912686348" lon="14.906086522590774"><ele>210.0</ele><time>2026-04-25T13:03:57Z</time></trkpt><trkpt lat="41.52583396645531" lon="14.905823453168562"><ele>210.0</ele><time>2026-04-25T13:03:58Z</time></trkpt><trkpt lat="41.52607406556226" lon="14.905583347497336"><ele>210.0</ele><time>2026-04-25T13:03:59Z</time></trkpt><trkpt lat="41.52632001538304" lon="14.905333404684386"><ele>210.5</ele><time>2026-04-25T13:04:00Z</time></trkpt><trkpt lat="41.52656098022969" lon="14.905093645617608"><ele>211.0</ele><time>2026-04-25T13:04:01Z</time></trkpt><trkpt lat="41.52678884421939" lon="14.9048471084976"><ele>211.0</ele><time>2026-04-25T13:04:02Z</time></trkpt><trkpt lat="41.527016432285556" lon="14.904594404942875"><ele>211.0</ele><time>2026-04-25T13:04:03Z</time></trkpt><trkpt lat="41.52723407748132" lon="14.904362568883306"><ele>212.5</ele><time>2026-04-25T13:04:04Z</time></trkpt><trkpt lat="41.52741517788836" lon="14.904139759722907"><ele>214.0</ele><time>2026-04-25T13:04:05Z</time></trkpt><trkpt lat="41.527590878686134" lon="14.903920747052736"><ele>214.0</ele><time>2026-04-25T13:04:06Z</time></trkpt><trkpt lat="41.5277734962469" lon="14.903678983357318"><ele>214.0</ele><time>2026-04-25T13:04:07Z</time></trkpt><trkpt lat="41.52790938667517" lon="14.903376196477346"><ele>215.0</ele><time>2026-04-25T13:04:08Z</time></trkpt><trkpt lat="41.528014118436964" lon="14.903054572011685"><ele>216.0</ele><time>2026-04-25T13:04:09Z</time></trkpt><trkpt lat="41.52807728283154" lon="14.902702216963641"><ele>216.0</ele><time>2026-04-25T13:04:10Z</time></trkpt><trkpt lat="41.52811738376243" lon="14.902334829530327"><ele>216.0</ele><time>2026-04-25T13:04:11Z</time></trkpt><trkpt lat="41.52814194713869" lon="14.90194210408185"><ele>216.5</ele><time>2026-04-25T13:04:12Z</time></trkpt><trkpt lat="41.52817515132435" lon="14.901557658040865"><ele>217.0</ele><time>2026-04-25T13:04:13Z</time></trkpt><trkpt lat="41.52821749330614" lon="14.901179110078308"><ele>217.0</ele><time>2026-04-25T13:04:14Z</time></trkpt><trkpt lat="41.52825895952201" lon="14.900798154732522"><ele>217.0</ele><time>2026-04-25T13:04:15Z</time></trkpt><trkpt lat="41.52829917303734" lon="14.90042285956358"><ele>216.5</ele><time>2026-04-25T13:04:16Z</time></trkpt><trkpt lat="41.528337029796255" lon="14.90005069829734"><ele>216.0</ele><time>2026-04-25T13:04:17Z</time></trkpt><trkpt lat="41.52837557925349" lon="14.899679562809697"><ele>216.0</ele><time>2026-04-25T13:04:18Z</time></trkpt><trkpt lat="41.52841031186785" lon="14.899307477531922"><ele>216.0</ele><time>2026-04-25T13:04:19Z</time></trkpt><trkpt lat="41.528451847715644" lon="14.89893411228138"><ele>216.5</ele><time>2026-04-25T13:04:20Z</time></trkpt><trkpt lat="41.5284998317513" lon="14.898561994871935"><ele>217.0</ele><time>2026-04-25T13:04:21Z</time></trkpt><trkpt lat="41.528567030667865" lon="14.89818491885233"><ele>217.0</ele><time>2026-04-25T13:04:22Z</time></trkpt><trkpt lat="41.528664385247325" lon="14.897815943688707"><ele>217.0</ele><time>2026-04-25T13:04:23Z</time></trkpt><trkpt lat="41.528782103237006" lon="14.897452980231463"><ele>217.0</ele><time>2026-04-25T13:04:24Z</time></trkpt><trkpt lat="41.52890941652267" lon="14.897097711723944"><ele>217.0</ele><time>2026-04-25T13:04:25Z</time></trkpt><trkpt lat="41.529036107531816" lon="14.896741764978653"><ele>219.5</ele><time>2026-04-25T13:04:26Z</time></trkpt><trkpt lat="41.52915321235562" lon="14.896382801563037"><ele>222.0</ele><time>2026-04-25T13:04:27Z</time></trkpt><trkpt lat="41.529264151764714" lon="14.896020377333892"><ele>227.5</ele><time>2026-04-25T13:04:28Z</time></trkpt><trkpt lat="41.52937215759899" lon="14.89566090442415"><ele>233.0</ele><time>2026-04-25T13:04:29Z</time></trkpt><trkpt lat="41.529470814156895" lon="14.895295294785482"><ele>224.5</ele><time>2026-04-25T13:04:30Z</time></trkpt><trkpt lat="41.529560077551395" lon="14.8949317245212"><ele>216.0</ele><time>2026-04-25T13:04:31Z</time></trkpt><trkpt lat="41.529645810345066" lon="14.894558486243728"><ele>216.5</ele><time>2026-04-25T13:04:32Z</time></trkpt><trkpt lat="41.52973297782313" lon="14.894184889003824"><ele>217.0</ele><time>2026-04-25T13:04:33Z</time></trkpt><trkpt lat="41.529821048450174" lon="14.89381630292242"><ele>217.0</ele><time>2026-04-25T13:04:34Z</time></trkpt><trkpt lat="41.52991562727093" lon="14.893452208601387"><ele>217.0</ele><time>2026-04-25T13:04:35Z</time></trkpt><trkpt lat="41.530000331646505" lon="14.893086237565122"><ele>218.0</ele><time>2026-04-25T13:04:36Z</time></trkpt><trkpt lat="41.53008801958844" lon="14.892714672272303"><ele>219.0</ele><time>2026-04-25T13:04:37Z</time></trkpt><trkpt lat="41.53017940865293" lon="14.892346719498885"><ele>219.5</ele><time>2026-04-25T13:04:38Z</time></trkpt><trkpt lat="41.530277590428966" lon="14.891988950941565"><ele>220.0</ele><time>2026-04-25T13:04:39Z</time></trkpt><trkpt lat="41.53039629499092" lon="14.891626709486816"><ele>220.0</ele><time>2026-04-25T13:04:40Z</time></trkpt><trkpt lat="41.530536558154054" lon="14.891298201406547"><ele>220.0</ele><time>2026-04-25T13:04:41Z</time></trkpt><trkpt lat="41.53070766596406" lon="14.890984621383375"><ele>222.0</ele><time>2026-04-25T13:04:42Z</time></trkpt><trkpt lat="41.53088749924984" lon="14.890687521070632"><ele>224.0</ele><time>2026-04-25T13:04:43Z</time></trkpt><trkpt lat="41.53108028138264" lon="14.890428306539443"><ele>223.0</ele><time>2026-04-25T13:04:44Z</time></trkpt><trkpt lat="41.53124398755014" lon="14.89014548597167"><ele>222.0</ele><time>2026-04-25T13:04:45Z</time></trkpt><trkpt lat="41.53140713129617" lon="14.889863637584721"><ele>222.0</ele><time>2026-04-25T13:04:46Z</time></trkpt><trkpt lat="41.531581566184244" lon="14.889562282203626"><ele>222.0</ele><time>2026-04-25T13:04:47Z</time></trkpt><trkpt lat="41.531750131229046" lon="14.889271054000556"><ele>222.0</ele><time>2026-04-25T13:04:48Z</time></trkpt><trkpt lat="41.53192285637426" lon="14.888975995675777"><ele>222.0</ele><time>2026-04-25T13:04:49Z</time></trkpt><trkpt lat="41.53209551064654" lon="14.88868140447229"><ele>221.5</ele><time>2026-04-25T13:04:50Z</time></trkpt><trkpt lat="41.532267020148865" lon="14.888388766550602"><ele>221.0</ele><time>2026-04-25T13:04:51Z</time></trkpt><trkpt lat="41.53243991406568" lon="14.88809376646444"><ele>221.0</ele><time>2026-04-25T13:04:52Z</time></trkpt><trkpt lat="41.53260175658812" lon="14.887780503578142"><ele>221.0</ele><time>2026-04-25T13:04:53Z</time></trkpt><trkpt lat="41.53277920612221" lon="14.88748000971148"><ele>222.5</ele><time>2026-04-25T13:04:54Z</time></trkpt><trkpt lat="41.532950742398526" lon="14.887189407721548"><ele>224.0</ele><time>2026-04-25T13:04:55Z</time></trkpt><trkpt lat="41.533127151545465" lon="14.886890198562062"><ele>224.0</ele><time>2026-04-25T13:04:56Z</time></trkpt><trkpt lat="41.53330773239825" lon="14.886610218419127"><ele>224.0</ele><time>2026-04-25T13:04:57Z</time></trkpt><trkpt lat="41.53348941178272" lon="14.886326625036268"><ele>224.0</ele><time>2026-04-25T13:04:58Z</time></trkpt><trkpt lat="41.533672787041034" lon="14.886048152852899"><ele>224.0</ele><time>2026-04-25T13:04:59Z</time></trkpt><trkpt lat="41.53386533473642" lon="14.885774017916953"><ele>224.5</ele><time>2026-04-25T13:05:00Z</time></trkpt><trkpt lat="41.53405630490467" lon="14.88550291615737"><ele>225.0</ele><time>2026-04-25T13:05:01Z</time></trkpt><trkpt lat="41.53424169515122" lon="14.885228508712004"><ele>225.0</ele><time>2026-04-25T13:05:02Z</time></trkpt><trkpt lat="41.53443100068831" lon="14.884949965157539"><ele>225.0</ele><time>2026-04-25T13:05:03Z</time></trkpt><trkpt lat="41.53462219509531" lon="14.884671737217296"><ele>225.0</ele><time>2026-04-25T13:05:04Z</time></trkpt><trkpt lat="41.53481157284329" lon="14.884392516910573"><ele>225.0</ele><time>2026-04-25T13:05:05Z</time></trkpt><trkpt lat="41.53500611938541" lon="14.88410728768568"><ele>225.0</ele><time>2026-04-25T13:05:06Z</time></trkpt><trkpt lat="41.535214015961984" lon="14.88384358898172"><ele>225.0</ele><time>2026-04-25T13:05:07Z</time></trkpt><trkpt lat="41.53540883705402" lon="14.88356060327323"><ele>225.5</ele><time>2026-04-25T13:05:08Z</time></trkpt><trkpt lat="41.53561166304606" lon="14.883265989072228"><ele>226.0</ele><time>2026-04-25T13:05:09Z</time></trkpt><trkpt lat="41.535820869898124" lon="14.882962106350899"><ele>226.0</ele><time>2026-04-25T13:05:10Z</time></trkpt><trkpt lat="41.53602129982759" lon="14.882670505784183"><ele>226.0</ele><time>2026-04-25T13:05:11Z</time></trkpt><trkpt lat="41.536195679320926" lon="14.8823906379586"><ele>227.0</ele><time>2026-04-25T13:05:12Z</time></trkpt><trkpt lat="41.53637742654704" lon="14.882150879205623"><ele>228.0</ele><time>2026-04-25T13:05:13Z</time></trkpt><trkpt lat="41.53654864897568" lon="14.881901770277729"><ele>228.0</ele><time>2026-04-25T13:05:14Z</time></trkpt><trkpt lat="41.53671252380216" lon="14.881662838900994"><ele>228.0</ele><time>2026-04-25T13:05:15Z</time></trkpt><trkpt lat="41.53687375625892" lon="14.881427760208195"><ele>228.0</ele><time>2026-04-25T13:05:16Z</time></trkpt><trkpt lat="41.537037954113494" lon="14.881193635275162"><ele>228.0</ele><time>2026-04-25T13:05:17Z</time></trkpt><trkpt lat="41.53721223577772" lon="14.880999492955736"><ele>230.0</ele><time>2026-04-25T13:05:18Z</time></trkpt><trkpt lat="41.537396653507976" lon="14.880843556824829"><ele>232.0</ele><time>2026-04-25T13:05:19Z</time></trkpt><trkpt lat="41.53758604580868" lon="14.880723902522906"><ele>234.0</ele><time>2026-04-25T13:05:20Z</time></trkpt><trkpt lat="41.53776833223167" lon="14.880625527487688"><ele>234.0</ele><time>2026-04-25T13:05:21Z</time></trkpt><trkpt lat="41.537942626752574" lon="14.88056680394004"><ele>234.0</ele><time>2026-04-25T13:05:22Z</time></trkpt><trkpt lat="41.538100470335976" lon="14.88050426278534"><ele>234.0</ele><time>2026-04-25T13:05:23Z</time></trkpt><trkpt lat="41.538243409031345" lon="14.88043946324032"><ele>234.0</ele><time>2026-04-25T13:05:24Z</time></trkpt><trkpt lat="41.538372605239374" lon="14.880379684280717"><ele>233.99999999999997</ele><time>2026-04-25T13:05:25Z</time></trkpt><trkpt lat="41.53849211530368" lon="14.88032520524403"><ele>233.99999999999997</ele><time>2026-04-25T13:05:26Z</time></trkpt><trkpt lat="41.53859488956861" lon="14.880283417626456"><ele>234.0</ele><time>2026-04-25T13:05:27Z</time></trkpt><trkpt lat="41.53867190226445" lon="14.880260974166694"><ele>234.0</ele><time>2026-04-25T13:05:28Z</time></trkpt><trkpt lat="41.538802010173356" lon="14.880284359127357"><ele>233.39999999999998</ele><time>2026-04-25T13:05:30Z</time></trkpt><trkpt lat="41.538894341033874" lon="14.88030722623968"><ele>232.79999999999998</ele><time>2026-04-25T13:05:31Z</time></trkpt><trkpt lat="41.53897658214166" lon="14.880289263040776"><ele>232.20000000000002</ele><time>2026-04-25T13:05:32Z</time></trkpt><trkpt lat="41.539049917082316" lon="14.880221313266226"><ele>231.60000000000002</ele><time>2026-04-25T13:05:33Z</time></trkpt><trkpt lat="41.53909249870818" lon="14.88011156833795"><ele>231.0</ele><time>2026-04-25T13:05:34Z</time></trkpt><trkpt lat="41.53903924903372" lon="14.879876528685326"><ele>232.20000000000002</ele><time>2026-04-25T13:05:36Z</time></trkpt><trkpt lat="41.538954893972786" lon="14.879812538817191"><ele>233.40000000000003</ele><time>2026-04-25T13:05:37Z</time></trkpt><trkpt lat="41.53885228869264" lon="14.879799383822839"><ele>234.6</ele><time>2026-04-25T13:05:38Z</time></trkpt><trkpt lat="41.538739501604624" lon="14.879815191576691"><ele>235.8</ele><time>2026-04-25T13:05:39Z</time></trkpt><trkpt lat="41.53862158150691" lon="14.879811890788144"><ele>237.0</ele><time>2026-04-25T13:05:40Z</time></trkpt><trkpt lat="41.53848676009438" lon="14.879756238303392"><ele>237.33333333333331</ele><time>2026-04-25T13:05:41Z</time></trkpt><trkpt lat="41.5383367422396" lon="14.879672370857422"><ele>237.66666666666666</ele><time>2026-04-25T13:05:42Z</time></trkpt><trkpt lat="41.538184390210816" lon="14.879613615834435"><ele>238.0</ele><time>2026-04-25T13:05:43Z</time></trkpt><trkpt lat="41.538022810853185" lon="14.87959367820873"><ele>240.33333333333331</ele><time>2026-04-25T13:05:44Z</time></trkpt><trkpt lat="41.53784424924849" lon="14.879597487051315"><ele>242.66666666666669</ele><time>2026-04-25T13:05:45Z</time></trkpt><trkpt lat="41.53765073999516" lon="14.879612108993111"><ele>245.0</ele><time>2026-04-25T13:05:46Z</time></trkpt><trkpt lat="41.537444818111496" lon="14.879626282654849"><ele>245.0</ele><time>2026-04-25T13:05:47Z</time></trkpt><trkpt lat="41.537233459899745" lon="14.879628013622368"><ele>245.0</ele><time>2026-04-25T13:05:48Z</time></trkpt><trkpt lat="41.537020597338575" lon="14.879635428028488"><ele>245.0</ele><time>2026-04-25T13:05:49Z</time></trkpt><trkpt lat="41.53679428541416" lon="14.879646887377074"><ele>246.0</ele><time>2026-04-25T13:05:50Z</time></trkpt><trkpt lat="41.53655861654402" lon="14.879656730477175"><ele>247.0</ele><time>2026-04-25T13:05:51Z</time></trkpt><trkpt lat="41.536307413574676" lon="14.879692175699802"><ele>249.0</ele><time>2026-04-25T13:05:52Z</time></trkpt><trkpt lat="41.53606252225514" lon="14.879745686662138"><ele>251.0</ele><time>2026-04-25T13:05:53Z</time></trkpt><trkpt lat="41.53582500402971" lon="14.87982995370517"><ele>251.0</ele><time>2026-04-25T13:05:54Z</time></trkpt><trkpt lat="41.53558557979581" lon="14.879944671680372"><ele>251.0</ele><time>2026-04-25T13:05:55Z</time></trkpt><trkpt lat="41.535332697494" lon="14.88009937448023"><ele>250.0</ele><time>2026-04-25T13:05:56Z</time></trkpt><trkpt lat="41.535079050702066" lon="14.880242923730302"><ele>249.0</ele><time>2026-04-25T13:05:57Z</time></trkpt><trkpt lat="41.53482170817209" lon="14.880383151856948"><ele>255.5</ele><time>2026-04-25T13:05:58Z</time></trkpt><trkpt lat="41.53455332323305" lon="14.880531186000345"><ele>262.0</ele><time>2026-04-25T13:05:59Z</time></trkpt><trkpt lat="41.53424433900863" lon="14.880676778876897"><ele>262.0</ele><time>2026-04-25T13:06:00Z</time></trkpt><trkpt lat="41.53403403473448" lon="14.880790855773844"><ele>262.0</ele><time>2026-04-25T13:06:01Z</time></trkpt><trkpt lat="41.533764041489874" lon="14.880902406229799"><ele>258.5</ele><time>2026-04-25T13:06:02Z</time></trkpt><trkpt lat="41.53349175522199" lon="14.880967595726341"><ele>255.0</ele><time>2026-04-25T13:06:03Z</time></trkpt><trkpt lat="41.53323083702791" lon="14.88101042806609"><ele>255.0</ele><time>2026-04-25T13:06:04Z</time></trkpt><trkpt lat="41.53296822705738" lon="14.881017419029206"><ele>255.0</ele><time>2026-04-25T13:06:05Z</time></trkpt><trkpt lat="41.53269642008169" lon="14.880990728432325"><ele>261.5</ele><time>2026-04-25T13:06:06Z</time></trkpt><trkpt lat="41.53244255991969" lon="14.880917066903567"><ele>268.0</ele><time>2026-04-25T13:06:07Z</time></trkpt><trkpt lat="41.532199153318935" lon="14.88081780356916"><ele>276.5</ele><time>2026-04-25T13:06:08Z</time></trkpt><trkpt lat="41.531947788584034" lon="14.880672043113883"><ele>285.0</ele><time>2026-04-25T13:06:09Z</time></trkpt><trkpt lat="41.531708950872996" lon="14.880491656845322"><ele>285.0</ele><time>2026-04-25T13:06:10Z</time></trkpt><trkpt lat="41.53147697723473" lon="14.880265580723773"><ele>285.0</ele><time>2026-04-25T13:06:11Z</time></trkpt><trkpt lat="41.531259926116064" lon="14.880000943362715"><ele>288.5</ele><time>2026-04-25T13:06:12Z</time></trkpt><trkpt lat="41.53105746301795" lon="14.879720143157916"><ele>292.0</ele><time>2026-04-25T13:06:13Z</time></trkpt><trkpt lat="41.530866478843606" lon="14.879422780337432"><ele>296.5</ele><time>2026-04-25T13:06:14Z</time></trkpt><trkpt lat="41.530698761389715" lon="14.87914683269695"><ele>301.0</ele><time>2026-04-25T13:06:15Z</time></trkpt><trkpt lat="41.530526890230526" lon="14.878860944597932"><ele>304.0</ele><time>2026-04-25T13:06:16Z</time></trkpt><trkpt lat="41.53035287457312" lon="14.878569753524674"><ele>307.0</ele><time>2026-04-25T13:06:17.012Z</time></trkpt><trkpt lat="41.530166317990826" lon="14.878259293356802"><ele>307.5</ele><time>2026-04-25T13:06:18.011Z</time></trkpt><trkpt lat="41.529988307761904" lon="14.877962800782178"><ele>308.0</ele><time>2026-04-25T13:06:19.011Z</time></trkpt><trkpt lat="41.529810318781074" lon="14.877665793315918"><ele>307.5</ele><time>2026-04-25T13:06:20.017Z</time></trkpt><trkpt lat="41.52963432891861" lon="14.877372411122364"><ele>307.0</ele><time>2026-04-25T13:06:21Z</time></trkpt><trkpt lat="41.5293684786916" lon="14.87693112151856"><ele>304.5</ele><time>2026-04-25T13:06:22Z</time></trkpt><trkpt lat="41.52917677616334" lon="14.87661095879654"><ele>302.0</ele><time>2026-04-25T13:06:23Z</time></trkpt><trkpt lat="41.52902740412413" lon="14.876363221808885"><ele>302.0</ele><time>2026-04-25T13:06:24Z</time></trkpt><trkpt lat="41.52886829732145" lon="14.876099115928426"><ele>302.0</ele><time>2026-04-25T13:06:25Z</time></trkpt><trkpt lat="41.528712861238084" lon="14.875839207584844"><ele>303.0</ele><time>2026-04-25T13:06:26Z</time></trkpt><trkpt lat="41.528570905718425" lon="14.875582477431006"><ele>304.0</ele><time>2026-04-25T13:06:27Z</time></trkpt><trkpt lat="41.52843899200401" lon="14.875296304594706"><ele>308.0</ele><time>2026-04-25T13:06:28Z</time></trkpt><trkpt lat="41.52832407701079" lon="14.874982066553175"><ele>312.0</ele><time>2026-04-25T13:06:29Z</time></trkpt><trkpt lat="41.52821882979808" lon="14.874635234366579"><ele>312.0</ele><time>2026-04-25T13:06:30Z</time></trkpt><trkpt lat="41.52811862307232" lon="14.874287866469896"><ele>312.0</ele><time>2026-04-25T13:06:31Z</time></trkpt><trkpt lat="41.528017450229854" lon="14.873930735187725"><ele>318.0</ele><time>2026-04-25T13:06:32Z</time></trkpt><trkpt lat="41.52791510727165" lon="14.873570755737447"><ele>324.0</ele><time>2026-04-25T13:06:33Z</time></trkpt><trkpt lat="41.52781271832575" lon="14.873212144885192"><ele>324.5</ele><time>2026-04-25T13:06:34Z</time></trkpt><trkpt lat="41.52770811179036" lon="14.872848010622333"><ele>325.0</ele><time>2026-04-25T13:06:35.012Z</time></trkpt><trkpt lat="41.5276049333327" lon="14.87248885142806"><ele>325.0</ele><time>2026-04-25T13:06:36.012Z</time></trkpt><trkpt lat="41.52750219067028" lon="14.87213121012164"><ele>325.0</ele><time>2026-04-25T13:06:37Z</time></trkpt><trkpt lat="41.527374178470076" lon="14.871746777241517"><ele>326.0</ele><time>2026-04-25T13:06:38Z</time></trkpt><trkpt lat="41.527269253463274" lon="14.871382091553635"><ele>327.0</ele><time>2026-04-25T13:06:39Z</time></trkpt><trkpt lat="41.52716795239041" lon="14.871022969024558"><ele>333.5</ele><time>2026-04-25T13:06:40Z</time></trkpt><trkpt lat="41.52707204866575" lon="14.87066377082786"><ele>340.0</ele><time>2026-04-25T13:06:41Z</time></trkpt><trkpt lat="41.52697113739332" lon="14.870310458824507"><ele>350.5</ele><time>2026-04-25T13:06:42Z</time></trkpt><trkpt lat="41.526870220453745" lon="14.869953644534863"><ele>361.0</ele><time>2026-04-25T13:06:43Z</time></trkpt><trkpt lat="41.52676706788882" lon="14.8695910533185"><ele>360.0</ele><time>2026-04-25T13:06:44.017Z</time></trkpt><trkpt lat="41.526665068213035" lon="14.869234124960704"><ele>359.0</ele><time>2026-04-25T13:06:45.016Z</time></trkpt><trkpt lat="41.52656377226989" lon="14.868876673089112"><ele>359.0</ele><time>2026-04-25T13:06:46.017Z</time></trkpt><trkpt lat="41.52646317981559" lon="14.868520757696832"><ele>359.0</ele><time>2026-04-25T13:06:47.014Z</time></trkpt><trkpt lat="41.526410328262976" lon="14.868232486783404"><ele>353.0</ele><time>2026-04-25T13:06:48Z</time></trkpt><trkpt lat="41.52631138422847" lon="14.867884819831035"><ele>347.0</ele><time>2026-04-25T13:06:49Z</time></trkpt><trkpt lat="41.526192981246204" lon="14.867532002614803"><ele>346.0</ele><time>2026-04-25T13:06:50Z</time></trkpt><trkpt lat="41.5260831783652" lon="14.867189267360644"><ele>345.0</ele><time>2026-04-25T13:06:51Z</time></trkpt><trkpt lat="41.5259582332943" lon="14.86677686872642"><ele>349.0</ele><time>2026-04-25T13:06:52Z</time></trkpt><trkpt lat="41.52585592882891" lon="14.866427243446479"><ele>353.0</ele><time>2026-04-25T13:06:53Z</time></trkpt><trkpt lat="41.52573068412307" lon="14.866099144075564"><ele>351.5</ele><time>2026-04-25T13:06:54Z</time></trkpt><trkpt lat="41.52557292052655" lon="14.865798493288327"><ele>350.0</ele><time>2026-04-25T13:06:54.999Z</time></trkpt><trkpt lat="41.525378510221294" lon="14.865523278859799"><ele>350.0</ele><time>2026-04-25T13:06:55.999Z</time></trkpt><trkpt lat="41.5251883116314" lon="14.86528705833323"><ele>350.0</ele><time>2026-04-25T13:06:56.999Z</time></trkpt><trkpt lat="41.52501578522923" lon="14.865063021011913"><ele>358.5</ele><time>2026-04-25T13:06:57.999Z</time></trkpt><trkpt lat="41.52487462035747" lon="14.86483121243684"><ele>367.0</ele><time>2026-04-25T13:06:58.999Z</time></trkpt><trkpt lat="41.524743586013436" lon="14.864582238257261"><ele>367.0</ele><time>2026-04-25T13:06:59.999Z</time></trkpt><trkpt lat="41.524628646913335" lon="14.864297445549813"><ele>367.0</ele><time>2026-04-25T13:07:00.999Z</time></trkpt><trkpt lat="41.52454073967114" lon="14.863973912525491"><ele>367.0</ele><time>2026-04-25T13:07:01.999Z</time></trkpt><trkpt lat="41.524473451457816" lon="14.863629212390146"><ele>367.0</ele><time>2026-04-25T13:07:03Z</time></trkpt><trkpt lat="41.52439838900937" lon="14.863270926009665"><ele>367.0</ele><time>2026-04-25T13:07:04Z</time></trkpt><trkpt lat="41.52434151540924" lon="14.862948251180061"><ele>367.0</ele><time>2026-04-25T13:07:05Z</time></trkpt><trkpt lat="41.52429709737745" lon="14.862650059314186"><ele>371.5</ele><time>2026-04-25T13:07:06Z</time></trkpt><trkpt lat="41.524266824840716" lon="14.862345204647228"><ele>376.0</ele><time>2026-04-25T13:07:07Z</time></trkpt><trkpt lat="41.52425714160136" lon="14.862039205462178"><ele>378.5</ele><time>2026-04-25T13:07:08Z</time></trkpt><trkpt lat="41.524285415733864" lon="14.861716608378318"><ele>381.0</ele><time>2026-04-25T13:07:09Z</time></trkpt><trkpt lat="41.5243570156249" lon="14.86140333030729"><ele>381.0</ele><time>2026-04-25T13:07:10Z</time></trkpt><trkpt lat="41.52447687136974" lon="14.861092461021485"><ele>381.0</ele><time>2026-04-25T13:07:11Z</time></trkpt><trkpt lat="41.52462974990952" lon="14.86079538126882"><ele>392.0</ele><time>2026-04-25T13:07:12Z</time></trkpt><trkpt lat="41.52479133431026" lon="14.860486876380236"><ele>403.0</ele><time>2026-04-25T13:07:13Z</time></trkpt><trkpt lat="41.52495644892802" lon="14.860197643458196"><ele>400.0</ele><time>2026-04-25T13:07:14Z</time></trkpt><trkpt lat="41.52509122102562" lon="14.859918874030072"><ele>397.0</ele><time>2026-04-25T13:07:15Z</time></trkpt><trkpt lat="41.52520325894812" lon="14.859621337111092"><ele>397.0</ele><time>2026-04-25T13:07:16Z</time></trkpt><trkpt lat="41.525287734454075" lon="14.859299714632037"><ele>397.0</ele><time>2026-04-25T13:07:17Z</time></trkpt><trkpt lat="41.52533030295216" lon="14.858972243041165"><ele>396.0</ele><time>2026-04-25T13:07:18Z</time></trkpt><trkpt lat="41.525324178203846" lon="14.858627390426975"><ele>395.0</ele><time>2026-04-25T13:07:19Z</time></trkpt><trkpt lat="41.525291497984036" lon="14.858295022397236"><ele>397.0</ele><time>2026-04-25T13:07:20Z</time></trkpt><trkpt lat="41.5252346651998" lon="14.857994245865044"><ele>399.0</ele><time>2026-04-25T13:07:21Z</time></trkpt><trkpt lat="41.525152533893795" lon="14.857695428349503"><ele>400.0</ele><time>2026-04-25T13:07:22Z</time></trkpt><trkpt lat="41.5250413811953" lon="14.857401191308911"><ele>401.0</ele><time>2026-04-25T13:07:23Z</time></trkpt><trkpt lat="41.52489748522605" lon="14.85710707133035"><ele>401.0</ele><time>2026-04-25T13:07:24Z</time></trkpt><trkpt lat="41.52474038197905" lon="14.85680359353078"><ele>401.0</ele><time>2026-04-25T13:07:25Z</time></trkpt><trkpt lat="41.52458675806139" lon="14.856481393789624"><ele>402.5</ele><time>2026-04-25T13:07:26Z</time></trkpt><trkpt lat="41.5244313431756" lon="14.85614638461709"><ele>404.0</ele><time>2026-04-25T13:07:27Z</time></trkpt><trkpt lat="41.524280012432854" lon="14.855799433779742"><ele>406.0</ele><time>2026-04-25T13:07:28Z</time></trkpt><trkpt lat="41.52412295302652" lon="14.855453770968639"><ele>408.0</ele><time>2026-04-25T13:07:29Z</time></trkpt><trkpt lat="41.52396414051338" lon="14.855097950924675"><ele>406.0</ele><time>2026-04-25T13:07:30Z</time></trkpt><trkpt lat="41.52380288436064" lon="14.854739550534605"><ele>404.0</ele><time>2026-04-25T13:07:31Z</time></trkpt><trkpt lat="41.52364242018783" lon="14.854377166356786"><ele>407.0</ele><time>2026-04-25T13:07:32Z</time></trkpt><trkpt lat="41.523481066756375" lon="14.854019791386035"><ele>410.0</ele><time>2026-04-25T13:07:33Z</time></trkpt><trkpt lat="41.523320194510745" lon="14.853660271645156"><ele>413.0</ele><time>2026-04-25T13:07:34Z</time></trkpt><trkpt lat="41.52315972045074" lon="14.853298685381557"><ele>416.0</ele><time>2026-04-25T13:07:35Z</time></trkpt><trkpt lat="41.52301864059787" lon="14.85296617795734"><ele>415.5</ele><time>2026-04-25T13:07:36Z</time></trkpt><trkpt lat="41.52288696857654" lon="14.852662778288858"><ele>415.0</ele><time>2026-04-25T13:07:37Z</time></trkpt><trkpt lat="41.522760848791556" lon="14.852381925943337"><ele>415.0</ele><time>2026-04-25T13:07:38Z</time></trkpt><trkpt lat="41.52264413383264" lon="14.852116573987235"><ele>415.0</ele><time>2026-04-25T13:07:39Z</time></trkpt><trkpt lat="41.52252947182371" lon="14.851871267455287"><ele>415.0</ele><time>2026-04-25T13:07:40Z</time></trkpt><trkpt lat="41.522397442361566" lon="14.851663315725718"><ele>415.6666666666667</ele><time>2026-04-25T13:07:41Z</time></trkpt><trkpt lat="41.52224042192645" lon="14.85150800735749"><ele>416.33333333333337</ele><time>2026-04-25T13:07:42Z</time></trkpt><trkpt lat="41.52204057780646" lon="14.851391969607793"><ele>417.0</ele><time>2026-04-25T13:07:43Z</time></trkpt><trkpt lat="41.52181831343224" lon="14.851319694306975"><ele>417.0</ele><time>2026-04-25T13:07:44Z</time></trkpt><trkpt lat="41.52158495533697" lon="14.851304602891451"><ele>417.0</ele><time>2026-04-25T13:07:45Z</time></trkpt><trkpt lat="41.52133905591472" lon="14.851343581474023"><ele>418.5</ele><time>2026-04-25T13:07:46Z</time></trkpt><trkpt lat="41.52107606350654" lon="14.851441743063022"><ele>420.0</ele><time>2026-04-25T13:07:47Z</time></trkpt><trkpt lat="41.52080745630519" lon="14.851560446256588"><ele>420.0</ele><time>2026-04-25T13:07:48Z</time></trkpt><trkpt lat="41.52054680669173" lon="14.851641215728558"><ele>420.0</ele><time>2026-04-25T13:07:49Z</time></trkpt><trkpt lat="41.52029223413191" lon="14.851746179715649"><ele>418.5</ele><time>2026-04-25T13:07:50Z</time></trkpt><trkpt lat="41.52004623349222" lon="14.851817965048877"><ele>417.0</ele><time>2026-04-25T13:07:51Z</time></trkpt><trkpt lat="41.519823086454146" lon="14.851891209150015"><ele>417.0</ele><time>2026-04-25T13:07:52Z</time></trkpt><trkpt lat="41.51961474886542" lon="14.851954883783334"><ele>417.0</ele><time>2026-04-25T13:07:53Z</time></trkpt><trkpt lat="41.51941488503633" lon="14.851937764818311"><ele>417.0</ele><time>2026-04-25T13:07:54Z</time></trkpt><trkpt lat="41.519209296267185" lon="14.851876754115246"><ele>426.0</ele><time>2026-04-25T13:07:55Z</time></trkpt><trkpt lat="41.518995055864465" lon="14.8517533588377"><ele>435.0</ele><time>2026-04-25T13:07:56Z</time></trkpt><trkpt lat="41.51882040875045" lon="14.851565487900324"><ele>433.0</ele><time>2026-04-25T13:07:57Z</time></trkpt><trkpt lat="41.51865705107352" lon="14.851326153380647"><ele>431.0</ele><time>2026-04-25T13:07:58Z</time></trkpt><trkpt lat="41.51847884874111" lon="14.85105069498711"><ele>435.0</ele><time>2026-04-25T13:07:59Z</time></trkpt><trkpt lat="41.51829026653757" lon="14.850766676178848"><ele>439.0</ele><time>2026-04-25T13:08:00Z</time></trkpt><trkpt lat="41.51812288745522" lon="14.850496697528447"><ele>439.0</ele><time>2026-04-25T13:08:01Z</time></trkpt><trkpt lat="41.51796018101524" lon="14.850261266932911"><ele>439.0</ele><time>2026-04-25T13:08:02Z</time></trkpt><trkpt lat="41.51780817569085" lon="14.85003998627766"><ele>439.0</ele><time>2026-04-25T13:08:03Z</time></trkpt><trkpt lat="41.51766904913461" lon="14.849814552591997"><ele>439.0</ele><time>2026-04-25T13:08:04Z</time></trkpt><trkpt lat="41.517501774741525" lon="14.849587857296827"><ele>439.0</ele><time>2026-04-25T13:08:05Z</time></trkpt><trkpt lat="41.517302499988524" lon="14.849364487187925"><ele>439.0</ele><time>2026-04-25T13:08:06Z</time></trkpt><trkpt lat="41.51709321168921" lon="14.849111786502158"><ele>441.0</ele><time>2026-04-25T13:08:07Z</time></trkpt><trkpt lat="41.51686023310603" lon="14.848874406346845"><ele>443.0</ele><time>2026-04-25T13:08:08Z</time></trkpt><trkpt lat="41.516614640900244" lon="14.848656165243154"><ele>447.0</ele><time>2026-04-25T13:08:09Z</time></trkpt><trkpt lat="41.516366993359725" lon="14.848443154119524"><ele>451.0</ele><time>2026-04-25T13:08:10Z</time></trkpt><trkpt lat="41.51611152626202" lon="14.848232713174388"><ele>451.0</ele><time>2026-04-25T13:08:11Z</time></trkpt><trkpt lat="41.515861061623404" lon="14.848038586674877"><ele>451.0</ele><time>2026-04-25T13:08:12Z</time></trkpt><trkpt lat="41.51562297009426" lon="14.847872934963132"><ele>455.5</ele><time>2026-04-25T13:08:13Z</time></trkpt><trkpt lat="41.51538056667252" lon="14.847723955134008"><ele>460.0</ele><time>2026-04-25T13:08:14Z</time></trkpt><trkpt lat="41.51514341579325" lon="14.847571406223997"><ele>460.0</ele><time>2026-04-25T13:08:15Z</time></trkpt><trkpt lat="41.514909176770516" lon="14.847404885080486"><ele>460.0</ele><time>2026-04-25T13:08:16Z</time></trkpt><trkpt lat="41.514685489896245" lon="14.847214932991514"><ele>463.0</ele><time>2026-04-25T13:08:17Z</time></trkpt><trkpt lat="41.51446677047432" lon="14.846990320852663"><ele>466.0</ele><time>2026-04-25T13:08:18Z</time></trkpt><trkpt lat="41.51424881585965" lon="14.846747022254903"><ele>466.0</ele><time>2026-04-25T13:08:19Z</time></trkpt><trkpt lat="41.51403324905687" lon="14.846499808151115"><ele>466.0</ele><time>2026-04-25T13:08:20Z</time></trkpt><trkpt lat="41.51382700279091" lon="14.846233924433992"><ele>469.0</ele><time>2026-04-25T13:08:21Z</time></trkpt><trkpt lat="41.51362467499938" lon="14.845987718846459"><ele>472.0</ele><time>2026-04-25T13:08:22Z</time></trkpt><trkpt lat="41.51343595827248" lon="14.845752776512398"><ele>472.0</ele><time>2026-04-25T13:08:23Z</time></trkpt><trkpt lat="41.513250006179824" lon="14.845523318135749"><ele>472.0</ele><time>2026-04-25T13:08:24Z</time></trkpt><trkpt lat="41.513075983013294" lon="14.845256164545145"><ele>475.5</ele><time>2026-04-25T13:08:25Z</time></trkpt><trkpt lat="41.51294310062824" lon="14.844964549176602"><ele>479.0</ele><time>2026-04-25T13:08:26Z</time></trkpt><trkpt lat="41.51283957686298" lon="14.844631089328006"><ele>479.0</ele><time>2026-04-25T13:08:27Z</time></trkpt><trkpt lat="41.5127614803172" lon="14.844285819825117"><ele>479.0</ele><time>2026-04-25T13:08:28Z</time></trkpt><trkpt lat="41.51270527290514" lon="14.843918001093535"><ele>479.0</ele><time>2026-04-25T13:08:29Z</time></trkpt><trkpt lat="41.51264819580675" lon="14.843549210480493"><ele>479.0</ele><time>2026-04-25T13:08:30Z</time></trkpt><trkpt lat="41.51255065785984" lon="14.84321102894629"><ele>481.0</ele><time>2026-04-25T13:08:31Z</time></trkpt><trkpt lat="41.51241073009572" lon="14.84291109894348"><ele>483.0</ele><time>2026-04-25T13:08:32Z</time></trkpt><trkpt lat="41.51223887916825" lon="14.842648530206102"><ele>482.0</ele><time>2026-04-25T13:08:33Z</time></trkpt><trkpt lat="41.51203123827123" lon="14.842416638467636"><ele>481.0</ele><time>2026-04-25T13:08:34Z</time></trkpt><trkpt lat="41.51180165741927" lon="14.842214222002205"><ele>481.0</ele><time>2026-04-25T13:08:35Z</time></trkpt><trkpt lat="41.51153937311891" lon="14.842049778388642"><ele>481.0</ele><time>2026-04-25T13:08:36Z</time></trkpt><trkpt lat="41.511268347945574" lon="14.84190820115045"><ele>488.5</ele><time>2026-04-25T13:08:37Z</time></trkpt><trkpt lat="41.51098212813342" lon="14.841797702321642"><ele>496.0</ele><time>2026-04-25T13:08:38Z</time></trkpt><trkpt lat="41.510710489544124" lon="14.841661767230441"><ele>496.0</ele><time>2026-04-25T13:08:39Z</time></trkpt><trkpt lat="41.510437198602894" lon="14.841525227448"><ele>496.0</ele><time>2026-04-25T13:08:40Z</time></trkpt><trkpt lat="41.51015831098539" lon="14.84138999444114"><ele>496.0</ele><time>2026-04-25T13:08:41Z</time></trkpt><trkpt lat="41.50987869221205" lon="14.841255482411157"><ele>496.0</ele><time>2026-04-25T13:08:42Z</time></trkpt><trkpt lat="41.50959569768148" lon="14.841117876122544"><ele>492.0</ele><time>2026-04-25T13:08:43Z</time></trkpt><trkpt lat="41.50931381339422" lon="14.840985284505729"><ele>488.0</ele><time>2026-04-25T13:08:44Z</time></trkpt><trkpt lat="41.50902606019266" lon="14.8408463692641"><ele>495.0</ele><time>2026-04-25T13:08:45Z</time></trkpt><trkpt lat="41.508743472316326" lon="14.84070366623135"><ele>502.0</ele><time>2026-04-25T13:08:46Z</time></trkpt><trkpt lat="41.50846775663196" lon="14.840558992945681"><ele>502.0</ele><time>2026-04-25T13:08:47Z</time></trkpt><trkpt lat="41.508192521192484" lon="14.84042134910461"><ele>502.0</ele><time>2026-04-25T13:08:48Z</time></trkpt><trkpt lat="41.50791402711979" lon="14.840309202440578"><ele>502.5</ele><time>2026-04-25T13:08:49Z</time></trkpt><trkpt lat="41.50765073672811" lon="14.840218493223533"><ele>503.0</ele><time>2026-04-25T13:08:50Z</time></trkpt><trkpt lat="41.50737113570152" lon="14.84018923344418"><ele>503.0</ele><time>2026-04-25T13:08:51Z</time></trkpt><trkpt lat="41.507103516110064" lon="14.840198289659536"><ele>503.0</ele><time>2026-04-25T13:08:52Z</time></trkpt><trkpt lat="41.5068836453839" lon="14.840247784251018"><ele>505.0</ele><time>2026-04-25T13:08:53Z</time></trkpt><trkpt lat="41.50667932100049" lon="14.840298705300535"><ele>507.0</ele><time>2026-04-25T13:08:54Z</time></trkpt><trkpt lat="41.50649348779209" lon="14.840359806978404"><ele>509.0</ele><time>2026-04-25T13:08:55Z</time></trkpt><trkpt lat="41.50633613804891" lon="14.840405582204069"><ele>512.3333333333333</ele><time>2026-04-25T13:08:56Z</time></trkpt><trkpt lat="41.506184135783116" lon="14.840453865019086"><ele>515.6666666666666</ele><time>2026-04-25T13:08:57Z</time></trkpt><trkpt lat="41.50604824514407" lon="14.840504742160983"><ele>519.0</ele><time>2026-04-25T13:08:58Z</time></trkpt><trkpt lat="41.50588419221638" lon="14.840578145308413"><ele>519.0</ele><time>2026-04-25T13:08:58.999Z</time></trkpt><trkpt lat="41.505686012387606" lon="14.8406527641152"><ele>519.0</ele><time>2026-04-25T13:08:59.999Z</time></trkpt><trkpt lat="41.50545711871023" lon="14.84071350875974"><ele>519.0</ele><time>2026-04-25T13:09:00.999Z</time></trkpt><trkpt lat="41.505227381812446" lon="14.840779565607207"><ele>519.5</ele><time>2026-04-25T13:09:01.999Z</time></trkpt><trkpt lat="41.504994115406156" lon="14.84084944872141"><ele>520.0</ele><time>2026-04-25T13:09:02.999Z</time></trkpt><trkpt lat="41.50476103373662" lon="14.84092144801166"><ele>510.0</ele><time>2026-04-25T13:09:03.999Z</time></trkpt><trkpt lat="41.504504155289766" lon="14.841007017026493"><ele>500.0</ele><time>2026-04-25T13:09:04.999Z</time></trkpt><trkpt lat="41.50421933758595" lon="14.841080710357373"><ele>500.0</ele><time>2026-04-25T13:09:05.999Z</time></trkpt><trkpt lat="41.50394711436058" lon="14.841161863469805"><ele>500.0</ele><time>2026-04-25T13:09:06.999Z</time></trkpt><trkpt lat="41.503680239592335" lon="14.84124823338"><ele>508.0</ele><time>2026-04-25T13:09:07.999Z</time></trkpt><trkpt lat="41.503409828740146" lon="14.84132969297072"><ele>516.0</ele><time>2026-04-25T13:09:09Z</time></trkpt><trkpt lat="41.5031584202489" lon="14.841325842706937"><ele>516.0</ele><time>2026-04-25T13:09:10Z</time></trkpt><trkpt lat="41.502925895030685" lon="14.84139178582845"><ele>516.0</ele><time>2026-04-25T13:09:11Z</time></trkpt><trkpt lat="41.50269990518066" lon="14.841430423597165"><ele>526.0</ele><time>2026-04-25T13:09:12Z</time></trkpt><trkpt lat="41.502469214934536" lon="14.841435783362751"><ele>536.0</ele><time>2026-04-25T13:09:13Z</time></trkpt><trkpt lat="41.50223389003046" lon="14.841412687295685"><ele>544.0</ele><time>2026-04-25T13:09:14Z</time></trkpt><trkpt lat="41.50199370823929" lon="14.84135214105298"><ele>552.0</ele><time>2026-04-25T13:09:15Z</time></trkpt><trkpt lat="41.501752455413346" lon="14.841256557660953"><ele>552.0</ele><time>2026-04-25T13:09:16Z</time></trkpt><trkpt lat="41.50153308561125" lon="14.84113452961756"><ele>552.0</ele><time>2026-04-25T13:09:17Z</time></trkpt><trkpt lat="41.50131570879327" lon="14.840967992742657"><ele>553.5</ele><time>2026-04-25T13:09:18Z</time></trkpt><trkpt lat="41.501073440663326" lon="14.840772645402717"><ele>555.0</ele><time>2026-04-25T13:09:19Z</time></trkpt><trkpt lat="41.50082045026038" lon="14.840569631181973"><ele>555.0</ele><time>2026-04-25T13:09:20Z</time></trkpt><trkpt lat="41.5005652491833" lon="14.840387379231975"><ele>555.0</ele><time>2026-04-25T13:09:21Z</time></trkpt><trkpt lat="41.500288227531506" lon="14.840247477606068"><ele>552.0</ele><time>2026-04-25T13:09:22Z</time></trkpt><trkpt lat="41.50001082493545" lon="14.84011444512003"><ele>549.0</ele><time>2026-04-25T13:09:23Z</time></trkpt><trkpt lat="41.499722218844305" lon="14.840008349853273"><ele>553.0</ele><time>2026-04-25T13:09:24Z</time></trkpt><trkpt lat="41.49943624219871" lon="14.839941089444956"><ele>557.0</ele><time>2026-04-25T13:09:25Z</time></trkpt><trkpt lat="41.499148380755535" lon="14.839918422471214"><ele>557.0</ele><time>2026-04-25T13:09:26Z</time></trkpt><trkpt lat="41.498845526121244" lon="14.83993796085592"><ele>557.0</ele><time>2026-04-25T13:09:27Z</time></trkpt><trkpt lat="41.498531139438256" lon="14.839978845483007"><ele>559.5</ele><time>2026-04-25T13:09:28Z</time></trkpt><trkpt lat="41.498208125725995" lon="14.840076231117513"><ele>562.0</ele><time>2026-04-25T13:09:29Z</time></trkpt><trkpt lat="41.497894702386" lon="14.84012428331297"><ele>562.0</ele><time>2026-04-25T13:09:30Z</time></trkpt><trkpt lat="41.49760280750253" lon="14.84014716164655"><ele>562.0</ele><time>2026-04-25T13:09:31Z</time></trkpt><trkpt lat="41.4973193932558" lon="14.84011183717184"><ele>564.0</ele><time>2026-04-25T13:09:32Z</time></trkpt><trkpt lat="41.49703586080519" lon="14.840066392539912"><ele>566.0</ele><time>2026-04-25T13:09:33Z</time></trkpt><trkpt lat="41.49673979971641" lon="14.839979510923248"><ele>566.0</ele><time>2026-04-25T13:09:34Z</time></trkpt><trkpt lat="41.496449227764884" lon="14.839857086342962"><ele>566.0</ele><time>2026-04-25T13:09:35Z</time></trkpt><trkpt lat="41.496173739366505" lon="14.839698947643877"><ele>572.5</ele><time>2026-04-25T13:09:36Z</time></trkpt><trkpt lat="41.49589412542803" lon="14.839521295690444"><ele>579.0</ele><time>2026-04-25T13:09:37Z</time></trkpt><trkpt lat="41.49560409104042" lon="14.839355334472632"><ele>580.0</ele><time>2026-04-25T13:09:38Z</time></trkpt><trkpt lat="41.495320786152234" lon="14.839163655227662"><ele>581.0</ele><time>2026-04-25T13:09:39Z</time></trkpt><trkpt lat="41.495042623393125" lon="14.838979039740384"><ele>581.0</ele><time>2026-04-25T13:09:40Z</time></trkpt><trkpt lat="41.49476089099716" lon="14.838808299805308"><ele>581.0</ele><time>2026-04-25T13:09:41Z</time></trkpt><trkpt lat="41.494494807321246" lon="14.838641916710552"><ele>582.0</ele><time>2026-04-25T13:09:42Z</time></trkpt><trkpt lat="41.49424597824527" lon="14.838489729098681"><ele>583.0</ele><time>2026-04-25T13:09:43Z</time></trkpt><trkpt lat="41.493987234425624" lon="14.838362581164528"><ele>584.0</ele><time>2026-04-25T13:09:44Z</time></trkpt><trkpt lat="41.49371376634392" lon="14.838271491520189"><ele>585.0</ele><time>2026-04-25T13:09:45Z</time></trkpt><trkpt lat="41.493433595498196" lon="14.838217227740833"><ele>585.0</ele><time>2026-04-25T13:09:46Z</time></trkpt><trkpt lat="41.49314552086484" lon="14.838195142754206"><ele>585.0</ele><time>2026-04-25T13:09:47Z</time></trkpt><trkpt lat="41.49285557023501" lon="14.838202636774618"><ele>587.0</ele><time>2026-04-25T13:09:48Z</time></trkpt><trkpt lat="41.49255950433767" lon="14.838244618118766"><ele>589.0</ele><time>2026-04-25T13:09:49Z</time></trkpt><trkpt lat="41.49226600422782" lon="14.838321261953272"><ele>588.5</ele><time>2026-04-25T13:09:50Z</time></trkpt><trkpt lat="41.491973441679036" lon="14.838431450054788"><ele>588.0</ele><time>2026-04-25T13:09:51Z</time></trkpt><trkpt lat="41.491679110250125" lon="14.83853366171124"><ele>592.0</ele><time>2026-04-25T13:09:52Z</time></trkpt><trkpt lat="41.49137830819556" lon="14.83861904472137"><ele>596.0</ele><time>2026-04-25T13:09:53Z</time></trkpt><trkpt lat="41.4910841396596" lon="14.838706355646133"><ele>596.0</ele><time>2026-04-25T13:09:54Z</time></trkpt><trkpt lat="41.49078807135375" lon="14.838791457034553"><ele>596.0</ele><time>2026-04-25T13:09:55Z</time></trkpt><trkpt lat="41.490489536220224" lon="14.838875359176136"><ele>595.5</ele><time>2026-04-25T13:09:56Z</time></trkpt><trkpt lat="41.490184818517925" lon="14.838964028436102"><ele>595.0</ele><time>2026-04-25T13:09:57Z</time></trkpt><trkpt lat="41.4898813489425" lon="14.83905667949644"><ele>598.0</ele><time>2026-04-25T13:09:58Z</time></trkpt><trkpt lat="41.489582725166464" lon="14.83914826503271"><ele>601.0</ele><time>2026-04-25T13:09:59Z</time></trkpt><trkpt lat="41.48928487249492" lon="14.839234442733792"><ele>607.5</ele><time>2026-04-25T13:10:00Z</time></trkpt><trkpt lat="41.48900088916831" lon="14.839318438905542"><ele>614.0</ele><time>2026-04-25T13:10:01Z</time></trkpt><trkpt lat="41.48875037525785" lon="14.839392229426076"><ele>615.5</ele><time>2026-04-25T13:10:02Z</time></trkpt><trkpt lat="41.48852551171187" lon="14.839463260561761"><ele>617.0</ele><time>2026-04-25T13:10:03Z</time></trkpt><trkpt lat="41.48830899069029" lon="14.839550032965738"><ele>617.0</ele><time>2026-04-25T13:10:04Z</time></trkpt><trkpt lat="41.488125050270035" lon="14.839640553260564"><ele>617.0</ele><time>2026-04-25T13:10:05Z</time></trkpt><trkpt lat="41.48795083384634" lon="14.83973481599063"><ele>617.0</ele><time>2026-04-25T13:10:06Z</time></trkpt><trkpt lat="41.48779499832881" lon="14.839816410819436"><ele>617.3333333333333</ele><time>2026-04-25T13:10:07Z</time></trkpt><trkpt lat="41.48764151259374" lon="14.839880591689292"><ele>617.6666666666666</ele><time>2026-04-25T13:10:08Z</time></trkpt><trkpt lat="41.48748129275399" lon="14.839948587740158"><ele>618.0</ele><time>2026-04-25T13:10:09Z</time></trkpt><trkpt lat="41.487315190028475" lon="14.840028092521472"><ele>618.0</ele><time>2026-04-25T13:10:10Z</time></trkpt><trkpt lat="41.48714110879191" lon="14.840118945810437"><ele>618.0</ele><time>2026-04-25T13:10:11Z</time></trkpt><trkpt lat="41.486947979476724" lon="14.840221405282653"><ele>618.0</ele><time>2026-04-25T13:10:12Z</time></trkpt><trkpt lat="41.48671695004001" lon="14.84034391008264"><ele>624.5</ele><time>2026-04-25T13:10:13Z</time></trkpt><trkpt lat="41.486476745472224" lon="14.84046182467768"><ele>631.0</ele><time>2026-04-25T13:10:14Z</time></trkpt><trkpt lat="41.486232950941364" lon="14.840585097473225"><ele>631.0</ele><time>2026-04-25T13:10:15Z</time></trkpt><trkpt lat="41.48597218671929" lon="14.840703435611545"><ele>631.0</ele><time>2026-04-25T13:10:16Z</time></trkpt><trkpt lat="41.48570450751185" lon="14.840802971602832"><ele>630.5</ele><time>2026-04-25T13:10:17Z</time></trkpt><trkpt lat="41.48541558613172" lon="14.840883318836376"><ele>630.0</ele><time>2026-04-25T13:10:18Z</time></trkpt><trkpt lat="41.48511421419675" lon="14.840938788083017"><ele>630.0</ele><time>2026-04-25T13:10:19Z</time></trkpt><trkpt lat="41.48481763415244" lon="14.840964877092548"><ele>630.0</ele><time>2026-04-25T13:10:20Z</time></trkpt><trkpt lat="41.48454504257292" lon="14.840964589537109"><ele>629.0</ele><time>2026-04-25T13:10:21Z</time></trkpt><trkpt lat="41.4842753357401" lon="14.840937043807195"><ele>628.0</ele><time>2026-04-25T13:10:22Z</time></trkpt><trkpt lat="41.483993931619935" lon="14.840893543344823"><ele>627.5</ele><time>2026-04-25T13:10:23Z</time></trkpt><trkpt lat="41.48371057461003" lon="14.840821015560945"><ele>627.0</ele><time>2026-04-25T13:10:24Z</time></trkpt><trkpt lat="41.483427158221865" lon="14.840727160132438"><ele>627.0</ele><time>2026-04-25T13:10:25Z</time></trkpt><trkpt lat="41.483142685959756" lon="14.840608478839904"><ele>627.0</ele><time>2026-04-25T13:10:26Z</time></trkpt><trkpt lat="41.48285824783587" lon="14.840461471344046"><ele>629.0</ele><time>2026-04-25T13:10:27Z</time></trkpt><trkpt lat="41.48258204500567" lon="14.840285943272134"><ele>631.0</ele><time>2026-04-25T13:10:28Z</time></trkpt><trkpt lat="41.482308987471804" lon="14.8400873994151"><ele>633.0</ele><time>2026-04-25T13:10:29Z</time></trkpt><trkpt lat="41.48203550217149" lon="14.839882438527724"><ele>635.0</ele><time>2026-04-25T13:10:30Z</time></trkpt><trkpt lat="41.4817647152584" lon="14.839690715253962"><ele>635.0</ele><time>2026-04-25T13:10:31Z</time></trkpt><trkpt lat="41.48150204725824" lon="14.839511136910989"><ele>635.0</ele><time>2026-04-25T13:10:32Z</time></trkpt><trkpt lat="41.481240953319904" lon="14.83933183935902"><ele>638.5</ele><time>2026-04-25T13:10:33Z</time></trkpt><trkpt lat="41.48097658975999" lon="14.839148826029858"><ele>642.0</ele><time>2026-04-25T13:10:34Z</time></trkpt><trkpt lat="41.48071135148858" lon="14.838966399407544"><ele>642.0</ele><time>2026-04-25T13:10:35Z</time></trkpt><trkpt lat="41.4804519383246" lon="14.838781309523778"><ele>642.0</ele><time>2026-04-25T13:10:36Z</time></trkpt><trkpt lat="41.48018649156351" lon="14.838600583429775"><ele>644.5</ele><time>2026-04-25T13:10:37Z</time></trkpt><trkpt lat="41.47991307088379" lon="14.83841244963628"><ele>647.0</ele><time>2026-04-25T13:10:38Z</time></trkpt><trkpt lat="41.47963797004867" lon="14.838228670364533"><ele>642.5</ele><time>2026-04-25T13:10:39Z</time></trkpt><trkpt lat="41.47936082920897" lon="14.838043487323057"><ele>638.0</ele><time>2026-04-25T13:10:40Z</time></trkpt><trkpt lat="41.47909469623604" lon="14.837873203405557"><ele>638.0</ele><time>2026-04-25T13:10:41Z</time></trkpt><trkpt lat="41.47882254654363" lon="14.837674048027937"><ele>638.0</ele><time>2026-04-25T13:10:42Z</time></trkpt><trkpt lat="41.478554732946556" lon="14.837482059781284"><ele>639.5</ele><time>2026-04-25T13:10:43Z</time></trkpt><trkpt lat="41.47830383192656" lon="14.83730778159914"><ele>641.0</ele><time>2026-04-25T13:10:44Z</time></trkpt><trkpt lat="41.47806501636661" lon="14.837141268288853"><ele>640.0</ele><time>2026-04-25T13:10:45Z</time></trkpt><trkpt lat="41.477845808334386" lon="14.836984574810677"><ele>639.0</ele><time>2026-04-25T13:10:46Z</time></trkpt><trkpt lat="41.47762388225868" lon="14.83684589979027"><ele>644.0</ele><time>2026-04-25T13:10:47Z</time></trkpt><trkpt lat="41.47738685090904" lon="14.836746344088354"><ele>649.0</ele><time>2026-04-25T13:10:48Z</time></trkpt><trkpt lat="41.477129504907204" lon="14.83667379021859"><ele>650.0</ele><time>2026-04-25T13:10:49Z</time></trkpt><trkpt lat="41.47686240478063" lon="14.836654924654074"><ele>651.0</ele><time>2026-04-25T13:10:50Z</time></trkpt><trkpt lat="41.47659979352591" lon="14.836684525376974"><ele>651.0</ele><time>2026-04-25T13:10:51Z</time></trkpt><trkpt lat="41.476334744532885" lon="14.8367865541927"><ele>651.0</ele><time>2026-04-25T13:10:52Z</time></trkpt><trkpt lat="41.476070913567604" lon="14.836930197860946"><ele>645.0</ele><time>2026-04-25T13:10:53Z</time></trkpt><trkpt lat="41.47579525971218" lon="14.837062514478994"><ele>639.0</ele><time>2026-04-25T13:10:54Z</time></trkpt><trkpt lat="41.47554315551439" lon="14.837183340334212"><ele>641.0</ele><time>2026-04-25T13:10:55Z</time></trkpt><trkpt lat="41.47529802918809" lon="14.837297623272358"><ele>643.0</ele><time>2026-04-25T13:10:56Z</time></trkpt><trkpt lat="41.47506033262652" lon="14.837409361451325"><ele>643.0</ele><time>2026-04-25T13:10:57Z</time></trkpt><trkpt lat="41.47481658223067" lon="14.837523743919636"><ele>643.0</ele><time>2026-04-25T13:10:58Z</time></trkpt><trkpt lat="41.47458134425566" lon="14.837632010584164"><ele>643.0</ele><time>2026-04-25T13:10:59Z</time></trkpt><trkpt lat="41.47434373518513" lon="14.837742224826387"><ele>643.0</ele><time>2026-04-25T13:11:00Z</time></trkpt><trkpt lat="41.47410843408983" lon="14.83785430900761"><ele>643.0</ele><time>2026-04-25T13:11:01Z</time></trkpt><trkpt lat="41.473875290906925" lon="14.837964293856128"><ele>643.0</ele><time>2026-04-25T13:11:02Z</time></trkpt><trkpt lat="41.47364290744508" lon="14.838078311418062"><ele>644.0</ele><time>2026-04-25T13:11:03Z</time></trkpt><trkpt lat="41.473412458423155" lon="14.838188555087655"><ele>645.0</ele><time>2026-04-25T13:11:04Z</time></trkpt><trkpt lat="41.4731740181086" lon="14.838296626550722"><ele>645.0</ele><time>2026-04-25T13:11:05Z</time></trkpt><trkpt lat="41.47294179742063" lon="14.838402977180408"><ele>645.0</ele><time>2026-04-25T13:11:06Z</time></trkpt><trkpt lat="41.47271083897526" lon="14.838520913474445"><ele>646.0</ele><time>2026-04-25T13:11:07Z</time></trkpt><trkpt lat="41.472474949454906" lon="14.838635201447097"><ele>647.0</ele><time>2026-04-25T13:11:08Z</time></trkpt><trkpt lat="41.47225262372314" lon="14.83874403676749"><ele>646.0</ele><time>2026-04-25T13:11:09Z</time></trkpt><trkpt lat="41.47202480800437" lon="14.838856825348136"><ele>645.0</ele><time>2026-04-25T13:11:10Z</time></trkpt><trkpt lat="41.471796271493794" lon="14.838966706857558"><ele>645.0</ele><time>2026-04-25T13:11:11Z</time></trkpt><trkpt lat="41.471581832200464" lon="14.839068583666373"><ele>645.0</ele><time>2026-04-25T13:11:12Z</time></trkpt><trkpt lat="41.471377088803465" lon="14.8391612283223"><ele>645.0</ele><time>2026-04-25T13:11:13Z</time></trkpt><trkpt lat="41.47118625334647" lon="14.839243654376485"><ele>646.6666666666666</ele><time>2026-04-25T13:11:14Z</time></trkpt><trkpt lat="41.471010100069535" lon="14.839342956952287"><ele>648.3333333333333</ele><time>2026-04-25T13:11:15.001Z</time></trkpt><trkpt lat="41.47083930374927" lon="14.839472548081813"><ele>650.0</ele><time>2026-04-25T13:11:16.001Z</time></trkpt><trkpt lat="41.47069799110804" lon="14.839607676935099"><ele>650.0</ele><time>2026-04-25T13:11:17.001Z</time></trkpt><trkpt lat="41.47057451933336" lon="14.839736630830368"><ele>650.0</ele><time>2026-04-25T13:11:18.001Z</time></trkpt><trkpt lat="41.470458266811654" lon="14.83987646454688"><ele>650.0</ele><time>2026-04-25T13:11:19.001Z</time></trkpt><trkpt lat="41.47033051952194" lon="14.84000332695886"><ele>653.0</ele><time>2026-04-25T13:11:20.001Z</time></trkpt><trkpt lat="41.47020217053122" lon="14.840146539291396"><ele>656.0</ele><time>2026-04-25T13:11:21.001Z</time></trkpt><trkpt lat="41.470055421343055" lon="14.84023045401897"><ele>659.0</ele><time>2026-04-25T13:11:22.001Z</time></trkpt><trkpt lat="41.469901561046214" lon="14.840303095078399"><ele>659.0</ele><time>2026-04-25T13:11:23.001Z</time></trkpt><trkpt lat="41.469748183003276" lon="14.84034105406297"><ele>659.0</ele><time>2026-04-25T13:11:24.001Z</time></trkpt><trkpt lat="41.46958520280102" lon="14.840348831417426"><ele>659.0</ele><time>2026-04-25T13:11:25.001Z</time></trkpt><trkpt lat="41.4694142393408" lon="14.840352511210682"><ele>661.0</ele><time>2026-04-25T13:11:26.001Z</time></trkpt><trkpt lat="41.46923395043561" lon="14.840303775856778"><ele>663.0</ele><time>2026-04-25T13:11:27.001Z</time></trkpt><trkpt lat="41.46905128258874" lon="14.840264863760261"><ele>665.0</ele><time>2026-04-25T13:11:28.001Z</time></trkpt><trkpt lat="41.46887806980444" lon="14.840232458598694"><ele>664.3333333333333</ele><time>2026-04-25T13:11:29.001Z</time></trkpt><trkpt lat="41.4687051162032" lon="14.840201964848328"><ele>663.6666666666666</ele><time>2026-04-25T13:11:30.001Z</time></trkpt><trkpt lat="41.46854693104596" lon="14.840169684786593"><ele>663.0</ele><time>2026-04-25T13:11:31.001Z</time></trkpt><trkpt lat="41.46839605695396" lon="14.840143924193768"><ele>660.25</ele><time>2026-04-25T13:11:32.001Z</time></trkpt><trkpt lat="41.4682587187692" lon="14.840113899181578"><ele>657.5</ele><time>2026-04-25T13:11:33.001Z</time></trkpt><trkpt lat="41.46812501430955" lon="14.840071526868803"><ele>654.75</ele><time>2026-04-25T13:11:34.001Z</time></trkpt><trkpt lat="41.467994827552815" lon="14.840061223807037"><ele>652.0</ele><time>2026-04-25T13:11:35.001Z</time></trkpt><trkpt lat="41.46785912234336" lon="14.840107715727369"><ele>653.0</ele><time>2026-04-25T13:11:36.001Z</time></trkpt><trkpt lat="41.4677278447674" lon="14.840223303434191"><ele>654.0</ele><time>2026-04-25T13:11:37.001Z</time></trkpt><trkpt lat="41.46760613406515" lon="14.840361503471824"><ele>655.0</ele><time>2026-04-25T13:11:38.001Z</time></trkpt><trkpt lat="41.46749577998044" lon="14.840534960369668"><ele>655.0</ele><time>2026-04-25T13:11:39.001Z</time></trkpt><trkpt lat="41.467367360908185" lon="14.840693385734145"><ele>655.0</ele><time>2026-04-25T13:11:40.001Z</time></trkpt><trkpt lat="41.467236250201154" lon="14.840847718831167"><ele>655.0</ele><time>2026-04-25T13:11:41.001Z</time></trkpt><trkpt lat="41.46709425464699" lon="14.840990990290049"><ele>656.3333333333334</ele><time>2026-04-25T13:11:42Z</time></trkpt><trkpt lat="41.4669339601712" lon="14.841112760829153"><ele>657.6666666666666</ele><time>2026-04-25T13:11:43Z</time></trkpt><trkpt lat="41.46675023106514" lon="14.841204106931695"><ele>659.0</ele><time>2026-04-25T13:11:44Z</time></trkpt><trkpt lat="41.466553314956776" lon="14.841268049065956"><ele>659.0</ele><time>2026-04-25T13:11:45Z</time></trkpt><trkpt lat="41.466339074656865" lon="14.841312961119504"><ele>659.0</ele><time>2026-04-25T13:11:46Z</time></trkpt><trkpt lat="41.466104945330734" lon="14.84129974988422"><ele>656.5</ele><time>2026-04-25T13:11:47Z</time></trkpt><trkpt lat="41.465835889720445" lon="14.84130224890327"><ele>654.0</ele><time>2026-04-25T13:11:48Z</time></trkpt><trkpt lat="41.465559499771764" lon="14.841309193378281"><ele>654.5</ele><time>2026-04-25T13:11:49Z</time></trkpt><trkpt lat="41.46528997359824" lon="14.841315965391011"><ele>655.0</ele><time>2026-04-25T13:11:50Z</time></trkpt><trkpt lat="41.465016343495684" lon="14.841320807617869"><ele>655.0</ele><time>2026-04-25T13:11:51Z</time></trkpt><trkpt lat="41.46472755274546" lon="14.841325855673496"><ele>655.0</ele><time>2026-04-25T13:11:52Z</time></trkpt><trkpt lat="41.464415737689" lon="14.8413318448858"><ele>654.5</ele><time>2026-04-25T13:11:53Z</time></trkpt><trkpt lat="41.4641045693939" lon="14.841352319737133"><ele>654.0</ele><time>2026-04-25T13:11:54Z</time></trkpt><trkpt lat="41.463798863413345" lon="14.84134733800469"><ele>656.5</ele><time>2026-04-25T13:11:55Z</time></trkpt><trkpt lat="41.463510696500165" lon="14.841352929303625"><ele>659.0</ele><time>2026-04-25T13:11:56Z</time></trkpt><trkpt lat="41.46323839724021" lon="14.841362975722143"><ele>659.0</ele><time>2026-04-25T13:11:57Z</time></trkpt><trkpt lat="41.46296154252921" lon="14.841386467899538"><ele>659.0</ele><time>2026-04-25T13:11:58Z</time></trkpt><trkpt lat="41.462682353609274" lon="14.841447311057433"><ele>658.5</ele><time>2026-04-25T13:11:59Z</time></trkpt><trkpt lat="41.4623947433226" lon="14.841542981602377"><ele>658.0</ele><time>2026-04-25T13:12:00Z</time></trkpt><trkpt lat="41.46210876532907" lon="14.841642016988242"><ele>654.5</ele><time>2026-04-25T13:12:01Z</time></trkpt><trkpt lat="41.46181526004404" lon="14.841734510120382"><ele>651.0</ele><time>2026-04-25T13:12:02Z</time></trkpt><trkpt lat="41.46151087733755" lon="14.841827311975777"><ele>653.5</ele><time>2026-04-25T13:12:03Z</time></trkpt><trkpt lat="41.46123474513484" lon="14.841921119916373"><ele>656.0</ele><time>2026-04-25T13:12:04Z</time></trkpt><trkpt lat="41.460981892403126" lon="14.842003867328241"><ele>656.0</ele><time>2026-04-25T13:12:05Z</time></trkpt><trkpt lat="41.460732025293204" lon="14.842086339146475"><ele>656.0</ele><time>2026-04-25T13:12:06Z</time></trkpt><trkpt lat="41.460477025385416" lon="14.842169534612754"><ele>655.0</ele><time>2026-04-25T13:12:07Z</time></trkpt><trkpt lat="41.46021222079125" lon="14.842260415218066"><ele>654.0</ele><time>2026-04-25T13:12:08Z</time></trkpt><trkpt lat="41.459946515728326" lon="14.842349279178654"><ele>654.0</ele><time>2026-04-25T13:12:09Z</time></trkpt><trkpt lat="41.45969227424469" lon="14.84243938666376"><ele>654.0</ele><time>2026-04-25T13:12:10Z</time></trkpt><trkpt lat="41.45943924512894" lon="14.842501348249357"><ele>660.0</ele><time>2026-04-25T13:12:11Z</time></trkpt><trkpt lat="41.45893267325947" lon="14.842770090216733"><ele>657.5</ele><time>2026-04-25T13:12:13Z</time></trkpt><trkpt lat="41.45869755876799" lon="14.842904003262708"><ele>655.0</ele><time>2026-04-25T13:12:14Z</time></trkpt><trkpt lat="41.458472186318936" lon="14.843011666542566"><ele>655.0</ele><time>2026-04-25T13:12:15Z</time></trkpt><trkpt lat="41.458264674157014" lon="14.843128535391015"><ele>655.0</ele><time>2026-04-25T13:12:16Z</time></trkpt><trkpt lat="41.45806866778469" lon="14.84324075144058"><ele>655.0</ele><time>2026-04-25T13:12:17Z</time></trkpt><trkpt lat="41.45788545875572" lon="14.84334526771097"><ele>655.0</ele><time>2026-04-25T13:12:18Z</time></trkpt><trkpt lat="41.45771461495834" lon="14.843442729835663"><ele>655.0</ele><time>2026-04-25T13:12:19Z</time></trkpt><trkpt lat="41.45755686167185" lon="14.843532724137866"><ele>655.0</ele><time>2026-04-25T13:12:20Z</time></trkpt><trkpt lat="41.4574157634411" lon="14.843613217174283"><ele>655.0</ele><time>2026-04-25T13:12:21Z</time></trkpt><trkpt lat="41.457293557585935" lon="14.843696473234631"><ele>655.0</ele><time>2026-04-25T13:12:22Z</time></trkpt><trkpt lat="41.45717067399594" lon="14.843693266534762"><ele>655.0</ele><time>2026-04-25T13:12:23Z</time></trkpt><trkpt lat="41.457063111345896" lon="14.843603121088442"><ele>655.0</ele><time>2026-04-25T13:12:24Z</time></trkpt><trkpt lat="41.456938080394764" lon="14.843490772901829"><ele>654.0</ele><time>2026-04-25T13:12:25Z</time></trkpt><trkpt lat="41.45680187371873" lon="14.843341294354023"><ele>653.0</ele><time>2026-04-25T13:12:26Z</time></trkpt><trkpt lat="41.456648902387" lon="14.843193855135068"><ele>652.0</ele><time>2026-04-25T13:12:27Z</time></trkpt><trkpt lat="41.456504747577476" lon="14.843035387065145"><ele>652.0</ele><time>2026-04-25T13:12:28Z</time></trkpt><trkpt lat="41.456360338748446" lon="14.842871599410051"><ele>652.0</ele><time>2026-04-25T13:12:29Z</time></trkpt><trkpt lat="41.45622799900171" lon="14.842717186351274"><ele>652.0</ele><time>2026-04-25T13:12:30Z</time></trkpt><trkpt lat="41.45607111985133" lon="14.84256548877879"><ele>652.5</ele><time>2026-04-25T13:12:31Z</time></trkpt><trkpt lat="41.455867493699635" lon="14.84242289125445"><ele>653.0</ele><time>2026-04-25T13:12:32Z</time></trkpt><trkpt lat="41.45565185920335" lon="14.842357658046252"><ele>653.5</ele><time>2026-04-25T13:12:33Z</time></trkpt><trkpt lat="41.45542807970589" lon="14.842272148954798"><ele>654.0</ele><time>2026-04-25T13:12:34Z</time></trkpt><trkpt lat="41.455197247804726" lon="14.842182778166904"><ele>654.0</ele><time>2026-04-25T13:12:35Z</time></trkpt><trkpt lat="41.45497104991206" lon="14.842090407648948"><ele>654.0</ele><time>2026-04-25T13:12:36Z</time></trkpt><trkpt lat="41.45476607294451" lon="14.842008979987112"><ele>654.0</ele><time>2026-04-25T13:12:37Z</time></trkpt><trkpt lat="41.454560585322156" lon="14.84193992023307"><ele>654.0</ele><time>2026-04-25T13:12:38Z</time></trkpt><trkpt lat="41.45439088621585" lon="14.841853358670603"><ele>654.0</ele><time>2026-04-25T13:12:39Z</time></trkpt><trkpt lat="41.4539331030764" lon="14.841673494621606"><ele>654.0</ele><time>2026-04-25T13:12:40Z</time></trkpt><trkpt lat="41.45369641054975" lon="14.841580131025996"><ele>654.0</ele><time>2026-04-25T13:12:41Z</time></trkpt><trkpt lat="41.45344317473336" lon="14.841480460877316"><ele>654.0</ele><time>2026-04-25T13:12:42Z</time></trkpt><trkpt lat="41.453195666932125" lon="14.84138333972731"><ele>654.0</ele><time>2026-04-25T13:12:43Z</time></trkpt><trkpt lat="41.45296152771404" lon="14.841291464344913"><ele>655.0</ele><time>2026-04-25T13:12:44Z</time></trkpt><trkpt lat="41.45272760162629" lon="14.84121620516733"><ele>656.0</ele><time>2026-04-25T13:12:45Z</time></trkpt><trkpt lat="41.45249953447946" lon="14.841122938770935"><ele>656.0</ele><time>2026-04-25T13:12:46Z</time></trkpt><trkpt lat="41.452290593308156" lon="14.841049539383624"><ele>656.0</ele><time>2026-04-25T13:12:47Z</time></trkpt><trkpt lat="41.45209108987125" lon="14.840946628013254"><ele>656.0</ele><time>2026-04-25T13:12:48Z</time></trkpt><trkpt lat="41.451887539192164" lon="14.84086225349462"><ele>656.6666666666666</ele><time>2026-04-25T13:12:49Z</time></trkpt><trkpt lat="41.45167608831301" lon="14.840774873797361"><ele>657.3333333333334</ele><time>2026-04-25T13:12:50Z</time></trkpt><trkpt lat="41.451474095878154" lon="14.840694779381016"><ele>658.0</ele><time>2026-04-25T13:12:51Z</time></trkpt><trkpt lat="41.45127903563374" lon="14.840621021740798"><ele>658.6666666666667</ele><time>2026-04-25T13:12:52Z</time></trkpt><trkpt lat="41.45109011931506" lon="14.840565288096691"><ele>659.3333333333334</ele><time>2026-04-25T13:12:53Z</time></trkpt><trkpt lat="41.45091940079661" lon="14.840507253977657"><ele>660.0</ele><time>2026-04-25T13:12:54Z</time></trkpt><trkpt lat="41.450736932368926" lon="14.840468842831955"><ele>660.0</ele><time>2026-04-25T13:12:55Z</time></trkpt><trkpt lat="41.450544755642724" lon="14.840457037096119"><ele>660.0</ele><time>2026-04-25T13:12:56Z</time></trkpt><trkpt lat="41.45033577179291" lon="14.840477400391718"><ele>660.0</ele><time>2026-04-25T13:12:57Z</time></trkpt><trkpt lat="41.45013188670035" lon="14.840490017600436"><ele>662.0</ele><time>2026-04-25T13:12:58Z</time></trkpt><trkpt lat="41.44995489781671" lon="14.840465271333477"><ele>664.0</ele><time>2026-04-25T13:12:59Z</time></trkpt><trkpt lat="41.44980317726193" lon="14.840413468460751"><ele>666.0</ele><time>2026-04-25T13:13:00Z</time></trkpt><trkpt lat="41.449658844963984" lon="14.840306645324922"><ele>665.6666666666666</ele><time>2026-04-25T13:13:01Z</time></trkpt><trkpt lat="41.44950843680612" lon="14.840152987696472"><ele>665.3333333333333</ele><time>2026-04-25T13:13:02Z</time></trkpt><trkpt lat="41.4493136492726" lon="14.839993891499407"><ele>665.0</ele><time>2026-04-25T13:13:03Z</time></trkpt><trkpt lat="41.44913154377729" lon="14.839814471978118"><ele>665.0</ele><time>2026-04-25T13:13:04Z</time></trkpt><trkpt lat="41.4489352167448" lon="14.83964721281815"><ele>665.0</ele><time>2026-04-25T13:13:05Z</time></trkpt><trkpt lat="41.44876892382493" lon="14.83947704420485"><ele>665.0</ele><time>2026-04-25T13:13:06Z</time></trkpt><trkpt lat="41.44862116513085" lon="14.839350322733845"><ele>664.75</ele><time>2026-04-25T13:13:07Z</time></trkpt><trkpt lat="41.44847909851971" lon="14.83927641634738"><ele>664.5</ele><time>2026-04-25T13:13:08Z</time></trkpt><trkpt lat="41.448339033260254" lon="14.839208750835379"><ele>664.25</ele><time>2026-04-25T13:13:09Z</time></trkpt><trkpt lat="41.44819585293972" lon="14.839188500755567"><ele>664.0</ele><time>2026-04-25T13:13:10Z</time></trkpt><trkpt lat="41.44802808903761" lon="14.839163241595962"><ele>665.0</ele><time>2026-04-25T13:13:11Z</time></trkpt><trkpt lat="41.44786247402013" lon="14.839081507256614"><ele>666.0</ele><time>2026-04-25T13:13:12Z</time></trkpt><trkpt lat="41.44768368240689" lon="14.83898301128337"><ele>667.0</ele><time>2026-04-25T13:13:13Z</time></trkpt><trkpt lat="41.447486997199746" lon="14.838867394574567"><ele>667.0</ele><time>2026-04-25T13:13:14Z</time></trkpt><trkpt lat="41.44730222353227" lon="14.838765122667535"><ele>667.0</ele><time>2026-04-25T13:13:15Z</time></trkpt><trkpt lat="41.44710640861002" lon="14.838697198720144"><ele>667.0</ele><time>2026-04-25T13:13:16Z</time></trkpt><trkpt lat="41.44692870427775" lon="14.838632676479323"><ele>668.3333333333334</ele><time>2026-04-25T13:13:17Z</time></trkpt><trkpt lat="41.4467542781784" lon="14.838546071521186"><ele>669.6666666666666</ele><time>2026-04-25T13:13:18Z</time></trkpt><trkpt lat="41.44657843731704" lon="14.83848779565196"><ele>671.0</ele><time>2026-04-25T13:13:19Z</time></trkpt><trkpt lat="41.44641183343381" lon="14.838450649609879"><ele>670.6666666666666</ele><time>2026-04-25T13:13:20Z</time></trkpt><trkpt lat="41.44624873269231" lon="14.8384798279673"><ele>670.3333333333334</ele><time>2026-04-25T13:13:21.001Z</time></trkpt><trkpt lat="41.446102181573096" lon="14.838453106263561"><ele>670.0</ele><time>2026-04-25T13:13:22.001Z</time></trkpt><trkpt lat="41.445960659768275" lon="14.83842643606271"><ele>668.0</ele><time>2026-04-25T13:13:23.001Z</time></trkpt><trkpt lat="41.44584020639506" lon="14.838341673119062"><ele>666.0</ele><time>2026-04-25T13:13:24.001Z</time></trkpt><trkpt lat="41.445726393885366" lon="14.838248380020634"><ele>664.0</ele><time>2026-04-25T13:13:25.001Z</time></trkpt><trkpt lat="41.44561828550491" lon="14.838134394595002"><ele>662.0</ele><time>2026-04-25T13:13:26.001Z</time></trkpt><trkpt lat="41.44554754103761" lon="14.837990331752565"><ele>662.0</ele><time>2026-04-25T13:13:27.001Z</time></trkpt><trkpt lat="41.445490648899785" lon="14.837862775747933"><ele>662.0</ele><time>2026-04-25T13:13:28.001Z</time></trkpt><trkpt lat="41.445444539426646" lon="14.837704935267052"><ele>662.0</ele><time>2026-04-25T13:13:29.001Z</time></trkpt><trkpt lat="41.445403203203696" lon="14.837523191694046"><ele>662.0</ele><time>2026-04-25T13:13:30.001Z</time></trkpt><trkpt lat="41.44538113013844" lon="14.837367260039585"><ele>662.0</ele><time>2026-04-25T13:13:31.001Z</time></trkpt><trkpt lat="41.44535870693003" lon="14.837268351490339"><ele>662.0</ele><time>2026-04-25T13:13:32.001Z</time></trkpt><trkpt lat="41.44538965927322" lon="14.837184983210848"><ele>662.0</ele><time>2026-04-25T13:13:33.001Z</time></trkpt><trkpt lat="41.44546915608702" lon="14.837116862860324"><ele>662.0</ele><time>2026-04-25T13:13:34.001Z</time></trkpt><trkpt lat="41.445583743628845" lon="14.837075351502698"><ele>662.0</ele><time>2026-04-25T13:13:35.001Z</time></trkpt><trkpt lat="41.44572173526601" lon="14.83704679706562"><ele>662.0</ele><time>2026-04-25T13:13:36.001Z</time></trkpt><trkpt lat="41.44580967988617" lon="14.837006369783223"><ele>662.0</ele><time>2026-04-25T13:13:37.001Z</time></trkpt><trkpt lat="41.44584747304952" lon="14.836901443775728"><ele>662.0</ele><time>2026-04-25T13:13:38.001Z</time></trkpt><trkpt lat="41.445865832317374" lon="14.836786160828664"><ele>662.0</ele><time>2026-04-25T13:13:39.001Z</time></trkpt><trkpt lat="41.445852710207696" lon="14.83662449735926"><ele>662.0</ele><time>2026-04-25T13:13:40.001Z</time></trkpt><trkpt lat="41.44585180614699" lon="14.836435993518112"><ele>663.0</ele><time>2026-04-25T13:13:41.001Z</time></trkpt><trkpt lat="41.44583734929182" lon="14.836233869344065"><ele>664.0</ele><time>2026-04-25T13:13:42.001Z</time></trkpt><trkpt lat="41.4458065855215" lon="14.83600521152474"><ele>665.0</ele><time>2026-04-25T13:13:43.001Z</time></trkpt><trkpt lat="41.44580305866634" lon="14.835784143351104"><ele>665.0</ele><time>2026-04-25T13:13:44.001Z</time></trkpt><trkpt lat="41.4457781506319" lon="14.835605635049102"><ele>665.0</ele><time>2026-04-25T13:13:45.001Z</time></trkpt><trkpt lat="41.44575829799598" lon="14.83547086901288"><ele>665.0</ele><time>2026-04-25T13:13:46.001Z</time></trkpt><trkpt lat="41.44572885118841" lon="14.835362171595696"><ele>665.0</ele><time>2026-04-25T13:13:47.001Z</time></trkpt><trkpt lat="41.445657057255" lon="14.835262934639607"><ele>665.0</ele><time>2026-04-25T13:13:48Z</time></trkpt><trkpt lat="41.44555856455174" lon="14.835241848489245"><ele>668.0</ele><time>2026-04-25T13:13:49Z</time></trkpt><trkpt lat="41.44543122943203" lon="14.83523665547142"><ele>671.0</ele><time>2026-04-25T13:13:50Z</time></trkpt><trkpt lat="41.445286417122986" lon="14.835202129952858"><ele>674.0</ele><time>2026-04-25T13:13:51Z</time></trkpt><trkpt lat="41.445143583320444" lon="14.835136544094532"><ele>677.0</ele><time>2026-04-25T13:13:52Z</time></trkpt><trkpt lat="41.445006715552346" lon="14.83503060554594"><ele>677.3333333333333</ele><time>2026-04-25T13:13:53Z</time></trkpt><trkpt lat="41.444869146105574" lon="14.834854574394548"><ele>677.6666666666666</ele><time>2026-04-25T13:13:54Z</time></trkpt><trkpt lat="41.44471080259063" lon="14.834695171479407"><ele>678.0</ele><time>2026-04-25T13:13:55Z</time></trkpt><trkpt lat="41.444568285221735" lon="14.834534268836832"><ele>679.3333333333334</ele><time>2026-04-25T13:13:56Z</time></trkpt><trkpt lat="41.444440949571195" lon="14.834408164652828"><ele>680.6666666666667</ele><time>2026-04-25T13:13:57Z</time></trkpt><trkpt lat="41.444310927706894" lon="14.834282800873739"><ele>682.0</ele><time>2026-04-25T13:13:58Z</time></trkpt><trkpt lat="41.44420994686373" lon="14.834157949987"><ele>682.0</ele><time>2026-04-25T13:13:59Z</time></trkpt><trkpt lat="41.44414122635205" lon="14.83407274071931"><ele>682.0</ele><time>2026-04-25T13:14:00Z</time></trkpt><trkpt lat="41.4441324790145" lon="14.833950531692317"><ele>682.0</ele><time>2026-04-25T13:14:01Z</time></trkpt><trkpt lat="41.444170368477046" lon="14.833836788934034"><ele>682.0</ele><time>2026-04-25T13:14:02Z</time></trkpt><trkpt lat="41.44426330305581" lon="14.83374267878166"><ele>682.0</ele><time>2026-04-25T13:14:03Z</time></trkpt><trkpt lat="41.44432813110975" lon="14.833661986203984"><ele>682.0</ele><time>2026-04-25T13:14:04Z</time></trkpt><trkpt lat="41.44441103709968" lon="14.83363546474077"><ele>682.0</ele><time>2026-04-25T13:14:05Z</time></trkpt><trkpt lat="41.44450535709592" lon="14.833662029566371"><ele>682.0</ele><time>2026-04-25T13:14:06Z</time></trkpt><trkpt lat="41.44460469712142" lon="14.833637122167852"><ele>682.0</ele><time>2026-04-25T13:14:07Z</time></trkpt><trkpt lat="41.44470714199189" lon="14.83361846134096"><ele>682.0</ele><time>2026-04-25T13:14:08Z</time></trkpt><trkpt lat="41.44480476728025" lon="14.833536062527056"><ele>683.0</ele><time>2026-04-25T13:14:09Z</time></trkpt><trkpt lat="41.44491512236973" lon="14.833395712927233"><ele>684.0</ele><time>2026-04-25T13:14:10Z</time></trkpt><trkpt lat="41.44501046916868" lon="14.833229231273672"><ele>685.0</ele><time>2026-04-25T13:14:11Z</time></trkpt><trkpt lat="41.44507150045177" lon="14.833088433710108"><ele>686.0</ele><time>2026-04-25T13:14:12Z</time></trkpt><trkpt lat="41.445088574713395" lon="14.83293846701529"><ele>686.0</ele><time>2026-04-25T13:14:13Z</time></trkpt><trkpt lat="41.44508421612519" lon="14.832768681384746"><ele>686.0</ele><time>2026-04-25T13:14:14Z</time></trkpt><trkpt lat="41.44505592557657" lon="14.832581715574435"><ele>686.0</ele><time>2026-04-25T13:14:15Z</time></trkpt><trkpt lat="41.44500859773665" lon="14.832437134731638"><ele>686.0</ele><time>2026-04-25T13:14:16Z</time></trkpt><trkpt lat="41.444940837338486" lon="14.832313002516466"><ele>687.5</ele><time>2026-04-25T13:14:17Z</time></trkpt><trkpt lat="41.444847924693455" lon="14.832234305257725"><ele>689.0</ele><time>2026-04-25T13:14:18Z</time></trkpt><trkpt lat="41.444726300535734" lon="14.832195914201096"><ele>690.5</ele><time>2026-04-25T13:14:19Z</time></trkpt><trkpt lat="41.44457057358816" lon="14.832194756679502"><ele>692.0</ele><time>2026-04-25T13:14:20Z</time></trkpt><trkpt lat="41.4443815068719" lon="14.832221566184318"><ele>692.6666666666666</ele><time>2026-04-25T13:14:21Z</time></trkpt><trkpt lat="41.44417999303031" lon="14.832221099318843"><ele>693.3333333333334</ele><time>2026-04-25T13:14:22Z</time></trkpt><trkpt lat="41.443978226828484" lon="14.832233777571881"><ele>694.0</ele><time>2026-04-25T13:14:23Z</time></trkpt><trkpt lat="41.44376692048071" lon="14.83226454311578"><ele>695.0</ele><time>2026-04-25T13:14:24Z</time></trkpt><trkpt lat="41.44356367369588" lon="14.832277337336667"><ele>696.0</ele><time>2026-04-25T13:14:25Z</time></trkpt><trkpt lat="41.443363856666814" lon="14.832291845697394"><ele>697.0</ele><time>2026-04-25T13:14:26Z</time></trkpt><trkpt lat="41.44318356294518" lon="14.832304580686353"><ele>697.0</ele><time>2026-04-25T13:14:27Z</time></trkpt><trkpt lat="41.44303505955516" lon="14.832312168667547"><ele>697.0</ele><time>2026-04-25T13:14:28Z</time></trkpt><trkpt lat="41.44290311176856" lon="14.832306320377024"><ele>697.0</ele><time>2026-04-25T13:14:29Z</time></trkpt><trkpt lat="41.442744359014846" lon="14.832315146654008"><ele>697.0</ele><time>2026-04-25T13:14:30Z</time></trkpt><trkpt lat="41.44259874315098" lon="14.832324018865537"><ele>698.75</ele><time>2026-04-25T13:14:31Z</time></trkpt><trkpt lat="41.44248091106072" lon="14.832365774466961"><ele>700.5</ele><time>2026-04-25T13:14:32Z</time></trkpt><trkpt lat="41.44235366750745" lon="14.832362930085806"><ele>702.25</ele><time>2026-04-25T13:14:33Z</time></trkpt><trkpt lat="41.44223501930745" lon="14.832363721087585"><ele>704.0</ele><time>2026-04-25T13:14:34Z</time></trkpt><trkpt lat="41.44212760725822" lon="14.832367378596123"><ele>705.1666666666666</ele><time>2026-04-25T13:14:35Z</time></trkpt><trkpt lat="41.44201791119157" lon="14.832380258363218"><ele>706.3333333333333</ele><time>2026-04-25T13:14:36Z</time></trkpt><trkpt lat="41.44192986816447" lon="14.83241189522804"><ele>707.5</ele><time>2026-04-25T13:14:37Z</time></trkpt><trkpt lat="41.4418598814374" lon="14.832468548085496"><ele>708.6666666666666</ele><time>2026-04-25T13:14:38Z</time></trkpt><trkpt lat="41.44180707961765" lon="14.832541905375153"><ele>709.8333333333334</ele><time>2026-04-25T13:14:39Z</time></trkpt><trkpt lat="41.441778720776675" lon="14.832620979789246"><ele>711.0</ele><time>2026-04-25T13:14:40Z</time></trkpt><trkpt lat="41.44176580607366" lon="14.83273678924613"><ele>711.0</ele><time>2026-04-25T13:14:42Z</time></trkpt><trkpt lat="41.44174296957642" lon="14.832896646075335"><ele>711.0</ele><time>2026-04-25T13:14:51Z</time></trkpt><trkpt lat="41.44172365294166" lon="14.833028289147572"><ele>711.0</ele><time>2026-04-25T13:14:52Z</time></trkpt><trkpt lat="41.44170138152118" lon="14.83315547132941"><ele>711.0</ele><time>2026-04-25T13:14:53Z</time></trkpt><trkpt lat="41.44168227196392" lon="14.833294636051546"><ele>711.0</ele><time>2026-04-25T13:14:54Z</time></trkpt><trkpt lat="41.44164618602405" lon="14.833427445819064"><ele>711.0</ele><time>2026-04-25T13:14:55Z</time></trkpt><trkpt lat="41.44158639807479" lon="14.833540350577058"><ele>711.0</ele><time>2026-04-25T13:14:56Z</time></trkpt><trkpt lat="41.441487481616946" lon="14.833602405426191"><ele>711.0</ele><time>2026-04-25T13:14:57Z</time></trkpt><trkpt lat="41.441406490584605" lon="14.833657566527073"><ele>711.0</ele><time>2026-04-25T13:14:58Z</time></trkpt><trkpt lat="41.44131570289335" lon="14.833721774099587"><ele>711.0</ele><time>2026-04-25T13:14:59Z</time></trkpt><trkpt lat="41.44122689341889" lon="14.833781383369171"><ele>711.0</ele><time>2026-04-25T13:15:00Z</time></trkpt><trkpt lat="41.44113498875307" lon="14.833781277382537"><ele>711.0</ele><time>2026-04-25T13:15:01Z</time></trkpt><trkpt lat="41.441055207402435" lon="14.833718668928617"><ele>711.0</ele><time>2026-04-25T13:15:02Z</time></trkpt><trkpt lat="41.440983257710265" lon="14.833667184113317"><ele>711.0</ele><time>2026-04-25T13:15:03Z</time></trkpt><trkpt lat="41.44087666407726" lon="14.833576537587344"><ele>711.0</ele><time>2026-04-25T13:15:04Z</time></trkpt><trkpt lat="41.44074047007193" lon="14.833503694384705"><ele>712.4</ele><time>2026-04-25T13:15:05Z</time></trkpt><trkpt lat="41.44062246493434" lon="14.833430611632778"><ele>713.8</ele><time>2026-04-25T13:15:06Z</time></trkpt><trkpt lat="41.44050377893324" lon="14.833417015698162"><ele>715.1999999999999</ele><time>2026-04-25T13:15:07Z</time></trkpt><trkpt lat="41.4404097698405" lon="14.833395118140402"><ele>716.5999999999999</ele><time>2026-04-25T13:15:08Z</time></trkpt><trkpt lat="41.44033542305819" lon="14.833364373487981"><ele>718.0</ele><time>2026-04-25T13:15:09Z</time></trkpt><trkpt lat="41.440261821440735" lon="14.833341572306024"><ele>718.0</ele><time>2026-04-25T13:15:10Z</time></trkpt><trkpt lat="41.44018152949681" lon="14.833332858654115"><ele>718.0</ele><time>2026-04-25T13:15:11Z</time></trkpt><trkpt lat="41.440094437875196" lon="14.833278217600382"><ele>718.0</ele><time>2026-04-25T13:15:12Z</time></trkpt><trkpt lat="41.44002534016762" lon="14.833202690004809"><ele>718.0</ele><time>2026-04-25T13:15:13Z</time></trkpt><trkpt lat="41.439975426694716" lon="14.833084598748531"><ele>718.0</ele><time>2026-04-25T13:15:14Z</time></trkpt><trkpt lat="41.439944332367595" lon="14.83293362952089"><ele>718.0</ele><time>2026-04-25T13:15:15Z</time></trkpt><trkpt lat="41.439909023757494" lon="14.832774709014783"><ele>718.0</ele><time>2026-04-25T13:15:15.999Z</time></trkpt><trkpt lat="41.439877242795724" lon="14.832644468252775"><ele>718.0</ele><time>2026-04-25T13:15:16.999Z</time></trkpt><trkpt lat="41.43983995378253" lon="14.832522712232564"><ele>718.0</ele><time>2026-04-25T13:15:17.999Z</time></trkpt><trkpt lat="41.43978703878581" lon="14.832383384300583"><ele>718.0</ele><time>2026-04-25T13:15:18.999Z</time></trkpt><trkpt lat="41.43970263006686" lon="14.832229936987034"><ele>719.5</ele><time>2026-04-25T13:15:19.999Z</time></trkpt><trkpt lat="41.439618873737295" lon="14.832087777182457"><ele>721.0</ele><time>2026-04-25T13:15:20.999Z</time></trkpt><trkpt lat="41.43954166219235" lon="14.831971214227119"><ele>722.5</ele><time>2026-04-25T13:15:21.999Z</time></trkpt><trkpt lat="41.43945588177056" lon="14.83187009794685"><ele>724.0</ele><time>2026-04-25T13:15:22.999Z</time></trkpt><trkpt lat="41.439349125408576" lon="14.831790237482512"><ele>726.0</ele><time>2026-04-25T13:15:23.999Z</time></trkpt><trkpt lat="41.43921468025876" lon="14.831779740344261"><ele>728.0</ele><time>2026-04-25T13:15:24.999Z</time></trkpt><trkpt lat="41.439068908140406" lon="14.831780714940125"><ele>730.0</ele><time>2026-04-25T13:15:25.999Z</time></trkpt><trkpt lat="41.4389004843307" lon="14.831753504204492"><ele>732.0</ele><time>2026-04-25T13:15:27.001Z</time></trkpt><trkpt lat="41.438730349703114" lon="14.831736426853816"><ele>734.0</ele><time>2026-04-25T13:15:28.001Z</time></trkpt><trkpt lat="41.438570055586844" lon="14.831711719327329"><ele>736.0</ele><time>2026-04-25T13:15:29.001Z</time></trkpt><trkpt lat="41.43843242176289" lon="14.831705144397528"><ele>736.0</ele><time>2026-04-25T13:15:30.001Z</time></trkpt><trkpt lat="41.4383235797004" lon="14.831678246998639"><ele>736.0</ele><time>2026-04-25T13:15:31.001Z</time></trkpt><trkpt lat="41.43822755405134" lon="14.831631381366108"><ele>736.0</ele><time>2026-04-25T13:15:32.001Z</time></trkpt><trkpt lat="41.43810814654039" lon="14.831624305554339"><ele>736.0</ele><time>2026-04-25T13:15:33.001Z</time></trkpt><trkpt lat="41.4379970137541" lon="14.831618441265585"><ele>736.0</ele><time>2026-04-25T13:15:34.001Z</time></trkpt><trkpt lat="41.43788785569312" lon="14.831617812404708"><ele>736.5</ele><time>2026-04-25T13:15:35.001Z</time></trkpt><trkpt lat="41.43778031419816" lon="14.831699291215783"><ele>737.0</ele><time>2026-04-25T13:15:36.001Z</time></trkpt><trkpt lat="41.43766847896312" lon="14.831817727774093"><ele>737.5</ele><time>2026-04-25T13:15:37.001Z</time></trkpt><trkpt lat="41.43757339688657" lon="14.8319771304358"><ele>738.0</ele><time>2026-04-25T13:15:38.001Z</time></trkpt><trkpt lat="41.43748165650453" lon="14.832113270869359"><ele>738.0</ele><time>2026-04-25T13:15:39.001Z</time></trkpt><trkpt lat="41.4373848848415" lon="14.8321892302213"><ele>738.0</ele><time>2026-04-25T13:15:40.001Z</time></trkpt><trkpt lat="41.43726719029149" lon="14.832211877721914"><ele>738.0</ele><time>2026-04-25T13:15:41.001Z</time></trkpt><trkpt lat="41.43712578561964" lon="14.832272873881086"><ele>738.0</ele><time>2026-04-25T13:15:42.001Z</time></trkpt><trkpt lat="41.43696458445166" lon="14.83229162418209"><ele>739.0</ele><time>2026-04-25T13:15:43.001Z</time></trkpt><trkpt lat="41.43684033090029" lon="14.832288145054438"><ele>740.0</ele><time>2026-04-25T13:15:44.001Z</time></trkpt><trkpt lat="41.4367363239185" lon="14.832254099028818"><ele>741.0</ele><time>2026-04-25T13:15:45.001Z</time></trkpt><trkpt lat="41.436642093602856" lon="14.832223352404643"><ele>742.0</ele><time>2026-04-25T13:15:46.001Z</time></trkpt><trkpt lat="41.43656159259069" lon="14.832130248127122"><ele>743.0</ele><time>2026-04-25T13:15:47.001Z</time></trkpt><trkpt lat="41.43646673381908" lon="14.832048186737817"><ele>743.0</ele><time>2026-04-25T13:15:48.001Z</time></trkpt><trkpt lat="41.43637289726945" lon="14.83200605863585"><ele>743.0</ele><time>2026-04-25T13:15:49Z</time></trkpt><trkpt lat="41.43629456545073" lon="14.831995666211627"><ele>743.0</ele><time>2026-04-25T13:15:50Z</time></trkpt><trkpt lat="41.43621660602977" lon="14.832089890446266"><ele>743.0</ele><time>2026-04-25T13:15:51Z</time></trkpt><trkpt lat="41.43615099380992" lon="14.832175877350169"><ele>743.0</ele><time>2026-04-25T13:15:52Z</time></trkpt><trkpt lat="41.43607504106889" lon="14.832266588669315"><ele>742.75</ele><time>2026-04-25T13:15:53Z</time></trkpt><trkpt lat="41.43599180385857" lon="14.832361212301914"><ele>742.5</ele><time>2026-04-25T13:15:54Z</time></trkpt><trkpt lat="41.435892506928525" lon="14.832477829823654"><ele>742.25</ele><time>2026-04-25T13:15:55Z</time></trkpt><trkpt lat="41.435789611896354" lon="14.832592865552234"><ele>742.0</ele><time>2026-04-25T13:15:56Z</time></trkpt><trkpt lat="41.435715011013635" lon="14.832668095736938"><ele>742.0</ele><time>2026-04-25T13:15:57Z</time></trkpt><trkpt lat="41.435669242804" lon="14.83274236570814"><ele>742.0</ele><time>2026-04-25T13:15:58Z</time></trkpt><trkpt lat="41.435629347058025" lon="14.832861978924802"><ele>742.0</ele><time>2026-04-25T13:15:59Z</time></trkpt><trkpt lat="41.435595508671675" lon="14.833011002733242"><ele>742.0</ele><time>2026-04-25T13:16:00Z</time></trkpt><trkpt lat="41.435575928406436" lon="14.83316495441794"><ele>742.0</ele><time>2026-04-25T13:16:01Z</time></trkpt><trkpt lat="41.43557332833855" lon="14.83334112549995"><ele>741.5</ele><time>2026-04-25T13:16:02Z</time></trkpt><trkpt lat="41.435564155813594" lon="14.833527228877918"><ele>741.0</ele><time>2026-04-25T13:16:03Z</time></trkpt><trkpt lat="41.43553056095349" lon="14.833669281155535"><ele>740.5</ele><time>2026-04-25T13:16:04Z</time></trkpt><trkpt lat="41.43547358198735" lon="14.83378869649737"><ele>740.0</ele><time>2026-04-25T13:16:05Z</time></trkpt><trkpt lat="41.435393643146675" lon="14.833895324029447"><ele>742.0</ele><time>2026-04-25T13:16:06Z</time></trkpt><trkpt lat="41.435268611994765" lon="14.833979831378446"><ele>744.0</ele><time>2026-04-25T13:16:07Z</time></trkpt><trkpt lat="41.435147914825386" lon="14.834102292761933"><ele>746.0</ele><time>2026-04-25T13:16:08Z</time></trkpt><trkpt lat="41.43502684315069" lon="14.83418145258788"><ele>748.0</ele><time>2026-04-25T13:16:09Z</time></trkpt><trkpt lat="41.43492870283657" lon="14.834293921516828"><ele>747.8</ele><time>2026-04-25T13:16:10Z</time></trkpt><trkpt lat="41.43483159074296" lon="14.834368976137617"><ele>747.5999999999999</ele><time>2026-04-25T13:16:11Z</time></trkpt><trkpt lat="41.434763325947046" lon="14.834459666086339"><ele>747.4000000000001</ele><time>2026-04-25T13:16:12Z</time></trkpt><trkpt lat="41.434722442788456" lon="14.834580414660486"><ele>747.2</ele><time>2026-04-25T13:16:13Z</time></trkpt><trkpt lat="41.43470321226772" lon="14.834736588846198"><ele>747.0</ele><time>2026-04-25T13:16:14Z</time></trkpt><trkpt lat="41.43470696152085" lon="14.834897069485743"><ele>747.0</ele><time>2026-04-25T13:16:15Z</time></trkpt><trkpt lat="41.43473751677009" lon="14.835081962632438"><ele>747.0</ele><time>2026-04-25T13:16:16Z</time></trkpt><trkpt lat="41.4347601175853" lon="14.835250711860132"><ele>747.0</ele><time>2026-04-25T13:16:17Z</time></trkpt><trkpt lat="41.43475902355835" lon="14.835390206945117"><ele>747.0</ele><time>2026-04-25T13:16:18Z</time></trkpt><trkpt lat="41.4347074085751" lon="14.835497606100688"><ele>746.25</ele><time>2026-04-25T13:16:19Z</time></trkpt><trkpt lat="41.4346323587706" lon="14.835576276312"><ele>745.5</ele><time>2026-04-25T13:16:20Z</time></trkpt><trkpt lat="41.43453147951484" lon="14.835584888953495"><ele>744.75</ele><time>2026-04-25T13:16:21Z</time></trkpt><trkpt lat="41.434402889879955" lon="14.83559998778805"><ele>744.0</ele><time>2026-04-25T13:16:22Z</time></trkpt><trkpt lat="41.434233101641595" lon="14.835641693427133"><ele>744.0</ele><time>2026-04-25T13:16:23Z</time></trkpt><trkpt lat="41.43410699953627" lon="14.83565169548917"><ele>744.0</ele><time>2026-04-25T13:16:24Z</time></trkpt><trkpt lat="41.434025965575096" lon="14.83562401230886"><ele>744.0</ele><time>2026-04-25T13:16:25Z</time></trkpt><trkpt lat="41.43397821706224" lon="14.835513699379334"><ele>744.0</ele><time>2026-04-25T13:16:26Z</time></trkpt><trkpt lat="41.433954844915085" lon="14.835390827062659"><ele>744.0</ele><time>2026-04-25T13:16:27Z</time></trkpt><trkpt lat="41.433934903119905" lon="14.835280250300416"><ele>744.0</ele><time>2026-04-25T13:16:28Z</time></trkpt><trkpt lat="41.4338808483376" lon="14.835193525232837"><ele>744.0</ele><time>2026-04-25T13:16:29Z</time></trkpt><trkpt lat="41.433815034031326" lon="14.835097457677694"><ele>744.0</ele><time>2026-04-25T13:16:30Z</time></trkpt><trkpt lat="41.43373350080079" lon="14.835039988581025"><ele>744.0</ele><time>2026-04-25T13:16:31Z</time></trkpt><trkpt lat="41.433629685254814" lon="14.834969321353102"><ele>744.0</ele><time>2026-04-25T13:16:32Z</time></trkpt><trkpt lat="41.43350106774079" lon="14.834942622300924"><ele>747.0</ele><time>2026-04-25T13:16:33Z</time></trkpt><trkpt lat="41.43337520228619" lon="14.8349875355713"><ele>750.0</ele><time>2026-04-25T13:16:34Z</time></trkpt><trkpt lat="41.43326065246101" lon="14.835002604657552"><ele>753.0</ele><time>2026-04-25T13:16:35Z</time></trkpt><trkpt lat="41.43314599636797" lon="14.83501920176294"><ele>756.0</ele><time>2026-04-25T13:16:36Z</time></trkpt><trkpt lat="41.43303378402575" lon="14.835023661383529"><ele>756.0</ele><time>2026-04-25T13:16:37Z</time></trkpt><trkpt lat="41.43294055879371" lon="14.835036454617718"><ele>756.0</ele><time>2026-04-25T13:16:38Z</time></trkpt><trkpt lat="41.43286114234686" lon="14.835051668012293"><ele>756.0</ele><time>2026-04-25T13:16:39Z</time></trkpt><trkpt lat="41.43278348098101" lon="14.835104317418613"><ele>756.0</ele><time>2026-04-25T13:16:40Z</time></trkpt><trkpt lat="41.43272028334558" lon="14.835195953631203"><ele>756.0</ele><time>2026-04-25T13:16:41Z</time></trkpt><trkpt lat="41.432651372265454" lon="14.835306113096346"><ele>755.8</ele><time>2026-04-25T13:16:42Z</time></trkpt><trkpt lat="41.432561229845234" lon="14.835350845245687"><ele>755.5999999999999</ele><time>2026-04-25T13:16:43Z</time></trkpt><trkpt lat="41.43247588122321" lon="14.835345224746751"><ele>755.4</ele><time>2026-04-25T13:16:44Z</time></trkpt><trkpt lat="41.43236338579731" lon="14.835336494208871"><ele>755.2</ele><time>2026-04-25T13:16:45Z</time></trkpt><trkpt lat="41.432238055340726" lon="14.835346966484359"><ele>755.0</ele><time>2026-04-25T13:16:46Z</time></trkpt><trkpt lat="41.43213861002778" lon="14.835369704215813"><ele>755.0</ele><time>2026-04-25T13:16:47Z</time></trkpt><trkpt lat="41.432029400803515" lon="14.835418422503794"><ele>755.0</ele><time>2026-04-25T13:16:48Z</time></trkpt><trkpt lat="41.43187468946518" lon="14.835467095116469"><ele>755.0</ele><time>2026-04-25T13:16:49Z</time></trkpt><trkpt lat="41.43174663338728" lon="14.835518087620354"><ele>755.0</ele><time>2026-04-25T13:16:50Z</time></trkpt><trkpt lat="41.43161584021156" lon="14.83555160441107"><ele>755.0</ele><time>2026-04-25T13:16:51Z</time></trkpt><trkpt lat="41.43146913206073" lon="14.835545580532173"><ele>755.0</ele><time>2026-04-25T13:16:51.999Z</time></trkpt><trkpt lat="41.43130266697267" lon="14.835501862733002"><ele>755.0</ele><time>2026-04-25T13:16:52.999Z</time></trkpt><trkpt lat="41.43112449814183" lon="14.835445451266999"><ele>756.6666666666666</ele><time>2026-04-25T13:16:53.999Z</time></trkpt><trkpt lat="41.4309304378148" lon="14.835403898167247"><ele>758.3333333333334</ele><time>2026-04-25T13:16:54.999Z</time></trkpt><trkpt lat="41.43077740718314" lon="14.8353392574081"><ele>760.0</ele><time>2026-04-25T13:16:55.999Z</time></trkpt><trkpt lat="41.43062707030201" lon="14.835261418731355"><ele>760.0</ele><time>2026-04-25T13:16:56.999Z</time></trkpt><trkpt lat="41.43048983364891" lon="14.835167753380253"><ele>760.0</ele><time>2026-04-25T13:16:57.999Z</time></trkpt><trkpt lat="41.43036394949862" lon="14.835080864281949"><ele>760.0</ele><time>2026-04-25T13:16:58.999Z</time></trkpt><trkpt lat="41.43024898405116" lon="14.83501979198887"><ele>760.0</ele><time>2026-04-25T13:16:59.999Z</time></trkpt><trkpt lat="41.43011794000774" lon="14.834985378822651"><ele>759.6666666666667</ele><time>2026-04-25T13:17:00.999Z</time></trkpt><trkpt lat="41.42997826410293" lon="14.83498262354619"><ele>759.3333333333334</ele><time>2026-04-25T13:17:01.999Z</time></trkpt><trkpt lat="41.4298210182773" lon="14.834981406999713"><ele>759.0</ele><time>2026-04-25T13:17:02.999Z</time></trkpt><trkpt lat="41.42964258703211" lon="14.835005509945805"><ele>760.0</ele><time>2026-04-25T13:17:03.999Z</time></trkpt><trkpt lat="41.42944023645018" lon="14.835034327112421"><ele>761.0</ele><time>2026-04-25T13:17:04.999Z</time></trkpt><trkpt lat="41.42921243625466" lon="14.835066901515402"><ele>762.0</ele><time>2026-04-25T13:17:05.999Z</time></trkpt><trkpt lat="41.42898700873446" lon="14.83509794744722"><ele>762.6666666666666</ele><time>2026-04-25T13:17:06.999Z</time></trkpt><trkpt lat="41.42876734169195" lon="14.835127873348206"><ele>763.3333333333333</ele><time>2026-04-25T13:17:07.999Z</time></trkpt><trkpt lat="41.42856642636056" lon="14.835156061153814"><ele>764.0</ele><time>2026-04-25T13:17:08.999Z</time></trkpt><trkpt lat="41.4283904914806" lon="14.83518453935283"><ele>767.25</ele><time>2026-04-25T13:17:09.999Z</time></trkpt><trkpt lat="41.42823217443574" lon="14.835236076448608"><ele>770.5</ele><time>2026-04-25T13:17:10.999Z</time></trkpt><trkpt lat="41.42808963428074" lon="14.835288988004708"><ele>773.75</ele><time>2026-04-25T13:17:11.999Z</time></trkpt><trkpt lat="41.42796841858625" lon="14.83536115208068"><ele>777.0</ele><time>2026-04-25T13:17:12.999Z</time></trkpt><trkpt lat="41.42784417218654" lon="14.835424773599351"><ele>777.0</ele><time>2026-04-25T13:17:13.999Z</time></trkpt><trkpt lat="41.42770523895783" lon="14.835510743526092"><ele>777.0</ele><time>2026-04-25T13:17:14.999Z</time></trkpt><trkpt lat="41.42755704714986" lon="14.835602014747666"><ele>777.0</ele><time>2026-04-25T13:17:15.999Z</time></trkpt><trkpt lat="41.42742328189606" lon="14.835694402245428"><ele>777.0</ele><time>2026-04-25T13:17:16.999Z</time></trkpt><trkpt lat="41.42731502787675" lon="14.835804473218172"><ele>777.0</ele><time>2026-04-25T13:17:17.999Z</time></trkpt><trkpt lat="41.42719182466049" lon="14.835924993351117"><ele>777.0</ele><time>2026-04-25T13:17:18.999Z</time></trkpt><trkpt lat="41.427069302402764" lon="14.83603701072607"><ele>777.0</ele><time>2026-04-25T13:17:19.999Z</time></trkpt><trkpt lat="41.42698525511467" lon="14.836166292314767"><ele>777.0</ele><time>2026-04-25T13:17:20.999Z</time></trkpt><trkpt lat="41.42692438702821" lon="14.83623649765753"><ele>777.0</ele><time>2026-04-25T13:17:21.999Z</time></trkpt><trkpt lat="41.42686912005532" lon="14.836325558723962"><ele>777.0</ele><time>2026-04-25T13:17:24.999Z</time></trkpt><trkpt lat="41.42683399104679" lon="14.836422318797002"><ele>777.0</ele><time>2026-04-25T13:17:25.999Z</time></trkpt><trkpt lat="41.42681551775328" lon="14.836566272813638"><ele>777.0</ele><time>2026-04-25T13:17:26.999Z</time></trkpt><trkpt lat="41.42679261839433" lon="14.836720441316535"><ele>778.75</ele><time>2026-04-25T13:17:27.999Z</time></trkpt><trkpt lat="41.42675238866464" lon="14.83688418713142"><ele>780.5</ele><time>2026-04-25T13:17:28.999Z</time></trkpt><trkpt lat="41.42672309907153" lon="14.837081163970366"><ele>782.25</ele><time>2026-04-25T13:17:29.999Z</time></trkpt><trkpt lat="41.42668919001206" lon="14.837293591812283"><ele>784.0</ele><time>2026-04-25T13:17:30.999Z</time></trkpt><trkpt lat="41.426662293669196" lon="14.837476603322683"><ele>784.0</ele><time>2026-04-25T13:17:31.999Z</time></trkpt><trkpt lat="41.426597536806085" lon="14.837603117793222"><ele>784.0</ele><time>2026-04-25T13:17:33Z</time></trkpt><trkpt lat="41.426535389891036" lon="14.837695289050613"><ele>784.0</ele><time>2026-04-25T13:17:34Z</time></trkpt><trkpt lat="41.42647206932149" lon="14.837757243657462"><ele>784.0</ele><time>2026-04-25T13:17:35Z</time></trkpt><trkpt lat="41.426396268035006" lon="14.83778553543499"><ele>784.0</ele><time>2026-04-25T13:17:36Z</time></trkpt><trkpt lat="41.42630735235076" lon="14.837805810443458"><ele>784.0</ele><time>2026-04-25T13:17:37Z</time></trkpt><trkpt lat="41.4262163355538" lon="14.837785464920126"><ele>784.0</ele><time>2026-04-25T13:17:38Z</time></trkpt><trkpt lat="41.426112981828695" lon="14.837776881305848"><ele>784.0</ele><time>2026-04-25T13:17:39Z</time></trkpt><trkpt lat="41.42602630768087" lon="14.837781425437658"><ele>784.0</ele><time>2026-04-25T13:17:40Z</time></trkpt><trkpt lat="41.4259867153891" lon="14.837674300184876"><ele>784.0</ele><time>2026-04-25T13:17:41Z</time></trkpt><trkpt lat="41.425891962345" lon="14.837541185200847"><ele>784.0</ele><time>2026-04-25T13:17:42Z</time></trkpt><trkpt lat="41.42578638415029" lon="14.837401893116587"><ele>784.0</ele><time>2026-04-25T13:17:43Z</time></trkpt><trkpt lat="41.42570466504875" lon="14.837284503788203"><ele>784.0</ele><time>2026-04-25T13:17:44Z</time></trkpt><trkpt lat="41.425625673313945" lon="14.837184921270573"><ele>784.0</ele><time>2026-04-25T13:17:45Z</time></trkpt><trkpt lat="41.4255682108152" lon="14.8370701835822"><ele>784.0</ele><time>2026-04-25T13:17:46Z</time></trkpt><trkpt lat="41.42549625346891" lon="14.836992414189131"><ele>784.0</ele><time>2026-04-25T13:17:47Z</time></trkpt><trkpt lat="41.42543335592925" lon="14.836907249148961"><ele>784.0</ele><time>2026-04-25T13:17:48Z</time></trkpt><trkpt lat="41.42535305035323" lon="14.836856000733347"><ele>784.0</ele><time>2026-04-25T13:17:49Z</time></trkpt><trkpt lat="41.42525047849298" lon="14.836849698750637"><ele>784.0</ele><time>2026-04-25T13:17:50Z</time></trkpt><trkpt lat="41.42513874747792" lon="14.836841866338496"><ele>784.2</ele><time>2026-04-25T13:17:51Z</time></trkpt><trkpt lat="41.42501564553697" lon="14.836809729286685"><ele>784.4000000000001</ele><time>2026-04-25T13:17:52Z</time></trkpt><trkpt lat="41.424915059961144" lon="14.836796208052784"><ele>784.6</ele><time>2026-04-25T13:17:53Z</time></trkpt><trkpt lat="41.424821153874056" lon="14.836744135466898"><ele>784.8</ele><time>2026-04-25T13:17:54Z</time></trkpt><trkpt lat="41.424736103085245" lon="14.836648150355638"><ele>785.0</ele><time>2026-04-25T13:17:55Z</time></trkpt><trkpt lat="41.42463239822315" lon="14.83653288575587"><ele>780.5</ele><time>2026-04-25T13:17:56Z</time></trkpt><trkpt lat="41.42452809568112" lon="14.836416956860651"><ele>776.0</ele><time>2026-04-25T13:17:57Z</time></trkpt><trkpt lat="41.424432450325284" lon="14.836310650141368"><ele>771.5</ele><time>2026-04-25T13:17:58Z</time></trkpt><trkpt lat="41.42434488813086" lon="14.836208580642017"><ele>767.0</ele><time>2026-04-25T13:17:59Z</time></trkpt><trkpt lat="41.424258449676344" lon="14.836112537012022"><ele>767.0</ele><time>2026-04-25T13:18:00Z</time></trkpt><trkpt lat="41.424176393024595" lon="14.83599968401987"><ele>767.0</ele><time>2026-04-25T13:18:01Z</time></trkpt><trkpt lat="41.424097839120336" lon="14.835872203109322"><ele>767.0</ele><time>2026-04-25T13:18:02Z</time></trkpt><trkpt lat="41.42401546605154" lon="14.835753834559258"><ele>767.0</ele><time>2026-04-25T13:18:03Z</time></trkpt><trkpt lat="41.42391541108943" lon="14.835615608649096"><ele>760.6666666666666</ele><time>2026-04-25T13:18:04Z</time></trkpt><trkpt lat="41.42380647269592" lon="14.835482239726781"><ele>754.3333333333334</ele><time>2026-04-25T13:18:05Z</time></trkpt><trkpt lat="41.423712251134795" lon="14.835336448492905"><ele>748.0</ele><time>2026-04-25T13:18:06Z</time></trkpt><trkpt lat="41.42358831480175" lon="14.835207044529936"><ele>746.3333333333334</ele><time>2026-04-25T13:18:07Z</time></trkpt><trkpt lat="41.42347271304091" lon="14.835052700136675"><ele>744.6666666666666</ele><time>2026-04-25T13:18:08Z</time></trkpt><trkpt lat="41.42335386930021" lon="14.834903824400824"><ele>743.0</ele><time>2026-04-25T13:18:09Z</time></trkpt><trkpt lat="41.42323063028567" lon="14.834749849376049"><ele>743.0</ele><time>2026-04-25T13:18:10Z</time></trkpt><trkpt lat="41.42310963975338" lon="14.83459555947853"><ele>743.0</ele><time>2026-04-25T13:18:11Z</time></trkpt><trkpt lat="41.42298802392753" lon="14.834434215332891"><ele>743.0</ele><time>2026-04-25T13:18:12Z</time></trkpt><trkpt lat="41.42286472808747" lon="14.834276902158171"><ele>734.0</ele><time>2026-04-25T13:18:13Z</time></trkpt><trkpt lat="41.42276062555228" lon="14.83409894927277"><ele>725.0</ele><time>2026-04-25T13:18:14Z</time></trkpt><trkpt lat="41.42263801922789" lon="14.833954361353923"><ele>716.0</ele><time>2026-04-25T13:18:15Z</time></trkpt><trkpt lat="41.42254518182964" lon="14.83377891289387"><ele>716.0</ele><time>2026-04-25T13:18:16Z</time></trkpt><trkpt lat="41.422444608372885" lon="14.83363572909823"><ele>716.0</ele><time>2026-04-25T13:18:17Z</time></trkpt><trkpt lat="41.422405302479525" lon="14.833473690704624"><ele>716.0</ele><time>2026-04-25T13:18:18Z</time></trkpt><trkpt lat="41.42240127988294" lon="14.833303962108559"><ele>716.0</ele><time>2026-04-25T13:18:19Z</time></trkpt><trkpt lat="41.42238918774457" lon="14.833084653615122"><ele>713.5</ele><time>2026-04-25T13:18:20Z</time></trkpt><trkpt lat="41.4224155313059" lon="14.832883768842173"><ele>711.0</ele><time>2026-04-25T13:18:21Z</time></trkpt><trkpt lat="41.42242936513833" lon="14.832697117493836"><ele>708.5</ele><time>2026-04-25T13:18:22Z</time></trkpt><trkpt lat="41.422435602925084" lon="14.832516266133313"><ele>706.0</ele><time>2026-04-25T13:18:23Z</time></trkpt><trkpt lat="41.42241428135677" lon="14.832323267937038"><ele>703.25</ele><time>2026-04-25T13:18:24Z</time></trkpt><trkpt lat="41.42238218115747" lon="14.832143923469681"><ele>700.5</ele><time>2026-04-25T13:18:25Z</time></trkpt><trkpt lat="41.42235825280598" lon="14.831958168263311"><ele>697.75</ele><time>2026-04-25T13:18:26Z</time></trkpt><trkpt lat="41.422347029824266" lon="14.831747803726262"><ele>695.0</ele><time>2026-04-25T13:18:27Z</time></trkpt><trkpt lat="41.422343751021074" lon="14.831544452647774"><ele>693.25</ele><time>2026-04-25T13:18:28Z</time></trkpt><trkpt lat="41.42233944412142" lon="14.83136085012054"><ele>691.5</ele><time>2026-04-25T13:18:29Z</time></trkpt><trkpt lat="41.42234307260147" lon="14.831202778542314"><ele>689.75</ele><time>2026-04-25T13:18:30Z</time></trkpt><trkpt lat="41.42237525975263" lon="14.831042972726967"><ele>688.0</ele><time>2026-04-25T13:18:30.999Z</time></trkpt><trkpt lat="41.42242634890641" lon="14.830875332876362"><ele>684.75</ele><time>2026-04-25T13:18:31.999Z</time></trkpt><trkpt lat="41.42248714936307" lon="14.830712206203831"><ele>681.5</ele><time>2026-04-25T13:18:32.999Z</time></trkpt><trkpt lat="41.42254976085091" lon="14.830559419856554"><ele>678.25</ele><time>2026-04-25T13:18:33.999Z</time></trkpt><trkpt lat="41.422605169197595" lon="14.830419259680744"><ele>675.0</ele><time>2026-04-25T13:18:34.999Z</time></trkpt><trkpt lat="41.42265905891196" lon="14.830316135118597"><ele>675.0</ele><time>2026-04-25T13:18:35.999Z</time></trkpt><trkpt lat="41.422699759610396" lon="14.830234905941438"><ele>675.0</ele><time>2026-04-25T13:18:36.999Z</time></trkpt><trkpt lat="41.42271413449994" lon="14.830113214637562"><ele>675.0</ele><time>2026-04-25T13:18:38.999Z</time></trkpt><trkpt lat="41.42266224309759" lon="14.830060875793107"><ele>675.0</ele><time>2026-04-25T13:18:39.999Z</time></trkpt><trkpt lat="41.42258489319621" lon="14.83001507293222"><ele>675.0</ele><time>2026-04-25T13:18:40.999Z</time></trkpt><trkpt lat="41.422485507047845" lon="14.829966857575062"><ele>675.0</ele><time>2026-04-25T13:18:41.999Z</time></trkpt><trkpt lat="41.42236911081103" lon="14.82990500437408"><ele>671.0</ele><time>2026-04-25T13:18:42.999Z</time></trkpt><trkpt lat="41.42220844841773" lon="14.829824570852564"><ele>667.0</ele><time>2026-04-25T13:18:43.999Z</time></trkpt><trkpt lat="41.422061480601876" lon="14.829751040588755"><ele>663.0</ele><time>2026-04-25T13:18:44.999Z</time></trkpt><trkpt lat="41.42193052814962" lon="14.82967981305844"><ele>659.6666666666666</ele><time>2026-04-25T13:18:45.999Z</time></trkpt><trkpt lat="41.42177503837094" lon="14.829620810368958"><ele>656.3333333333333</ele><time>2026-04-25T13:18:46.999Z</time></trkpt><trkpt lat="41.42164013251922" lon="14.829529753287716"><ele>653.0</ele><time>2026-04-25T13:18:47.999Z</time></trkpt><trkpt lat="41.421512645871545" lon="14.829463861345188"><ele>653.0</ele><time>2026-04-25T13:18:48.999Z</time></trkpt><trkpt lat="41.42141352791313" lon="14.829398757257739"><ele>653.0</ele><time>2026-04-25T13:18:49.999Z</time></trkpt><trkpt lat="41.421325175024236" lon="14.829338243127083"><ele>653.0</ele><time>2026-04-25T13:18:50.999Z</time></trkpt><trkpt lat="41.421267286862644" lon="14.829172208694615"><ele>653.0</ele><time>2026-04-25T13:18:51.999Z</time></trkpt><trkpt lat="41.42118808295735" lon="14.82898690265112"><ele>650.8</ele><time>2026-04-25T13:18:52.999Z</time></trkpt><trkpt lat="41.421098084888065" lon="14.828843676651239"><ele>648.5999999999999</ele><time>2026-04-25T13:18:53.999Z</time></trkpt><trkpt lat="41.421023281303306" lon="14.828738936048117"><ele>646.4000000000001</ele><time>2026-04-25T13:18:54.999Z</time></trkpt><trkpt lat="41.42094134675906" lon="14.828683329248616"><ele>644.2</ele><time>2026-04-25T13:18:55.999Z</time></trkpt><trkpt lat="41.420851428997906" lon="14.828657515464903"><ele>642.0</ele><time>2026-04-25T13:18:56.999Z</time></trkpt><trkpt lat="41.42077081052855" lon="14.828655551046973"><ele>642.0</ele><time>2026-04-25T13:18:57.999Z</time></trkpt><trkpt lat="41.42068584232799" lon="14.82866489445883"><ele>642.0</ele><time>2026-04-25T13:18:58.999Z</time></trkpt><trkpt lat="41.42062218797831" lon="14.828628379520717"><ele>642.0</ele><time>2026-04-25T13:18:59.999Z</time></trkpt><trkpt lat="41.42055513047578" lon="14.828571545111295"><ele>642.0</ele><time>2026-04-25T13:19:00.999Z</time></trkpt><trkpt lat="41.42050487247702" lon="14.828490450524493"><ele>642.0</ele><time>2026-04-25T13:19:01.999Z</time></trkpt><trkpt lat="41.4204490934594" lon="14.82840397119799"><ele>642.0</ele><time>2026-04-25T13:19:02.999Z</time></trkpt><trkpt lat="41.4203996219327" lon="14.82824828650298"><ele>644.75</ele><time>2026-04-25T13:19:03.999Z</time></trkpt><trkpt lat="41.42033487139903" lon="14.828062581565066"><ele>647.5</ele><time>2026-04-25T13:19:04.999Z</time></trkpt><trkpt lat="41.42029414185007" lon="14.827885870176358"><ele>650.25</ele><time>2026-04-25T13:19:05.999Z</time></trkpt><trkpt lat="41.42022294283022" lon="14.827762681416722"><ele>653.0</ele><time>2026-04-25T13:19:06.999Z</time></trkpt><trkpt lat="41.42014323203664" lon="14.827653227960857"><ele>649.0</ele><time>2026-04-25T13:19:07.999Z</time></trkpt><trkpt lat="41.42003637695981" lon="14.827560923499473"><ele>645.0</ele><time>2026-04-25T13:19:08.999Z</time></trkpt><trkpt lat="41.419909147522965" lon="14.82743426766733"><ele>641.0</ele><time>2026-04-25T13:19:09.999Z</time></trkpt><trkpt lat="41.41973998920038" lon="14.82733695288417"><ele>643.6666666666666</ele><time>2026-04-25T13:19:10.999Z</time></trkpt><trkpt lat="41.41959455237349" lon="14.8272643939421"><ele>646.3333333333334</ele><time>2026-04-25T13:19:11.999Z</time></trkpt><trkpt lat="41.41943265107223" lon="14.827180595793005"><ele>649.0</ele><time>2026-04-25T13:19:12.999Z</time></trkpt><trkpt lat="41.41931178968603" lon="14.827080980232733"><ele>649.0</ele><time>2026-04-25T13:19:13.999Z</time></trkpt><trkpt lat="41.419177192457525" lon="14.826957892427929"><ele>649.0</ele><time>2026-04-25T13:19:14.999Z</time></trkpt><trkpt lat="41.41903660958083" lon="14.826852292478454"><ele>649.0</ele><time>2026-04-25T13:19:15.999Z</time></trkpt><trkpt lat="41.41887900251048" lon="14.826766548327047"><ele>644.0</ele><time>2026-04-25T13:19:16.999Z</time></trkpt><trkpt lat="41.41873056319904" lon="14.82664332519579"><ele>639.0</ele><time>2026-04-25T13:19:17.999Z</time></trkpt><trkpt lat="41.418589459031175" lon="14.826545950100288"><ele>634.0</ele><time>2026-04-25T13:19:18.999Z</time></trkpt><trkpt lat="41.41846266059402" lon="14.826450035740345"><ele>634.0</ele><time>2026-04-25T13:19:19.999Z</time></trkpt><trkpt lat="41.418341176457474" lon="14.826349186657154"><ele>634.0</ele><time>2026-04-25T13:19:20.999Z</time></trkpt><trkpt lat="41.41822153188397" lon="14.826234377259437"><ele>634.0</ele><time>2026-04-25T13:19:21.999Z</time></trkpt><trkpt lat="41.418123928023775" lon="14.826096782626419"><ele>634.0</ele><time>2026-04-25T13:19:22.999Z</time></trkpt><trkpt lat="41.418034288201945" lon="14.825937524381219"><ele>631.75</ele><time>2026-04-25T13:19:23.999Z</time></trkpt><trkpt lat="41.41797428020104" lon="14.825765942968367"><ele>629.5</ele><time>2026-04-25T13:19:24.999Z</time></trkpt><trkpt lat="41.41792097768813" lon="14.825573735837118"><ele>627.25</ele><time>2026-04-25T13:19:25.999Z</time></trkpt><trkpt lat="41.41788795443519" lon="14.825413252058143"><ele>625.0</ele><time>2026-04-25T13:19:26.999Z</time></trkpt><trkpt lat="41.417857785851446" lon="14.825290017252598"><ele>625.0</ele><time>2026-04-25T13:19:27.999Z</time></trkpt><trkpt lat="41.417818243521936" lon="14.825183672608183"><ele>625.0</ele><time>2026-04-25T13:19:28.999Z</time></trkpt><trkpt lat="41.417766711444195" lon="14.825065817540748"><ele>625.0</ele><time>2026-04-25T13:19:29.999Z</time></trkpt><trkpt lat="41.417697407799075" lon="14.824948889326011"><ele>625.0</ele><time>2026-04-25T13:19:30.999Z</time></trkpt><trkpt lat="41.417613355232525" lon="14.824857560493555"><ele>625.0</ele><time>2026-04-25T13:19:31.999Z</time></trkpt><trkpt lat="41.41749172217611" lon="14.82476158963816"><ele>624.0</ele><time>2026-04-25T13:19:32.999Z</time></trkpt><trkpt lat="41.41734115272749" lon="14.824694538961248"><ele>623.0</ele><time>2026-04-25T13:19:33.999Z</time></trkpt><trkpt lat="41.41719912166075" lon="14.824650300524947"><ele>622.0</ele><time>2026-04-25T13:19:34.999Z</time></trkpt><trkpt lat="41.41705816133646" lon="14.824590649476534"><ele>624.75</ele><time>2026-04-25T13:19:35.999Z</time></trkpt><trkpt lat="41.416935732159075" lon="14.82454948117976"><ele>627.5</ele><time>2026-04-25T13:19:36.999Z</time></trkpt><trkpt lat="41.41679526041984" lon="14.824512401714115"><ele>630.25</ele><time>2026-04-25T13:19:37.999Z</time></trkpt><trkpt lat="41.41671264669043" lon="14.8244670896941"><ele>633.0</ele><time>2026-04-25T13:19:39Z</time></trkpt><trkpt lat="41.41663462394867" lon="14.824296009081339"><ele>633.5</ele><time>2026-04-25T13:19:41Z</time></trkpt><trkpt lat="41.41660496442902" lon="14.824133911263147"><ele>634.0</ele><time>2026-04-25T13:19:42Z</time></trkpt><trkpt lat="41.4165495399978" lon="14.823918471669815"><ele>634.5</ele><time>2026-04-25T13:19:43Z</time></trkpt><trkpt lat="41.41649575231874" lon="14.823736928263566"><ele>635.0</ele><time>2026-04-25T13:19:44Z</time></trkpt><trkpt lat="41.416461108145285" lon="14.823579646065626"><ele>636.0</ele><time>2026-04-25T13:19:45Z</time></trkpt><trkpt lat="41.41641682459632" lon="14.823464144659225"><ele>637.0</ele><time>2026-04-25T13:19:46Z</time></trkpt><trkpt lat="41.41639621321432" lon="14.823371383356132"><ele>638.0</ele><time>2026-04-25T13:19:47Z</time></trkpt><trkpt lat="41.416366011760175" lon="14.823281723394555"><ele>639.0</ele><time>2026-04-25T13:19:48Z</time></trkpt><trkpt lat="41.416198213857726" lon="14.823294384120643"><ele>640.0</ele><time>2026-04-25T13:19:49Z</time></trkpt><trkpt lat="41.41609027867501" lon="14.823248505884028"><ele>640.0</ele><time>2026-04-25T13:19:50Z</time></trkpt><trkpt lat="41.41597103175375" lon="14.823188565671451"><ele>640.0</ele><time>2026-04-25T13:19:51Z</time></trkpt><trkpt lat="41.41587857003313" lon="14.823136608106003"><ele>640.0</ele><time>2026-04-25T13:19:52Z</time></trkpt><trkpt lat="41.41577308764134" lon="14.823076095290768"><ele>640.0</ele><time>2026-04-25T13:19:53Z</time></trkpt><trkpt lat="41.41561158918188" lon="14.82299060923215"><ele>644.6666666666667</ele><time>2026-04-25T13:19:54Z</time></trkpt><trkpt lat="41.415436051507236" lon="14.822888684968436"><ele>649.3333333333334</ele><time>2026-04-25T13:19:55Z</time></trkpt><trkpt lat="41.41525885841198" lon="14.822789876099195"><ele>654.0</ele><time>2026-04-25T13:19:56Z</time></trkpt><trkpt lat="41.41507648425155" lon="14.822677329187298"><ele>652.3333333333334</ele><time>2026-04-25T13:19:57Z</time></trkpt><trkpt lat="41.41490343495927" lon="14.822583405190183"><ele>650.6666666666667</ele><time>2026-04-25T13:19:58Z</time></trkpt><trkpt lat="41.414774912478954" lon="14.822435502880117"><ele>649.0</ele><time>2026-04-25T13:19:59Z</time></trkpt><trkpt lat="41.41466285467688" lon="14.82224972453396"><ele>653.0</ele><time>2026-04-25T13:20:00Z</time></trkpt><trkpt lat="41.41458866270254" lon="14.822022205589422"><ele>657.0</ele><time>2026-04-25T13:20:01Z</time></trkpt><trkpt lat="41.41451206205264" lon="14.821795466510066"><ele>661.0</ele><time>2026-04-25T13:20:02Z</time></trkpt><trkpt lat="41.41441627603327" lon="14.821622656289803"><ele>661.3333333333334</ele><time>2026-04-25T13:20:03Z</time></trkpt><trkpt lat="41.4143263629597" lon="14.821405428893302"><ele>661.6666666666666</ele><time>2026-04-25T13:20:04Z</time></trkpt><trkpt lat="41.41422009950101" lon="14.821175611169487"><ele>662.0</ele><time>2026-04-25T13:20:05Z</time></trkpt><trkpt lat="41.414122184714934" lon="14.820919859628402"><ele>661.0</ele><time>2026-04-25T13:20:06Z</time></trkpt><trkpt lat="41.41404358183669" lon="14.820658096385523"><ele>660.0</ele><time>2026-04-25T13:20:07Z</time></trkpt><trkpt lat="41.41395388637579" lon="14.820369323345338"><ele>659.0</ele><time>2026-04-25T13:20:08Z</time></trkpt><trkpt lat="41.413900337224206" lon="14.820062506403314"><ele>659.0</ele><time>2026-04-25T13:20:09Z</time></trkpt><trkpt lat="41.41383833334267" lon="14.819760836093106"><ele>659.0</ele><time>2026-04-25T13:20:10Z</time></trkpt><trkpt lat="41.4137728968707" lon="14.819442875264473"><ele>666.0</ele><time>2026-04-25T13:20:11Z</time></trkpt><trkpt lat="41.41369139060544" lon="14.819114518879688"><ele>673.0</ele><time>2026-04-25T13:20:12Z</time></trkpt><trkpt lat="41.41362530506399" lon="14.818771710298979"><ele>672.5</ele><time>2026-04-25T13:20:13Z</time></trkpt><trkpt lat="41.41355912035635" lon="14.818433151726056"><ele>672.0</ele><time>2026-04-25T13:20:14Z</time></trkpt><trkpt lat="41.413490010899864" lon="14.818090099820983"><ele>672.0</ele><time>2026-04-25T13:20:15Z</time></trkpt><trkpt lat="41.413420675223485" lon="14.817745425499973"><ele>672.0</ele><time>2026-04-25T13:20:16Z</time></trkpt><trkpt lat="41.41335120836002" lon="14.817424194275572"><ele>671.5</ele><time>2026-04-25T13:20:17Z</time></trkpt><trkpt lat="41.413287381813696" lon="14.817112200044233"><ele>671.0</ele><time>2026-04-25T13:20:18Z</time></trkpt><trkpt lat="41.41321697097157" lon="14.816814444867417"><ele>671.0</ele><time>2026-04-25T13:20:19Z</time></trkpt><trkpt lat="41.41312537307335" lon="14.816526563015703"><ele>671.0</ele><time>2026-04-25T13:20:20Z</time></trkpt><trkpt lat="41.41300349373111" lon="14.816240399792454"><ele>675.5</ele><time>2026-04-25T13:20:21Z</time></trkpt><trkpt lat="41.412853622469086" lon="14.8159514890347"><ele>680.0</ele><time>2026-04-25T13:20:22Z</time></trkpt><trkpt lat="41.41268071651299" lon="14.815680804211965"><ele>680.0</ele><time>2026-04-25T13:20:23Z</time></trkpt><trkpt lat="41.412482420972495" lon="14.815444496672516"><ele>680.0</ele><time>2026-04-25T13:20:24Z</time></trkpt><trkpt lat="41.41225716582641" lon="14.815230099068547"><ele>676.5</ele><time>2026-04-25T13:20:25Z</time></trkpt><trkpt lat="41.412012077357076" lon="14.815059318605808"><ele>673.0</ele><time>2026-04-25T13:20:26Z</time></trkpt><trkpt lat="41.41176146631739" lon="14.814910014029701"><ele>673.0</ele><time>2026-04-25T13:20:27Z</time></trkpt><trkpt lat="41.41152423715782" lon="14.814743606765996"><ele>673.0</ele><time>2026-04-25T13:20:28Z</time></trkpt><trkpt lat="41.41130295774167" lon="14.81455113049497"><ele>674.5</ele><time>2026-04-25T13:20:29Z</time></trkpt><trkpt lat="41.411102579332955" lon="14.814316303809047"><ele>676.0</ele><time>2026-04-25T13:20:30Z</time></trkpt><trkpt lat="41.410909647872735" lon="14.814042979496483"><ele>676.0</ele><time>2026-04-25T13:20:31Z</time></trkpt><trkpt lat="41.41073923444537" lon="14.813756818245606"><ele>676.0</ele><time>2026-04-25T13:20:32Z</time></trkpt><trkpt lat="41.41056734635092" lon="14.813486008654152"><ele>686.0</ele><time>2026-04-25T13:20:32.999Z</time></trkpt><trkpt lat="41.410418826607106" lon="14.813253686813107"><ele>696.0</ele><time>2026-04-25T13:20:33.999Z</time></trkpt><trkpt lat="41.41023175088937" lon="14.813040003205334"><ele>696.0</ele><time>2026-04-25T13:20:34.999Z</time></trkpt><trkpt lat="41.41003518715015" lon="14.812863680145037"><ele>696.0</ele><time>2026-04-25T13:20:35.999Z</time></trkpt><trkpt lat="41.40984623498989" lon="14.8126717139767"><ele>690.5</ele><time>2026-04-25T13:20:36.999Z</time></trkpt><trkpt lat="41.409644925254504" lon="14.812478057193044"><ele>685.0</ele><time>2026-04-25T13:20:37.999Z</time></trkpt><trkpt lat="41.40932912153705" lon="14.81248574863833"><ele>685.0</ele><time>2026-04-25T13:20:38.999Z</time></trkpt><trkpt lat="41.40906384266771" lon="14.81240599210624"><ele>685.0</ele><time>2026-04-25T13:20:39.999Z</time></trkpt><trkpt lat="41.4088081051133" lon="14.812311085256077"><ele>688.0</ele><time>2026-04-25T13:20:40.999Z</time></trkpt><trkpt lat="41.4085741772928" lon="14.812177995294595"><ele>691.0</ele><time>2026-04-25T13:20:41.999Z</time></trkpt><trkpt lat="41.40834033734832" lon="14.811988871738459"><ele>691.5</ele><time>2026-04-25T13:20:42.999Z</time></trkpt><trkpt lat="41.40811335375046" lon="14.81175800642916"><ele>692.0</ele><time>2026-04-25T13:20:43.999Z</time></trkpt><trkpt lat="41.407891395143466" lon="14.811529858758238"><ele>692.0</ele><time>2026-04-25T13:20:44.999Z</time></trkpt><trkpt lat="41.40766808450126" lon="14.81133463501034"><ele>692.0</ele><time>2026-04-25T13:20:45.999Z</time></trkpt><trkpt lat="41.40743876819083" lon="14.811170346257319"><ele>692.0</ele><time>2026-04-25T13:20:46.999Z</time></trkpt><trkpt lat="41.4071945979784" lon="14.811021974039184"><ele>692.0</ele><time>2026-04-25T13:20:47.999Z</time></trkpt><trkpt lat="41.406943258719494" lon="14.810885619738968"><ele>689.0</ele><time>2026-04-25T13:20:48.999Z</time></trkpt><trkpt lat="41.40668821786591" lon="14.810768443926273"><ele>686.0</ele><time>2026-04-25T13:20:49.999Z</time></trkpt><trkpt lat="41.406427466457004" lon="14.810670888119846"><ele>684.5</ele><time>2026-04-25T13:20:50.999Z</time></trkpt><trkpt lat="41.406169497758604" lon="14.810597367810715"><ele>683.0</ele><time>2026-04-25T13:20:51.999Z</time></trkpt><trkpt lat="41.405930734395284" lon="14.81056014115029"><ele>683.0</ele><time>2026-04-25T13:20:52.999Z</time></trkpt><trkpt lat="41.40570881954639" lon="14.81056030765282"><ele>683.0</ele><time>2026-04-25T13:20:53.999Z</time></trkpt><trkpt lat="41.405509565584346" lon="14.810597488493304"><ele>683.0</ele><time>2026-04-25T13:20:54.999Z</time></trkpt><trkpt lat="41.40534004442909" lon="14.81064466183518"><ele>685.4</ele><time>2026-04-25T13:20:55.999Z</time></trkpt><trkpt lat="41.405222522614785" lon="14.810695673137156"><ele>687.8</ele><time>2026-04-25T13:20:56.999Z</time></trkpt><trkpt lat="41.40513797666615" lon="14.81071440938536"><ele>690.2</ele><time>2026-04-25T13:20:57.999Z</time></trkpt><trkpt lat="41.40505771058475" lon="14.810688107941406"><ele>692.6</ele><time>2026-04-25T13:20:58.999Z</time></trkpt><trkpt lat="41.40499552052314" lon="14.810603047591826"><ele>695.0</ele><time>2026-04-25T13:20:59.999Z</time></trkpt><trkpt lat="41.40495160234271" lon="14.810479243909276"><ele>695.0</ele><time>2026-04-25T13:21:00.999Z</time></trkpt><trkpt lat="41.4049173207392" lon="14.810325752203505"><ele>695.0</ele><time>2026-04-25T13:21:01.999Z</time></trkpt><trkpt lat="41.404873277864944" lon="14.810169778935103"><ele>695.0</ele><time>2026-04-25T13:21:02.999Z</time></trkpt><trkpt lat="41.4048218632435" lon="14.810072520158075"><ele>695.0</ele><time>2026-04-25T13:21:03.999Z</time></trkpt><trkpt lat="41.404730679403144" lon="14.810028157621167"><ele>695.0</ele><time>2026-04-25T13:21:05.999Z</time></trkpt><trkpt lat="41.40463642618453" lon="14.809994304057678"><ele>694.0</ele><time>2026-04-25T13:21:06.999Z</time></trkpt><trkpt lat="41.404512080700684" lon="14.809940344115192"><ele>693.0</ele><time>2026-04-25T13:21:07.999Z</time></trkpt><trkpt lat="41.404386466317" lon="14.809876492852062"><ele>692.0</ele><time>2026-04-25T13:21:08.999Z</time></trkpt><trkpt lat="41.40426014802923" lon="14.809810624853945"><ele>691.0</ele><time>2026-04-25T13:21:09.999Z</time></trkpt><trkpt lat="41.40412402893341" lon="14.80973708977755"><ele>691.0</ele><time>2026-04-25T13:21:10.999Z</time></trkpt><trkpt lat="41.40400144706571" lon="14.809669697919324"><ele>691.0</ele><time>2026-04-25T13:21:11.999Z</time></trkpt><trkpt lat="41.403869398519724" lon="14.809601500704753"><ele>691.0</ele><time>2026-04-25T13:21:12.999Z</time></trkpt><trkpt lat="41.403739986804986" lon="14.80954458614313"><ele>691.0</ele><time>2026-04-25T13:21:13.999Z</time></trkpt><trkpt lat="41.40362396335524" lon="14.809492627627357"><ele>689.5</ele><time>2026-04-25T13:21:14.999Z</time></trkpt><trkpt lat="41.40351206481364" lon="14.809483396571798"><ele>688.0</ele><time>2026-04-25T13:21:15.999Z</time></trkpt><trkpt lat="41.40339789916995" lon="14.80953211008919"><ele>686.5</ele><time>2026-04-25T13:21:16.999Z</time></trkpt><trkpt lat="41.40327862585489" lon="14.809628380121003"><ele>685.0</ele><time>2026-04-25T13:21:17.999Z</time></trkpt><trkpt lat="41.4031369795116" lon="14.809777388926408"><ele>683.6666666666667</ele><time>2026-04-25T13:21:18.999Z</time></trkpt><trkpt lat="41.40297401988828" lon="14.80993760694816"><ele>682.3333333333334</ele><time>2026-04-25T13:21:19.999Z</time></trkpt><trkpt lat="41.402815110466456" lon="14.81008464408888"><ele>681.0</ele><time>2026-04-25T13:21:20.999Z</time></trkpt><trkpt lat="41.40268126090238" lon="14.810216940261032"><ele>681.0</ele><time>2026-04-25T13:21:21.999Z</time></trkpt><trkpt lat="41.402566068475224" lon="14.81031622694183"><ele>681.0</ele><time>2026-04-25T13:21:22.999Z</time></trkpt><trkpt lat="41.40248022668978" lon="14.810366153481137"><ele>681.0</ele><time>2026-04-25T13:21:23.999Z</time></trkpt><trkpt lat="41.402401127833656" lon="14.81026589974047"><ele>681.0</ele><time>2026-04-25T13:21:25.999Z</time></trkpt><trkpt lat="41.40240520236947" lon="14.810145756146557"><ele>681.0</ele><time>2026-04-25T13:21:26.999Z</time></trkpt><trkpt lat="41.402439863611484" lon="14.80995288303581"><ele>679.0</ele><time>2026-04-25T13:21:27.999Z</time></trkpt><trkpt lat="41.402480732678555" lon="14.809750188384516"><ele>677.0</ele><time>2026-04-25T13:21:28.999Z</time></trkpt><trkpt lat="41.40252360819983" lon="14.809563777318417"><ele>675.0</ele><time>2026-04-25T13:21:29.999Z</time></trkpt><trkpt lat="41.40256790961854" lon="14.809399486203446"><ele>673.0</ele><time>2026-04-25T13:21:30.999Z</time></trkpt><trkpt lat="41.40260820676049" lon="14.809249403112972"><ele>671.8</ele><time>2026-04-25T13:21:31.999Z</time></trkpt><trkpt lat="41.40264999633355" lon="14.809124369025783"><ele>670.5999999999999</ele><time>2026-04-25T13:21:32.999Z</time></trkpt><trkpt lat="41.40269715522686" lon="14.809012691227876"><ele>669.4000000000001</ele><time>2026-04-25T13:21:33.999Z</time></trkpt><trkpt lat="41.40274550210946" lon="14.808905078824523"><ele>668.2</ele><time>2026-04-25T13:21:34.999Z</time></trkpt><trkpt lat="41.40279861579735" lon="14.80880043701871"><ele>667.0</ele><time>2026-04-25T13:21:35.999Z</time></trkpt><trkpt lat="41.402836289122845" lon="14.808684167159061"><ele>667.0</ele><time>2026-04-25T13:21:36.999Z</time></trkpt><trkpt lat="41.40287687392753" lon="14.80857864108954"><ele>667.0</ele><time>2026-04-25T13:21:37.999Z</time></trkpt><trkpt lat="41.40293068536967" lon="14.808507482228329"><ele>667.0</ele><time>2026-04-25T13:21:38.999Z</time></trkpt><trkpt lat="41.40298346447363" lon="14.808456833809368"><ele>667.0</ele><time>2026-04-25T13:21:39.999Z</time></trkpt><trkpt lat="41.40304425407496" lon="14.808433838824977"><ele>667.0</ele><time>2026-04-25T13:21:40.999Z</time></trkpt><trkpt lat="41.403093503653686" lon="14.808373785398478"><ele>667.0</ele><time>2026-04-25T13:21:41.999Z</time></trkpt><trkpt lat="41.40313404508075" lon="14.808265045038755"><ele>667.2</ele><time>2026-04-25T13:21:42.999Z</time></trkpt><trkpt lat="41.403154685747424" lon="14.80815491915332"><ele>667.4000000000001</ele><time>2026-04-25T13:21:43.999Z</time></trkpt><trkpt lat="41.40317410371558" lon="14.808024766662223"><ele>667.5999999999999</ele><time>2026-04-25T13:21:45Z</time></trkpt><trkpt lat="41.4032246111688" lon="14.80789039729946"><ele>667.8</ele><time>2026-04-25T13:21:46Z</time></trkpt><trkpt lat="41.403306048753265" lon="14.807759406584712"><ele>668.0</ele><time>2026-04-25T13:21:47Z</time></trkpt><trkpt lat="41.403393162659576" lon="14.807617079998835"><ele>666.0</ele><time>2026-04-25T13:21:48Z</time></trkpt><trkpt lat="41.40348169781967" lon="14.807480820123587"><ele>664.0</ele><time>2026-04-25T13:21:49Z</time></trkpt><trkpt lat="41.40355203489349" lon="14.807352286024482"><ele>662.0</ele><time>2026-04-25T13:21:50Z</time></trkpt><trkpt lat="41.403627638170306" lon="14.807240817113506"><ele>660.0</ele><time>2026-04-25T13:21:51Z</time></trkpt><trkpt lat="41.40368612881505" lon="14.807128672663957"><ele>660.0</ele><time>2026-04-25T13:21:52Z</time></trkpt><trkpt lat="41.40374731898061" lon="14.807036552644272"><ele>660.0</ele><time>2026-04-25T13:21:53Z</time></trkpt><trkpt lat="41.403791524692785" lon="14.806936302121374"><ele>660.0</ele><time>2026-04-25T13:21:54Z</time></trkpt><trkpt lat="41.40384916401324" lon="14.806858419958349"><ele>660.0</ele><time>2026-04-25T13:21:55Z</time></trkpt><trkpt lat="41.403895960270845" lon="14.80674871572451"><ele>660.0</ele><time>2026-04-25T13:21:56Z</time></trkpt><trkpt lat="41.40390709609505" lon="14.806620165478657"><ele>660.5</ele><time>2026-04-25T13:21:57Z</time></trkpt><trkpt lat="41.40387495178912" lon="14.8064869908481"><ele>661.0</ele><time>2026-04-25T13:21:58Z</time></trkpt><trkpt lat="41.40380712433522" lon="14.806331777910147"><ele>661.5</ele><time>2026-04-25T13:21:59Z</time></trkpt><trkpt lat="41.40372999728226" lon="14.80617928772331"><ele>662.0</ele><time>2026-04-25T13:22:00Z</time></trkpt><trkpt lat="41.40366354106071" lon="14.806040698220984"><ele>660.0</ele><time>2026-04-25T13:22:01Z</time></trkpt><trkpt lat="41.403618691441736" lon="14.805903647365694"><ele>658.0</ele><time>2026-04-25T13:22:02Z</time></trkpt><trkpt lat="41.403569837818495" lon="14.80578838503611"><ele>656.0</ele><time>2026-04-25T13:22:03Z</time></trkpt><trkpt lat="41.40352310921821" lon="14.805672418020116"><ele>654.0</ele><time>2026-04-25T13:22:04Z</time></trkpt><trkpt lat="41.4034690674346" lon="14.805532183193861"><ele>652.0</ele><time>2026-04-25T13:22:05Z</time></trkpt><trkpt lat="41.40341520030762" lon="14.80540072726194"><ele>652.0</ele><time>2026-04-25T13:22:06Z</time></trkpt><trkpt lat="41.40337976102947" lon="14.805278958584234"><ele>652.0</ele><time>2026-04-25T13:22:07Z</time></trkpt><trkpt lat="41.403332311933" lon="14.80516837576844"><ele>652.0</ele><time>2026-04-25T13:22:08Z</time></trkpt><trkpt lat="41.40328678988332" lon="14.80507158954044"><ele>652.0</ele><time>2026-04-25T13:22:09Z</time></trkpt><trkpt lat="41.40323849834777" lon="14.805003505321798"><ele>652.0</ele><time>2026-04-25T13:22:11Z</time></trkpt><trkpt lat="41.403345623281666" lon="14.804862614949736"><ele>652.0</ele><time>2026-04-25T13:22:12Z</time></trkpt><trkpt lat="41.4034134114562" lon="14.804818853385308"><ele>652.0</ele><time>2026-04-25T13:22:13Z</time></trkpt><trkpt lat="41.40349187285445" lon="14.804773138134172"><ele>652.0</ele><time>2026-04-25T13:22:14Z</time></trkpt><trkpt lat="41.403599722291645" lon="14.804741646073033"><ele>652.0</ele><time>2026-04-25T13:22:15Z</time></trkpt><trkpt lat="41.403736402551104" lon="14.80472031892489"><ele>652.0</ele><time>2026-04-25T13:22:16Z</time></trkpt><trkpt lat="41.403867293898244" lon="14.804708665700373"><ele>652.0</ele><time>2026-04-25T13:22:17Z</time></trkpt><trkpt lat="41.40398994402351" lon="14.80469861674255"><ele>652.0</ele><time>2026-04-25T13:22:18Z</time></trkpt><trkpt lat="41.40409731023785" lon="14.804700429343068"><ele>652.0</ele><time>2026-04-25T13:22:19Z</time></trkpt><trkpt lat="41.404200065820646" lon="14.804708771462753"><ele>652.0</ele><time>2026-04-25T13:22:20Z</time></trkpt><trkpt lat="41.404297974511415" lon="14.804718668473331"><ele>652.0</ele><time>2026-04-25T13:22:21Z</time></trkpt><trkpt lat="41.40437261417228" lon="14.804666486709946"><ele>652.0</ele><time>2026-04-25T13:22:22Z</time></trkpt><trkpt lat="41.40447031276573" lon="14.804567412080269"><ele>652.0</ele><time>2026-04-25T13:22:24Z</time></trkpt><trkpt lat="41.40446028407391" lon="14.804460838801338"><ele>652.0</ele><time>2026-04-25T13:22:25Z</time></trkpt><trkpt lat="41.40443419245953" lon="14.80433023903715"><ele>652.0</ele><time>2026-04-25T13:22:26Z</time></trkpt><trkpt lat="41.40444252917423" lon="14.804185241204346"><ele>652.0</ele><time>2026-04-25T13:22:27Z</time></trkpt><trkpt lat="41.404450548398806" lon="14.804035120812436"><ele>650.75</ele><time>2026-04-25T13:22:28Z</time></trkpt><trkpt lat="41.404443605691164" lon="14.80386672701691"><ele>649.5</ele><time>2026-04-25T13:22:29Z</time></trkpt><trkpt lat="41.40442243699874" lon="14.803687409209527"><ele>648.25</ele><time>2026-04-25T13:22:30Z</time></trkpt><trkpt lat="41.404379720059616" lon="14.803500714368601"><ele>647.0</ele><time>2026-04-25T13:22:31Z</time></trkpt><trkpt lat="41.40432349152847" lon="14.803321050220475"><ele>644.5</ele><time>2026-04-25T13:22:32Z</time></trkpt><trkpt lat="41.40425524529592" lon="14.803159071207606"><ele>642.0</ele><time>2026-04-25T13:22:33Z</time></trkpt><trkpt lat="41.40418783363281" lon="14.802998946647683"><ele>639.5</ele><time>2026-04-25T13:22:34Z</time></trkpt><trkpt lat="41.40411862647439" lon="14.80284218639124"><ele>637.0</ele><time>2026-04-25T13:22:35Z</time></trkpt><trkpt lat="41.40404720992894" lon="14.8026860137249"><ele>635.5</ele><time>2026-04-25T13:22:36Z</time></trkpt><trkpt lat="41.40398137572852" lon="14.802524954216336"><ele>634.0</ele><time>2026-04-25T13:22:37Z</time></trkpt><trkpt lat="41.40391641903245" lon="14.802368656011216"><ele>632.5</ele><time>2026-04-25T13:22:38Z</time></trkpt><trkpt lat="41.40384368532311" lon="14.80222015625474"><ele>631.0</ele><time>2026-04-25T13:22:38.999Z</time></trkpt><trkpt lat="41.403745176755336" lon="14.802085798815613"><ele>631.0</ele><time>2026-04-25T13:22:39.999Z</time></trkpt><trkpt lat="41.40362206176536" lon="14.801969089422444"><ele>631.0</ele><time>2026-04-25T13:22:40.999Z</time></trkpt><trkpt lat="41.40347790026913" lon="14.80188506451654"><ele>631.0</ele><time>2026-04-25T13:22:41.999Z</time></trkpt><trkpt lat="41.40331559759737" lon="14.80183565236037"><ele>629.6666666666667</ele><time>2026-04-25T13:22:42.999Z</time></trkpt><trkpt lat="41.40314035673701" lon="14.801822891147822"><ele>628.3333333333334</ele><time>2026-04-25T13:22:43.999Z</time></trkpt><trkpt lat="41.40295715067223" lon="14.801850071595979"><ele>627.0</ele><time>2026-04-25T13:22:44.999Z</time></trkpt><trkpt lat="41.40278944174632" lon="14.801905812946305"><ele>627.0</ele><time>2026-04-25T13:22:45.999Z</time></trkpt><trkpt lat="41.402637435472286" lon="14.801990108264022"><ele>627.0</ele><time>2026-04-25T13:22:46.999Z</time></trkpt><trkpt lat="41.402509963075815" lon="14.802109165718665"><ele>627.0</ele><time>2026-04-25T13:22:47.999Z</time></trkpt><trkpt lat="41.40240178222696" lon="14.8022755178536"><ele>627.0</ele><time>2026-04-25T13:22:48.999Z</time></trkpt><trkpt lat="41.40230997863982" lon="14.80247945015046"><ele>627.0</ele><time>2026-04-25T13:22:49.999Z</time></trkpt><trkpt lat="41.40222672124608" lon="14.802699600002967"><ele>627.0</ele><time>2026-04-25T13:22:50.999Z</time></trkpt><trkpt lat="41.40214426906271" lon="14.802917689024746"><ele>623.3333333333334</ele><time>2026-04-25T13:22:51.999Z</time></trkpt><trkpt lat="41.402061406269034" lon="14.803126651891223"><ele>619.6666666666667</ele><time>2026-04-25T13:22:52.999Z</time></trkpt><trkpt lat="41.4019839063551" lon="14.803316910638005"><ele>616.0</ele><time>2026-04-25T13:22:53.999Z</time></trkpt><trkpt lat="41.40190963500687" lon="14.803486093330907"><ele>616.5</ele><time>2026-04-25T13:22:54.999Z</time></trkpt><trkpt lat="41.40184115542772" lon="14.803641470565097"><ele>617.0</ele><time>2026-04-25T13:22:55.999Z</time></trkpt><trkpt lat="41.40177890765852" lon="14.803775436428092"><ele>617.5</ele><time>2026-04-25T13:22:56.999Z</time></trkpt><trkpt lat="41.40171093817527" lon="14.80391083388257"><ele>618.0</ele><time>2026-04-25T13:22:57.999Z</time></trkpt><trkpt lat="41.401658989079245" lon="14.804023159519279"><ele>618.0</ele><time>2026-04-25T13:22:58.999Z</time></trkpt><trkpt lat="41.401587433030116" lon="14.804095607214151"><ele>618.0</ele><time>2026-04-25T13:23:00.999Z</time></trkpt><trkpt lat="41.40148582257498" lon="14.804001245988943"><ele>618.0</ele><time>2026-04-25T13:23:02.999Z</time></trkpt><trkpt lat="41.40146231333604" lon="14.803899325045926"><ele>618.0</ele><time>2026-04-25T13:23:03.999Z</time></trkpt><trkpt lat="41.40144412990522" lon="14.803780075672595"><ele>618.0</ele><time>2026-04-25T13:23:04.999Z</time></trkpt><trkpt lat="41.401427577996834" lon="14.803673209606922"><ele>618.0000000000001</ele><time>2026-04-25T13:23:05.999Z</time></trkpt><trkpt lat="41.40140050065053" lon="14.803576073908276"><ele>618.0</ele><time>2026-04-25T13:23:06.999Z</time></trkpt><trkpt lat="41.40140153002587" lon="14.803464883459636"><ele>618.0</ele><time>2026-04-25T13:23:07.999Z</time></trkpt><trkpt lat="41.40141825284034" lon="14.803369527592528"><ele>618.0</ele><time>2026-04-25T13:23:08.999Z</time></trkpt><trkpt lat="41.40144007128067" lon="14.803287220343005"><ele>618.0</ele><time>2026-04-25T13:23:09.999Z</time></trkpt><trkpt lat="41.40147846207695" lon="14.803217993420128"><ele>618.0000000000001</ele><time>2026-04-25T13:23:10.999Z</time></trkpt><trkpt lat="41.40153706840454" lon="14.803144851975144"><ele>618.0</ele><time>2026-04-25T13:23:11.999Z</time></trkpt><trkpt lat="41.40158621340044" lon="14.803068324340536"><ele>617.6666666666666</ele><time>2026-04-25T13:23:12.999Z</time></trkpt><trkpt lat="41.40164149847464" lon="14.802979676914113"><ele>617.3333333333334</ele><time>2026-04-25T13:23:13.999Z</time></trkpt><trkpt lat="41.40169188153246" lon="14.80289153068513"><ele>617.0</ele><time>2026-04-25T13:23:14.999Z</time></trkpt><trkpt lat="41.40174594687453" lon="14.802800436257066"><ele>616.6666666666667</ele><time>2026-04-25T13:23:15.999Z</time></trkpt><trkpt lat="41.401791329995305" lon="14.802689644281308"><ele>616.3333333333334</ele><time>2026-04-25T13:23:16.999Z</time></trkpt><trkpt lat="41.40181833011534" lon="14.802568877721134"><ele>616.0</ele><time>2026-04-25T13:23:17.999Z</time></trkpt><trkpt lat="41.40182567520916" lon="14.802435991143295"><ele>615.0</ele><time>2026-04-25T13:23:18.999Z</time></trkpt><trkpt lat="41.401796890010125" lon="14.802286829649967"><ele>614.0</ele><time>2026-04-25T13:23:19.999Z</time></trkpt><trkpt lat="41.40179823995604" lon="14.802134260255958"><ele>613.0</ele><time>2026-04-25T13:23:20.999Z</time></trkpt><trkpt lat="41.40178965581183" lon="14.801978782429897"><ele>612.0</ele><time>2026-04-25T13:23:21.999Z</time></trkpt><trkpt lat="41.40179828128227" lon="14.80182490325709"><ele>611.2</ele><time>2026-04-25T13:23:22.999Z</time></trkpt><trkpt lat="41.40180641783318" lon="14.801685865355479"><ele>610.4000000000001</ele><time>2026-04-25T13:23:23.999Z</time></trkpt><trkpt lat="41.40181696803294" lon="14.801548353437365"><ele>609.5999999999999</ele><time>2026-04-25T13:23:24.999Z</time></trkpt><trkpt lat="41.40183606002632" lon="14.80140198341143"><ele>608.8</ele><time>2026-04-25T13:23:25.999Z</time></trkpt><trkpt lat="41.40187147059542" lon="14.801290934903898"><ele>608.0</ele><time>2026-04-25T13:23:26.999Z</time></trkpt><trkpt lat="41.401922929945485" lon="14.801185915692093"><ele>608.0</ele><time>2026-04-25T13:23:27.999Z</time></trkpt><trkpt lat="41.402007953224974" lon="14.801098123745337"><ele>608.0</ele><time>2026-04-25T13:23:28.999Z</time></trkpt><trkpt lat="41.402121998836016" lon="14.801068886970361"><ele>608.0</ele><time>2026-04-25T13:23:29.999Z</time></trkpt><trkpt lat="41.40224385529169" lon="14.801017921023854"><ele>608.0</ele><time>2026-04-25T13:23:30.999Z</time></trkpt><trkpt lat="41.40238055994242" lon="14.800977118110485"><ele>608.0</ele><time>2026-04-25T13:23:31.999Z</time></trkpt><trkpt lat="41.402529369241364" lon="14.800913700180866"><ele>608.0</ele><time>2026-04-25T13:23:32.999Z</time></trkpt><trkpt lat="41.402663319217545" lon="14.800843507814811"><ele>608.0</ele><time>2026-04-25T13:23:33.999Z</time></trkpt><trkpt lat="41.40285085812187" lon="14.800766338453997"><ele>608.0</ele><time>2026-04-25T13:23:35.999Z</time></trkpt><trkpt lat="41.40299620030005" lon="14.800703567955624"><ele>608.0</ele><time>2026-04-25T13:23:36.999Z</time></trkpt><trkpt lat="41.40312094248366" lon="14.800615687934865"><ele>608.0</ele><time>2026-04-25T13:23:37.999Z</time></trkpt><trkpt lat="41.40324385673481" lon="14.800499236660723"><ele>608.0</ele><time>2026-04-25T13:23:38.999Z</time></trkpt><trkpt lat="41.40335122743795" lon="14.800379494577006"><ele>607.75</ele><time>2026-04-25T13:23:39.999Z</time></trkpt><trkpt lat="41.40345565424792" lon="14.800262031713553"><ele>607.5</ele><time>2026-04-25T13:23:40.999Z</time></trkpt><trkpt lat="41.40357056927207" lon="14.800146294152013"><ele>607.25</ele><time>2026-04-25T13:23:41.999Z</time></trkpt><trkpt lat="41.40370757057047" lon="14.80005000457207"><ele>607.0</ele><time>2026-04-25T13:23:42.999Z</time></trkpt><trkpt lat="41.40384653822604" lon="14.799965292815305"><ele>603.3333333333334</ele><time>2026-04-25T13:23:43.999Z</time></trkpt><trkpt lat="41.40400856230107" lon="14.799884122134541"><ele>599.6666666666666</ele><time>2026-04-25T13:23:44.999Z</time></trkpt><trkpt lat="41.40416662519937" lon="14.799796585108096"><ele>596.0</ele><time>2026-04-25T13:23:45.999Z</time></trkpt><trkpt lat="41.404331152060884" lon="14.799728035398486"><ele>596.0</ele><time>2026-04-25T13:23:46.999Z</time></trkpt><trkpt lat="41.40447544251274" lon="14.799656831428532"><ele>596.0</ele><time>2026-04-25T13:23:47.999Z</time></trkpt><trkpt lat="41.40461649240694" lon="14.799603670737286"><ele>596.0</ele><time>2026-04-25T13:23:48.999Z</time></trkpt><trkpt lat="41.404751036322736" lon="14.79958598484276"><ele>596.0</ele><time>2026-04-25T13:23:49.999Z</time></trkpt><trkpt lat="41.40487980283329" lon="14.799608819721017"><ele>595.6666666666666</ele><time>2026-04-25T13:23:51Z</time></trkpt><trkpt lat="41.404992756262786" lon="14.79969035459855"><ele>595.3333333333334</ele><time>2026-04-25T13:23:52Z</time></trkpt><trkpt lat="41.40513341289124" lon="14.799780814243235"><ele>595.0</ele><time>2026-04-25T13:23:53Z</time></trkpt><trkpt lat="41.40529329865935" lon="14.799854380437575"><ele>595.0</ele><time>2026-04-25T13:23:54Z</time></trkpt><trkpt lat="41.40546038102455" lon="14.7998840853787"><ele>595.0</ele><time>2026-04-25T13:23:55Z</time></trkpt><trkpt lat="41.40562570642133" lon="14.799905273601858"><ele>595.0</ele><time>2026-04-25T13:23:56Z</time></trkpt><trkpt lat="41.40578426880644" lon="14.799934367060464"><ele>591.6666666666667</ele><time>2026-04-25T13:23:57Z</time></trkpt><trkpt lat="41.40593301303429" lon="14.799982885929143"><ele>588.3333333333334</ele><time>2026-04-25T13:23:58Z</time></trkpt><trkpt lat="41.40607578740482" lon="14.800036496048161"><ele>585.0</ele><time>2026-04-25T13:23:59Z</time></trkpt><trkpt lat="41.406215364660824" lon="14.800124806140374"><ele>585.6666666666666</ele><time>2026-04-25T13:24:00Z</time></trkpt><trkpt lat="41.40633963414413" lon="14.80024730477301"><ele>586.3333333333333</ele><time>2026-04-25T13:24:01Z</time></trkpt><trkpt lat="41.40644167507859" lon="14.800408157196298"><ele>587.0</ele><time>2026-04-25T13:24:02Z</time></trkpt><trkpt lat="41.40655385501948" lon="14.800549341417938"><ele>587.0</ele><time>2026-04-25T13:24:03Z</time></trkpt><trkpt lat="41.406679083847905" lon="14.800646603425479"><ele>587.0</ele><time>2026-04-25T13:24:04Z</time></trkpt><trkpt lat="41.40680957095355" lon="14.800676413618193"><ele>587.0</ele><time>2026-04-25T13:24:05Z</time></trkpt><trkpt lat="41.40690278667629" lon="14.80068294297363"><ele>587.0</ele><time>2026-04-25T13:24:06Z</time></trkpt><trkpt lat="41.40704371752722" lon="14.800682295735072"><ele>586.25</ele><time>2026-04-25T13:24:07Z</time></trkpt><trkpt lat="41.407203898704424" lon="14.800716533804797"><ele>585.5</ele><time>2026-04-25T13:24:08Z</time></trkpt><trkpt lat="41.40734798538852" lon="14.800786208707462"><ele>584.75</ele><time>2026-04-25T13:24:09Z</time></trkpt><trkpt lat="41.40747316534873" lon="14.800829695449627"><ele>584.0</ele><time>2026-04-25T13:24:10Z</time></trkpt><trkpt lat="41.40759975657642" lon="14.800821919724626"><ele>584.0</ele><time>2026-04-25T13:24:11Z</time></trkpt><trkpt lat="41.40774050829575" lon="14.800767511003672"><ele>584.0</ele><time>2026-04-25T13:24:12Z</time></trkpt><trkpt lat="41.40788150814079" lon="14.800713777797952"><ele>584.0</ele><time>2026-04-25T13:24:13Z</time></trkpt><trkpt lat="41.40800777054133" lon="14.800662869262005"><ele>584.0</ele><time>2026-04-25T13:24:14Z</time></trkpt><trkpt lat="41.40811717560701" lon="14.800634343718674"><ele>584.0</ele><time>2026-04-25T13:24:15Z</time></trkpt><trkpt lat="41.4082139981879" lon="14.800660120663585"><ele>584.0</ele><time>2026-04-25T13:24:16Z</time></trkpt><trkpt lat="41.408287242639545" lon="14.800742748678672"><ele>584.0</ele><time>2026-04-25T13:24:17Z</time></trkpt><trkpt lat="41.40835129879884" lon="14.800869567317733"><ele>584.0</ele><time>2026-04-25T13:24:18Z</time></trkpt><trkpt lat="41.408408771869446" lon="14.801056478477559"><ele>584.0</ele><time>2026-04-25T13:24:19Z</time></trkpt><trkpt lat="41.40846195248264" lon="14.801239637932703"><ele>584.0</ele><time>2026-04-25T13:24:20Z</time></trkpt><trkpt lat="41.40852223346782" lon="14.80140842552539"><ele>584.0</ele><time>2026-04-25T13:24:21Z</time></trkpt><trkpt lat="41.40859963542437" lon="14.801536942857364"><ele>584.0</ele><time>2026-04-25T13:24:22Z</time></trkpt><trkpt lat="41.40871351045322" lon="14.801644503834837"><ele>584.0</ele><time>2026-04-25T13:24:23Z</time></trkpt><trkpt lat="41.40882398514224" lon="14.801746194774072"><ele>584.0</ele><time>2026-04-25T13:24:24Z</time></trkpt><trkpt lat="41.408948973404115" lon="14.801842334297932"><ele>584.0</ele><time>2026-04-25T13:24:25Z</time></trkpt><trkpt lat="41.40907051402145" lon="14.801897661520155"><ele>584.0</ele><time>2026-04-25T13:24:26Z</time></trkpt><trkpt lat="41.40921845076423" lon="14.801979856729746"><ele>584.25</ele><time>2026-04-25T13:24:27Z</time></trkpt><trkpt lat="41.409364244055446" lon="14.802016688737968"><ele>584.5</ele><time>2026-04-25T13:24:28Z</time></trkpt><trkpt lat="41.40951017759877" lon="14.802032268193578"><ele>584.75</ele><time>2026-04-25T13:24:29Z</time></trkpt><trkpt lat="41.409644964721664" lon="14.802046947841758"><ele>585.0</ele><time>2026-04-25T13:24:30Z</time></trkpt><trkpt lat="41.40976783454534" lon="14.802066785411485"><ele>583.4</ele><time>2026-04-25T13:24:31Z</time></trkpt><trkpt lat="41.409885796567295" lon="14.802081456477135"><ele>581.8</ele><time>2026-04-25T13:24:32Z</time></trkpt><trkpt lat="41.41000770702849" lon="14.802070579209088"><ele>580.2</ele><time>2026-04-25T13:24:33Z</time></trkpt><trkpt lat="41.41009727547239" lon="14.802039960394117"><ele>578.6</ele><time>2026-04-25T13:24:34Z</time></trkpt><trkpt lat="41.41019535189475" lon="14.801993078425495"><ele>577.0</ele><time>2026-04-25T13:24:35Z</time></trkpt><trkpt lat="41.410280220766445" lon="14.801947400167464"><ele>577.0</ele><time>2026-04-25T13:24:36Z</time></trkpt><trkpt lat="41.41033756406782" lon="14.801894985273867"><ele>577.0</ele><time>2026-04-25T13:24:37Z</time></trkpt><trkpt lat="41.410382705777096" lon="14.801827172597688"><ele>577.0</ele><time>2026-04-25T13:24:38Z</time></trkpt><trkpt lat="41.41041636414927" lon="14.80174991699478"><ele>577.0</ele><time>2026-04-25T13:24:39Z</time></trkpt><trkpt lat="41.410381467925355" lon="14.801612079222618"><ele>577.0</ele><time>2026-04-25T13:24:40Z</time></trkpt><trkpt lat="41.41035217177741" lon="14.801490715818476"><ele>577.0</ele><time>2026-04-25T13:24:40.999Z</time></trkpt><trkpt lat="41.410323333628455" lon="14.801355562838994"><ele>575.5</ele><time>2026-04-25T13:24:41.999Z</time></trkpt><trkpt lat="41.41027517864625" lon="14.80118362646349"><ele>574.0</ele><time>2026-04-25T13:24:42.999Z</time></trkpt><trkpt lat="41.41022343809586" lon="14.801012064790815"><ele>572.5</ele><time>2026-04-25T13:24:43.999Z</time></trkpt><trkpt lat="41.41017550056178" lon="14.800845750457174"><ele>571.0</ele><time>2026-04-25T13:24:44.999Z</time></trkpt><trkpt lat="41.410105851863214" lon="14.800686830240682"><ele>571.0</ele><time>2026-04-25T13:24:45.999Z</time></trkpt><trkpt lat="41.41004445402846" lon="14.800528227173347"><ele>571.0</ele><time>2026-04-25T13:24:46.999Z</time></trkpt><trkpt lat="41.409975341543316" lon="14.800369978597658"><ele>571.0</ele><time>2026-04-25T13:24:47.999Z</time></trkpt><trkpt lat="41.409903127952596" lon="14.800209791604019"><ele>571.0</ele><time>2026-04-25T13:24:48.999Z</time></trkpt><trkpt lat="41.40982918107406" lon="14.800010308900696"><ele>569.6666666666667</ele><time>2026-04-25T13:24:49.999Z</time></trkpt><trkpt lat="41.4097582051725" lon="14.799796507482593"><ele>568.3333333333334</ele><time>2026-04-25T13:24:50.999Z</time></trkpt><trkpt lat="41.409702025004016" lon="14.799564820918404"><ele>567.0</ele><time>2026-04-25T13:24:51.999Z</time></trkpt><trkpt lat="41.409615621123834" lon="14.799367080664782"><ele>570.0</ele><time>2026-04-25T13:24:52.999Z</time></trkpt><trkpt lat="41.40952968361279" lon="14.799198065273982"><ele>573.0</ele><time>2026-04-25T13:24:53.999Z</time></trkpt><trkpt lat="41.40945280510846" lon="14.799004779928731"><ele>576.0</ele><time>2026-04-25T13:24:54.999Z</time></trkpt><trkpt lat="41.40938313367019" lon="14.79880510570577"><ele>576.0</ele><time>2026-04-25T13:24:55.999Z</time></trkpt><trkpt lat="41.40930174149176" lon="14.798633046020669"><ele>576.0</ele><time>2026-04-25T13:24:56.999Z</time></trkpt><trkpt lat="41.40921976757862" lon="14.798468376099704"><ele>576.0</ele><time>2026-04-25T13:24:57.999Z</time></trkpt><trkpt lat="41.409156369817296" lon="14.798326763203372"><ele>576.0</ele><time>2026-04-25T13:24:58.999Z</time></trkpt><trkpt lat="41.409056999445575" lon="14.79822851331694"><ele>575.5</ele><time>2026-04-25T13:24:59.999Z</time></trkpt><trkpt lat="41.40892738598326" lon="14.7981460556857"><ele>575.0</ele><time>2026-04-25T13:25:00.999Z</time></trkpt><trkpt lat="41.4087713007017" lon="14.798052630922948"><ele>574.5</ele><time>2026-04-25T13:25:01.999Z</time></trkpt><trkpt lat="41.4086646244666" lon="14.797958065633399"><ele>574.0</ele><time>2026-04-25T13:25:02.999Z</time></trkpt><trkpt lat="41.40858238260368" lon="14.797825017366721"><ele>574.0</ele><time>2026-04-25T13:25:03.999Z</time></trkpt><trkpt lat="41.408511798160035" lon="14.797669443390925"><ele>574.0</ele><time>2026-04-25T13:25:04.999Z</time></trkpt><trkpt lat="41.40846844635851" lon="14.797477131733592"><ele>574.0</ele><time>2026-04-25T13:25:05.999Z</time></trkpt><trkpt lat="41.40842081968428" lon="14.797266051338903"><ele>578.5</ele><time>2026-04-25T13:25:06.999Z</time></trkpt><trkpt lat="41.408385780360355" lon="14.797088843210155"><ele>583.0</ele><time>2026-04-25T13:25:07.999Z</time></trkpt><trkpt lat="41.40837257312369" lon="14.79690151436721"><ele>587.5</ele><time>2026-04-25T13:25:08.999Z</time></trkpt><trkpt lat="41.4083962860746" lon="14.796696959458329"><ele>592.0</ele><time>2026-04-25T13:25:09.999Z</time></trkpt><trkpt lat="41.408410653705594" lon="14.796485330140959"><ele>593.5</ele><time>2026-04-25T13:25:10.999Z</time></trkpt><trkpt lat="41.40840560686754" lon="14.79628092129831"><ele>595.0</ele><time>2026-04-25T13:25:11.999Z</time></trkpt><trkpt lat="41.40836821244731" lon="14.796100694864588"><ele>596.5</ele><time>2026-04-25T13:25:12.999Z</time></trkpt><trkpt lat="41.40831177214232" lon="14.795967314648108"><ele>598.0</ele><time>2026-04-25T13:25:13.999Z</time></trkpt><trkpt lat="41.408291077367004" lon="14.795841593945799"><ele>598.0</ele><time>2026-04-25T13:25:14.999Z</time></trkpt><trkpt lat="41.40832226561302" lon="14.795740618440814"><ele>598.0</ele><time>2026-04-25T13:25:15.999Z</time></trkpt><trkpt lat="41.40840028465612" lon="14.795655054526097"><ele>598.0</ele><time>2026-04-25T13:25:16.999Z</time></trkpt><trkpt lat="41.40851825325368" lon="14.795649805990163"><ele>598.0</ele><time>2026-04-25T13:25:17.999Z</time></trkpt><trkpt lat="41.408640575865846" lon="14.79570106153477"><ele>598.0</ele><time>2026-04-25T13:25:18.999Z</time></trkpt><trkpt lat="41.408778372406765" lon="14.795775193752636"><ele>601.0</ele><time>2026-04-25T13:25:19.999Z</time></trkpt><trkpt lat="41.40893238320467" lon="14.795850470252788"><ele>604.0</ele><time>2026-04-25T13:25:20.999Z</time></trkpt><trkpt lat="41.40906867775404" lon="14.795920202237728"><ele>607.0</ele><time>2026-04-25T13:25:21.999Z</time></trkpt><trkpt lat="41.40918861168926" lon="14.7959786847789"><ele>610.0</ele><time>2026-04-25T13:25:22.999Z</time></trkpt><trkpt lat="41.409331930898155" lon="14.79600296342242"><ele>610.0</ele><time>2026-04-25T13:25:23.999Z</time></trkpt><trkpt lat="41.4094596391349" lon="14.796008890280103"><ele>610.0</ele><time>2026-04-25T13:25:24.999Z</time></trkpt><trkpt lat="41.40957742854367" lon="14.795946220704426"><ele>610.0</ele><time>2026-04-25T13:25:25.999Z</time></trkpt><trkpt lat="41.409679668252636" lon="14.795863011620101"><ele>610.0</ele><time>2026-04-25T13:25:26.999Z</time></trkpt><trkpt lat="41.40977857140594" lon="14.79574509529749"><ele>612.0</ele><time>2026-04-25T13:25:27.999Z</time></trkpt><trkpt lat="41.4099045290729" lon="14.795625356535224"><ele>614.0</ele><time>2026-04-25T13:25:28.999Z</time></trkpt><trkpt lat="41.410029714622624" lon="14.79549001446403"><ele>616.0</ele><time>2026-04-25T13:25:29.999Z</time></trkpt><trkpt lat="41.41016202292776" lon="14.79537121570934"><ele>616.0</ele><time>2026-04-25T13:25:30.999Z</time></trkpt><trkpt lat="41.41027887514466" lon="14.7952735202875"><ele>616.0</ele><time>2026-04-25T13:25:31.999Z</time></trkpt><trkpt lat="41.410375529326934" lon="14.795156831132644"><ele>616.0</ele><time>2026-04-25T13:25:32.999Z</time></trkpt><trkpt lat="41.41045803063202" lon="14.795001590566233"><ele>616.0</ele><time>2026-04-25T13:25:33.999Z</time></trkpt><trkpt lat="41.4105063405385" lon="14.794828210857013"><ele>617.0</ele><time>2026-04-25T13:25:34.999Z</time></trkpt><trkpt lat="41.41052841350956" lon="14.794641260288671"><ele>618.0</ele><time>2026-04-25T13:25:35.999Z</time></trkpt><trkpt lat="41.4105243632547" lon="14.794438915935984"><ele>619.0</ele><time>2026-04-25T13:25:36.999Z</time></trkpt><trkpt lat="41.41052988222522" lon="14.794237790612407"><ele>620.0</ele><time>2026-04-25T13:25:37.999Z</time></trkpt><trkpt lat="41.4105389274831" lon="14.794073827548734"><ele>620.0</ele><time>2026-04-25T13:25:38.999Z</time></trkpt><trkpt lat="41.410569260535034" lon="14.793931699957714"><ele>620.0</ele><time>2026-04-25T13:25:39.999Z</time></trkpt><trkpt lat="41.41060772103001" lon="14.79380634444005"><ele>620.0</ele><time>2026-04-25T13:25:40.999Z</time></trkpt><trkpt lat="41.41069198505658" lon="14.793726369655406"><ele>620.0</ele><time>2026-04-25T13:25:41.999Z</time></trkpt><trkpt lat="41.41078121279825" lon="14.793713785829548"><ele>620.0</ele><time>2026-04-25T13:25:42.999Z</time></trkpt><trkpt lat="41.410899043802445" lon="14.793755929785789"><ele>620.0</ele><time>2026-04-25T13:25:43.999Z</time></trkpt><trkpt lat="41.41103556508113" lon="14.793839606589465"><ele>620.0</ele><time>2026-04-25T13:25:44.999Z</time></trkpt><trkpt lat="41.41118007425562" lon="14.793934826818711"><ele>620.0</ele><time>2026-04-25T13:25:45.999Z</time></trkpt><trkpt lat="41.41132885413998" lon="14.793985155806388"><ele>620.6666666666666</ele><time>2026-04-25T13:25:46.999Z</time></trkpt><trkpt lat="41.411479287319544" lon="14.793988910886993"><ele>621.3333333333334</ele><time>2026-04-25T13:25:47.999Z</time></trkpt><trkpt lat="41.41163715765303" lon="14.793958474454682"><ele>622.0</ele><time>2026-04-25T13:25:48.999Z</time></trkpt><trkpt lat="41.411811186421964" lon="14.79392043729961"><ele>622.0</ele><time>2026-04-25T13:25:49.999Z</time></trkpt><trkpt lat="41.41196387159201" lon="14.793905275336476"><ele>622.0</ele><time>2026-04-25T13:25:50.999Z</time></trkpt><trkpt lat="41.412092759954355" lon="14.793893039848172"><ele>622.0</ele><time>2026-04-25T13:25:51.999Z</time></trkpt><trkpt lat="41.412196652535" lon="14.793853873497712"><ele>622.0</ele><time>2026-04-25T13:25:52.999Z</time></trkpt><trkpt lat="41.41228696534848" lon="14.793770684824352"><ele>623.75</ele><time>2026-04-25T13:25:53.999Z</time></trkpt><trkpt lat="41.412347870471436" lon="14.793645926411719"><ele>625.5</ele><time>2026-04-25T13:25:54.999Z</time></trkpt><trkpt lat="41.41235322448363" lon="14.79347039107141"><ele>627.25</ele><time>2026-04-25T13:25:55.999Z</time></trkpt><trkpt lat="41.41234543401655" lon="14.793273318441555"><ele>629.0</ele><time>2026-04-25T13:25:57Z</time></trkpt><trkpt lat="41.412346629856685" lon="14.793042038485234"><ele>629.0</ele><time>2026-04-25T13:25:58Z</time></trkpt><trkpt lat="41.41233624222641" lon="14.792828950395934"><ele>629.0</ele><time>2026-04-25T13:25:59Z</time></trkpt><trkpt lat="41.4123845047008" lon="14.792665977944925"><ele>629.0</ele><time>2026-04-25T13:26:00Z</time></trkpt><trkpt lat="41.4124516944672" lon="14.792506047037584"><ele>629.0</ele><time>2026-04-25T13:26:01Z</time></trkpt><trkpt lat="41.41253642653457" lon="14.792302006510832"><ele>629.0</ele><time>2026-04-25T13:26:02Z</time></trkpt><trkpt lat="41.41262984024716" lon="14.792148442192333"><ele>629.0</ele><time>2026-04-25T13:26:03Z</time></trkpt><trkpt lat="41.41272559060145" lon="14.791999767900778"><ele>629.0</ele><time>2026-04-25T13:26:04Z</time></trkpt><trkpt lat="41.41286197560816" lon="14.791881882990985"><ele>631.0</ele><time>2026-04-25T13:26:05Z</time></trkpt><trkpt lat="41.41300710257849" lon="14.791762925262914"><ele>633.0</ele><time>2026-04-25T13:26:06Z</time></trkpt><trkpt lat="41.41318780608567" lon="14.791661078889376"><ele>635.0</ele><time>2026-04-25T13:26:07Z</time></trkpt><trkpt lat="41.413380183368886" lon="14.791555648073388"><ele>635.0</ele><time>2026-04-25T13:26:08Z</time></trkpt><trkpt lat="41.41352634590458" lon="14.791461187797664"><ele>635.0</ele><time>2026-04-25T13:26:09Z</time></trkpt><trkpt lat="41.41367257702251" lon="14.79136970363525"><ele>635.0</ele><time>2026-04-25T13:26:10Z</time></trkpt><trkpt lat="41.41380358879123" lon="14.791306223572136"><ele>636.75</ele><time>2026-04-25T13:26:11Z</time></trkpt><trkpt lat="41.41392087144639" lon="14.791280380052271"><ele>638.5</ele><time>2026-04-25T13:26:12Z</time></trkpt><trkpt lat="41.41407028048577" lon="14.791328622090424"><ele>640.25</ele><time>2026-04-25T13:26:13Z</time></trkpt><trkpt lat="41.414234314524634" lon="14.791394320109985"><ele>642.0</ele><time>2026-04-25T13:26:14Z</time></trkpt><trkpt lat="41.41440354376021" lon="14.791472171475949"><ele>642.0</ele><time>2026-04-25T13:26:15Z</time></trkpt><trkpt lat="41.41457598665061" lon="14.791520521364571"><ele>642.0</ele><time>2026-04-25T13:26:16Z</time></trkpt><trkpt lat="41.414763131889856" lon="14.791556371571327"><ele>642.0</ele><time>2026-04-25T13:26:17Z</time></trkpt><trkpt lat="41.41496591450188" lon="14.791548901912115"><ele>643.0</ele><time>2026-04-25T13:26:18Z</time></trkpt><trkpt lat="41.4151724932682" lon="14.791549791474669"><ele>644.0</ele><time>2026-04-25T13:26:19Z</time></trkpt><trkpt lat="41.415343294344154" lon="14.791552324041472"><ele>645.0</ele><time>2026-04-25T13:26:20Z</time></trkpt><trkpt lat="41.415501942799196" lon="14.791546376715166"><ele>647.6666666666666</ele><time>2026-04-25T13:26:21Z</time></trkpt><trkpt lat="41.415660717866686" lon="14.791465619902509"><ele>650.3333333333333</ele><time>2026-04-25T13:26:22Z</time></trkpt><trkpt lat="41.41581242059632" lon="14.79136755908968"><ele>653.0</ele><time>2026-04-25T13:26:23Z</time></trkpt><trkpt lat="41.415941169857646" lon="14.791294853850232"><ele>653.0</ele><time>2026-04-25T13:26:24Z</time></trkpt><trkpt lat="41.416086809461056" lon="14.791319358690886"><ele>653.0</ele><time>2026-04-25T13:26:25Z</time></trkpt><trkpt lat="41.41624653746657" lon="14.791325725702995"><ele>653.0</ele><time>2026-04-25T13:26:26Z</time></trkpt><trkpt lat="41.41640168681831" lon="14.791314631679647"><ele>655.3333333333333</ele><time>2026-04-25T13:26:27Z</time></trkpt><trkpt lat="41.41652795725268" lon="14.791282828493326"><ele>657.6666666666666</ele><time>2026-04-25T13:26:28Z</time></trkpt><trkpt lat="41.4166594619301" lon="14.791187435015349"><ele>660.0</ele><time>2026-04-25T13:26:29Z</time></trkpt><trkpt lat="41.41681127075319" lon="14.791061855238485"><ele>657.6666666666666</ele><time>2026-04-25T13:26:30Z</time></trkpt><trkpt lat="41.416968409833814" lon="14.790871049446727"><ele>655.3333333333333</ele><time>2026-04-25T13:26:31Z</time></trkpt><trkpt lat="41.417137286356194" lon="14.79074058438723"><ele>653.0</ele><time>2026-04-25T13:26:32Z</time></trkpt><trkpt lat="41.41732343876147" lon="14.790641841916466"><ele>653.0</ele><time>2026-04-25T13:26:33Z</time></trkpt><trkpt lat="41.41754126991823" lon="14.790542057443988"><ele>653.0</ele><time>2026-04-25T13:26:34Z</time></trkpt><trkpt lat="41.417776982174644" lon="14.79043535579614"><ele>656.0</ele><time>2026-04-25T13:26:35Z</time></trkpt><trkpt lat="41.41801584098443" lon="14.790311234752282"><ele>659.0</ele><time>2026-04-25T13:26:36Z</time></trkpt><trkpt lat="41.41826919392113" lon="14.7902393791537"><ele>650.0</ele><time>2026-04-25T13:26:37Z</time></trkpt><trkpt lat="41.41851140052127" lon="14.790160210199579"><ele>641.0</ele><time>2026-04-25T13:26:38Z</time></trkpt><trkpt lat="41.41872127227532" lon="14.790112062308005"><ele>642.3333333333333</ele><time>2026-04-25T13:26:39Z</time></trkpt><trkpt lat="41.41890059078703" lon="14.790069257313567"><ele>643.6666666666666</ele><time>2026-04-25T13:26:40Z</time></trkpt><trkpt lat="41.41904987845231" lon="14.790014103469744"><ele>645.0</ele><time>2026-04-25T13:26:41Z</time></trkpt><trkpt lat="41.41917062033235" lon="14.789991709174798"><ele>645.0</ele><time>2026-04-25T13:26:42Z</time></trkpt><trkpt lat="41.41932390091702" lon="14.789912845527295"><ele>645.0</ele><time>2026-04-25T13:26:43Z</time></trkpt><trkpt lat="41.41945242483663" lon="14.789852250586875"><ele>645.0</ele><time>2026-04-25T13:26:44Z</time></trkpt><trkpt lat="41.41953927566636" lon="14.78974042425945"><ele>645.0</ele><time>2026-04-25T13:26:45Z</time></trkpt><trkpt lat="41.41960189558465" lon="14.78960562469032"><ele>645.0</ele><time>2026-04-25T13:26:46Z</time></trkpt><trkpt lat="41.41962677581734" lon="14.789422752277533"><ele>645.0</ele><time>2026-04-25T13:26:47Z</time></trkpt><trkpt lat="41.419632748331665" lon="14.78920834958365"><ele>645.0</ele><time>2026-04-25T13:26:48Z</time></trkpt><trkpt lat="41.419648624098535" lon="14.788992254563126"><ele>646.0</ele><time>2026-04-25T13:26:49Z</time></trkpt><trkpt lat="41.41966463431601" lon="14.788824669988788"><ele>647.0</ele><time>2026-04-25T13:26:50Z</time></trkpt><trkpt lat="41.41964824760561" lon="14.78865306130903"><ele>648.0</ele><time>2026-04-25T13:26:51Z</time></trkpt><trkpt lat="41.419573150575175" lon="14.78850878429144"><ele>649.0</ele><time>2026-04-25T13:26:51.999Z</time></trkpt><trkpt lat="41.4194700986228" lon="14.788365187670923"><ele>647.0</ele><time>2026-04-25T13:26:52.999Z</time></trkpt><trkpt lat="41.41934232498305" lon="14.788237364444994"><ele>645.0</ele><time>2026-04-25T13:26:53.999Z</time></trkpt><trkpt lat="41.41921274087303" lon="14.788157580818249"><ele>643.0</ele><time>2026-04-25T13:26:54.999Z</time></trkpt><trkpt lat="41.419068387024595" lon="14.788121419619388"><ele>641.0</ele><time>2026-04-25T13:26:55.999Z</time></trkpt><trkpt lat="41.418903889984854" lon="14.78811604560448"><ele>640.6666666666666</ele><time>2026-04-25T13:26:56.999Z</time></trkpt><trkpt lat="41.418715303740136" lon="14.78813573025669"><ele>640.3333333333334</ele><time>2026-04-25T13:26:57.999Z</time></trkpt><trkpt lat="41.41855865692854" lon="14.788099440634916"><ele>640.0</ele><time>2026-04-25T13:26:58.999Z</time></trkpt><trkpt lat="41.418432831122466" lon="14.788050712584003"><ele>640.0</ele><time>2026-04-25T13:26:59.999Z</time></trkpt><trkpt lat="41.41835423633464" lon="14.787944309986111"><ele>640.0</ele><time>2026-04-25T13:27:00.999Z</time></trkpt><trkpt lat="41.418254428017825" lon="14.787820784086298"><ele>640.0</ele><time>2026-04-25T13:27:01.999Z</time></trkpt><trkpt lat="41.41812941085885" lon="14.787753599199407"><ele>640.0</ele><time>2026-04-25T13:27:02.999Z</time></trkpt><trkpt lat="41.41798094350383" lon="14.787706919852061"><ele>639.3333333333334</ele><time>2026-04-25T13:27:03.999Z</time></trkpt><trkpt lat="41.4177886239102" lon="14.787690958174238"><ele>638.6666666666666</ele><time>2026-04-25T13:27:04.999Z</time></trkpt><trkpt lat="41.41759316876029" lon="14.7876769385571"><ele>638.0</ele><time>2026-04-25T13:27:05.999Z</time></trkpt><trkpt lat="41.41741423591025" lon="14.787629985460931"><ele>640.25</ele><time>2026-04-25T13:27:06.999Z</time></trkpt><trkpt lat="41.41727590461342" lon="14.78757242135093"><ele>642.5</ele><time>2026-04-25T13:27:07.999Z</time></trkpt><trkpt lat="41.41716857987631" lon="14.78748045307009"><ele>644.75</ele><time>2026-04-25T13:27:08.999Z</time></trkpt><trkpt lat="41.417113839801" lon="14.787336417464113"><ele>647.0</ele><time>2026-04-25T13:27:09.999Z</time></trkpt><trkpt lat="41.417051608764375" lon="14.78715723467291"><ele>647.0</ele><time>2026-04-25T13:27:10.999Z</time></trkpt><trkpt lat="41.4169860326091" lon="14.786961037579188"><ele>647.0</ele><time>2026-04-25T13:27:11.999Z</time></trkpt><trkpt lat="41.41691668358462" lon="14.786794743447992"><ele>647.0</ele><time>2026-04-25T13:27:12.999Z</time></trkpt><trkpt lat="41.41687142420859" lon="14.78665752559682"><ele>647.0</ele><time>2026-04-25T13:27:13.999Z</time></trkpt><trkpt lat="41.41679906355495" lon="14.786566848521124"><ele>650.0</ele><time>2026-04-25T13:27:14.999Z</time></trkpt><trkpt lat="41.41668360217313" lon="14.786496884720266"><ele>653.0</ele><time>2026-04-25T13:27:15.999Z</time></trkpt><trkpt lat="41.4165336341366" lon="14.786435837747359"><ele>656.0</ele><time>2026-04-25T13:27:16.999Z</time></trkpt><trkpt lat="41.416412538102115" lon="14.786350011074314"><ele>659.0</ele><time>2026-04-25T13:27:17.999Z</time></trkpt><trkpt lat="41.41630795544161" lon="14.786292455287182"><ele>661.0</ele><time>2026-04-25T13:27:18.999Z</time></trkpt><trkpt lat="41.41621269945051" lon="14.786306624079689"><ele>663.0</ele><time>2026-04-25T13:27:19.999Z</time></trkpt><trkpt lat="41.41611586917885" lon="14.786397779689697"><ele>665.0</ele><time>2026-04-25T13:27:20.999Z</time></trkpt><trkpt lat="41.41601494437022" lon="14.786555238001021"><ele>667.0</ele><time>2026-04-25T13:27:21.999Z</time></trkpt><trkpt lat="41.41588276531466" lon="14.78671655569788"><ele>666.25</ele><time>2026-04-25T13:27:22.999Z</time></trkpt><trkpt lat="41.4157627006746" lon="14.786851906618862"><ele>665.5</ele><time>2026-04-25T13:27:23.999Z</time></trkpt><trkpt lat="41.415658049791496" lon="14.786937394052927"><ele>664.75</ele><time>2026-04-25T13:27:24.999Z</time></trkpt><trkpt lat="41.415521659910986" lon="14.786968861125347"><ele>664.0</ele><time>2026-04-25T13:27:25.999Z</time></trkpt><trkpt lat="41.41534605731327" lon="14.78703650522652"><ele>664.0</ele><time>2026-04-25T13:27:26.999Z</time></trkpt><trkpt lat="41.41517898268723" lon="14.78711841164807"><ele>664.0</ele><time>2026-04-25T13:27:27.999Z</time></trkpt><trkpt lat="41.415062189362196" lon="14.787117190984254"><ele>664.0</ele><time>2026-04-25T13:27:28.999Z</time></trkpt><trkpt lat="41.41496856117195" lon="14.787115131488466"><ele>664.0</ele><time>2026-04-25T13:27:29.999Z</time></trkpt><trkpt lat="41.414878816427674" lon="14.787004575735244"><ele>664.0</ele><time>2026-04-25T13:27:30.999Z</time></trkpt><trkpt lat="41.41476923340917" lon="14.78686841082427"><ele>664.0</ele><time>2026-04-25T13:27:31.999Z</time></trkpt><trkpt lat="41.414678941220984" lon="14.786757728361735"><ele>664.0</ele><time>2026-04-25T13:27:32.999Z</time></trkpt><trkpt lat="41.41465845108341" lon="14.786637262525671"><ele>664.0</ele><time>2026-04-25T13:27:33.999Z</time></trkpt><trkpt lat="41.414693206943646" lon="14.786489925998241"><ele>666.6666666666667</ele><time>2026-04-25T13:27:34.999Z</time></trkpt><trkpt lat="41.414789375984974" lon="14.78632449877212"><ele>669.3333333333334</ele><time>2026-04-25T13:27:35.999Z</time></trkpt><trkpt lat="41.414839548750656" lon="14.786111831899124"><ele>672.0</ele><time>2026-04-25T13:27:36.999Z</time></trkpt><trkpt lat="41.41488788675084" lon="14.785911282539487"><ele>674.3333333333334</ele><time>2026-04-25T13:27:37.999Z</time></trkpt><trkpt lat="41.414905554112" lon="14.785706783600771"><ele>676.6666666666667</ele><time>2026-04-25T13:27:38.999Z</time></trkpt><trkpt lat="41.41488479342659" lon="14.785504774718333"><ele>679.0</ele><time>2026-04-25T13:27:39.999Z</time></trkpt><trkpt lat="41.414846434604875" lon="14.78530655678006"><ele>681.5</ele><time>2026-04-25T13:27:40.999Z</time></trkpt><trkpt lat="41.41482266566689" lon="14.785110769214493"><ele>684.0</ele><time>2026-04-25T13:27:41.999Z</time></trkpt><trkpt lat="41.41481521174624" lon="14.784921561281008"><ele>686.5</ele><time>2026-04-25T13:27:42.999Z</time></trkpt><trkpt lat="41.414819570546136" lon="14.784737222147607"><ele>689.0</ele><time>2026-04-25T13:27:43.999Z</time></trkpt><trkpt lat="41.414830099947785" lon="14.784566423455635"><ele>689.0</ele><time>2026-04-25T13:27:44.999Z</time></trkpt><trkpt lat="41.41478563706344" lon="14.784408355984759"><ele>689.0</ele><time>2026-04-25T13:27:45.999Z</time></trkpt><trkpt lat="41.4147166544395" lon="14.784286970420995"><ele>689.0</ele><time>2026-04-25T13:27:46.999Z</time></trkpt><trkpt lat="41.41462011066572" lon="14.784212636765384"><ele>689.0</ele><time>2026-04-25T13:27:47.999Z</time></trkpt><trkpt lat="41.414480068671864" lon="14.78418993744436"><ele>690.75</ele><time>2026-04-25T13:27:48.999Z</time></trkpt><trkpt lat="41.41434294743422" lon="14.784220752268238"><ele>692.5</ele><time>2026-04-25T13:27:49.999Z</time></trkpt><trkpt lat="41.41421530073894" lon="14.784290875915882"><ele>694.25</ele><time>2026-04-25T13:27:50.999Z</time></trkpt><trkpt lat="41.414101112482875" lon="14.784320314700441"><ele>696.0</ele><time>2026-04-25T13:27:51.999Z</time></trkpt><trkpt lat="41.41399334727681" lon="14.78429754555112"><ele>696.0</ele><time>2026-04-25T13:27:52.999Z</time></trkpt><trkpt lat="41.41386114680096" lon="14.784237963596434"><ele>696.0</ele><time>2026-04-25T13:27:53.999Z</time></trkpt><trkpt lat="41.413728254972526" lon="14.784186209857964"><ele>696.0</ele><time>2026-04-25T13:27:54.999Z</time></trkpt><trkpt lat="41.41360167308242" lon="14.784139492224892"><ele>696.0</ele><time>2026-04-25T13:27:55.999Z</time></trkpt><trkpt lat="41.413459190308906" lon="14.784089887130955"><ele>696.6666666666666</ele><time>2026-04-25T13:27:56.999Z</time></trkpt><trkpt lat="41.41330391642373" lon="14.784015087470115"><ele>697.3333333333333</ele><time>2026-04-25T13:27:57.999Z</time></trkpt><trkpt lat="41.413180665669174" lon="14.783922335671889"><ele>698.0</ele><time>2026-04-25T13:27:58.999Z</time></trkpt><trkpt lat="41.41305178463777" lon="14.783805766783743"><ele>694.3333333333333</ele><time>2026-04-25T13:27:59.999Z</time></trkpt><trkpt lat="41.41290103752724" lon="14.78373988330177"><ele>690.6666666666666</ele><time>2026-04-25T13:28:00.999Z</time></trkpt><trkpt lat="41.41275855882286" lon="14.783699685272206"><ele>687.0</ele><time>2026-04-25T13:28:01.999Z</time></trkpt><trkpt lat="41.412592574057044" lon="14.783705747730231"><ele>687.0</ele><time>2026-04-25T13:28:03Z</time></trkpt><trkpt lat="41.41246691439295" lon="14.783659825674997"><ele>687.0</ele><time>2026-04-25T13:28:04Z</time></trkpt><trkpt lat="41.41237584329719" lon="14.783616487742975"><ele>687.0</ele><time>2026-04-25T13:28:05Z</time></trkpt><trkpt lat="41.41230696842524" lon="14.783492367149915"><ele>687.0</ele><time>2026-04-25T13:28:06Z</time></trkpt><trkpt lat="41.41218895114708" lon="14.783325773515504"><ele>689.25</ele><time>2026-04-25T13:28:07Z</time></trkpt><trkpt lat="41.4120620506641" lon="14.783170690963024"><ele>691.5</ele><time>2026-04-25T13:28:08Z</time></trkpt><trkpt lat="41.41196939475278" lon="14.783047660116955"><ele>693.75</ele><time>2026-04-25T13:28:09Z</time></trkpt><trkpt lat="41.4118732787171" lon="14.782967715400417"><ele>696.0</ele><time>2026-04-25T13:28:10Z</time></trkpt><trkpt lat="41.411726483661965" lon="14.78289196546737"><ele>696.0</ele><time>2026-04-25T13:28:11Z</time></trkpt><trkpt lat="41.411575614859814" lon="14.782799091436695"><ele>696.0</ele><time>2026-04-25T13:28:12Z</time></trkpt><trkpt lat="41.41144174259493" lon="14.782756344477523"><ele>696.0</ele><time>2026-04-25T13:28:13Z</time></trkpt><trkpt lat="41.411343541938244" lon="14.782685656418803"><ele>696.0</ele><time>2026-04-25T13:28:14Z</time></trkpt><trkpt lat="41.41126457773434" lon="14.782688447810296"><ele>699.3333333333334</ele><time>2026-04-25T13:28:15Z</time></trkpt><trkpt lat="41.4111505213531" lon="14.78275576069638"><ele>702.6666666666667</ele><time>2026-04-25T13:28:16Z</time></trkpt><trkpt lat="41.41099092927084" lon="14.782880624223441"><ele>706.0</ele><time>2026-04-25T13:28:17Z</time></trkpt><trkpt lat="41.410874427043765" lon="14.783004289594576"><ele>706.0</ele><time>2026-04-25T13:28:18Z</time></trkpt><trkpt lat="41.4108000262449" lon="14.783140505306953"><ele>706.0</ele><time>2026-04-25T13:28:19Z</time></trkpt><trkpt lat="41.41069628985224" lon="14.783230147124074"><ele>706.0</ele><time>2026-04-25T13:28:20Z</time></trkpt><trkpt lat="41.41060222619404" lon="14.783321297250227"><ele>706.0</ele><time>2026-04-25T13:28:21Z</time></trkpt><trkpt lat="41.41045722992926" lon="14.783307576194938"><ele>709.3333333333334</ele><time>2026-04-25T13:28:22Z</time></trkpt><trkpt lat="41.410268030402854" lon="14.783321089170805"><ele>712.6666666666666</ele><time>2026-04-25T13:28:23Z</time></trkpt><trkpt lat="41.410099769661734" lon="14.783322530332644"><ele>716.0</ele><time>2026-04-25T13:28:24Z</time></trkpt><trkpt lat="41.40992225846662" lon="14.783345306918891"><ele>716.0</ele><time>2026-04-25T13:28:25Z</time></trkpt><trkpt lat="41.40977351041814" lon="14.783393294912699"><ele>716.0</ele><time>2026-04-25T13:28:26Z</time></trkpt><trkpt lat="41.40964847076486" lon="14.7834677186379"><ele>716.0</ele><time>2026-04-25T13:28:27Z</time></trkpt><trkpt lat="41.40953791965591" lon="14.783482085847954"><ele>716.0</ele><time>2026-04-25T13:28:28Z</time></trkpt><trkpt lat="41.40942016468534" lon="14.783459534961143"><ele>716.0</ele><time>2026-04-25T13:28:29Z</time></trkpt><trkpt lat="41.40933419194384" lon="14.783340082453563"><ele>716.0</ele><time>2026-04-25T13:28:30Z</time></trkpt><trkpt lat="41.40922542622675" lon="14.783191155531249"><ele>716.0</ele><time>2026-04-25T13:28:31Z</time></trkpt><trkpt lat="41.40909341233978" lon="14.783051699127276"><ele>716.0</ele><time>2026-04-25T13:28:32Z</time></trkpt><trkpt lat="41.40894202777631" lon="14.782898580672311"><ele>714.3333333333333</ele><time>2026-04-25T13:28:33Z</time></trkpt><trkpt lat="41.408761964758575" lon="14.78280314373348"><ele>712.6666666666666</ele><time>2026-04-25T13:28:34Z</time></trkpt><trkpt lat="41.40856947174584" lon="14.782758643549114"><ele>711.0</ele><time>2026-04-25T13:28:35Z</time></trkpt><trkpt lat="41.408374753307506" lon="14.78270328852692"><ele>714.3333333333334</ele><time>2026-04-25T13:28:36Z</time></trkpt><trkpt lat="41.40820149905346" lon="14.782644829396212"><ele>717.6666666666667</ele><time>2026-04-25T13:28:37Z</time></trkpt><trkpt lat="41.40802184213635" lon="14.782553449449331"><ele>721.0</ele><time>2026-04-25T13:28:38Z</time></trkpt><trkpt lat="41.4078585889485" lon="14.782477903376437"><ele>721.0</ele><time>2026-04-25T13:28:39Z</time></trkpt><trkpt lat="41.40772924782885" lon="14.782393596902635"><ele>721.0</ele><time>2026-04-25T13:28:40Z</time></trkpt><trkpt lat="41.40760724338479" lon="14.782274520067428"><ele>721.0</ele><time>2026-04-25T13:28:41Z</time></trkpt><trkpt lat="41.407486671905126" lon="14.782137512239945"><ele>721.0</ele><time>2026-04-25T13:28:42Z</time></trkpt><trkpt lat="41.40735257559889" lon="14.781958456186707"><ele>721.0</ele><time>2026-04-25T13:28:43Z</time></trkpt><trkpt lat="41.40723453526964" lon="14.78172354702521"><ele>721.0</ele><time>2026-04-25T13:28:44Z</time></trkpt><trkpt lat="41.40709953945483" lon="14.781476765145944"><ele>719.5</ele><time>2026-04-25T13:28:45Z</time></trkpt><trkpt lat="41.40698085375979" lon="14.781205468878385"><ele>718.0</ele><time>2026-04-25T13:28:46Z</time></trkpt><trkpt lat="41.40685512745286" lon="14.780928346565691"><ele>721.6666666666667</ele><time>2026-04-25T13:28:47Z</time></trkpt><trkpt lat="41.4067267014107" lon="14.780661483629453"><ele>725.3333333333334</ele><time>2026-04-25T13:28:48Z</time></trkpt><trkpt lat="41.40660594220841" lon="14.78043992056911"><ele>729.0</ele><time>2026-04-25T13:28:49Z</time></trkpt><trkpt lat="41.4064863875218" lon="14.780258148243446"><ele>727.6666666666666</ele><time>2026-04-25T13:28:50Z</time></trkpt><trkpt lat="41.40636081573763" lon="14.780101430019922"><ele>726.3333333333333</ele><time>2026-04-25T13:28:51Z</time></trkpt><trkpt lat="41.40625051852069" lon="14.779916586657407"><ele>725.0</ele><time>2026-04-25T13:28:52Z</time></trkpt><trkpt lat="41.40616135542809" lon="14.77973840348518"><ele>725.0</ele><time>2026-04-25T13:28:53Z</time></trkpt><trkpt lat="41.40611947778627" lon="14.779580649292704"><ele>725.0</ele><time>2026-04-25T13:28:54Z</time></trkpt><trkpt lat="41.406157100352104" lon="14.779397732293686"><ele>725.0</ele><time>2026-04-25T13:28:55Z</time></trkpt><trkpt lat="41.406204957162" lon="14.779200847386717"><ele>725.0</ele><time>2026-04-25T13:28:56Z</time></trkpt><trkpt lat="41.40624765562103" lon="14.778961597833474"><ele>727.0</ele><time>2026-04-25T13:28:57Z</time></trkpt><trkpt lat="41.406290455747175" lon="14.778762527819252"><ele>729.0</ele><time>2026-04-25T13:28:58Z</time></trkpt><trkpt lat="41.40629573349343" lon="14.778569583287146"><ele>731.0</ele><time>2026-04-25T13:28:59Z</time></trkpt><trkpt lat="41.40626533509142" lon="14.778394305189705"><ele>733.0</ele><time>2026-04-25T13:29:00Z</time></trkpt><trkpt lat="41.40619055329935" lon="14.778225625974448"><ele>736.0</ele><time>2026-04-25T13:29:01Z</time></trkpt><trkpt lat="41.406069882327245" lon="14.778068061616171"><ele>739.0</ele><time>2026-04-25T13:29:01.999Z</time></trkpt><trkpt lat="41.4059045404246" lon="14.777935135286516"><ele>742.0</ele><time>2026-04-25T13:29:02.999Z</time></trkpt><trkpt lat="41.405771806533416" lon="14.777822875849148"><ele>742.0</ele><time>2026-04-25T13:29:03.999Z</time></trkpt><trkpt lat="41.40567275422264" lon="14.777713962746812"><ele>742.0</ele><time>2026-04-25T13:29:04.999Z</time></trkpt><trkpt lat="41.405623719624735" lon="14.777596448966344"><ele>742.0</ele><time>2026-04-25T13:29:05.999Z</time></trkpt><trkpt lat="41.40561656223048" lon="14.777447545735765"><ele>742.0</ele><time>2026-04-25T13:29:06.999Z</time></trkpt><trkpt lat="41.405646783873095" lon="14.777263393562876"><ele>745.6666666666667</ele><time>2026-04-25T13:29:07.999Z</time></trkpt><trkpt lat="41.405660130072256" lon="14.77701119336242"><ele>749.3333333333334</ele><time>2026-04-25T13:29:08.999Z</time></trkpt><trkpt lat="41.405699339582746" lon="14.776768546097406"><ele>753.0</ele><time>2026-04-25T13:29:09.999Z</time></trkpt><trkpt lat="41.40574220840076" lon="14.776533039569731"><ele>754.25</ele><time>2026-04-25T13:29:10.999Z</time></trkpt><trkpt lat="41.405793450871116" lon="14.776338817038766"><ele>755.5</ele><time>2026-04-25T13:29:11.999Z</time></trkpt><trkpt lat="41.40583969615943" lon="14.77618457879173"><ele>756.75</ele><time>2026-04-25T13:29:12.999Z</time></trkpt><trkpt lat="41.40585299315882" lon="14.776062904757891"><ele>758.0</ele><time>2026-04-25T13:29:13.999Z</time></trkpt><trkpt lat="41.405825713017244" lon="14.775950147265853"><ele>758.8</ele><time>2026-04-25T13:29:14.999Z</time></trkpt><trkpt lat="41.4057547475615" lon="14.775868886895925"><ele>759.5999999999999</ele><time>2026-04-25T13:29:15.999Z</time></trkpt><trkpt lat="41.40565798216146" lon="14.775838679397776"><ele>760.4000000000001</ele><time>2026-04-25T13:29:16.999Z</time></trkpt><trkpt lat="41.40556491937879" lon="14.775852429460576"><ele>761.2</ele><time>2026-04-25T13:29:17.999Z</time></trkpt><trkpt lat="41.40549125800091" lon="14.775897507428137"><ele>762.0</ele><time>2026-04-25T13:29:18.999Z</time></trkpt><trkpt lat="41.405384603144135" lon="14.776062402468876"><ele>762.5</ele><time>2026-04-25T13:29:19.999Z</time></trkpt><trkpt lat="41.405272901923844" lon="14.77611170441832"><ele>763.0</ele><time>2026-04-25T13:29:20.999Z</time></trkpt><trkpt lat="41.40517242003841" lon="14.776053714394747"><ele>763.5</ele><time>2026-04-25T13:29:21.999Z</time></trkpt><trkpt lat="41.40502623367824" lon="14.775975797805945"><ele>764.0</ele><time>2026-04-25T13:29:22.999Z</time></trkpt><trkpt lat="41.404849405014595" lon="14.77588756351229"><ele>764.0</ele><time>2026-04-25T13:29:23.999Z</time></trkpt><trkpt lat="41.40469153793276" lon="14.775806461834618"><ele>764.0</ele><time>2026-04-25T13:29:24.999Z</time></trkpt><trkpt lat="41.404537603002574" lon="14.775738146984317"><ele>764.0</ele><time>2026-04-25T13:29:25.999Z</time></trkpt><trkpt lat="41.40442152542027" lon="14.775673488547536"><ele>764.5</ele><time>2026-04-25T13:29:26.999Z</time></trkpt><trkpt lat="41.40430615715402" lon="14.775660783574978"><ele>765.0</ele><time>2026-04-25T13:29:27.999Z</time></trkpt><trkpt lat="41.40419607094661" lon="14.775704981755354"><ele>765.5</ele><time>2026-04-25T13:29:28.999Z</time></trkpt><trkpt lat="41.40408334615336" lon="14.775832063185483"><ele>766.0</ele><time>2026-04-25T13:29:29.999Z</time></trkpt><trkpt lat="41.40396187445326" lon="14.775960718138592"><ele>766.0</ele><time>2026-04-25T13:29:30.999Z</time></trkpt><trkpt lat="41.40383767461062" lon="14.776099675022476"><ele>766.0</ele><time>2026-04-25T13:29:31.999Z</time></trkpt><trkpt lat="41.40368162992433" lon="14.776203133283373"><ele>766.0</ele><time>2026-04-25T13:29:32.999Z</time></trkpt><trkpt lat="41.40347029834432" lon="14.776308657556491"><ele>766.0</ele><time>2026-04-25T13:29:33.999Z</time></trkpt><trkpt lat="41.40328612736357" lon="14.776391205146599"><ele>766.0</ele><time>2026-04-25T13:29:34.999Z</time></trkpt><trkpt lat="41.40313727019711" lon="14.776452401413948"><ele>766.0</ele><time>2026-04-25T13:29:35.999Z</time></trkpt><trkpt lat="41.40300598557398" lon="14.77640635947254"><ele>768.0</ele><time>2026-04-25T13:29:36.999Z</time></trkpt><trkpt lat="41.402906761952096" lon="14.776300092791468"><ele>770.0</ele><time>2026-04-25T13:29:37.999Z</time></trkpt><trkpt lat="41.40278544226318" lon="14.776165491314549"><ele>772.0</ele><time>2026-04-25T13:29:38.999Z</time></trkpt><trkpt lat="41.40263494394781" lon="14.77598873539475"><ele>774.3333333333333</ele><time>2026-04-25T13:29:39.999Z</time></trkpt><trkpt lat="41.40253748903862" lon="14.77581045217355"><ele>776.6666666666667</ele><time>2026-04-25T13:29:40.999Z</time></trkpt><trkpt lat="41.4024507976824" lon="14.775582044015339"><ele>779.0</ele><time>2026-04-25T13:29:41.999Z</time></trkpt><trkpt lat="41.40237818995816" lon="14.775378868182116"><ele>779.0</ele><time>2026-04-25T13:29:42.999Z</time></trkpt><trkpt lat="41.40229561000546" lon="14.775240896176243"><ele>779.0</ele><time>2026-04-25T13:29:43.999Z</time></trkpt><trkpt lat="41.40220685294479" lon="14.775122580589764"><ele>779.0</ele><time>2026-04-25T13:29:44.999Z</time></trkpt><trkpt lat="41.40205871046431" lon="14.775037798540172"><ele>779.0</ele><time>2026-04-25T13:29:45.999Z</time></trkpt><trkpt lat="41.40190295486455" lon="14.77498301856291"><ele>779.6</ele><time>2026-04-25T13:29:46.999Z</time></trkpt><trkpt lat="41.40178449781744" lon="14.774909000313322"><ele>780.2</ele><time>2026-04-25T13:29:47.999Z</time></trkpt><trkpt lat="41.40172255029592" lon="14.774821749524909"><ele>780.8000000000001</ele><time>2026-04-25T13:29:48.999Z</time></trkpt><trkpt lat="41.40173109151137" lon="14.774726819811853"><ele>781.4000000000001</ele><time>2026-04-25T13:29:49.999Z</time></trkpt><trkpt lat="41.40178560767861" lon="14.774651001335055"><ele>782.0</ele><time>2026-04-25T13:29:50.999Z</time></trkpt><trkpt lat="41.40189385885203" lon="14.774627180833555"><ele>782.0</ele><time>2026-04-25T13:29:51.999Z</time></trkpt><trkpt lat="41.40203281283872" lon="14.774661086847155"><ele>782.0</ele><time>2026-04-25T13:29:52.999Z</time></trkpt><trkpt lat="41.402194341428434" lon="14.774656469839861"><ele>782.0</ele><time>2026-04-25T13:29:53.999Z</time></trkpt><trkpt lat="41.40236427493917" lon="14.774680814848686"><ele>783.3333333333334</ele><time>2026-04-25T13:29:54.999Z</time></trkpt><trkpt lat="41.402547512215136" lon="14.774693900003067"><ele>784.6666666666667</ele><time>2026-04-25T13:29:55.999Z</time></trkpt><trkpt lat="41.40273045039411" lon="14.774710536790783"><ele>786.0</ele><time>2026-04-25T13:29:56.999Z</time></trkpt><trkpt lat="41.40288181949478" lon="14.774720805309363"><ele>786.5</ele><time>2026-04-25T13:29:57.999Z</time></trkpt><trkpt lat="41.40300974180006" lon="14.774722674649054"><ele>787.0</ele><time>2026-04-25T13:29:58.999Z</time></trkpt><trkpt lat="41.403134746197274" lon="14.774683175368143"><ele>787.5</ele><time>2026-04-25T13:29:59.999Z</time></trkpt><trkpt lat="41.40324732093311" lon="14.77457788404548"><ele>788.0</ele><time>2026-04-25T13:30:00.999Z</time></trkpt><trkpt lat="41.403323620604986" lon="14.774422990761922"><ele>788.3333333333334</ele><time>2026-04-25T13:30:01.999Z</time></trkpt><trkpt lat="41.403388333291836" lon="14.774194489293613"><ele>788.6666666666667</ele><time>2026-04-25T13:30:02.999Z</time></trkpt><trkpt lat="41.40347418586845" lon="14.773939280371728"><ele>789.0</ele><time>2026-04-25T13:30:03.999Z</time></trkpt><trkpt lat="41.40356573794399" lon="14.773702040519895"><ele>788.3333333333333</ele><time>2026-04-25T13:30:04.999Z</time></trkpt><trkpt lat="41.4036521536858" lon="14.773513806518082"><ele>787.6666666666666</ele><time>2026-04-25T13:30:05.999Z</time></trkpt><trkpt lat="41.40372623091688" lon="14.773341116202372"><ele>787.0</ele><time>2026-04-25T13:30:06.999Z</time></trkpt><trkpt lat="41.40377452020567" lon="14.773162932587477"><ele>787.0</ele><time>2026-04-25T13:30:07.999Z</time></trkpt><trkpt lat="41.4037796567572" lon="14.772975458453367"><ele>787.0</ele><time>2026-04-25T13:30:09Z</time></trkpt><trkpt lat="41.40372666873028" lon="14.772792093900204"><ele>787.0</ele><time>2026-04-25T13:30:10Z</time></trkpt><trkpt lat="41.403646875647034" lon="14.772611045898318"><ele>787.0</ele><time>2026-04-25T13:30:11Z</time></trkpt><trkpt lat="41.403542691198375" lon="14.772387618722021"><ele>786.3333333333333</ele><time>2026-04-25T13:30:12Z</time></trkpt><trkpt lat="41.40346449275584" lon="14.772197446958389"><ele>785.6666666666667</ele><time>2026-04-25T13:30:13Z</time></trkpt><trkpt lat="41.403414424572034" lon="14.772016329247649"><ele>785.0</ele><time>2026-04-25T13:30:14Z</time></trkpt><trkpt lat="41.40339098319202" lon="14.771827064913964"><ele>784.0</ele><time>2026-04-25T13:30:15Z</time></trkpt><trkpt lat="41.40339954408593" lon="14.771617893634346"><ele>783.0</ele><time>2026-04-25T13:30:16Z</time></trkpt><trkpt lat="41.403420882402344" lon="14.771424161603031"><ele>782.0</ele><time>2026-04-25T13:30:17Z</time></trkpt><trkpt lat="41.4034676978269" lon="14.77129170652431"><ele>781.0</ele><time>2026-04-25T13:30:18Z</time></trkpt><trkpt lat="41.40353560886803" lon="14.771195916863718"><ele>781.0</ele><time>2026-04-25T13:30:19Z</time></trkpt><trkpt lat="41.40362071132659" lon="14.771084933239253"><ele>781.0</ele><time>2026-04-25T13:30:20Z</time></trkpt><trkpt lat="41.40374284464573" lon="14.77096497914285"><ele>781.0</ele><time>2026-04-25T13:30:21Z</time></trkpt><trkpt lat="41.40384349149078" lon="14.770853588532486"><ele>781.0</ele><time>2026-04-25T13:30:22Z</time></trkpt><trkpt lat="41.403903519352994" lon="14.770729205902649"><ele>782.0</ele><time>2026-04-25T13:30:23Z</time></trkpt><trkpt lat="41.40391929840321" lon="14.770581667060886"><ele>783.0</ele><time>2026-04-25T13:30:24Z</time></trkpt><trkpt lat="41.403896371638965" lon="14.77041784434046"><ele>784.0</ele><time>2026-04-25T13:30:25Z</time></trkpt><trkpt lat="41.40383864055237" lon="14.770270426867212"><ele>785.0</ele><time>2026-04-25T13:30:26Z</time></trkpt><trkpt lat="41.40375617229964" lon="14.770156780645914"><ele>783.2</ele><time>2026-04-25T13:30:27Z</time></trkpt><trkpt lat="41.40366625790636" lon="14.770069173797205"><ele>781.4</ele><time>2026-04-25T13:30:28Z</time></trkpt><trkpt lat="41.40360414779823" lon="14.77000657544867"><ele>779.5999999999999</ele><time>2026-04-25T13:30:29Z</time></trkpt><trkpt lat="41.40357619738591" lon="14.769930576123475"><ele>777.8</ele><time>2026-04-25T13:30:30Z</time></trkpt><trkpt lat="41.40360393178643" lon="14.769760149921334"><ele>776.0</ele><time>2026-04-25T13:30:32Z</time></trkpt><trkpt lat="41.40366431224884" lon="14.769641172827916"><ele>776.0</ele><time>2026-04-25T13:30:33Z</time></trkpt><trkpt lat="41.40369504216773" lon="14.769503515967017"><ele>776.0</ele><time>2026-04-25T13:30:34Z</time></trkpt><trkpt lat="41.40372593343916" lon="14.769398787876385"><ele>776.0</ele><time>2026-04-25T13:30:35Z</time></trkpt><trkpt lat="41.40371292607037" lon="14.769267818466387"><ele>776.0</ele><time>2026-04-25T13:30:36Z</time></trkpt><trkpt lat="41.40367500347464" lon="14.769144118637158"><ele>776.0</ele><time>2026-04-25T13:30:37Z</time></trkpt><trkpt lat="41.40360847243179" lon="14.769042893972397"><ele>776.0</ele><time>2026-04-25T13:30:38Z</time></trkpt><trkpt lat="41.40354345271327" lon="14.76893378520812"><ele>776.0</ele><time>2026-04-25T13:30:39Z</time></trkpt><trkpt lat="41.40347383457856" lon="14.768816874801978"><ele>776.0</ele><time>2026-04-25T13:30:40Z</time></trkpt><trkpt lat="41.40338727716142" lon="14.768708072772233"><ele>776.0</ele><time>2026-04-25T13:30:41Z</time></trkpt><trkpt lat="41.403345745897106" lon="14.76858121632342"><ele>776.0</ele><time>2026-04-25T13:30:42Z</time></trkpt><trkpt lat="41.40327677354791" lon="14.76850291628921"><ele>776.8</ele><time>2026-04-25T13:30:43Z</time></trkpt><trkpt lat="41.403235862991636" lon="14.76839677176724"><ele>777.5999999999999</ele><time>2026-04-25T13:30:44Z</time></trkpt><trkpt lat="41.40320694344443" lon="14.768290435798665"><ele>778.4</ele><time>2026-04-25T13:30:45Z</time></trkpt><trkpt lat="41.40324347631122" lon="14.768176663404963"><ele>779.2</ele><time>2026-04-25T13:30:46Z</time></trkpt><trkpt lat="41.40333003028843" lon="14.768086216067998"><ele>780.0</ele><time>2026-04-25T13:30:47Z</time></trkpt><trkpt lat="41.40342032174755" lon="14.768009285032242"><ele>780.0</ele><time>2026-04-25T13:30:48Z</time></trkpt><trkpt lat="41.40348674167051" lon="14.767931832210481"><ele>780.0</ele><time>2026-04-25T13:30:49Z</time></trkpt><trkpt lat="41.40352261763982" lon="14.76783290307899"><ele>780.0</ele><time>2026-04-25T13:30:50Z</time></trkpt><trkpt lat="41.40351235030917" lon="14.767710785027868"><ele>780.0</ele><time>2026-04-25T13:30:51Z</time></trkpt><trkpt lat="41.40349142527637" lon="14.767598937824854"><ele>780.0</ele><time>2026-04-25T13:30:52Z</time></trkpt><trkpt lat="41.403436435453116" lon="14.76749328042724"><ele>780.0</ele><time>2026-04-25T13:30:53Z</time></trkpt><trkpt lat="41.40335411594914" lon="14.767404969894734"><ele>779.75</ele><time>2026-04-25T13:30:54Z</time></trkpt><trkpt lat="41.40324097818479" lon="14.767360984130306"><ele>779.5</ele><time>2026-04-25T13:30:55Z</time></trkpt><trkpt lat="41.40310022605367" lon="14.767336224866794"><ele>779.25</ele><time>2026-04-25T13:30:56Z</time></trkpt><trkpt lat="41.402936685488164" lon="14.767332819568445"><ele>779.0</ele><time>2026-04-25T13:30:57Z</time></trkpt><trkpt lat="41.40277002323118" lon="14.767315366100572"><ele>778.25</ele><time>2026-04-25T13:30:58Z</time></trkpt><trkpt lat="41.40263216923844" lon="14.767301499792795"><ele>777.5</ele><time>2026-04-25T13:30:59Z</time></trkpt><trkpt lat="41.402516810559476" lon="14.767293516422992"><ele>776.75</ele><time>2026-04-25T13:31:00Z</time></trkpt><trkpt lat="41.40240722261535" lon="14.767254949164695"><ele>776.0</ele><time>2026-04-25T13:31:01Z</time></trkpt><trkpt lat="41.402298312253784" lon="14.76717076386308"><ele>776.0</ele><time>2026-04-25T13:31:02Z</time></trkpt><trkpt lat="41.40220354566583" lon="14.767001808601663"><ele>776.0</ele><time>2026-04-25T13:31:03Z</time></trkpt><trkpt lat="41.40205560838393" lon="14.766833797110309"><ele>776.0</ele><time>2026-04-25T13:31:04Z</time></trkpt><trkpt lat="41.40194505197208" lon="14.76666088305846"><ele>777.75</ele><time>2026-04-25T13:31:05Z</time></trkpt><trkpt lat="41.40184811182573" lon="14.766540613850042"><ele>779.5</ele><time>2026-04-25T13:31:06Z</time></trkpt><trkpt lat="41.40173917123407" lon="14.766416078353679"><ele>781.25</ele><time>2026-04-25T13:31:07Z</time></trkpt><trkpt lat="41.40160781570883" lon="14.766315314284828"><ele>783.0</ele><time>2026-04-25T13:31:08Z</time></trkpt><trkpt lat="41.40144887693662" lon="14.766255502199662"><ele>783.0</ele><time>2026-04-25T13:31:09Z</time></trkpt><trkpt lat="41.40129911785914" lon="14.766196975895726"><ele>783.0</ele><time>2026-04-25T13:31:10Z</time></trkpt><trkpt lat="41.4011516181455" lon="14.766143690852656"><ele>783.0</ele><time>2026-04-25T13:31:11Z</time></trkpt><trkpt lat="41.4010034999562" lon="14.766110652939862"><ele>783.0</ele><time>2026-04-25T13:31:11.999Z</time></trkpt><trkpt lat="41.40086210005492" lon="14.766113211443072"><ele>783.0</ele><time>2026-04-25T13:31:12.999Z</time></trkpt><trkpt lat="41.40072344561658" lon="14.766150741567879"><ele>783.0</ele><time>2026-04-25T13:31:13.999Z</time></trkpt><trkpt lat="41.400583122608715" lon="14.76622248603351"><ele>783.0</ele><time>2026-04-25T13:31:14.999Z</time></trkpt><trkpt lat="41.4004177253647" lon="14.766293089763375"><ele>784.3333333333333</ele><time>2026-04-25T13:31:15.999Z</time></trkpt><trkpt lat="41.40025881821726" lon="14.766329421289688"><ele>785.6666666666666</ele><time>2026-04-25T13:31:16.999Z</time></trkpt><trkpt lat="41.400092235523566" lon="14.766342095812867"><ele>787.0</ele><time>2026-04-25T13:31:17.999Z</time></trkpt><trkpt lat="41.39992360685328" lon="14.76636433163289"><ele>787.0</ele><time>2026-04-25T13:31:18.999Z</time></trkpt><trkpt lat="41.39976969553362" lon="14.766390397391454"><ele>787.0</ele><time>2026-04-25T13:31:19.999Z</time></trkpt><trkpt lat="41.39963181491364" lon="14.766408998119687"><ele>787.0</ele><time>2026-04-25T13:31:20.999Z</time></trkpt><trkpt lat="41.39948980515787" lon="14.766386103748864"><ele>787.0</ele><time>2026-04-25T13:31:21.999Z</time></trkpt><trkpt lat="41.39937213684315" lon="14.766304631413414"><ele>786.3333333333333</ele><time>2026-04-25T13:31:22.999Z</time></trkpt><trkpt lat="41.39933059069979" lon="14.766124919198267"><ele>785.6666666666667</ele><time>2026-04-25T13:31:23.999Z</time></trkpt><trkpt lat="41.39926753065727" lon="14.765949447279246"><ele>785.0</ele><time>2026-04-25T13:31:24.999Z</time></trkpt><trkpt lat="41.399168392870195" lon="14.76577032794377"><ele>787.3333333333334</ele><time>2026-04-25T13:31:25.999Z</time></trkpt><trkpt lat="41.39908147594096" lon="14.76556535904893"><ele>789.6666666666667</ele><time>2026-04-25T13:31:26.999Z</time></trkpt><trkpt lat="41.39898611970964" lon="14.76535466913332"><ele>792.0</ele><time>2026-04-25T13:31:27.999Z</time></trkpt><trkpt lat="41.39891396661188" lon="14.765129147723707"><ele>792.0</ele><time>2026-04-25T13:31:28.999Z</time></trkpt><trkpt lat="41.39885183806572" lon="14.764889618554346"><ele>792.0</ele><time>2026-04-25T13:31:29.999Z</time></trkpt><trkpt lat="41.39878749816808" lon="14.764654449217524"><ele>792.0</ele><time>2026-04-25T13:31:30.999Z</time></trkpt><trkpt lat="41.3987186207892" lon="14.764434265120595"><ele>794.3333333333333</ele><time>2026-04-25T13:31:31.999Z</time></trkpt><trkpt lat="41.39863128575945" lon="14.764222688430499"><ele>796.6666666666666</ele><time>2026-04-25T13:31:32.999Z</time></trkpt><trkpt lat="41.39858319565874" lon="14.764014901254415"><ele>799.0</ele><time>2026-04-25T13:31:33.999Z</time></trkpt><trkpt lat="41.398562800184685" lon="14.76380105472561"><ele>799.0</ele><time>2026-04-25T13:31:34.999Z</time></trkpt><trkpt lat="41.39856409195401" lon="14.763545035047043"><ele>799.0</ele><time>2026-04-25T13:31:35.999Z</time></trkpt><trkpt lat="41.39856391598134" lon="14.76325796832121"><ele>799.0</ele><time>2026-04-25T13:31:36.999Z</time></trkpt><trkpt lat="41.398577843066256" lon="14.76296234168446"><ele>801.6666666666666</ele><time>2026-04-25T13:31:37.999Z</time></trkpt><trkpt lat="41.39858839021561" lon="14.76265871389407"><ele>804.3333333333333</ele><time>2026-04-25T13:31:38.999Z</time></trkpt><trkpt lat="41.39859255554493" lon="14.762393266515586"><ele>807.0</ele><time>2026-04-25T13:31:39.999Z</time></trkpt><trkpt lat="41.39859253920909" lon="14.762148998138711"><ele>807.0</ele><time>2026-04-25T13:31:40.999Z</time></trkpt><trkpt lat="41.398565045462654" lon="14.761910646564646"><ele>807.0</ele><time>2026-04-25T13:31:41.999Z</time></trkpt><trkpt lat="41.398497074978195" lon="14.761675067885943"><ele>807.0</ele><time>2026-04-25T13:31:42.999Z</time></trkpt><trkpt lat="41.398387213503064" lon="14.76145385649885"><ele>807.3333333333333</ele><time>2026-04-25T13:31:43.999Z</time></trkpt><trkpt lat="41.39825918115478" lon="14.761230223640956"><ele>807.6666666666666</ele><time>2026-04-25T13:31:44.999Z</time></trkpt><trkpt lat="41.39812782460055" lon="14.760997658797084"><ele>808.0</ele><time>2026-04-25T13:31:45.999Z</time></trkpt><trkpt lat="41.39799584751157" lon="14.760747831497763"><ele>808.0</ele><time>2026-04-25T13:31:46.999Z</time></trkpt><trkpt lat="41.39785266257047" lon="14.760504139626343"><ele>808.0</ele><time>2026-04-25T13:31:47.999Z</time></trkpt><trkpt lat="41.39771654718668" lon="14.760280928537474"><ele>808.0</ele><time>2026-04-25T13:31:48.999Z</time></trkpt><trkpt lat="41.39758425852639" lon="14.760060908714186"><ele>809.3333333333333</ele><time>2026-04-25T13:31:49.999Z</time></trkpt><trkpt lat="41.39745964881154" lon="14.759843577608272"><ele>810.6666666666667</ele><time>2026-04-25T13:31:50.999Z</time></trkpt><trkpt lat="41.39734360944629" lon="14.759653901548306"><ele>812.0</ele><time>2026-04-25T13:31:51.999Z</time></trkpt><trkpt lat="41.397201462100995" lon="14.75947625360023"><ele>811.0</ele><time>2026-04-25T13:31:52.999Z</time></trkpt><trkpt lat="41.39702457209568" lon="14.759310742056185"><ele>810.0</ele><time>2026-04-25T13:31:53.999Z</time></trkpt><trkpt lat="41.396827170786835" lon="14.759143859793921"><ele>810.0</ele><time>2026-04-25T13:31:54.999Z</time></trkpt><trkpt lat="41.39664742801641" lon="14.758964329963126"><ele>810.0</ele><time>2026-04-25T13:31:55.999Z</time></trkpt><trkpt lat="41.39644637802461" lon="14.758806723982245"><ele>809.3333333333333</ele><time>2026-04-25T13:31:56.999Z</time></trkpt><trkpt lat="41.39627097352149" lon="14.758654533985855"><ele>808.6666666666666</ele><time>2026-04-25T13:31:57.999Z</time></trkpt><trkpt lat="41.396099751814916" lon="14.758498169781136"><ele>808.0</ele><time>2026-04-25T13:31:58.999Z</time></trkpt><trkpt lat="41.39593377675156" lon="14.758339392127239"><ele>808.0</ele><time>2026-04-25T13:31:59.999Z</time></trkpt><trkpt lat="41.39577154618761" lon="14.75820148583529"><ele>808.0</ele><time>2026-04-25T13:32:00.999Z</time></trkpt><trkpt lat="41.395580088151654" lon="14.758091411021844"><ele>808.0</ele><time>2026-04-25T13:32:01.999Z</time></trkpt><trkpt lat="41.39536544251002" lon="14.758004146470482"><ele>808.0</ele><time>2026-04-25T13:32:02.999Z</time></trkpt><trkpt lat="41.395156041446235" lon="14.757930537971992"><ele>808.0</ele><time>2026-04-25T13:32:03.999Z</time></trkpt><trkpt lat="41.39497711173049" lon="14.757853699854135"><ele>808.0</ele><time>2026-04-25T13:32:04.999Z</time></trkpt><trkpt lat="41.39480096079778" lon="14.757776659671492"><ele>808.0</ele><time>2026-04-25T13:32:05.999Z</time></trkpt><trkpt lat="41.39464399161849" lon="14.757710446000823"><ele>808.0</ele><time>2026-04-25T13:32:06.999Z</time></trkpt><trkpt lat="41.39448828324558" lon="14.757649505779934"><ele>808.0</ele><time>2026-04-25T13:32:07.999Z</time></trkpt><trkpt lat="41.394340203576625" lon="14.757584017327277"><ele>808.0</ele><time>2026-04-25T13:32:08.999Z</time></trkpt><trkpt lat="41.394192602799436" lon="14.757493546901621"><ele>808.0</ele><time>2026-04-25T13:32:09.999Z</time></trkpt><trkpt lat="41.39404120882847" lon="14.757384571633892"><ele>808.0</ele><time>2026-04-25T13:32:10.999Z</time></trkpt><trkpt lat="41.39389474589461" lon="14.757253133495727"><ele>808.0</ele><time>2026-04-25T13:32:11.999Z</time></trkpt><trkpt lat="41.39377072239038" lon="14.757072228610475"><ele>808.0</ele><time>2026-04-25T13:32:12.999Z</time></trkpt><trkpt lat="41.39364623897108" lon="14.756896937493796"><ele>808.0</ele><time>2026-04-25T13:32:13.999Z</time></trkpt><trkpt lat="41.39354791426831" lon="14.756706807778974"><ele>806.6666666666666</ele><time>2026-04-25T13:32:15Z</time></trkpt><trkpt lat="41.39348251938725" lon="14.756478844440098"><ele>805.3333333333333</ele><time>2026-04-25T13:32:16Z</time></trkpt><trkpt lat="41.39341798705498" lon="14.7562138904409"><ele>804.0</ele><time>2026-04-25T13:32:17Z</time></trkpt><trkpt lat="41.393336536520444" lon="14.7559409041965"><ele>801.6666666666667</ele><time>2026-04-25T13:32:18Z</time></trkpt><trkpt lat="41.39328234752953" lon="14.755697564487761"><ele>799.3333333333334</ele><time>2026-04-25T13:32:19Z</time></trkpt><trkpt lat="41.393228876735094" lon="14.755477203331298"><ele>797.0</ele><time>2026-04-25T13:32:20Z</time></trkpt><trkpt lat="41.39317937431492" lon="14.755281858310882"><ele>797.0</ele><time>2026-04-25T13:32:21Z</time></trkpt><trkpt lat="41.39311932681189" lon="14.755118251793704"><ele>797.0</ele><time>2026-04-25T13:32:22Z</time></trkpt><trkpt lat="41.393031889704616" lon="14.754977280238128"><ele>797.0</ele><time>2026-04-25T13:32:23Z</time></trkpt><trkpt lat="41.39290237910563" lon="14.754869092867164"><ele>797.0</ele><time>2026-04-25T13:32:24Z</time></trkpt><trkpt lat="41.392729301461166" lon="14.754799204530624"><ele>797.0</ele><time>2026-04-25T13:32:25Z</time></trkpt><trkpt lat="41.39254696049902" lon="14.754740395435899"><ele>797.0</ele><time>2026-04-25T13:32:26Z</time></trkpt><trkpt lat="41.39236645369763" lon="14.754695065732756"><ele>797.0</ele><time>2026-04-25T13:32:27Z</time></trkpt><trkpt lat="41.39223056533497" lon="14.754635798496741"><ele>797.5</ele><time>2026-04-25T13:32:28Z</time></trkpt><trkpt lat="41.39209474036687" lon="14.754591579611775"><ele>798.0</ele><time>2026-04-25T13:32:29Z</time></trkpt><trkpt lat="41.391988694027944" lon="14.754516278797352"><ele>798.5</ele><time>2026-04-25T13:32:30Z</time></trkpt><trkpt lat="41.39192375063451" lon="14.754387618275317"><ele>799.0</ele><time>2026-04-25T13:32:31Z</time></trkpt><trkpt lat="41.391849530248386" lon="14.754190270393604"><ele>797.0</ele><time>2026-04-25T13:32:32Z</time></trkpt><trkpt lat="41.39176736617714" lon="14.753973387247694"><ele>795.0</ele><time>2026-04-25T13:32:33Z</time></trkpt><trkpt lat="41.391696778491855" lon="14.753772483672154"><ele>793.0</ele><time>2026-04-25T13:32:34Z</time></trkpt><trkpt lat="41.391646241495536" lon="14.753567089242324"><ele>791.3333333333333</ele><time>2026-04-25T13:32:35Z</time></trkpt><trkpt lat="41.39161392264131" lon="14.753359192907364"><ele>789.6666666666667</ele><time>2026-04-25T13:32:36Z</time></trkpt><trkpt lat="41.3915737964833" lon="14.753175329590203"><ele>788.0</ele><time>2026-04-25T13:32:37Z</time></trkpt><trkpt lat="41.39149490135956" lon="14.75296254335538"><ele>788.0</ele><time>2026-04-25T13:32:38Z</time></trkpt><trkpt lat="41.39140414513138" lon="14.752753273760112"><ele>788.0</ele><time>2026-04-25T13:32:39Z</time></trkpt><trkpt lat="41.391325333081156" lon="14.752540549973517"><ele>788.0</ele><time>2026-04-25T13:32:40Z</time></trkpt><trkpt lat="41.391183277886945" lon="14.752384683139239"><ele>787.0</ele><time>2026-04-25T13:32:41Z</time></trkpt><trkpt lat="41.39105676430726" lon="14.752241065687794"><ele>786.0</ele><time>2026-04-25T13:32:42Z</time></trkpt><trkpt lat="41.39094919570895" lon="14.752110497330726"><ele>785.0</ele><time>2026-04-25T13:32:43Z</time></trkpt><trkpt lat="41.39086544796556" lon="14.751978625447896"><ele>784.0</ele><time>2026-04-25T13:32:44Z</time></trkpt><trkpt lat="41.39080800039485" lon="14.75189160334147"><ele>780.0</ele><time>2026-04-25T13:32:45Z</time></trkpt><trkpt lat="41.39076826533963" lon="14.751748392872166"><ele>776.0</ele><time>2026-04-25T13:32:47Z</time></trkpt><trkpt lat="41.39097295876989" lon="14.751736973027343"><ele>772.0</ele><time>2026-04-25T13:32:49Z</time></trkpt><trkpt lat="41.391112177347054" lon="14.751776955037869"><ele>772.0</ele><time>2026-04-25T13:32:50Z</time></trkpt><trkpt lat="41.391258062637284" lon="14.751814168883616"><ele>772.0</ele><time>2026-04-25T13:32:51Z</time></trkpt><trkpt lat="41.39141658241946" lon="14.751878700937212"><ele>772.0</ele><time>2026-04-25T13:32:52Z</time></trkpt><trkpt lat="41.39157964922259" lon="14.751995181886082"><ele>773.0</ele><time>2026-04-25T13:32:53Z</time></trkpt><trkpt lat="41.39176049456141" lon="14.752095911837932"><ele>774.0</ele><time>2026-04-25T13:32:54Z</time></trkpt><trkpt lat="41.391925985912955" lon="14.75221021609191"><ele>775.0</ele><time>2026-04-25T13:32:55Z</time></trkpt><trkpt lat="41.3920727917347" lon="14.752306437314076"><ele>774.4</ele><time>2026-04-25T13:32:56Z</time></trkpt><trkpt lat="41.39221131594695" lon="14.75236508386054"><ele>773.8</ele><time>2026-04-25T13:32:57Z</time></trkpt><trkpt lat="41.392311465780644" lon="14.752394317868664"><ele>773.2</ele><time>2026-04-25T13:32:58Z</time></trkpt><trkpt lat="41.39237827195455" lon="14.75239887882946"><ele>772.6</ele><time>2026-04-25T13:32:59Z</time></trkpt><trkpt lat="41.39244763740216" lon="14.752382131290062"><ele>772.0</ele><time>2026-04-25T13:33:01Z</time></trkpt><trkpt lat="41.392518940111685" lon="14.752354405742546"><ele>772.0</ele><time>2026-04-25T13:33:06Z</time></trkpt><trkpt lat="41.3925799783334" lon="14.752329240148436"><ele>772.0</ele><time>2026-04-25T13:33:09Z</time></trkpt><trkpt lat="41.39270645006345" lon="14.752273708567579"><ele>772.0</ele><time>2026-04-25T13:33:12Z</time></trkpt><trkpt lat="41.392813255754064" lon="14.752211388047112"><ele>772.0</ele><time>2026-04-25T13:33:13Z</time></trkpt><trkpt lat="41.39291379121297" lon="14.752167776965141"><ele>772.0</ele><time>2026-04-25T13:33:14Z</time></trkpt><trkpt lat="41.39301781781567" lon="14.752149268260343"><ele>773.75</ele><time>2026-04-25T13:33:15Z</time></trkpt><trkpt lat="41.39311799703613" lon="14.752103213934195"><ele>775.5</ele><time>2026-04-25T13:33:15.999Z</time></trkpt><trkpt lat="41.393231086636156" lon="14.752021043945136"><ele>777.25</ele><time>2026-04-25T13:33:16.999Z</time></trkpt><trkpt lat="41.39332472895982" lon="14.751922558008447"><ele>779.0</ele><time>2026-04-25T13:33:17.999Z</time></trkpt><trkpt lat="41.39340860678171" lon="14.751838680306054"><ele>776.8000000000001</ele><time>2026-04-25T13:33:18.999Z</time></trkpt><trkpt lat="41.39349141541904" lon="14.75177838136462"><ele>774.6</ele><time>2026-04-25T13:33:19.999Z</time></trkpt><trkpt lat="41.3935744595357" lon="14.751753227549903"><ele>772.4</ele><time>2026-04-25T13:33:20.999Z</time></trkpt><trkpt lat="41.39366743651631" lon="14.751779448350183"><ele>770.2</ele><time>2026-04-25T13:33:21.999Z</time></trkpt><trkpt lat="41.39380598872517" lon="14.751828590098988"><ele>768.0</ele><time>2026-04-25T13:33:22.999Z</time></trkpt><trkpt lat="41.39395674956433" lon="14.75187958100557"><ele>768.0</ele><time>2026-04-25T13:33:23.999Z</time></trkpt><trkpt lat="41.39411076965526" lon="14.751925242769142"><ele>768.0</ele><time>2026-04-25T13:33:24.999Z</time></trkpt><trkpt lat="41.39426457212782" lon="14.752002336296345"><ele>768.0</ele><time>2026-04-25T13:33:25.999Z</time></trkpt><trkpt lat="41.39441187051313" lon="14.752041501048787"><ele>768.0</ele><time>2026-04-25T13:33:26.999Z</time></trkpt><trkpt lat="41.39454147612846" lon="14.752094948087178"><ele>768.0</ele><time>2026-04-25T13:33:27.999Z</time></trkpt><trkpt lat="41.39466477234649" lon="14.752143839450653"><ele>768.0</ele><time>2026-04-25T13:33:28.999Z</time></trkpt><trkpt lat="41.39476935149294" lon="14.752184702789712"><ele>768.0</ele><time>2026-04-25T13:33:29.999Z</time></trkpt><trkpt lat="41.39486782107687" lon="14.752174175354359"><ele>765.8</ele><time>2026-04-25T13:33:30.999Z</time></trkpt><trkpt lat="41.394948819847635" lon="14.75211645595384"><ele>763.5999999999999</ele><time>2026-04-25T13:33:31.999Z</time></trkpt><trkpt lat="41.395015797072055" lon="14.75202472362821"><ele>761.4000000000001</ele><time>2026-04-25T13:33:32.999Z</time></trkpt><trkpt lat="41.39507512345388" lon="14.751914340360736"><ele>759.2</ele><time>2026-04-25T13:33:33.999Z</time></trkpt><trkpt lat="41.39515545790518" lon="14.751808544763186"><ele>757.0</ele><time>2026-04-25T13:33:34.999Z</time></trkpt><trkpt lat="41.39522223210517" lon="14.751726800565068"><ele>755.25</ele><time>2026-04-25T13:33:35.999Z</time></trkpt><trkpt lat="41.39529015034289" lon="14.751669021991031"><ele>753.5</ele><time>2026-04-25T13:33:36.999Z</time></trkpt><trkpt lat="41.39537181912305" lon="14.751716936294972"><ele>751.75</ele><time>2026-04-25T13:33:37.999Z</time></trkpt><trkpt lat="41.395490657717474" lon="14.751808018208434"><ele>750.0</ele><time>2026-04-25T13:33:38.999Z</time></trkpt><trkpt lat="41.39562193724955" lon="14.75189332709789"><ele>750.0</ele><time>2026-04-25T13:33:39.999Z</time></trkpt><trkpt lat="41.39575288371612" lon="14.751953736118782"><ele>750.0</ele><time>2026-04-25T13:33:40.999Z</time></trkpt><trkpt lat="41.39589140670432" lon="14.751994326205228"><ele>750.0</ele><time>2026-04-25T13:33:41.999Z</time></trkpt><trkpt lat="41.39604654730826" lon="14.751953289948878"><ele>750.0</ele><time>2026-04-25T13:33:42.999Z</time></trkpt><trkpt lat="41.39621116659386" lon="14.75188891913065"><ele>745.0</ele><time>2026-04-25T13:33:43.999Z</time></trkpt><trkpt lat="41.39634606238275" lon="14.751864379035704"><ele>740.0</ele><time>2026-04-25T13:33:44.999Z</time></trkpt><trkpt lat="41.39650853003175" lon="14.751862207726576"><ele>735.0</ele><time>2026-04-25T13:33:45.999Z</time></trkpt><trkpt lat="41.396681691670416" lon="14.751858429656727"><ele>735.0</ele><time>2026-04-25T13:33:46.999Z</time></trkpt><trkpt lat="41.39682953668292" lon="14.751853078260881"><ele>735.0</ele><time>2026-04-25T13:33:47.999Z</time></trkpt><trkpt lat="41.39697312781402" lon="14.751841206885146"><ele>735.0</ele><time>2026-04-25T13:33:48.999Z</time></trkpt><trkpt lat="41.39738738619912" lon="14.751760633420506"><ele>733.75</ele><time>2026-04-25T13:33:49.999Z</time></trkpt><trkpt lat="41.39753195143064" lon="14.751732867423186"><ele>732.5</ele><time>2026-04-25T13:33:50.999Z</time></trkpt><trkpt lat="41.397678921501864" lon="14.751707306397027"><ele>731.25</ele><time>2026-04-25T13:33:51.999Z</time></trkpt><trkpt lat="41.397808503626685" lon="14.751774166899297"><ele>730.0</ele><time>2026-04-25T13:33:52.999Z</time></trkpt><trkpt lat="41.397960999186445" lon="14.751850461956224"><ele>729.3333333333334</ele><time>2026-04-25T13:33:53.999Z</time></trkpt><trkpt lat="41.39813676937664" lon="14.75192258153284"><ele>728.6666666666666</ele><time>2026-04-25T13:33:54.999Z</time></trkpt><trkpt lat="41.39831407130888" lon="14.752012448409019"><ele>728.0</ele><time>2026-04-25T13:33:55.999Z</time></trkpt><trkpt lat="41.39847001147905" lon="14.752102203341275"><ele>728.0</ele><time>2026-04-25T13:33:56.999Z</time></trkpt><trkpt lat="41.39862617685085" lon="14.752191039773562"><ele>728.0</ele><time>2026-04-25T13:33:57.999Z</time></trkpt><trkpt lat="41.39877836601974" lon="14.752246443110481"><ele>728.0</ele><time>2026-04-25T13:33:58.999Z</time></trkpt><trkpt lat="41.39891476358049" lon="14.752296021836594"><ele>727.2</ele><time>2026-04-25T13:33:59.999Z</time></trkpt><trkpt lat="41.39904362414861" lon="14.75232787583095"><ele>726.4</ele><time>2026-04-25T13:34:00.999Z</time></trkpt><trkpt lat="41.39916444607352" lon="14.75230474459518"><ele>725.6</ele><time>2026-04-25T13:34:01.999Z</time></trkpt><trkpt lat="41.399238787722936" lon="14.752279269643596"><ele>724.8000000000001</ele><time>2026-04-25T13:34:02.999Z</time></trkpt><trkpt lat="41.399298832440614" lon="14.75222230424104"><ele>724.0</ele><time>2026-04-25T13:34:03.999Z</time></trkpt><trkpt lat="41.39937875063914" lon="14.752302516706973"><ele>724.0</ele><time>2026-04-25T13:34:04.999Z</time></trkpt><trkpt lat="41.39945652773109" lon="14.752329335170256"><ele>724.0</ele><time>2026-04-25T13:34:05.999Z</time></trkpt><trkpt lat="41.39951744689221" lon="14.752396061997793"><ele>724.0</ele><time>2026-04-25T13:34:06.999Z</time></trkpt><trkpt lat="41.39957163859006" lon="14.752489451936615"><ele>724.0</ele><time>2026-04-25T13:34:07.999Z</time></trkpt><trkpt lat="41.39960370520008" lon="14.752584920703306"><ele>724.0</ele><time>2026-04-25T13:34:08.999Z</time></trkpt><trkpt lat="41.3996275006152" lon="14.752687626002027"><ele>724.0</ele><time>2026-04-25T13:34:09.999Z</time></trkpt><trkpt lat="41.39964654127495" lon="14.752771246034289"><ele>723.8000000000001</ele><time>2026-04-25T13:34:10.999Z</time></trkpt><trkpt lat="41.39977828241516" lon="14.752682103283957"><ele>723.6</ele><time>2026-04-25T13:34:16.999Z</time></trkpt><trkpt lat="41.39980911163124" lon="14.752599435483553"><ele>723.4</ele><time>2026-04-25T13:34:17.999Z</time></trkpt><trkpt lat="41.39983872577506" lon="14.752521609969106"><ele>723.2</ele><time>2026-04-25T13:34:18.999Z</time></trkpt><trkpt lat="41.39990580101087" lon="14.752393992700267"><ele>723.0</ele><time>2026-04-25T13:34:21Z</time></trkpt><trkpt lat="41.39994138584068" lon="14.752312261595847"><ele>723.0</ele><time>2026-04-25T13:34:22Z</time></trkpt><trkpt lat="41.3999857256938" lon="14.752225139296232"><ele>723.0</ele><time>2026-04-25T13:34:23Z</time></trkpt><trkpt lat="41.40002866977228" lon="14.752134436840784"><ele>723.0</ele><time>2026-04-25T13:34:24Z</time></trkpt><trkpt lat="41.40006528032025" lon="14.752039777669335"><ele>723.0</ele><time>2026-04-25T13:34:25Z</time></trkpt><trkpt lat="41.40010321606774" lon="14.751970709563416"><ele>723.0</ele><time>2026-04-25T13:34:26Z</time></trkpt><trkpt lat="41.400180118598584" lon="14.751948766189212"><ele>723.0</ele><time>2026-04-25T13:34:29Z</time></trkpt><trkpt lat="41.4002383057945" lon="14.752037563274392"><ele>723.0</ele><time>2026-04-25T13:34:31Z</time></trkpt><trkpt lat="41.40030725576644" lon="14.752170636171577"><ele>723.0</ele><time>2026-04-25T13:34:32Z</time></trkpt><trkpt lat="41.40036949002611" lon="14.752322299975438"><ele>723.0</ele><time>2026-04-25T13:34:33Z</time></trkpt><trkpt lat="41.400431516234434" lon="14.752443879175868"><ele>723.0</ele><time>2026-04-25T13:34:34Z</time></trkpt><trkpt lat="41.40050141070208" lon="14.75260614586962"><ele>724.2</ele><time>2026-04-25T13:34:35Z</time></trkpt><trkpt lat="41.400564662332044" lon="14.752772057409866"><ele>725.4</ele><time>2026-04-25T13:34:36Z</time></trkpt><trkpt lat="41.40059891264919" lon="14.75291603876514"><ele>726.6</ele><time>2026-04-25T13:34:37Z</time></trkpt><trkpt lat="41.40063928664025" lon="14.753028330098502"><ele>727.8000000000001</ele><time>2026-04-25T13:34:38Z</time></trkpt><trkpt lat="41.400697241823835" lon="14.753123075659405"><ele>729.0</ele><time>2026-04-25T13:34:39Z</time></trkpt><trkpt lat="41.400758280628175" lon="14.753174872928534"><ele>729.0</ele><time>2026-04-25T13:34:40Z</time></trkpt><trkpt lat="41.400808928383896" lon="14.753231526016883"><ele>729.0</ele><time>2026-04-25T13:34:41Z</time></trkpt><trkpt lat="41.40088869791027" lon="14.753329235869831"><ele>729.0</ele><time>2026-04-25T13:34:43Z</time></trkpt><trkpt lat="41.400938729095756" lon="14.753389170087797"><ele>729.0</ele><time>2026-04-25T13:34:44Z</time></trkpt><trkpt lat="41.40098400177641" lon="14.753473566371722"><ele>729.0</ele><time>2026-04-25T13:34:45Z</time></trkpt><trkpt lat="41.40103350171479" lon="14.753544032418654"><ele>729.0</ele><time>2026-04-25T13:34:46Z</time></trkpt><trkpt lat="41.4010936057692" lon="14.753624212168088"><ele>729.0</ele><time>2026-04-25T13:34:48Z</time></trkpt><trkpt lat="41.40112904586301" lon="14.753695834760252"><ele>729.0</ele><time>2026-04-25T13:34:50Z</time></trkpt><trkpt lat="41.40118701657456" lon="14.753761717023446"><ele>729.0</ele><time>2026-04-25T13:34:54Z</time></trkpt><trkpt lat="41.40110823299953" lon="14.753731505326016"><ele>729.0</ele><time>2026-04-25T13:39:09Z</time></trkpt><trkpt lat="41.40107426308108" lon="14.753660599489097"><ele>729.0</ele><time>2026-04-25T13:39:12Z</time></trkpt><trkpt lat="41.40099046191743" lon="14.753523094429092"><ele>729.0</ele><time>2026-04-25T13:39:14Z</time></trkpt><trkpt lat="41.40093055785791" lon="14.753437176348788"><ele>729.0</ele><time>2026-04-25T13:39:15Z</time></trkpt><trkpt lat="41.400871702912696" lon="14.753317927123796"><ele>729.0</ele><time>2026-04-25T13:39:16Z</time></trkpt><trkpt lat="41.40080704073863" lon="14.753240409105151"><ele>729.0</ele><time>2026-04-25T13:39:17Z</time></trkpt><trkpt lat="41.40073853059537" lon="14.753154388456469"><ele>729.0</ele><time>2026-04-25T13:39:18Z</time></trkpt><trkpt lat="41.40067338482166" lon="14.75306680663304"><ele>729.0</ele><time>2026-04-25T13:39:19Z</time></trkpt><trkpt lat="41.40062527155821" lon="14.752969945343766"><ele>729.0</ele><time>2026-04-25T13:39:20Z</time></trkpt><trkpt lat="41.40056805597494" lon="14.752813507043498"><ele>729.0</ele><time>2026-04-25T13:39:21Z</time></trkpt><trkpt lat="41.400524053373374" lon="14.75268447313465"><ele>729.0</ele><time>2026-04-25T13:39:22Z</time></trkpt><trkpt lat="41.4004734157036" lon="14.752537341312223"><ele>729.0</ele><time>2026-04-25T13:39:23Z</time></trkpt><trkpt lat="41.400411366853206" lon="14.752392866879672"><ele>728.3333333333334</ele><time>2026-04-25T13:39:24Z</time></trkpt><trkpt lat="41.40036242182542" lon="14.75227888837521"><ele>727.6666666666666</ele><time>2026-04-25T13:39:25Z</time></trkpt><trkpt lat="41.40033420419292" lon="14.752165310822923"><ele>727.0</ele><time>2026-04-25T13:39:26Z</time></trkpt><trkpt lat="41.40028003793426" lon="14.752083105981509"><ele>726.3333333333333</ele><time>2026-04-25T13:39:27Z</time></trkpt><trkpt lat="41.40023759207073" lon="14.752006782441367"><ele>725.6666666666666</ele><time>2026-04-25T13:39:28Z</time></trkpt><trkpt lat="41.40019724731082" lon="14.75193710935334"><ele>725.0</ele><time>2026-04-25T13:39:29Z</time></trkpt><trkpt lat="41.40009123384845" lon="14.751835031638894"><ele>725.0</ele><time>2026-04-25T13:39:31Z</time></trkpt><trkpt lat="41.39999438512063" lon="14.751740220431241"><ele>725.0</ele><time>2026-04-25T13:39:33Z</time></trkpt><trkpt lat="41.39988889923064" lon="14.751686340824648"><ele>725.0</ele><time>2026-04-25T13:39:35Z</time></trkpt><trkpt lat="41.399826748226964" lon="14.751700034530751"><ele>725.0</ele><time>2026-04-25T13:39:36Z</time></trkpt><trkpt lat="41.39971656160003" lon="14.751777367962651"><ele>725.0</ele><time>2026-04-25T13:39:38Z</time></trkpt><trkpt lat="41.39965591778906" lon="14.751838687081012"><ele>724.8333333333333</ele><time>2026-04-25T13:39:39Z</time></trkpt><trkpt lat="41.39959153120099" lon="14.751889252612056"><ele>724.6666666666666</ele><time>2026-04-25T13:39:39.999Z</time></trkpt><trkpt lat="41.399522869629294" lon="14.75192729283103"><ele>724.5</ele><time>2026-04-25T13:39:40.999Z</time></trkpt><trkpt lat="41.39943030408029" lon="14.752013987761984"><ele>724.3333333333334</ele><time>2026-04-25T13:39:42.999Z</time></trkpt><trkpt lat="41.399378034700966" lon="14.752095052144567"><ele>724.1666666666667</ele><time>2026-04-25T13:39:44.999Z</time></trkpt><trkpt lat="41.399316087669966" lon="14.752171295506281"><ele>724.0</ele><time>2026-04-25T13:39:45.999Z</time></trkpt><trkpt lat="41.399325991622234" lon="14.752005665170236"><ele>724.0</ele><time>2026-04-25T13:39:50.999Z</time></trkpt><trkpt lat="41.39935194426756" lon="14.751894743022563"><ele>724.0</ele><time>2026-04-25T13:39:51.999Z</time></trkpt><trkpt lat="41.399370720717485" lon="14.751759127212647"><ele>724.0</ele><time>2026-04-25T13:39:52.999Z</time></trkpt><trkpt lat="41.399383602693156" lon="14.751626309089191"><ele>724.0</ele><time>2026-04-25T13:39:53.999Z</time></trkpt><trkpt lat="41.399345129469324" lon="14.751475690885137"><ele>724.0</ele><time>2026-04-25T13:39:54.999Z</time></trkpt><trkpt lat="41.399266252743715" lon="14.751387494667375"><ele>723.4000000000001</ele><time>2026-04-25T13:39:55.999Z</time></trkpt><trkpt lat="41.39917367846542" lon="14.751330400981853"><ele>722.8</ele><time>2026-04-25T13:39:56.999Z</time></trkpt><trkpt lat="41.3990711429978" lon="14.751276789488294"><ele>722.2</ele><time>2026-04-25T13:39:57.999Z</time></trkpt><trkpt lat="41.3989740738955" lon="14.751198378149546"><ele>721.5999999999999</ele><time>2026-04-25T13:39:58.999Z</time></trkpt><trkpt lat="41.39887255822573" lon="14.751148098666606"><ele>721.0</ele><time>2026-04-25T13:39:59.999Z</time></trkpt><trkpt lat="41.398808100043695" lon="14.751034648529934"><ele>720.5</ele><time>2026-04-25T13:40:00.999Z</time></trkpt><trkpt lat="41.39877835913836" lon="14.750912349405144"><ele>720.0</ele><time>2026-04-25T13:40:01.999Z</time></trkpt><trkpt lat="41.39875214307234" lon="14.750742106833412"><ele>719.5</ele><time>2026-04-25T13:40:02.999Z</time></trkpt><trkpt lat="41.39870909034701" lon="14.750530770580886"><ele>719.0</ele><time>2026-04-25T13:40:03.999Z</time></trkpt><trkpt lat="41.39864085350554" lon="14.75034004912457"><ele>720.0</ele><time>2026-04-25T13:40:04.999Z</time></trkpt><trkpt lat="41.398574789181325" lon="14.750165958374433"><ele>721.0</ele><time>2026-04-25T13:40:05.999Z</time></trkpt><trkpt lat="41.39847930643573" lon="14.750033235690791"><ele>722.0</ele><time>2026-04-25T13:40:06.999Z</time></trkpt><trkpt lat="41.39836786367343" lon="14.749934084986354"><ele>723.0</ele><time>2026-04-25T13:40:07.999Z</time></trkpt><trkpt lat="41.39822753307746" lon="14.74987759551745"><ele>723.0</ele><time>2026-04-25T13:40:08.999Z</time></trkpt><trkpt lat="41.39807873337856" lon="14.749895897875536"><ele>723.0</ele><time>2026-04-25T13:40:09.999Z</time></trkpt><trkpt lat="41.397943354963445" lon="14.749906163714941"><ele>723.0</ele><time>2026-04-25T13:40:10.999Z</time></trkpt><trkpt lat="41.39782957115639" lon="14.749872393772776"><ele>723.0</ele><time>2026-04-25T13:40:11.999Z</time></trkpt><trkpt lat="41.39771567913343" lon="14.749822320937852"><ele>721.25</ele><time>2026-04-25T13:40:12.999Z</time></trkpt><trkpt lat="41.39760600349088" lon="14.749741119896294"><ele>719.5</ele><time>2026-04-25T13:40:13.999Z</time></trkpt><trkpt lat="41.39750453007754" lon="14.7496678683903"><ele>717.75</ele><time>2026-04-25T13:40:14.999Z</time></trkpt><trkpt lat="41.39746992745874" lon="14.7495266641001"><ele>716.0</ele><time>2026-04-25T13:40:15.999Z</time></trkpt><trkpt lat="41.39746119723646" lon="14.749385591369785"><ele>717.25</ele><time>2026-04-25T13:40:16.999Z</time></trkpt><trkpt lat="41.39746412371101" lon="14.749216886263"><ele>718.5</ele><time>2026-04-25T13:40:17.999Z</time></trkpt><trkpt lat="41.39747248435907" lon="14.749029906250824"><ele>719.75</ele><time>2026-04-25T13:40:18.999Z</time></trkpt><trkpt lat="41.39743476796388" lon="14.748859985402595"><ele>721.0</ele><time>2026-04-25T13:40:19.999Z</time></trkpt><trkpt lat="41.39735249197186" lon="14.748644631868604"><ele>722.6666666666667</ele><time>2026-04-25T13:40:20.999Z</time></trkpt><trkpt lat="41.39727764197107" lon="14.748418437466297"><ele>724.3333333333334</ele><time>2026-04-25T13:40:21.999Z</time></trkpt><trkpt lat="41.39722819118094" lon="14.748205125488346"><ele>726.0</ele><time>2026-04-25T13:40:22.999Z</time></trkpt><trkpt lat="41.39720348570761" lon="14.748038350865329"><ele>726.0</ele><time>2026-04-25T13:40:23.999Z</time></trkpt><trkpt lat="41.39721344263897" lon="14.747890023225128"><ele>726.0</ele><time>2026-04-25T13:40:24.999Z</time></trkpt><trkpt lat="41.39728184118183" lon="14.74773196954804"><ele>726.0</ele><time>2026-04-25T13:40:25.999Z</time></trkpt><trkpt lat="41.39736858373412" lon="14.747570533562522"><ele>726.0</ele><time>2026-04-25T13:40:26.999Z</time></trkpt><trkpt lat="41.39748285008036" lon="14.74744946550546"><ele>725.25</ele><time>2026-04-25T13:40:27.999Z</time></trkpt><trkpt lat="41.39758105877242" lon="14.747321547007541"><ele>724.5</ele><time>2026-04-25T13:40:28.999Z</time></trkpt><trkpt lat="41.39763651569761" lon="14.747230254063892"><ele>723.75</ele><time>2026-04-25T13:40:29.999Z</time></trkpt><trkpt lat="41.397658235833774" lon="14.747040319625958"><ele>723.0</ele><time>2026-04-25T13:40:30.999Z</time></trkpt><trkpt lat="41.39764086660668" lon="14.746848812502456"><ele>722.5</ele><time>2026-04-25T13:40:31.999Z</time></trkpt><trkpt lat="41.39759066346894" lon="14.746650493904008"><ele>722.0</ele><time>2026-04-25T13:40:32.999Z</time></trkpt><trkpt lat="41.39753068257541" lon="14.746462014443765"><ele>721.5</ele><time>2026-04-25T13:40:33.998Z</time></trkpt><trkpt lat="41.397474255264314" lon="14.746319977334341"><ele>721.0</ele><time>2026-04-25T13:40:34.998Z</time></trkpt><trkpt lat="41.39738582674016" lon="14.746224599412615"><ele>721.0</ele><time>2026-04-25T13:40:35.998Z</time></trkpt><trkpt lat="41.39726694582884" lon="14.746172864106539"><ele>721.0</ele><time>2026-04-25T13:40:36.998Z</time></trkpt><trkpt lat="41.39713640006841" lon="14.74617145094136"><ele>721.0</ele><time>2026-04-25T13:40:37.998Z</time></trkpt><trkpt lat="41.39699781533979" lon="14.746215415594767"><ele>721.0</ele><time>2026-04-25T13:40:38.998Z</time></trkpt><trkpt lat="41.39684319259489" lon="14.746275299366292"><ele>720.25</ele><time>2026-04-25T13:40:39.998Z</time></trkpt><trkpt lat="41.39669343885472" lon="14.746346871874826"><ele>719.5</ele><time>2026-04-25T13:40:40.998Z</time></trkpt><trkpt lat="41.39655621388714" lon="14.746425056135429"><ele>718.75</ele><time>2026-04-25T13:40:42Z</time></trkpt><trkpt lat="41.39642397333707" lon="14.746457232480147"><ele>718.0</ele><time>2026-04-25T13:40:43Z</time></trkpt><trkpt lat="41.39628502877964" lon="14.74647263922274"><ele>718.0</ele><time>2026-04-25T13:40:44Z</time></trkpt><trkpt lat="41.396115770046244" lon="14.746455727860614"><ele>718.0</ele><time>2026-04-25T13:40:45Z</time></trkpt><trkpt lat="41.395959696467436" lon="14.746447018043696"><ele>718.0</ele><time>2026-04-25T13:40:46Z</time></trkpt><trkpt lat="41.39583759177991" lon="14.746382052708766"><ele>718.0</ele><time>2026-04-25T13:40:47Z</time></trkpt><trkpt lat="41.39575399222198" lon="14.746322693298767"><ele>718.0</ele><time>2026-04-25T13:40:48Z</time></trkpt><trkpt lat="41.395704943364116" lon="14.746187067129906"><ele>718.0</ele><time>2026-04-25T13:40:49Z</time></trkpt><trkpt lat="41.39571006511618" lon="14.746016829026745"><ele>718.0</ele><time>2026-04-25T13:40:50Z</time></trkpt><trkpt lat="41.395675692467236" lon="14.74583541488476"><ele>719.25</ele><time>2026-04-25T13:40:51Z</time></trkpt><trkpt lat="41.395639003034496" lon="14.745675724596218"><ele>720.5</ele><time>2026-04-25T13:40:52Z</time></trkpt><trkpt lat="41.395551418665384" lon="14.745580763374365"><ele>721.75</ele><time>2026-04-25T13:40:53Z</time></trkpt><trkpt lat="41.39542470606766" lon="14.745502375730968"><ele>723.0</ele><time>2026-04-25T13:40:54Z</time></trkpt><trkpt lat="41.395330127124254" lon="14.745394704490092"><ele>721.75</ele><time>2026-04-25T13:40:55Z</time></trkpt><trkpt lat="41.39525437754123" lon="14.745274603093224"><ele>720.5</ele><time>2026-04-25T13:40:56Z</time></trkpt><trkpt lat="41.39522950825024" lon="14.745080623033608"><ele>719.25</ele><time>2026-04-25T13:40:57Z</time></trkpt><trkpt lat="41.39521922619166" lon="14.744878588722454"><ele>718.0</ele><time>2026-04-25T13:40:58Z</time></trkpt><trkpt lat="41.3952317558689" lon="14.744647887852471"><ele>718.0</ele><time>2026-04-25T13:40:59Z</time></trkpt><trkpt lat="41.39522107226172" lon="14.744447203624778"><ele>718.0</ele><time>2026-04-25T13:41:00Z</time></trkpt><trkpt lat="41.39518797440199" lon="14.744230468221001"><ele>718.0</ele><time>2026-04-25T13:41:01Z</time></trkpt><trkpt lat="41.39513114714148" lon="14.744000864312016"><ele>719.5</ele><time>2026-04-25T13:41:02Z</time></trkpt><trkpt lat="41.39509786098869" lon="14.74381221687481"><ele>721.0</ele><time>2026-04-25T13:41:03Z</time></trkpt><trkpt lat="41.39506218687375" lon="14.743660619830214"><ele>722.5</ele><time>2026-04-25T13:41:04Z</time></trkpt><trkpt lat="41.394988935792085" lon="14.743531521753198"><ele>724.0</ele><time>2026-04-25T13:41:05Z</time></trkpt><trkpt lat="41.39491418030038" lon="14.743398559468051"><ele>725.5</ele><time>2026-04-25T13:41:06Z</time></trkpt><trkpt lat="41.3948382328965" lon="14.743243301173779"><ele>727.0</ele><time>2026-04-25T13:41:07Z</time></trkpt><trkpt lat="41.39480360715727" lon="14.743061193461415"><ele>728.5</ele><time>2026-04-25T13:41:08Z</time></trkpt><trkpt lat="41.394753310921146" lon="14.742868881103371"><ele>730.0</ele><time>2026-04-25T13:41:09Z</time></trkpt><trkpt lat="41.394674587728765" lon="14.742664916716654"><ele>729.25</ele><time>2026-04-25T13:41:10Z</time></trkpt><trkpt lat="41.39454724660854" lon="14.742537139991038"><ele>728.5</ele><time>2026-04-25T13:41:11Z</time></trkpt><trkpt lat="41.394440135214225" lon="14.74245603524831"><ele>727.75</ele><time>2026-04-25T13:41:12Z</time></trkpt><trkpt lat="41.394337377961456" lon="14.742409054071107"><ele>727.0</ele><time>2026-04-25T13:41:13Z</time></trkpt><trkpt lat="41.39419290554653" lon="14.74238972132121"><ele>727.0</ele><time>2026-04-25T13:41:14Z</time></trkpt><trkpt lat="41.39402110265208" lon="14.742389473849853"><ele>727.0</ele><time>2026-04-25T13:41:15Z</time></trkpt><trkpt lat="41.39388207290747" lon="14.74232440815021"><ele>727.0</ele><time>2026-04-25T13:41:16Z</time></trkpt><trkpt lat="41.39376539179907" lon="14.742228830620812"><ele>726.6</ele><time>2026-04-25T13:41:17Z</time></trkpt><trkpt lat="41.3936721542743" lon="14.742202230519025"><ele>726.2</ele><time>2026-04-25T13:41:18Z</time></trkpt><trkpt lat="41.393591982052556" lon="14.742170237542638"><ele>725.8</ele><time>2026-04-25T13:41:19Z</time></trkpt><trkpt lat="41.39350555287147" lon="14.74219418148825"><ele>725.4</ele><time>2026-04-25T13:41:20Z</time></trkpt><trkpt lat="41.39339932073284" lon="14.742280306054552"><ele>725.0</ele><time>2026-04-25T13:41:21Z</time></trkpt><trkpt lat="41.39330391816484" lon="14.742420146751646"><ele>725.0</ele><time>2026-04-25T13:41:22Z</time></trkpt><trkpt lat="41.39320552261165" lon="14.742556735145444"><ele>725.0</ele><time>2026-04-25T13:41:23Z</time></trkpt><trkpt lat="41.393097203970704" lon="14.742578495873788"><ele>725.0</ele><time>2026-04-25T13:41:24Z</time></trkpt><trkpt lat="41.39300141417083" lon="14.742564029811263"><ele>725.0</ele><time>2026-04-25T13:41:25Z</time></trkpt><trkpt lat="41.39289292779708" lon="14.742502474455309"><ele>724.0</ele><time>2026-04-25T13:41:25.999Z</time></trkpt><trkpt lat="41.39278599985571" lon="14.74240944928084"><ele>723.0</ele><time>2026-04-25T13:41:26.999Z</time></trkpt><trkpt lat="41.392673096908474" lon="14.742292853789557"><ele>722.0</ele><time>2026-04-25T13:41:27.999Z</time></trkpt><trkpt lat="41.392583865002415" lon="14.74214173857998"><ele>721.0</ele><time>2026-04-25T13:41:28.999Z</time></trkpt><trkpt lat="41.39250447145362" lon="14.741973660392416"><ele>720.8</ele><time>2026-04-25T13:41:29.999Z</time></trkpt><trkpt lat="41.39244941650093" lon="14.741813256219265"><ele>720.5999999999999</ele><time>2026-04-25T13:41:30.999Z</time></trkpt><trkpt lat="41.39241565449622" lon="14.741662284840535"><ele>720.4</ele><time>2026-04-25T13:41:31.999Z</time></trkpt><trkpt lat="41.3923527847522" lon="14.741558777981355"><ele>720.2</ele><time>2026-04-25T13:41:32.999Z</time></trkpt><trkpt lat="41.392306206154984" lon="14.741443274721522"><ele>720.0</ele><time>2026-04-25T13:41:33.999Z</time></trkpt><trkpt lat="41.392166616028334" lon="14.741381163580284"><ele>720.0</ele><time>2026-04-25T13:41:34.999Z</time></trkpt><trkpt lat="41.39200263478076" lon="14.741332768518486"><ele>720.0</ele><time>2026-04-25T13:41:35.999Z</time></trkpt><trkpt lat="41.391831019630466" lon="14.741263018872292"><ele>720.0</ele><time>2026-04-25T13:41:36.999Z</time></trkpt><trkpt lat="41.39165572410711" lon="14.741188301803705"><ele>720.0</ele><time>2026-04-25T13:41:37.999Z</time></trkpt><trkpt lat="41.39152168684894" lon="14.74110656727321"><ele>720.0</ele><time>2026-04-25T13:41:38.999Z</time></trkpt><trkpt lat="41.391399043433175" lon="14.740986957769977"><ele>720.0</ele><time>2026-04-25T13:41:39.999Z</time></trkpt><trkpt lat="41.391287153347285" lon="14.740854953791425"><ele>720.0</ele><time>2026-04-25T13:41:40.999Z</time></trkpt><trkpt lat="41.39117985079657" lon="14.740683765093692"><ele>721.0</ele><time>2026-04-25T13:41:41.999Z</time></trkpt><trkpt lat="41.39106724071942" lon="14.740530587561151"><ele>722.0</ele><time>2026-04-25T13:41:42.999Z</time></trkpt><trkpt lat="41.390964215960885" lon="14.740410162657309"><ele>723.0</ele><time>2026-04-25T13:41:43.999Z</time></trkpt><trkpt lat="41.39089959894" lon="14.740253830183592"><ele>724.0</ele><time>2026-04-25T13:41:44.999Z</time></trkpt><trkpt lat="41.39083544389174" lon="14.740097121913625"><ele>725.5</ele><time>2026-04-25T13:41:45.999Z</time></trkpt><trkpt lat="41.39076608652091" lon="14.739955206341223"><ele>727.0</ele><time>2026-04-25T13:41:46.999Z</time></trkpt><trkpt lat="41.390685365175514" lon="14.739846888322763"><ele>728.5</ele><time>2026-04-25T13:41:47.999Z</time></trkpt><trkpt lat="41.39057289861214" lon="14.7397855911788"><ele>730.0</ele><time>2026-04-25T13:41:48.999Z</time></trkpt><trkpt lat="41.390451021441564" lon="14.73980217407629"><ele>730.0</ele><time>2026-04-25T13:41:49.999Z</time></trkpt><trkpt lat="41.390262313212254" lon="14.739783728711599"><ele>730.0</ele><time>2026-04-25T13:41:50.999Z</time></trkpt><trkpt lat="41.39010060850807" lon="14.739773300640353"><ele>730.0</ele><time>2026-04-25T13:41:51.999Z</time></trkpt><trkpt lat="41.38996114031091" lon="14.739647489387286"><ele>730.0</ele><time>2026-04-25T13:41:52.999Z</time></trkpt><trkpt lat="41.38983284950772" lon="14.739541756537808"><ele>730.0</ele><time>2026-04-25T13:41:53.999Z</time></trkpt><trkpt lat="41.38973219247738" lon="14.739428878875165"><ele>730.0</ele><time>2026-04-25T13:41:54.999Z</time></trkpt><trkpt lat="41.38963791161671" lon="14.73929906017798"><ele>730.0</ele><time>2026-04-25T13:41:55.999Z</time></trkpt><trkpt lat="41.389554403101265" lon="14.7391457053794"><ele>730.3333333333334</ele><time>2026-04-25T13:41:56.999Z</time></trkpt><trkpt lat="41.38947055409525" lon="14.738957856281594"><ele>730.6666666666666</ele><time>2026-04-25T13:41:57.999Z</time></trkpt><trkpt lat="41.38941091731742" lon="14.738740500812877"><ele>731.0</ele><time>2026-04-25T13:41:58.999Z</time></trkpt><trkpt lat="41.38932384812561" lon="14.738512425861645"><ele>731.0</ele><time>2026-04-25T13:41:59.999Z</time></trkpt><trkpt lat="41.38925990357422" lon="14.73828599604722"><ele>731.0</ele><time>2026-04-25T13:42:00.999Z</time></trkpt><trkpt lat="41.38917428856861" lon="14.73804898838281"><ele>731.0</ele><time>2026-04-25T13:42:01.999Z</time></trkpt><trkpt lat="41.389093245306114" lon="14.73786444453077"><ele>731.0</ele><time>2026-04-25T13:42:02.999Z</time></trkpt><trkpt lat="41.38907191134162" lon="14.737765400269572"><ele>731.0</ele><time>2026-04-25T13:42:03.999Z</time></trkpt><trkpt lat="41.38910462991135" lon="14.73760515271324"><ele>731.0</ele><time>2026-04-25T13:42:05.999Z</time></trkpt><trkpt lat="41.38918715007944" lon="14.737437520482512"><ele>731.0</ele><time>2026-04-25T13:42:06.999Z</time></trkpt><trkpt lat="41.389284459563754" lon="14.737361144359067"><ele>730.5999999999999</ele><time>2026-04-25T13:42:07.999Z</time></trkpt><trkpt lat="41.38938383526969" lon="14.737298199595672"><ele>730.2</ele><time>2026-04-25T13:42:08.999Z</time></trkpt><trkpt lat="41.38948075295236" lon="14.737290370861583"><ele>729.8</ele><time>2026-04-25T13:42:09.999Z</time></trkpt><trkpt lat="41.38955275777179" lon="14.73724349056967"><ele>729.4000000000001</ele><time>2026-04-25T13:42:10.999Z</time></trkpt><trkpt lat="41.38966338947329" lon="14.73738361955284"><ele>729.0</ele><time>2026-04-25T13:42:11.999Z</time></trkpt><trkpt lat="41.389817507124626" lon="14.737453773135494"><ele>730.4000000000001</ele><time>2026-04-25T13:42:12.999Z</time></trkpt><trkpt lat="41.38994673974165" lon="14.737494501885617"><ele>731.8</ele><time>2026-04-25T13:42:13.999Z</time></trkpt><trkpt lat="41.39004992393332" lon="14.737554449144525"><ele>733.2</ele><time>2026-04-25T13:42:14.999Z</time></trkpt><trkpt lat="41.39014243800141" lon="14.737585341258512"><ele>734.5999999999999</ele><time>2026-04-25T13:42:15.999Z</time></trkpt><trkpt lat="41.39021465972447" lon="14.737594036801081"><ele>736.0</ele><time>2026-04-25T13:42:16.999Z</time></trkpt><trkpt lat="41.39031196909262" lon="14.737511106453285"><ele>736.0</ele><time>2026-04-25T13:42:18.999Z</time></trkpt><trkpt lat="41.390324181231506" lon="14.737317873031165"><ele>736.0</ele><time>2026-04-25T13:42:20.999Z</time></trkpt><trkpt lat="41.39032375036248" lon="14.737181815260174"><ele>736.0</ele><time>2026-04-25T13:42:21.998Z</time></trkpt><trkpt lat="41.390332298030415" lon="14.737034707001602"><ele>736.0</ele><time>2026-04-25T13:42:22.998Z</time></trkpt><trkpt lat="41.39035726434859" lon="14.736883861352077"><ele>736.4</ele><time>2026-04-25T13:42:23.998Z</time></trkpt><trkpt lat="41.39039625174771" lon="14.736748263635665"><ele>736.8</ele><time>2026-04-25T13:42:24.998Z</time></trkpt><trkpt lat="41.39044174019597" lon="14.736665636652008"><ele>737.1999999999999</ele><time>2026-04-25T13:42:25.998Z</time></trkpt><trkpt lat="41.39053954037052" lon="14.73653491437443"><ele>737.5999999999999</ele><time>2026-04-25T13:42:28.998Z</time></trkpt><trkpt lat="41.390611516303956" lon="14.7364502369476"><ele>738.0</ele><time>2026-04-25T13:42:32.998Z</time></trkpt><trkpt lat="41.39062731586262" lon="14.736257976778862"><ele>738.0</ele><time>2026-04-25T13:42:34.998Z</time></trkpt><trkpt lat="41.39064523003424" lon="14.736132569528557"><ele>738.0</ele><time>2026-04-25T13:42:35.998Z</time></trkpt><trkpt lat="41.39064995180237" lon="14.735972804990489"><ele>738.0</ele><time>2026-04-25T13:42:36.998Z</time></trkpt><trkpt lat="41.39065595282601" lon="14.73581628999997"><ele>738.0</ele><time>2026-04-25T13:42:37.998Z</time></trkpt><trkpt lat="41.3906608125257" lon="14.73567181608976"><ele>738.0</ele><time>2026-04-25T13:42:38.998Z</time></trkpt><trkpt lat="41.390657714374456" lon="14.735525369948515"><ele>737.0</ele><time>2026-04-25T13:42:39.998Z</time></trkpt><trkpt lat="41.39062775250312" lon="14.735378364523719"><ele>736.0</ele><time>2026-04-25T13:42:40.998Z</time></trkpt><trkpt lat="41.39059459653693" lon="14.735228207915943"><ele>735.0</ele><time>2026-04-25T13:42:41.998Z</time></trkpt><trkpt lat="41.39057292812937" lon="14.735089645450913"><ele>734.0</ele><time>2026-04-25T13:42:42.998Z</time></trkpt><trkpt lat="41.39055001878766" lon="14.7349815646821"><ele>733.0</ele><time>2026-04-25T13:42:43.998Z</time></trkpt><trkpt lat="41.39054402985611" lon="14.734872453034411"><ele>732.8333333333334</ele><time>2026-04-25T13:42:44.998Z</time></trkpt><trkpt lat="41.390545261381654" lon="14.73477355292371"><ele>732.6666666666667</ele><time>2026-04-25T13:42:45.998Z</time></trkpt><trkpt lat="41.39056496958088" lon="14.734664494954679"><ele>732.5</ele><time>2026-04-25T13:42:46.998Z</time></trkpt><trkpt lat="41.39061046039159" lon="14.734571839812984"><ele>732.3333333333334</ele><time>2026-04-25T13:42:47.999Z</time></trkpt><trkpt lat="41.390620335155354" lon="14.73445836911435"><ele>732.1666666666666</ele><time>2026-04-25T13:42:48.999Z</time></trkpt><trkpt lat="41.39063846670403" lon="14.734361283376833"><ele>732.0</ele><time>2026-04-25T13:42:49.999Z</time></trkpt><trkpt lat="41.39063450991598" lon="14.734210156392084"><ele>732.0</ele><time>2026-04-25T13:42:51.999Z</time></trkpt><trkpt lat="41.39062780592257" lon="14.734125168895309"><ele>732.0</ele><time>2026-04-25T13:42:52.999Z</time></trkpt><trkpt lat="41.39065566376852" lon="14.734045027595347"><ele>732.0</ele><time>2026-04-25T13:42:54.999Z</time></trkpt><trkpt lat="41.39075261351549" lon="14.734079733344664"><ele>732.0</ele><time>2026-04-25T13:42:56.999Z</time></trkpt><trkpt lat="41.39083087201808" lon="14.734175509359574"><ele>732.0</ele><time>2026-04-25T13:42:57.999Z</time></trkpt><trkpt lat="41.39093451928262" lon="14.73427319534163"><ele>732.0</ele><time>2026-04-25T13:42:58.999Z</time></trkpt><trkpt lat="41.39105278172471" lon="14.73438807063016"><ele>732.0</ele><time>2026-04-25T13:42:59.999Z</time></trkpt><trkpt lat="41.39113514606692" lon="14.734511840385865"><ele>732.0</ele><time>2026-04-25T13:43:00.999Z</time></trkpt><trkpt lat="41.39121571906472" lon="14.734611363155388"><ele>732.0</ele><time>2026-04-25T13:43:01.999Z</time></trkpt><trkpt lat="41.391289883276585" lon="14.734700641569944"><ele>727.3333333333334</ele><time>2026-04-25T13:43:02.999Z</time></trkpt><trkpt lat="41.391368653992224" lon="14.73479850729002"><ele>722.6666666666667</ele><time>2026-04-25T13:43:04.999Z</time></trkpt><trkpt lat="41.39152285823903" lon="14.734891972830967"><ele>718.0</ele><time>2026-04-25T13:43:08.999Z</time></trkpt><trkpt lat="41.3915083514312" lon="14.734567521415766"><ele>718.0</ele><time>2026-04-25T13:43:10.999Z</time></trkpt><trkpt lat="41.39147815274135" lon="14.734390703589908"><ele>718.0</ele><time>2026-04-25T13:43:11.999Z</time></trkpt><trkpt lat="41.39145332742227" lon="14.734190894784662"><ele>718.0</ele><time>2026-04-25T13:43:12.999Z</time></trkpt><trkpt lat="41.391422308101305" lon="14.734004619318176"><ele>718.0</ele><time>2026-04-25T13:43:13.999Z</time></trkpt><trkpt lat="41.391391304110584" lon="14.73383497485037"><ele>719.6666666666667</ele><time>2026-04-25T13:43:14.999Z</time></trkpt><trkpt lat="41.39132580610031" lon="14.73363138098486"><ele>721.3333333333334</ele><time>2026-04-25T13:43:15.999Z</time></trkpt><trkpt lat="41.39123216852215" lon="14.73341196297158"><ele>723.0</ele><time>2026-04-25T13:43:16.999Z</time></trkpt><trkpt lat="41.39114530488504" lon="14.733199999950562"><ele>723.0</ele><time>2026-04-25T13:43:17.999Z</time></trkpt><trkpt lat="41.39108027645713" lon="14.73299357281957"><ele>723.0</ele><time>2026-04-25T13:43:18.999Z</time></trkpt><trkpt lat="41.39102270268202" lon="14.732807258013883"><ele>723.0</ele><time>2026-04-25T13:43:19.999Z</time></trkpt><trkpt lat="41.390952567581394" lon="14.732688581988063"><ele>723.0</ele><time>2026-04-25T13:43:20.999Z</time></trkpt><trkpt lat="41.39083636949474" lon="14.732541770556645"><ele>719.4</ele><time>2026-04-25T13:43:21.999Z</time></trkpt><trkpt lat="41.39069873395237" lon="14.73243790314308"><ele>715.8</ele><time>2026-04-25T13:43:22.999Z</time></trkpt><trkpt lat="41.390584383468635" lon="14.73237777881316"><ele>712.2</ele><time>2026-04-25T13:43:23.999Z</time></trkpt><trkpt lat="41.390493124029426" lon="14.73234880431591"><ele>708.6</ele><time>2026-04-25T13:43:24.999Z</time></trkpt><trkpt lat="41.390422947931874" lon="14.73233026065173"><ele>705.0</ele><time>2026-04-25T13:43:25.999Z</time></trkpt><trkpt lat="41.390322263042634" lon="14.732331587481925"><ele>705.0</ele><time>2026-04-25T13:43:27.999Z</time></trkpt><trkpt lat="41.39024521563341" lon="14.732322287006982"><ele>705.0</ele><time>2026-04-25T13:43:29.999Z</time></trkpt><trkpt lat="41.3904115794869" lon="14.732328720034241"><ele>705.0</ele><time>2026-04-25T13:43:37.999Z</time></trkpt><trkpt lat="41.39051355554137" lon="14.732336627189481"><ele>705.0</ele><time>2026-04-25T13:43:38.999Z</time></trkpt><trkpt lat="41.390613890636935" lon="14.732342494674974"><ele>705.0</ele><time>2026-04-25T13:43:39.999Z</time></trkpt><trkpt lat="41.39071833686563" lon="14.732469572592162"><ele>703.6666666666666</ele><time>2026-04-25T13:43:40.999Z</time></trkpt><trkpt lat="41.39090024015867" lon="14.732652666268246"><ele>702.3333333333333</ele><time>2026-04-25T13:43:42.999Z</time></trkpt><trkpt lat="41.390986204990156" lon="14.732781357851428"><ele>701.0</ele><time>2026-04-25T13:43:43.999Z</time></trkpt><trkpt lat="41.391054679463544" lon="14.732930826847227"><ele>698.6666666666666</ele><time>2026-04-25T13:43:44.999Z</time></trkpt><trkpt lat="41.39110813366752" lon="14.73308460219213"><ele>696.3333333333334</ele><time>2026-04-25T13:43:45.999Z</time></trkpt><trkpt lat="41.391229095201595" lon="14.733304804640328"><ele>694.0</ele><time>2026-04-25T13:43:46.999Z</time></trkpt><trkpt lat="41.39134397143197" lon="14.733505445363006"><ele>698.6666666666667</ele><time>2026-04-25T13:43:47.999Z</time></trkpt><trkpt lat="41.391453672499836" lon="14.733727638131565"><ele>703.3333333333334</ele><time>2026-04-25T13:43:48.999Z</time></trkpt><trkpt lat="41.39144762904556" lon="14.733923418565842"><ele>708.0</ele><time>2026-04-25T13:43:49.999Z</time></trkpt><trkpt lat="41.3914731098652" lon="14.734126525098377"><ele>708.0</ele><time>2026-04-25T13:43:50.999Z</time></trkpt><trkpt lat="41.391432401022875" lon="14.734364290668436"><ele>708.0</ele><time>2026-04-25T13:43:51.999Z</time></trkpt><trkpt lat="41.391464564681115" lon="14.734525936623607"><ele>708.0</ele><time>2026-04-25T13:43:52.999Z</time></trkpt><trkpt lat="41.391503693138816" lon="14.734680104153139"><ele>708.0</ele><time>2026-04-25T13:43:53.999Z</time></trkpt><trkpt lat="41.391541827281976" lon="14.734799977889857"><ele>708.0</ele><time>2026-04-25T13:43:54.999Z</time></trkpt><trkpt lat="41.39156878337858" lon="14.734898583105133"><ele>708.0</ele><time>2026-04-25T13:43:56.999Z</time></trkpt><trkpt lat="41.39170920669193" lon="14.734779480153351"><ele>708.0</ele><time>2026-04-25T13:43:58.999Z</time></trkpt><trkpt lat="41.39172309518931" lon="14.734656339291686"><ele>708.0</ele><time>2026-04-25T13:43:59.999Z</time></trkpt><trkpt lat="41.39169212659303" lon="14.734515761419914"><ele>708.0</ele><time>2026-04-25T13:44:00.999Z</time></trkpt><trkpt lat="41.39167252654723" lon="14.734350561304595"><ele>708.0</ele><time>2026-04-25T13:44:01.999Z</time></trkpt><trkpt lat="41.39165819116502" lon="14.734174154417527"><ele>708.0</ele><time>2026-04-25T13:44:02.999Z</time></trkpt><trkpt lat="41.39166060060095" lon="14.733990432657047"><ele>708.0</ele><time>2026-04-25T13:44:03.999Z</time></trkpt><trkpt lat="41.391662445004094" lon="14.733805884921681"><ele>708.0</ele><time>2026-04-25T13:44:04.999Z</time></trkpt><trkpt lat="41.39165235884849" lon="14.733631477614704"><ele>704.5</ele><time>2026-04-25T13:44:05.999Z</time></trkpt><trkpt lat="41.39163289018577" lon="14.733465978299252"><ele>701.0</ele><time>2026-04-25T13:44:06.999Z</time></trkpt><trkpt lat="41.39159019261554" lon="14.73330622125804"><ele>697.5</ele><time>2026-04-25T13:44:07.999Z</time></trkpt><trkpt lat="41.39153179250037" lon="14.733137648042275"><ele>694.0</ele><time>2026-04-25T13:44:08.999Z</time></trkpt><trkpt lat="41.39146764094354" lon="14.732965934342214"><ele>694.0</ele><time>2026-04-25T13:44:09.999Z</time></trkpt><trkpt lat="41.39139037665135" lon="14.73279858387401"><ele>694.0</ele><time>2026-04-25T13:44:10.999Z</time></trkpt><trkpt lat="41.391298256083665" lon="14.73265356314159"><ele>694.0</ele><time>2026-04-25T13:44:11.999Z</time></trkpt><trkpt lat="41.39121639075321" lon="14.732514675111641"><ele>694.0</ele><time>2026-04-25T13:44:12.999Z</time></trkpt><trkpt lat="41.391129271131625" lon="14.732397899240933"><ele>695.75</ele><time>2026-04-25T13:44:13.999Z</time></trkpt><trkpt lat="41.39103391470221" lon="14.732274238960033"><ele>697.5</ele><time>2026-04-25T13:44:14.999Z</time></trkpt><trkpt lat="41.390939044824336" lon="14.732144207060486"><ele>699.25</ele><time>2026-04-25T13:44:15.999Z</time></trkpt><trkpt lat="41.39085310689099" lon="14.732029924633954"><ele>701.0</ele><time>2026-04-25T13:44:16.999Z</time></trkpt><trkpt lat="41.390762888284016" lon="14.731923086362245"><ele>697.5999999999999</ele><time>2026-04-25T13:44:17.999Z</time></trkpt><trkpt lat="41.390681239662456" lon="14.731855941812753"><ele>694.2</ele><time>2026-04-25T13:44:18.998Z</time></trkpt><trkpt lat="41.39062667960184" lon="14.731806479979971"><ele>690.8</ele><time>2026-04-25T13:44:19.998Z</time></trkpt><trkpt lat="41.390669223900375" lon="14.731629609141766"><ele>687.4000000000001</ele><time>2026-04-25T13:44:22.998Z</time></trkpt><trkpt lat="41.39071584430315" lon="14.731500867017077"><ele>684.0</ele><time>2026-04-25T13:44:23.998Z</time></trkpt><trkpt lat="41.39076104466139" lon="14.731377000106392"><ele>684.0</ele><time>2026-04-25T13:44:24.998Z</time></trkpt><trkpt lat="41.390816477585155" lon="14.731231338303978"><ele>684.0</ele><time>2026-04-25T13:44:25.998Z</time></trkpt><trkpt lat="41.39087254673249" lon="14.73110853217271"><ele>684.0</ele><time>2026-04-25T13:44:26.998Z</time></trkpt><trkpt lat="41.3908973797321" lon="14.73098224622453"><ele>684.0</ele><time>2026-04-25T13:44:27.998Z</time></trkpt><trkpt lat="41.39093507710969" lon="14.730884520541865"><ele>684.0</ele><time>2026-04-25T13:44:28.998Z</time></trkpt><trkpt lat="41.390925148580656" lon="14.730765741114494"><ele>684.0</ele><time>2026-04-25T13:44:29.998Z</time></trkpt><trkpt lat="41.390882688176745" lon="14.730628244573175"><ele>684.0</ele><time>2026-04-25T13:44:30.998Z</time></trkpt><trkpt lat="41.390788113946556" lon="14.730524693735706"><ele>684.0</ele><time>2026-04-25T13:44:31.998Z</time></trkpt><trkpt lat="41.39068486458262" lon="14.730427977301481"><ele>684.0</ele><time>2026-04-25T13:44:32.998Z</time></trkpt><trkpt lat="41.390586089790986" lon="14.730324649403551"><ele>682.5</ele><time>2026-04-25T13:44:33.998Z</time></trkpt><trkpt lat="41.3904888985775" lon="14.730211082532316"><ele>681.0</ele><time>2026-04-25T13:44:34.998Z</time></trkpt><trkpt lat="41.39039771997312" lon="14.730106383058022"><ele>679.5</ele><time>2026-04-25T13:44:35.998Z</time></trkpt><trkpt lat="41.390318828837145" lon="14.730002115960067"><ele>678.0</ele><time>2026-04-25T13:44:36.998Z</time></trkpt><trkpt lat="41.3902488140052" lon="14.729907330653647"><ele>678.0</ele><time>2026-04-25T13:44:37.998Z</time></trkpt><trkpt lat="41.39023441044032" lon="14.729793036240784"><ele>678.0</ele><time>2026-04-25T13:44:38.998Z</time></trkpt><trkpt lat="41.3902428501757" lon="14.729684166402105"><ele>678.0</ele><time>2026-04-25T13:44:39.998Z</time></trkpt><trkpt lat="41.39028929245077" lon="14.729522446463832"><ele>678.0</ele><time>2026-04-25T13:44:41.998Z</time></trkpt><trkpt lat="41.390319695793416" lon="14.729418849483778"><ele>678.0</ele><time>2026-04-25T13:44:42.998Z</time></trkpt><trkpt lat="41.390331677772295" lon="14.729312181571222"><ele>678.5999999999999</ele><time>2026-04-25T13:44:43.998Z</time></trkpt><trkpt lat="41.39032027306303" lon="14.72918849326997"><ele>679.1999999999999</ele><time>2026-04-25T13:44:44.998Z</time></trkpt><trkpt lat="41.390293881786334" lon="14.72905085398174"><ele>679.8</ele><time>2026-04-25T13:44:45.998Z</time></trkpt><trkpt lat="41.390262711569214" lon="14.728897881453673"><ele>680.4</ele><time>2026-04-25T13:44:46.998Z</time></trkpt><trkpt lat="41.390235076019586" lon="14.72875022299843"><ele>681.0</ele><time>2026-04-25T13:44:47.998Z</time></trkpt><trkpt lat="41.39021615262167" lon="14.728607440855843"><ele>683.6666666666666</ele><time>2026-04-25T13:44:48.998Z</time></trkpt><trkpt lat="41.3902328147666" lon="14.728429367803313"><ele>686.3333333333333</ele><time>2026-04-25T13:44:50.998Z</time></trkpt><trkpt lat="41.39036258086965" lon="14.728178109724801"><ele>689.0</ele><time>2026-04-25T13:44:51.998Z</time></trkpt><trkpt lat="41.39055661176236" lon="14.728120076464943"><ele>690.25</ele><time>2026-04-25T13:44:52.998Z</time></trkpt><trkpt lat="41.390702500510216" lon="14.72819927127196"><ele>691.5</ele><time>2026-04-25T13:44:53.999Z</time></trkpt><trkpt lat="41.39078730203075" lon="14.728317783883481"><ele>692.75</ele><time>2026-04-25T13:44:54.999Z</time></trkpt><trkpt lat="41.39081617164775" lon="14.728445907477303"><ele>694.0</ele><time>2026-04-25T13:44:55.999Z</time></trkpt><trkpt lat="41.39081411331685" lon="14.728580290014323"><ele>694.0</ele><time>2026-04-25T13:44:56.999Z</time></trkpt><trkpt lat="41.39079259139251" lon="14.728677428936171"><ele>694.0</ele><time>2026-04-25T13:44:57.999Z</time></trkpt><trkpt lat="41.39074785054939" lon="14.728795411690896"><ele>694.0</ele><time>2026-04-25T13:44:58.999Z</time></trkpt><trkpt lat="41.39076656741415" lon="14.728706837978685"><ele>694.0</ele><time>2026-04-25T13:44:59.999Z</time></trkpt><trkpt lat="41.39072529429595" lon="14.728825167272028"><ele>694.0</ele><time>2026-04-25T13:45:00.999Z</time></trkpt><trkpt lat="41.390652803563775" lon="14.728916651587053"><ele>694.0</ele><time>2026-04-25T13:45:01.999Z</time></trkpt><trkpt lat="41.390544925564285" lon="14.728940869393297"><ele>690.75</ele><time>2026-04-25T13:45:02.999Z</time></trkpt><trkpt lat="41.390417603946524" lon="14.728920285558756"><ele>687.5</ele><time>2026-04-25T13:45:03.999Z</time></trkpt><trkpt lat="41.390322374426724" lon="14.728851464938996"><ele>684.25</ele><time>2026-04-25T13:45:04.999Z</time></trkpt><trkpt lat="41.390223313903384" lon="14.728756401381254"><ele>681.0</ele><time>2026-04-25T13:45:05.999Z</time></trkpt><trkpt lat="41.39010750202965" lon="14.72863299478149"><ele>682.3333333333334</ele><time>2026-04-25T13:45:06.999Z</time></trkpt><trkpt lat="41.38998549281058" lon="14.728487890422691"><ele>683.6666666666667</ele><time>2026-04-25T13:45:07.999Z</time></trkpt><trkpt lat="41.389825804710846" lon="14.72835202456581"><ele>685.0</ele><time>2026-04-25T13:45:08.999Z</time></trkpt><trkpt lat="41.389640055958104" lon="14.72818126590851"><ele>685.0</ele><time>2026-04-25T13:45:09.999Z</time></trkpt><trkpt lat="41.389440453173734" lon="14.728022941698367"><ele>685.0</ele><time>2026-04-25T13:45:10.999Z</time></trkpt><trkpt lat="41.38921557207535" lon="14.727855015329842"><ele>681.5</ele><time>2026-04-25T13:45:11.999Z</time></trkpt><trkpt lat="41.388992898846936" lon="14.727677907841283"><ele>678.0</ele><time>2026-04-25T13:45:12.999Z</time></trkpt><trkpt lat="41.3887832201298" lon="14.727463070321582"><ele>678.0</ele><time>2026-04-25T13:45:13.999Z</time></trkpt><trkpt lat="41.388591820927346" lon="14.727245781436222"><ele>678.0</ele><time>2026-04-25T13:45:14.999Z</time></trkpt><trkpt lat="41.388356367577416" lon="14.726945180750274"><ele>680.5</ele><time>2026-04-25T13:45:15.999Z</time></trkpt><trkpt lat="41.38814554179905" lon="14.726651911736646"><ele>683.0</ele><time>2026-04-25T13:45:16.999Z</time></trkpt><trkpt lat="41.38797822066876" lon="14.726391474956715"><ele>677.0</ele><time>2026-04-25T13:45:17.999Z</time></trkpt><trkpt lat="41.3877720916097" lon="14.726109192181136"><ele>671.0</ele><time>2026-04-25T13:45:18.999Z</time></trkpt><trkpt lat="41.38760440095034" lon="14.725841211427483"><ele>671.0</ele><time>2026-04-25T13:45:19.999Z</time></trkpt><trkpt lat="41.3874414573014" lon="14.725583589094656"><ele>671.0</ele><time>2026-04-25T13:45:20.999Z</time></trkpt><trkpt lat="41.38730851292296" lon="14.725330668158572"><ele>668.5</ele><time>2026-04-25T13:45:21.999Z</time></trkpt><trkpt lat="41.38712405717642" lon="14.725091010519622"><ele>666.0</ele><time>2026-04-25T13:45:22.999Z</time></trkpt><trkpt lat="41.38691580493904" lon="14.724867212794756"><ele>666.0</ele><time>2026-04-25T13:45:23.999Z</time></trkpt><trkpt lat="41.38669166915239" lon="14.72466051476014"><ele>666.0</ele><time>2026-04-25T13:45:24.999Z</time></trkpt><trkpt lat="41.386448471759856" lon="14.724471079980335"><ele>668.0</ele><time>2026-04-25T13:45:25.999Z</time></trkpt><trkpt lat="41.38619613078842" lon="14.72431184248945"><ele>670.0</ele><time>2026-04-25T13:45:26.999Z</time></trkpt><trkpt lat="41.38591760612804" lon="14.724177309645533"><ele>670.0</ele><time>2026-04-25T13:45:27.999Z</time></trkpt><trkpt lat="41.385651673879664" lon="14.724037277355958"><ele>670.0</ele><time>2026-04-25T13:45:28.999Z</time></trkpt><trkpt lat="41.38539641521412" lon="14.723910779544488"><ele>666.5</ele><time>2026-04-25T13:45:29.999Z</time></trkpt><trkpt lat="41.385134151568565" lon="14.723773666796982"><ele>663.0</ele><time>2026-04-25T13:45:30.999Z</time></trkpt><trkpt lat="41.384870009671644" lon="14.723629978124695"><ele>662.0</ele><time>2026-04-25T13:45:32.011Z</time></trkpt><trkpt lat="41.3846383364737" lon="14.723439815144957"><ele>661.0</ele><time>2026-04-25T13:45:33.015Z</time></trkpt><trkpt lat="41.38439995996063" lon="14.723257935953457"><ele>661.0</ele><time>2026-04-25T13:45:34.014Z</time></trkpt><trkpt lat="41.38420283264942" lon="14.723075756852648"><ele>661.0</ele><time>2026-04-25T13:45:35.016Z</time></trkpt><trkpt lat="41.384002123280325" lon="14.722877150154691"><ele>654.0</ele><time>2026-04-25T13:45:35.999Z</time></trkpt><trkpt lat="41.383741800574185" lon="14.722600420962442"><ele>647.0</ele><time>2026-04-25T13:45:36.999Z</time></trkpt><trkpt lat="41.38350352215715" lon="14.7223406131923"><ele>647.0</ele><time>2026-04-25T13:45:37.999Z</time></trkpt><trkpt lat="41.383314236535334" lon="14.722056491688841"><ele>647.0</ele><time>2026-04-25T13:45:38.999Z</time></trkpt><trkpt lat="41.38306692818368" lon="14.721769891434857"><ele>640.5</ele><time>2026-04-25T13:45:39.999Z</time></trkpt><trkpt lat="41.38282765130386" lon="14.721505070698896"><ele>634.0</ele><time>2026-04-25T13:45:40.999Z</time></trkpt><trkpt lat="41.38259400034593" lon="14.721203177778792"><ele>636.5</ele><time>2026-04-25T13:45:41.999Z</time></trkpt><trkpt lat="41.38234572677585" lon="14.720904227087225"><ele>639.0</ele><time>2026-04-25T13:45:42.999Z</time></trkpt><trkpt lat="41.38209655841547" lon="14.72060663999281"><ele>637.0</ele><time>2026-04-25T13:45:43.999Z</time></trkpt><trkpt lat="41.38186682665216" lon="14.720324599111391"><ele>635.0</ele><time>2026-04-25T13:45:44.999Z</time></trkpt><trkpt lat="41.381660316862565" lon="14.720061104812228"><ele>635.0</ele><time>2026-04-25T13:45:45.999Z</time></trkpt><trkpt lat="41.38146212412892" lon="14.719811197897478"><ele>635.0</ele><time>2026-04-25T13:45:46.999Z</time></trkpt><trkpt lat="41.38125326050532" lon="14.719552756035228"><ele>630.0</ele><time>2026-04-25T13:45:47.999Z</time></trkpt><trkpt lat="41.38103688078594" lon="14.71928277458676"><ele>625.0</ele><time>2026-04-25T13:45:48.999Z</time></trkpt><trkpt lat="41.380813185502504" lon="14.719007106769123"><ele>625.0</ele><time>2026-04-25T13:45:49.999Z</time></trkpt><trkpt lat="41.38058830400183" lon="14.718727699461057"><ele>625.0</ele><time>2026-04-25T13:45:50.999Z</time></trkpt><trkpt lat="41.38036452761996" lon="14.718450230373922"><ele>620.5</ele><time>2026-04-25T13:45:51.999Z</time></trkpt><trkpt lat="41.380148507481195" lon="14.718173883207387"><ele>616.0</ele><time>2026-04-25T13:45:52.999Z</time></trkpt><trkpt lat="41.37994343015524" lon="14.717909987788474"><ele>619.5</ele><time>2026-04-25T13:45:53.999Z</time></trkpt><trkpt lat="41.37974262378736" lon="14.717658636433695"><ele>623.0</ele><time>2026-04-25T13:45:54.999Z</time></trkpt><trkpt lat="41.37954162257115" lon="14.717401476250606"><ele>613.5</ele><time>2026-04-25T13:45:55.999Z</time></trkpt><trkpt lat="41.37936023136985" lon="14.717145942471886"><ele>604.0</ele><time>2026-04-25T13:45:56.999Z</time></trkpt><trkpt lat="41.3791686005618" lon="14.716904589932813"><ele>607.0</ele><time>2026-04-25T13:45:57.999Z</time></trkpt><trkpt lat="41.37901639837515" lon="14.716601570725931"><ele>610.0</ele><time>2026-04-25T13:45:58.999Z</time></trkpt><trkpt lat="41.37885391323314" lon="14.71630097716859"><ele>605.5</ele><time>2026-04-25T13:45:59.999Z</time></trkpt><trkpt lat="41.37869607152247" lon="14.715969814356729"><ele>601.0</ele><time>2026-04-25T13:46:00.999Z</time></trkpt><trkpt lat="41.378555555689324" lon="14.715616040324322"><ele>602.5</ele><time>2026-04-25T13:46:01.999Z</time></trkpt><trkpt lat="41.37842318777172" lon="14.71523137964652"><ele>604.0</ele><time>2026-04-25T13:46:02.999Z</time></trkpt><trkpt lat="41.37829251966228" lon="14.714816124445358"><ele>604.0</ele><time>2026-04-25T13:46:03.999Z</time></trkpt><trkpt lat="41.37817748485274" lon="14.71441586993441"><ele>604.0</ele><time>2026-04-25T13:46:04.999Z</time></trkpt><trkpt lat="41.37806230887914" lon="14.714058065439316"><ele>597.5</ele><time>2026-04-25T13:46:05.999Z</time></trkpt><trkpt lat="41.377949247608775" lon="14.713703705646152"><ele>591.0</ele><time>2026-04-25T13:46:06.999Z</time></trkpt><trkpt lat="41.37783631531243" lon="14.713352939787343"><ele>588.5</ele><time>2026-04-25T13:46:07.999Z</time></trkpt><trkpt lat="41.377733881559564" lon="14.713022148633629"><ele>586.0</ele><time>2026-04-25T13:46:08.999Z</time></trkpt><trkpt lat="41.37764423657801" lon="14.71267147065915"><ele>583.0</ele><time>2026-04-25T13:46:09.999Z</time></trkpt><trkpt lat="41.37756912407928" lon="14.712294349605719"><ele>580.0</ele><time>2026-04-25T13:46:10.999Z</time></trkpt><trkpt lat="41.37751298797364" lon="14.711898297293663"><ele>579.5</ele><time>2026-04-25T13:46:11.999Z</time></trkpt><trkpt lat="41.377450490292695" lon="14.711500822090876"><ele>579.0</ele><time>2026-04-25T13:46:12.999Z</time></trkpt><trkpt lat="41.37737822161416" lon="14.711107869216104"><ele>577.5</ele><time>2026-04-25T13:46:13.999Z</time></trkpt><trkpt lat="41.37728699496939" lon="14.710728606773788"><ele>576.0</ele><time>2026-04-25T13:46:14.999Z</time></trkpt><trkpt lat="41.37717680361561" lon="14.710350935112752"><ele>571.0</ele><time>2026-04-25T13:46:15.999Z</time></trkpt><trkpt lat="41.37704850460394" lon="14.709987663260298"><ele>566.0</ele><time>2026-04-25T13:46:16.999Z</time></trkpt><trkpt lat="41.37690025785381" lon="14.70964722079155"><ele>568.0</ele><time>2026-04-25T13:46:17.999Z</time></trkpt><trkpt lat="41.37675006616045" lon="14.709331434930512"><ele>570.0</ele><time>2026-04-25T13:46:18.999Z</time></trkpt><trkpt lat="41.37659993424048" lon="14.70904232325705"><ele>570.0</ele><time>2026-04-25T13:46:19.999Z</time></trkpt><trkpt lat="41.37644901192572" lon="14.708762623277492"><ele>570.0</ele><time>2026-04-25T13:46:20.999Z</time></trkpt><trkpt lat="41.37630467315358" lon="14.708501132873085"><ele>565.0</ele><time>2026-04-25T13:46:21.999Z</time></trkpt><trkpt lat="41.37616767778143" lon="14.708249279279151"><ele>560.0</ele><time>2026-04-25T13:46:22.999Z</time></trkpt><trkpt lat="41.37603874003993" lon="14.708000757191778"><ele>560.0</ele><time>2026-04-25T13:46:23.999Z</time></trkpt><trkpt lat="41.37591867627979" lon="14.707765902782704"><ele>560.0</ele><time>2026-04-25T13:46:24.999Z</time></trkpt><trkpt lat="41.37580538348442" lon="14.707541632929175"><ele>560.0</ele><time>2026-04-25T13:46:25.999Z</time></trkpt><trkpt lat="41.37569949438791" lon="14.707332186850682"><ele>559.3333333333333</ele><time>2026-04-25T13:46:26.999Z</time></trkpt><trkpt lat="41.375603420732666" lon="14.70713673270516"><ele>558.6666666666666</ele><time>2026-04-25T13:46:27.999Z</time></trkpt><trkpt lat="41.37551791787154" lon="14.70692946440355"><ele>558.0</ele><time>2026-04-25T13:46:28.998Z</time></trkpt><trkpt lat="41.3754446780761" lon="14.706681008906308"><ele>549.5</ele><time>2026-04-25T13:46:29.998Z</time></trkpt><trkpt lat="41.37537560292006" lon="14.706399882385954"><ele>541.0</ele><time>2026-04-25T13:46:30.998Z</time></trkpt><trkpt lat="41.375301145566745" lon="14.70610562371191"><ele>541.0</ele><time>2026-04-25T13:46:31.998Z</time></trkpt><trkpt lat="41.37521895860898" lon="14.705818257460546"><ele>541.0</ele><time>2026-04-25T13:46:32.998Z</time></trkpt><trkpt lat="41.37514493004968" lon="14.705552305640284"><ele>541.0</ele><time>2026-04-25T13:46:33.998Z</time></trkpt><trkpt lat="41.37508894138401" lon="14.705348633898833"><ele>541.8</ele><time>2026-04-25T13:46:34.998Z</time></trkpt><trkpt lat="41.37504627453896" lon="14.705176654198297"><ele>542.6</ele><time>2026-04-25T13:46:35.998Z</time></trkpt><trkpt lat="41.374997140976426" lon="14.705042821310846"><ele>543.4</ele><time>2026-04-25T13:46:36.998Z</time></trkpt><trkpt lat="41.37491594566202" lon="14.704976128740604"><ele>544.2</ele><time>2026-04-25T13:46:37.998Z</time></trkpt><trkpt lat="41.37482687918941" lon="14.704931052883085"><ele>545.0</ele><time>2026-04-25T13:46:38.998Z</time></trkpt><trkpt lat="41.3747426785442" lon="14.704923858938443"><ele>541.75</ele><time>2026-04-25T13:46:39.998Z</time></trkpt><trkpt lat="41.374676317995956" lon="14.704779359084998"><ele>538.5</ele><time>2026-04-25T13:46:41.998Z</time></trkpt><trkpt lat="41.37462831989574" lon="14.704603934729617"><ele>535.25</ele><time>2026-04-25T13:46:42.998Z</time></trkpt><trkpt lat="41.37457584796396" lon="14.704391942894441"><ele>532.0</ele><time>2026-04-25T13:46:43.998Z</time></trkpt><trkpt lat="41.374557816518376" lon="14.704185787527187"><ele>532.0</ele><time>2026-04-25T13:46:44.998Z</time></trkpt><trkpt lat="41.37452779746935" lon="14.704000678395447"><ele>532.0</ele><time>2026-04-25T13:46:45.998Z</time></trkpt><trkpt lat="41.374510143439586" lon="14.703845497547542"><ele>532.0</ele><time>2026-04-25T13:46:46.998Z</time></trkpt><trkpt lat="41.374506861145875" lon="14.703677361117093"><ele>532.0</ele><time>2026-04-25T13:46:47.998Z</time></trkpt><trkpt lat="41.37452927989936" lon="14.703511713360495"><ele>532.3333333333334</ele><time>2026-04-25T13:46:48.998Z</time></trkpt><trkpt lat="41.37455860438458" lon="14.703384713265189"><ele>532.6666666666667</ele><time>2026-04-25T13:46:49.998Z</time></trkpt><trkpt lat="41.37457993329964" lon="14.703277634576924"><ele>533.0</ele><time>2026-04-25T13:46:50.998Z</time></trkpt><trkpt lat="41.37459224929138" lon="14.703195356721803"><ele>533.3333333333334</ele><time>2026-04-25T13:46:51.998Z</time></trkpt><trkpt lat="41.37453172894586" lon="14.70324662861177"><ele>533.6666666666666</ele><time>2026-04-25T13:46:56.998Z</time></trkpt><trkpt lat="41.3745283969155" lon="14.703360578863142"><ele>534.0</ele><time>2026-04-25T13:46:57.998Z</time></trkpt><trkpt lat="41.37451973850393" lon="14.703498163973366"><ele>533.3333333333334</ele><time>2026-04-25T13:46:58.998Z</time></trkpt><trkpt lat="41.37449912160273" lon="14.703699182200868"><ele>532.6666666666667</ele><time>2026-04-25T13:46:59.999Z</time></trkpt><trkpt lat="41.37449198041523" lon="14.703907782953866"><ele>532.0</ele><time>2026-04-25T13:47:00.999Z</time></trkpt><trkpt lat="41.37452044670613" lon="14.704136504617482"><ele>531.25</ele><time>2026-04-25T13:47:01.999Z</time></trkpt><trkpt lat="41.37458734683246" lon="14.704471872142335"><ele>530.5</ele><time>2026-04-25T13:47:03.999Z</time></trkpt><trkpt lat="41.37460521218395" lon="14.704606968578158"><ele>529.75</ele><time>2026-04-25T13:47:04.999Z</time></trkpt><trkpt lat="41.37459807411384" lon="14.704720230715456"><ele>529.0</ele><time>2026-04-25T13:47:05.999Z</time></trkpt><trkpt lat="41.374437479559276" lon="14.704736545197491"><ele>529.0</ele><time>2026-04-25T13:47:08.999Z</time></trkpt><trkpt lat="41.37436748533372" lon="14.704662249219213"><ele>529.0</ele><time>2026-04-25T13:47:09.999Z</time></trkpt><trkpt lat="41.37431899018862" lon="14.704537034518117"><ele>529.0</ele><time>2026-04-25T13:47:10.999Z</time></trkpt><trkpt lat="41.37427889395677" lon="14.704373417226549"><ele>529.0</ele><time>2026-04-25T13:47:11.999Z</time></trkpt><trkpt lat="41.374230706057226" lon="14.704204858950332"><ele>530.0</ele><time>2026-04-25T13:47:12.999Z</time></trkpt><trkpt lat="41.374150229050514" lon="14.704032271160523"><ele>531.0</ele><time>2026-04-25T13:47:13.999Z</time></trkpt><trkpt lat="41.374060483496784" lon="14.703859679601319"><ele>532.0</ele><time>2026-04-25T13:47:14.999Z</time></trkpt><trkpt lat="41.37403462535013" lon="14.7035963397752"><ele>532.6666666666667</ele><time>2026-04-25T13:47:15.999Z</time></trkpt><trkpt lat="41.37400041124678" lon="14.703332171632539"><ele>533.3333333333334</ele><time>2026-04-25T13:47:16.999Z</time></trkpt><trkpt lat="41.373970250934825" lon="14.703061865241565"><ele>534.0</ele><time>2026-04-25T13:47:17.999Z</time></trkpt><trkpt lat="41.373943711128774" lon="14.702776605586063"><ele>532.5</ele><time>2026-04-25T13:47:18.999Z</time></trkpt><trkpt lat="41.37393154610626" lon="14.70244868029529"><ele>531.0</ele><time>2026-04-25T13:47:19.999Z</time></trkpt><trkpt lat="41.373923093293214" lon="14.702100579283305"><ele>530.0</ele><time>2026-04-25T13:47:20.999Z</time></trkpt><trkpt lat="41.37392767328004" lon="14.701746812635452"><ele>529.0</ele><time>2026-04-25T13:47:21.999Z</time></trkpt><trkpt lat="41.37394464168091" lon="14.701384919138215"><ele>525.0</ele><time>2026-04-25T13:47:22.999Z</time></trkpt><trkpt lat="41.373972764354214" lon="14.70100802865702"><ele>521.0</ele><time>2026-04-25T13:47:23.999Z</time></trkpt><trkpt lat="41.374006338693825" lon="14.70061753222687"><ele>515.0</ele><time>2026-04-25T13:47:24.999Z</time></trkpt><trkpt lat="41.374042551340175" lon="14.700214207000624"><ele>509.0</ele><time>2026-04-25T13:47:25.999Z</time></trkpt><trkpt lat="41.374078867577644" lon="14.699813290771448"><ele>509.0</ele><time>2026-04-25T13:47:26.999Z</time></trkpt><trkpt lat="41.37410890093796" lon="14.699445495336576"><ele>509.0</ele><time>2026-04-25T13:47:27.999Z</time></trkpt><trkpt lat="41.37412128174016" lon="14.699093146276835"><ele>506.5</ele><time>2026-04-25T13:47:28.999Z</time></trkpt><trkpt lat="41.37412782666564" lon="14.698740157887919"><ele>504.0</ele><time>2026-04-25T13:47:29.999Z</time></trkpt><trkpt lat="41.37412022324832" lon="14.698416764958079"><ele>498.0</ele><time>2026-04-25T13:47:30.999Z</time></trkpt><trkpt lat="41.37410073886705" lon="14.69808101225781"><ele>492.0</ele><time>2026-04-25T13:47:31.999Z</time></trkpt><trkpt lat="41.37406333783415" lon="14.697734156768457"><ele>492.0</ele><time>2026-04-25T13:47:32.999Z</time></trkpt><trkpt lat="41.373993313065114" lon="14.697392219805801"><ele>492.0</ele><time>2026-04-25T13:47:33.999Z</time></trkpt><trkpt lat="41.373898829982856" lon="14.697053196845772"><ele>486.0</ele><time>2026-04-25T13:47:34.999Z</time></trkpt><trkpt lat="41.373785757763436" lon="14.6967258569802"><ele>480.0</ele><time>2026-04-25T13:47:35.999Z</time></trkpt><trkpt lat="41.37365139150174" lon="14.696407155252615"><ele>480.0</ele><time>2026-04-25T13:47:36.999Z</time></trkpt><trkpt lat="41.373499806562464" lon="14.696107044608846"><ele>480.0</ele><time>2026-04-25T13:47:37.999Z</time></trkpt><trkpt lat="41.37332975006144" lon="14.695814121711331"><ele>480.5</ele><time>2026-04-25T13:47:38.999Z</time></trkpt><trkpt lat="41.37315326401946" lon="14.695519625396866"><ele>481.0</ele><time>2026-04-25T13:47:39.999Z</time></trkpt><trkpt lat="41.372965926562465" lon="14.695237664128284"><ele>481.0</ele><time>2026-04-25T13:47:40.999Z</time></trkpt><trkpt lat="41.37277436865422" lon="14.694965156112351"><ele>481.0</ele><time>2026-04-25T13:47:41.999Z</time></trkpt><trkpt lat="41.37258191279641" lon="14.694694491959273"><ele>481.0</ele><time>2026-04-25T13:47:42.999Z</time></trkpt><trkpt lat="41.37238791985172" lon="14.694429051467452"><ele>481.0</ele><time>2026-04-25T13:47:43.999Z</time></trkpt><trkpt lat="41.37221094143508" lon="14.694184148408938"><ele>477.0</ele><time>2026-04-25T13:47:44.999Z</time></trkpt><trkpt lat="41.37204585394939" lon="14.69394731418678"><ele>473.0</ele><time>2026-04-25T13:47:45.999Z</time></trkpt><trkpt lat="41.37188849377612" lon="14.693719112974318"><ele>472.5</ele><time>2026-04-25T13:47:46.999Z</time></trkpt><trkpt lat="41.37173839911567" lon="14.693503938017425"><ele>472.0</ele><time>2026-04-25T13:47:47.999Z</time></trkpt><trkpt lat="41.37157760836711" lon="14.693269227981844"><ele>472.0</ele><time>2026-04-25T13:47:48.999Z</time></trkpt><trkpt lat="41.371405957291316" lon="14.693028265402406"><ele>472.0</ele><time>2026-04-25T13:47:49.999Z</time></trkpt><trkpt lat="41.37123463425198" lon="14.692776295675545"><ele>468.0</ele><time>2026-04-25T13:47:50.999Z</time></trkpt><trkpt lat="41.371085419363325" lon="14.692530014889872"><ele>464.0</ele><time>2026-04-25T13:47:51.999Z</time></trkpt><trkpt lat="41.37094101156673" lon="14.69228226605556"><ele>464.0</ele><time>2026-04-25T13:47:52.999Z</time></trkpt><trkpt lat="41.37080040581304" lon="14.692028395604556"><ele>464.0</ele><time>2026-04-25T13:47:53.999Z</time></trkpt><trkpt lat="41.37065865936363" lon="14.691751100195562"><ele>459.0</ele><time>2026-04-25T13:47:54.999Z</time></trkpt><trkpt lat="41.370519706120184" lon="14.6914509479841"><ele>454.0</ele><time>2026-04-25T13:47:55.999Z</time></trkpt><trkpt lat="41.37038437113654" lon="14.691132966294674"><ele>453.5</ele><time>2026-04-25T13:47:56.999Z</time></trkpt><trkpt lat="41.370220102308" lon="14.690823284843777"><ele>453.0</ele><time>2026-04-25T13:47:57.999Z</time></trkpt><trkpt lat="41.370140051543764" lon="14.690434911263242"><ele>453.0</ele><time>2026-04-25T13:47:58.999Z</time></trkpt><trkpt lat="41.370035000540206" lon="14.690073029064877"><ele>453.0</ele><time>2026-04-25T13:47:59.999Z</time></trkpt><trkpt lat="41.36993427914096" lon="14.689706207889092"><ele>451.5</ele><time>2026-04-25T13:48:00.999Z</time></trkpt><trkpt lat="41.36984639395796" lon="14.689332234446415"><ele>450.0</ele><time>2026-04-25T13:48:01.999Z</time></trkpt><trkpt lat="41.36976867052988" lon="14.688969336690503"><ele>445.5</ele><time>2026-04-25T13:48:02.999Z</time></trkpt><trkpt lat="41.36968852014438" lon="14.688598551621975"><ele>441.0</ele><time>2026-04-25T13:48:03.999Z</time></trkpt><trkpt lat="41.3696061917145" lon="14.68822354989228"><ele>440.0</ele><time>2026-04-25T13:48:04.999Z</time></trkpt><trkpt lat="41.36952771163314" lon="14.687860159389619"><ele>439.0</ele><time>2026-04-25T13:48:05.999Z</time></trkpt><trkpt lat="41.36944733395604" lon="14.687485984193003"><ele>439.0</ele><time>2026-04-25T13:48:06.999Z</time></trkpt><trkpt lat="41.36936698349799" lon="14.687110947017343"><ele>439.0</ele><time>2026-04-25T13:48:07.999Z</time></trkpt><trkpt lat="41.36928703635949" lon="14.686738698108508"><ele>437.5</ele><time>2026-04-25T13:48:08.999Z</time></trkpt><trkpt lat="41.36920717558294" lon="14.686359341547815"><ele>436.0</ele><time>2026-04-25T13:48:09.999Z</time></trkpt><trkpt lat="41.36912948702364" lon="14.685979759835886"><ele>436.0</ele><time>2026-04-25T13:48:10.999Z</time></trkpt><trkpt lat="41.36904169450229" lon="14.685594883694181"><ele>436.0</ele><time>2026-04-25T13:48:11.999Z</time></trkpt><trkpt lat="41.368959470240085" lon="14.685207114238823"><ele>436.0</ele><time>2026-04-25T13:48:12.999Z</time></trkpt><trkpt lat="41.368870678114064" lon="14.684832903816984"><ele>436.0</ele><time>2026-04-25T13:48:13.999Z</time></trkpt><trkpt lat="41.36877281506776" lon="14.684463561285007"><ele>433.5</ele><time>2026-04-25T13:48:14.999Z</time></trkpt><trkpt lat="41.36866995607794" lon="14.684103971063463"><ele>431.0</ele><time>2026-04-25T13:48:15.999Z</time></trkpt><trkpt lat="41.36856244986921" lon="14.683751610835255"><ele>430.5</ele><time>2026-04-25T13:48:16.999Z</time></trkpt><trkpt lat="41.36843747242756" lon="14.68340205812781"><ele>430.0</ele><time>2026-04-25T13:48:17.999Z</time></trkpt><trkpt lat="41.3683084833602" lon="14.683066263707634"><ele>429.5</ele><time>2026-04-25T13:48:18.999Z</time></trkpt><trkpt lat="41.36817674153018" lon="14.682737750554827"><ele>429.0</ele><time>2026-04-25T13:48:19.999Z</time></trkpt><trkpt lat="41.3680377067444" lon="14.682404388741578"><ele>429.0</ele><time>2026-04-25T13:48:20.999Z</time></trkpt><trkpt lat="41.36790012032242" lon="14.68207320058197"><ele>429.0</ele><time>2026-04-25T13:48:21.999Z</time></trkpt><trkpt lat="41.3677561083359" lon="14.681741549229962"><ele>429.0</ele><time>2026-04-25T13:48:22.999Z</time></trkpt><trkpt lat="41.3676130396613" lon="14.681412244275567"><ele>429.0</ele><time>2026-04-25T13:48:23.999Z</time></trkpt><trkpt lat="41.36749861352262" lon="14.681100017318647"><ele>429.5</ele><time>2026-04-25T13:48:24.999Z</time></trkpt><trkpt lat="41.36731922148324" lon="14.680728255607615"><ele>430.0</ele><time>2026-04-25T13:48:25.999Z</time></trkpt><trkpt lat="41.36715096639782" lon="14.680323329503695"><ele>425.5</ele><time>2026-04-25T13:48:26.999Z</time></trkpt><trkpt lat="41.36695796457936" lon="14.679896705328783"><ele>421.0</ele><time>2026-04-25T13:48:27.999Z</time></trkpt><trkpt lat="41.366798803161636" lon="14.6794964731966"><ele>417.5</ele><time>2026-04-25T13:48:28.999Z</time></trkpt><trkpt lat="41.36658937078317" lon="14.679060750559973"><ele>414.0</ele><time>2026-04-25T13:48:29.999Z</time></trkpt><trkpt lat="41.36639964017299" lon="14.678602172352287"><ele>406.5</ele><time>2026-04-25T13:48:30.999Z</time></trkpt><trkpt lat="41.366197456278854" lon="14.678133182278524"><ele>399.0</ele><time>2026-04-25T13:48:31.999Z</time></trkpt><trkpt lat="41.36599206423278" lon="14.677650716959452"><ele>399.0</ele><time>2026-04-25T13:48:32.999Z</time></trkpt><trkpt lat="41.3658063051122" lon="14.677202159121677"><ele>399.0</ele><time>2026-04-25T13:48:33.999Z</time></trkpt><trkpt lat="41.365629586998026" lon="14.676798126581172"><ele>399.5</ele><time>2026-04-25T13:48:34.999Z</time></trkpt><trkpt lat="41.36546614466799" lon="14.676421392028162"><ele>400.0</ele><time>2026-04-25T13:48:35.999Z</time></trkpt><trkpt lat="41.36531430192914" lon="14.676063416091013"><ele>402.5</ele><time>2026-04-25T13:48:36.999Z</time></trkpt><trkpt lat="41.36516665364694" lon="14.67572301369776"><ele>405.0</ele><time>2026-04-25T13:48:37.999Z</time></trkpt><trkpt lat="41.365037080817274" lon="14.675423005447467"><ele>408.5</ele><time>2026-04-25T13:48:38.999Z</time></trkpt><trkpt lat="41.36491186685947" lon="14.675127832589151"><ele>412.0</ele><time>2026-04-25T13:48:39.999Z</time></trkpt><trkpt lat="41.3647994791683" lon="14.674872382065358"><ele>412.0</ele><time>2026-04-25T13:48:40.999Z</time></trkpt><trkpt lat="41.36471435891911" lon="14.674645689159567"><ele>412.0</ele><time>2026-04-25T13:48:41.999Z</time></trkpt><trkpt lat="41.36462683957089" lon="14.674472846987543"><ele>412.0</ele><time>2026-04-25T13:48:42.999Z</time></trkpt><trkpt lat="41.364543131274836" lon="14.674369092751595"><ele>412.8</ele><time>2026-04-25T13:48:43.999Z</time></trkpt><trkpt lat="41.36445000992851" lon="14.67429908576065"><ele>413.6</ele><time>2026-04-25T13:48:44.999Z</time></trkpt><trkpt lat="41.36434783191115" lon="14.674243984130937"><ele>414.40000000000003</ele><time>2026-04-25T13:48:45.999Z</time></trkpt><trkpt lat="41.36424934997195" lon="14.67418964067005"><ele>415.20000000000005</ele><time>2026-04-25T13:48:46.999Z</time></trkpt><trkpt lat="41.36416786898626" lon="14.67416678321716"><ele>416.0</ele><time>2026-04-25T13:48:47.999Z</time></trkpt><trkpt lat="41.364080448242824" lon="14.674248887493613"><ele>415.99999999999994</ele><time>2026-04-25T13:48:48.999Z</time></trkpt><trkpt lat="41.36401354579967" lon="14.674269761977028"><ele>416.0</ele><time>2026-04-25T13:48:49.999Z</time></trkpt><trkpt lat="41.36397032089623" lon="14.674337691145356"><ele>416.0</ele><time>2026-04-25T13:48:57.998Z</time></trkpt><trkpt lat="41.36392086607715" lon="14.674394651981999"><ele>416.0</ele><time>2026-04-25T13:48:58.998Z</time></trkpt><trkpt lat="41.363852702684305" lon="14.67446776082207"><ele>415.99999999999994</ele><time>2026-04-25T13:48:59.998Z</time></trkpt><trkpt lat="41.36378236076057" lon="14.674569033196239"><ele>416.0</ele><time>2026-04-25T13:49:00.998Z</time></trkpt><trkpt lat="41.363723205438454" lon="14.674698086230974"><ele>415.5</ele><time>2026-04-25T13:49:01.998Z</time></trkpt><trkpt lat="41.36369250925017" lon="14.674831863511315"><ele>415.0</ele><time>2026-04-25T13:49:02.998Z</time></trkpt><trkpt lat="41.36367980431656" lon="14.67497918436901"><ele>414.5</ele><time>2026-04-25T13:49:03.998Z</time></trkpt><trkpt lat="41.3636551313452" lon="14.675148766275843"><ele>414.0</ele><time>2026-04-25T13:49:04.998Z</time></trkpt><trkpt lat="41.36363248024112" lon="14.675317563158453"><ele>413.5</ele><time>2026-04-25T13:49:06Z</time></trkpt><trkpt lat="41.363605214917854" lon="14.675491862970063"><ele>413.0</ele><time>2026-04-25T13:49:07Z</time></trkpt><trkpt lat="41.363569322281506" lon="14.67567475143901"><ele>412.5</ele><time>2026-04-25T13:49:08Z</time></trkpt><trkpt lat="41.36352442198199" lon="14.675862780616075"><ele>412.0</ele><time>2026-04-25T13:49:09Z</time></trkpt><trkpt lat="41.36346089642506" lon="14.676050452256833"><ele>411.33333333333337</ele><time>2026-04-25T13:49:10Z</time></trkpt><trkpt lat="41.3633837236064" lon="14.67623539224259"><ele>410.66666666666663</ele><time>2026-04-25T13:49:11Z</time></trkpt><trkpt lat="41.363302787905056" lon="14.67643649882258"><ele>410.0</ele><time>2026-04-25T13:49:12Z</time></trkpt><trkpt lat="41.36320682749404" lon="14.676635545092289"><ele>410.0</ele><time>2026-04-25T13:49:13Z</time></trkpt><trkpt lat="41.36311572632436" lon="14.67684323809332"><ele>410.0</ele><time>2026-04-25T13:49:14Z</time></trkpt><trkpt lat="41.363021624387" lon="14.677070926624026"><ele>410.0</ele><time>2026-04-25T13:49:15Z</time></trkpt><trkpt lat="41.362919746350386" lon="14.677300266709562"><ele>410.66666666666663</ele><time>2026-04-25T13:49:16Z</time></trkpt><trkpt lat="41.36281193744052" lon="14.677536392530312"><ele>411.33333333333337</ele><time>2026-04-25T13:49:17Z</time></trkpt><trkpt lat="41.36270959971026" lon="14.677766304086385"><ele>412.0</ele><time>2026-04-25T13:49:18Z</time></trkpt><trkpt lat="41.362593633045954" lon="14.677995177644043"><ele>412.0</ele><time>2026-04-25T13:49:19Z</time></trkpt><trkpt lat="41.36245469049047" lon="14.67821627640158"><ele>412.0</ele><time>2026-04-25T13:49:20Z</time></trkpt><trkpt lat="41.36231000985505" lon="14.678379463448053"><ele>412.0</ele><time>2026-04-25T13:49:21Z</time></trkpt><trkpt lat="41.36214511379637" lon="14.678543828091636"><ele>411.6666666666667</ele><time>2026-04-25T13:49:22Z</time></trkpt><trkpt lat="41.36196788156239" lon="14.678674325321154"><ele>411.33333333333337</ele><time>2026-04-25T13:49:23Z</time></trkpt><trkpt lat="41.36177913230719" lon="14.678763113145068"><ele>411.0</ele><time>2026-04-25T13:49:24Z</time></trkpt><trkpt lat="41.36159030127389" lon="14.67881322848504"><ele>411.0</ele><time>2026-04-25T13:49:25Z</time></trkpt><trkpt lat="41.36141548807503" lon="14.678853703635914"><ele>411.0</ele><time>2026-04-25T13:49:26Z</time></trkpt><trkpt lat="41.36126008168885" lon="14.678856175162217"><ele>411.0</ele><time>2026-04-25T13:49:27Z</time></trkpt><trkpt lat="41.36113031397931" lon="14.678849963338308"><ele>411.0</ele><time>2026-04-25T13:49:28Z</time></trkpt><trkpt lat="41.3609632823789" lon="14.678818928126484"><ele>411.0</ele><time>2026-04-25T13:49:30Z</time></trkpt><trkpt lat="41.360876315645555" lon="14.678799475038891"><ele>411.0</ele><time>2026-04-25T13:49:32Z</time></trkpt><trkpt lat="41.360842741032855" lon="14.678532664305656"><ele>411.0</ele><time>2026-04-25T13:49:33Z</time></trkpt><trkpt lat="41.360680851435696" lon="14.678706999604465"><ele>411.0</ele><time>2026-04-25T13:49:34Z</time></trkpt><trkpt lat="41.36055821975213" lon="14.678699714284138"><ele>411.0</ele><time>2026-04-25T13:49:35Z</time></trkpt><trkpt lat="41.36041894049006" lon="14.678694638707825"><ele>411.0</ele><time>2026-04-25T13:49:36Z</time></trkpt><trkpt lat="41.360266986062015" lon="14.678690291135531"><ele>411.0</ele><time>2026-04-25T13:49:37Z</time></trkpt><trkpt lat="41.36010986496277" lon="14.67869438997917"><ele>411.0</ele><time>2026-04-25T13:49:38Z</time></trkpt><trkpt lat="41.35995220907631" lon="14.678708747484276"><ele>411.0</ele><time>2026-04-25T13:49:39Z</time></trkpt><trkpt lat="41.35978152081497" lon="14.678805293775918"><ele>411.0</ele><time>2026-04-25T13:49:40Z</time></trkpt><trkpt lat="41.35961454579406" lon="14.678904395615652"><ele>411.0</ele><time>2026-04-25T13:49:41Z</time></trkpt><trkpt lat="41.35942943637432" lon="14.679029246402134"><ele>413.0</ele><time>2026-04-25T13:49:42Z</time></trkpt><trkpt lat="41.3592807952724" lon="14.679129501221741"><ele>415.0</ele><time>2026-04-25T13:49:43Z</time></trkpt><trkpt lat="41.35914051715133" lon="14.679218834770015"><ele>417.0</ele><time>2026-04-25T13:49:44Z</time></trkpt><trkpt lat="41.35898039730058" lon="14.679313377438472"><ele>416.0</ele><time>2026-04-25T13:49:45Z</time></trkpt><trkpt lat="41.35881020629551" lon="14.679357761351579"><ele>415.0</ele><time>2026-04-25T13:49:46Z</time></trkpt><trkpt lat="41.35863547485282" lon="14.679424215771386"><ele>414.0</ele><time>2026-04-25T13:49:47Z</time></trkpt><trkpt lat="41.358481933463025" lon="14.679545456863615"><ele>414.0</ele><time>2026-04-25T13:49:48Z</time></trkpt><trkpt lat="41.35828129666697" lon="14.679600815405756"><ele>414.0</ele><time>2026-04-25T13:49:49Z</time></trkpt><trkpt lat="41.3580872212192" lon="14.679687292160832"><ele>414.0</ele><time>2026-04-25T13:49:50Z</time></trkpt><trkpt lat="41.35788793886092" lon="14.679766122081409"><ele>414.66666666666663</ele><time>2026-04-25T13:49:51Z</time></trkpt><trkpt lat="41.35767533710292" lon="14.679844144541233"><ele>415.3333333333333</ele><time>2026-04-25T13:49:52Z</time></trkpt><trkpt lat="41.35745268746466" lon="14.679914411248207"><ele>416.0</ele><time>2026-04-25T13:49:53Z</time></trkpt><trkpt lat="41.35721780580287" lon="14.679990450549592"><ele>416.0</ele><time>2026-04-25T13:49:54Z</time></trkpt><trkpt lat="41.35697075126361" lon="14.680064175091063"><ele>416.0</ele><time>2026-04-25T13:49:55Z</time></trkpt><trkpt lat="41.35673446432222" lon="14.680100401072046"><ele>416.0</ele><time>2026-04-25T13:49:56Z</time></trkpt><trkpt lat="41.35648291923384" lon="14.680131610048125"><ele>416.0</ele><time>2026-04-25T13:49:57Z</time></trkpt><trkpt lat="41.356232780728" lon="14.680164656830703"><ele>417.5</ele><time>2026-04-25T13:49:58Z</time></trkpt><trkpt lat="41.355972621674894" lon="14.680176104341056"><ele>419.0</ele><time>2026-04-25T13:49:58.999Z</time></trkpt><trkpt lat="41.35569255956658" lon="14.680171729787281"><ele>419.0</ele><time>2026-04-25T13:49:59.999Z</time></trkpt><trkpt lat="41.355413360560185" lon="14.680159484972574"><ele>419.0</ele><time>2026-04-25T13:50:00.999Z</time></trkpt><trkpt lat="41.35512365283543" lon="14.680133452709095"><ele>419.0</ele><time>2026-04-25T13:50:01.999Z</time></trkpt><trkpt lat="41.35484582191859" lon="14.680089642961649"><ele>419.0</ele><time>2026-04-25T13:50:02.999Z</time></trkpt><trkpt lat="41.35459232758982" lon="14.68004070237926"><ele>417.5</ele><time>2026-04-25T13:50:03.999Z</time></trkpt><trkpt lat="41.35435664363142" lon="14.679980987242233"><ele>416.0</ele><time>2026-04-25T13:50:04.999Z</time></trkpt><trkpt lat="41.354136252169795" lon="14.679918581230881"><ele>416.0</ele><time>2026-04-25T13:50:05.999Z</time></trkpt><trkpt lat="41.35393536795759" lon="14.679851016976833"><ele>416.0</ele><time>2026-04-25T13:50:06.999Z</time></trkpt><trkpt lat="41.35374592503276" lon="14.679781238502434"><ele>416.0</ele><time>2026-04-25T13:50:07.999Z</time></trkpt><trkpt lat="41.35356773772899" lon="14.679696216345448"><ele>417.0</ele><time>2026-04-25T13:50:08.999Z</time></trkpt><trkpt lat="41.35340480100661" lon="14.679614090012512"><ele>418.0</ele><time>2026-04-25T13:50:09.999Z</time></trkpt><trkpt lat="41.35323280336318" lon="14.679528740860905"><ele>419.0</ele><time>2026-04-25T13:50:10.999Z</time></trkpt><trkpt lat="41.35304340796386" lon="14.679429482879144"><ele>420.5</ele><time>2026-04-25T13:50:11.999Z</time></trkpt><trkpt lat="41.35284064342228" lon="14.679312602982261"><ele>422.0</ele><time>2026-04-25T13:50:12.999Z</time></trkpt><trkpt lat="41.35262832402203" lon="14.679179206128563"><ele>422.0</ele><time>2026-04-25T13:50:13.999Z</time></trkpt><trkpt lat="41.35241043825481" lon="14.679035602824953"><ele>422.0</ele><time>2026-04-25T13:50:14.999Z</time></trkpt><trkpt lat="41.352186278997415" lon="14.678871775406417"><ele>422.0</ele><time>2026-04-25T13:50:15.999Z</time></trkpt><trkpt lat="41.35195465803393" lon="14.67869449246108"><ele>422.0</ele><time>2026-04-25T13:50:16.999Z</time></trkpt><trkpt lat="41.351726595460036" lon="14.678497201072378"><ele>422.5</ele><time>2026-04-25T13:50:17.999Z</time></trkpt><trkpt lat="41.35149332457159" lon="14.678277181224363"><ele>423.0</ele><time>2026-04-25T13:50:18.999Z</time></trkpt><trkpt lat="41.35127848048869" lon="14.678039203028018"><ele>424.0</ele><time>2026-04-25T13:50:19.999Z</time></trkpt><trkpt lat="41.35106409471292" lon="14.677795869109428"><ele>425.0</ele><time>2026-04-25T13:50:20.999Z</time></trkpt><trkpt lat="41.35085005021149" lon="14.67754854527453"><ele>425.0</ele><time>2026-04-25T13:50:21.999Z</time></trkpt><trkpt lat="41.35062795490407" lon="14.677314872606479"><ele>425.0</ele><time>2026-04-25T13:50:22.999Z</time></trkpt><trkpt lat="41.350413368620885" lon="14.677072504370106"><ele>426.0</ele><time>2026-04-25T13:50:23.999Z</time></trkpt><trkpt lat="41.35019329556193" lon="14.676833699245538"><ele>427.0</ele><time>2026-04-25T13:50:24.999Z</time></trkpt><trkpt lat="41.34997640546983" lon="14.676594250544838"><ele>427.0</ele><time>2026-04-25T13:50:25.999Z</time></trkpt><trkpt lat="41.34976272414871" lon="14.676351811454415"><ele>427.0</ele><time>2026-04-25T13:50:26.999Z</time></trkpt><trkpt lat="41.34954737740487" lon="14.676114304621406"><ele>427.0</ele><time>2026-04-25T13:50:27.999Z</time></trkpt><trkpt lat="41.34932862031397" lon="14.675883170360896"><ele>427.0</ele><time>2026-04-25T13:50:28.999Z</time></trkpt><trkpt lat="41.34910282854273" lon="14.675667210538885"><ele>427.5</ele><time>2026-04-25T13:50:29.999Z</time></trkpt><trkpt lat="41.348869215931735" lon="14.675469554974661"><ele>428.0</ele><time>2026-04-25T13:50:30.999Z</time></trkpt><trkpt lat="41.34862419639188" lon="14.675297339065994"><ele>429.0</ele><time>2026-04-25T13:50:31.999Z</time></trkpt><trkpt lat="41.34837099776853" lon="14.675138888373983"><ele>430.0</ele><time>2026-04-25T13:50:32.999Z</time></trkpt><trkpt lat="41.3481153658872" lon="14.674996715754112"><ele>429.5</ele><time>2026-04-25T13:50:33.999Z</time></trkpt><trkpt lat="41.347856779860365" lon="14.67486675791692"><ele>429.0</ele><time>2026-04-25T13:50:34.999Z</time></trkpt><trkpt lat="41.34759790049012" lon="14.674755738150282"><ele>429.0</ele><time>2026-04-25T13:50:35.999Z</time></trkpt><trkpt lat="41.347330101419296" lon="14.674663730816803"><ele>429.0</ele><time>2026-04-25T13:50:36.999Z</time></trkpt><trkpt lat="41.347062985729835" lon="14.67458864247161"><ele>429.0</ele><time>2026-04-25T13:50:37.999Z</time></trkpt><trkpt lat="41.346789538652814" lon="14.67453026487164"><ele>429.0</ele><time>2026-04-25T13:50:38.999Z</time></trkpt><trkpt lat="41.346521446396004" lon="14.674491732495557"><ele>432.0</ele><time>2026-04-25T13:50:39.999Z</time></trkpt><trkpt lat="41.346271256669475" lon="14.674480191351332"><ele>435.0</ele><time>2026-04-25T13:50:40.999Z</time></trkpt><trkpt lat="41.34604122920451" lon="14.674487084514151"><ele>435.0</ele><time>2026-04-25T13:50:41.999Z</time></trkpt><trkpt lat="41.34583437446848" lon="14.674500963360057"><ele>435.0</ele><time>2026-04-25T13:50:42.999Z</time></trkpt><trkpt lat="41.34564787557556" lon="14.674528007263719"><ele>435.0</ele><time>2026-04-25T13:50:43.999Z</time></trkpt><trkpt lat="41.345461390058276" lon="14.674544003833985"><ele>436.66666666666663</ele><time>2026-04-25T13:50:44.999Z</time></trkpt><trkpt lat="41.34529033219189" lon="14.674582828398288"><ele>438.3333333333333</ele><time>2026-04-25T13:50:45.999Z</time></trkpt><trkpt lat="41.34509961477364" lon="14.674635536826113"><ele>440.0</ele><time>2026-04-25T13:50:46.999Z</time></trkpt><trkpt lat="41.34489786074619" lon="14.674692909881813"><ele>440.5</ele><time>2026-04-25T13:50:47.999Z</time></trkpt><trkpt lat="41.34467122497682" lon="14.674768668311204"><ele>441.0</ele><time>2026-04-25T13:50:48.999Z</time></trkpt><trkpt lat="41.344416501699236" lon="14.674854413149177"><ele>441.0</ele><time>2026-04-25T13:50:49.999Z</time></trkpt><trkpt lat="41.34416624156865" lon="14.674949379657805"><ele>441.0</ele><time>2026-04-25T13:50:50.999Z</time></trkpt><trkpt lat="41.34391584270917" lon="14.675017963404418"><ele>441.0</ele><time>2026-04-25T13:50:51.999Z</time></trkpt><trkpt lat="41.34364848934017" lon="14.675107033372857"><ele>441.0</ele><time>2026-04-25T13:50:52.999Z</time></trkpt><trkpt lat="41.34338300385245" lon="14.67520352209987"><ele>441.0</ele><time>2026-04-25T13:50:53.999Z</time></trkpt><trkpt lat="41.34311200935061" lon="14.675297737524778"><ele>441.0</ele><time>2026-04-25T13:50:54.999Z</time></trkpt><trkpt lat="41.34287239942879" lon="14.67538715681521"><ele>441.66666666666663</ele><time>2026-04-25T13:50:55.999Z</time></trkpt><trkpt lat="41.34265465748076" lon="14.675460073289727"><ele>442.3333333333333</ele><time>2026-04-25T13:50:56.999Z</time></trkpt><trkpt lat="41.34246076991472" lon="14.675528529073393"><ele>443.0</ele><time>2026-04-25T13:50:57.999Z</time></trkpt><trkpt lat="41.342289212644275" lon="14.675578817476563"><ele>444.0</ele><time>2026-04-25T13:50:58.999Z</time></trkpt><trkpt lat="41.34213168158766" lon="14.675629944029831"><ele>445.0</ele><time>2026-04-25T13:50:59.999Z</time></trkpt><trkpt lat="41.34196976714251" lon="14.67568837319902"><ele>446.0</ele><time>2026-04-25T13:51:00.999Z</time></trkpt><trkpt lat="41.341789028749474" lon="14.67574064337341"><ele>446.0</ele><time>2026-04-25T13:51:01.999Z</time></trkpt><trkpt lat="41.34160810544442" lon="14.675798856651848"><ele>446.0</ele><time>2026-04-25T13:51:02.999Z</time></trkpt><trkpt lat="41.34142398513213" lon="14.675853194064544"><ele>446.0</ele><time>2026-04-25T13:51:03.999Z</time></trkpt><trkpt lat="41.341235631458055" lon="14.67590046266234"><ele>445.66666666666663</ele><time>2026-04-25T13:51:04.999Z</time></trkpt><trkpt lat="41.341032922832596" lon="14.675951523719666"><ele>445.33333333333337</ele><time>2026-04-25T13:51:05.999Z</time></trkpt><trkpt lat="41.34081295718977" lon="14.676004109825463"><ele>445.0</ele><time>2026-04-25T13:51:06.999Z</time></trkpt><trkpt lat="41.340588135888126" lon="14.67604806671318"><ele>445.5</ele><time>2026-04-25T13:51:07.999Z</time></trkpt><trkpt lat="41.340364126871094" lon="14.67608401138004"><ele>446.0</ele><time>2026-04-25T13:51:08.999Z</time></trkpt><trkpt lat="41.34011861804509" lon="14.676107466749071"><ele>445.5</ele><time>2026-04-25T13:51:09.999Z</time></trkpt><trkpt lat="41.339868567828596" lon="14.676119331243966"><ele>445.0</ele><time>2026-04-25T13:51:10.999Z</time></trkpt><trkpt lat="41.339601916454406" lon="14.676126945272866"><ele>445.5</ele><time>2026-04-25T13:51:12Z</time></trkpt><trkpt lat="41.339326564171934" lon="14.676101968559733"><ele>446.0</ele><time>2026-04-25T13:51:13Z</time></trkpt><trkpt lat="41.339051422039155" lon="14.676082456751564"><ele>446.5</ele><time>2026-04-25T13:51:14Z</time></trkpt><trkpt lat="41.33878059050487" lon="14.676046709333175"><ele>447.0</ele><time>2026-04-25T13:51:15Z</time></trkpt><trkpt lat="41.33851394220961" lon="14.67600224305566"><ele>447.0</ele><time>2026-04-25T13:51:16Z</time></trkpt><trkpt lat="41.33824214545632" lon="14.675974928415457"><ele>447.0</ele><time>2026-04-25T13:51:17Z</time></trkpt><trkpt lat="41.33796581125632" lon="14.675980780275271"><ele>447.5</ele><time>2026-04-25T13:51:18Z</time></trkpt><trkpt lat="41.33769037443532" lon="14.676020086247398"><ele>448.0</ele><time>2026-04-25T13:51:19Z</time></trkpt><trkpt lat="41.33741569006254" lon="14.676101191312473"><ele>448.0</ele><time>2026-04-25T13:51:20Z</time></trkpt><trkpt lat="41.337144008192254" lon="14.676223043067791"><ele>448.0</ele><time>2026-04-25T13:51:21Z</time></trkpt><trkpt lat="41.336876366983745" lon="14.676389033720739"><ele>448.0</ele><time>2026-04-25T13:51:22Z</time></trkpt><trkpt lat="41.33662678703411" lon="14.676581569859325"><ele>448.0</ele><time>2026-04-25T13:51:23Z</time></trkpt><trkpt lat="41.33638992666415" lon="14.676814071830751"><ele>451.5</ele><time>2026-04-25T13:51:24Z</time></trkpt><trkpt lat="41.336173822931805" lon="14.677082669756425"><ele>455.0</ele><time>2026-04-25T13:51:25Z</time></trkpt><trkpt lat="41.335981173977565" lon="14.677383176525554"><ele>455.0</ele><time>2026-04-25T13:51:26Z</time></trkpt><trkpt lat="41.3358167948776" lon="14.677716964876039"><ele>455.0</ele><time>2026-04-25T13:51:27Z</time></trkpt><trkpt lat="41.335683075284635" lon="14.678083369417717"><ele>453.0</ele><time>2026-04-25T13:51:28Z</time></trkpt><trkpt lat="41.335563121162714" lon="14.678464092623024"><ele>451.0</ele><time>2026-04-25T13:51:29Z</time></trkpt><trkpt lat="41.33545027602662" lon="14.678849334725653"><ele>456.0</ele><time>2026-04-25T13:51:30Z</time></trkpt><trkpt lat="41.3353356559794" lon="14.679224512812397"><ele>461.0</ele><time>2026-04-25T13:51:31Z</time></trkpt><trkpt lat="41.33521630027458" lon="14.679598141052715"><ele>461.0</ele><time>2026-04-25T13:51:32Z</time></trkpt><trkpt lat="41.33509438106351" lon="14.67996832521864"><ele>461.0</ele><time>2026-04-25T13:51:33Z</time></trkpt><trkpt lat="41.33497637935117" lon="14.680334971425513"><ele>460.5</ele><time>2026-04-25T13:51:34Z</time></trkpt><trkpt lat="41.334844144293584" lon="14.680698142559184"><ele>460.0</ele><time>2026-04-25T13:51:35Z</time></trkpt><trkpt lat="41.33468917696108" lon="14.681040441526436"><ele>464.0</ele><time>2026-04-25T13:51:36Z</time></trkpt><trkpt lat="41.33449241211353" lon="14.681350308627767"><ele>468.0</ele><time>2026-04-25T13:51:37Z</time></trkpt><trkpt lat="41.33426066284338" lon="14.68162526396112"><ele>468.0</ele><time>2026-04-25T13:51:38Z</time></trkpt><trkpt lat="41.334017510503394" lon="14.681872194881707"><ele>468.0</ele><time>2026-04-25T13:51:39Z</time></trkpt><trkpt lat="41.3337498922906" lon="14.682076384396431"><ele>469.0</ele><time>2026-04-25T13:51:40Z</time></trkpt><trkpt lat="41.33346582307074" lon="14.682241258145696"><ele>470.0</ele><time>2026-04-25T13:51:41Z</time></trkpt><trkpt lat="41.33315830976628" lon="14.68236265489086"><ele>472.5</ele><time>2026-04-25T13:51:42Z</time></trkpt><trkpt lat="41.33284186229236" lon="14.68249587275628"><ele>475.0</ele><time>2026-04-25T13:51:43Z</time></trkpt><trkpt lat="41.33254135901553" lon="14.68263100513183"><ele>475.0</ele><time>2026-04-25T13:51:44Z</time></trkpt><trkpt lat="41.33231870366608" lon="14.682766496989876"><ele>475.0</ele><time>2026-04-25T13:51:45Z</time></trkpt><trkpt lat="41.332098424624526" lon="14.682983812254896"><ele>475.0</ele><time>2026-04-25T13:51:46Z</time></trkpt><trkpt lat="41.331872512494016" lon="14.683215131270906"><ele>475.0</ele><time>2026-04-25T13:51:47Z</time></trkpt><trkpt lat="41.33167425877836" lon="14.683488980764112"><ele>473.0</ele><time>2026-04-25T13:51:48Z</time></trkpt><trkpt lat="41.33149399281945" lon="14.683797849419774"><ele>471.0</ele><time>2026-04-25T13:51:49Z</time></trkpt><trkpt lat="41.3313302442779" lon="14.684136682674584"><ele>477.0</ele><time>2026-04-25T13:51:50Z</time></trkpt><trkpt lat="41.33116481610281" lon="14.684490371562188"><ele>483.0</ele><time>2026-04-25T13:51:51Z</time></trkpt><trkpt lat="41.33098516820694" lon="14.68483259542571"><ele>483.0</ele><time>2026-04-25T13:51:52Z</time></trkpt><trkpt lat="41.330812792259636" lon="14.685143599766235"><ele>483.0</ele><time>2026-04-25T13:51:53Z</time></trkpt><trkpt lat="41.33063454405078" lon="14.685427554752414"><ele>485.5</ele><time>2026-04-25T13:51:54Z</time></trkpt><trkpt lat="41.3304409689228" lon="14.68566913656427"><ele>488.0</ele><time>2026-04-25T13:51:55Z</time></trkpt><trkpt lat="41.33023009604937" lon="14.685855009685609"><ele>488.0</ele><time>2026-04-25T13:51:56Z</time></trkpt><trkpt lat="41.330025886534536" lon="14.686009823584799"><ele>488.0</ele><time>2026-04-25T13:51:57Z</time></trkpt><trkpt lat="41.32981798719755" lon="14.68613848284047"><ele>485.0</ele><time>2026-04-25T13:51:58Z</time></trkpt><trkpt lat="41.329626013789905" lon="14.686276891538936"><ele>482.0</ele><time>2026-04-25T13:51:59Z</time></trkpt><trkpt lat="41.32944706368997" lon="14.686402820785903"><ele>479.0</ele><time>2026-04-25T13:52:00Z</time></trkpt><trkpt lat="41.32927265079978" lon="14.686518889955064"><ele>479.0</ele><time>2026-04-25T13:52:01Z</time></trkpt><trkpt lat="41.3291098617452" lon="14.686635190242583"><ele>479.0</ele><time>2026-04-25T13:52:02Z</time></trkpt><trkpt lat="41.328961241519444" lon="14.686755668487805"><ele>479.0</ele><time>2026-04-25T13:52:03Z</time></trkpt><trkpt lat="41.328824081357894" lon="14.686889547501027"><ele>481.0</ele><time>2026-04-25T13:52:04Z</time></trkpt><trkpt lat="41.32868342013462" lon="14.68703746271225"><ele>483.0</ele><time>2026-04-25T13:52:05Z</time></trkpt><trkpt lat="41.3285491045512" lon="14.687194471749283"><ele>485.0</ele><time>2026-04-25T13:52:06Z</time></trkpt><trkpt lat="41.328420133689306" lon="14.68735708442252"><ele>485.0</ele><time>2026-04-25T13:52:07Z</time></trkpt><trkpt lat="41.32828904965667" lon="14.687523711006522"><ele>485.0</ele><time>2026-04-25T13:52:08Z</time></trkpt><trkpt lat="41.32815888578971" lon="14.687684049264643"><ele>485.0</ele><time>2026-04-25T13:52:09Z</time></trkpt><trkpt lat="41.32803663120883" lon="14.68784869411182"><ele>487.3333333333333</ele><time>2026-04-25T13:52:10Z</time></trkpt><trkpt lat="41.3279175350206" lon="14.687991344004546"><ele>489.66666666666663</ele><time>2026-04-25T13:52:11Z</time></trkpt><trkpt lat="41.32780238563841" lon="14.688119956322723"><ele>492.0</ele><time>2026-04-25T13:52:12Z</time></trkpt><trkpt lat="41.327689373944594" lon="14.688263804423585"><ele>492.0</ele><time>2026-04-25T13:52:13Z</time></trkpt><trkpt lat="41.32757512360562" lon="14.688405878769682"><ele>492.0</ele><time>2026-04-25T13:52:14Z</time></trkpt><trkpt lat="41.32745582901866" lon="14.688547539002993"><ele>492.0</ele><time>2026-04-25T13:52:15Z</time></trkpt><trkpt lat="41.32734597518304" lon="14.688681868701627"><ele>491.33333333333337</ele><time>2026-04-25T13:52:16Z</time></trkpt><trkpt lat="41.32723567778354" lon="14.688836903363686"><ele>490.6666666666667</ele><time>2026-04-25T13:52:17Z</time></trkpt><trkpt lat="41.32712881884055" lon="14.688983765848553"><ele>490.0</ele><time>2026-04-25T13:52:17.999Z</time></trkpt><trkpt lat="41.32698424776996" lon="14.689123581012627"><ele>493.0</ele><time>2026-04-25T13:52:18.999Z</time></trkpt><trkpt lat="41.32686540563743" lon="14.689296805326096"><ele>496.0</ele><time>2026-04-25T13:52:19.999Z</time></trkpt><trkpt lat="41.32673576285629" lon="14.689461576786476"><ele>499.0</ele><time>2026-04-25T13:52:20.999Z</time></trkpt><trkpt lat="41.32661681976362" lon="14.689634936548929"><ele>499.0</ele><time>2026-04-25T13:52:21.999Z</time></trkpt><trkpt lat="41.32646693550055" lon="14.689804298966262"><ele>499.0</ele><time>2026-04-25T13:52:22.999Z</time></trkpt><trkpt lat="41.32631739688541" lon="14.689977313149088"><ele>499.0</ele><time>2026-04-25T13:52:23.999Z</time></trkpt><trkpt lat="41.32616274405745" lon="14.690157390371807"><ele>498.0</ele><time>2026-04-25T13:52:24.999Z</time></trkpt><trkpt lat="41.32599857688207" lon="14.690361174907396"><ele>497.0</ele><time>2026-04-25T13:52:25.999Z</time></trkpt><trkpt lat="41.32584210240133" lon="14.690570235657193"><ele>496.0</ele><time>2026-04-25T13:52:26.999Z</time></trkpt><trkpt lat="41.32569330231487" lon="14.69075419508781"><ele>496.6666666666667</ele><time>2026-04-25T13:52:27.999Z</time></trkpt><trkpt lat="41.32555651435028" lon="14.690926869084938"><ele>497.33333333333337</ele><time>2026-04-25T13:52:28.999Z</time></trkpt><trkpt lat="41.32541977297247" lon="14.6910969993473"><ele>498.0</ele><time>2026-04-25T13:52:29.999Z</time></trkpt><trkpt lat="41.32528485383365" lon="14.691259728349252"><ele>498.0</ele><time>2026-04-25T13:52:30.999Z</time></trkpt><trkpt lat="41.32514891338857" lon="14.691442338761538"><ele>498.0</ele><time>2026-04-25T13:52:31.999Z</time></trkpt><trkpt lat="41.325006128434005" lon="14.69165035785338"><ele>498.0</ele><time>2026-04-25T13:52:32.999Z</time></trkpt><trkpt lat="41.324856188336845" lon="14.691900675247165"><ele>502.5</ele><time>2026-04-25T13:52:33.999Z</time></trkpt><trkpt lat="41.324690607763706" lon="14.692186106700216"><ele>507.0</ele><time>2026-04-25T13:52:34.999Z</time></trkpt><trkpt lat="41.32452418440271" lon="14.692476341874698"><ele>507.5</ele><time>2026-04-25T13:52:35.999Z</time></trkpt><trkpt lat="41.32434732855588" lon="14.692782827812328"><ele>508.0</ele><time>2026-04-25T13:52:36.999Z</time></trkpt><trkpt lat="41.32416899156528" lon="14.693101112392519"><ele>508.0</ele><time>2026-04-25T13:52:37.999Z</time></trkpt><trkpt lat="41.32399612608125" lon="14.693414863467547"><ele>508.0</ele><time>2026-04-25T13:52:38.999Z</time></trkpt><trkpt lat="41.32381513589386" lon="14.693710653149768"><ele>510.0</ele><time>2026-04-25T13:52:39.999Z</time></trkpt><trkpt lat="41.32360969531172" lon="14.69397123236942"><ele>512.0</ele><time>2026-04-25T13:52:40.999Z</time></trkpt><trkpt lat="41.3233857979086" lon="14.694198576815907"><ele>512.0</ele><time>2026-04-25T13:52:41.999Z</time></trkpt><trkpt lat="41.323133222823095" lon="14.694419970010657"><ele>512.0</ele><time>2026-04-25T13:52:42.999Z</time></trkpt><trkpt lat="41.32286884273372" lon="14.694588840869189"><ele>512.5</ele><time>2026-04-25T13:52:43.999Z</time></trkpt><trkpt lat="41.322590926328225" lon="14.69471447057285"><ele>513.0</ele><time>2026-04-25T13:52:44.999Z</time></trkpt><trkpt lat="41.322300741043826" lon="14.69478057279425"><ele>514.5</ele><time>2026-04-25T13:52:45.999Z</time></trkpt><trkpt lat="41.322007832225324" lon="14.694853743928435"><ele>516.0</ele><time>2026-04-25T13:52:46.999Z</time></trkpt><trkpt lat="41.32170756581478" lon="14.694876316906878"><ele>516.0</ele><time>2026-04-25T13:52:47.999Z</time></trkpt><trkpt lat="41.32142685650688" lon="14.694905993899221"><ele>516.0</ele><time>2026-04-25T13:52:48.999Z</time></trkpt><trkpt lat="41.32115294684011" lon="14.694979620531134"><ele>517.5</ele><time>2026-04-25T13:52:49.999Z</time></trkpt><trkpt lat="41.32088204025507" lon="14.695102029906964"><ele>519.0</ele><time>2026-04-25T13:52:50.999Z</time></trkpt><trkpt lat="41.320631144615724" lon="14.695264984956411"><ele>521.0</ele><time>2026-04-25T13:52:51.999Z</time></trkpt><trkpt lat="41.32039274095386" lon="14.695469496870068"><ele>523.0</ele><time>2026-04-25T13:52:52.999Z</time></trkpt><trkpt lat="41.32016763634407" lon="14.695710888750535"><ele>523.0</ele><time>2026-04-25T13:52:53.999Z</time></trkpt><trkpt lat="41.31993494273372" lon="14.695931423662419"><ele>523.0</ele><time>2026-04-25T13:52:54.999Z</time></trkpt><trkpt lat="41.31976848116173" lon="14.696275072221681"><ele>526.0</ele><time>2026-04-25T13:52:55.999Z</time></trkpt><trkpt lat="41.319608975864234" lon="14.696600181813956"><ele>529.0</ele><time>2026-04-25T13:52:56.999Z</time></trkpt><trkpt lat="41.319483512628636" lon="14.696950699687978"><ele>530.0</ele><time>2026-04-25T13:52:57.999Z</time></trkpt><trkpt lat="41.31937835062502" lon="14.697320795950631"><ele>531.0</ele><time>2026-04-25T13:52:58.999Z</time></trkpt><trkpt lat="41.31929531196954" lon="14.697689733375404"><ele>531.0</ele><time>2026-04-25T13:52:59.999Z</time></trkpt><trkpt lat="41.319226093614205" lon="14.698033719118923"><ele>531.0</ele><time>2026-04-25T13:53:00.999Z</time></trkpt><trkpt lat="41.319153231299694" lon="14.698370588170523"><ele>531.0</ele><time>2026-04-25T13:53:01.999Z</time></trkpt><trkpt lat="41.31905381320986" lon="14.698698830416237"><ele>531.0</ele><time>2026-04-25T13:53:02.999Z</time></trkpt><trkpt lat="41.31891746209911" lon="14.699024944483492"><ele>532.5</ele><time>2026-04-25T13:53:03.999Z</time></trkpt><trkpt lat="41.31874985460213" lon="14.699333802398552"><ele>534.0</ele><time>2026-04-25T13:53:04.999Z</time></trkpt><trkpt lat="41.31856751237705" lon="14.699620068857937"><ele>534.0</ele><time>2026-04-25T13:53:05.999Z</time></trkpt><trkpt lat="41.31836112496104" lon="14.699881220446498"><ele>534.0</ele><time>2026-04-25T13:53:06.999Z</time></trkpt><trkpt lat="41.318128399963236" lon="14.700114537833155"><ele>536.5</ele><time>2026-04-25T13:53:07.999Z</time></trkpt><trkpt lat="41.31787908669653" lon="14.700316762277671"><ele>539.0</ele><time>2026-04-25T13:53:08.999Z</time></trkpt><trkpt lat="41.317612007545755" lon="14.700482047524595"><ele>539.0</ele><time>2026-04-25T13:53:09.999Z</time></trkpt><trkpt lat="41.317339284494615" lon="14.700629875307666"><ele>539.0</ele><time>2026-04-25T13:53:10.999Z</time></trkpt><trkpt lat="41.31706032255374" lon="14.700777886100179"><ele>538.0</ele><time>2026-04-25T13:53:11.999Z</time></trkpt><trkpt lat="41.316799207583934" lon="14.700964046630888"><ele>537.0</ele><time>2026-04-25T13:53:12.999Z</time></trkpt><trkpt lat="41.316543851474904" lon="14.701167497179588"><ele>541.0</ele><time>2026-04-25T13:53:13.999Z</time></trkpt><trkpt lat="41.316296897632974" lon="14.701390380761833"><ele>545.0</ele><time>2026-04-25T13:53:14.999Z</time></trkpt><trkpt lat="41.31605928917364" lon="14.701632492784425"><ele>545.0</ele><time>2026-04-25T13:53:15.999Z</time></trkpt><trkpt lat="41.31583214028025" lon="14.701888034500698"><ele>545.0</ele><time>2026-04-25T13:53:16.999Z</time></trkpt><trkpt lat="41.31561403868878" lon="14.702155865506374"><ele>548.0</ele><time>2026-04-25T13:53:18Z</time></trkpt><trkpt lat="41.315399870957904" lon="14.702443101162967"><ele>551.0</ele><time>2026-04-25T13:53:19Z</time></trkpt><trkpt lat="41.31520578531971" lon="14.702753943737108"><ele>551.0</ele><time>2026-04-25T13:53:20Z</time></trkpt><trkpt lat="41.31502443592071" lon="14.703073319363254"><ele>551.0</ele><time>2026-04-25T13:53:21Z</time></trkpt><trkpt lat="41.314840925750374" lon="14.703400668509639"><ele>555.5</ele><time>2026-04-25T13:53:22Z</time></trkpt><trkpt lat="41.314655383612426" lon="14.70372972836326"><ele>560.0</ele><time>2026-04-25T13:53:23Z</time></trkpt><trkpt lat="41.314466778533685" lon="14.704050114903286"><ele>560.0</ele><time>2026-04-25T13:53:24Z</time></trkpt><trkpt lat="41.31427566919109" lon="14.704366518361386"><ele>560.0</ele><time>2026-04-25T13:53:25Z</time></trkpt><trkpt lat="41.31408809975241" lon="14.704670325471454"><ele>559.5</ele><time>2026-04-25T13:53:26Z</time></trkpt><trkpt lat="41.31389754268843" lon="14.704968707467243"><ele>559.0</ele><time>2026-04-25T13:53:27Z</time></trkpt><trkpt lat="41.313697486494625" lon="14.705253144661782"><ele>559.0</ele><time>2026-04-25T13:53:28Z</time></trkpt><trkpt lat="41.31348914568782" lon="14.705513039060026"><ele>559.0</ele><time>2026-04-25T13:53:29Z</time></trkpt><trkpt lat="41.31326179616238" lon="14.705766218987337"><ele>562.5</ele><time>2026-04-25T13:53:30Z</time></trkpt><trkpt lat="41.313019286086806" lon="14.705996042697038"><ele>566.0</ele><time>2026-04-25T13:53:31Z</time></trkpt><trkpt lat="41.31275223590222" lon="14.706203824540324"><ele>566.0</ele><time>2026-04-25T13:53:32Z</time></trkpt><trkpt lat="41.31248097449076" lon="14.706393167268217"><ele>566.0</ele><time>2026-04-25T13:53:33Z</time></trkpt><trkpt lat="41.312213378323214" lon="14.706552070626843"><ele>567.0</ele><time>2026-04-25T13:53:34Z</time></trkpt><trkpt lat="41.31194836533058" lon="14.706702148083675"><ele>568.0</ele><time>2026-04-25T13:53:35Z</time></trkpt><trkpt lat="41.31168951102625" lon="14.706827445974879"><ele>567.5</ele><time>2026-04-25T13:53:36Z</time></trkpt><trkpt lat="41.311428782191626" lon="14.706930209342104"><ele>567.0</ele><time>2026-04-25T13:53:37Z</time></trkpt><trkpt lat="41.311163085521954" lon="14.707007016766223"><ele>564.5</ele><time>2026-04-25T13:53:38Z</time></trkpt><trkpt lat="41.3109203708486" lon="14.707077794855268"><ele>562.0</ele><time>2026-04-25T13:53:39Z</time></trkpt><trkpt lat="41.31067162093359" lon="14.707143439495743"><ele>560.5</ele><time>2026-04-25T13:53:40Z</time></trkpt><trkpt lat="41.310402836761405" lon="14.70720863107623"><ele>559.0</ele><time>2026-04-25T13:53:41Z</time></trkpt><trkpt lat="41.31011291898476" lon="14.7072787603815"><ele>559.0</ele><time>2026-04-25T13:53:42Z</time></trkpt><trkpt lat="41.309804031507774" lon="14.707346267760835"><ele>559.0</ele><time>2026-04-25T13:53:43Z</time></trkpt><trkpt lat="41.30948780455846" lon="14.707399809413566"><ele>559.0</ele><time>2026-04-25T13:53:44Z</time></trkpt><trkpt lat="41.30916457188628" lon="14.707453545118431"><ele>559.0</ele><time>2026-04-25T13:53:45Z</time></trkpt><trkpt lat="41.3088586510704" lon="14.707518374320113"><ele>558.5</ele><time>2026-04-25T13:53:46Z</time></trkpt><trkpt lat="41.30857351780648" lon="14.707588783204237"><ele>558.0</ele><time>2026-04-25T13:53:47Z</time></trkpt><trkpt lat="41.30823492833266" lon="14.707674911625336"><ele>555.5</ele><time>2026-04-25T13:53:48Z</time></trkpt><trkpt lat="41.3079259153135" lon="14.707759053615126"><ele>553.0</ele><time>2026-04-25T13:53:49Z</time></trkpt><trkpt lat="41.30763002692995" lon="14.707854796568942"><ele>553.0</ele><time>2026-04-25T13:53:50Z</time></trkpt><trkpt lat="41.30733710730883" lon="14.707966542259054"><ele>553.0</ele><time>2026-04-25T13:53:51Z</time></trkpt><trkpt lat="41.30704786215598" lon="14.708096473038543"><ele>552.0</ele><time>2026-04-25T13:53:52Z</time></trkpt><trkpt lat="41.30675684840428" lon="14.708249203116935"><ele>551.0</ele><time>2026-04-25T13:53:53Z</time></trkpt><trkpt lat="41.30647682181526" lon="14.708406630168447"><ele>550.0</ele><time>2026-04-25T13:53:54Z</time></trkpt><trkpt lat="41.306196831119685" lon="14.70856866134607"><ele>549.0</ele><time>2026-04-25T13:53:55Z</time></trkpt><trkpt lat="41.30592297503084" lon="14.708739278673763"><ele>547.0</ele><time>2026-04-25T13:53:56Z</time></trkpt><trkpt lat="41.30565353715428" lon="14.708924479423256"><ele>545.0</ele><time>2026-04-25T13:53:57Z</time></trkpt><trkpt lat="41.305392991503425" lon="14.709129486698858"><ele>545.0</ele><time>2026-04-25T13:53:58Z</time></trkpt><trkpt lat="41.30513239938712" lon="14.709336179341355"><ele>545.0</ele><time>2026-04-25T13:53:59Z</time></trkpt><trkpt lat="41.30487596043786" lon="14.709540933124455"><ele>542.5</ele><time>2026-04-25T13:54:00Z</time></trkpt><trkpt lat="41.30461240659637" lon="14.709738464731316"><ele>540.0</ele><time>2026-04-25T13:54:01Z</time></trkpt><trkpt lat="41.304346719389486" lon="14.709934660687917"><ele>540.0</ele><time>2026-04-25T13:54:02Z</time></trkpt><trkpt lat="41.304088018641124" lon="14.71013378651089"><ele>540.0</ele><time>2026-04-25T13:54:03Z</time></trkpt><trkpt lat="41.303828513649925" lon="14.710331611705413"><ele>537.5</ele><time>2026-04-25T13:54:04Z</time></trkpt><trkpt lat="41.30356606022005" lon="14.71052803773042"><ele>535.0</ele><time>2026-04-25T13:54:05Z</time></trkpt><trkpt lat="41.303306718776724" lon="14.710726809395965"><ele>536.0</ele><time>2026-04-25T13:54:06Z</time></trkpt><trkpt lat="41.3030462121333" lon="14.710924774602999"><ele>537.0</ele><time>2026-04-25T13:54:07Z</time></trkpt><trkpt lat="41.30278621521678" lon="14.7111172400873"><ele>533.0</ele><time>2026-04-25T13:54:08Z</time></trkpt><trkpt lat="41.30252468245485" lon="14.711307402675455"><ele>529.0</ele><time>2026-04-25T13:54:09Z</time></trkpt><trkpt lat="41.30225674143454" lon="14.711481637711243"><ele>528.0</ele><time>2026-04-25T13:54:09.999Z</time></trkpt><trkpt lat="41.301980150402734" lon="14.711630378523305"><ele>527.0</ele><time>2026-04-25T13:54:10.999Z</time></trkpt><trkpt lat="41.30169687223724" lon="14.711755290629469"><ele>528.0</ele><time>2026-04-25T13:54:11.999Z</time></trkpt><trkpt lat="41.3014110597398" lon="14.711852779874732"><ele>529.0</ele><time>2026-04-25T13:54:12.999Z</time></trkpt><trkpt lat="41.30112099526214" lon="14.71192686524743"><ele>525.0</ele><time>2026-04-25T13:54:13.999Z</time></trkpt><trkpt lat="41.300825288023994" lon="14.711983890235661"><ele>521.0</ele><time>2026-04-25T13:54:14.999Z</time></trkpt><trkpt lat="41.300495321807446" lon="14.712043872848422"><ele>521.0</ele><time>2026-04-25T13:54:15.999Z</time></trkpt><trkpt lat="41.300220128318315" lon="14.712031312861226"><ele>521.0</ele><time>2026-04-25T13:54:16.999Z</time></trkpt><trkpt lat="41.29992558216709" lon="14.712026392189983"><ele>520.5</ele><time>2026-04-25T13:54:17.999Z</time></trkpt><trkpt lat="41.29963135598426" lon="14.71199461530512"><ele>520.0</ele><time>2026-04-25T13:54:18.999Z</time></trkpt><trkpt lat="41.299337451146876" lon="14.711959653276088"><ele>519.5</ele><time>2026-04-25T13:54:19.999Z</time></trkpt><trkpt lat="41.29905324241419" lon="14.711864027720388"><ele>519.0</ele><time>2026-04-25T13:54:20.999Z</time></trkpt><trkpt lat="41.29878529495565" lon="14.711768486134027"><ele>519.0</ele><time>2026-04-25T13:54:21.999Z</time></trkpt><trkpt lat="41.29851892280543" lon="14.711677199895416"><ele>519.0</ele><time>2026-04-25T13:54:22.999Z</time></trkpt><trkpt lat="41.2982540600115" lon="14.711560466069495"><ele>519.5</ele><time>2026-04-25T13:54:23.999Z</time></trkpt><trkpt lat="41.29799286766786" lon="14.711441391527218"><ele>520.0</ele><time>2026-04-25T13:54:24.999Z</time></trkpt><trkpt lat="41.29773098076213" lon="14.7113296429277"><ele>520.0</ele><time>2026-04-25T13:54:25.999Z</time></trkpt><trkpt lat="41.2974708197294" lon="14.711211656358996"><ele>520.0</ele><time>2026-04-25T13:54:26.999Z</time></trkpt><trkpt lat="41.297208945118925" lon="14.711086003252719"><ele>519.0</ele><time>2026-04-25T13:54:27.999Z</time></trkpt><trkpt lat="41.29696653338851" lon="14.710965408502686"><ele>518.0</ele><time>2026-04-25T13:54:28.999Z</time></trkpt><trkpt lat="41.296741214619516" lon="14.710856663361367"><ele>518.0</ele><time>2026-04-25T13:54:29.999Z</time></trkpt><trkpt lat="41.296524305230356" lon="14.710751953898338"><ele>518.0</ele><time>2026-04-25T13:54:30.999Z</time></trkpt><trkpt lat="41.29632375175706" lon="14.710655349772871"><ele>518.0</ele><time>2026-04-25T13:54:31.999Z</time></trkpt><trkpt lat="41.298103195358024" lon="14.697760540996807"><ele>502.5</ele><time>2026-04-25T13:55:18.999Z</time></trkpt><trkpt lat="41.29814574084399" lon="14.697363166965212"><ele>487.0</ele><time>2026-04-25T13:55:19.999Z</time></trkpt><trkpt lat="41.29819168586651" lon="14.69697447453271"><ele>488.5</ele><time>2026-04-25T13:55:20.999Z</time></trkpt><trkpt lat="41.29823780705177" lon="14.69660202741751"><ele>490.0</ele><time>2026-04-25T13:55:21.999Z</time></trkpt><trkpt lat="41.29827608729995" lon="14.696255808490298"><ele>495.5</ele><time>2026-04-25T13:55:22.999Z</time></trkpt><trkpt lat="41.29830537476247" lon="14.695926821214988"><ele>501.0</ele><time>2026-04-25T13:55:24Z</time></trkpt><trkpt lat="41.29830877910615" lon="14.695592602548691"><ele>506.0</ele><time>2026-04-25T13:55:25Z</time></trkpt><trkpt lat="41.29828265774897" lon="14.695247056122575"><ele>511.0</ele><time>2026-04-25T13:55:26Z</time></trkpt><trkpt lat="41.2982200266854" lon="14.694903389044791"><ele>511.0</ele><time>2026-04-25T13:55:27Z</time></trkpt><trkpt lat="41.29812729203607" lon="14.694564120530757"><ele>511.0</ele><time>2026-04-25T13:55:28Z</time></trkpt><trkpt lat="41.29800560734154" lon="14.694235882221868"><ele>513.0</ele><time>2026-04-25T13:55:29Z</time></trkpt><trkpt lat="41.29786259635698" lon="14.693922009410455"><ele>515.0</ele><time>2026-04-25T13:55:30Z</time></trkpt><trkpt lat="41.29769417763072" lon="14.693621693388106"><ele>517.0</ele><time>2026-04-25T13:55:31Z</time></trkpt><trkpt lat="41.29750696739159" lon="14.693337343376339"><ele>519.0</ele><time>2026-04-25T13:55:32Z</time></trkpt><trkpt lat="41.29729649205013" lon="14.693079224428091"><ele>518.5</ele><time>2026-04-25T13:55:33Z</time></trkpt><trkpt lat="41.29706564728354" lon="14.692843180769259"><ele>518.0</ele><time>2026-04-25T13:55:34Z</time></trkpt><trkpt lat="41.29682304957281" lon="14.69262807132008"><ele>518.0</ele><time>2026-04-25T13:55:35Z</time></trkpt><trkpt lat="41.29658396707918" lon="14.692408105295222"><ele>518.0</ele><time>2026-04-25T13:55:36Z</time></trkpt><trkpt lat="41.296363871076046" lon="14.692196565996358"><ele>513.0</ele><time>2026-04-25T13:55:37Z</time></trkpt><trkpt lat="41.29598178617715" lon="14.69182719994103"><ele>513.0</ele><time>2026-04-25T13:55:39Z</time></trkpt><trkpt lat="41.295846607146224" lon="14.691696131627326"><ele>513.0</ele><time>2026-04-25T13:55:40Z</time></trkpt><trkpt lat="41.295752490535875" lon="14.691582736837889"><ele>513.0</ele><time>2026-04-25T13:55:41Z</time></trkpt><trkpt lat="41.2956997072032" lon="14.691518269557603"><ele>513.0</ele><time>2026-04-25T13:55:42Z</time></trkpt><trkpt lat="41.295679438506745" lon="14.691428643545349"><ele>513.0</ele><time>2026-04-25T13:55:43Z</time></trkpt><trkpt lat="41.295701176307276" lon="14.69133467050993"><ele>513.0</ele><time>2026-04-25T13:55:44Z</time></trkpt><trkpt lat="41.29574576478255" lon="14.691238988755359"><ele>513.0</ele><time>2026-04-25T13:55:45Z</time></trkpt><trkpt lat="41.29581063233738" lon="14.69113345717261"><ele>513.0</ele><time>2026-04-25T13:55:46Z</time></trkpt><trkpt lat="41.295834887746054" lon="14.691010364206816"><ele>513.0</ele><time>2026-04-25T13:55:47Z</time></trkpt><trkpt lat="41.29580940552434" lon="14.690887771823107"><ele>513.0</ele><time>2026-04-25T13:55:48Z</time></trkpt><trkpt lat="41.295749891914014" lon="14.690769741653629"><ele>514.0</ele><time>2026-04-25T13:55:49Z</time></trkpt><trkpt lat="41.29566237780175" lon="14.6906793155997"><ele>515.0</ele><time>2026-04-25T13:55:50Z</time></trkpt><trkpt lat="41.29557203911328" lon="14.690639326864922"><ele>516.0</ele><time>2026-04-25T13:55:51Z</time></trkpt><trkpt lat="41.29547998108704" lon="14.690606384813742"><ele>517.0</ele><time>2026-04-25T13:55:52Z</time></trkpt><trkpt lat="41.295393905253235" lon="14.690559709635268"><ele>518.0</ele><time>2026-04-25T13:55:53Z</time></trkpt><trkpt lat="41.29534346197513" lon="14.69050741104984"><ele>518.0</ele><time>2026-04-25T13:55:54Z</time></trkpt><trkpt lat="41.295287422229556" lon="14.690401663562708"><ele>518.0</ele><time>2026-04-25T13:55:56Z</time></trkpt><trkpt lat="41.29520894434914" lon="14.690369031471123"><ele>518.0</ele><time>2026-04-25T13:55:59Z</time></trkpt><trkpt lat="41.29506480618856" lon="14.690389150338769"><ele>518.0</ele><time>2026-04-25T13:56:06Z</time></trkpt><trkpt lat="41.29494389514933" lon="14.690383980394124"><ele>518.0</ele><time>2026-04-25T13:56:08Z</time></trkpt><trkpt lat="41.294866668519205" lon="14.690423487327061"><ele>518.0</ele><time>2026-04-25T13:56:09Z</time></trkpt><trkpt lat="41.29477586615453" lon="14.690475914188227"><ele>518.0</ele><time>2026-04-25T13:56:10Z</time></trkpt><trkpt lat="41.29468128506285" lon="14.69053104158939"><ele>518.0</ele><time>2026-04-25T13:56:11Z</time></trkpt><trkpt lat="41.29457863404379" lon="14.690571908668423"><ele>518.0</ele><time>2026-04-25T13:56:12Z</time></trkpt><trkpt lat="41.29446845755638" lon="14.6906123941621"><ele>518.0</ele><time>2026-04-25T13:56:13Z</time></trkpt><trkpt lat="41.29435236519001" lon="14.690659043133353"><ele>518.1999999999999</ele><time>2026-04-25T13:56:14Z</time></trkpt><trkpt lat="41.29424650487794" lon="14.690706900693009"><ele>518.4</ele><time>2026-04-25T13:56:15Z</time></trkpt><trkpt lat="41.29415182124154" lon="14.690749350659175"><ele>518.5999999999999</ele><time>2026-04-25T13:56:16Z</time></trkpt><trkpt lat="41.29406339117462" lon="14.69078565571149"><ele>518.8</ele><time>2026-04-25T13:56:17Z</time></trkpt><trkpt lat="41.29398171657181" lon="14.690816247067"><ele>519.0</ele><time>2026-04-25T13:56:18Z</time></trkpt><trkpt lat="41.293899714158265" lon="14.690840930671525"><ele>519.6</ele><time>2026-04-25T13:56:19Z</time></trkpt><trkpt lat="41.29382882840629" lon="14.690844397783813"><ele>520.2</ele><time>2026-04-25T13:56:19.999Z</time></trkpt><trkpt lat="41.293651931344876" lon="14.690954418628447"><ele>520.8000000000001</ele><time>2026-04-25T13:56:24.999Z</time></trkpt><trkpt lat="41.2935825146269" lon="14.691016727175734"><ele>521.4</ele><time>2026-04-25T13:56:25.999Z</time></trkpt><trkpt lat="41.293499695613775" lon="14.691080385925199"><ele>522.0</ele><time>2026-04-25T13:56:26.999Z</time></trkpt><trkpt lat="41.29339831959171" lon="14.691132942471397"><ele>519.6666666666666</ele><time>2026-04-25T13:56:27.999Z</time></trkpt><trkpt lat="41.293173503444585" lon="14.691253906191909"><ele>517.3333333333333</ele><time>2026-04-25T13:56:29.999Z</time></trkpt><trkpt lat="41.29308099668234" lon="14.691297446355247"><ele>515.0</ele><time>2026-04-25T13:56:30.999Z</time></trkpt><trkpt lat="41.292963715696146" lon="14.691323412480912"><ele>513.75</ele><time>2026-04-25T13:56:31.999Z</time></trkpt><trkpt lat="41.29284553770345" lon="14.691345647767248"><ele>512.5</ele><time>2026-04-25T13:56:32.999Z</time></trkpt><trkpt lat="41.292741193860245" lon="14.69136873379176"><ele>511.25</ele><time>2026-04-25T13:56:33.999Z</time></trkpt><trkpt lat="41.2925444969498" lon="14.691397031614349"><ele>510.0</ele><time>2026-04-25T13:56:35.999Z</time></trkpt><trkpt lat="41.292460237735874" lon="14.691368656989233"><ele>510.0</ele><time>2026-04-25T13:56:36.999Z</time></trkpt><trkpt lat="41.29238543601991" lon="14.691294943561884"><ele>510.0</ele><time>2026-04-25T13:56:37.999Z</time></trkpt><trkpt lat="41.292330474220286" lon="14.691187697392495"><ele>510.0</ele><time>2026-04-25T13:56:38.999Z</time></trkpt><trkpt lat="41.292273857827496" lon="14.691069222990395"><ele>510.0</ele><time>2026-04-25T13:56:39.999Z</time></trkpt><trkpt lat="41.29221552556143" lon="14.690938847158757"><ele>510.0</ele><time>2026-04-25T13:56:40.999Z</time></trkpt><trkpt lat="41.29202756367561" lon="14.690815559703813"><ele>511.25</ele><time>2026-04-25T13:56:42.999Z</time></trkpt><trkpt lat="41.29190931597684" lon="14.69080024505831"><ele>512.5</ele><time>2026-04-25T13:56:43.999Z</time></trkpt><trkpt lat="41.2917878544095" lon="14.690822154266465"><ele>513.75</ele><time>2026-04-25T13:56:44.999Z</time></trkpt><trkpt lat="41.291663336553746" lon="14.690882200177507"><ele>515.0</ele><time>2026-04-25T13:56:45.999Z</time></trkpt><trkpt lat="41.29153235617497" lon="14.690938148335212"><ele>513.0</ele><time>2026-04-25T13:56:46.999Z</time></trkpt><trkpt lat="41.29137713925305" lon="14.690974083494813"><ele>511.0</ele><time>2026-04-25T13:56:47.999Z</time></trkpt><trkpt lat="41.29122001865631" lon="14.69102589086898"><ele>509.0</ele><time>2026-04-25T13:56:48.999Z</time></trkpt><trkpt lat="41.291092757444474" lon="14.691067254906974"><ele>506.75</ele><time>2026-04-25T13:56:49.999Z</time></trkpt><trkpt lat="41.29096909984642" lon="14.6911107162666"><ele>504.5</ele><time>2026-04-25T13:56:50.999Z</time></trkpt><trkpt lat="41.29084982972905" lon="14.691141486647085"><ele>502.25</ele><time>2026-04-25T13:56:51.999Z</time></trkpt><trkpt lat="41.290732172371136" lon="14.69114294952624"><ele>500.0</ele><time>2026-04-25T13:56:52.999Z</time></trkpt><trkpt lat="41.29063804432731" lon="14.691147104752789"><ele>499.8333333333333</ele><time>2026-04-25T13:56:53.999Z</time></trkpt><trkpt lat="41.290561612121124" lon="14.69114738191076"><ele>499.66666666666663</ele><time>2026-04-25T13:56:54.999Z</time></trkpt><trkpt lat="41.29049726459591" lon="14.691123890703174"><ele>499.5</ele><time>2026-04-25T13:56:55.999Z</time></trkpt><trkpt lat="41.290447892207155" lon="14.691067303269232"><ele>499.33333333333337</ele><time>2026-04-25T13:56:56.999Z</time></trkpt><trkpt lat="41.290371491288894" lon="14.690970586799661"><ele>499.1666666666667</ele><time>2026-04-25T13:56:58.999Z</time></trkpt><trkpt lat="41.290383399913736" lon="14.690884101453424"><ele>499.0</ele><time>2026-04-25T13:56:59.999Z</time></trkpt><trkpt lat="41.29037205173742" lon="14.690779842836848"><ele>499.0</ele><time>2026-04-25T13:57:02.999Z</time></trkpt></trkseg></trk></gpx>